<?xml version="1.0" encoding="UTF-8" standalone="no" ?>
<gpx xmlns="http://www.topografix.com/GPX/1/1" xmlns:xsi="http://www.w3.org/2001/XMLSchema-instance" xsi:schemaLocation="http://www.topografix.com/GPX/1/1 http://www.topografix.com/GPX/1/1/gpx.xsd" version="1.1" creator="VisuGPX - https://www.visugpx.com">
  <metadata>
    <name>Portella de Font Romeu - RAQUETTES - Font Romeu (66) - Boucle autour du golf par le musée sans mur et un tronçon du circuit raquettes balisé n° 6 - Le 19 janvier 2026.</name>
    <desc><![CDATA[fykidskgxks]]></desc>
  </metadata>
  <trk>
    <name><![CDATA[Activité dans l'après-midi]]></name>
    <extensions>
      <line xmlns="http://www.topografix.com/GPX/gpx_style/0/2">
        <color>0000FF</color>
        <width>4</width>
      </line>
    </extensions>
    <trkseg>
      <trkpt lat="42.50569" lon="2.03817">
        <ele>1783.9</ele>
        <time>2026-01-19T13:43:34Z</time>
      </trkpt>
      <trkpt lat="42.50569" lon="2.03819">
        <ele>1784</ele>
        <time>2026-01-19T13:43:35Z</time>
      </trkpt>
      <trkpt lat="42.50569" lon="2.0382">
        <ele>1784</ele>
        <time>2026-01-19T13:43:36Z</time>
      </trkpt>
      <trkpt lat="42.50569" lon="2.03823">
        <ele>1784.1</ele>
        <time>2026-01-19T13:43:37Z</time>
      </trkpt>
      <trkpt lat="42.50569" lon="2.03824">
        <ele>1784.2</ele>
        <time>2026-01-19T13:43:38Z</time>
      </trkpt>
      <trkpt lat="42.50568" lon="2.03825">
        <ele>1784.2</ele>
        <time>2026-01-19T13:43:39Z</time>
      </trkpt>
      <trkpt lat="42.50568" lon="2.03827">
        <ele>1784.3</ele>
        <time>2026-01-19T13:43:40Z</time>
      </trkpt>
      <trkpt lat="42.50568" lon="2.03828">
        <ele>1784.3</ele>
        <time>2026-01-19T13:43:41Z</time>
      </trkpt>
      <trkpt lat="42.50568" lon="2.0383">
        <ele>1784.4</ele>
        <time>2026-01-19T13:43:42Z</time>
      </trkpt>
      <trkpt lat="42.50568" lon="2.03833">
        <ele>1784.5</ele>
        <time>2026-01-19T13:43:43Z</time>
      </trkpt>
      <trkpt lat="42.50568" lon="2.03834">
        <ele>1784.5</ele>
        <time>2026-01-19T13:43:44Z</time>
      </trkpt>
      <trkpt lat="42.50568" lon="2.03835">
        <ele>1784.6</ele>
        <time>2026-01-19T13:43:45Z</time>
      </trkpt>
      <trkpt lat="42.50569" lon="2.03838">
        <ele>1784.7</ele>
        <time>2026-01-19T13:43:46Z</time>
      </trkpt>
      <trkpt lat="42.50569" lon="2.03839">
        <ele>1784.7</ele>
        <time>2026-01-19T13:43:47Z</time>
      </trkpt>
      <trkpt lat="42.50569" lon="2.0384">
        <ele>1784.8</ele>
        <time>2026-01-19T13:43:48Z</time>
      </trkpt>
      <trkpt lat="42.50569" lon="2.03841">
        <ele>1784.8</ele>
        <time>2026-01-19T13:43:49Z</time>
      </trkpt>
      <trkpt lat="42.5057" lon="2.03843">
        <ele>1784.9</ele>
        <time>2026-01-19T13:43:50Z</time>
      </trkpt>
      <trkpt lat="42.50571" lon="2.03843">
        <ele>1784.9</ele>
        <time>2026-01-19T13:43:51Z</time>
      </trkpt>
      <trkpt lat="42.50572" lon="2.03844">
        <ele>1785</ele>
        <time>2026-01-19T13:43:52Z</time>
      </trkpt>
      <trkpt lat="42.50573" lon="2.03845">
        <ele>1785</ele>
        <time>2026-01-19T13:43:53Z</time>
      </trkpt>
      <trkpt lat="42.50573" lon="2.03846">
        <ele>1785.1</ele>
        <time>2026-01-19T13:43:54Z</time>
      </trkpt>
      <trkpt lat="42.50574" lon="2.03847">
        <ele>1785.1</ele>
        <time>2026-01-19T13:43:55Z</time>
      </trkpt>
      <trkpt lat="42.50574" lon="2.03849">
        <ele>1785.2</ele>
        <time>2026-01-19T13:43:56Z</time>
      </trkpt>
      <trkpt lat="42.50575" lon="2.0385">
        <ele>1785.2</ele>
        <time>2026-01-19T13:43:57Z</time>
      </trkpt>
      <trkpt lat="42.50576" lon="2.03852">
        <ele>1785.3</ele>
        <time>2026-01-19T13:43:58Z</time>
      </trkpt>
      <trkpt lat="42.50576" lon="2.03853">
        <ele>1785.3</ele>
        <time>2026-01-19T13:43:59Z</time>
      </trkpt>
      <trkpt lat="42.50577" lon="2.03854">
        <ele>1785.4</ele>
        <time>2026-01-19T13:44:00Z</time>
      </trkpt>
      <trkpt lat="42.50577" lon="2.03856">
        <ele>1785.4</ele>
        <time>2026-01-19T13:44:01Z</time>
      </trkpt>
      <trkpt lat="42.50577" lon="2.03858">
        <ele>1785.4</ele>
        <time>2026-01-19T13:44:02Z</time>
      </trkpt>
      <trkpt lat="42.50578" lon="2.03858">
        <ele>1785.4</ele>
        <time>2026-01-19T13:44:03Z</time>
      </trkpt>
      <trkpt lat="42.50578" lon="2.03861">
        <ele>1785.5</ele>
        <time>2026-01-19T13:44:04Z</time>
      </trkpt>
      <trkpt lat="42.50578" lon="2.03863">
        <ele>1785.5</ele>
        <time>2026-01-19T13:44:05Z</time>
      </trkpt>
      <trkpt lat="42.50578" lon="2.03864">
        <ele>1785.5</ele>
        <time>2026-01-19T13:44:06Z</time>
      </trkpt>
      <trkpt lat="42.50578" lon="2.03866">
        <ele>1785.6</ele>
        <time>2026-01-19T13:44:07Z</time>
      </trkpt>
      <trkpt lat="42.50578" lon="2.03867">
        <ele>1785.6</ele>
        <time>2026-01-19T13:44:08Z</time>
      </trkpt>
      <trkpt lat="42.50578" lon="2.03869">
        <ele>1785.6</ele>
        <time>2026-01-19T13:44:09Z</time>
      </trkpt>
      <trkpt lat="42.50579" lon="2.03871">
        <ele>1785.6</ele>
        <time>2026-01-19T13:44:10Z</time>
      </trkpt>
      <trkpt lat="42.5058" lon="2.03872">
        <ele>1785.6</ele>
        <time>2026-01-19T13:44:11Z</time>
      </trkpt>
      <trkpt lat="42.5058" lon="2.03873">
        <ele>1785.6</ele>
        <time>2026-01-19T13:44:12Z</time>
      </trkpt>
      <trkpt lat="42.50581" lon="2.03874">
        <ele>1785.6</ele>
        <time>2026-01-19T13:44:13Z</time>
      </trkpt>
      <trkpt lat="42.50582" lon="2.03876">
        <ele>1785.7</ele>
        <time>2026-01-19T13:44:14Z</time>
      </trkpt>
      <trkpt lat="42.50582" lon="2.03877">
        <ele>1785.7</ele>
        <time>2026-01-19T13:44:15Z</time>
      </trkpt>
      <trkpt lat="42.50583" lon="2.03878">
        <ele>1785.7</ele>
        <time>2026-01-19T13:44:16Z</time>
      </trkpt>
      <trkpt lat="42.50584" lon="2.03879">
        <ele>1785.7</ele>
        <time>2026-01-19T13:44:17Z</time>
      </trkpt>
      <trkpt lat="42.50585" lon="2.03881">
        <ele>1785.7</ele>
        <time>2026-01-19T13:44:19Z</time>
      </trkpt>
      <trkpt lat="42.50586" lon="2.03882">
        <ele>1785.7</ele>
        <time>2026-01-19T13:44:20Z</time>
      </trkpt>
      <trkpt lat="42.50587" lon="2.03883">
        <ele>1785.7</ele>
        <time>2026-01-19T13:44:21Z</time>
      </trkpt>
      <trkpt lat="42.50588" lon="2.03885">
        <ele>1785.7</ele>
        <time>2026-01-19T13:44:22Z</time>
      </trkpt>
      <trkpt lat="42.50589" lon="2.03886">
        <ele>1785.7</ele>
        <time>2026-01-19T13:44:23Z</time>
      </trkpt>
      <trkpt lat="42.5059" lon="2.03887">
        <ele>1785.8</ele>
        <time>2026-01-19T13:44:24Z</time>
      </trkpt>
      <trkpt lat="42.5059" lon="2.03888">
        <ele>1785.8</ele>
        <time>2026-01-19T13:44:25Z</time>
      </trkpt>
      <trkpt lat="42.50591" lon="2.03888">
        <ele>1785.8</ele>
        <time>2026-01-19T13:44:26Z</time>
      </trkpt>
      <trkpt lat="42.50591" lon="2.03889">
        <ele>1785.8</ele>
        <time>2026-01-19T13:44:27Z</time>
      </trkpt>
      <trkpt lat="42.50592" lon="2.0389">
        <ele>1785.8</ele>
        <time>2026-01-19T13:44:28Z</time>
      </trkpt>
      <trkpt lat="42.50592" lon="2.0389">
        <ele>1785.8</ele>
        <time>2026-01-19T13:44:29Z</time>
      </trkpt>
      <trkpt lat="42.50593" lon="2.03892">
        <ele>1785.8</ele>
        <time>2026-01-19T13:44:30Z</time>
      </trkpt>
      <trkpt lat="42.50593" lon="2.03891">
        <ele>1785.8</ele>
        <time>2026-01-19T13:44:31Z</time>
      </trkpt>
      <trkpt lat="42.50594" lon="2.03892">
        <ele>1785.8</ele>
        <time>2026-01-19T13:44:32Z</time>
      </trkpt>
      <trkpt lat="42.50595" lon="2.03893">
        <ele>1785.8</ele>
        <time>2026-01-19T13:44:33Z</time>
      </trkpt>
      <trkpt lat="42.50595" lon="2.03895">
        <ele>1785.8</ele>
        <time>2026-01-19T13:44:34Z</time>
      </trkpt>
      <trkpt lat="42.50596" lon="2.03896">
        <ele>1785.9</ele>
        <time>2026-01-19T13:44:35Z</time>
      </trkpt>
      <trkpt lat="42.50597" lon="2.03898">
        <ele>1785.9</ele>
        <time>2026-01-19T13:44:36Z</time>
      </trkpt>
      <trkpt lat="42.50598" lon="2.03899">
        <ele>1785.9</ele>
        <time>2026-01-19T13:44:37Z</time>
      </trkpt>
      <trkpt lat="42.506" lon="2.03901">
        <ele>1785.9</ele>
        <time>2026-01-19T13:44:38Z</time>
      </trkpt>
      <trkpt lat="42.50601" lon="2.03901">
        <ele>1785.9</ele>
        <time>2026-01-19T13:44:39Z</time>
      </trkpt>
      <trkpt lat="42.50602" lon="2.03901">
        <ele>1785.9</ele>
        <time>2026-01-19T13:44:40Z</time>
      </trkpt>
      <trkpt lat="42.50603" lon="2.03903">
        <ele>1785.9</ele>
        <time>2026-01-19T13:44:41Z</time>
      </trkpt>
      <trkpt lat="42.50604" lon="2.03904">
        <ele>1785.9</ele>
        <time>2026-01-19T13:44:42Z</time>
      </trkpt>
      <trkpt lat="42.50605" lon="2.03906">
        <ele>1785.9</ele>
        <time>2026-01-19T13:44:43Z</time>
      </trkpt>
      <trkpt lat="42.50606" lon="2.03907">
        <ele>1785.9</ele>
        <time>2026-01-19T13:44:44Z</time>
      </trkpt>
      <trkpt lat="42.50606" lon="2.03908">
        <ele>1785.9</ele>
        <time>2026-01-19T13:44:45Z</time>
      </trkpt>
      <trkpt lat="42.50608" lon="2.03909">
        <ele>1786</ele>
        <time>2026-01-19T13:44:46Z</time>
      </trkpt>
      <trkpt lat="42.50609" lon="2.0391">
        <ele>1786</ele>
        <time>2026-01-19T13:44:47Z</time>
      </trkpt>
      <trkpt lat="42.5061" lon="2.03912">
        <ele>1786</ele>
        <time>2026-01-19T13:44:48Z</time>
      </trkpt>
      <trkpt lat="42.50611" lon="2.03914">
        <ele>1786</ele>
        <time>2026-01-19T13:44:49Z</time>
      </trkpt>
      <trkpt lat="42.50613" lon="2.03915">
        <ele>1786</ele>
        <time>2026-01-19T13:44:50Z</time>
      </trkpt>
      <trkpt lat="42.50614" lon="2.03916">
        <ele>1786</ele>
        <time>2026-01-19T13:44:51Z</time>
      </trkpt>
      <trkpt lat="42.50615" lon="2.03918">
        <ele>1786</ele>
        <time>2026-01-19T13:44:52Z</time>
      </trkpt>
      <trkpt lat="42.50616" lon="2.03919">
        <ele>1786</ele>
        <time>2026-01-19T13:44:53Z</time>
      </trkpt>
      <trkpt lat="42.50618" lon="2.03922">
        <ele>1786.1</ele>
        <time>2026-01-19T13:44:54Z</time>
      </trkpt>
      <trkpt lat="42.50619" lon="2.03923">
        <ele>1786.1</ele>
        <time>2026-01-19T13:44:55Z</time>
      </trkpt>
      <trkpt lat="42.50621" lon="2.03926">
        <ele>1786.1</ele>
        <time>2026-01-19T13:44:56Z</time>
      </trkpt>
      <trkpt lat="42.50623" lon="2.03929">
        <ele>1786.1</ele>
        <time>2026-01-19T13:44:57Z</time>
      </trkpt>
      <trkpt lat="42.50624" lon="2.0393">
        <ele>1786.2</ele>
        <time>2026-01-19T13:44:58Z</time>
      </trkpt>
      <trkpt lat="42.50625" lon="2.03933">
        <ele>1786.2</ele>
        <time>2026-01-19T13:44:59Z</time>
      </trkpt>
      <trkpt lat="42.50626" lon="2.03934">
        <ele>1786.2</ele>
        <time>2026-01-19T13:45:00Z</time>
      </trkpt>
      <trkpt lat="42.50627" lon="2.03936">
        <ele>1786.3</ele>
        <time>2026-01-19T13:45:01Z</time>
      </trkpt>
      <trkpt lat="42.50628" lon="2.03936">
        <ele>1786.3</ele>
        <time>2026-01-19T13:45:02Z</time>
      </trkpt>
      <trkpt lat="42.5063" lon="2.03937">
        <ele>1786.4</ele>
        <time>2026-01-19T13:45:03Z</time>
      </trkpt>
      <trkpt lat="42.50631" lon="2.03939">
        <ele>1786.5</ele>
        <time>2026-01-19T13:45:04Z</time>
      </trkpt>
      <trkpt lat="42.50631" lon="2.03941">
        <ele>1786.5</ele>
        <time>2026-01-19T13:45:05Z</time>
      </trkpt>
      <trkpt lat="42.50632" lon="2.03942">
        <ele>1786.6</ele>
        <time>2026-01-19T13:45:06Z</time>
      </trkpt>
      <trkpt lat="42.50633" lon="2.03945">
        <ele>1786.7</ele>
        <time>2026-01-19T13:45:07Z</time>
      </trkpt>
      <trkpt lat="42.50633" lon="2.03946">
        <ele>1786.7</ele>
        <time>2026-01-19T13:45:08Z</time>
      </trkpt>
      <trkpt lat="42.50634" lon="2.03947">
        <ele>1786.8</ele>
        <time>2026-01-19T13:45:09Z</time>
      </trkpt>
      <trkpt lat="42.50635" lon="2.0395">
        <ele>1786.9</ele>
        <time>2026-01-19T13:45:10Z</time>
      </trkpt>
      <trkpt lat="42.50635" lon="2.03951">
        <ele>1786.9</ele>
        <time>2026-01-19T13:45:11Z</time>
      </trkpt>
      <trkpt lat="42.50635" lon="2.03952">
        <ele>1786.9</ele>
        <time>2026-01-19T13:45:12Z</time>
      </trkpt>
      <trkpt lat="42.50637" lon="2.03954">
        <ele>1787</ele>
        <time>2026-01-19T13:45:13Z</time>
      </trkpt>
      <trkpt lat="42.50637" lon="2.03955">
        <ele>1787</ele>
        <time>2026-01-19T13:45:14Z</time>
      </trkpt>
      <trkpt lat="42.50638" lon="2.03956">
        <ele>1787.1</ele>
        <time>2026-01-19T13:45:15Z</time>
      </trkpt>
      <trkpt lat="42.50639" lon="2.03958">
        <ele>1787.1</ele>
        <time>2026-01-19T13:45:16Z</time>
      </trkpt>
      <trkpt lat="42.50639" lon="2.03959">
        <ele>1787.2</ele>
        <time>2026-01-19T13:45:17Z</time>
      </trkpt>
      <trkpt lat="42.5064" lon="2.0396">
        <ele>1787.2</ele>
        <time>2026-01-19T13:45:18Z</time>
      </trkpt>
      <trkpt lat="42.50641" lon="2.03963">
        <ele>1787.3</ele>
        <time>2026-01-19T13:45:19Z</time>
      </trkpt>
      <trkpt lat="42.50642" lon="2.03964">
        <ele>1787.3</ele>
        <time>2026-01-19T13:45:20Z</time>
      </trkpt>
      <trkpt lat="42.50642" lon="2.03966">
        <ele>1787.4</ele>
        <time>2026-01-19T13:45:21Z</time>
      </trkpt>
      <trkpt lat="42.50643" lon="2.03968">
        <ele>1787.4</ele>
        <time>2026-01-19T13:45:22Z</time>
      </trkpt>
      <trkpt lat="42.50643" lon="2.03969">
        <ele>1787.5</ele>
        <time>2026-01-19T13:45:23Z</time>
      </trkpt>
      <trkpt lat="42.50644" lon="2.03972">
        <ele>1787.5</ele>
        <time>2026-01-19T13:45:24Z</time>
      </trkpt>
      <trkpt lat="42.50644" lon="2.03974">
        <ele>1787.6</ele>
        <time>2026-01-19T13:45:25Z</time>
      </trkpt>
      <trkpt lat="42.50645" lon="2.03976">
        <ele>1787.7</ele>
        <time>2026-01-19T13:45:26Z</time>
      </trkpt>
      <trkpt lat="42.50646" lon="2.03978">
        <ele>1787.7</ele>
        <time>2026-01-19T13:45:27Z</time>
      </trkpt>
      <trkpt lat="42.50646" lon="2.03979">
        <ele>1787.8</ele>
        <time>2026-01-19T13:45:28Z</time>
      </trkpt>
      <trkpt lat="42.50647" lon="2.03981">
        <ele>1787.8</ele>
        <time>2026-01-19T13:45:29Z</time>
      </trkpt>
      <trkpt lat="42.50648" lon="2.03984">
        <ele>1787.9</ele>
        <time>2026-01-19T13:45:30Z</time>
      </trkpt>
      <trkpt lat="42.50648" lon="2.03985">
        <ele>1788</ele>
        <time>2026-01-19T13:45:31Z</time>
      </trkpt>
      <trkpt lat="42.50648" lon="2.03986">
        <ele>1788</ele>
        <time>2026-01-19T13:45:32Z</time>
      </trkpt>
      <trkpt lat="42.50649" lon="2.03989">
        <ele>1788.1</ele>
        <time>2026-01-19T13:45:33Z</time>
      </trkpt>
      <trkpt lat="42.50649" lon="2.0399">
        <ele>1788.1</ele>
        <time>2026-01-19T13:45:34Z</time>
      </trkpt>
      <trkpt lat="42.5065" lon="2.03991">
        <ele>1788.2</ele>
        <time>2026-01-19T13:45:35Z</time>
      </trkpt>
      <trkpt lat="42.50651" lon="2.03993">
        <ele>1788.2</ele>
        <time>2026-01-19T13:45:36Z</time>
      </trkpt>
      <trkpt lat="42.50651" lon="2.03994">
        <ele>1788.3</ele>
        <time>2026-01-19T13:45:37Z</time>
      </trkpt>
      <trkpt lat="42.50652" lon="2.03995">
        <ele>1788.3</ele>
        <time>2026-01-19T13:45:38Z</time>
      </trkpt>
      <trkpt lat="42.50653" lon="2.03997">
        <ele>1788.4</ele>
        <time>2026-01-19T13:45:39Z</time>
      </trkpt>
      <trkpt lat="42.50654" lon="2.03998">
        <ele>1788.4</ele>
        <time>2026-01-19T13:45:40Z</time>
      </trkpt>
      <trkpt lat="42.50654" lon="2.03999">
        <ele>1788.5</ele>
        <time>2026-01-19T13:45:41Z</time>
      </trkpt>
      <trkpt lat="42.50655" lon="2.04001">
        <ele>1788.5</ele>
        <time>2026-01-19T13:45:42Z</time>
      </trkpt>
      <trkpt lat="42.50656" lon="2.04002">
        <ele>1788.6</ele>
        <time>2026-01-19T13:45:43Z</time>
      </trkpt>
      <trkpt lat="42.50656" lon="2.04003">
        <ele>1788.6</ele>
        <time>2026-01-19T13:45:44Z</time>
      </trkpt>
      <trkpt lat="42.50657" lon="2.04005">
        <ele>1788.7</ele>
        <time>2026-01-19T13:45:45Z</time>
      </trkpt>
      <trkpt lat="42.50658" lon="2.04006">
        <ele>1788.7</ele>
        <time>2026-01-19T13:45:46Z</time>
      </trkpt>
      <trkpt lat="42.50658" lon="2.04007">
        <ele>1788.8</ele>
        <time>2026-01-19T13:45:47Z</time>
      </trkpt>
      <trkpt lat="42.50659" lon="2.04008">
        <ele>1788.8</ele>
        <time>2026-01-19T13:45:48Z</time>
      </trkpt>
      <trkpt lat="42.5066" lon="2.04009">
        <ele>1788.9</ele>
        <time>2026-01-19T13:45:49Z</time>
      </trkpt>
      <trkpt lat="42.50661" lon="2.0401">
        <ele>1788.9</ele>
        <time>2026-01-19T13:45:50Z</time>
      </trkpt>
      <trkpt lat="42.50661" lon="2.04011">
        <ele>1789</ele>
        <time>2026-01-19T13:45:51Z</time>
      </trkpt>
      <trkpt lat="42.50662" lon="2.04013">
        <ele>1789</ele>
        <time>2026-01-19T13:45:52Z</time>
      </trkpt>
      <trkpt lat="42.50663" lon="2.04014">
        <ele>1789.1</ele>
        <time>2026-01-19T13:45:53Z</time>
      </trkpt>
      <trkpt lat="42.50663" lon="2.04016">
        <ele>1789.1</ele>
        <time>2026-01-19T13:45:54Z</time>
      </trkpt>
      <trkpt lat="42.50664" lon="2.04017">
        <ele>1789.2</ele>
        <time>2026-01-19T13:45:55Z</time>
      </trkpt>
      <trkpt lat="42.50664" lon="2.04018">
        <ele>1789.2</ele>
        <time>2026-01-19T13:45:56Z</time>
      </trkpt>
      <trkpt lat="42.50665" lon="2.04021">
        <ele>1789.3</ele>
        <time>2026-01-19T13:45:57Z</time>
      </trkpt>
      <trkpt lat="42.50665" lon="2.04022">
        <ele>1789.4</ele>
        <time>2026-01-19T13:45:58Z</time>
      </trkpt>
      <trkpt lat="42.50665" lon="2.04023">
        <ele>1789.4</ele>
        <time>2026-01-19T13:45:59Z</time>
      </trkpt>
      <trkpt lat="42.50666" lon="2.04025">
        <ele>1789.5</ele>
        <time>2026-01-19T13:46:00Z</time>
      </trkpt>
      <trkpt lat="42.50666" lon="2.04027">
        <ele>1789.6</ele>
        <time>2026-01-19T13:46:01Z</time>
      </trkpt>
      <trkpt lat="42.50666" lon="2.04029">
        <ele>1789.7</ele>
        <time>2026-01-19T13:46:02Z</time>
      </trkpt>
      <trkpt lat="42.50667" lon="2.04031">
        <ele>1789.7</ele>
        <time>2026-01-19T13:46:03Z</time>
      </trkpt>
      <trkpt lat="42.50667" lon="2.04033">
        <ele>1789.8</ele>
        <time>2026-01-19T13:46:04Z</time>
      </trkpt>
      <trkpt lat="42.50668" lon="2.04034">
        <ele>1789.9</ele>
        <time>2026-01-19T13:46:05Z</time>
      </trkpt>
      <trkpt lat="42.50669" lon="2.04036">
        <ele>1789.9</ele>
        <time>2026-01-19T13:46:06Z</time>
      </trkpt>
      <trkpt lat="42.5067" lon="2.04037">
        <ele>1790</ele>
        <time>2026-01-19T13:46:07Z</time>
      </trkpt>
      <trkpt lat="42.5067" lon="2.04039">
        <ele>1790</ele>
        <time>2026-01-19T13:46:08Z</time>
      </trkpt>
      <trkpt lat="42.50671" lon="2.04041">
        <ele>1790.1</ele>
        <time>2026-01-19T13:46:09Z</time>
      </trkpt>
      <trkpt lat="42.50672" lon="2.04042">
        <ele>1790.1</ele>
        <time>2026-01-19T13:46:10Z</time>
      </trkpt>
      <trkpt lat="42.50673" lon="2.04044">
        <ele>1790.2</ele>
        <time>2026-01-19T13:46:11Z</time>
      </trkpt>
      <trkpt lat="42.50674" lon="2.04045">
        <ele>1790.2</ele>
        <time>2026-01-19T13:46:12Z</time>
      </trkpt>
      <trkpt lat="42.50675" lon="2.04047">
        <ele>1790.3</ele>
        <time>2026-01-19T13:46:13Z</time>
      </trkpt>
      <trkpt lat="42.50676" lon="2.04049">
        <ele>1790.4</ele>
        <time>2026-01-19T13:46:14Z</time>
      </trkpt>
      <trkpt lat="42.50677" lon="2.0405">
        <ele>1790.4</ele>
        <time>2026-01-19T13:46:15Z</time>
      </trkpt>
      <trkpt lat="42.50677" lon="2.04051">
        <ele>1790.4</ele>
        <time>2026-01-19T13:46:16Z</time>
      </trkpt>
      <trkpt lat="42.50679" lon="2.04052">
        <ele>1790.5</ele>
        <time>2026-01-19T13:46:17Z</time>
      </trkpt>
      <trkpt lat="42.5068" lon="2.04054">
        <ele>1790.6</ele>
        <time>2026-01-19T13:46:18Z</time>
      </trkpt>
      <trkpt lat="42.50681" lon="2.04055">
        <ele>1790.6</ele>
        <time>2026-01-19T13:46:19Z</time>
      </trkpt>
      <trkpt lat="42.50682" lon="2.04056">
        <ele>1790.7</ele>
        <time>2026-01-19T13:46:20Z</time>
      </trkpt>
      <trkpt lat="42.50683" lon="2.04057">
        <ele>1790.8</ele>
        <time>2026-01-19T13:46:21Z</time>
      </trkpt>
      <trkpt lat="42.50684" lon="2.04059">
        <ele>1790.8</ele>
        <time>2026-01-19T13:46:22Z</time>
      </trkpt>
      <trkpt lat="42.50685" lon="2.0406">
        <ele>1790.9</ele>
        <time>2026-01-19T13:46:23Z</time>
      </trkpt>
      <trkpt lat="42.50686" lon="2.04062">
        <ele>1791</ele>
        <time>2026-01-19T13:46:24Z</time>
      </trkpt>
      <trkpt lat="42.50687" lon="2.04063">
        <ele>1791</ele>
        <time>2026-01-19T13:46:25Z</time>
      </trkpt>
      <trkpt lat="42.50687" lon="2.04065">
        <ele>1791.1</ele>
        <time>2026-01-19T13:46:26Z</time>
      </trkpt>
      <trkpt lat="42.50688" lon="2.04067">
        <ele>1791.1</ele>
        <time>2026-01-19T13:46:27Z</time>
      </trkpt>
      <trkpt lat="42.50689" lon="2.04068">
        <ele>1791.2</ele>
        <time>2026-01-19T13:46:28Z</time>
      </trkpt>
      <trkpt lat="42.50689" lon="2.0407">
        <ele>1791.2</ele>
        <time>2026-01-19T13:46:29Z</time>
      </trkpt>
      <trkpt lat="42.50689" lon="2.04072">
        <ele>1791.3</ele>
        <time>2026-01-19T13:46:30Z</time>
      </trkpt>
      <trkpt lat="42.5069" lon="2.04075">
        <ele>1791.4</ele>
        <time>2026-01-19T13:46:31Z</time>
      </trkpt>
      <trkpt lat="42.5069" lon="2.04076">
        <ele>1791.4</ele>
        <time>2026-01-19T13:46:32Z</time>
      </trkpt>
      <trkpt lat="42.5069" lon="2.04078">
        <ele>1791.4</ele>
        <time>2026-01-19T13:46:33Z</time>
      </trkpt>
      <trkpt lat="42.50691" lon="2.0408">
        <ele>1791.5</ele>
        <time>2026-01-19T13:46:34Z</time>
      </trkpt>
      <trkpt lat="42.50691" lon="2.04081">
        <ele>1791.5</ele>
        <time>2026-01-19T13:46:35Z</time>
      </trkpt>
      <trkpt lat="42.50691" lon="2.04083">
        <ele>1791.5</ele>
        <time>2026-01-19T13:46:36Z</time>
      </trkpt>
      <trkpt lat="42.50691" lon="2.04085">
        <ele>1791.6</ele>
        <time>2026-01-19T13:46:37Z</time>
      </trkpt>
      <trkpt lat="42.50691" lon="2.04087">
        <ele>1791.6</ele>
        <time>2026-01-19T13:46:38Z</time>
      </trkpt>
      <trkpt lat="42.5069" lon="2.04089">
        <ele>1791.6</ele>
        <time>2026-01-19T13:46:39Z</time>
      </trkpt>
      <trkpt lat="42.5069" lon="2.04091">
        <ele>1791.6</ele>
        <time>2026-01-19T13:46:40Z</time>
      </trkpt>
      <trkpt lat="42.50689" lon="2.04093">
        <ele>1791.7</ele>
        <time>2026-01-19T13:46:41Z</time>
      </trkpt>
      <trkpt lat="42.50689" lon="2.04095">
        <ele>1791.7</ele>
        <time>2026-01-19T13:46:42Z</time>
      </trkpt>
      <trkpt lat="42.50688" lon="2.04097">
        <ele>1791.7</ele>
        <time>2026-01-19T13:46:43Z</time>
      </trkpt>
      <trkpt lat="42.50688" lon="2.04099">
        <ele>1791.7</ele>
        <time>2026-01-19T13:46:44Z</time>
      </trkpt>
      <trkpt lat="42.50688" lon="2.04101">
        <ele>1791.7</ele>
        <time>2026-01-19T13:46:45Z</time>
      </trkpt>
      <trkpt lat="42.50688" lon="2.04103">
        <ele>1791.7</ele>
        <time>2026-01-19T13:46:46Z</time>
      </trkpt>
      <trkpt lat="42.50687" lon="2.04104">
        <ele>1791.7</ele>
        <time>2026-01-19T13:46:47Z</time>
      </trkpt>
      <trkpt lat="42.50686" lon="2.04106">
        <ele>1791.8</ele>
        <time>2026-01-19T13:46:48Z</time>
      </trkpt>
      <trkpt lat="42.50687" lon="2.04108">
        <ele>1791.8</ele>
        <time>2026-01-19T13:46:49Z</time>
      </trkpt>
      <trkpt lat="42.50688" lon="2.04108">
        <ele>1791.8</ele>
        <time>2026-01-19T13:46:50Z</time>
      </trkpt>
      <trkpt lat="42.50689" lon="2.04107">
        <ele>1791.8</ele>
        <time>2026-01-19T13:46:51Z</time>
      </trkpt>
      <trkpt lat="42.5069" lon="2.04105">
        <ele>1791.8</ele>
        <time>2026-01-19T13:46:52Z</time>
      </trkpt>
      <trkpt lat="42.50691" lon="2.04104">
        <ele>1791.8</ele>
        <time>2026-01-19T13:46:53Z</time>
      </trkpt>
      <trkpt lat="42.50692" lon="2.04102">
        <ele>1791.8</ele>
        <time>2026-01-19T13:46:54Z</time>
      </trkpt>
      <trkpt lat="42.50693" lon="2.041">
        <ele>1791.7</ele>
        <time>2026-01-19T13:46:55Z</time>
      </trkpt>
      <trkpt lat="42.50693" lon="2.04098">
        <ele>1791.7</ele>
        <time>2026-01-19T13:46:56Z</time>
      </trkpt>
      <trkpt lat="42.50694" lon="2.04096">
        <ele>1791.7</ele>
        <time>2026-01-19T13:46:57Z</time>
      </trkpt>
      <trkpt lat="42.50695" lon="2.04094">
        <ele>1791.7</ele>
        <time>2026-01-19T13:46:58Z</time>
      </trkpt>
      <trkpt lat="42.50696" lon="2.0409">
        <ele>1791.6</ele>
        <time>2026-01-19T13:46:59Z</time>
      </trkpt>
      <trkpt lat="42.50696" lon="2.04089">
        <ele>1791.7</ele>
        <time>2026-01-19T13:47:00Z</time>
      </trkpt>
      <trkpt lat="42.50698" lon="2.04086">
        <ele>1791.9</ele>
        <time>2026-01-19T13:47:01Z</time>
      </trkpt>
      <trkpt lat="42.50699" lon="2.04085">
        <ele>1791.9</ele>
        <time>2026-01-19T13:47:02Z</time>
      </trkpt>
      <trkpt lat="42.507" lon="2.04083">
        <ele>1792.1</ele>
        <time>2026-01-19T13:47:03Z</time>
      </trkpt>
      <trkpt lat="42.50701" lon="2.04082">
        <ele>1792.2</ele>
        <time>2026-01-19T13:47:04Z</time>
      </trkpt>
      <trkpt lat="42.50702" lon="2.0408">
        <ele>1792.3</ele>
        <time>2026-01-19T13:47:05Z</time>
      </trkpt>
      <trkpt lat="42.50703" lon="2.04079">
        <ele>1792.4</ele>
        <time>2026-01-19T13:47:06Z</time>
      </trkpt>
      <trkpt lat="42.50703" lon="2.04077">
        <ele>1792.6</ele>
        <time>2026-01-19T13:47:07Z</time>
      </trkpt>
      <trkpt lat="42.50704" lon="2.04075">
        <ele>1792.7</ele>
        <time>2026-01-19T13:47:08Z</time>
      </trkpt>
      <trkpt lat="42.50704" lon="2.04074">
        <ele>1792.8</ele>
        <time>2026-01-19T13:47:09Z</time>
      </trkpt>
      <trkpt lat="42.50705" lon="2.04072">
        <ele>1792.9</ele>
        <time>2026-01-19T13:47:10Z</time>
      </trkpt>
      <trkpt lat="42.50706" lon="2.04071">
        <ele>1793</ele>
        <time>2026-01-19T13:47:11Z</time>
      </trkpt>
      <trkpt lat="42.50708" lon="2.0407">
        <ele>1793.2</ele>
        <time>2026-01-19T13:47:12Z</time>
      </trkpt>
      <trkpt lat="42.50709" lon="2.0407">
        <ele>1793.3</ele>
        <time>2026-01-19T13:47:13Z</time>
      </trkpt>
      <trkpt lat="42.5071" lon="2.04069">
        <ele>1793.4</ele>
        <time>2026-01-19T13:47:14Z</time>
      </trkpt>
      <trkpt lat="42.50712" lon="2.04069">
        <ele>1793.5</ele>
        <time>2026-01-19T13:47:15Z</time>
      </trkpt>
      <trkpt lat="42.50713" lon="2.04068">
        <ele>1793.6</ele>
        <time>2026-01-19T13:47:16Z</time>
      </trkpt>
      <trkpt lat="42.50715" lon="2.04067">
        <ele>1793.8</ele>
        <time>2026-01-19T13:47:17Z</time>
      </trkpt>
      <trkpt lat="42.50717" lon="2.04067">
        <ele>1793.9</ele>
        <time>2026-01-19T13:47:18Z</time>
      </trkpt>
      <trkpt lat="42.50718" lon="2.04066">
        <ele>1794.1</ele>
        <time>2026-01-19T13:47:19Z</time>
      </trkpt>
      <trkpt lat="42.5072" lon="2.04066">
        <ele>1794.2</ele>
        <time>2026-01-19T13:47:20Z</time>
      </trkpt>
      <trkpt lat="42.50721" lon="2.04066">
        <ele>1794.4</ele>
        <time>2026-01-19T13:47:21Z</time>
      </trkpt>
      <trkpt lat="42.50723" lon="2.04066">
        <ele>1794.6</ele>
        <time>2026-01-19T13:47:22Z</time>
      </trkpt>
      <trkpt lat="42.50724" lon="2.04067">
        <ele>1794.7</ele>
        <time>2026-01-19T13:47:23Z</time>
      </trkpt>
      <trkpt lat="42.50725" lon="2.04068">
        <ele>1794.9</ele>
        <time>2026-01-19T13:47:24Z</time>
      </trkpt>
      <trkpt lat="42.50727" lon="2.0407">
        <ele>1795.1</ele>
        <time>2026-01-19T13:47:25Z</time>
      </trkpt>
      <trkpt lat="42.50728" lon="2.04071">
        <ele>1795.3</ele>
        <time>2026-01-19T13:47:26Z</time>
      </trkpt>
      <trkpt lat="42.50729" lon="2.04071">
        <ele>1795.4</ele>
        <time>2026-01-19T13:47:27Z</time>
      </trkpt>
      <trkpt lat="42.5073" lon="2.04073">
        <ele>1795.6</ele>
        <time>2026-01-19T13:47:28Z</time>
      </trkpt>
      <trkpt lat="42.50731" lon="2.04074">
        <ele>1795.7</ele>
        <time>2026-01-19T13:47:29Z</time>
      </trkpt>
      <trkpt lat="42.50732" lon="2.04076">
        <ele>1795.9</ele>
        <time>2026-01-19T13:47:30Z</time>
      </trkpt>
      <trkpt lat="42.50733" lon="2.04077">
        <ele>1796.1</ele>
        <time>2026-01-19T13:47:31Z</time>
      </trkpt>
      <trkpt lat="42.50735" lon="2.04078">
        <ele>1796.3</ele>
        <time>2026-01-19T13:47:32Z</time>
      </trkpt>
      <trkpt lat="42.50736" lon="2.04079">
        <ele>1796.5</ele>
        <time>2026-01-19T13:47:33Z</time>
      </trkpt>
      <trkpt lat="42.50738" lon="2.04081">
        <ele>1796.8</ele>
        <time>2026-01-19T13:47:34Z</time>
      </trkpt>
      <trkpt lat="42.50739" lon="2.04082">
        <ele>1797</ele>
        <time>2026-01-19T13:47:35Z</time>
      </trkpt>
      <trkpt lat="42.5074" lon="2.04083">
        <ele>1797.1</ele>
        <time>2026-01-19T13:47:36Z</time>
      </trkpt>
      <trkpt lat="42.50741" lon="2.04084">
        <ele>1797.3</ele>
        <time>2026-01-19T13:47:37Z</time>
      </trkpt>
      <trkpt lat="42.50743" lon="2.04085">
        <ele>1797.6</ele>
        <time>2026-01-19T13:47:38Z</time>
      </trkpt>
      <trkpt lat="42.50744" lon="2.04086">
        <ele>1797.7</ele>
        <time>2026-01-19T13:47:39Z</time>
      </trkpt>
      <trkpt lat="42.50744" lon="2.04086">
        <ele>1797.8</ele>
        <time>2026-01-19T13:47:40Z</time>
      </trkpt>
      <trkpt lat="42.50746" lon="2.04087">
        <ele>1798.1</ele>
        <time>2026-01-19T13:47:41Z</time>
      </trkpt>
      <trkpt lat="42.50747" lon="2.04087">
        <ele>1798.2</ele>
        <time>2026-01-19T13:47:42Z</time>
      </trkpt>
      <trkpt lat="42.50748" lon="2.04087">
        <ele>1798.3</ele>
        <time>2026-01-19T13:47:43Z</time>
      </trkpt>
      <trkpt lat="42.5075" lon="2.04089">
        <ele>1798.5</ele>
        <time>2026-01-19T13:47:44Z</time>
      </trkpt>
      <trkpt lat="42.50751" lon="2.04089">
        <ele>1798.7</ele>
        <time>2026-01-19T13:47:45Z</time>
      </trkpt>
      <trkpt lat="42.50752" lon="2.0409">
        <ele>1798.8</ele>
        <time>2026-01-19T13:47:46Z</time>
      </trkpt>
      <trkpt lat="42.50753" lon="2.04091">
        <ele>1799</ele>
        <time>2026-01-19T13:47:47Z</time>
      </trkpt>
      <trkpt lat="42.50754" lon="2.04092">
        <ele>1799.1</ele>
        <time>2026-01-19T13:47:48Z</time>
      </trkpt>
      <trkpt lat="42.50755" lon="2.04092">
        <ele>1799.2</ele>
        <time>2026-01-19T13:47:49Z</time>
      </trkpt>
      <trkpt lat="42.50756" lon="2.04093">
        <ele>1799.3</ele>
        <time>2026-01-19T13:47:50Z</time>
      </trkpt>
      <trkpt lat="42.50757" lon="2.04092">
        <ele>1799.5</ele>
        <time>2026-01-19T13:47:51Z</time>
      </trkpt>
      <trkpt lat="42.50758" lon="2.04092">
        <ele>1799.6</ele>
        <time>2026-01-19T13:47:52Z</time>
      </trkpt>
      <trkpt lat="42.50759" lon="2.04091">
        <ele>1799.7</ele>
        <time>2026-01-19T13:47:53Z</time>
      </trkpt>
      <trkpt lat="42.5076" lon="2.0409">
        <ele>1799.8</ele>
        <time>2026-01-19T13:47:54Z</time>
      </trkpt>
      <trkpt lat="42.50761" lon="2.04089">
        <ele>1799.9</ele>
        <time>2026-01-19T13:47:55Z</time>
      </trkpt>
      <trkpt lat="42.50761" lon="2.04088">
        <ele>1800.1</ele>
        <time>2026-01-19T13:47:56Z</time>
      </trkpt>
      <trkpt lat="42.50762" lon="2.04087">
        <ele>1800.2</ele>
        <time>2026-01-19T13:47:57Z</time>
      </trkpt>
      <trkpt lat="42.50762" lon="2.04085">
        <ele>1800.3</ele>
        <time>2026-01-19T13:47:58Z</time>
      </trkpt>
      <trkpt lat="42.50762" lon="2.04084">
        <ele>1800.4</ele>
        <time>2026-01-19T13:47:59Z</time>
      </trkpt>
      <trkpt lat="42.50762" lon="2.04082">
        <ele>1800.5</ele>
        <time>2026-01-19T13:48:00Z</time>
      </trkpt>
      <trkpt lat="42.50762" lon="2.04081">
        <ele>1800.6</ele>
        <time>2026-01-19T13:48:01Z</time>
      </trkpt>
      <trkpt lat="42.50762" lon="2.04079">
        <ele>1800.7</ele>
        <time>2026-01-19T13:48:02Z</time>
      </trkpt>
      <trkpt lat="42.50763" lon="2.04078">
        <ele>1800.8</ele>
        <time>2026-01-19T13:48:03Z</time>
      </trkpt>
      <trkpt lat="42.50763" lon="2.04076">
        <ele>1800.9</ele>
        <time>2026-01-19T13:48:04Z</time>
      </trkpt>
      <trkpt lat="42.50764" lon="2.04075">
        <ele>1801</ele>
        <time>2026-01-19T13:48:05Z</time>
      </trkpt>
      <trkpt lat="42.50765" lon="2.04074">
        <ele>1801.2</ele>
        <time>2026-01-19T13:48:06Z</time>
      </trkpt>
      <trkpt lat="42.50766" lon="2.04073">
        <ele>1801.3</ele>
        <time>2026-01-19T13:48:07Z</time>
      </trkpt>
      <trkpt lat="42.50768" lon="2.04073">
        <ele>1801.5</ele>
        <time>2026-01-19T13:48:08Z</time>
      </trkpt>
      <trkpt lat="42.50769" lon="2.04073">
        <ele>1801.6</ele>
        <time>2026-01-19T13:48:09Z</time>
      </trkpt>
      <trkpt lat="42.5077" lon="2.04073">
        <ele>1801.7</ele>
        <time>2026-01-19T13:48:10Z</time>
      </trkpt>
      <trkpt lat="42.50772" lon="2.04073">
        <ele>1801.9</ele>
        <time>2026-01-19T13:48:11Z</time>
      </trkpt>
      <trkpt lat="42.50773" lon="2.04073">
        <ele>1802</ele>
        <time>2026-01-19T13:48:12Z</time>
      </trkpt>
      <trkpt lat="42.50774" lon="2.04073">
        <ele>1802.1</ele>
        <time>2026-01-19T13:48:13Z</time>
      </trkpt>
      <trkpt lat="42.50776" lon="2.04074">
        <ele>1802.4</ele>
        <time>2026-01-19T13:48:14Z</time>
      </trkpt>
      <trkpt lat="42.50777" lon="2.04075">
        <ele>1802.4</ele>
        <time>2026-01-19T13:48:15Z</time>
      </trkpt>
      <trkpt lat="42.50777" lon="2.04075">
        <ele>1802.5</ele>
        <time>2026-01-19T13:48:16Z</time>
      </trkpt>
      <trkpt lat="42.50779" lon="2.04075">
        <ele>1802.7</ele>
        <time>2026-01-19T13:48:17Z</time>
      </trkpt>
      <trkpt lat="42.5078" lon="2.04075">
        <ele>1802.8</ele>
        <time>2026-01-19T13:48:18Z</time>
      </trkpt>
      <trkpt lat="42.5078" lon="2.04075">
        <ele>1802.9</ele>
        <time>2026-01-19T13:48:19Z</time>
      </trkpt>
      <trkpt lat="42.50782" lon="2.04075">
        <ele>1803</ele>
        <time>2026-01-19T13:48:20Z</time>
      </trkpt>
      <trkpt lat="42.50782" lon="2.04074">
        <ele>1803.1</ele>
        <time>2026-01-19T13:48:21Z</time>
      </trkpt>
      <trkpt lat="42.50783" lon="2.04074">
        <ele>1803.2</ele>
        <time>2026-01-19T13:48:22Z</time>
      </trkpt>
      <trkpt lat="42.50784" lon="2.04073">
        <ele>1803.2</ele>
        <time>2026-01-19T13:48:23Z</time>
      </trkpt>
      <trkpt lat="42.50785" lon="2.04073">
        <ele>1803.3</ele>
        <time>2026-01-19T13:48:24Z</time>
      </trkpt>
      <trkpt lat="42.50786" lon="2.04073">
        <ele>1803.4</ele>
        <time>2026-01-19T13:48:25Z</time>
      </trkpt>
      <trkpt lat="42.50787" lon="2.04073">
        <ele>1803.4</ele>
        <time>2026-01-19T13:48:26Z</time>
      </trkpt>
      <trkpt lat="42.50788" lon="2.04073">
        <ele>1803.5</ele>
        <time>2026-01-19T13:48:27Z</time>
      </trkpt>
      <trkpt lat="42.50789" lon="2.04073">
        <ele>1803.6</ele>
        <time>2026-01-19T13:48:28Z</time>
      </trkpt>
      <trkpt lat="42.5079" lon="2.04073">
        <ele>1803.6</ele>
        <time>2026-01-19T13:48:29Z</time>
      </trkpt>
      <trkpt lat="42.50791" lon="2.04074">
        <ele>1803.7</ele>
        <time>2026-01-19T13:48:30Z</time>
      </trkpt>
      <trkpt lat="42.50792" lon="2.04074">
        <ele>1803.7</ele>
        <time>2026-01-19T13:48:31Z</time>
      </trkpt>
      <trkpt lat="42.50792" lon="2.04075">
        <ele>1803.7</ele>
        <time>2026-01-19T13:48:32Z</time>
      </trkpt>
      <trkpt lat="42.50793" lon="2.04076">
        <ele>1803.7</ele>
        <time>2026-01-19T13:48:33Z</time>
      </trkpt>
      <trkpt lat="42.50794" lon="2.04077">
        <ele>1803.8</ele>
        <time>2026-01-19T13:48:34Z</time>
      </trkpt>
      <trkpt lat="42.50794" lon="2.04078">
        <ele>1803.8</ele>
        <time>2026-01-19T13:48:35Z</time>
      </trkpt>
      <trkpt lat="42.50794" lon="2.04079">
        <ele>1803.8</ele>
        <time>2026-01-19T13:48:36Z</time>
      </trkpt>
      <trkpt lat="42.50794" lon="2.0408">
        <ele>1803.8</ele>
        <time>2026-01-19T13:48:37Z</time>
      </trkpt>
      <trkpt lat="42.50794" lon="2.0408">
        <ele>1803.8</ele>
        <time>2026-01-19T13:48:38Z</time>
      </trkpt>
      <trkpt lat="42.50793" lon="2.0408">
        <ele>1803.8</ele>
        <time>2026-01-19T13:48:39Z</time>
      </trkpt>
      <trkpt lat="42.50793" lon="2.0408">
        <ele>1803.9</ele>
        <time>2026-01-19T13:48:40Z</time>
      </trkpt>
      <trkpt lat="42.50792" lon="2.0408">
        <ele>1803.9</ele>
        <time>2026-01-19T13:48:41Z</time>
      </trkpt>
      <trkpt lat="42.50792" lon="2.0408">
        <ele>1803.9</ele>
        <time>2026-01-19T13:48:42Z</time>
      </trkpt>
      <trkpt lat="42.50792" lon="2.0408">
        <ele>1803.9</ele>
        <time>2026-01-19T13:48:43Z</time>
      </trkpt>
      <trkpt lat="42.50792" lon="2.0408">
        <ele>1803.9</ele>
        <time>2026-01-19T13:48:44Z</time>
      </trkpt>
      <trkpt lat="42.50792" lon="2.0408">
        <ele>1803.9</ele>
        <time>2026-01-19T13:48:45Z</time>
      </trkpt>
      <trkpt lat="42.50791" lon="2.0408">
        <ele>1803.9</ele>
        <time>2026-01-19T13:48:46Z</time>
      </trkpt>
      <trkpt lat="42.50791" lon="2.0408">
        <ele>1803.9</ele>
        <time>2026-01-19T13:48:47Z</time>
      </trkpt>
      <trkpt lat="42.50791" lon="2.0408">
        <ele>1803.9</ele>
        <time>2026-01-19T13:48:48Z</time>
      </trkpt>
      <trkpt lat="42.50791" lon="2.04081">
        <ele>1803.9</ele>
        <time>2026-01-19T13:48:49Z</time>
      </trkpt>
      <trkpt lat="42.50791" lon="2.04081">
        <ele>1803.9</ele>
        <time>2026-01-19T13:48:50Z</time>
      </trkpt>
      <trkpt lat="42.50791" lon="2.04081">
        <ele>1803.9</ele>
        <time>2026-01-19T13:48:51Z</time>
      </trkpt>
      <trkpt lat="42.50791" lon="2.04081">
        <ele>1803.9</ele>
        <time>2026-01-19T13:48:52Z</time>
      </trkpt>
      <trkpt lat="42.50791" lon="2.04081">
        <ele>1803.9</ele>
        <time>2026-01-19T13:48:53Z</time>
      </trkpt>
      <trkpt lat="42.50791" lon="2.04082">
        <ele>1803.9</ele>
        <time>2026-01-19T13:48:54Z</time>
      </trkpt>
      <trkpt lat="42.50791" lon="2.04081">
        <ele>1803.9</ele>
        <time>2026-01-19T13:48:55Z</time>
      </trkpt>
      <trkpt lat="42.5079" lon="2.0408">
        <ele>1804</ele>
        <time>2026-01-19T13:48:56Z</time>
      </trkpt>
      <trkpt lat="42.5079" lon="2.0408">
        <ele>1804</ele>
        <time>2026-01-19T13:48:57Z</time>
      </trkpt>
      <trkpt lat="42.5079" lon="2.04079">
        <ele>1804</ele>
        <time>2026-01-19T13:48:58Z</time>
      </trkpt>
      <trkpt lat="42.5079" lon="2.04079">
        <ele>1804</ele>
        <time>2026-01-19T13:48:59Z</time>
      </trkpt>
      <trkpt lat="42.5079" lon="2.04078">
        <ele>1804</ele>
        <time>2026-01-19T13:49:00Z</time>
      </trkpt>
      <trkpt lat="42.50789" lon="2.04078">
        <ele>1804</ele>
        <time>2026-01-19T13:49:01Z</time>
      </trkpt>
      <trkpt lat="42.50789" lon="2.04078">
        <ele>1804</ele>
        <time>2026-01-19T13:49:02Z</time>
      </trkpt>
      <trkpt lat="42.50789" lon="2.04078">
        <ele>1804</ele>
        <time>2026-01-19T13:49:03Z</time>
      </trkpt>
      <trkpt lat="42.50789" lon="2.04078">
        <ele>1804</ele>
        <time>2026-01-19T13:49:04Z</time>
      </trkpt>
      <trkpt lat="42.5079" lon="2.04078">
        <ele>1804</ele>
        <time>2026-01-19T13:49:05Z</time>
      </trkpt>
      <trkpt lat="42.5079" lon="2.04078">
        <ele>1804</ele>
        <time>2026-01-19T13:49:06Z</time>
      </trkpt>
      <trkpt lat="42.5079" lon="2.04078">
        <ele>1804</ele>
        <time>2026-01-19T13:49:07Z</time>
      </trkpt>
      <trkpt lat="42.5079" lon="2.04078">
        <ele>1804</ele>
        <time>2026-01-19T13:49:08Z</time>
      </trkpt>
      <trkpt lat="42.5079" lon="2.04078">
        <ele>1804</ele>
        <time>2026-01-19T13:49:09Z</time>
      </trkpt>
      <trkpt lat="42.5079" lon="2.04077">
        <ele>1804</ele>
        <time>2026-01-19T13:49:10Z</time>
      </trkpt>
      <trkpt lat="42.5079" lon="2.04077">
        <ele>1804</ele>
        <time>2026-01-19T13:49:11Z</time>
      </trkpt>
      <trkpt lat="42.50791" lon="2.04077">
        <ele>1804</ele>
        <time>2026-01-19T13:49:12Z</time>
      </trkpt>
      <trkpt lat="42.50791" lon="2.04077">
        <ele>1804</ele>
        <time>2026-01-19T13:49:13Z</time>
      </trkpt>
      <trkpt lat="42.50791" lon="2.04077">
        <ele>1804.1</ele>
        <time>2026-01-19T13:49:14Z</time>
      </trkpt>
      <trkpt lat="42.50792" lon="2.04077">
        <ele>1804.1</ele>
        <time>2026-01-19T13:49:15Z</time>
      </trkpt>
      <trkpt lat="42.50792" lon="2.04076">
        <ele>1804.1</ele>
        <time>2026-01-19T13:49:16Z</time>
      </trkpt>
      <trkpt lat="42.50792" lon="2.04076">
        <ele>1804.1</ele>
        <time>2026-01-19T13:49:17Z</time>
      </trkpt>
      <trkpt lat="42.50792" lon="2.04076">
        <ele>1804.1</ele>
        <time>2026-01-19T13:49:18Z</time>
      </trkpt>
      <trkpt lat="42.50792" lon="2.04076">
        <ele>1804.1</ele>
        <time>2026-01-19T13:49:19Z</time>
      </trkpt>
      <trkpt lat="42.50792" lon="2.04076">
        <ele>1804.1</ele>
        <time>2026-01-19T13:49:20Z</time>
      </trkpt>
      <trkpt lat="42.50792" lon="2.04076">
        <ele>1804.1</ele>
        <time>2026-01-19T13:49:21Z</time>
      </trkpt>
      <trkpt lat="42.50792" lon="2.04076">
        <ele>1804.1</ele>
        <time>2026-01-19T13:49:22Z</time>
      </trkpt>
      <trkpt lat="42.50792" lon="2.04076">
        <ele>1804.1</ele>
        <time>2026-01-19T13:49:23Z</time>
      </trkpt>
      <trkpt lat="42.50792" lon="2.04076">
        <ele>1804.1</ele>
        <time>2026-01-19T13:49:24Z</time>
      </trkpt>
      <trkpt lat="42.50792" lon="2.04076">
        <ele>1804.1</ele>
        <time>2026-01-19T13:49:25Z</time>
      </trkpt>
      <trkpt lat="42.50792" lon="2.04076">
        <ele>1804.1</ele>
        <time>2026-01-19T13:49:26Z</time>
      </trkpt>
      <trkpt lat="42.50792" lon="2.04076">
        <ele>1804.1</ele>
        <time>2026-01-19T13:49:27Z</time>
      </trkpt>
      <trkpt lat="42.50792" lon="2.04076">
        <ele>1804.1</ele>
        <time>2026-01-19T13:49:28Z</time>
      </trkpt>
      <trkpt lat="42.50792" lon="2.04076">
        <ele>1804.1</ele>
        <time>2026-01-19T13:49:29Z</time>
      </trkpt>
      <trkpt lat="42.50792" lon="2.04076">
        <ele>1804.1</ele>
        <time>2026-01-19T13:49:30Z</time>
      </trkpt>
      <trkpt lat="42.50792" lon="2.04076">
        <ele>1804.1</ele>
        <time>2026-01-19T13:49:31Z</time>
      </trkpt>
      <trkpt lat="42.50793" lon="2.04076">
        <ele>1804.1</ele>
        <time>2026-01-19T13:49:32Z</time>
      </trkpt>
      <trkpt lat="42.50793" lon="2.04077">
        <ele>1804.1</ele>
        <time>2026-01-19T13:49:33Z</time>
      </trkpt>
      <trkpt lat="42.50793" lon="2.04077">
        <ele>1804.1</ele>
        <time>2026-01-19T13:49:34Z</time>
      </trkpt>
      <trkpt lat="42.50793" lon="2.04077">
        <ele>1804.1</ele>
        <time>2026-01-19T13:49:35Z</time>
      </trkpt>
      <trkpt lat="42.50794" lon="2.04077">
        <ele>1804.1</ele>
        <time>2026-01-19T13:49:36Z</time>
      </trkpt>
      <trkpt lat="42.50794" lon="2.04077">
        <ele>1804.1</ele>
        <time>2026-01-19T13:49:37Z</time>
      </trkpt>
      <trkpt lat="42.50794" lon="2.04077">
        <ele>1804.1</ele>
        <time>2026-01-19T13:49:38Z</time>
      </trkpt>
      <trkpt lat="42.50794" lon="2.04077">
        <ele>1804.1</ele>
        <time>2026-01-19T13:49:39Z</time>
      </trkpt>
      <trkpt lat="42.50794" lon="2.04077">
        <ele>1804.1</ele>
        <time>2026-01-19T13:49:40Z</time>
      </trkpt>
      <trkpt lat="42.50794" lon="2.04077">
        <ele>1804.1</ele>
        <time>2026-01-19T13:49:41Z</time>
      </trkpt>
      <trkpt lat="42.50793" lon="2.04077">
        <ele>1804.1</ele>
        <time>2026-01-19T13:49:42Z</time>
      </trkpt>
      <trkpt lat="42.50793" lon="2.04077">
        <ele>1804.1</ele>
        <time>2026-01-19T13:49:43Z</time>
      </trkpt>
      <trkpt lat="42.50793" lon="2.04077">
        <ele>1804.1</ele>
        <time>2026-01-19T13:49:44Z</time>
      </trkpt>
      <trkpt lat="42.50793" lon="2.04077">
        <ele>1804.1</ele>
        <time>2026-01-19T13:49:45Z</time>
      </trkpt>
      <trkpt lat="42.50793" lon="2.04077">
        <ele>1804.1</ele>
        <time>2026-01-19T13:49:46Z</time>
      </trkpt>
      <trkpt lat="42.50793" lon="2.04077">
        <ele>1804.1</ele>
        <time>2026-01-19T13:49:47Z</time>
      </trkpt>
      <trkpt lat="42.50793" lon="2.04077">
        <ele>1804.1</ele>
        <time>2026-01-19T13:49:48Z</time>
      </trkpt>
      <trkpt lat="42.50793" lon="2.04077">
        <ele>1804.1</ele>
        <time>2026-01-19T13:49:49Z</time>
      </trkpt>
      <trkpt lat="42.50793" lon="2.04077">
        <ele>1804.1</ele>
        <time>2026-01-19T13:49:50Z</time>
      </trkpt>
      <trkpt lat="42.50793" lon="2.04077">
        <ele>1804.2</ele>
        <time>2026-01-19T13:49:51Z</time>
      </trkpt>
      <trkpt lat="42.50793" lon="2.04077">
        <ele>1804.2</ele>
        <time>2026-01-19T13:49:52Z</time>
      </trkpt>
      <trkpt lat="42.50793" lon="2.04077">
        <ele>1804.2</ele>
        <time>2026-01-19T13:49:53Z</time>
      </trkpt>
      <trkpt lat="42.50792" lon="2.04078">
        <ele>1804.2</ele>
        <time>2026-01-19T13:49:54Z</time>
      </trkpt>
      <trkpt lat="42.50791" lon="2.04079">
        <ele>1804.3</ele>
        <time>2026-01-19T13:49:55Z</time>
      </trkpt>
      <trkpt lat="42.50791" lon="2.04079">
        <ele>1804.3</ele>
        <time>2026-01-19T13:49:56Z</time>
      </trkpt>
      <trkpt lat="42.5079" lon="2.04079">
        <ele>1804.3</ele>
        <time>2026-01-19T13:49:57Z</time>
      </trkpt>
      <trkpt lat="42.5079" lon="2.04079">
        <ele>1804.3</ele>
        <time>2026-01-19T13:49:58Z</time>
      </trkpt>
      <trkpt lat="42.5079" lon="2.0408">
        <ele>1804.3</ele>
        <time>2026-01-19T13:49:59Z</time>
      </trkpt>
      <trkpt lat="42.5079" lon="2.0408">
        <ele>1804.3</ele>
        <time>2026-01-19T13:50:00Z</time>
      </trkpt>
      <trkpt lat="42.5079" lon="2.0408">
        <ele>1804.3</ele>
        <time>2026-01-19T13:50:01Z</time>
      </trkpt>
      <trkpt lat="42.5079" lon="2.0408">
        <ele>1804.3</ele>
        <time>2026-01-19T13:50:02Z</time>
      </trkpt>
      <trkpt lat="42.5079" lon="2.0408">
        <ele>1804.3</ele>
        <time>2026-01-19T13:50:03Z</time>
      </trkpt>
      <trkpt lat="42.5079" lon="2.0408">
        <ele>1804.3</ele>
        <time>2026-01-19T13:50:04Z</time>
      </trkpt>
      <trkpt lat="42.5079" lon="2.0408">
        <ele>1804.3</ele>
        <time>2026-01-19T13:50:05Z</time>
      </trkpt>
      <trkpt lat="42.5079" lon="2.0408">
        <ele>1804.3</ele>
        <time>2026-01-19T13:50:06Z</time>
      </trkpt>
      <trkpt lat="42.5079" lon="2.0408">
        <ele>1804.3</ele>
        <time>2026-01-19T13:50:07Z</time>
      </trkpt>
      <trkpt lat="42.5079" lon="2.0408">
        <ele>1804.3</ele>
        <time>2026-01-19T13:50:08Z</time>
      </trkpt>
      <trkpt lat="42.5079" lon="2.0408">
        <ele>1804.3</ele>
        <time>2026-01-19T13:50:09Z</time>
      </trkpt>
      <trkpt lat="42.5079" lon="2.0408">
        <ele>1804.3</ele>
        <time>2026-01-19T13:50:10Z</time>
      </trkpt>
      <trkpt lat="42.5079" lon="2.0408">
        <ele>1804.3</ele>
        <time>2026-01-19T13:50:11Z</time>
      </trkpt>
      <trkpt lat="42.5079" lon="2.0408">
        <ele>1804.4</ele>
        <time>2026-01-19T13:50:12Z</time>
      </trkpt>
      <trkpt lat="42.5079" lon="2.0408">
        <ele>1804.4</ele>
        <time>2026-01-19T13:50:13Z</time>
      </trkpt>
      <trkpt lat="42.5079" lon="2.0408">
        <ele>1804.4</ele>
        <time>2026-01-19T13:50:14Z</time>
      </trkpt>
      <trkpt lat="42.5079" lon="2.0408">
        <ele>1804.4</ele>
        <time>2026-01-19T13:50:15Z</time>
      </trkpt>
      <trkpt lat="42.5079" lon="2.0408">
        <ele>1804.4</ele>
        <time>2026-01-19T13:50:16Z</time>
      </trkpt>
      <trkpt lat="42.5079" lon="2.0408">
        <ele>1804.4</ele>
        <time>2026-01-19T13:50:17Z</time>
      </trkpt>
      <trkpt lat="42.5079" lon="2.0408">
        <ele>1804.4</ele>
        <time>2026-01-19T13:50:18Z</time>
      </trkpt>
      <trkpt lat="42.5079" lon="2.0408">
        <ele>1804.4</ele>
        <time>2026-01-19T13:50:19Z</time>
      </trkpt>
      <trkpt lat="42.5079" lon="2.0408">
        <ele>1804.4</ele>
        <time>2026-01-19T13:50:20Z</time>
      </trkpt>
      <trkpt lat="42.5079" lon="2.0408">
        <ele>1804.4</ele>
        <time>2026-01-19T13:50:21Z</time>
      </trkpt>
      <trkpt lat="42.5079" lon="2.0408">
        <ele>1804.4</ele>
        <time>2026-01-19T13:50:22Z</time>
      </trkpt>
      <trkpt lat="42.5079" lon="2.0408">
        <ele>1804.4</ele>
        <time>2026-01-19T13:50:23Z</time>
      </trkpt>
      <trkpt lat="42.5079" lon="2.0408">
        <ele>1804.4</ele>
        <time>2026-01-19T13:50:24Z</time>
      </trkpt>
      <trkpt lat="42.5079" lon="2.0408">
        <ele>1804.4</ele>
        <time>2026-01-19T13:50:25Z</time>
      </trkpt>
      <trkpt lat="42.5079" lon="2.0408">
        <ele>1804.4</ele>
        <time>2026-01-19T13:50:26Z</time>
      </trkpt>
      <trkpt lat="42.5079" lon="2.0408">
        <ele>1804.4</ele>
        <time>2026-01-19T13:50:27Z</time>
      </trkpt>
      <trkpt lat="42.5079" lon="2.0408">
        <ele>1804.4</ele>
        <time>2026-01-19T13:50:28Z</time>
      </trkpt>
      <trkpt lat="42.5079" lon="2.0408">
        <ele>1804.4</ele>
        <time>2026-01-19T13:50:29Z</time>
      </trkpt>
      <trkpt lat="42.5079" lon="2.0408">
        <ele>1804.4</ele>
        <time>2026-01-19T13:50:30Z</time>
      </trkpt>
      <trkpt lat="42.5079" lon="2.0408">
        <ele>1804.4</ele>
        <time>2026-01-19T13:50:31Z</time>
      </trkpt>
      <trkpt lat="42.5079" lon="2.0408">
        <ele>1804.4</ele>
        <time>2026-01-19T13:50:32Z</time>
      </trkpt>
      <trkpt lat="42.5079" lon="2.0408">
        <ele>1804.4</ele>
        <time>2026-01-19T13:50:33Z</time>
      </trkpt>
      <trkpt lat="42.5079" lon="2.0408">
        <ele>1804.4</ele>
        <time>2026-01-19T13:50:34Z</time>
      </trkpt>
      <trkpt lat="42.5079" lon="2.0408">
        <ele>1804.4</ele>
        <time>2026-01-19T13:50:35Z</time>
      </trkpt>
      <trkpt lat="42.5079" lon="2.0408">
        <ele>1804.4</ele>
        <time>2026-01-19T13:50:36Z</time>
      </trkpt>
      <trkpt lat="42.5079" lon="2.0408">
        <ele>1804.4</ele>
        <time>2026-01-19T13:50:37Z</time>
      </trkpt>
      <trkpt lat="42.5079" lon="2.0408">
        <ele>1804.4</ele>
        <time>2026-01-19T13:50:38Z</time>
      </trkpt>
      <trkpt lat="42.5079" lon="2.0408">
        <ele>1804.4</ele>
        <time>2026-01-19T13:50:39Z</time>
      </trkpt>
      <trkpt lat="42.5079" lon="2.0408">
        <ele>1804.4</ele>
        <time>2026-01-19T13:50:40Z</time>
      </trkpt>
      <trkpt lat="42.5079" lon="2.0408">
        <ele>1804.4</ele>
        <time>2026-01-19T13:50:41Z</time>
      </trkpt>
      <trkpt lat="42.5079" lon="2.0408">
        <ele>1804.4</ele>
        <time>2026-01-19T13:50:42Z</time>
      </trkpt>
      <trkpt lat="42.5079" lon="2.0408">
        <ele>1804.4</ele>
        <time>2026-01-19T13:50:43Z</time>
      </trkpt>
      <trkpt lat="42.5079" lon="2.0408">
        <ele>1804.4</ele>
        <time>2026-01-19T13:50:44Z</time>
      </trkpt>
      <trkpt lat="42.5079" lon="2.0408">
        <ele>1804.4</ele>
        <time>2026-01-19T13:50:45Z</time>
      </trkpt>
      <trkpt lat="42.5079" lon="2.0408">
        <ele>1804.4</ele>
        <time>2026-01-19T13:50:46Z</time>
      </trkpt>
      <trkpt lat="42.5079" lon="2.0408">
        <ele>1804.4</ele>
        <time>2026-01-19T13:50:47Z</time>
      </trkpt>
      <trkpt lat="42.5079" lon="2.0408">
        <ele>1804.4</ele>
        <time>2026-01-19T13:50:48Z</time>
      </trkpt>
      <trkpt lat="42.5079" lon="2.0408">
        <ele>1804.4</ele>
        <time>2026-01-19T13:50:49Z</time>
      </trkpt>
      <trkpt lat="42.50791" lon="2.0408">
        <ele>1804.4</ele>
        <time>2026-01-19T13:50:50Z</time>
      </trkpt>
      <trkpt lat="42.50791" lon="2.0408">
        <ele>1804.4</ele>
        <time>2026-01-19T13:50:51Z</time>
      </trkpt>
      <trkpt lat="42.50791" lon="2.0408">
        <ele>1804.4</ele>
        <time>2026-01-19T13:50:52Z</time>
      </trkpt>
      <trkpt lat="42.50791" lon="2.0408">
        <ele>1804.5</ele>
        <time>2026-01-19T13:50:53Z</time>
      </trkpt>
      <trkpt lat="42.50791" lon="2.0408">
        <ele>1804.5</ele>
        <time>2026-01-19T13:50:54Z</time>
      </trkpt>
      <trkpt lat="42.50791" lon="2.0408">
        <ele>1804.5</ele>
        <time>2026-01-19T13:50:55Z</time>
      </trkpt>
      <trkpt lat="42.50791" lon="2.0408">
        <ele>1804.5</ele>
        <time>2026-01-19T13:50:56Z</time>
      </trkpt>
      <trkpt lat="42.50791" lon="2.0408">
        <ele>1804.5</ele>
        <time>2026-01-19T13:50:57Z</time>
      </trkpt>
      <trkpt lat="42.50791" lon="2.0408">
        <ele>1804.5</ele>
        <time>2026-01-19T13:50:58Z</time>
      </trkpt>
      <trkpt lat="42.50791" lon="2.0408">
        <ele>1804.5</ele>
        <time>2026-01-19T13:50:59Z</time>
      </trkpt>
      <trkpt lat="42.50791" lon="2.0408">
        <ele>1804.5</ele>
        <time>2026-01-19T13:51:00Z</time>
      </trkpt>
      <trkpt lat="42.50791" lon="2.0408">
        <ele>1804.5</ele>
        <time>2026-01-19T13:51:01Z</time>
      </trkpt>
      <trkpt lat="42.50791" lon="2.04081">
        <ele>1804.5</ele>
        <time>2026-01-19T13:51:02Z</time>
      </trkpt>
      <trkpt lat="42.50791" lon="2.04081">
        <ele>1804.5</ele>
        <time>2026-01-19T13:51:03Z</time>
      </trkpt>
      <trkpt lat="42.50791" lon="2.04082">
        <ele>1804.5</ele>
        <time>2026-01-19T13:51:04Z</time>
      </trkpt>
      <trkpt lat="42.50791" lon="2.04082">
        <ele>1804.5</ele>
        <time>2026-01-19T13:51:05Z</time>
      </trkpt>
      <trkpt lat="42.50791" lon="2.04082">
        <ele>1804.5</ele>
        <time>2026-01-19T13:51:06Z</time>
      </trkpt>
      <trkpt lat="42.50791" lon="2.04083">
        <ele>1804.5</ele>
        <time>2026-01-19T13:51:07Z</time>
      </trkpt>
      <trkpt lat="42.50791" lon="2.04082">
        <ele>1804.5</ele>
        <time>2026-01-19T13:51:08Z</time>
      </trkpt>
      <trkpt lat="42.50791" lon="2.04082">
        <ele>1804.5</ele>
        <time>2026-01-19T13:51:09Z</time>
      </trkpt>
      <trkpt lat="42.50791" lon="2.04082">
        <ele>1804.5</ele>
        <time>2026-01-19T13:51:10Z</time>
      </trkpt>
      <trkpt lat="42.50791" lon="2.04082">
        <ele>1804.6</ele>
        <time>2026-01-19T13:51:11Z</time>
      </trkpt>
      <trkpt lat="42.50791" lon="2.04083">
        <ele>1804.6</ele>
        <time>2026-01-19T13:51:12Z</time>
      </trkpt>
      <trkpt lat="42.5079" lon="2.04083">
        <ele>1804.6</ele>
        <time>2026-01-19T13:51:13Z</time>
      </trkpt>
      <trkpt lat="42.5079" lon="2.04083">
        <ele>1804.6</ele>
        <time>2026-01-19T13:51:14Z</time>
      </trkpt>
      <trkpt lat="42.5079" lon="2.04083">
        <ele>1804.6</ele>
        <time>2026-01-19T13:51:15Z</time>
      </trkpt>
      <trkpt lat="42.5079" lon="2.04083">
        <ele>1804.6</ele>
        <time>2026-01-19T13:51:16Z</time>
      </trkpt>
      <trkpt lat="42.5079" lon="2.04083">
        <ele>1804.6</ele>
        <time>2026-01-19T13:51:17Z</time>
      </trkpt>
      <trkpt lat="42.5079" lon="2.04083">
        <ele>1804.6</ele>
        <time>2026-01-19T13:51:18Z</time>
      </trkpt>
      <trkpt lat="42.5079" lon="2.04083">
        <ele>1804.6</ele>
        <time>2026-01-19T13:51:19Z</time>
      </trkpt>
      <trkpt lat="42.5079" lon="2.04083">
        <ele>1804.6</ele>
        <time>2026-01-19T13:51:20Z</time>
      </trkpt>
      <trkpt lat="42.5079" lon="2.04083">
        <ele>1804.6</ele>
        <time>2026-01-19T13:51:21Z</time>
      </trkpt>
      <trkpt lat="42.5079" lon="2.04083">
        <ele>1804.6</ele>
        <time>2026-01-19T13:51:22Z</time>
      </trkpt>
      <trkpt lat="42.5079" lon="2.04083">
        <ele>1804.6</ele>
        <time>2026-01-19T13:51:23Z</time>
      </trkpt>
      <trkpt lat="42.5079" lon="2.04083">
        <ele>1804.6</ele>
        <time>2026-01-19T13:51:24Z</time>
      </trkpt>
      <trkpt lat="42.5079" lon="2.04083">
        <ele>1804.6</ele>
        <time>2026-01-19T13:51:25Z</time>
      </trkpt>
      <trkpt lat="42.5079" lon="2.04083">
        <ele>1804.6</ele>
        <time>2026-01-19T13:51:26Z</time>
      </trkpt>
      <trkpt lat="42.50789" lon="2.04083">
        <ele>1804.6</ele>
        <time>2026-01-19T13:51:27Z</time>
      </trkpt>
      <trkpt lat="42.50789" lon="2.04083">
        <ele>1804.6</ele>
        <time>2026-01-19T13:51:28Z</time>
      </trkpt>
      <trkpt lat="42.50789" lon="2.04083">
        <ele>1804.6</ele>
        <time>2026-01-19T13:51:29Z</time>
      </trkpt>
      <trkpt lat="42.50789" lon="2.04083">
        <ele>1804.6</ele>
        <time>2026-01-19T13:51:30Z</time>
      </trkpt>
      <trkpt lat="42.50789" lon="2.04083">
        <ele>1804.6</ele>
        <time>2026-01-19T13:51:31Z</time>
      </trkpt>
      <trkpt lat="42.50789" lon="2.04083">
        <ele>1804.6</ele>
        <time>2026-01-19T13:51:32Z</time>
      </trkpt>
      <trkpt lat="42.50789" lon="2.04083">
        <ele>1804.6</ele>
        <time>2026-01-19T13:51:33Z</time>
      </trkpt>
      <trkpt lat="42.50789" lon="2.04083">
        <ele>1804.6</ele>
        <time>2026-01-19T13:51:34Z</time>
      </trkpt>
      <trkpt lat="42.50789" lon="2.04083">
        <ele>1804.6</ele>
        <time>2026-01-19T13:51:35Z</time>
      </trkpt>
      <trkpt lat="42.50789" lon="2.04083">
        <ele>1804.6</ele>
        <time>2026-01-19T13:51:36Z</time>
      </trkpt>
      <trkpt lat="42.50789" lon="2.04083">
        <ele>1804.6</ele>
        <time>2026-01-19T13:51:37Z</time>
      </trkpt>
      <trkpt lat="42.50789" lon="2.04083">
        <ele>1804.6</ele>
        <time>2026-01-19T13:51:38Z</time>
      </trkpt>
      <trkpt lat="42.50789" lon="2.04083">
        <ele>1804.6</ele>
        <time>2026-01-19T13:51:39Z</time>
      </trkpt>
      <trkpt lat="42.50789" lon="2.04083">
        <ele>1804.6</ele>
        <time>2026-01-19T13:51:40Z</time>
      </trkpt>
      <trkpt lat="42.50789" lon="2.04083">
        <ele>1804.6</ele>
        <time>2026-01-19T13:51:41Z</time>
      </trkpt>
      <trkpt lat="42.50789" lon="2.04083">
        <ele>1804.6</ele>
        <time>2026-01-19T13:51:42Z</time>
      </trkpt>
      <trkpt lat="42.50789" lon="2.04083">
        <ele>1804.6</ele>
        <time>2026-01-19T13:51:43Z</time>
      </trkpt>
      <trkpt lat="42.50789" lon="2.04083">
        <ele>1804.6</ele>
        <time>2026-01-19T13:51:44Z</time>
      </trkpt>
      <trkpt lat="42.50789" lon="2.04083">
        <ele>1804.6</ele>
        <time>2026-01-19T13:51:45Z</time>
      </trkpt>
      <trkpt lat="42.50789" lon="2.04083">
        <ele>1804.6</ele>
        <time>2026-01-19T13:51:46Z</time>
      </trkpt>
      <trkpt lat="42.50789" lon="2.04083">
        <ele>1804.6</ele>
        <time>2026-01-19T13:51:47Z</time>
      </trkpt>
      <trkpt lat="42.50789" lon="2.04083">
        <ele>1804.6</ele>
        <time>2026-01-19T13:51:48Z</time>
      </trkpt>
      <trkpt lat="42.50789" lon="2.04083">
        <ele>1804.6</ele>
        <time>2026-01-19T13:51:49Z</time>
      </trkpt>
      <trkpt lat="42.50789" lon="2.04083">
        <ele>1804.6</ele>
        <time>2026-01-19T13:51:50Z</time>
      </trkpt>
      <trkpt lat="42.50789" lon="2.04083">
        <ele>1804.6</ele>
        <time>2026-01-19T13:51:51Z</time>
      </trkpt>
      <trkpt lat="42.5079" lon="2.04083">
        <ele>1804.6</ele>
        <time>2026-01-19T13:51:52Z</time>
      </trkpt>
      <trkpt lat="42.5079" lon="2.04083">
        <ele>1804.6</ele>
        <time>2026-01-19T13:51:53Z</time>
      </trkpt>
      <trkpt lat="42.5079" lon="2.04083">
        <ele>1804.6</ele>
        <time>2026-01-19T13:51:54Z</time>
      </trkpt>
      <trkpt lat="42.5079" lon="2.04083">
        <ele>1804.6</ele>
        <time>2026-01-19T13:51:55Z</time>
      </trkpt>
      <trkpt lat="42.5079" lon="2.04083">
        <ele>1804.6</ele>
        <time>2026-01-19T13:51:56Z</time>
      </trkpt>
      <trkpt lat="42.5079" lon="2.04083">
        <ele>1804.6</ele>
        <time>2026-01-19T13:51:57Z</time>
      </trkpt>
      <trkpt lat="42.50789" lon="2.04084">
        <ele>1804.7</ele>
        <time>2026-01-19T13:51:58Z</time>
      </trkpt>
      <trkpt lat="42.50789" lon="2.04084">
        <ele>1804.7</ele>
        <time>2026-01-19T13:51:59Z</time>
      </trkpt>
      <trkpt lat="42.50788" lon="2.04085">
        <ele>1804.7</ele>
        <time>2026-01-19T13:52:00Z</time>
      </trkpt>
      <trkpt lat="42.50788" lon="2.04085">
        <ele>1804.8</ele>
        <time>2026-01-19T13:52:01Z</time>
      </trkpt>
      <trkpt lat="42.50788" lon="2.04085">
        <ele>1804.8</ele>
        <time>2026-01-19T13:52:02Z</time>
      </trkpt>
      <trkpt lat="42.50788" lon="2.04085">
        <ele>1804.8</ele>
        <time>2026-01-19T13:52:03Z</time>
      </trkpt>
      <trkpt lat="42.50788" lon="2.04085">
        <ele>1804.8</ele>
        <time>2026-01-19T13:52:04Z</time>
      </trkpt>
      <trkpt lat="42.50788" lon="2.04085">
        <ele>1804.8</ele>
        <time>2026-01-19T13:52:05Z</time>
      </trkpt>
      <trkpt lat="42.50788" lon="2.04085">
        <ele>1804.8</ele>
        <time>2026-01-19T13:52:06Z</time>
      </trkpt>
      <trkpt lat="42.50788" lon="2.04085">
        <ele>1804.8</ele>
        <time>2026-01-19T13:52:07Z</time>
      </trkpt>
      <trkpt lat="42.50788" lon="2.04085">
        <ele>1804.8</ele>
        <time>2026-01-19T13:52:08Z</time>
      </trkpt>
      <trkpt lat="42.50788" lon="2.04085">
        <ele>1804.8</ele>
        <time>2026-01-19T13:52:09Z</time>
      </trkpt>
      <trkpt lat="42.50788" lon="2.04085">
        <ele>1804.8</ele>
        <time>2026-01-19T13:52:10Z</time>
      </trkpt>
      <trkpt lat="42.50788" lon="2.04085">
        <ele>1804.8</ele>
        <time>2026-01-19T13:52:11Z</time>
      </trkpt>
      <trkpt lat="42.50788" lon="2.04085">
        <ele>1804.8</ele>
        <time>2026-01-19T13:52:12Z</time>
      </trkpt>
      <trkpt lat="42.50788" lon="2.04085">
        <ele>1804.8</ele>
        <time>2026-01-19T13:52:13Z</time>
      </trkpt>
      <trkpt lat="42.50788" lon="2.04085">
        <ele>1804.8</ele>
        <time>2026-01-19T13:52:14Z</time>
      </trkpt>
      <trkpt lat="42.50788" lon="2.04085">
        <ele>1804.8</ele>
        <time>2026-01-19T13:52:15Z</time>
      </trkpt>
      <trkpt lat="42.50788" lon="2.04084">
        <ele>1804.8</ele>
        <time>2026-01-19T13:52:16Z</time>
      </trkpt>
      <trkpt lat="42.50788" lon="2.04085">
        <ele>1804.8</ele>
        <time>2026-01-19T13:52:17Z</time>
      </trkpt>
      <trkpt lat="42.50788" lon="2.04085">
        <ele>1804.8</ele>
        <time>2026-01-19T13:52:18Z</time>
      </trkpt>
      <trkpt lat="42.50788" lon="2.04085">
        <ele>1804.8</ele>
        <time>2026-01-19T13:52:19Z</time>
      </trkpt>
      <trkpt lat="42.50788" lon="2.04085">
        <ele>1804.8</ele>
        <time>2026-01-19T13:52:20Z</time>
      </trkpt>
      <trkpt lat="42.50788" lon="2.04085">
        <ele>1804.8</ele>
        <time>2026-01-19T13:52:21Z</time>
      </trkpt>
      <trkpt lat="42.50788" lon="2.04086">
        <ele>1804.8</ele>
        <time>2026-01-19T13:52:22Z</time>
      </trkpt>
      <trkpt lat="42.50789" lon="2.04086">
        <ele>1804.9</ele>
        <time>2026-01-19T13:52:23Z</time>
      </trkpt>
      <trkpt lat="42.50789" lon="2.04087">
        <ele>1804.9</ele>
        <time>2026-01-19T13:52:24Z</time>
      </trkpt>
      <trkpt lat="42.50789" lon="2.04087">
        <ele>1804.9</ele>
        <time>2026-01-19T13:52:25Z</time>
      </trkpt>
      <trkpt lat="42.50789" lon="2.04087">
        <ele>1804.9</ele>
        <time>2026-01-19T13:52:26Z</time>
      </trkpt>
      <trkpt lat="42.50789" lon="2.04087">
        <ele>1804.9</ele>
        <time>2026-01-19T13:52:27Z</time>
      </trkpt>
      <trkpt lat="42.50789" lon="2.04087">
        <ele>1804.9</ele>
        <time>2026-01-19T13:52:28Z</time>
      </trkpt>
      <trkpt lat="42.50789" lon="2.04088">
        <ele>1804.9</ele>
        <time>2026-01-19T13:52:29Z</time>
      </trkpt>
      <trkpt lat="42.50789" lon="2.04088">
        <ele>1804.9</ele>
        <time>2026-01-19T13:52:30Z</time>
      </trkpt>
      <trkpt lat="42.50789" lon="2.04087">
        <ele>1804.9</ele>
        <time>2026-01-19T13:52:31Z</time>
      </trkpt>
      <trkpt lat="42.5079" lon="2.04088">
        <ele>1805</ele>
        <time>2026-01-19T13:52:32Z</time>
      </trkpt>
      <trkpt lat="42.5079" lon="2.04088">
        <ele>1805</ele>
        <time>2026-01-19T13:52:33Z</time>
      </trkpt>
      <trkpt lat="42.5079" lon="2.0409">
        <ele>1805</ele>
        <time>2026-01-19T13:52:34Z</time>
      </trkpt>
      <trkpt lat="42.5079" lon="2.04091">
        <ele>1805.1</ele>
        <time>2026-01-19T13:52:35Z</time>
      </trkpt>
      <trkpt lat="42.50791" lon="2.04092">
        <ele>1805.1</ele>
        <time>2026-01-19T13:52:36Z</time>
      </trkpt>
      <trkpt lat="42.50791" lon="2.04093">
        <ele>1805.2</ele>
        <time>2026-01-19T13:52:37Z</time>
      </trkpt>
      <trkpt lat="42.50791" lon="2.04095">
        <ele>1805.3</ele>
        <time>2026-01-19T13:52:38Z</time>
      </trkpt>
      <trkpt lat="42.50791" lon="2.04096">
        <ele>1805.4</ele>
        <time>2026-01-19T13:52:39Z</time>
      </trkpt>
      <trkpt lat="42.50791" lon="2.04097">
        <ele>1805.6</ele>
        <time>2026-01-19T13:52:40Z</time>
      </trkpt>
      <trkpt lat="42.50791" lon="2.04099">
        <ele>1805.7</ele>
        <time>2026-01-19T13:52:41Z</time>
      </trkpt>
      <trkpt lat="42.50791" lon="2.041">
        <ele>1805.8</ele>
        <time>2026-01-19T13:52:42Z</time>
      </trkpt>
      <trkpt lat="42.50791" lon="2.04101">
        <ele>1805.9</ele>
        <time>2026-01-19T13:52:43Z</time>
      </trkpt>
      <trkpt lat="42.50791" lon="2.04102">
        <ele>1806</ele>
        <time>2026-01-19T13:52:44Z</time>
      </trkpt>
      <trkpt lat="42.50791" lon="2.04102">
        <ele>1806.1</ele>
        <time>2026-01-19T13:52:45Z</time>
      </trkpt>
      <trkpt lat="42.50791" lon="2.04102">
        <ele>1806.1</ele>
        <time>2026-01-19T13:52:46Z</time>
      </trkpt>
      <trkpt lat="42.5079" lon="2.04103">
        <ele>1806.2</ele>
        <time>2026-01-19T13:52:47Z</time>
      </trkpt>
      <trkpt lat="42.5079" lon="2.04104">
        <ele>1806.3</ele>
        <time>2026-01-19T13:52:48Z</time>
      </trkpt>
      <trkpt lat="42.5079" lon="2.04105">
        <ele>1806.4</ele>
        <time>2026-01-19T13:52:49Z</time>
      </trkpt>
      <trkpt lat="42.5079" lon="2.04106">
        <ele>1806.5</ele>
        <time>2026-01-19T13:52:50Z</time>
      </trkpt>
      <trkpt lat="42.5079" lon="2.04108">
        <ele>1806.7</ele>
        <time>2026-01-19T13:52:51Z</time>
      </trkpt>
      <trkpt lat="42.5079" lon="2.0411">
        <ele>1806.8</ele>
        <time>2026-01-19T13:52:52Z</time>
      </trkpt>
      <trkpt lat="42.50791" lon="2.04111">
        <ele>1807</ele>
        <time>2026-01-19T13:52:53Z</time>
      </trkpt>
      <trkpt lat="42.50792" lon="2.04111">
        <ele>1807.1</ele>
        <time>2026-01-19T13:52:54Z</time>
      </trkpt>
      <trkpt lat="42.50793" lon="2.04112">
        <ele>1807.2</ele>
        <time>2026-01-19T13:52:55Z</time>
      </trkpt>
      <trkpt lat="42.50794" lon="2.04112">
        <ele>1807.4</ele>
        <time>2026-01-19T13:52:56Z</time>
      </trkpt>
      <trkpt lat="42.50795" lon="2.04113">
        <ele>1807.5</ele>
        <time>2026-01-19T13:52:57Z</time>
      </trkpt>
      <trkpt lat="42.50795" lon="2.04113">
        <ele>1807.7</ele>
        <time>2026-01-19T13:52:58Z</time>
      </trkpt>
      <trkpt lat="42.50796" lon="2.04114">
        <ele>1807.8</ele>
        <time>2026-01-19T13:52:59Z</time>
      </trkpt>
      <trkpt lat="42.50797" lon="2.04115">
        <ele>1807.9</ele>
        <time>2026-01-19T13:53:00Z</time>
      </trkpt>
      <trkpt lat="42.50797" lon="2.04116">
        <ele>1808</ele>
        <time>2026-01-19T13:53:01Z</time>
      </trkpt>
      <trkpt lat="42.50797" lon="2.04116">
        <ele>1808.1</ele>
        <time>2026-01-19T13:53:02Z</time>
      </trkpt>
      <trkpt lat="42.50797" lon="2.04116">
        <ele>1808.1</ele>
        <time>2026-01-19T13:53:03Z</time>
      </trkpt>
      <trkpt lat="42.50797" lon="2.04116">
        <ele>1808.1</ele>
        <time>2026-01-19T13:53:04Z</time>
      </trkpt>
      <trkpt lat="42.50797" lon="2.04116">
        <ele>1808.1</ele>
        <time>2026-01-19T13:53:05Z</time>
      </trkpt>
      <trkpt lat="42.50797" lon="2.04116">
        <ele>1808.1</ele>
        <time>2026-01-19T13:53:06Z</time>
      </trkpt>
      <trkpt lat="42.50796" lon="2.04115">
        <ele>1808.2</ele>
        <time>2026-01-19T13:53:07Z</time>
      </trkpt>
      <trkpt lat="42.50796" lon="2.04115">
        <ele>1808.2</ele>
        <time>2026-01-19T13:53:08Z</time>
      </trkpt>
      <trkpt lat="42.50796" lon="2.04116">
        <ele>1808.2</ele>
        <time>2026-01-19T13:53:09Z</time>
      </trkpt>
      <trkpt lat="42.50796" lon="2.04116">
        <ele>1808.3</ele>
        <time>2026-01-19T13:53:10Z</time>
      </trkpt>
      <trkpt lat="42.50795" lon="2.04116">
        <ele>1808.3</ele>
        <time>2026-01-19T13:53:11Z</time>
      </trkpt>
      <trkpt lat="42.50795" lon="2.04116">
        <ele>1808.4</ele>
        <time>2026-01-19T13:53:12Z</time>
      </trkpt>
      <trkpt lat="42.50794" lon="2.04116">
        <ele>1808.5</ele>
        <time>2026-01-19T13:53:13Z</time>
      </trkpt>
      <trkpt lat="42.50794" lon="2.04116">
        <ele>1808.6</ele>
        <time>2026-01-19T13:53:14Z</time>
      </trkpt>
      <trkpt lat="42.50793" lon="2.04117">
        <ele>1808.7</ele>
        <time>2026-01-19T13:53:15Z</time>
      </trkpt>
      <trkpt lat="42.50793" lon="2.04118">
        <ele>1808.7</ele>
        <time>2026-01-19T13:53:16Z</time>
      </trkpt>
      <trkpt lat="42.50793" lon="2.04118">
        <ele>1808.8</ele>
        <time>2026-01-19T13:53:17Z</time>
      </trkpt>
      <trkpt lat="42.50793" lon="2.04119">
        <ele>1808.8</ele>
        <time>2026-01-19T13:53:18Z</time>
      </trkpt>
      <trkpt lat="42.50794" lon="2.04119">
        <ele>1808.9</ele>
        <time>2026-01-19T13:53:19Z</time>
      </trkpt>
      <trkpt lat="42.50795" lon="2.04119">
        <ele>1809</ele>
        <time>2026-01-19T13:53:20Z</time>
      </trkpt>
      <trkpt lat="42.50795" lon="2.0412">
        <ele>1809.1</ele>
        <time>2026-01-19T13:53:21Z</time>
      </trkpt>
      <trkpt lat="42.50796" lon="2.04119">
        <ele>1809.1</ele>
        <time>2026-01-19T13:53:22Z</time>
      </trkpt>
      <trkpt lat="42.50796" lon="2.04119">
        <ele>1809.2</ele>
        <time>2026-01-19T13:53:23Z</time>
      </trkpt>
      <trkpt lat="42.50797" lon="2.04118">
        <ele>1809.3</ele>
        <time>2026-01-19T13:53:24Z</time>
      </trkpt>
      <trkpt lat="42.50798" lon="2.04119">
        <ele>1809.4</ele>
        <time>2026-01-19T13:53:25Z</time>
      </trkpt>
      <trkpt lat="42.50798" lon="2.0412">
        <ele>1809.5</ele>
        <time>2026-01-19T13:53:26Z</time>
      </trkpt>
      <trkpt lat="42.50799" lon="2.04121">
        <ele>1809.6</ele>
        <time>2026-01-19T13:53:27Z</time>
      </trkpt>
      <trkpt lat="42.508" lon="2.04122">
        <ele>1809.7</ele>
        <time>2026-01-19T13:53:28Z</time>
      </trkpt>
      <trkpt lat="42.508" lon="2.04123">
        <ele>1809.8</ele>
        <time>2026-01-19T13:53:29Z</time>
      </trkpt>
      <trkpt lat="42.50801" lon="2.04124">
        <ele>1809.9</ele>
        <time>2026-01-19T13:53:30Z</time>
      </trkpt>
      <trkpt lat="42.50802" lon="2.04125">
        <ele>1810</ele>
        <time>2026-01-19T13:53:31Z</time>
      </trkpt>
      <trkpt lat="42.50802" lon="2.04125">
        <ele>1810.1</ele>
        <time>2026-01-19T13:53:32Z</time>
      </trkpt>
      <trkpt lat="42.50803" lon="2.04126">
        <ele>1810.1</ele>
        <time>2026-01-19T13:53:33Z</time>
      </trkpt>
      <trkpt lat="42.50803" lon="2.04127">
        <ele>1810.2</ele>
        <time>2026-01-19T13:53:34Z</time>
      </trkpt>
      <trkpt lat="42.50804" lon="2.04128">
        <ele>1810.3</ele>
        <time>2026-01-19T13:53:35Z</time>
      </trkpt>
      <trkpt lat="42.50804" lon="2.0413">
        <ele>1810.4</ele>
        <time>2026-01-19T13:53:36Z</time>
      </trkpt>
      <trkpt lat="42.50804" lon="2.0413">
        <ele>1810.4</ele>
        <time>2026-01-19T13:53:37Z</time>
      </trkpt>
      <trkpt lat="42.50805" lon="2.04131">
        <ele>1810.5</ele>
        <time>2026-01-19T13:53:38Z</time>
      </trkpt>
      <trkpt lat="42.50805" lon="2.04132">
        <ele>1810.5</ele>
        <time>2026-01-19T13:53:39Z</time>
      </trkpt>
      <trkpt lat="42.50805" lon="2.04133">
        <ele>1810.6</ele>
        <time>2026-01-19T13:53:40Z</time>
      </trkpt>
      <trkpt lat="42.50806" lon="2.04134">
        <ele>1810.6</ele>
        <time>2026-01-19T13:53:41Z</time>
      </trkpt>
      <trkpt lat="42.50806" lon="2.04135">
        <ele>1810.7</ele>
        <time>2026-01-19T13:53:42Z</time>
      </trkpt>
      <trkpt lat="42.50806" lon="2.04136">
        <ele>1810.7</ele>
        <time>2026-01-19T13:53:43Z</time>
      </trkpt>
      <trkpt lat="42.50805" lon="2.04135">
        <ele>1810.8</ele>
        <time>2026-01-19T13:53:44Z</time>
      </trkpt>
      <trkpt lat="42.50805" lon="2.04135">
        <ele>1810.8</ele>
        <time>2026-01-19T13:53:45Z</time>
      </trkpt>
      <trkpt lat="42.50804" lon="2.04135">
        <ele>1810.8</ele>
        <time>2026-01-19T13:53:46Z</time>
      </trkpt>
      <trkpt lat="42.50804" lon="2.04135">
        <ele>1810.8</ele>
        <time>2026-01-19T13:53:47Z</time>
      </trkpt>
      <trkpt lat="42.50804" lon="2.04135">
        <ele>1810.8</ele>
        <time>2026-01-19T13:53:48Z</time>
      </trkpt>
      <trkpt lat="42.50804" lon="2.04135">
        <ele>1810.8</ele>
        <time>2026-01-19T13:53:49Z</time>
      </trkpt>
      <trkpt lat="42.50804" lon="2.04135">
        <ele>1810.9</ele>
        <time>2026-01-19T13:53:50Z</time>
      </trkpt>
      <trkpt lat="42.50804" lon="2.04135">
        <ele>1810.9</ele>
        <time>2026-01-19T13:53:51Z</time>
      </trkpt>
      <trkpt lat="42.50804" lon="2.04135">
        <ele>1810.9</ele>
        <time>2026-01-19T13:53:52Z</time>
      </trkpt>
      <trkpt lat="42.50804" lon="2.04135">
        <ele>1810.9</ele>
        <time>2026-01-19T13:53:53Z</time>
      </trkpt>
      <trkpt lat="42.50804" lon="2.04135">
        <ele>1810.9</ele>
        <time>2026-01-19T13:53:54Z</time>
      </trkpt>
      <trkpt lat="42.50804" lon="2.04135">
        <ele>1810.9</ele>
        <time>2026-01-19T13:53:55Z</time>
      </trkpt>
      <trkpt lat="42.50804" lon="2.04135">
        <ele>1810.9</ele>
        <time>2026-01-19T13:53:56Z</time>
      </trkpt>
      <trkpt lat="42.50804" lon="2.04135">
        <ele>1810.9</ele>
        <time>2026-01-19T13:53:57Z</time>
      </trkpt>
      <trkpt lat="42.50804" lon="2.04135">
        <ele>1810.9</ele>
        <time>2026-01-19T13:53:58Z</time>
      </trkpt>
      <trkpt lat="42.50804" lon="2.04136">
        <ele>1810.9</ele>
        <time>2026-01-19T13:53:59Z</time>
      </trkpt>
      <trkpt lat="42.50804" lon="2.04136">
        <ele>1810.9</ele>
        <time>2026-01-19T13:54:00Z</time>
      </trkpt>
      <trkpt lat="42.50804" lon="2.04135">
        <ele>1810.9</ele>
        <time>2026-01-19T13:54:01Z</time>
      </trkpt>
      <trkpt lat="42.50804" lon="2.04135">
        <ele>1810.9</ele>
        <time>2026-01-19T13:54:02Z</time>
      </trkpt>
      <trkpt lat="42.50804" lon="2.04136">
        <ele>1810.9</ele>
        <time>2026-01-19T13:54:03Z</time>
      </trkpt>
      <trkpt lat="42.50804" lon="2.04136">
        <ele>1810.9</ele>
        <time>2026-01-19T13:54:04Z</time>
      </trkpt>
      <trkpt lat="42.50804" lon="2.04136">
        <ele>1810.9</ele>
        <time>2026-01-19T13:54:05Z</time>
      </trkpt>
      <trkpt lat="42.50804" lon="2.04136">
        <ele>1810.9</ele>
        <time>2026-01-19T13:54:06Z</time>
      </trkpt>
      <trkpt lat="42.50804" lon="2.04136">
        <ele>1810.9</ele>
        <time>2026-01-19T13:54:07Z</time>
      </trkpt>
      <trkpt lat="42.50804" lon="2.04136">
        <ele>1811</ele>
        <time>2026-01-19T13:54:08Z</time>
      </trkpt>
      <trkpt lat="42.50804" lon="2.04136">
        <ele>1811</ele>
        <time>2026-01-19T13:54:09Z</time>
      </trkpt>
      <trkpt lat="42.50804" lon="2.04136">
        <ele>1811</ele>
        <time>2026-01-19T13:54:10Z</time>
      </trkpt>
      <trkpt lat="42.50804" lon="2.04137">
        <ele>1811</ele>
        <time>2026-01-19T13:54:11Z</time>
      </trkpt>
      <trkpt lat="42.50804" lon="2.04137">
        <ele>1811</ele>
        <time>2026-01-19T13:54:12Z</time>
      </trkpt>
      <trkpt lat="42.50804" lon="2.04137">
        <ele>1811</ele>
        <time>2026-01-19T13:54:13Z</time>
      </trkpt>
      <trkpt lat="42.50804" lon="2.04137">
        <ele>1811</ele>
        <time>2026-01-19T13:54:14Z</time>
      </trkpt>
      <trkpt lat="42.50804" lon="2.04137">
        <ele>1811</ele>
        <time>2026-01-19T13:54:15Z</time>
      </trkpt>
      <trkpt lat="42.50804" lon="2.04137">
        <ele>1811</ele>
        <time>2026-01-19T13:54:16Z</time>
      </trkpt>
      <trkpt lat="42.50804" lon="2.04137">
        <ele>1811</ele>
        <time>2026-01-19T13:54:17Z</time>
      </trkpt>
      <trkpt lat="42.50804" lon="2.04138">
        <ele>1811.1</ele>
        <time>2026-01-19T13:54:18Z</time>
      </trkpt>
      <trkpt lat="42.50804" lon="2.04138">
        <ele>1811.1</ele>
        <time>2026-01-19T13:54:19Z</time>
      </trkpt>
      <trkpt lat="42.50804" lon="2.04138">
        <ele>1811.1</ele>
        <time>2026-01-19T13:54:20Z</time>
      </trkpt>
      <trkpt lat="42.50804" lon="2.04138">
        <ele>1811.1</ele>
        <time>2026-01-19T13:54:21Z</time>
      </trkpt>
      <trkpt lat="42.50804" lon="2.04138">
        <ele>1811.1</ele>
        <time>2026-01-19T13:54:22Z</time>
      </trkpt>
      <trkpt lat="42.50804" lon="2.04138">
        <ele>1811.1</ele>
        <time>2026-01-19T13:54:23Z</time>
      </trkpt>
      <trkpt lat="42.50804" lon="2.04138">
        <ele>1811.1</ele>
        <time>2026-01-19T13:54:24Z</time>
      </trkpt>
      <trkpt lat="42.50804" lon="2.04138">
        <ele>1811.1</ele>
        <time>2026-01-19T13:54:25Z</time>
      </trkpt>
      <trkpt lat="42.50804" lon="2.04138">
        <ele>1811.1</ele>
        <time>2026-01-19T13:54:26Z</time>
      </trkpt>
      <trkpt lat="42.50804" lon="2.04138">
        <ele>1811.1</ele>
        <time>2026-01-19T13:54:27Z</time>
      </trkpt>
      <trkpt lat="42.50804" lon="2.04138">
        <ele>1811.1</ele>
        <time>2026-01-19T13:54:28Z</time>
      </trkpt>
      <trkpt lat="42.50805" lon="2.04138">
        <ele>1811.1</ele>
        <time>2026-01-19T13:54:29Z</time>
      </trkpt>
      <trkpt lat="42.50805" lon="2.04139">
        <ele>1811.1</ele>
        <time>2026-01-19T13:54:30Z</time>
      </trkpt>
      <trkpt lat="42.50805" lon="2.04139">
        <ele>1811.1</ele>
        <time>2026-01-19T13:54:31Z</time>
      </trkpt>
      <trkpt lat="42.50805" lon="2.04139">
        <ele>1811.1</ele>
        <time>2026-01-19T13:54:32Z</time>
      </trkpt>
      <trkpt lat="42.50805" lon="2.04139">
        <ele>1811.1</ele>
        <time>2026-01-19T13:54:33Z</time>
      </trkpt>
      <trkpt lat="42.50805" lon="2.04139">
        <ele>1811.1</ele>
        <time>2026-01-19T13:54:34Z</time>
      </trkpt>
      <trkpt lat="42.50805" lon="2.04139">
        <ele>1811.1</ele>
        <time>2026-01-19T13:54:35Z</time>
      </trkpt>
      <trkpt lat="42.50805" lon="2.04139">
        <ele>1811.1</ele>
        <time>2026-01-19T13:54:36Z</time>
      </trkpt>
      <trkpt lat="42.50805" lon="2.04139">
        <ele>1811.1</ele>
        <time>2026-01-19T13:54:37Z</time>
      </trkpt>
      <trkpt lat="42.50805" lon="2.04139">
        <ele>1811.2</ele>
        <time>2026-01-19T13:54:38Z</time>
      </trkpt>
      <trkpt lat="42.50805" lon="2.04139">
        <ele>1811.2</ele>
        <time>2026-01-19T13:54:39Z</time>
      </trkpt>
      <trkpt lat="42.50805" lon="2.04139">
        <ele>1811.2</ele>
        <time>2026-01-19T13:54:40Z</time>
      </trkpt>
      <trkpt lat="42.50805" lon="2.04139">
        <ele>1811.2</ele>
        <time>2026-01-19T13:54:41Z</time>
      </trkpt>
      <trkpt lat="42.50805" lon="2.0414">
        <ele>1811.2</ele>
        <time>2026-01-19T13:54:42Z</time>
      </trkpt>
      <trkpt lat="42.50805" lon="2.0414">
        <ele>1811.2</ele>
        <time>2026-01-19T13:54:43Z</time>
      </trkpt>
      <trkpt lat="42.50805" lon="2.0414">
        <ele>1811.2</ele>
        <time>2026-01-19T13:54:44Z</time>
      </trkpt>
      <trkpt lat="42.50805" lon="2.0414">
        <ele>1811.2</ele>
        <time>2026-01-19T13:54:45Z</time>
      </trkpt>
      <trkpt lat="42.50805" lon="2.0414">
        <ele>1811.2</ele>
        <time>2026-01-19T13:54:46Z</time>
      </trkpt>
      <trkpt lat="42.50806" lon="2.0414">
        <ele>1811.2</ele>
        <time>2026-01-19T13:54:47Z</time>
      </trkpt>
      <trkpt lat="42.50806" lon="2.0414">
        <ele>1811.2</ele>
        <time>2026-01-19T13:54:48Z</time>
      </trkpt>
      <trkpt lat="42.50806" lon="2.0414">
        <ele>1811.2</ele>
        <time>2026-01-19T13:54:49Z</time>
      </trkpt>
      <trkpt lat="42.50806" lon="2.0414">
        <ele>1811.2</ele>
        <time>2026-01-19T13:54:50Z</time>
      </trkpt>
      <trkpt lat="42.50806" lon="2.0414">
        <ele>1811.2</ele>
        <time>2026-01-19T13:54:51Z</time>
      </trkpt>
      <trkpt lat="42.50806" lon="2.0414">
        <ele>1811.2</ele>
        <time>2026-01-19T13:54:52Z</time>
      </trkpt>
      <trkpt lat="42.50806" lon="2.0414">
        <ele>1811.2</ele>
        <time>2026-01-19T13:54:53Z</time>
      </trkpt>
      <trkpt lat="42.50806" lon="2.0414">
        <ele>1811.2</ele>
        <time>2026-01-19T13:54:54Z</time>
      </trkpt>
      <trkpt lat="42.50806" lon="2.04141">
        <ele>1811.2</ele>
        <time>2026-01-19T13:54:55Z</time>
      </trkpt>
      <trkpt lat="42.50806" lon="2.04141">
        <ele>1811.3</ele>
        <time>2026-01-19T13:54:56Z</time>
      </trkpt>
      <trkpt lat="42.50808" lon="2.04143">
        <ele>1811.4</ele>
        <time>2026-01-19T13:54:57Z</time>
      </trkpt>
      <trkpt lat="42.50808" lon="2.04144">
        <ele>1811.4</ele>
        <time>2026-01-19T13:54:58Z</time>
      </trkpt>
      <trkpt lat="42.50809" lon="2.04147">
        <ele>1811.5</ele>
        <time>2026-01-19T13:54:59Z</time>
      </trkpt>
      <trkpt lat="42.50809" lon="2.04148">
        <ele>1811.6</ele>
        <time>2026-01-19T13:55:00Z</time>
      </trkpt>
      <trkpt lat="42.50809" lon="2.0415">
        <ele>1811.7</ele>
        <time>2026-01-19T13:55:01Z</time>
      </trkpt>
      <trkpt lat="42.50809" lon="2.04152">
        <ele>1811.7</ele>
        <time>2026-01-19T13:55:02Z</time>
      </trkpt>
      <trkpt lat="42.50809" lon="2.04153">
        <ele>1811.8</ele>
        <time>2026-01-19T13:55:03Z</time>
      </trkpt>
      <trkpt lat="42.50809" lon="2.04155">
        <ele>1811.8</ele>
        <time>2026-01-19T13:55:04Z</time>
      </trkpt>
      <trkpt lat="42.50809" lon="2.04155">
        <ele>1811.8</ele>
        <time>2026-01-19T13:55:05Z</time>
      </trkpt>
      <trkpt lat="42.50809" lon="2.04156">
        <ele>1811.9</ele>
        <time>2026-01-19T13:55:06Z</time>
      </trkpt>
      <trkpt lat="42.50809" lon="2.04158">
        <ele>1811.9</ele>
        <time>2026-01-19T13:55:07Z</time>
      </trkpt>
      <trkpt lat="42.50809" lon="2.04159">
        <ele>1811.9</ele>
        <time>2026-01-19T13:55:08Z</time>
      </trkpt>
      <trkpt lat="42.50809" lon="2.0416">
        <ele>1812</ele>
        <time>2026-01-19T13:55:09Z</time>
      </trkpt>
      <trkpt lat="42.50808" lon="2.04161">
        <ele>1812</ele>
        <time>2026-01-19T13:55:10Z</time>
      </trkpt>
      <trkpt lat="42.50808" lon="2.04162">
        <ele>1812.1</ele>
        <time>2026-01-19T13:55:11Z</time>
      </trkpt>
      <trkpt lat="42.50808" lon="2.04163">
        <ele>1812.1</ele>
        <time>2026-01-19T13:55:12Z</time>
      </trkpt>
      <trkpt lat="42.50808" lon="2.04164">
        <ele>1812.1</ele>
        <time>2026-01-19T13:55:13Z</time>
      </trkpt>
      <trkpt lat="42.50808" lon="2.04165">
        <ele>1812.2</ele>
        <time>2026-01-19T13:55:14Z</time>
      </trkpt>
      <trkpt lat="42.50808" lon="2.04167">
        <ele>1812.2</ele>
        <time>2026-01-19T13:55:15Z</time>
      </trkpt>
      <trkpt lat="42.50807" lon="2.04168">
        <ele>1812.3</ele>
        <time>2026-01-19T13:55:16Z</time>
      </trkpt>
      <trkpt lat="42.50807" lon="2.0417">
        <ele>1812.3</ele>
        <time>2026-01-19T13:55:17Z</time>
      </trkpt>
      <trkpt lat="42.50807" lon="2.04171">
        <ele>1812.3</ele>
        <time>2026-01-19T13:55:18Z</time>
      </trkpt>
      <trkpt lat="42.50807" lon="2.04173">
        <ele>1812.4</ele>
        <time>2026-01-19T13:55:19Z</time>
      </trkpt>
      <trkpt lat="42.50807" lon="2.04174">
        <ele>1812.4</ele>
        <time>2026-01-19T13:55:20Z</time>
      </trkpt>
      <trkpt lat="42.50807" lon="2.04176">
        <ele>1812.4</ele>
        <time>2026-01-19T13:55:21Z</time>
      </trkpt>
      <trkpt lat="42.50807" lon="2.04177">
        <ele>1812.5</ele>
        <time>2026-01-19T13:55:22Z</time>
      </trkpt>
      <trkpt lat="42.50806" lon="2.04179">
        <ele>1812.5</ele>
        <time>2026-01-19T13:55:23Z</time>
      </trkpt>
      <trkpt lat="42.50806" lon="2.0418">
        <ele>1812.5</ele>
        <time>2026-01-19T13:55:24Z</time>
      </trkpt>
      <trkpt lat="42.50806" lon="2.04182">
        <ele>1812.6</ele>
        <time>2026-01-19T13:55:25Z</time>
      </trkpt>
      <trkpt lat="42.50806" lon="2.04183">
        <ele>1812.6</ele>
        <time>2026-01-19T13:55:26Z</time>
      </trkpt>
      <trkpt lat="42.50805" lon="2.04185">
        <ele>1812.6</ele>
        <time>2026-01-19T13:55:27Z</time>
      </trkpt>
      <trkpt lat="42.50805" lon="2.04186">
        <ele>1812.6</ele>
        <time>2026-01-19T13:55:28Z</time>
      </trkpt>
      <trkpt lat="42.50805" lon="2.04188">
        <ele>1812.6</ele>
        <time>2026-01-19T13:55:29Z</time>
      </trkpt>
      <trkpt lat="42.50804" lon="2.04189">
        <ele>1812.6</ele>
        <time>2026-01-19T13:55:30Z</time>
      </trkpt>
      <trkpt lat="42.50804" lon="2.04191">
        <ele>1812.6</ele>
        <time>2026-01-19T13:55:31Z</time>
      </trkpt>
      <trkpt lat="42.50803" lon="2.04192">
        <ele>1812.6</ele>
        <time>2026-01-19T13:55:32Z</time>
      </trkpt>
      <trkpt lat="42.50803" lon="2.04193">
        <ele>1812.6</ele>
        <time>2026-01-19T13:55:33Z</time>
      </trkpt>
      <trkpt lat="42.50803" lon="2.04194">
        <ele>1812.6</ele>
        <time>2026-01-19T13:55:34Z</time>
      </trkpt>
      <trkpt lat="42.50803" lon="2.04195">
        <ele>1812.6</ele>
        <time>2026-01-19T13:55:35Z</time>
      </trkpt>
      <trkpt lat="42.50802" lon="2.04196">
        <ele>1812.6</ele>
        <time>2026-01-19T13:55:36Z</time>
      </trkpt>
      <trkpt lat="42.50802" lon="2.04197">
        <ele>1812.6</ele>
        <time>2026-01-19T13:55:37Z</time>
      </trkpt>
      <trkpt lat="42.50801" lon="2.04199">
        <ele>1812.6</ele>
        <time>2026-01-19T13:55:38Z</time>
      </trkpt>
      <trkpt lat="42.508" lon="2.042">
        <ele>1812.6</ele>
        <time>2026-01-19T13:55:39Z</time>
      </trkpt>
      <trkpt lat="42.50799" lon="2.04201">
        <ele>1812.6</ele>
        <time>2026-01-19T13:55:40Z</time>
      </trkpt>
      <trkpt lat="42.50797" lon="2.04201">
        <ele>1812.6</ele>
        <time>2026-01-19T13:55:41Z</time>
      </trkpt>
      <trkpt lat="42.50795" lon="2.04202">
        <ele>1812.6</ele>
        <time>2026-01-19T13:55:42Z</time>
      </trkpt>
      <trkpt lat="42.50794" lon="2.04203">
        <ele>1812.6</ele>
        <time>2026-01-19T13:55:43Z</time>
      </trkpt>
      <trkpt lat="42.50793" lon="2.04204">
        <ele>1812.6</ele>
        <time>2026-01-19T13:55:44Z</time>
      </trkpt>
      <trkpt lat="42.50792" lon="2.04204">
        <ele>1812.6</ele>
        <time>2026-01-19T13:55:45Z</time>
      </trkpt>
      <trkpt lat="42.50791" lon="2.04205">
        <ele>1812.6</ele>
        <time>2026-01-19T13:55:46Z</time>
      </trkpt>
      <trkpt lat="42.5079" lon="2.04205">
        <ele>1812.6</ele>
        <time>2026-01-19T13:55:47Z</time>
      </trkpt>
      <trkpt lat="42.5079" lon="2.04205">
        <ele>1812.6</ele>
        <time>2026-01-19T13:55:48Z</time>
      </trkpt>
      <trkpt lat="42.50789" lon="2.04205">
        <ele>1812.6</ele>
        <time>2026-01-19T13:55:49Z</time>
      </trkpt>
      <trkpt lat="42.50789" lon="2.04206">
        <ele>1812.6</ele>
        <time>2026-01-19T13:55:50Z</time>
      </trkpt>
      <trkpt lat="42.50788" lon="2.04207">
        <ele>1812.6</ele>
        <time>2026-01-19T13:55:51Z</time>
      </trkpt>
      <trkpt lat="42.50787" lon="2.04208">
        <ele>1812.5</ele>
        <time>2026-01-19T13:55:52Z</time>
      </trkpt>
      <trkpt lat="42.50786" lon="2.04208">
        <ele>1812.5</ele>
        <time>2026-01-19T13:55:53Z</time>
      </trkpt>
      <trkpt lat="42.50786" lon="2.0421">
        <ele>1812.5</ele>
        <time>2026-01-19T13:55:54Z</time>
      </trkpt>
      <trkpt lat="42.50785" lon="2.0421">
        <ele>1812.5</ele>
        <time>2026-01-19T13:55:55Z</time>
      </trkpt>
      <trkpt lat="42.50784" lon="2.04212">
        <ele>1812.5</ele>
        <time>2026-01-19T13:55:56Z</time>
      </trkpt>
      <trkpt lat="42.50783" lon="2.04212">
        <ele>1812.4</ele>
        <time>2026-01-19T13:55:57Z</time>
      </trkpt>
      <trkpt lat="42.50783" lon="2.04213">
        <ele>1812.4</ele>
        <time>2026-01-19T13:55:58Z</time>
      </trkpt>
      <trkpt lat="42.50782" lon="2.04213">
        <ele>1812.4</ele>
        <time>2026-01-19T13:55:59Z</time>
      </trkpt>
      <trkpt lat="42.50782" lon="2.04214">
        <ele>1812.4</ele>
        <time>2026-01-19T13:56:00Z</time>
      </trkpt>
      <trkpt lat="42.50781" lon="2.04215">
        <ele>1812.4</ele>
        <time>2026-01-19T13:56:01Z</time>
      </trkpt>
      <trkpt lat="42.50781" lon="2.04215">
        <ele>1812.4</ele>
        <time>2026-01-19T13:56:02Z</time>
      </trkpt>
      <trkpt lat="42.5078" lon="2.04216">
        <ele>1812.4</ele>
        <time>2026-01-19T13:56:03Z</time>
      </trkpt>
      <trkpt lat="42.5078" lon="2.04217">
        <ele>1812.3</ele>
        <time>2026-01-19T13:56:04Z</time>
      </trkpt>
      <trkpt lat="42.50779" lon="2.04218">
        <ele>1812.3</ele>
        <time>2026-01-19T13:56:05Z</time>
      </trkpt>
      <trkpt lat="42.50779" lon="2.04219">
        <ele>1812.3</ele>
        <time>2026-01-19T13:56:06Z</time>
      </trkpt>
      <trkpt lat="42.50779" lon="2.0422">
        <ele>1812.3</ele>
        <time>2026-01-19T13:56:07Z</time>
      </trkpt>
      <trkpt lat="42.50778" lon="2.0422">
        <ele>1812.3</ele>
        <time>2026-01-19T13:56:08Z</time>
      </trkpt>
      <trkpt lat="42.50778" lon="2.04221">
        <ele>1812.3</ele>
        <time>2026-01-19T13:56:09Z</time>
      </trkpt>
      <trkpt lat="42.50779" lon="2.04222">
        <ele>1812.3</ele>
        <time>2026-01-19T13:56:10Z</time>
      </trkpt>
      <trkpt lat="42.50779" lon="2.04223">
        <ele>1812.3</ele>
        <time>2026-01-19T13:56:11Z</time>
      </trkpt>
      <trkpt lat="42.50778" lon="2.04224">
        <ele>1812.2</ele>
        <time>2026-01-19T13:56:12Z</time>
      </trkpt>
      <trkpt lat="42.50778" lon="2.04224">
        <ele>1812.2</ele>
        <time>2026-01-19T13:56:13Z</time>
      </trkpt>
      <trkpt lat="42.50777" lon="2.04225">
        <ele>1812.2</ele>
        <time>2026-01-19T13:56:14Z</time>
      </trkpt>
      <trkpt lat="42.50777" lon="2.04227">
        <ele>1812.2</ele>
        <time>2026-01-19T13:56:15Z</time>
      </trkpt>
      <trkpt lat="42.50777" lon="2.04228">
        <ele>1812.2</ele>
        <time>2026-01-19T13:56:16Z</time>
      </trkpt>
      <trkpt lat="42.50777" lon="2.04229">
        <ele>1812.1</ele>
        <time>2026-01-19T13:56:17Z</time>
      </trkpt>
      <trkpt lat="42.50776" lon="2.0423">
        <ele>1812.1</ele>
        <time>2026-01-19T13:56:18Z</time>
      </trkpt>
      <trkpt lat="42.50776" lon="2.04231">
        <ele>1812.1</ele>
        <time>2026-01-19T13:56:19Z</time>
      </trkpt>
      <trkpt lat="42.50775" lon="2.04232">
        <ele>1812.1</ele>
        <time>2026-01-19T13:56:20Z</time>
      </trkpt>
      <trkpt lat="42.50775" lon="2.04232">
        <ele>1812.1</ele>
        <time>2026-01-19T13:56:21Z</time>
      </trkpt>
      <trkpt lat="42.50774" lon="2.04233">
        <ele>1812</ele>
        <time>2026-01-19T13:56:22Z</time>
      </trkpt>
      <trkpt lat="42.50773" lon="2.04233">
        <ele>1812</ele>
        <time>2026-01-19T13:56:23Z</time>
      </trkpt>
      <trkpt lat="42.50772" lon="2.04233">
        <ele>1812</ele>
        <time>2026-01-19T13:56:24Z</time>
      </trkpt>
      <trkpt lat="42.50771" lon="2.04234">
        <ele>1812</ele>
        <time>2026-01-19T13:56:25Z</time>
      </trkpt>
      <trkpt lat="42.50771" lon="2.04234">
        <ele>1811.9</ele>
        <time>2026-01-19T13:56:26Z</time>
      </trkpt>
      <trkpt lat="42.5077" lon="2.04234">
        <ele>1811.9</ele>
        <time>2026-01-19T13:56:27Z</time>
      </trkpt>
      <trkpt lat="42.50769" lon="2.04234">
        <ele>1811.9</ele>
        <time>2026-01-19T13:56:28Z</time>
      </trkpt>
      <trkpt lat="42.50768" lon="2.04234">
        <ele>1811.9</ele>
        <time>2026-01-19T13:56:29Z</time>
      </trkpt>
      <trkpt lat="42.50767" lon="2.04234">
        <ele>1811.9</ele>
        <time>2026-01-19T13:56:30Z</time>
      </trkpt>
      <trkpt lat="42.50766" lon="2.04235">
        <ele>1811.8</ele>
        <time>2026-01-19T13:56:31Z</time>
      </trkpt>
      <trkpt lat="42.50765" lon="2.04235">
        <ele>1811.8</ele>
        <time>2026-01-19T13:56:32Z</time>
      </trkpt>
      <trkpt lat="42.50764" lon="2.04235">
        <ele>1811.8</ele>
        <time>2026-01-19T13:56:33Z</time>
      </trkpt>
      <trkpt lat="42.50763" lon="2.04235">
        <ele>1811.7</ele>
        <time>2026-01-19T13:56:34Z</time>
      </trkpt>
      <trkpt lat="42.50762" lon="2.04235">
        <ele>1811.7</ele>
        <time>2026-01-19T13:56:35Z</time>
      </trkpt>
      <trkpt lat="42.50761" lon="2.04236">
        <ele>1811.7</ele>
        <time>2026-01-19T13:56:36Z</time>
      </trkpt>
      <trkpt lat="42.5076" lon="2.04236">
        <ele>1811.7</ele>
        <time>2026-01-19T13:56:37Z</time>
      </trkpt>
      <trkpt lat="42.50759" lon="2.04237">
        <ele>1811.6</ele>
        <time>2026-01-19T13:56:38Z</time>
      </trkpt>
      <trkpt lat="42.50758" lon="2.04239">
        <ele>1811.6</ele>
        <time>2026-01-19T13:56:39Z</time>
      </trkpt>
      <trkpt lat="42.50758" lon="2.0424">
        <ele>1811.6</ele>
        <time>2026-01-19T13:56:40Z</time>
      </trkpt>
      <trkpt lat="42.50758" lon="2.04242">
        <ele>1811.6</ele>
        <time>2026-01-19T13:56:41Z</time>
      </trkpt>
      <trkpt lat="42.50758" lon="2.04243">
        <ele>1811.5</ele>
        <time>2026-01-19T13:56:42Z</time>
      </trkpt>
      <trkpt lat="42.50758" lon="2.04244">
        <ele>1811.5</ele>
        <time>2026-01-19T13:56:43Z</time>
      </trkpt>
      <trkpt lat="42.50759" lon="2.04246">
        <ele>1811.5</ele>
        <time>2026-01-19T13:56:44Z</time>
      </trkpt>
      <trkpt lat="42.50759" lon="2.04247">
        <ele>1811.5</ele>
        <time>2026-01-19T13:56:45Z</time>
      </trkpt>
      <trkpt lat="42.5076" lon="2.04248">
        <ele>1811.4</ele>
        <time>2026-01-19T13:56:46Z</time>
      </trkpt>
      <trkpt lat="42.50761" lon="2.04249">
        <ele>1811.4</ele>
        <time>2026-01-19T13:56:47Z</time>
      </trkpt>
      <trkpt lat="42.50761" lon="2.0425">
        <ele>1811.4</ele>
        <time>2026-01-19T13:56:48Z</time>
      </trkpt>
      <trkpt lat="42.50762" lon="2.0425">
        <ele>1811.4</ele>
        <time>2026-01-19T13:56:49Z</time>
      </trkpt>
      <trkpt lat="42.50763" lon="2.04251">
        <ele>1811.4</ele>
        <time>2026-01-19T13:56:50Z</time>
      </trkpt>
      <trkpt lat="42.50764" lon="2.04252">
        <ele>1811.3</ele>
        <time>2026-01-19T13:56:51Z</time>
      </trkpt>
      <trkpt lat="42.50764" lon="2.04253">
        <ele>1811.3</ele>
        <time>2026-01-19T13:56:52Z</time>
      </trkpt>
      <trkpt lat="42.50765" lon="2.04254">
        <ele>1811.3</ele>
        <time>2026-01-19T13:56:53Z</time>
      </trkpt>
      <trkpt lat="42.50765" lon="2.04255">
        <ele>1811.3</ele>
        <time>2026-01-19T13:56:54Z</time>
      </trkpt>
      <trkpt lat="42.50765" lon="2.04256">
        <ele>1811.3</ele>
        <time>2026-01-19T13:56:55Z</time>
      </trkpt>
      <trkpt lat="42.50766" lon="2.04258">
        <ele>1811.3</ele>
        <time>2026-01-19T13:56:56Z</time>
      </trkpt>
      <trkpt lat="42.50766" lon="2.04259">
        <ele>1811.3</ele>
        <time>2026-01-19T13:56:57Z</time>
      </trkpt>
      <trkpt lat="42.50767" lon="2.0426">
        <ele>1811.2</ele>
        <time>2026-01-19T13:56:58Z</time>
      </trkpt>
      <trkpt lat="42.50767" lon="2.04261">
        <ele>1811.2</ele>
        <time>2026-01-19T13:56:59Z</time>
      </trkpt>
      <trkpt lat="42.50767" lon="2.04263">
        <ele>1811.2</ele>
        <time>2026-01-19T13:57:00Z</time>
      </trkpt>
      <trkpt lat="42.50768" lon="2.04264">
        <ele>1811.2</ele>
        <time>2026-01-19T13:57:01Z</time>
      </trkpt>
      <trkpt lat="42.50769" lon="2.04265">
        <ele>1811.2</ele>
        <time>2026-01-19T13:57:02Z</time>
      </trkpt>
      <trkpt lat="42.50769" lon="2.04267">
        <ele>1811.2</ele>
        <time>2026-01-19T13:57:03Z</time>
      </trkpt>
      <trkpt lat="42.5077" lon="2.04268">
        <ele>1811.1</ele>
        <time>2026-01-19T13:57:04Z</time>
      </trkpt>
      <trkpt lat="42.50771" lon="2.04269">
        <ele>1811.1</ele>
        <time>2026-01-19T13:57:05Z</time>
      </trkpt>
      <trkpt lat="42.50771" lon="2.0427">
        <ele>1811.1</ele>
        <time>2026-01-19T13:57:06Z</time>
      </trkpt>
      <trkpt lat="42.50772" lon="2.04272">
        <ele>1811.1</ele>
        <time>2026-01-19T13:57:07Z</time>
      </trkpt>
      <trkpt lat="42.50773" lon="2.04273">
        <ele>1811.1</ele>
        <time>2026-01-19T13:57:08Z</time>
      </trkpt>
      <trkpt lat="42.50774" lon="2.04274">
        <ele>1811.1</ele>
        <time>2026-01-19T13:57:09Z</time>
      </trkpt>
      <trkpt lat="42.50774" lon="2.04276">
        <ele>1811.1</ele>
        <time>2026-01-19T13:57:10Z</time>
      </trkpt>
      <trkpt lat="42.50775" lon="2.04277">
        <ele>1811.1</ele>
        <time>2026-01-19T13:57:11Z</time>
      </trkpt>
      <trkpt lat="42.50776" lon="2.04278">
        <ele>1811.1</ele>
        <time>2026-01-19T13:57:12Z</time>
      </trkpt>
      <trkpt lat="42.50776" lon="2.04279">
        <ele>1811.1</ele>
        <time>2026-01-19T13:57:13Z</time>
      </trkpt>
      <trkpt lat="42.50777" lon="2.04281">
        <ele>1811.1</ele>
        <time>2026-01-19T13:57:14Z</time>
      </trkpt>
      <trkpt lat="42.50777" lon="2.04282">
        <ele>1811.1</ele>
        <time>2026-01-19T13:57:15Z</time>
      </trkpt>
      <trkpt lat="42.50777" lon="2.04284">
        <ele>1811.1</ele>
        <time>2026-01-19T13:57:16Z</time>
      </trkpt>
      <trkpt lat="42.50778" lon="2.04285">
        <ele>1811.1</ele>
        <time>2026-01-19T13:57:17Z</time>
      </trkpt>
      <trkpt lat="42.50778" lon="2.04287">
        <ele>1811.1</ele>
        <time>2026-01-19T13:57:18Z</time>
      </trkpt>
      <trkpt lat="42.50778" lon="2.0429">
        <ele>1811.1</ele>
        <time>2026-01-19T13:57:19Z</time>
      </trkpt>
      <trkpt lat="42.50779" lon="2.04291">
        <ele>1811.1</ele>
        <time>2026-01-19T13:57:20Z</time>
      </trkpt>
      <trkpt lat="42.50779" lon="2.04292">
        <ele>1811.1</ele>
        <time>2026-01-19T13:57:21Z</time>
      </trkpt>
      <trkpt lat="42.50779" lon="2.04295">
        <ele>1811.1</ele>
        <time>2026-01-19T13:57:22Z</time>
      </trkpt>
      <trkpt lat="42.50779" lon="2.04296">
        <ele>1811.1</ele>
        <time>2026-01-19T13:57:23Z</time>
      </trkpt>
      <trkpt lat="42.50779" lon="2.04297">
        <ele>1811.1</ele>
        <time>2026-01-19T13:57:24Z</time>
      </trkpt>
      <trkpt lat="42.5078" lon="2.043">
        <ele>1811.1</ele>
        <time>2026-01-19T13:57:25Z</time>
      </trkpt>
      <trkpt lat="42.5078" lon="2.04301">
        <ele>1811.1</ele>
        <time>2026-01-19T13:57:26Z</time>
      </trkpt>
      <trkpt lat="42.50781" lon="2.04302">
        <ele>1811.1</ele>
        <time>2026-01-19T13:57:27Z</time>
      </trkpt>
      <trkpt lat="42.50781" lon="2.04303">
        <ele>1811.2</ele>
        <time>2026-01-19T13:57:28Z</time>
      </trkpt>
      <trkpt lat="42.50781" lon="2.04305">
        <ele>1811.2</ele>
        <time>2026-01-19T13:57:29Z</time>
      </trkpt>
      <trkpt lat="42.50782" lon="2.04308">
        <ele>1811.2</ele>
        <time>2026-01-19T13:57:30Z</time>
      </trkpt>
      <trkpt lat="42.50782" lon="2.04309">
        <ele>1811.2</ele>
        <time>2026-01-19T13:57:31Z</time>
      </trkpt>
      <trkpt lat="42.50783" lon="2.0431">
        <ele>1811.2</ele>
        <time>2026-01-19T13:57:32Z</time>
      </trkpt>
      <trkpt lat="42.50784" lon="2.04313">
        <ele>1811.2</ele>
        <time>2026-01-19T13:57:33Z</time>
      </trkpt>
      <trkpt lat="42.50784" lon="2.04314">
        <ele>1811.2</ele>
        <time>2026-01-19T13:57:34Z</time>
      </trkpt>
      <trkpt lat="42.50784" lon="2.04316">
        <ele>1811.2</ele>
        <time>2026-01-19T13:57:35Z</time>
      </trkpt>
      <trkpt lat="42.50785" lon="2.04318">
        <ele>1811.2</ele>
        <time>2026-01-19T13:57:36Z</time>
      </trkpt>
      <trkpt lat="42.50785" lon="2.04319">
        <ele>1811.2</ele>
        <time>2026-01-19T13:57:37Z</time>
      </trkpt>
      <trkpt lat="42.50786" lon="2.04321">
        <ele>1811.3</ele>
        <time>2026-01-19T13:57:38Z</time>
      </trkpt>
      <trkpt lat="42.50786" lon="2.04322">
        <ele>1811.3</ele>
        <time>2026-01-19T13:57:39Z</time>
      </trkpt>
      <trkpt lat="42.50787" lon="2.04324">
        <ele>1811.3</ele>
        <time>2026-01-19T13:57:40Z</time>
      </trkpt>
      <trkpt lat="42.50787" lon="2.04327">
        <ele>1811.3</ele>
        <time>2026-01-19T13:57:41Z</time>
      </trkpt>
      <trkpt lat="42.50788" lon="2.04328">
        <ele>1811.3</ele>
        <time>2026-01-19T13:57:42Z</time>
      </trkpt>
      <trkpt lat="42.50788" lon="2.0433">
        <ele>1811.3</ele>
        <time>2026-01-19T13:57:43Z</time>
      </trkpt>
      <trkpt lat="42.50788" lon="2.04332">
        <ele>1811.4</ele>
        <time>2026-01-19T13:57:44Z</time>
      </trkpt>
      <trkpt lat="42.50789" lon="2.04335">
        <ele>1811.4</ele>
        <time>2026-01-19T13:57:45Z</time>
      </trkpt>
      <trkpt lat="42.50789" lon="2.04336">
        <ele>1811.4</ele>
        <time>2026-01-19T13:57:46Z</time>
      </trkpt>
      <trkpt lat="42.50789" lon="2.04337">
        <ele>1811.4</ele>
        <time>2026-01-19T13:57:47Z</time>
      </trkpt>
      <trkpt lat="42.5079" lon="2.04338">
        <ele>1811.4</ele>
        <time>2026-01-19T13:57:48Z</time>
      </trkpt>
      <trkpt lat="42.50791" lon="2.04339">
        <ele>1811.4</ele>
        <time>2026-01-19T13:57:49Z</time>
      </trkpt>
      <trkpt lat="42.50791" lon="2.0434">
        <ele>1811.5</ele>
        <time>2026-01-19T13:57:50Z</time>
      </trkpt>
      <trkpt lat="42.50792" lon="2.04341">
        <ele>1811.5</ele>
        <time>2026-01-19T13:57:51Z</time>
      </trkpt>
      <trkpt lat="42.50792" lon="2.04342">
        <ele>1811.5</ele>
        <time>2026-01-19T13:57:52Z</time>
      </trkpt>
      <trkpt lat="42.50792" lon="2.04342">
        <ele>1811.5</ele>
        <time>2026-01-19T13:57:53Z</time>
      </trkpt>
      <trkpt lat="42.50793" lon="2.04343">
        <ele>1811.5</ele>
        <time>2026-01-19T13:57:54Z</time>
      </trkpt>
      <trkpt lat="42.50794" lon="2.04344">
        <ele>1811.5</ele>
        <time>2026-01-19T13:57:55Z</time>
      </trkpt>
      <trkpt lat="42.50794" lon="2.04344">
        <ele>1811.5</ele>
        <time>2026-01-19T13:57:56Z</time>
      </trkpt>
      <trkpt lat="42.50795" lon="2.04345">
        <ele>1811.5</ele>
        <time>2026-01-19T13:57:57Z</time>
      </trkpt>
      <trkpt lat="42.50796" lon="2.04346">
        <ele>1811.5</ele>
        <time>2026-01-19T13:57:58Z</time>
      </trkpt>
      <trkpt lat="42.50796" lon="2.04347">
        <ele>1811.6</ele>
        <time>2026-01-19T13:57:59Z</time>
      </trkpt>
      <trkpt lat="42.50796" lon="2.04349">
        <ele>1811.6</ele>
        <time>2026-01-19T13:58:00Z</time>
      </trkpt>
      <trkpt lat="42.50796" lon="2.0435">
        <ele>1811.6</ele>
        <time>2026-01-19T13:58:01Z</time>
      </trkpt>
      <trkpt lat="42.50796" lon="2.04353">
        <ele>1811.7</ele>
        <time>2026-01-19T13:58:02Z</time>
      </trkpt>
      <trkpt lat="42.50796" lon="2.04354">
        <ele>1811.7</ele>
        <time>2026-01-19T13:58:03Z</time>
      </trkpt>
      <trkpt lat="42.50796" lon="2.04355">
        <ele>1811.7</ele>
        <time>2026-01-19T13:58:04Z</time>
      </trkpt>
      <trkpt lat="42.50796" lon="2.04358">
        <ele>1811.7</ele>
        <time>2026-01-19T13:58:05Z</time>
      </trkpt>
      <trkpt lat="42.50796" lon="2.04359">
        <ele>1811.8</ele>
        <time>2026-01-19T13:58:06Z</time>
      </trkpt>
      <trkpt lat="42.50796" lon="2.04362">
        <ele>1811.9</ele>
        <time>2026-01-19T13:58:07Z</time>
      </trkpt>
      <trkpt lat="42.50797" lon="2.04364">
        <ele>1811.9</ele>
        <time>2026-01-19T13:58:08Z</time>
      </trkpt>
      <trkpt lat="42.50797" lon="2.04365">
        <ele>1811.9</ele>
        <time>2026-01-19T13:58:09Z</time>
      </trkpt>
      <trkpt lat="42.50797" lon="2.04366">
        <ele>1812</ele>
        <time>2026-01-19T13:58:10Z</time>
      </trkpt>
      <trkpt lat="42.50798" lon="2.04368">
        <ele>1812</ele>
        <time>2026-01-19T13:58:11Z</time>
      </trkpt>
      <trkpt lat="42.50798" lon="2.04369">
        <ele>1812</ele>
        <time>2026-01-19T13:58:12Z</time>
      </trkpt>
      <trkpt lat="42.50799" lon="2.0437">
        <ele>1812.1</ele>
        <time>2026-01-19T13:58:13Z</time>
      </trkpt>
      <trkpt lat="42.50799" lon="2.04372">
        <ele>1812.1</ele>
        <time>2026-01-19T13:58:14Z</time>
      </trkpt>
      <trkpt lat="42.50799" lon="2.04373">
        <ele>1812.2</ele>
        <time>2026-01-19T13:58:15Z</time>
      </trkpt>
      <trkpt lat="42.508" lon="2.04375">
        <ele>1812.2</ele>
        <time>2026-01-19T13:58:16Z</time>
      </trkpt>
      <trkpt lat="42.508" lon="2.04376">
        <ele>1812.2</ele>
        <time>2026-01-19T13:58:17Z</time>
      </trkpt>
      <trkpt lat="42.508" lon="2.04377">
        <ele>1812.3</ele>
        <time>2026-01-19T13:58:18Z</time>
      </trkpt>
      <trkpt lat="42.508" lon="2.04379">
        <ele>1812.3</ele>
        <time>2026-01-19T13:58:19Z</time>
      </trkpt>
      <trkpt lat="42.508" lon="2.0438">
        <ele>1812.4</ele>
        <time>2026-01-19T13:58:20Z</time>
      </trkpt>
      <trkpt lat="42.50801" lon="2.04382">
        <ele>1812.4</ele>
        <time>2026-01-19T13:58:21Z</time>
      </trkpt>
      <trkpt lat="42.50801" lon="2.04383">
        <ele>1812.4</ele>
        <time>2026-01-19T13:58:22Z</time>
      </trkpt>
      <trkpt lat="42.50802" lon="2.04385">
        <ele>1812.5</ele>
        <time>2026-01-19T13:58:23Z</time>
      </trkpt>
      <trkpt lat="42.50802" lon="2.04386">
        <ele>1812.5</ele>
        <time>2026-01-19T13:58:24Z</time>
      </trkpt>
      <trkpt lat="42.50803" lon="2.04388">
        <ele>1812.6</ele>
        <time>2026-01-19T13:58:25Z</time>
      </trkpt>
      <trkpt lat="42.50803" lon="2.0439">
        <ele>1812.6</ele>
        <time>2026-01-19T13:58:26Z</time>
      </trkpt>
      <trkpt lat="42.50804" lon="2.04391">
        <ele>1812.6</ele>
        <time>2026-01-19T13:58:27Z</time>
      </trkpt>
      <trkpt lat="42.50804" lon="2.04393">
        <ele>1812.7</ele>
        <time>2026-01-19T13:58:28Z</time>
      </trkpt>
      <trkpt lat="42.50804" lon="2.04394">
        <ele>1812.7</ele>
        <time>2026-01-19T13:58:29Z</time>
      </trkpt>
      <trkpt lat="42.50805" lon="2.04395">
        <ele>1812.7</ele>
        <time>2026-01-19T13:58:30Z</time>
      </trkpt>
      <trkpt lat="42.50804" lon="2.04397">
        <ele>1812.7</ele>
        <time>2026-01-19T13:58:31Z</time>
      </trkpt>
      <trkpt lat="42.50804" lon="2.04399">
        <ele>1812.7</ele>
        <time>2026-01-19T13:58:32Z</time>
      </trkpt>
      <trkpt lat="42.50804" lon="2.04401">
        <ele>1812.7</ele>
        <time>2026-01-19T13:58:33Z</time>
      </trkpt>
      <trkpt lat="42.50803" lon="2.04403">
        <ele>1812.7</ele>
        <time>2026-01-19T13:58:34Z</time>
      </trkpt>
      <trkpt lat="42.50803" lon="2.04406">
        <ele>1812.7</ele>
        <time>2026-01-19T13:58:35Z</time>
      </trkpt>
      <trkpt lat="42.50803" lon="2.04407">
        <ele>1812.6</ele>
        <time>2026-01-19T13:58:36Z</time>
      </trkpt>
      <trkpt lat="42.50803" lon="2.04408">
        <ele>1812.6</ele>
        <time>2026-01-19T13:58:37Z</time>
      </trkpt>
      <trkpt lat="42.50803" lon="2.0441">
        <ele>1812.5</ele>
        <time>2026-01-19T13:58:38Z</time>
      </trkpt>
      <trkpt lat="42.50803" lon="2.04412">
        <ele>1812.5</ele>
        <time>2026-01-19T13:58:39Z</time>
      </trkpt>
      <trkpt lat="42.50803" lon="2.04414">
        <ele>1812.4</ele>
        <time>2026-01-19T13:58:40Z</time>
      </trkpt>
      <trkpt lat="42.50803" lon="2.04416">
        <ele>1812.4</ele>
        <time>2026-01-19T13:58:41Z</time>
      </trkpt>
      <trkpt lat="42.50802" lon="2.04418">
        <ele>1812.3</ele>
        <time>2026-01-19T13:58:42Z</time>
      </trkpt>
      <trkpt lat="42.50802" lon="2.0442">
        <ele>1812.2</ele>
        <time>2026-01-19T13:58:43Z</time>
      </trkpt>
      <trkpt lat="42.50802" lon="2.04422">
        <ele>1812.1</ele>
        <time>2026-01-19T13:58:44Z</time>
      </trkpt>
      <trkpt lat="42.50802" lon="2.04424">
        <ele>1812.1</ele>
        <time>2026-01-19T13:58:45Z</time>
      </trkpt>
      <trkpt lat="42.50802" lon="2.04426">
        <ele>1812</ele>
        <time>2026-01-19T13:58:46Z</time>
      </trkpt>
      <trkpt lat="42.50802" lon="2.04428">
        <ele>1811.9</ele>
        <time>2026-01-19T13:58:47Z</time>
      </trkpt>
      <trkpt lat="42.50802" lon="2.04429">
        <ele>1811.9</ele>
        <time>2026-01-19T13:58:48Z</time>
      </trkpt>
      <trkpt lat="42.50801" lon="2.04431">
        <ele>1811.8</ele>
        <time>2026-01-19T13:58:49Z</time>
      </trkpt>
      <trkpt lat="42.50802" lon="2.04433">
        <ele>1811.7</ele>
        <time>2026-01-19T13:58:50Z</time>
      </trkpt>
      <trkpt lat="42.50802" lon="2.04435">
        <ele>1811.6</ele>
        <time>2026-01-19T13:58:51Z</time>
      </trkpt>
      <trkpt lat="42.50802" lon="2.04438">
        <ele>1811.6</ele>
        <time>2026-01-19T13:58:52Z</time>
      </trkpt>
      <trkpt lat="42.50802" lon="2.0444">
        <ele>1811.6</ele>
        <time>2026-01-19T13:58:53Z</time>
      </trkpt>
      <trkpt lat="42.50803" lon="2.04441">
        <ele>1811.6</ele>
        <time>2026-01-19T13:58:54Z</time>
      </trkpt>
      <trkpt lat="42.50803" lon="2.04442">
        <ele>1811.7</ele>
        <time>2026-01-19T13:58:55Z</time>
      </trkpt>
      <trkpt lat="42.50803" lon="2.04444">
        <ele>1811.7</ele>
        <time>2026-01-19T13:58:56Z</time>
      </trkpt>
      <trkpt lat="42.50803" lon="2.04446">
        <ele>1811.7</ele>
        <time>2026-01-19T13:58:57Z</time>
      </trkpt>
      <trkpt lat="42.50803" lon="2.04447">
        <ele>1811.7</ele>
        <time>2026-01-19T13:58:58Z</time>
      </trkpt>
      <trkpt lat="42.50804" lon="2.04449">
        <ele>1811.7</ele>
        <time>2026-01-19T13:58:59Z</time>
      </trkpt>
      <trkpt lat="42.50805" lon="2.04451">
        <ele>1811.8</ele>
        <time>2026-01-19T13:59:00Z</time>
      </trkpt>
      <trkpt lat="42.50806" lon="2.04452">
        <ele>1811.8</ele>
        <time>2026-01-19T13:59:01Z</time>
      </trkpt>
      <trkpt lat="42.50807" lon="2.04452">
        <ele>1811.8</ele>
        <time>2026-01-19T13:59:02Z</time>
      </trkpt>
      <trkpt lat="42.50809" lon="2.04454">
        <ele>1811.9</ele>
        <time>2026-01-19T13:59:03Z</time>
      </trkpt>
      <trkpt lat="42.5081" lon="2.04454">
        <ele>1811.9</ele>
        <time>2026-01-19T13:59:04Z</time>
      </trkpt>
      <trkpt lat="42.5081" lon="2.04455">
        <ele>1811.9</ele>
        <time>2026-01-19T13:59:05Z</time>
      </trkpt>
      <trkpt lat="42.50811" lon="2.04456">
        <ele>1811.9</ele>
        <time>2026-01-19T13:59:06Z</time>
      </trkpt>
      <trkpt lat="42.50812" lon="2.04457">
        <ele>1811.9</ele>
        <time>2026-01-19T13:59:07Z</time>
      </trkpt>
      <trkpt lat="42.50813" lon="2.04458">
        <ele>1812</ele>
        <time>2026-01-19T13:59:08Z</time>
      </trkpt>
      <trkpt lat="42.50814" lon="2.04459">
        <ele>1812</ele>
        <time>2026-01-19T13:59:09Z</time>
      </trkpt>
      <trkpt lat="42.50815" lon="2.0446">
        <ele>1812</ele>
        <time>2026-01-19T13:59:10Z</time>
      </trkpt>
      <trkpt lat="42.50816" lon="2.04461">
        <ele>1812</ele>
        <time>2026-01-19T13:59:11Z</time>
      </trkpt>
      <trkpt lat="42.50817" lon="2.04462">
        <ele>1812</ele>
        <time>2026-01-19T13:59:12Z</time>
      </trkpt>
      <trkpt lat="42.50818" lon="2.04462">
        <ele>1812.1</ele>
        <time>2026-01-19T13:59:13Z</time>
      </trkpt>
      <trkpt lat="42.5082" lon="2.04463">
        <ele>1812.1</ele>
        <time>2026-01-19T13:59:14Z</time>
      </trkpt>
      <trkpt lat="42.50821" lon="2.04463">
        <ele>1812.1</ele>
        <time>2026-01-19T13:59:15Z</time>
      </trkpt>
      <trkpt lat="42.50824" lon="2.04464">
        <ele>1812.2</ele>
        <time>2026-01-19T13:59:16Z</time>
      </trkpt>
      <trkpt lat="42.50825" lon="2.04464">
        <ele>1812.2</ele>
        <time>2026-01-19T13:59:17Z</time>
      </trkpt>
      <trkpt lat="42.50826" lon="2.04464">
        <ele>1812.3</ele>
        <time>2026-01-19T13:59:18Z</time>
      </trkpt>
      <trkpt lat="42.50828" lon="2.04464">
        <ele>1812.4</ele>
        <time>2026-01-19T13:59:19Z</time>
      </trkpt>
      <trkpt lat="42.50831" lon="2.04464">
        <ele>1812.5</ele>
        <time>2026-01-19T13:59:20Z</time>
      </trkpt>
      <trkpt lat="42.50832" lon="2.04463">
        <ele>1812.6</ele>
        <time>2026-01-19T13:59:22Z</time>
      </trkpt>
      <trkpt lat="42.50834" lon="2.04463">
        <ele>1812.7</ele>
        <time>2026-01-19T13:59:23Z</time>
      </trkpt>
      <trkpt lat="42.50835" lon="2.04462">
        <ele>1812.8</ele>
        <time>2026-01-19T13:59:24Z</time>
      </trkpt>
      <trkpt lat="42.50837" lon="2.04462">
        <ele>1812.9</ele>
        <time>2026-01-19T13:59:25Z</time>
      </trkpt>
      <trkpt lat="42.50838" lon="2.04461">
        <ele>1812.9</ele>
        <time>2026-01-19T13:59:26Z</time>
      </trkpt>
      <trkpt lat="42.5084" lon="2.04461">
        <ele>1813.1</ele>
        <time>2026-01-19T13:59:27Z</time>
      </trkpt>
      <trkpt lat="42.50841" lon="2.0446">
        <ele>1813.1</ele>
        <time>2026-01-19T13:59:28Z</time>
      </trkpt>
      <trkpt lat="42.50842" lon="2.0446">
        <ele>1813.2</ele>
        <time>2026-01-19T13:59:29Z</time>
      </trkpt>
      <trkpt lat="42.50843" lon="2.04459">
        <ele>1813.3</ele>
        <time>2026-01-19T13:59:30Z</time>
      </trkpt>
      <trkpt lat="42.50844" lon="2.04458">
        <ele>1813.4</ele>
        <time>2026-01-19T13:59:31Z</time>
      </trkpt>
      <trkpt lat="42.50845" lon="2.04458">
        <ele>1813.5</ele>
        <time>2026-01-19T13:59:32Z</time>
      </trkpt>
      <trkpt lat="42.50846" lon="2.04458">
        <ele>1813.6</ele>
        <time>2026-01-19T13:59:33Z</time>
      </trkpt>
      <trkpt lat="42.50847" lon="2.04458">
        <ele>1813.7</ele>
        <time>2026-01-19T13:59:34Z</time>
      </trkpt>
      <trkpt lat="42.50848" lon="2.04459">
        <ele>1813.8</ele>
        <time>2026-01-19T13:59:35Z</time>
      </trkpt>
      <trkpt lat="42.50849" lon="2.04459">
        <ele>1813.9</ele>
        <time>2026-01-19T13:59:36Z</time>
      </trkpt>
      <trkpt lat="42.5085" lon="2.04459">
        <ele>1814</ele>
        <time>2026-01-19T13:59:37Z</time>
      </trkpt>
      <trkpt lat="42.50852" lon="2.04459">
        <ele>1814.1</ele>
        <time>2026-01-19T13:59:38Z</time>
      </trkpt>
      <trkpt lat="42.50853" lon="2.04459">
        <ele>1814.2</ele>
        <time>2026-01-19T13:59:39Z</time>
      </trkpt>
      <trkpt lat="42.50854" lon="2.04459">
        <ele>1814.3</ele>
        <time>2026-01-19T13:59:40Z</time>
      </trkpt>
      <trkpt lat="42.50855" lon="2.04459">
        <ele>1814.4</ele>
        <time>2026-01-19T13:59:41Z</time>
      </trkpt>
      <trkpt lat="42.50856" lon="2.04459">
        <ele>1814.5</ele>
        <time>2026-01-19T13:59:42Z</time>
      </trkpt>
      <trkpt lat="42.50857" lon="2.04458">
        <ele>1814.6</ele>
        <time>2026-01-19T13:59:43Z</time>
      </trkpt>
      <trkpt lat="42.50858" lon="2.04457">
        <ele>1814.6</ele>
        <time>2026-01-19T13:59:44Z</time>
      </trkpt>
      <trkpt lat="42.50858" lon="2.04456">
        <ele>1814.8</ele>
        <time>2026-01-19T13:59:45Z</time>
      </trkpt>
      <trkpt lat="42.50859" lon="2.04455">
        <ele>1814.9</ele>
        <time>2026-01-19T13:59:46Z</time>
      </trkpt>
      <trkpt lat="42.5086" lon="2.04455">
        <ele>1815</ele>
        <time>2026-01-19T13:59:47Z</time>
      </trkpt>
      <trkpt lat="42.50862" lon="2.04455">
        <ele>1815.1</ele>
        <time>2026-01-19T13:59:48Z</time>
      </trkpt>
      <trkpt lat="42.50863" lon="2.04454">
        <ele>1815.1</ele>
        <time>2026-01-19T13:59:49Z</time>
      </trkpt>
      <trkpt lat="42.50863" lon="2.04454">
        <ele>1815.2</ele>
        <time>2026-01-19T13:59:50Z</time>
      </trkpt>
      <trkpt lat="42.50864" lon="2.04454">
        <ele>1815.3</ele>
        <time>2026-01-19T13:59:51Z</time>
      </trkpt>
      <trkpt lat="42.50865" lon="2.04453">
        <ele>1815.4</ele>
        <time>2026-01-19T13:59:52Z</time>
      </trkpt>
      <trkpt lat="42.50865" lon="2.04453">
        <ele>1815.4</ele>
        <time>2026-01-19T13:59:53Z</time>
      </trkpt>
      <trkpt lat="42.50866" lon="2.04453">
        <ele>1815.5</ele>
        <time>2026-01-19T13:59:54Z</time>
      </trkpt>
      <trkpt lat="42.50867" lon="2.04453">
        <ele>1815.6</ele>
        <time>2026-01-19T13:59:55Z</time>
      </trkpt>
      <trkpt lat="42.50868" lon="2.04452">
        <ele>1815.6</ele>
        <time>2026-01-19T13:59:56Z</time>
      </trkpt>
      <trkpt lat="42.50869" lon="2.04452">
        <ele>1815.7</ele>
        <time>2026-01-19T13:59:57Z</time>
      </trkpt>
      <trkpt lat="42.5087" lon="2.04452">
        <ele>1815.8</ele>
        <time>2026-01-19T13:59:58Z</time>
      </trkpt>
      <trkpt lat="42.50871" lon="2.04452">
        <ele>1815.9</ele>
        <time>2026-01-19T13:59:59Z</time>
      </trkpt>
      <trkpt lat="42.50872" lon="2.04452">
        <ele>1816</ele>
        <time>2026-01-19T14:00:00Z</time>
      </trkpt>
      <trkpt lat="42.50874" lon="2.04451">
        <ele>1816.2</ele>
        <time>2026-01-19T14:00:01Z</time>
      </trkpt>
      <trkpt lat="42.50875" lon="2.04451">
        <ele>1816.3</ele>
        <time>2026-01-19T14:00:02Z</time>
      </trkpt>
      <trkpt lat="42.50876" lon="2.04451">
        <ele>1816.4</ele>
        <time>2026-01-19T14:00:03Z</time>
      </trkpt>
      <trkpt lat="42.50877" lon="2.04451">
        <ele>1816.5</ele>
        <time>2026-01-19T14:00:04Z</time>
      </trkpt>
      <trkpt lat="42.50878" lon="2.0445">
        <ele>1816.6</ele>
        <time>2026-01-19T14:00:05Z</time>
      </trkpt>
      <trkpt lat="42.50879" lon="2.0445">
        <ele>1816.7</ele>
        <time>2026-01-19T14:00:06Z</time>
      </trkpt>
      <trkpt lat="42.5088" lon="2.0445">
        <ele>1816.8</ele>
        <time>2026-01-19T14:00:07Z</time>
      </trkpt>
      <trkpt lat="42.50881" lon="2.04449">
        <ele>1816.9</ele>
        <time>2026-01-19T14:00:08Z</time>
      </trkpt>
      <trkpt lat="42.50883" lon="2.04449">
        <ele>1817</ele>
        <time>2026-01-19T14:00:09Z</time>
      </trkpt>
      <trkpt lat="42.50885" lon="2.04448">
        <ele>1817.2</ele>
        <time>2026-01-19T14:00:10Z</time>
      </trkpt>
      <trkpt lat="42.50886" lon="2.04448">
        <ele>1817.3</ele>
        <time>2026-01-19T14:00:11Z</time>
      </trkpt>
      <trkpt lat="42.50886" lon="2.04447">
        <ele>1817.4</ele>
        <time>2026-01-19T14:00:12Z</time>
      </trkpt>
      <trkpt lat="42.50887" lon="2.04447">
        <ele>1817.5</ele>
        <time>2026-01-19T14:00:13Z</time>
      </trkpt>
      <trkpt lat="42.50888" lon="2.04446">
        <ele>1817.6</ele>
        <time>2026-01-19T14:00:14Z</time>
      </trkpt>
      <trkpt lat="42.5089" lon="2.04445">
        <ele>1817.7</ele>
        <time>2026-01-19T14:00:15Z</time>
      </trkpt>
      <trkpt lat="42.50891" lon="2.04445">
        <ele>1817.8</ele>
        <time>2026-01-19T14:00:16Z</time>
      </trkpt>
      <trkpt lat="42.50892" lon="2.04445">
        <ele>1817.9</ele>
        <time>2026-01-19T14:00:17Z</time>
      </trkpt>
      <trkpt lat="42.50893" lon="2.04445">
        <ele>1818</ele>
        <time>2026-01-19T14:00:18Z</time>
      </trkpt>
      <trkpt lat="42.50894" lon="2.04445">
        <ele>1818.1</ele>
        <time>2026-01-19T14:00:19Z</time>
      </trkpt>
      <trkpt lat="42.50895" lon="2.04445">
        <ele>1818.2</ele>
        <time>2026-01-19T14:00:20Z</time>
      </trkpt>
      <trkpt lat="42.50897" lon="2.04445">
        <ele>1818.3</ele>
        <time>2026-01-19T14:00:21Z</time>
      </trkpt>
      <trkpt lat="42.50898" lon="2.04445">
        <ele>1818.4</ele>
        <time>2026-01-19T14:00:22Z</time>
      </trkpt>
      <trkpt lat="42.50898" lon="2.04445">
        <ele>1818.5</ele>
        <time>2026-01-19T14:00:23Z</time>
      </trkpt>
      <trkpt lat="42.509" lon="2.04444">
        <ele>1818.6</ele>
        <time>2026-01-19T14:00:24Z</time>
      </trkpt>
      <trkpt lat="42.50901" lon="2.04444">
        <ele>1818.8</ele>
        <time>2026-01-19T14:00:25Z</time>
      </trkpt>
      <trkpt lat="42.50902" lon="2.04444">
        <ele>1818.9</ele>
        <time>2026-01-19T14:00:26Z</time>
      </trkpt>
      <trkpt lat="42.50904" lon="2.04443">
        <ele>1819</ele>
        <time>2026-01-19T14:00:27Z</time>
      </trkpt>
      <trkpt lat="42.50905" lon="2.04443">
        <ele>1819.1</ele>
        <time>2026-01-19T14:00:28Z</time>
      </trkpt>
      <trkpt lat="42.50906" lon="2.04442">
        <ele>1819.2</ele>
        <time>2026-01-19T14:00:29Z</time>
      </trkpt>
      <trkpt lat="42.50907" lon="2.04442">
        <ele>1819.3</ele>
        <time>2026-01-19T14:00:30Z</time>
      </trkpt>
      <trkpt lat="42.50908" lon="2.04442">
        <ele>1819.4</ele>
        <time>2026-01-19T14:00:31Z</time>
      </trkpt>
      <trkpt lat="42.50909" lon="2.04442">
        <ele>1819.5</ele>
        <time>2026-01-19T14:00:32Z</time>
      </trkpt>
      <trkpt lat="42.50909" lon="2.04442">
        <ele>1819.6</ele>
        <time>2026-01-19T14:00:33Z</time>
      </trkpt>
      <trkpt lat="42.5091" lon="2.04441">
        <ele>1819.6</ele>
        <time>2026-01-19T14:00:34Z</time>
      </trkpt>
      <trkpt lat="42.50911" lon="2.04441">
        <ele>1819.7</ele>
        <time>2026-01-19T14:00:35Z</time>
      </trkpt>
      <trkpt lat="42.50911" lon="2.0444">
        <ele>1819.8</ele>
        <time>2026-01-19T14:00:36Z</time>
      </trkpt>
      <trkpt lat="42.50912" lon="2.04439">
        <ele>1819.9</ele>
        <time>2026-01-19T14:00:37Z</time>
      </trkpt>
      <trkpt lat="42.50913" lon="2.04439">
        <ele>1820</ele>
        <time>2026-01-19T14:00:38Z</time>
      </trkpt>
      <trkpt lat="42.50914" lon="2.04438">
        <ele>1820</ele>
        <time>2026-01-19T14:00:39Z</time>
      </trkpt>
      <trkpt lat="42.50915" lon="2.04438">
        <ele>1820.1</ele>
        <time>2026-01-19T14:00:40Z</time>
      </trkpt>
      <trkpt lat="42.50916" lon="2.04439">
        <ele>1820.2</ele>
        <time>2026-01-19T14:00:41Z</time>
      </trkpt>
      <trkpt lat="42.50917" lon="2.04439">
        <ele>1820.3</ele>
        <time>2026-01-19T14:00:42Z</time>
      </trkpt>
      <trkpt lat="42.50918" lon="2.0444">
        <ele>1820.4</ele>
        <time>2026-01-19T14:00:43Z</time>
      </trkpt>
      <trkpt lat="42.50919" lon="2.04441">
        <ele>1820.5</ele>
        <time>2026-01-19T14:00:44Z</time>
      </trkpt>
      <trkpt lat="42.50921" lon="2.04442">
        <ele>1820.7</ele>
        <time>2026-01-19T14:00:45Z</time>
      </trkpt>
      <trkpt lat="42.50922" lon="2.04443">
        <ele>1820.8</ele>
        <time>2026-01-19T14:00:46Z</time>
      </trkpt>
      <trkpt lat="42.50923" lon="2.04444">
        <ele>1820.9</ele>
        <time>2026-01-19T14:00:47Z</time>
      </trkpt>
      <trkpt lat="42.50924" lon="2.04444">
        <ele>1821</ele>
        <time>2026-01-19T14:00:48Z</time>
      </trkpt>
      <trkpt lat="42.50925" lon="2.04444">
        <ele>1821.1</ele>
        <time>2026-01-19T14:00:49Z</time>
      </trkpt>
      <trkpt lat="42.50927" lon="2.04445">
        <ele>1821.2</ele>
        <time>2026-01-19T14:00:50Z</time>
      </trkpt>
      <trkpt lat="42.50929" lon="2.04445">
        <ele>1821.4</ele>
        <time>2026-01-19T14:00:51Z</time>
      </trkpt>
      <trkpt lat="42.5093" lon="2.04445">
        <ele>1821.5</ele>
        <time>2026-01-19T14:00:52Z</time>
      </trkpt>
      <trkpt lat="42.5093" lon="2.04445">
        <ele>1821.6</ele>
        <time>2026-01-19T14:00:53Z</time>
      </trkpt>
      <trkpt lat="42.50931" lon="2.04446">
        <ele>1821.6</ele>
        <time>2026-01-19T14:00:54Z</time>
      </trkpt>
      <trkpt lat="42.50933" lon="2.04446">
        <ele>1821.8</ele>
        <time>2026-01-19T14:00:55Z</time>
      </trkpt>
      <trkpt lat="42.50933" lon="2.04446">
        <ele>1821.8</ele>
        <time>2026-01-19T14:00:56Z</time>
      </trkpt>
      <trkpt lat="42.50934" lon="2.04447">
        <ele>1821.9</ele>
        <time>2026-01-19T14:00:57Z</time>
      </trkpt>
      <trkpt lat="42.50933" lon="2.04448">
        <ele>1821.9</ele>
        <time>2026-01-19T14:00:58Z</time>
      </trkpt>
      <trkpt lat="42.50933" lon="2.04448">
        <ele>1822</ele>
        <time>2026-01-19T14:00:59Z</time>
      </trkpt>
      <trkpt lat="42.50933" lon="2.04448">
        <ele>1822</ele>
        <time>2026-01-19T14:01:00Z</time>
      </trkpt>
      <trkpt lat="42.50934" lon="2.04448">
        <ele>1822</ele>
        <time>2026-01-19T14:01:01Z</time>
      </trkpt>
      <trkpt lat="42.50935" lon="2.04448">
        <ele>1822.1</ele>
        <time>2026-01-19T14:01:02Z</time>
      </trkpt>
      <trkpt lat="42.50936" lon="2.04448">
        <ele>1822.3</ele>
        <time>2026-01-19T14:01:03Z</time>
      </trkpt>
      <trkpt lat="42.50937" lon="2.04448">
        <ele>1822.3</ele>
        <time>2026-01-19T14:01:04Z</time>
      </trkpt>
      <trkpt lat="42.50938" lon="2.04448">
        <ele>1822.4</ele>
        <time>2026-01-19T14:01:05Z</time>
      </trkpt>
      <trkpt lat="42.50939" lon="2.04448">
        <ele>1822.5</ele>
        <time>2026-01-19T14:01:06Z</time>
      </trkpt>
      <trkpt lat="42.5094" lon="2.04448">
        <ele>1822.6</ele>
        <time>2026-01-19T14:01:07Z</time>
      </trkpt>
      <trkpt lat="42.50941" lon="2.04448">
        <ele>1822.7</ele>
        <time>2026-01-19T14:01:08Z</time>
      </trkpt>
      <trkpt lat="42.50942" lon="2.04448">
        <ele>1822.7</ele>
        <time>2026-01-19T14:01:09Z</time>
      </trkpt>
      <trkpt lat="42.50942" lon="2.04448">
        <ele>1822.8</ele>
        <time>2026-01-19T14:01:10Z</time>
      </trkpt>
      <trkpt lat="42.50943" lon="2.04448">
        <ele>1822.8</ele>
        <time>2026-01-19T14:01:11Z</time>
      </trkpt>
      <trkpt lat="42.50944" lon="2.04448">
        <ele>1822.9</ele>
        <time>2026-01-19T14:01:12Z</time>
      </trkpt>
      <trkpt lat="42.50945" lon="2.04448">
        <ele>1823</ele>
        <time>2026-01-19T14:01:13Z</time>
      </trkpt>
      <trkpt lat="42.50945" lon="2.04449">
        <ele>1823</ele>
        <time>2026-01-19T14:01:14Z</time>
      </trkpt>
      <trkpt lat="42.50946" lon="2.04449">
        <ele>1823.1</ele>
        <time>2026-01-19T14:01:15Z</time>
      </trkpt>
      <trkpt lat="42.50947" lon="2.0445">
        <ele>1823.2</ele>
        <time>2026-01-19T14:01:16Z</time>
      </trkpt>
      <trkpt lat="42.50948" lon="2.0445">
        <ele>1823.2</ele>
        <time>2026-01-19T14:01:17Z</time>
      </trkpt>
      <trkpt lat="42.50949" lon="2.04451">
        <ele>1823.3</ele>
        <time>2026-01-19T14:01:18Z</time>
      </trkpt>
      <trkpt lat="42.50951" lon="2.04452">
        <ele>1823.5</ele>
        <time>2026-01-19T14:01:19Z</time>
      </trkpt>
      <trkpt lat="42.50951" lon="2.04453">
        <ele>1823.5</ele>
        <time>2026-01-19T14:01:20Z</time>
      </trkpt>
      <trkpt lat="42.50952" lon="2.04454">
        <ele>1823.6</ele>
        <time>2026-01-19T14:01:21Z</time>
      </trkpt>
      <trkpt lat="42.50953" lon="2.04456">
        <ele>1823.7</ele>
        <time>2026-01-19T14:01:22Z</time>
      </trkpt>
      <trkpt lat="42.50954" lon="2.04457">
        <ele>1823.8</ele>
        <time>2026-01-19T14:01:23Z</time>
      </trkpt>
      <trkpt lat="42.50955" lon="2.04459">
        <ele>1823.8</ele>
        <time>2026-01-19T14:01:24Z</time>
      </trkpt>
      <trkpt lat="42.50956" lon="2.0446">
        <ele>1823.9</ele>
        <time>2026-01-19T14:01:25Z</time>
      </trkpt>
      <trkpt lat="42.50957" lon="2.04462">
        <ele>1824</ele>
        <time>2026-01-19T14:01:26Z</time>
      </trkpt>
      <trkpt lat="42.50958" lon="2.04463">
        <ele>1824.1</ele>
        <time>2026-01-19T14:01:27Z</time>
      </trkpt>
      <trkpt lat="42.50958" lon="2.04464">
        <ele>1824.1</ele>
        <time>2026-01-19T14:01:28Z</time>
      </trkpt>
      <trkpt lat="42.50959" lon="2.04466">
        <ele>1824.2</ele>
        <time>2026-01-19T14:01:29Z</time>
      </trkpt>
      <trkpt lat="42.5096" lon="2.04467">
        <ele>1824.3</ele>
        <time>2026-01-19T14:01:30Z</time>
      </trkpt>
      <trkpt lat="42.50961" lon="2.04469">
        <ele>1824.4</ele>
        <time>2026-01-19T14:01:31Z</time>
      </trkpt>
      <trkpt lat="42.50962" lon="2.0447">
        <ele>1824.4</ele>
        <time>2026-01-19T14:01:32Z</time>
      </trkpt>
      <trkpt lat="42.50962" lon="2.04472">
        <ele>1824.5</ele>
        <time>2026-01-19T14:01:33Z</time>
      </trkpt>
      <trkpt lat="42.50963" lon="2.04473">
        <ele>1824.5</ele>
        <time>2026-01-19T14:01:34Z</time>
      </trkpt>
      <trkpt lat="42.50964" lon="2.04475">
        <ele>1824.6</ele>
        <time>2026-01-19T14:01:35Z</time>
      </trkpt>
      <trkpt lat="42.50965" lon="2.04477">
        <ele>1824.7</ele>
        <time>2026-01-19T14:01:36Z</time>
      </trkpt>
      <trkpt lat="42.50965" lon="2.04478">
        <ele>1824.7</ele>
        <time>2026-01-19T14:01:37Z</time>
      </trkpt>
      <trkpt lat="42.50966" lon="2.0448">
        <ele>1824.8</ele>
        <time>2026-01-19T14:01:38Z</time>
      </trkpt>
      <trkpt lat="42.50967" lon="2.04481">
        <ele>1824.8</ele>
        <time>2026-01-19T14:01:39Z</time>
      </trkpt>
      <trkpt lat="42.50967" lon="2.04484">
        <ele>1824.9</ele>
        <time>2026-01-19T14:01:40Z</time>
      </trkpt>
      <trkpt lat="42.50968" lon="2.04485">
        <ele>1824.9</ele>
        <time>2026-01-19T14:01:41Z</time>
      </trkpt>
      <trkpt lat="42.50968" lon="2.04486">
        <ele>1825</ele>
        <time>2026-01-19T14:01:42Z</time>
      </trkpt>
      <trkpt lat="42.50968" lon="2.04487">
        <ele>1825</ele>
        <time>2026-01-19T14:01:43Z</time>
      </trkpt>
      <trkpt lat="42.50969" lon="2.04488">
        <ele>1825</ele>
        <time>2026-01-19T14:01:44Z</time>
      </trkpt>
      <trkpt lat="42.5097" lon="2.04489">
        <ele>1825.1</ele>
        <time>2026-01-19T14:01:45Z</time>
      </trkpt>
      <trkpt lat="42.50971" lon="2.0449">
        <ele>1825.1</ele>
        <time>2026-01-19T14:01:46Z</time>
      </trkpt>
      <trkpt lat="42.50971" lon="2.04491">
        <ele>1825.2</ele>
        <time>2026-01-19T14:01:47Z</time>
      </trkpt>
      <trkpt lat="42.50972" lon="2.04492">
        <ele>1825.2</ele>
        <time>2026-01-19T14:01:48Z</time>
      </trkpt>
      <trkpt lat="42.50972" lon="2.04494">
        <ele>1825.3</ele>
        <time>2026-01-19T14:01:49Z</time>
      </trkpt>
      <trkpt lat="42.50972" lon="2.04495">
        <ele>1825.3</ele>
        <time>2026-01-19T14:01:50Z</time>
      </trkpt>
      <trkpt lat="42.50973" lon="2.04497">
        <ele>1825.4</ele>
        <time>2026-01-19T14:01:51Z</time>
      </trkpt>
      <trkpt lat="42.50973" lon="2.04499">
        <ele>1825.4</ele>
        <time>2026-01-19T14:01:52Z</time>
      </trkpt>
      <trkpt lat="42.50972" lon="2.04501">
        <ele>1825.5</ele>
        <time>2026-01-19T14:01:53Z</time>
      </trkpt>
      <trkpt lat="42.50972" lon="2.04504">
        <ele>1825.6</ele>
        <time>2026-01-19T14:01:54Z</time>
      </trkpt>
      <trkpt lat="42.50972" lon="2.04505">
        <ele>1825.6</ele>
        <time>2026-01-19T14:01:55Z</time>
      </trkpt>
      <trkpt lat="42.50972" lon="2.04507">
        <ele>1825.7</ele>
        <time>2026-01-19T14:01:56Z</time>
      </trkpt>
      <trkpt lat="42.50972" lon="2.04509">
        <ele>1825.8</ele>
        <time>2026-01-19T14:01:57Z</time>
      </trkpt>
      <trkpt lat="42.50971" lon="2.04511">
        <ele>1825.8</ele>
        <time>2026-01-19T14:01:58Z</time>
      </trkpt>
      <trkpt lat="42.50971" lon="2.04513">
        <ele>1825.9</ele>
        <time>2026-01-19T14:01:59Z</time>
      </trkpt>
      <trkpt lat="42.50972" lon="2.04515">
        <ele>1826</ele>
        <time>2026-01-19T14:02:00Z</time>
      </trkpt>
      <trkpt lat="42.50972" lon="2.04517">
        <ele>1826</ele>
        <time>2026-01-19T14:02:01Z</time>
      </trkpt>
      <trkpt lat="42.50972" lon="2.04518">
        <ele>1826.1</ele>
        <time>2026-01-19T14:02:02Z</time>
      </trkpt>
      <trkpt lat="42.50972" lon="2.0452">
        <ele>1826.2</ele>
        <time>2026-01-19T14:02:03Z</time>
      </trkpt>
      <trkpt lat="42.50972" lon="2.04522">
        <ele>1826.2</ele>
        <time>2026-01-19T14:02:04Z</time>
      </trkpt>
      <trkpt lat="42.50972" lon="2.04525">
        <ele>1826.4</ele>
        <time>2026-01-19T14:02:05Z</time>
      </trkpt>
      <trkpt lat="42.50972" lon="2.04526">
        <ele>1826.4</ele>
        <time>2026-01-19T14:02:06Z</time>
      </trkpt>
      <trkpt lat="42.50972" lon="2.04527">
        <ele>1826.4</ele>
        <time>2026-01-19T14:02:07Z</time>
      </trkpt>
      <trkpt lat="42.50973" lon="2.0453">
        <ele>1826.5</ele>
        <time>2026-01-19T14:02:08Z</time>
      </trkpt>
      <trkpt lat="42.50973" lon="2.04531">
        <ele>1826.6</ele>
        <time>2026-01-19T14:02:09Z</time>
      </trkpt>
      <trkpt lat="42.50973" lon="2.04532">
        <ele>1826.6</ele>
        <time>2026-01-19T14:02:10Z</time>
      </trkpt>
      <trkpt lat="42.50972" lon="2.04534">
        <ele>1826.6</ele>
        <time>2026-01-19T14:02:11Z</time>
      </trkpt>
      <trkpt lat="42.50972" lon="2.04535">
        <ele>1826.6</ele>
        <time>2026-01-19T14:02:12Z</time>
      </trkpt>
      <trkpt lat="42.50972" lon="2.04537">
        <ele>1826.7</ele>
        <time>2026-01-19T14:02:13Z</time>
      </trkpt>
      <trkpt lat="42.50973" lon="2.04538">
        <ele>1826.7</ele>
        <time>2026-01-19T14:02:14Z</time>
      </trkpt>
      <trkpt lat="42.50973" lon="2.0454">
        <ele>1826.8</ele>
        <time>2026-01-19T14:02:15Z</time>
      </trkpt>
      <trkpt lat="42.50973" lon="2.04541">
        <ele>1826.8</ele>
        <time>2026-01-19T14:02:16Z</time>
      </trkpt>
      <trkpt lat="42.50973" lon="2.04542">
        <ele>1826.9</ele>
        <time>2026-01-19T14:02:17Z</time>
      </trkpt>
      <trkpt lat="42.50973" lon="2.04543">
        <ele>1826.9</ele>
        <time>2026-01-19T14:02:18Z</time>
      </trkpt>
      <trkpt lat="42.50973" lon="2.04545">
        <ele>1827</ele>
        <time>2026-01-19T14:02:19Z</time>
      </trkpt>
      <trkpt lat="42.50973" lon="2.04546">
        <ele>1827</ele>
        <time>2026-01-19T14:02:20Z</time>
      </trkpt>
      <trkpt lat="42.50974" lon="2.04547">
        <ele>1827.1</ele>
        <time>2026-01-19T14:02:21Z</time>
      </trkpt>
      <trkpt lat="42.50974" lon="2.04548">
        <ele>1827.1</ele>
        <time>2026-01-19T14:02:22Z</time>
      </trkpt>
      <trkpt lat="42.50974" lon="2.0455">
        <ele>1827.2</ele>
        <time>2026-01-19T14:02:23Z</time>
      </trkpt>
      <trkpt lat="42.50975" lon="2.04551">
        <ele>1827.2</ele>
        <time>2026-01-19T14:02:24Z</time>
      </trkpt>
      <trkpt lat="42.50975" lon="2.04552">
        <ele>1827.2</ele>
        <time>2026-01-19T14:02:25Z</time>
      </trkpt>
      <trkpt lat="42.50975" lon="2.04553">
        <ele>1827.3</ele>
        <time>2026-01-19T14:02:26Z</time>
      </trkpt>
      <trkpt lat="42.50975" lon="2.04554">
        <ele>1827.3</ele>
        <time>2026-01-19T14:02:27Z</time>
      </trkpt>
      <trkpt lat="42.50976" lon="2.04555">
        <ele>1827.3</ele>
        <time>2026-01-19T14:02:28Z</time>
      </trkpt>
      <trkpt lat="42.50976" lon="2.04557">
        <ele>1827.4</ele>
        <time>2026-01-19T14:02:29Z</time>
      </trkpt>
      <trkpt lat="42.50977" lon="2.04558">
        <ele>1827.4</ele>
        <time>2026-01-19T14:02:30Z</time>
      </trkpt>
      <trkpt lat="42.50977" lon="2.04559">
        <ele>1827.5</ele>
        <time>2026-01-19T14:02:31Z</time>
      </trkpt>
      <trkpt lat="42.50978" lon="2.04561">
        <ele>1827.5</ele>
        <time>2026-01-19T14:02:32Z</time>
      </trkpt>
      <trkpt lat="42.50978" lon="2.04562">
        <ele>1827.6</ele>
        <time>2026-01-19T14:02:33Z</time>
      </trkpt>
      <trkpt lat="42.50979" lon="2.04563">
        <ele>1827.6</ele>
        <time>2026-01-19T14:02:34Z</time>
      </trkpt>
      <trkpt lat="42.50979" lon="2.04564">
        <ele>1827.6</ele>
        <time>2026-01-19T14:02:35Z</time>
      </trkpt>
      <trkpt lat="42.50979" lon="2.04565">
        <ele>1827.6</ele>
        <time>2026-01-19T14:02:36Z</time>
      </trkpt>
      <trkpt lat="42.50979" lon="2.04565">
        <ele>1827.6</ele>
        <time>2026-01-19T14:02:37Z</time>
      </trkpt>
      <trkpt lat="42.50979" lon="2.04564">
        <ele>1827.6</ele>
        <time>2026-01-19T14:02:38Z</time>
      </trkpt>
      <trkpt lat="42.5098" lon="2.04563">
        <ele>1827.7</ele>
        <time>2026-01-19T14:02:39Z</time>
      </trkpt>
      <trkpt lat="42.5098" lon="2.04562">
        <ele>1827.7</ele>
        <time>2026-01-19T14:02:40Z</time>
      </trkpt>
      <trkpt lat="42.5098" lon="2.04562">
        <ele>1827.7</ele>
        <time>2026-01-19T14:02:41Z</time>
      </trkpt>
      <trkpt lat="42.5098" lon="2.04562">
        <ele>1827.7</ele>
        <time>2026-01-19T14:02:42Z</time>
      </trkpt>
      <trkpt lat="42.5098" lon="2.04561">
        <ele>1827.7</ele>
        <time>2026-01-19T14:02:43Z</time>
      </trkpt>
      <trkpt lat="42.5098" lon="2.04561">
        <ele>1827.7</ele>
        <time>2026-01-19T14:02:44Z</time>
      </trkpt>
      <trkpt lat="42.5098" lon="2.04562">
        <ele>1827.7</ele>
        <time>2026-01-19T14:02:45Z</time>
      </trkpt>
      <trkpt lat="42.5098" lon="2.04562">
        <ele>1827.7</ele>
        <time>2026-01-19T14:02:46Z</time>
      </trkpt>
      <trkpt lat="42.5098" lon="2.04564">
        <ele>1827.7</ele>
        <time>2026-01-19T14:02:47Z</time>
      </trkpt>
      <trkpt lat="42.50981" lon="2.04565">
        <ele>1827.7</ele>
        <time>2026-01-19T14:02:48Z</time>
      </trkpt>
      <trkpt lat="42.50981" lon="2.04566">
        <ele>1827.8</ele>
        <time>2026-01-19T14:02:49Z</time>
      </trkpt>
      <trkpt lat="42.50983" lon="2.04568">
        <ele>1827.8</ele>
        <time>2026-01-19T14:02:50Z</time>
      </trkpt>
      <trkpt lat="42.50983" lon="2.04569">
        <ele>1827.8</ele>
        <time>2026-01-19T14:02:51Z</time>
      </trkpt>
      <trkpt lat="42.50984" lon="2.04572">
        <ele>1827.9</ele>
        <time>2026-01-19T14:02:52Z</time>
      </trkpt>
      <trkpt lat="42.50984" lon="2.04573">
        <ele>1827.9</ele>
        <time>2026-01-19T14:02:53Z</time>
      </trkpt>
      <trkpt lat="42.50985" lon="2.04574">
        <ele>1827.9</ele>
        <time>2026-01-19T14:02:54Z</time>
      </trkpt>
      <trkpt lat="42.50985" lon="2.04577">
        <ele>1827.8</ele>
        <time>2026-01-19T14:02:55Z</time>
      </trkpt>
      <trkpt lat="42.50985" lon="2.04578">
        <ele>1827.8</ele>
        <time>2026-01-19T14:02:56Z</time>
      </trkpt>
      <trkpt lat="42.50986" lon="2.04579">
        <ele>1827.7</ele>
        <time>2026-01-19T14:02:57Z</time>
      </trkpt>
      <trkpt lat="42.50986" lon="2.0458">
        <ele>1827.7</ele>
        <time>2026-01-19T14:02:58Z</time>
      </trkpt>
      <trkpt lat="42.50986" lon="2.04582">
        <ele>1827.6</ele>
        <time>2026-01-19T14:02:59Z</time>
      </trkpt>
      <trkpt lat="42.50987" lon="2.04583">
        <ele>1827.6</ele>
        <time>2026-01-19T14:03:00Z</time>
      </trkpt>
      <trkpt lat="42.50987" lon="2.04585">
        <ele>1827.5</ele>
        <time>2026-01-19T14:03:01Z</time>
      </trkpt>
      <trkpt lat="42.50988" lon="2.04586">
        <ele>1827.5</ele>
        <time>2026-01-19T14:03:02Z</time>
      </trkpt>
      <trkpt lat="42.50988" lon="2.04587">
        <ele>1827.5</ele>
        <time>2026-01-19T14:03:03Z</time>
      </trkpt>
      <trkpt lat="42.50989" lon="2.04588">
        <ele>1827.4</ele>
        <time>2026-01-19T14:03:04Z</time>
      </trkpt>
      <trkpt lat="42.5099" lon="2.04589">
        <ele>1827.4</ele>
        <time>2026-01-19T14:03:05Z</time>
      </trkpt>
      <trkpt lat="42.5099" lon="2.04591">
        <ele>1827.3</ele>
        <time>2026-01-19T14:03:06Z</time>
      </trkpt>
      <trkpt lat="42.50991" lon="2.04591">
        <ele>1827.3</ele>
        <time>2026-01-19T14:03:07Z</time>
      </trkpt>
      <trkpt lat="42.50992" lon="2.04593">
        <ele>1827.2</ele>
        <time>2026-01-19T14:03:08Z</time>
      </trkpt>
      <trkpt lat="42.50992" lon="2.04594">
        <ele>1827.2</ele>
        <time>2026-01-19T14:03:09Z</time>
      </trkpt>
      <trkpt lat="42.50992" lon="2.04597">
        <ele>1827.1</ele>
        <time>2026-01-19T14:03:10Z</time>
      </trkpt>
      <trkpt lat="42.50992" lon="2.04598">
        <ele>1827.1</ele>
        <time>2026-01-19T14:03:11Z</time>
      </trkpt>
      <trkpt lat="42.50992" lon="2.046">
        <ele>1827</ele>
        <time>2026-01-19T14:03:12Z</time>
      </trkpt>
      <trkpt lat="42.50992" lon="2.04601">
        <ele>1827</ele>
        <time>2026-01-19T14:03:13Z</time>
      </trkpt>
      <trkpt lat="42.50992" lon="2.04603">
        <ele>1826.9</ele>
        <time>2026-01-19T14:03:14Z</time>
      </trkpt>
      <trkpt lat="42.50992" lon="2.04606">
        <ele>1826.8</ele>
        <time>2026-01-19T14:03:15Z</time>
      </trkpt>
      <trkpt lat="42.50991" lon="2.04607">
        <ele>1826.7</ele>
        <time>2026-01-19T14:03:16Z</time>
      </trkpt>
      <trkpt lat="42.5099" lon="2.04608">
        <ele>1826.7</ele>
        <time>2026-01-19T14:03:17Z</time>
      </trkpt>
      <trkpt lat="42.5099" lon="2.04608">
        <ele>1826.7</ele>
        <time>2026-01-19T14:03:18Z</time>
      </trkpt>
      <trkpt lat="42.50989" lon="2.04608">
        <ele>1826.7</ele>
        <time>2026-01-19T14:03:19Z</time>
      </trkpt>
      <trkpt lat="42.5099" lon="2.04608">
        <ele>1826.7</ele>
        <time>2026-01-19T14:03:20Z</time>
      </trkpt>
      <trkpt lat="42.5099" lon="2.04608">
        <ele>1826.6</ele>
        <time>2026-01-19T14:03:21Z</time>
      </trkpt>
      <trkpt lat="42.5099" lon="2.04609">
        <ele>1826.6</ele>
        <time>2026-01-19T14:03:22Z</time>
      </trkpt>
      <trkpt lat="42.5099" lon="2.04609">
        <ele>1826.6</ele>
        <time>2026-01-19T14:03:23Z</time>
      </trkpt>
      <trkpt lat="42.5099" lon="2.04609">
        <ele>1826.6</ele>
        <time>2026-01-19T14:03:24Z</time>
      </trkpt>
      <trkpt lat="42.5099" lon="2.04609">
        <ele>1826.6</ele>
        <time>2026-01-19T14:03:25Z</time>
      </trkpt>
      <trkpt lat="42.5099" lon="2.04609">
        <ele>1826.6</ele>
        <time>2026-01-19T14:03:26Z</time>
      </trkpt>
      <trkpt lat="42.5099" lon="2.04609">
        <ele>1826.6</ele>
        <time>2026-01-19T14:03:27Z</time>
      </trkpt>
      <trkpt lat="42.5099" lon="2.04609">
        <ele>1826.6</ele>
        <time>2026-01-19T14:03:28Z</time>
      </trkpt>
      <trkpt lat="42.5099" lon="2.04609">
        <ele>1826.6</ele>
        <time>2026-01-19T14:03:29Z</time>
      </trkpt>
      <trkpt lat="42.50991" lon="2.04609">
        <ele>1826.6</ele>
        <time>2026-01-19T14:03:30Z</time>
      </trkpt>
      <trkpt lat="42.50991" lon="2.04609">
        <ele>1826.6</ele>
        <time>2026-01-19T14:03:31Z</time>
      </trkpt>
      <trkpt lat="42.50991" lon="2.04609">
        <ele>1826.6</ele>
        <time>2026-01-19T14:03:32Z</time>
      </trkpt>
      <trkpt lat="42.5099" lon="2.04609">
        <ele>1826.6</ele>
        <time>2026-01-19T14:03:33Z</time>
      </trkpt>
      <trkpt lat="42.50991" lon="2.04609">
        <ele>1826.6</ele>
        <time>2026-01-19T14:03:34Z</time>
      </trkpt>
      <trkpt lat="42.50991" lon="2.04609">
        <ele>1826.6</ele>
        <time>2026-01-19T14:03:35Z</time>
      </trkpt>
      <trkpt lat="42.50991" lon="2.04609">
        <ele>1826.6</ele>
        <time>2026-01-19T14:03:36Z</time>
      </trkpt>
      <trkpt lat="42.50991" lon="2.0461">
        <ele>1826.5</ele>
        <time>2026-01-19T14:03:37Z</time>
      </trkpt>
      <trkpt lat="42.50991" lon="2.04611">
        <ele>1826.5</ele>
        <time>2026-01-19T14:03:38Z</time>
      </trkpt>
      <trkpt lat="42.50991" lon="2.04612">
        <ele>1826.5</ele>
        <time>2026-01-19T14:03:39Z</time>
      </trkpt>
      <trkpt lat="42.50991" lon="2.04613">
        <ele>1826.4</ele>
        <time>2026-01-19T14:03:40Z</time>
      </trkpt>
      <trkpt lat="42.50993" lon="2.04615">
        <ele>1826.4</ele>
        <time>2026-01-19T14:03:41Z</time>
      </trkpt>
      <trkpt lat="42.50993" lon="2.04616">
        <ele>1826.3</ele>
        <time>2026-01-19T14:03:42Z</time>
      </trkpt>
      <trkpt lat="42.50994" lon="2.04617">
        <ele>1826.3</ele>
        <time>2026-01-19T14:03:43Z</time>
      </trkpt>
      <trkpt lat="42.50995" lon="2.04618">
        <ele>1826.2</ele>
        <time>2026-01-19T14:03:44Z</time>
      </trkpt>
      <trkpt lat="42.50995" lon="2.04619">
        <ele>1826.2</ele>
        <time>2026-01-19T14:03:45Z</time>
      </trkpt>
      <trkpt lat="42.50996" lon="2.04621">
        <ele>1826.1</ele>
        <time>2026-01-19T14:03:46Z</time>
      </trkpt>
      <trkpt lat="42.50996" lon="2.04622">
        <ele>1826.1</ele>
        <time>2026-01-19T14:03:47Z</time>
      </trkpt>
      <trkpt lat="42.50997" lon="2.04624">
        <ele>1826</ele>
        <time>2026-01-19T14:03:48Z</time>
      </trkpt>
      <trkpt lat="42.50996" lon="2.04625">
        <ele>1826</ele>
        <time>2026-01-19T14:03:49Z</time>
      </trkpt>
      <trkpt lat="42.50997" lon="2.04627">
        <ele>1825.9</ele>
        <time>2026-01-19T14:03:50Z</time>
      </trkpt>
      <trkpt lat="42.50997" lon="2.04628">
        <ele>1825.9</ele>
        <time>2026-01-19T14:03:51Z</time>
      </trkpt>
      <trkpt lat="42.50996" lon="2.0463">
        <ele>1825.8</ele>
        <time>2026-01-19T14:03:52Z</time>
      </trkpt>
      <trkpt lat="42.50996" lon="2.04632">
        <ele>1825.8</ele>
        <time>2026-01-19T14:03:53Z</time>
      </trkpt>
      <trkpt lat="42.50996" lon="2.04633">
        <ele>1825.7</ele>
        <time>2026-01-19T14:03:54Z</time>
      </trkpt>
      <trkpt lat="42.50996" lon="2.04634">
        <ele>1825.7</ele>
        <time>2026-01-19T14:03:55Z</time>
      </trkpt>
      <trkpt lat="42.50997" lon="2.04636">
        <ele>1825.7</ele>
        <time>2026-01-19T14:03:56Z</time>
      </trkpt>
      <trkpt lat="42.50997" lon="2.04637">
        <ele>1825.6</ele>
        <time>2026-01-19T14:03:57Z</time>
      </trkpt>
      <trkpt lat="42.50997" lon="2.04637">
        <ele>1825.6</ele>
        <time>2026-01-19T14:03:58Z</time>
      </trkpt>
      <trkpt lat="42.50998" lon="2.04639">
        <ele>1825.6</ele>
        <time>2026-01-19T14:03:59Z</time>
      </trkpt>
      <trkpt lat="42.50998" lon="2.0464">
        <ele>1825.6</ele>
        <time>2026-01-19T14:04:00Z</time>
      </trkpt>
      <trkpt lat="42.50999" lon="2.04641">
        <ele>1825.5</ele>
        <time>2026-01-19T14:04:01Z</time>
      </trkpt>
      <trkpt lat="42.51" lon="2.04642">
        <ele>1825.5</ele>
        <time>2026-01-19T14:04:02Z</time>
      </trkpt>
      <trkpt lat="42.51001" lon="2.04643">
        <ele>1825.5</ele>
        <time>2026-01-19T14:04:03Z</time>
      </trkpt>
      <trkpt lat="42.51001" lon="2.04645">
        <ele>1825.4</ele>
        <time>2026-01-19T14:04:04Z</time>
      </trkpt>
      <trkpt lat="42.51002" lon="2.04646">
        <ele>1825.4</ele>
        <time>2026-01-19T14:04:05Z</time>
      </trkpt>
      <trkpt lat="42.51003" lon="2.04648">
        <ele>1825.3</ele>
        <time>2026-01-19T14:04:06Z</time>
      </trkpt>
      <trkpt lat="42.51003" lon="2.04649">
        <ele>1825.3</ele>
        <time>2026-01-19T14:04:07Z</time>
      </trkpt>
      <trkpt lat="42.51004" lon="2.0465">
        <ele>1825.3</ele>
        <time>2026-01-19T14:04:08Z</time>
      </trkpt>
      <trkpt lat="42.51004" lon="2.04651">
        <ele>1825.3</ele>
        <time>2026-01-19T14:04:09Z</time>
      </trkpt>
      <trkpt lat="42.51005" lon="2.04652">
        <ele>1825.2</ele>
        <time>2026-01-19T14:04:10Z</time>
      </trkpt>
      <trkpt lat="42.51006" lon="2.04653">
        <ele>1825.2</ele>
        <time>2026-01-19T14:04:11Z</time>
      </trkpt>
      <trkpt lat="42.51008" lon="2.04654">
        <ele>1825.2</ele>
        <time>2026-01-19T14:04:12Z</time>
      </trkpt>
      <trkpt lat="42.51009" lon="2.04655">
        <ele>1825.2</ele>
        <time>2026-01-19T14:04:13Z</time>
      </trkpt>
      <trkpt lat="42.51011" lon="2.04655">
        <ele>1825.1</ele>
        <time>2026-01-19T14:04:14Z</time>
      </trkpt>
      <trkpt lat="42.51012" lon="2.04655">
        <ele>1825.1</ele>
        <time>2026-01-19T14:04:15Z</time>
      </trkpt>
      <trkpt lat="42.51013" lon="2.04656">
        <ele>1825.1</ele>
        <time>2026-01-19T14:04:16Z</time>
      </trkpt>
      <trkpt lat="42.51015" lon="2.04656">
        <ele>1825</ele>
        <time>2026-01-19T14:04:17Z</time>
      </trkpt>
      <trkpt lat="42.51016" lon="2.04656">
        <ele>1825</ele>
        <time>2026-01-19T14:04:18Z</time>
      </trkpt>
      <trkpt lat="42.51017" lon="2.04656">
        <ele>1825</ele>
        <time>2026-01-19T14:04:19Z</time>
      </trkpt>
      <trkpt lat="42.51018" lon="2.04657">
        <ele>1825</ele>
        <time>2026-01-19T14:04:20Z</time>
      </trkpt>
      <trkpt lat="42.51019" lon="2.04657">
        <ele>1825</ele>
        <time>2026-01-19T14:04:21Z</time>
      </trkpt>
      <trkpt lat="42.5102" lon="2.04657">
        <ele>1825</ele>
        <time>2026-01-19T14:04:22Z</time>
      </trkpt>
      <trkpt lat="42.51022" lon="2.04657">
        <ele>1825</ele>
        <time>2026-01-19T14:04:23Z</time>
      </trkpt>
      <trkpt lat="42.51023" lon="2.04657">
        <ele>1825</ele>
        <time>2026-01-19T14:04:24Z</time>
      </trkpt>
      <trkpt lat="42.51024" lon="2.04657">
        <ele>1825</ele>
        <time>2026-01-19T14:04:25Z</time>
      </trkpt>
      <trkpt lat="42.51026" lon="2.04656">
        <ele>1824.9</ele>
        <time>2026-01-19T14:04:26Z</time>
      </trkpt>
      <trkpt lat="42.51027" lon="2.04656">
        <ele>1824.9</ele>
        <time>2026-01-19T14:04:27Z</time>
      </trkpt>
      <trkpt lat="42.51028" lon="2.04656">
        <ele>1824.9</ele>
        <time>2026-01-19T14:04:28Z</time>
      </trkpt>
      <trkpt lat="42.51029" lon="2.04655">
        <ele>1824.9</ele>
        <time>2026-01-19T14:04:29Z</time>
      </trkpt>
      <trkpt lat="42.5103" lon="2.04654">
        <ele>1825</ele>
        <time>2026-01-19T14:04:30Z</time>
      </trkpt>
      <trkpt lat="42.51031" lon="2.04653">
        <ele>1825</ele>
        <time>2026-01-19T14:04:31Z</time>
      </trkpt>
      <trkpt lat="42.51033" lon="2.04652">
        <ele>1825</ele>
        <time>2026-01-19T14:04:32Z</time>
      </trkpt>
      <trkpt lat="42.51034" lon="2.04651">
        <ele>1825</ele>
        <time>2026-01-19T14:04:33Z</time>
      </trkpt>
      <trkpt lat="42.51035" lon="2.04651">
        <ele>1825</ele>
        <time>2026-01-19T14:04:34Z</time>
      </trkpt>
      <trkpt lat="42.51037" lon="2.04649">
        <ele>1825</ele>
        <time>2026-01-19T14:04:35Z</time>
      </trkpt>
      <trkpt lat="42.51038" lon="2.04648">
        <ele>1825</ele>
        <time>2026-01-19T14:04:36Z</time>
      </trkpt>
      <trkpt lat="42.51038" lon="2.04648">
        <ele>1825</ele>
        <time>2026-01-19T14:04:37Z</time>
      </trkpt>
      <trkpt lat="42.51039" lon="2.04647">
        <ele>1825</ele>
        <time>2026-01-19T14:04:38Z</time>
      </trkpt>
      <trkpt lat="42.5104" lon="2.04646">
        <ele>1825</ele>
        <time>2026-01-19T14:04:39Z</time>
      </trkpt>
      <trkpt lat="42.5104" lon="2.04644">
        <ele>1825</ele>
        <time>2026-01-19T14:04:40Z</time>
      </trkpt>
      <trkpt lat="42.51041" lon="2.04643">
        <ele>1825.1</ele>
        <time>2026-01-19T14:04:41Z</time>
      </trkpt>
      <trkpt lat="42.51041" lon="2.04641">
        <ele>1825.1</ele>
        <time>2026-01-19T14:04:42Z</time>
      </trkpt>
      <trkpt lat="42.51042" lon="2.0464">
        <ele>1825.1</ele>
        <time>2026-01-19T14:04:43Z</time>
      </trkpt>
      <trkpt lat="42.51043" lon="2.04638">
        <ele>1825.1</ele>
        <time>2026-01-19T14:04:44Z</time>
      </trkpt>
      <trkpt lat="42.51044" lon="2.04637">
        <ele>1825.1</ele>
        <time>2026-01-19T14:04:45Z</time>
      </trkpt>
      <trkpt lat="42.51044" lon="2.04636">
        <ele>1825.1</ele>
        <time>2026-01-19T14:04:46Z</time>
      </trkpt>
      <trkpt lat="42.51045" lon="2.04634">
        <ele>1825.2</ele>
        <time>2026-01-19T14:04:47Z</time>
      </trkpt>
      <trkpt lat="42.51046" lon="2.04632">
        <ele>1825.2</ele>
        <time>2026-01-19T14:04:49Z</time>
      </trkpt>
      <trkpt lat="42.51047" lon="2.04631">
        <ele>1825.2</ele>
        <time>2026-01-19T14:04:50Z</time>
      </trkpt>
      <trkpt lat="42.51048" lon="2.04629">
        <ele>1825.2</ele>
        <time>2026-01-19T14:04:51Z</time>
      </trkpt>
      <trkpt lat="42.51049" lon="2.04628">
        <ele>1825.3</ele>
        <time>2026-01-19T14:04:52Z</time>
      </trkpt>
      <trkpt lat="42.5105" lon="2.04627">
        <ele>1825.3</ele>
        <time>2026-01-19T14:04:53Z</time>
      </trkpt>
      <trkpt lat="42.51052" lon="2.04625">
        <ele>1825.3</ele>
        <time>2026-01-19T14:04:54Z</time>
      </trkpt>
      <trkpt lat="42.51053" lon="2.04624">
        <ele>1825.3</ele>
        <time>2026-01-19T14:04:55Z</time>
      </trkpt>
      <trkpt lat="42.51053" lon="2.04623">
        <ele>1825.3</ele>
        <time>2026-01-19T14:04:56Z</time>
      </trkpt>
      <trkpt lat="42.51054" lon="2.04622">
        <ele>1825.3</ele>
        <time>2026-01-19T14:04:57Z</time>
      </trkpt>
      <trkpt lat="42.51055" lon="2.04621">
        <ele>1825.4</ele>
        <time>2026-01-19T14:04:58Z</time>
      </trkpt>
      <trkpt lat="42.51055" lon="2.04619">
        <ele>1825.4</ele>
        <time>2026-01-19T14:04:59Z</time>
      </trkpt>
      <trkpt lat="42.51056" lon="2.04618">
        <ele>1825.4</ele>
        <time>2026-01-19T14:05:00Z</time>
      </trkpt>
      <trkpt lat="42.51057" lon="2.04617">
        <ele>1825.4</ele>
        <time>2026-01-19T14:05:01Z</time>
      </trkpt>
      <trkpt lat="42.51057" lon="2.04616">
        <ele>1825.4</ele>
        <time>2026-01-19T14:05:02Z</time>
      </trkpt>
      <trkpt lat="42.51058" lon="2.04614">
        <ele>1825.4</ele>
        <time>2026-01-19T14:05:03Z</time>
      </trkpt>
      <trkpt lat="42.51058" lon="2.04613">
        <ele>1825.4</ele>
        <time>2026-01-19T14:05:04Z</time>
      </trkpt>
      <trkpt lat="42.51059" lon="2.04611">
        <ele>1825.4</ele>
        <time>2026-01-19T14:05:05Z</time>
      </trkpt>
      <trkpt lat="42.51059" lon="2.0461">
        <ele>1825.4</ele>
        <time>2026-01-19T14:05:06Z</time>
      </trkpt>
      <trkpt lat="42.5106" lon="2.04609">
        <ele>1825.4</ele>
        <time>2026-01-19T14:05:07Z</time>
      </trkpt>
      <trkpt lat="42.51061" lon="2.04608">
        <ele>1825.5</ele>
        <time>2026-01-19T14:05:08Z</time>
      </trkpt>
      <trkpt lat="42.51061" lon="2.04607">
        <ele>1825.5</ele>
        <time>2026-01-19T14:05:09Z</time>
      </trkpt>
      <trkpt lat="42.51061" lon="2.04605">
        <ele>1825.5</ele>
        <time>2026-01-19T14:05:10Z</time>
      </trkpt>
      <trkpt lat="42.51061" lon="2.04604">
        <ele>1825.5</ele>
        <time>2026-01-19T14:05:11Z</time>
      </trkpt>
      <trkpt lat="42.51061" lon="2.04603">
        <ele>1825.5</ele>
        <time>2026-01-19T14:05:12Z</time>
      </trkpt>
      <trkpt lat="42.51061" lon="2.04602">
        <ele>1825.5</ele>
        <time>2026-01-19T14:05:13Z</time>
      </trkpt>
      <trkpt lat="42.51061" lon="2.046">
        <ele>1825.5</ele>
        <time>2026-01-19T14:05:14Z</time>
      </trkpt>
      <trkpt lat="42.51062" lon="2.04599">
        <ele>1825.5</ele>
        <time>2026-01-19T14:05:15Z</time>
      </trkpt>
      <trkpt lat="42.51062" lon="2.04598">
        <ele>1825.5</ele>
        <time>2026-01-19T14:05:16Z</time>
      </trkpt>
      <trkpt lat="42.51062" lon="2.04597">
        <ele>1825.5</ele>
        <time>2026-01-19T14:05:17Z</time>
      </trkpt>
      <trkpt lat="42.51063" lon="2.04596">
        <ele>1825.5</ele>
        <time>2026-01-19T14:05:18Z</time>
      </trkpt>
      <trkpt lat="42.51063" lon="2.04595">
        <ele>1825.5</ele>
        <time>2026-01-19T14:05:19Z</time>
      </trkpt>
      <trkpt lat="42.51064" lon="2.04594">
        <ele>1825.5</ele>
        <time>2026-01-19T14:05:20Z</time>
      </trkpt>
      <trkpt lat="42.51065" lon="2.04593">
        <ele>1825.5</ele>
        <time>2026-01-19T14:05:21Z</time>
      </trkpt>
      <trkpt lat="42.51067" lon="2.04592">
        <ele>1825.5</ele>
        <time>2026-01-19T14:05:22Z</time>
      </trkpt>
      <trkpt lat="42.51068" lon="2.04592">
        <ele>1825.5</ele>
        <time>2026-01-19T14:05:23Z</time>
      </trkpt>
      <trkpt lat="42.51069" lon="2.04591">
        <ele>1825.5</ele>
        <time>2026-01-19T14:05:24Z</time>
      </trkpt>
      <trkpt lat="42.51071" lon="2.04592">
        <ele>1825.5</ele>
        <time>2026-01-19T14:05:25Z</time>
      </trkpt>
      <trkpt lat="42.51073" lon="2.04592">
        <ele>1825.5</ele>
        <time>2026-01-19T14:05:26Z</time>
      </trkpt>
      <trkpt lat="42.51074" lon="2.04592">
        <ele>1825.4</ele>
        <time>2026-01-19T14:05:27Z</time>
      </trkpt>
      <trkpt lat="42.51076" lon="2.04593">
        <ele>1825.4</ele>
        <time>2026-01-19T14:05:28Z</time>
      </trkpt>
      <trkpt lat="42.51078" lon="2.04595">
        <ele>1825.4</ele>
        <time>2026-01-19T14:05:29Z</time>
      </trkpt>
      <trkpt lat="42.51079" lon="2.04596">
        <ele>1825.3</ele>
        <time>2026-01-19T14:05:30Z</time>
      </trkpt>
      <trkpt lat="42.5108" lon="2.04598">
        <ele>1825.3</ele>
        <time>2026-01-19T14:05:31Z</time>
      </trkpt>
      <trkpt lat="42.51082" lon="2.04599">
        <ele>1825.2</ele>
        <time>2026-01-19T14:05:32Z</time>
      </trkpt>
      <trkpt lat="42.51083" lon="2.046">
        <ele>1825.2</ele>
        <time>2026-01-19T14:05:33Z</time>
      </trkpt>
      <trkpt lat="42.51084" lon="2.04601">
        <ele>1825.2</ele>
        <time>2026-01-19T14:05:34Z</time>
      </trkpt>
      <trkpt lat="42.51087" lon="2.04602">
        <ele>1825.1</ele>
        <time>2026-01-19T14:05:35Z</time>
      </trkpt>
      <trkpt lat="42.51088" lon="2.04602">
        <ele>1825.1</ele>
        <time>2026-01-19T14:05:36Z</time>
      </trkpt>
      <trkpt lat="42.51091" lon="2.04602">
        <ele>1825</ele>
        <time>2026-01-19T14:05:37Z</time>
      </trkpt>
      <trkpt lat="42.51092" lon="2.04602">
        <ele>1825</ele>
        <time>2026-01-19T14:05:38Z</time>
      </trkpt>
      <trkpt lat="42.51093" lon="2.04603">
        <ele>1825</ele>
        <time>2026-01-19T14:05:39Z</time>
      </trkpt>
      <trkpt lat="42.51095" lon="2.04602">
        <ele>1824.9</ele>
        <time>2026-01-19T14:05:40Z</time>
      </trkpt>
      <trkpt lat="42.51097" lon="2.04601">
        <ele>1824.9</ele>
        <time>2026-01-19T14:05:41Z</time>
      </trkpt>
      <trkpt lat="42.51098" lon="2.04601">
        <ele>1824.9</ele>
        <time>2026-01-19T14:05:42Z</time>
      </trkpt>
      <trkpt lat="42.51099" lon="2.046">
        <ele>1824.9</ele>
        <time>2026-01-19T14:05:43Z</time>
      </trkpt>
      <trkpt lat="42.51101" lon="2.04599">
        <ele>1824.8</ele>
        <time>2026-01-19T14:05:44Z</time>
      </trkpt>
      <trkpt lat="42.51101" lon="2.04599">
        <ele>1824.8</ele>
        <time>2026-01-19T14:05:45Z</time>
      </trkpt>
      <trkpt lat="42.51102" lon="2.04599">
        <ele>1824.8</ele>
        <time>2026-01-19T14:05:46Z</time>
      </trkpt>
      <trkpt lat="42.51104" lon="2.04598">
        <ele>1824.8</ele>
        <time>2026-01-19T14:05:47Z</time>
      </trkpt>
      <trkpt lat="42.51105" lon="2.04598">
        <ele>1824.8</ele>
        <time>2026-01-19T14:05:48Z</time>
      </trkpt>
      <trkpt lat="42.51106" lon="2.04598">
        <ele>1824.7</ele>
        <time>2026-01-19T14:05:49Z</time>
      </trkpt>
      <trkpt lat="42.51107" lon="2.04598">
        <ele>1824.7</ele>
        <time>2026-01-19T14:05:50Z</time>
      </trkpt>
      <trkpt lat="42.51108" lon="2.04598">
        <ele>1824.7</ele>
        <time>2026-01-19T14:05:51Z</time>
      </trkpt>
      <trkpt lat="42.51109" lon="2.04598">
        <ele>1824.7</ele>
        <time>2026-01-19T14:05:52Z</time>
      </trkpt>
      <trkpt lat="42.5111" lon="2.04598">
        <ele>1824.7</ele>
        <time>2026-01-19T14:05:53Z</time>
      </trkpt>
      <trkpt lat="42.51111" lon="2.04599">
        <ele>1824.7</ele>
        <time>2026-01-19T14:05:54Z</time>
      </trkpt>
      <trkpt lat="42.51112" lon="2.04598">
        <ele>1824.7</ele>
        <time>2026-01-19T14:05:55Z</time>
      </trkpt>
      <trkpt lat="42.51114" lon="2.04599">
        <ele>1824.6</ele>
        <time>2026-01-19T14:05:56Z</time>
      </trkpt>
      <trkpt lat="42.51115" lon="2.04599">
        <ele>1824.6</ele>
        <time>2026-01-19T14:05:57Z</time>
      </trkpt>
      <trkpt lat="42.51116" lon="2.046">
        <ele>1824.6</ele>
        <time>2026-01-19T14:05:58Z</time>
      </trkpt>
      <trkpt lat="42.51118" lon="2.046">
        <ele>1824.6</ele>
        <time>2026-01-19T14:05:59Z</time>
      </trkpt>
      <trkpt lat="42.51119" lon="2.046">
        <ele>1824.5</ele>
        <time>2026-01-19T14:06:00Z</time>
      </trkpt>
      <trkpt lat="42.5112" lon="2.046">
        <ele>1824.5</ele>
        <time>2026-01-19T14:06:01Z</time>
      </trkpt>
      <trkpt lat="42.51122" lon="2.046">
        <ele>1824.5</ele>
        <time>2026-01-19T14:06:02Z</time>
      </trkpt>
      <trkpt lat="42.51123" lon="2.04601">
        <ele>1824.5</ele>
        <time>2026-01-19T14:06:03Z</time>
      </trkpt>
      <trkpt lat="42.51124" lon="2.04601">
        <ele>1824.5</ele>
        <time>2026-01-19T14:06:04Z</time>
      </trkpt>
      <trkpt lat="42.51125" lon="2.04601">
        <ele>1824.4</ele>
        <time>2026-01-19T14:06:05Z</time>
      </trkpt>
      <trkpt lat="42.51126" lon="2.04601">
        <ele>1824.4</ele>
        <time>2026-01-19T14:06:06Z</time>
      </trkpt>
      <trkpt lat="42.51128" lon="2.04602">
        <ele>1824.4</ele>
        <time>2026-01-19T14:06:07Z</time>
      </trkpt>
      <trkpt lat="42.51129" lon="2.04602">
        <ele>1824.4</ele>
        <time>2026-01-19T14:06:08Z</time>
      </trkpt>
      <trkpt lat="42.51131" lon="2.04603">
        <ele>1824.3</ele>
        <time>2026-01-19T14:06:09Z</time>
      </trkpt>
      <trkpt lat="42.51132" lon="2.04603">
        <ele>1824.3</ele>
        <time>2026-01-19T14:06:10Z</time>
      </trkpt>
      <trkpt lat="42.51134" lon="2.04604">
        <ele>1824.3</ele>
        <time>2026-01-19T14:06:11Z</time>
      </trkpt>
      <trkpt lat="42.51135" lon="2.04604">
        <ele>1824.3</ele>
        <time>2026-01-19T14:06:12Z</time>
      </trkpt>
      <trkpt lat="42.51136" lon="2.04604">
        <ele>1824.3</ele>
        <time>2026-01-19T14:06:13Z</time>
      </trkpt>
      <trkpt lat="42.51138" lon="2.04605">
        <ele>1824.3</ele>
        <time>2026-01-19T14:06:14Z</time>
      </trkpt>
      <trkpt lat="42.5114" lon="2.04605">
        <ele>1824.2</ele>
        <time>2026-01-19T14:06:15Z</time>
      </trkpt>
      <trkpt lat="42.51141" lon="2.04605">
        <ele>1824.2</ele>
        <time>2026-01-19T14:06:16Z</time>
      </trkpt>
      <trkpt lat="42.51142" lon="2.04605">
        <ele>1824.2</ele>
        <time>2026-01-19T14:06:17Z</time>
      </trkpt>
      <trkpt lat="42.51143" lon="2.04605">
        <ele>1824.2</ele>
        <time>2026-01-19T14:06:18Z</time>
      </trkpt>
      <trkpt lat="42.51145" lon="2.04605">
        <ele>1824.2</ele>
        <time>2026-01-19T14:06:19Z</time>
      </trkpt>
      <trkpt lat="42.51147" lon="2.04606">
        <ele>1824.2</ele>
        <time>2026-01-19T14:06:20Z</time>
      </trkpt>
      <trkpt lat="42.51148" lon="2.04605">
        <ele>1824.2</ele>
        <time>2026-01-19T14:06:21Z</time>
      </trkpt>
      <trkpt lat="42.51149" lon="2.04605">
        <ele>1824.2</ele>
        <time>2026-01-19T14:06:22Z</time>
      </trkpt>
      <trkpt lat="42.5115" lon="2.04605">
        <ele>1824.2</ele>
        <time>2026-01-19T14:06:23Z</time>
      </trkpt>
      <trkpt lat="42.51151" lon="2.04604">
        <ele>1824.2</ele>
        <time>2026-01-19T14:06:24Z</time>
      </trkpt>
      <trkpt lat="42.51153" lon="2.04603">
        <ele>1824.2</ele>
        <time>2026-01-19T14:06:25Z</time>
      </trkpt>
      <trkpt lat="42.51154" lon="2.04602">
        <ele>1824.3</ele>
        <time>2026-01-19T14:06:26Z</time>
      </trkpt>
      <trkpt lat="42.51155" lon="2.04602">
        <ele>1824.3</ele>
        <time>2026-01-19T14:06:27Z</time>
      </trkpt>
      <trkpt lat="42.51157" lon="2.04601">
        <ele>1824.3</ele>
        <time>2026-01-19T14:06:28Z</time>
      </trkpt>
      <trkpt lat="42.51159" lon="2.046">
        <ele>1824.3</ele>
        <time>2026-01-19T14:06:29Z</time>
      </trkpt>
      <trkpt lat="42.51159" lon="2.046">
        <ele>1824.4</ele>
        <time>2026-01-19T14:06:30Z</time>
      </trkpt>
      <trkpt lat="42.5116" lon="2.04599">
        <ele>1824.4</ele>
        <time>2026-01-19T14:06:31Z</time>
      </trkpt>
      <trkpt lat="42.51162" lon="2.04598">
        <ele>1824.4</ele>
        <time>2026-01-19T14:06:32Z</time>
      </trkpt>
      <trkpt lat="42.51163" lon="2.04598">
        <ele>1824.4</ele>
        <time>2026-01-19T14:06:33Z</time>
      </trkpt>
      <trkpt lat="42.51164" lon="2.04598">
        <ele>1824.4</ele>
        <time>2026-01-19T14:06:34Z</time>
      </trkpt>
      <trkpt lat="42.51165" lon="2.04597">
        <ele>1824.5</ele>
        <time>2026-01-19T14:06:35Z</time>
      </trkpt>
      <trkpt lat="42.51166" lon="2.04596">
        <ele>1824.5</ele>
        <time>2026-01-19T14:06:36Z</time>
      </trkpt>
      <trkpt lat="42.51167" lon="2.04596">
        <ele>1824.5</ele>
        <time>2026-01-19T14:06:37Z</time>
      </trkpt>
      <trkpt lat="42.51169" lon="2.04594">
        <ele>1824.5</ele>
        <time>2026-01-19T14:06:38Z</time>
      </trkpt>
      <trkpt lat="42.51169" lon="2.04594">
        <ele>1824.6</ele>
        <time>2026-01-19T14:06:39Z</time>
      </trkpt>
      <trkpt lat="42.5117" lon="2.04593">
        <ele>1824.6</ele>
        <time>2026-01-19T14:06:40Z</time>
      </trkpt>
      <trkpt lat="42.51171" lon="2.04591">
        <ele>1824.6</ele>
        <time>2026-01-19T14:06:41Z</time>
      </trkpt>
      <trkpt lat="42.51172" lon="2.0459">
        <ele>1824.6</ele>
        <time>2026-01-19T14:06:42Z</time>
      </trkpt>
      <trkpt lat="42.51173" lon="2.04589">
        <ele>1824.6</ele>
        <time>2026-01-19T14:06:43Z</time>
      </trkpt>
      <trkpt lat="42.51173" lon="2.04588">
        <ele>1824.6</ele>
        <time>2026-01-19T14:06:44Z</time>
      </trkpt>
      <trkpt lat="42.51174" lon="2.04586">
        <ele>1824.6</ele>
        <time>2026-01-19T14:06:45Z</time>
      </trkpt>
      <trkpt lat="42.51174" lon="2.04585">
        <ele>1824.6</ele>
        <time>2026-01-19T14:06:46Z</time>
      </trkpt>
      <trkpt lat="42.51175" lon="2.04582">
        <ele>1824.6</ele>
        <time>2026-01-19T14:06:47Z</time>
      </trkpt>
      <trkpt lat="42.51176" lon="2.04581">
        <ele>1824.6</ele>
        <time>2026-01-19T14:06:48Z</time>
      </trkpt>
      <trkpt lat="42.51176" lon="2.0458">
        <ele>1824.6</ele>
        <time>2026-01-19T14:06:49Z</time>
      </trkpt>
      <trkpt lat="42.51177" lon="2.04579">
        <ele>1824.5</ele>
        <time>2026-01-19T14:06:50Z</time>
      </trkpt>
      <trkpt lat="42.51178" lon="2.04578">
        <ele>1824.5</ele>
        <time>2026-01-19T14:06:51Z</time>
      </trkpt>
      <trkpt lat="42.51179" lon="2.04578">
        <ele>1824.5</ele>
        <time>2026-01-19T14:06:52Z</time>
      </trkpt>
      <trkpt lat="42.51179" lon="2.04578">
        <ele>1824.5</ele>
        <time>2026-01-19T14:06:53Z</time>
      </trkpt>
      <trkpt lat="42.5118" lon="2.04576">
        <ele>1824.4</ele>
        <time>2026-01-19T14:06:54Z</time>
      </trkpt>
      <trkpt lat="42.5118" lon="2.04575">
        <ele>1824.4</ele>
        <time>2026-01-19T14:06:55Z</time>
      </trkpt>
      <trkpt lat="42.51181" lon="2.04574">
        <ele>1824.4</ele>
        <time>2026-01-19T14:06:56Z</time>
      </trkpt>
      <trkpt lat="42.51182" lon="2.04573">
        <ele>1824.3</ele>
        <time>2026-01-19T14:06:57Z</time>
      </trkpt>
      <trkpt lat="42.51183" lon="2.04572">
        <ele>1824.3</ele>
        <time>2026-01-19T14:06:58Z</time>
      </trkpt>
      <trkpt lat="42.51184" lon="2.04571">
        <ele>1824.2</ele>
        <time>2026-01-19T14:06:59Z</time>
      </trkpt>
      <trkpt lat="42.51185" lon="2.0457">
        <ele>1824.2</ele>
        <time>2026-01-19T14:07:00Z</time>
      </trkpt>
      <trkpt lat="42.51186" lon="2.04569">
        <ele>1824.1</ele>
        <time>2026-01-19T14:07:01Z</time>
      </trkpt>
      <trkpt lat="42.51187" lon="2.0457">
        <ele>1824.1</ele>
        <time>2026-01-19T14:07:02Z</time>
      </trkpt>
      <trkpt lat="42.51189" lon="2.0457">
        <ele>1824</ele>
        <time>2026-01-19T14:07:03Z</time>
      </trkpt>
      <trkpt lat="42.5119" lon="2.04571">
        <ele>1824</ele>
        <time>2026-01-19T14:07:04Z</time>
      </trkpt>
      <trkpt lat="42.51191" lon="2.0457">
        <ele>1823.9</ele>
        <time>2026-01-19T14:07:05Z</time>
      </trkpt>
      <trkpt lat="42.51192" lon="2.0457">
        <ele>1823.9</ele>
        <time>2026-01-19T14:07:06Z</time>
      </trkpt>
      <trkpt lat="42.51193" lon="2.0457">
        <ele>1823.9</ele>
        <time>2026-01-19T14:07:07Z</time>
      </trkpt>
      <trkpt lat="42.51194" lon="2.04569">
        <ele>1823.8</ele>
        <time>2026-01-19T14:07:08Z</time>
      </trkpt>
      <trkpt lat="42.51195" lon="2.04569">
        <ele>1823.8</ele>
        <time>2026-01-19T14:07:09Z</time>
      </trkpt>
      <trkpt lat="42.51195" lon="2.04568">
        <ele>1823.8</ele>
        <time>2026-01-19T14:07:10Z</time>
      </trkpt>
      <trkpt lat="42.51195" lon="2.04566">
        <ele>1823.7</ele>
        <time>2026-01-19T14:07:11Z</time>
      </trkpt>
      <trkpt lat="42.51195" lon="2.04565">
        <ele>1823.7</ele>
        <time>2026-01-19T14:07:12Z</time>
      </trkpt>
      <trkpt lat="42.51195" lon="2.04564">
        <ele>1823.7</ele>
        <time>2026-01-19T14:07:13Z</time>
      </trkpt>
      <trkpt lat="42.51196" lon="2.04565">
        <ele>1823.7</ele>
        <time>2026-01-19T14:07:14Z</time>
      </trkpt>
      <trkpt lat="42.51196" lon="2.04565">
        <ele>1823.7</ele>
        <time>2026-01-19T14:07:15Z</time>
      </trkpt>
      <trkpt lat="42.51196" lon="2.04565">
        <ele>1823.7</ele>
        <time>2026-01-19T14:07:16Z</time>
      </trkpt>
      <trkpt lat="42.51196" lon="2.04565">
        <ele>1823.7</ele>
        <time>2026-01-19T14:07:17Z</time>
      </trkpt>
      <trkpt lat="42.51196" lon="2.04565">
        <ele>1823.7</ele>
        <time>2026-01-19T14:07:18Z</time>
      </trkpt>
      <trkpt lat="42.51197" lon="2.04565">
        <ele>1823.7</ele>
        <time>2026-01-19T14:07:19Z</time>
      </trkpt>
      <trkpt lat="42.51197" lon="2.04566">
        <ele>1823.6</ele>
        <time>2026-01-19T14:07:20Z</time>
      </trkpt>
      <trkpt lat="42.51197" lon="2.04566">
        <ele>1823.6</ele>
        <time>2026-01-19T14:07:21Z</time>
      </trkpt>
      <trkpt lat="42.51196" lon="2.04567">
        <ele>1823.6</ele>
        <time>2026-01-19T14:07:22Z</time>
      </trkpt>
      <trkpt lat="42.51196" lon="2.04567">
        <ele>1823.6</ele>
        <time>2026-01-19T14:07:23Z</time>
      </trkpt>
      <trkpt lat="42.51196" lon="2.04568">
        <ele>1823.6</ele>
        <time>2026-01-19T14:07:24Z</time>
      </trkpt>
      <trkpt lat="42.51196" lon="2.04568">
        <ele>1823.6</ele>
        <time>2026-01-19T14:07:25Z</time>
      </trkpt>
      <trkpt lat="42.51196" lon="2.04568">
        <ele>1823.6</ele>
        <time>2026-01-19T14:07:26Z</time>
      </trkpt>
      <trkpt lat="42.51196" lon="2.04568">
        <ele>1823.6</ele>
        <time>2026-01-19T14:07:27Z</time>
      </trkpt>
      <trkpt lat="42.51196" lon="2.04569">
        <ele>1823.6</ele>
        <time>2026-01-19T14:07:28Z</time>
      </trkpt>
      <trkpt lat="42.51196" lon="2.04569">
        <ele>1823.6</ele>
        <time>2026-01-19T14:07:29Z</time>
      </trkpt>
      <trkpt lat="42.51196" lon="2.04569">
        <ele>1823.6</ele>
        <time>2026-01-19T14:07:30Z</time>
      </trkpt>
      <trkpt lat="42.51196" lon="2.04569">
        <ele>1823.6</ele>
        <time>2026-01-19T14:07:31Z</time>
      </trkpt>
      <trkpt lat="42.51196" lon="2.04569">
        <ele>1823.6</ele>
        <time>2026-01-19T14:07:32Z</time>
      </trkpt>
      <trkpt lat="42.51196" lon="2.0457">
        <ele>1823.6</ele>
        <time>2026-01-19T14:07:33Z</time>
      </trkpt>
      <trkpt lat="42.51196" lon="2.04571">
        <ele>1823.6</ele>
        <time>2026-01-19T14:07:34Z</time>
      </trkpt>
      <trkpt lat="42.51198" lon="2.04572">
        <ele>1823.6</ele>
        <time>2026-01-19T14:07:35Z</time>
      </trkpt>
      <trkpt lat="42.51198" lon="2.04572">
        <ele>1823.6</ele>
        <time>2026-01-19T14:07:36Z</time>
      </trkpt>
      <trkpt lat="42.51199" lon="2.04573">
        <ele>1823.6</ele>
        <time>2026-01-19T14:07:37Z</time>
      </trkpt>
      <trkpt lat="42.51199" lon="2.04573">
        <ele>1823.6</ele>
        <time>2026-01-19T14:07:38Z</time>
      </trkpt>
      <trkpt lat="42.512" lon="2.04574">
        <ele>1823.6</ele>
        <time>2026-01-19T14:07:39Z</time>
      </trkpt>
      <trkpt lat="42.51201" lon="2.04574">
        <ele>1823.6</ele>
        <time>2026-01-19T14:07:40Z</time>
      </trkpt>
      <trkpt lat="42.51201" lon="2.04575">
        <ele>1823.6</ele>
        <time>2026-01-19T14:07:41Z</time>
      </trkpt>
      <trkpt lat="42.51203" lon="2.04576">
        <ele>1823.6</ele>
        <time>2026-01-19T14:07:42Z</time>
      </trkpt>
      <trkpt lat="42.51203" lon="2.04576">
        <ele>1823.6</ele>
        <time>2026-01-19T14:07:43Z</time>
      </trkpt>
      <trkpt lat="42.51204" lon="2.04577">
        <ele>1823.6</ele>
        <time>2026-01-19T14:07:44Z</time>
      </trkpt>
      <trkpt lat="42.51205" lon="2.04577">
        <ele>1823.6</ele>
        <time>2026-01-19T14:07:45Z</time>
      </trkpt>
      <trkpt lat="42.51207" lon="2.04577">
        <ele>1823.6</ele>
        <time>2026-01-19T14:07:46Z</time>
      </trkpt>
      <trkpt lat="42.51207" lon="2.04576">
        <ele>1823.6</ele>
        <time>2026-01-19T14:07:47Z</time>
      </trkpt>
      <trkpt lat="42.51208" lon="2.04574">
        <ele>1823.7</ele>
        <time>2026-01-19T14:07:48Z</time>
      </trkpt>
      <trkpt lat="42.51208" lon="2.04573">
        <ele>1823.7</ele>
        <time>2026-01-19T14:07:49Z</time>
      </trkpt>
      <trkpt lat="42.51209" lon="2.04572">
        <ele>1823.8</ele>
        <time>2026-01-19T14:07:50Z</time>
      </trkpt>
      <trkpt lat="42.5121" lon="2.04571">
        <ele>1823.8</ele>
        <time>2026-01-19T14:07:51Z</time>
      </trkpt>
      <trkpt lat="42.51211" lon="2.0457">
        <ele>1823.9</ele>
        <time>2026-01-19T14:07:52Z</time>
      </trkpt>
      <trkpt lat="42.51212" lon="2.0457">
        <ele>1823.9</ele>
        <time>2026-01-19T14:07:53Z</time>
      </trkpt>
      <trkpt lat="42.51213" lon="2.04569">
        <ele>1824</ele>
        <time>2026-01-19T14:07:54Z</time>
      </trkpt>
      <trkpt lat="42.51213" lon="2.04568">
        <ele>1824</ele>
        <time>2026-01-19T14:07:55Z</time>
      </trkpt>
      <trkpt lat="42.51214" lon="2.04566">
        <ele>1824.1</ele>
        <time>2026-01-19T14:07:56Z</time>
      </trkpt>
      <trkpt lat="42.51215" lon="2.04565">
        <ele>1824.1</ele>
        <time>2026-01-19T14:07:57Z</time>
      </trkpt>
      <trkpt lat="42.51215" lon="2.04564">
        <ele>1824.2</ele>
        <time>2026-01-19T14:07:58Z</time>
      </trkpt>
      <trkpt lat="42.51216" lon="2.04563">
        <ele>1824.2</ele>
        <time>2026-01-19T14:07:59Z</time>
      </trkpt>
      <trkpt lat="42.51216" lon="2.04562">
        <ele>1824.3</ele>
        <time>2026-01-19T14:08:00Z</time>
      </trkpt>
      <trkpt lat="42.51217" lon="2.04561">
        <ele>1824.3</ele>
        <time>2026-01-19T14:08:01Z</time>
      </trkpt>
      <trkpt lat="42.51217" lon="2.0456">
        <ele>1824.3</ele>
        <time>2026-01-19T14:08:02Z</time>
      </trkpt>
      <trkpt lat="42.51218" lon="2.04559">
        <ele>1824.4</ele>
        <time>2026-01-19T14:08:03Z</time>
      </trkpt>
      <trkpt lat="42.51219" lon="2.04558">
        <ele>1824.4</ele>
        <time>2026-01-19T14:08:04Z</time>
      </trkpt>
      <trkpt lat="42.5122" lon="2.04557">
        <ele>1824.5</ele>
        <time>2026-01-19T14:08:05Z</time>
      </trkpt>
      <trkpt lat="42.51221" lon="2.04556">
        <ele>1824.5</ele>
        <time>2026-01-19T14:08:06Z</time>
      </trkpt>
      <trkpt lat="42.51222" lon="2.04556">
        <ele>1824.6</ele>
        <time>2026-01-19T14:08:07Z</time>
      </trkpt>
      <trkpt lat="42.51222" lon="2.04555">
        <ele>1824.6</ele>
        <time>2026-01-19T14:08:08Z</time>
      </trkpt>
      <trkpt lat="42.51223" lon="2.04555">
        <ele>1824.6</ele>
        <time>2026-01-19T14:08:09Z</time>
      </trkpt>
      <trkpt lat="42.51224" lon="2.04555">
        <ele>1824.7</ele>
        <time>2026-01-19T14:08:10Z</time>
      </trkpt>
      <trkpt lat="42.51225" lon="2.04554">
        <ele>1824.7</ele>
        <time>2026-01-19T14:08:11Z</time>
      </trkpt>
      <trkpt lat="42.51226" lon="2.04554">
        <ele>1824.7</ele>
        <time>2026-01-19T14:08:12Z</time>
      </trkpt>
      <trkpt lat="42.51226" lon="2.04553">
        <ele>1824.8</ele>
        <time>2026-01-19T14:08:13Z</time>
      </trkpt>
      <trkpt lat="42.51227" lon="2.04553">
        <ele>1824.8</ele>
        <time>2026-01-19T14:08:14Z</time>
      </trkpt>
      <trkpt lat="42.51227" lon="2.04552">
        <ele>1824.8</ele>
        <time>2026-01-19T14:08:15Z</time>
      </trkpt>
      <trkpt lat="42.51228" lon="2.04551">
        <ele>1824.9</ele>
        <time>2026-01-19T14:08:16Z</time>
      </trkpt>
      <trkpt lat="42.51229" lon="2.04551">
        <ele>1824.9</ele>
        <time>2026-01-19T14:08:17Z</time>
      </trkpt>
      <trkpt lat="42.5123" lon="2.0455">
        <ele>1824.9</ele>
        <time>2026-01-19T14:08:18Z</time>
      </trkpt>
      <trkpt lat="42.51231" lon="2.0455">
        <ele>1825</ele>
        <time>2026-01-19T14:08:19Z</time>
      </trkpt>
      <trkpt lat="42.51231" lon="2.0455">
        <ele>1825</ele>
        <time>2026-01-19T14:08:20Z</time>
      </trkpt>
      <trkpt lat="42.51232" lon="2.04551">
        <ele>1825</ele>
        <time>2026-01-19T14:08:21Z</time>
      </trkpt>
      <trkpt lat="42.51233" lon="2.04551">
        <ele>1825.1</ele>
        <time>2026-01-19T14:08:22Z</time>
      </trkpt>
      <trkpt lat="42.51234" lon="2.0455">
        <ele>1825.1</ele>
        <time>2026-01-19T14:08:23Z</time>
      </trkpt>
      <trkpt lat="42.51235" lon="2.0455">
        <ele>1825.2</ele>
        <time>2026-01-19T14:08:24Z</time>
      </trkpt>
      <trkpt lat="42.51235" lon="2.04549">
        <ele>1825.2</ele>
        <time>2026-01-19T14:08:25Z</time>
      </trkpt>
      <trkpt lat="42.51236" lon="2.04547">
        <ele>1825.2</ele>
        <time>2026-01-19T14:08:26Z</time>
      </trkpt>
      <trkpt lat="42.51237" lon="2.04546">
        <ele>1825.3</ele>
        <time>2026-01-19T14:08:27Z</time>
      </trkpt>
      <trkpt lat="42.51238" lon="2.04546">
        <ele>1825.3</ele>
        <time>2026-01-19T14:08:28Z</time>
      </trkpt>
      <trkpt lat="42.51239" lon="2.04546">
        <ele>1825.4</ele>
        <time>2026-01-19T14:08:29Z</time>
      </trkpt>
      <trkpt lat="42.5124" lon="2.04545">
        <ele>1825.4</ele>
        <time>2026-01-19T14:08:30Z</time>
      </trkpt>
      <trkpt lat="42.51241" lon="2.04545">
        <ele>1825.4</ele>
        <time>2026-01-19T14:08:31Z</time>
      </trkpt>
      <trkpt lat="42.51242" lon="2.04545">
        <ele>1825.5</ele>
        <time>2026-01-19T14:08:32Z</time>
      </trkpt>
      <trkpt lat="42.51242" lon="2.04544">
        <ele>1825.5</ele>
        <time>2026-01-19T14:08:33Z</time>
      </trkpt>
      <trkpt lat="42.51243" lon="2.04544">
        <ele>1825.5</ele>
        <time>2026-01-19T14:08:34Z</time>
      </trkpt>
      <trkpt lat="42.51244" lon="2.04543">
        <ele>1825.5</ele>
        <time>2026-01-19T14:08:35Z</time>
      </trkpt>
      <trkpt lat="42.51245" lon="2.04542">
        <ele>1825.6</ele>
        <time>2026-01-19T14:08:36Z</time>
      </trkpt>
      <trkpt lat="42.51246" lon="2.04542">
        <ele>1825.6</ele>
        <time>2026-01-19T14:08:37Z</time>
      </trkpt>
      <trkpt lat="42.51247" lon="2.04541">
        <ele>1825.6</ele>
        <time>2026-01-19T14:08:38Z</time>
      </trkpt>
      <trkpt lat="42.51248" lon="2.04541">
        <ele>1825.6</ele>
        <time>2026-01-19T14:08:39Z</time>
      </trkpt>
      <trkpt lat="42.51248" lon="2.0454">
        <ele>1825.6</ele>
        <time>2026-01-19T14:08:40Z</time>
      </trkpt>
      <trkpt lat="42.51249" lon="2.04539">
        <ele>1825.6</ele>
        <time>2026-01-19T14:08:41Z</time>
      </trkpt>
      <trkpt lat="42.5125" lon="2.04539">
        <ele>1825.6</ele>
        <time>2026-01-19T14:08:42Z</time>
      </trkpt>
      <trkpt lat="42.51251" lon="2.04539">
        <ele>1825.6</ele>
        <time>2026-01-19T14:08:43Z</time>
      </trkpt>
      <trkpt lat="42.51253" lon="2.04539">
        <ele>1825.6</ele>
        <time>2026-01-19T14:08:44Z</time>
      </trkpt>
      <trkpt lat="42.51254" lon="2.04539">
        <ele>1825.6</ele>
        <time>2026-01-19T14:08:45Z</time>
      </trkpt>
      <trkpt lat="42.51254" lon="2.04539">
        <ele>1825.6</ele>
        <time>2026-01-19T14:08:46Z</time>
      </trkpt>
      <trkpt lat="42.51255" lon="2.04539">
        <ele>1825.7</ele>
        <time>2026-01-19T14:08:47Z</time>
      </trkpt>
      <trkpt lat="42.51256" lon="2.04539">
        <ele>1825.7</ele>
        <time>2026-01-19T14:08:48Z</time>
      </trkpt>
      <trkpt lat="42.51258" lon="2.04539">
        <ele>1825.7</ele>
        <time>2026-01-19T14:08:49Z</time>
      </trkpt>
      <trkpt lat="42.51259" lon="2.04539">
        <ele>1825.7</ele>
        <time>2026-01-19T14:08:50Z</time>
      </trkpt>
      <trkpt lat="42.5126" lon="2.04538">
        <ele>1825.7</ele>
        <time>2026-01-19T14:08:51Z</time>
      </trkpt>
      <trkpt lat="42.51261" lon="2.04538">
        <ele>1825.7</ele>
        <time>2026-01-19T14:08:52Z</time>
      </trkpt>
      <trkpt lat="42.51262" lon="2.04537">
        <ele>1825.7</ele>
        <time>2026-01-19T14:08:53Z</time>
      </trkpt>
      <trkpt lat="42.51263" lon="2.04536">
        <ele>1825.7</ele>
        <time>2026-01-19T14:08:54Z</time>
      </trkpt>
      <trkpt lat="42.51264" lon="2.04537">
        <ele>1825.7</ele>
        <time>2026-01-19T14:08:55Z</time>
      </trkpt>
      <trkpt lat="42.51265" lon="2.04537">
        <ele>1825.7</ele>
        <time>2026-01-19T14:08:56Z</time>
      </trkpt>
      <trkpt lat="42.51266" lon="2.04537">
        <ele>1825.7</ele>
        <time>2026-01-19T14:08:57Z</time>
      </trkpt>
      <trkpt lat="42.51267" lon="2.04537">
        <ele>1825.8</ele>
        <time>2026-01-19T14:08:58Z</time>
      </trkpt>
      <trkpt lat="42.51268" lon="2.04537">
        <ele>1825.8</ele>
        <time>2026-01-19T14:08:59Z</time>
      </trkpt>
      <trkpt lat="42.51269" lon="2.04537">
        <ele>1825.8</ele>
        <time>2026-01-19T14:09:00Z</time>
      </trkpt>
      <trkpt lat="42.5127" lon="2.04538">
        <ele>1825.8</ele>
        <time>2026-01-19T14:09:01Z</time>
      </trkpt>
      <trkpt lat="42.51271" lon="2.04539">
        <ele>1825.8</ele>
        <time>2026-01-19T14:09:02Z</time>
      </trkpt>
      <trkpt lat="42.51272" lon="2.04539">
        <ele>1825.8</ele>
        <time>2026-01-19T14:09:03Z</time>
      </trkpt>
      <trkpt lat="42.51273" lon="2.04538">
        <ele>1825.8</ele>
        <time>2026-01-19T14:09:04Z</time>
      </trkpt>
      <trkpt lat="42.51273" lon="2.04538">
        <ele>1825.8</ele>
        <time>2026-01-19T14:09:05Z</time>
      </trkpt>
      <trkpt lat="42.51273" lon="2.04538">
        <ele>1825.8</ele>
        <time>2026-01-19T14:09:06Z</time>
      </trkpt>
      <trkpt lat="42.51272" lon="2.04538">
        <ele>1825.8</ele>
        <time>2026-01-19T14:09:07Z</time>
      </trkpt>
      <trkpt lat="42.51272" lon="2.04538">
        <ele>1825.8</ele>
        <time>2026-01-19T14:09:08Z</time>
      </trkpt>
      <trkpt lat="42.51272" lon="2.04538">
        <ele>1825.8</ele>
        <time>2026-01-19T14:09:09Z</time>
      </trkpt>
      <trkpt lat="42.51272" lon="2.04538">
        <ele>1825.8</ele>
        <time>2026-01-19T14:09:10Z</time>
      </trkpt>
      <trkpt lat="42.51271" lon="2.04538">
        <ele>1825.8</ele>
        <time>2026-01-19T14:09:11Z</time>
      </trkpt>
      <trkpt lat="42.51271" lon="2.04538">
        <ele>1825.8</ele>
        <time>2026-01-19T14:09:12Z</time>
      </trkpt>
      <trkpt lat="42.51271" lon="2.04538">
        <ele>1825.8</ele>
        <time>2026-01-19T14:09:13Z</time>
      </trkpt>
      <trkpt lat="42.5127" lon="2.04538">
        <ele>1825.8</ele>
        <time>2026-01-19T14:09:14Z</time>
      </trkpt>
      <trkpt lat="42.5127" lon="2.04538">
        <ele>1825.8</ele>
        <time>2026-01-19T14:09:15Z</time>
      </trkpt>
      <trkpt lat="42.5127" lon="2.04538">
        <ele>1825.8</ele>
        <time>2026-01-19T14:09:16Z</time>
      </trkpt>
      <trkpt lat="42.5127" lon="2.04538">
        <ele>1825.8</ele>
        <time>2026-01-19T14:09:17Z</time>
      </trkpt>
      <trkpt lat="42.51269" lon="2.04538">
        <ele>1825.8</ele>
        <time>2026-01-19T14:09:18Z</time>
      </trkpt>
      <trkpt lat="42.51269" lon="2.04538">
        <ele>1825.8</ele>
        <time>2026-01-19T14:09:19Z</time>
      </trkpt>
      <trkpt lat="42.51269" lon="2.04538">
        <ele>1825.8</ele>
        <time>2026-01-19T14:09:20Z</time>
      </trkpt>
      <trkpt lat="42.51268" lon="2.04537">
        <ele>1825.8</ele>
        <time>2026-01-19T14:09:21Z</time>
      </trkpt>
      <trkpt lat="42.51268" lon="2.04537">
        <ele>1825.8</ele>
        <time>2026-01-19T14:09:22Z</time>
      </trkpt>
      <trkpt lat="42.51267" lon="2.04537">
        <ele>1825.8</ele>
        <time>2026-01-19T14:09:23Z</time>
      </trkpt>
      <trkpt lat="42.51266" lon="2.04537">
        <ele>1825.9</ele>
        <time>2026-01-19T14:09:24Z</time>
      </trkpt>
      <trkpt lat="42.51265" lon="2.04537">
        <ele>1825.9</ele>
        <time>2026-01-19T14:09:26Z</time>
      </trkpt>
      <trkpt lat="42.51265" lon="2.04537">
        <ele>1825.9</ele>
        <time>2026-01-19T14:09:27Z</time>
      </trkpt>
      <trkpt lat="42.51265" lon="2.04537">
        <ele>1825.9</ele>
        <time>2026-01-19T14:09:28Z</time>
      </trkpt>
      <trkpt lat="42.51265" lon="2.04537">
        <ele>1825.9</ele>
        <time>2026-01-19T14:09:29Z</time>
      </trkpt>
      <trkpt lat="42.51265" lon="2.04537">
        <ele>1825.9</ele>
        <time>2026-01-19T14:09:30Z</time>
      </trkpt>
      <trkpt lat="42.51265" lon="2.04537">
        <ele>1825.9</ele>
        <time>2026-01-19T14:09:31Z</time>
      </trkpt>
      <trkpt lat="42.51265" lon="2.04537">
        <ele>1825.9</ele>
        <time>2026-01-19T14:09:32Z</time>
      </trkpt>
      <trkpt lat="42.51265" lon="2.04537">
        <ele>1825.9</ele>
        <time>2026-01-19T14:09:33Z</time>
      </trkpt>
      <trkpt lat="42.51265" lon="2.04537">
        <ele>1825.9</ele>
        <time>2026-01-19T14:09:34Z</time>
      </trkpt>
      <trkpt lat="42.51265" lon="2.04537">
        <ele>1825.9</ele>
        <time>2026-01-19T14:09:35Z</time>
      </trkpt>
      <trkpt lat="42.51265" lon="2.04537">
        <ele>1825.9</ele>
        <time>2026-01-19T14:09:36Z</time>
      </trkpt>
      <trkpt lat="42.51265" lon="2.04537">
        <ele>1825.9</ele>
        <time>2026-01-19T14:09:37Z</time>
      </trkpt>
      <trkpt lat="42.51265" lon="2.04537">
        <ele>1825.9</ele>
        <time>2026-01-19T14:09:38Z</time>
      </trkpt>
      <trkpt lat="42.51265" lon="2.04537">
        <ele>1825.9</ele>
        <time>2026-01-19T14:09:39Z</time>
      </trkpt>
      <trkpt lat="42.51265" lon="2.04537">
        <ele>1825.9</ele>
        <time>2026-01-19T14:09:40Z</time>
      </trkpt>
      <trkpt lat="42.51265" lon="2.04537">
        <ele>1825.9</ele>
        <time>2026-01-19T14:09:41Z</time>
      </trkpt>
      <trkpt lat="42.51265" lon="2.04537">
        <ele>1825.9</ele>
        <time>2026-01-19T14:09:42Z</time>
      </trkpt>
      <trkpt lat="42.51265" lon="2.04537">
        <ele>1825.9</ele>
        <time>2026-01-19T14:09:43Z</time>
      </trkpt>
      <trkpt lat="42.51265" lon="2.04537">
        <ele>1825.9</ele>
        <time>2026-01-19T14:09:44Z</time>
      </trkpt>
      <trkpt lat="42.51265" lon="2.04537">
        <ele>1825.9</ele>
        <time>2026-01-19T14:09:45Z</time>
      </trkpt>
      <trkpt lat="42.51266" lon="2.04537">
        <ele>1825.9</ele>
        <time>2026-01-19T14:09:46Z</time>
      </trkpt>
      <trkpt lat="42.51266" lon="2.04537">
        <ele>1825.9</ele>
        <time>2026-01-19T14:09:47Z</time>
      </trkpt>
      <trkpt lat="42.51266" lon="2.04538">
        <ele>1825.9</ele>
        <time>2026-01-19T14:09:48Z</time>
      </trkpt>
      <trkpt lat="42.51267" lon="2.04538">
        <ele>1825.9</ele>
        <time>2026-01-19T14:09:49Z</time>
      </trkpt>
      <trkpt lat="42.51267" lon="2.04539">
        <ele>1826</ele>
        <time>2026-01-19T14:09:50Z</time>
      </trkpt>
      <trkpt lat="42.51268" lon="2.04539">
        <ele>1826</ele>
        <time>2026-01-19T14:09:51Z</time>
      </trkpt>
      <trkpt lat="42.5127" lon="2.0454">
        <ele>1826.1</ele>
        <time>2026-01-19T14:09:53Z</time>
      </trkpt>
      <trkpt lat="42.51271" lon="2.04539">
        <ele>1826.1</ele>
        <time>2026-01-19T14:09:54Z</time>
      </trkpt>
      <trkpt lat="42.51272" lon="2.04539">
        <ele>1826.1</ele>
        <time>2026-01-19T14:09:55Z</time>
      </trkpt>
      <trkpt lat="42.51272" lon="2.04538">
        <ele>1826.2</ele>
        <time>2026-01-19T14:09:56Z</time>
      </trkpt>
      <trkpt lat="42.51273" lon="2.04537">
        <ele>1826.2</ele>
        <time>2026-01-19T14:09:57Z</time>
      </trkpt>
      <trkpt lat="42.51272" lon="2.04537">
        <ele>1826.2</ele>
        <time>2026-01-19T14:09:58Z</time>
      </trkpt>
      <trkpt lat="42.51271" lon="2.04536">
        <ele>1826.2</ele>
        <time>2026-01-19T14:09:59Z</time>
      </trkpt>
      <trkpt lat="42.5127" lon="2.04536">
        <ele>1826.3</ele>
        <time>2026-01-19T14:10:00Z</time>
      </trkpt>
      <trkpt lat="42.51269" lon="2.04536">
        <ele>1826.3</ele>
        <time>2026-01-19T14:10:01Z</time>
      </trkpt>
      <trkpt lat="42.51267" lon="2.04534">
        <ele>1826.4</ele>
        <time>2026-01-19T14:10:02Z</time>
      </trkpt>
      <trkpt lat="42.51266" lon="2.04534">
        <ele>1826.4</ele>
        <time>2026-01-19T14:10:03Z</time>
      </trkpt>
      <trkpt lat="42.51266" lon="2.04533">
        <ele>1826.5</ele>
        <time>2026-01-19T14:10:04Z</time>
      </trkpt>
      <trkpt lat="42.51265" lon="2.04532">
        <ele>1826.5</ele>
        <time>2026-01-19T14:10:05Z</time>
      </trkpt>
      <trkpt lat="42.51265" lon="2.04531">
        <ele>1826.5</ele>
        <time>2026-01-19T14:10:06Z</time>
      </trkpt>
      <trkpt lat="42.51265" lon="2.0453">
        <ele>1826.6</ele>
        <time>2026-01-19T14:10:07Z</time>
      </trkpt>
      <trkpt lat="42.51265" lon="2.04528">
        <ele>1826.6</ele>
        <time>2026-01-19T14:10:08Z</time>
      </trkpt>
      <trkpt lat="42.51265" lon="2.04527">
        <ele>1826.7</ele>
        <time>2026-01-19T14:10:09Z</time>
      </trkpt>
      <trkpt lat="42.51265" lon="2.04526">
        <ele>1826.7</ele>
        <time>2026-01-19T14:10:10Z</time>
      </trkpt>
      <trkpt lat="42.51265" lon="2.04526">
        <ele>1826.7</ele>
        <time>2026-01-19T14:10:11Z</time>
      </trkpt>
      <trkpt lat="42.51265" lon="2.04526">
        <ele>1826.7</ele>
        <time>2026-01-19T14:10:12Z</time>
      </trkpt>
      <trkpt lat="42.51263" lon="2.04525">
        <ele>1826.8</ele>
        <time>2026-01-19T14:10:13Z</time>
      </trkpt>
      <trkpt lat="42.51262" lon="2.04524">
        <ele>1826.8</ele>
        <time>2026-01-19T14:10:14Z</time>
      </trkpt>
      <trkpt lat="42.5126" lon="2.04523">
        <ele>1826.9</ele>
        <time>2026-01-19T14:10:15Z</time>
      </trkpt>
      <trkpt lat="42.51259" lon="2.04523">
        <ele>1827</ele>
        <time>2026-01-19T14:10:17Z</time>
      </trkpt>
      <trkpt lat="42.51261" lon="2.04524">
        <ele>1827.1</ele>
        <time>2026-01-19T14:10:18Z</time>
      </trkpt>
      <trkpt lat="42.51262" lon="2.04524">
        <ele>1827.1</ele>
        <time>2026-01-19T14:10:19Z</time>
      </trkpt>
      <trkpt lat="42.51262" lon="2.04525">
        <ele>1827.1</ele>
        <time>2026-01-19T14:10:20Z</time>
      </trkpt>
      <trkpt lat="42.51262" lon="2.04525">
        <ele>1827.1</ele>
        <time>2026-01-19T14:10:21Z</time>
      </trkpt>
      <trkpt lat="42.51262" lon="2.04526">
        <ele>1827.1</ele>
        <time>2026-01-19T14:10:22Z</time>
      </trkpt>
      <trkpt lat="42.51262" lon="2.04526">
        <ele>1827.2</ele>
        <time>2026-01-19T14:10:23Z</time>
      </trkpt>
      <trkpt lat="42.51262" lon="2.04527">
        <ele>1827.2</ele>
        <time>2026-01-19T14:10:24Z</time>
      </trkpt>
      <trkpt lat="42.51263" lon="2.04527">
        <ele>1827.2</ele>
        <time>2026-01-19T14:10:25Z</time>
      </trkpt>
      <trkpt lat="42.51263" lon="2.04527">
        <ele>1827.2</ele>
        <time>2026-01-19T14:10:26Z</time>
      </trkpt>
      <trkpt lat="42.51264" lon="2.04528">
        <ele>1827.3</ele>
        <time>2026-01-19T14:10:27Z</time>
      </trkpt>
      <trkpt lat="42.51264" lon="2.04528">
        <ele>1827.3</ele>
        <time>2026-01-19T14:10:28Z</time>
      </trkpt>
      <trkpt lat="42.51265" lon="2.04529">
        <ele>1827.3</ele>
        <time>2026-01-19T14:10:29Z</time>
      </trkpt>
      <trkpt lat="42.51265" lon="2.04529">
        <ele>1827.3</ele>
        <time>2026-01-19T14:10:30Z</time>
      </trkpt>
      <trkpt lat="42.51265" lon="2.04529">
        <ele>1827.3</ele>
        <time>2026-01-19T14:10:31Z</time>
      </trkpt>
      <trkpt lat="42.51265" lon="2.0453">
        <ele>1827.3</ele>
        <time>2026-01-19T14:10:32Z</time>
      </trkpt>
      <trkpt lat="42.51265" lon="2.0453">
        <ele>1827.3</ele>
        <time>2026-01-19T14:10:33Z</time>
      </trkpt>
      <trkpt lat="42.51265" lon="2.0453">
        <ele>1827.4</ele>
        <time>2026-01-19T14:10:34Z</time>
      </trkpt>
      <trkpt lat="42.51265" lon="2.0453">
        <ele>1827.4</ele>
        <time>2026-01-19T14:10:35Z</time>
      </trkpt>
      <trkpt lat="42.51265" lon="2.0453">
        <ele>1827.4</ele>
        <time>2026-01-19T14:10:36Z</time>
      </trkpt>
      <trkpt lat="42.51265" lon="2.0453">
        <ele>1827.4</ele>
        <time>2026-01-19T14:10:37Z</time>
      </trkpt>
      <trkpt lat="42.51265" lon="2.0453">
        <ele>1827.4</ele>
        <time>2026-01-19T14:10:38Z</time>
      </trkpt>
      <trkpt lat="42.51266" lon="2.0453">
        <ele>1827.4</ele>
        <time>2026-01-19T14:10:39Z</time>
      </trkpt>
      <trkpt lat="42.51266" lon="2.0453">
        <ele>1827.4</ele>
        <time>2026-01-19T14:10:40Z</time>
      </trkpt>
      <trkpt lat="42.51265" lon="2.0453">
        <ele>1827.4</ele>
        <time>2026-01-19T14:10:41Z</time>
      </trkpt>
      <trkpt lat="42.51265" lon="2.0453">
        <ele>1827.4</ele>
        <time>2026-01-19T14:10:42Z</time>
      </trkpt>
      <trkpt lat="42.51265" lon="2.0453">
        <ele>1827.4</ele>
        <time>2026-01-19T14:10:43Z</time>
      </trkpt>
      <trkpt lat="42.51265" lon="2.0453">
        <ele>1827.4</ele>
        <time>2026-01-19T14:10:44Z</time>
      </trkpt>
      <trkpt lat="42.51265" lon="2.0453">
        <ele>1827.4</ele>
        <time>2026-01-19T14:10:45Z</time>
      </trkpt>
      <trkpt lat="42.51265" lon="2.0453">
        <ele>1827.4</ele>
        <time>2026-01-19T14:10:46Z</time>
      </trkpt>
      <trkpt lat="42.51265" lon="2.0453">
        <ele>1827.4</ele>
        <time>2026-01-19T14:10:47Z</time>
      </trkpt>
      <trkpt lat="42.51265" lon="2.0453">
        <ele>1827.4</ele>
        <time>2026-01-19T14:10:48Z</time>
      </trkpt>
      <trkpt lat="42.51265" lon="2.0453">
        <ele>1827.4</ele>
        <time>2026-01-19T14:10:49Z</time>
      </trkpt>
      <trkpt lat="42.51265" lon="2.0453">
        <ele>1827.4</ele>
        <time>2026-01-19T14:10:50Z</time>
      </trkpt>
      <trkpt lat="42.51266" lon="2.0453">
        <ele>1827.4</ele>
        <time>2026-01-19T14:10:51Z</time>
      </trkpt>
      <trkpt lat="42.51266" lon="2.0453">
        <ele>1827.4</ele>
        <time>2026-01-19T14:10:52Z</time>
      </trkpt>
      <trkpt lat="42.51266" lon="2.0453">
        <ele>1827.4</ele>
        <time>2026-01-19T14:10:53Z</time>
      </trkpt>
      <trkpt lat="42.51267" lon="2.04529">
        <ele>1827.5</ele>
        <time>2026-01-19T14:10:54Z</time>
      </trkpt>
      <trkpt lat="42.51271" lon="2.04529">
        <ele>1827.7</ele>
        <time>2026-01-19T14:10:55Z</time>
      </trkpt>
      <trkpt lat="42.51272" lon="2.04529">
        <ele>1827.7</ele>
        <time>2026-01-19T14:10:56Z</time>
      </trkpt>
      <trkpt lat="42.51274" lon="2.04529">
        <ele>1827.8</ele>
        <time>2026-01-19T14:10:57Z</time>
      </trkpt>
      <trkpt lat="42.51274" lon="2.04529">
        <ele>1827.8</ele>
        <time>2026-01-19T14:10:58Z</time>
      </trkpt>
      <trkpt lat="42.51274" lon="2.04529">
        <ele>1827.9</ele>
        <time>2026-01-19T14:10:59Z</time>
      </trkpt>
      <trkpt lat="42.51274" lon="2.0453">
        <ele>1827.9</ele>
        <time>2026-01-19T14:11:00Z</time>
      </trkpt>
      <trkpt lat="42.51274" lon="2.0453">
        <ele>1827.9</ele>
        <time>2026-01-19T14:11:01Z</time>
      </trkpt>
      <trkpt lat="42.51274" lon="2.04531">
        <ele>1827.9</ele>
        <time>2026-01-19T14:11:02Z</time>
      </trkpt>
      <trkpt lat="42.51274" lon="2.04531">
        <ele>1827.9</ele>
        <time>2026-01-19T14:11:03Z</time>
      </trkpt>
      <trkpt lat="42.51273" lon="2.04532">
        <ele>1828</ele>
        <time>2026-01-19T14:11:04Z</time>
      </trkpt>
      <trkpt lat="42.51273" lon="2.04532">
        <ele>1828</ele>
        <time>2026-01-19T14:11:05Z</time>
      </trkpt>
      <trkpt lat="42.51273" lon="2.04532">
        <ele>1828</ele>
        <time>2026-01-19T14:11:06Z</time>
      </trkpt>
      <trkpt lat="42.51273" lon="2.04533">
        <ele>1828</ele>
        <time>2026-01-19T14:11:07Z</time>
      </trkpt>
      <trkpt lat="42.51273" lon="2.04533">
        <ele>1828</ele>
        <time>2026-01-19T14:11:08Z</time>
      </trkpt>
      <trkpt lat="42.51273" lon="2.04533">
        <ele>1828</ele>
        <time>2026-01-19T14:11:09Z</time>
      </trkpt>
      <trkpt lat="42.51273" lon="2.04533">
        <ele>1828</ele>
        <time>2026-01-19T14:11:10Z</time>
      </trkpt>
      <trkpt lat="42.51273" lon="2.04533">
        <ele>1828</ele>
        <time>2026-01-19T14:11:11Z</time>
      </trkpt>
      <trkpt lat="42.51273" lon="2.04533">
        <ele>1828</ele>
        <time>2026-01-19T14:11:12Z</time>
      </trkpt>
      <trkpt lat="42.51273" lon="2.04534">
        <ele>1828</ele>
        <time>2026-01-19T14:11:13Z</time>
      </trkpt>
      <trkpt lat="42.51272" lon="2.04534">
        <ele>1828</ele>
        <time>2026-01-19T14:11:14Z</time>
      </trkpt>
      <trkpt lat="42.51272" lon="2.04534">
        <ele>1828</ele>
        <time>2026-01-19T14:11:15Z</time>
      </trkpt>
      <trkpt lat="42.51272" lon="2.04534">
        <ele>1828.1</ele>
        <time>2026-01-19T14:11:16Z</time>
      </trkpt>
      <trkpt lat="42.51272" lon="2.04534">
        <ele>1828.1</ele>
        <time>2026-01-19T14:11:17Z</time>
      </trkpt>
      <trkpt lat="42.51272" lon="2.04534">
        <ele>1828.1</ele>
        <time>2026-01-19T14:11:18Z</time>
      </trkpt>
      <trkpt lat="42.51272" lon="2.04534">
        <ele>1828.1</ele>
        <time>2026-01-19T14:11:19Z</time>
      </trkpt>
      <trkpt lat="42.51272" lon="2.04534">
        <ele>1828.1</ele>
        <time>2026-01-19T14:11:20Z</time>
      </trkpt>
      <trkpt lat="42.51272" lon="2.04534">
        <ele>1828.1</ele>
        <time>2026-01-19T14:11:21Z</time>
      </trkpt>
      <trkpt lat="42.51272" lon="2.04533">
        <ele>1828.1</ele>
        <time>2026-01-19T14:11:22Z</time>
      </trkpt>
      <trkpt lat="42.51272" lon="2.04531">
        <ele>1828.2</ele>
        <time>2026-01-19T14:11:23Z</time>
      </trkpt>
      <trkpt lat="42.51273" lon="2.04529">
        <ele>1828.2</ele>
        <time>2026-01-19T14:11:24Z</time>
      </trkpt>
      <trkpt lat="42.51274" lon="2.04525">
        <ele>1828.4</ele>
        <time>2026-01-19T14:11:25Z</time>
      </trkpt>
      <trkpt lat="42.51274" lon="2.04524">
        <ele>1828.5</ele>
        <time>2026-01-19T14:11:26Z</time>
      </trkpt>
      <trkpt lat="42.51275" lon="2.04521">
        <ele>1828.6</ele>
        <time>2026-01-19T14:11:27Z</time>
      </trkpt>
      <trkpt lat="42.51275" lon="2.0452">
        <ele>1828.7</ele>
        <time>2026-01-19T14:11:28Z</time>
      </trkpt>
      <trkpt lat="42.51275" lon="2.04517">
        <ele>1828.8</ele>
        <time>2026-01-19T14:11:29Z</time>
      </trkpt>
      <trkpt lat="42.51275" lon="2.04516">
        <ele>1828.8</ele>
        <time>2026-01-19T14:11:30Z</time>
      </trkpt>
      <trkpt lat="42.51276" lon="2.04513">
        <ele>1829</ele>
        <time>2026-01-19T14:11:31Z</time>
      </trkpt>
      <trkpt lat="42.51277" lon="2.04513">
        <ele>1829</ele>
        <time>2026-01-19T14:11:32Z</time>
      </trkpt>
      <trkpt lat="42.51277" lon="2.04512">
        <ele>1829.1</ele>
        <time>2026-01-19T14:11:33Z</time>
      </trkpt>
      <trkpt lat="42.51277" lon="2.0451">
        <ele>1829.1</ele>
        <time>2026-01-19T14:11:34Z</time>
      </trkpt>
      <trkpt lat="42.51278" lon="2.04509">
        <ele>1829.2</ele>
        <time>2026-01-19T14:11:35Z</time>
      </trkpt>
      <trkpt lat="42.51278" lon="2.04509">
        <ele>1829.2</ele>
        <time>2026-01-19T14:11:36Z</time>
      </trkpt>
      <trkpt lat="42.51278" lon="2.04508">
        <ele>1829.2</ele>
        <time>2026-01-19T14:11:37Z</time>
      </trkpt>
      <trkpt lat="42.51279" lon="2.04508">
        <ele>1829.3</ele>
        <time>2026-01-19T14:11:38Z</time>
      </trkpt>
      <trkpt lat="42.51279" lon="2.04508">
        <ele>1829.3</ele>
        <time>2026-01-19T14:11:39Z</time>
      </trkpt>
      <trkpt lat="42.51279" lon="2.0451">
        <ele>1829.4</ele>
        <time>2026-01-19T14:11:40Z</time>
      </trkpt>
      <trkpt lat="42.51278" lon="2.04511">
        <ele>1829.5</ele>
        <time>2026-01-19T14:11:41Z</time>
      </trkpt>
      <trkpt lat="42.51278" lon="2.04511">
        <ele>1829.5</ele>
        <time>2026-01-19T14:11:42Z</time>
      </trkpt>
      <trkpt lat="42.51278" lon="2.04512">
        <ele>1829.5</ele>
        <time>2026-01-19T14:11:43Z</time>
      </trkpt>
      <trkpt lat="42.51278" lon="2.04512">
        <ele>1829.5</ele>
        <time>2026-01-19T14:11:44Z</time>
      </trkpt>
      <trkpt lat="42.51278" lon="2.04512">
        <ele>1829.5</ele>
        <time>2026-01-19T14:11:45Z</time>
      </trkpt>
      <trkpt lat="42.51278" lon="2.04511">
        <ele>1829.5</ele>
        <time>2026-01-19T14:11:46Z</time>
      </trkpt>
      <trkpt lat="42.51278" lon="2.04511">
        <ele>1829.6</ele>
        <time>2026-01-19T14:11:47Z</time>
      </trkpt>
      <trkpt lat="42.51279" lon="2.0451">
        <ele>1829.6</ele>
        <time>2026-01-19T14:11:48Z</time>
      </trkpt>
      <trkpt lat="42.51279" lon="2.04508">
        <ele>1829.7</ele>
        <time>2026-01-19T14:11:49Z</time>
      </trkpt>
      <trkpt lat="42.5128" lon="2.04507">
        <ele>1829.8</ele>
        <time>2026-01-19T14:11:50Z</time>
      </trkpt>
      <trkpt lat="42.51279" lon="2.04506">
        <ele>1829.8</ele>
        <time>2026-01-19T14:11:51Z</time>
      </trkpt>
      <trkpt lat="42.5128" lon="2.04505">
        <ele>1829.9</ele>
        <time>2026-01-19T14:11:52Z</time>
      </trkpt>
      <trkpt lat="42.5128" lon="2.04504">
        <ele>1829.9</ele>
        <time>2026-01-19T14:11:53Z</time>
      </trkpt>
      <trkpt lat="42.51281" lon="2.04504">
        <ele>1830</ele>
        <time>2026-01-19T14:11:54Z</time>
      </trkpt>
      <trkpt lat="42.51281" lon="2.04503">
        <ele>1830.1</ele>
        <time>2026-01-19T14:11:55Z</time>
      </trkpt>
      <trkpt lat="42.51281" lon="2.04501">
        <ele>1830.1</ele>
        <time>2026-01-19T14:11:56Z</time>
      </trkpt>
      <trkpt lat="42.51281" lon="2.045">
        <ele>1830.2</ele>
        <time>2026-01-19T14:11:57Z</time>
      </trkpt>
      <trkpt lat="42.51281" lon="2.04498">
        <ele>1830.3</ele>
        <time>2026-01-19T14:11:58Z</time>
      </trkpt>
      <trkpt lat="42.51281" lon="2.04497">
        <ele>1830.4</ele>
        <time>2026-01-19T14:11:59Z</time>
      </trkpt>
      <trkpt lat="42.51282" lon="2.04496">
        <ele>1830.4</ele>
        <time>2026-01-19T14:12:00Z</time>
      </trkpt>
      <trkpt lat="42.51282" lon="2.04495">
        <ele>1830.5</ele>
        <time>2026-01-19T14:12:01Z</time>
      </trkpt>
      <trkpt lat="42.51282" lon="2.04494">
        <ele>1830.6</ele>
        <time>2026-01-19T14:12:02Z</time>
      </trkpt>
      <trkpt lat="42.51282" lon="2.04493">
        <ele>1830.6</ele>
        <time>2026-01-19T14:12:03Z</time>
      </trkpt>
      <trkpt lat="42.51283" lon="2.04492">
        <ele>1830.7</ele>
        <time>2026-01-19T14:12:04Z</time>
      </trkpt>
      <trkpt lat="42.51283" lon="2.04491">
        <ele>1830.7</ele>
        <time>2026-01-19T14:12:05Z</time>
      </trkpt>
      <trkpt lat="42.51284" lon="2.0449">
        <ele>1830.8</ele>
        <time>2026-01-19T14:12:06Z</time>
      </trkpt>
      <trkpt lat="42.51284" lon="2.04489">
        <ele>1830.9</ele>
        <time>2026-01-19T14:12:07Z</time>
      </trkpt>
      <trkpt lat="42.51285" lon="2.04488">
        <ele>1830.9</ele>
        <time>2026-01-19T14:12:08Z</time>
      </trkpt>
      <trkpt lat="42.51285" lon="2.04487">
        <ele>1831</ele>
        <time>2026-01-19T14:12:09Z</time>
      </trkpt>
      <trkpt lat="42.51285" lon="2.04486">
        <ele>1831</ele>
        <time>2026-01-19T14:12:10Z</time>
      </trkpt>
      <trkpt lat="42.51286" lon="2.04485">
        <ele>1831.1</ele>
        <time>2026-01-19T14:12:11Z</time>
      </trkpt>
      <trkpt lat="42.51286" lon="2.04484">
        <ele>1831.2</ele>
        <time>2026-01-19T14:12:12Z</time>
      </trkpt>
      <trkpt lat="42.51286" lon="2.04483">
        <ele>1831.2</ele>
        <time>2026-01-19T14:12:13Z</time>
      </trkpt>
      <trkpt lat="42.51286" lon="2.04482">
        <ele>1831.3</ele>
        <time>2026-01-19T14:12:14Z</time>
      </trkpt>
      <trkpt lat="42.51285" lon="2.04481">
        <ele>1831.4</ele>
        <time>2026-01-19T14:12:15Z</time>
      </trkpt>
      <trkpt lat="42.51285" lon="2.0448">
        <ele>1831.4</ele>
        <time>2026-01-19T14:12:16Z</time>
      </trkpt>
      <trkpt lat="42.51285" lon="2.04478">
        <ele>1831.5</ele>
        <time>2026-01-19T14:12:17Z</time>
      </trkpt>
      <trkpt lat="42.51286" lon="2.04477">
        <ele>1831.6</ele>
        <time>2026-01-19T14:12:18Z</time>
      </trkpt>
      <trkpt lat="42.51285" lon="2.04475">
        <ele>1831.6</ele>
        <time>2026-01-19T14:12:19Z</time>
      </trkpt>
      <trkpt lat="42.51285" lon="2.04474">
        <ele>1831.7</ele>
        <time>2026-01-19T14:12:20Z</time>
      </trkpt>
      <trkpt lat="42.51285" lon="2.04473">
        <ele>1831.8</ele>
        <time>2026-01-19T14:12:21Z</time>
      </trkpt>
      <trkpt lat="42.51285" lon="2.04471">
        <ele>1831.9</ele>
        <time>2026-01-19T14:12:22Z</time>
      </trkpt>
      <trkpt lat="42.51285" lon="2.0447">
        <ele>1831.9</ele>
        <time>2026-01-19T14:12:23Z</time>
      </trkpt>
      <trkpt lat="42.51285" lon="2.04469">
        <ele>1832</ele>
        <time>2026-01-19T14:12:24Z</time>
      </trkpt>
      <trkpt lat="42.51285" lon="2.04468">
        <ele>1832</ele>
        <time>2026-01-19T14:12:25Z</time>
      </trkpt>
      <trkpt lat="42.51284" lon="2.04467">
        <ele>1832.1</ele>
        <time>2026-01-19T14:12:26Z</time>
      </trkpt>
      <trkpt lat="42.51284" lon="2.04466">
        <ele>1832.2</ele>
        <time>2026-01-19T14:12:27Z</time>
      </trkpt>
      <trkpt lat="42.51284" lon="2.04464">
        <ele>1832.2</ele>
        <time>2026-01-19T14:12:28Z</time>
      </trkpt>
      <trkpt lat="42.51284" lon="2.04463">
        <ele>1832.3</ele>
        <time>2026-01-19T14:12:29Z</time>
      </trkpt>
      <trkpt lat="42.51284" lon="2.04462">
        <ele>1832.4</ele>
        <time>2026-01-19T14:12:30Z</time>
      </trkpt>
      <trkpt lat="42.51284" lon="2.0446">
        <ele>1832.4</ele>
        <time>2026-01-19T14:12:31Z</time>
      </trkpt>
      <trkpt lat="42.51284" lon="2.04459">
        <ele>1832.5</ele>
        <time>2026-01-19T14:12:32Z</time>
      </trkpt>
      <trkpt lat="42.51284" lon="2.04458">
        <ele>1832.6</ele>
        <time>2026-01-19T14:12:33Z</time>
      </trkpt>
      <trkpt lat="42.51284" lon="2.04456">
        <ele>1832.7</ele>
        <time>2026-01-19T14:12:34Z</time>
      </trkpt>
      <trkpt lat="42.51284" lon="2.04455">
        <ele>1832.7</ele>
        <time>2026-01-19T14:12:35Z</time>
      </trkpt>
      <trkpt lat="42.51285" lon="2.04454">
        <ele>1832.8</ele>
        <time>2026-01-19T14:12:36Z</time>
      </trkpt>
      <trkpt lat="42.51285" lon="2.04452">
        <ele>1832.9</ele>
        <time>2026-01-19T14:12:37Z</time>
      </trkpt>
      <trkpt lat="42.51285" lon="2.04451">
        <ele>1832.9</ele>
        <time>2026-01-19T14:12:38Z</time>
      </trkpt>
      <trkpt lat="42.51284" lon="2.0445">
        <ele>1833</ele>
        <time>2026-01-19T14:12:39Z</time>
      </trkpt>
      <trkpt lat="42.51284" lon="2.04449">
        <ele>1833.1</ele>
        <time>2026-01-19T14:12:40Z</time>
      </trkpt>
      <trkpt lat="42.51284" lon="2.04447">
        <ele>1833.1</ele>
        <time>2026-01-19T14:12:41Z</time>
      </trkpt>
      <trkpt lat="42.51283" lon="2.04446">
        <ele>1833.2</ele>
        <time>2026-01-19T14:12:42Z</time>
      </trkpt>
      <trkpt lat="42.51283" lon="2.04445">
        <ele>1833.3</ele>
        <time>2026-01-19T14:12:43Z</time>
      </trkpt>
      <trkpt lat="42.51282" lon="2.04444">
        <ele>1833.3</ele>
        <time>2026-01-19T14:12:44Z</time>
      </trkpt>
      <trkpt lat="42.51282" lon="2.04443">
        <ele>1833.4</ele>
        <time>2026-01-19T14:12:45Z</time>
      </trkpt>
      <trkpt lat="42.51281" lon="2.04441">
        <ele>1833.5</ele>
        <time>2026-01-19T14:12:46Z</time>
      </trkpt>
      <trkpt lat="42.51281" lon="2.0444">
        <ele>1833.5</ele>
        <time>2026-01-19T14:12:47Z</time>
      </trkpt>
      <trkpt lat="42.51281" lon="2.04439">
        <ele>1833.6</ele>
        <time>2026-01-19T14:12:48Z</time>
      </trkpt>
      <trkpt lat="42.51281" lon="2.04438">
        <ele>1833.6</ele>
        <time>2026-01-19T14:12:49Z</time>
      </trkpt>
      <trkpt lat="42.5128" lon="2.04437">
        <ele>1833.7</ele>
        <time>2026-01-19T14:12:50Z</time>
      </trkpt>
      <trkpt lat="42.5128" lon="2.04435">
        <ele>1833.8</ele>
        <time>2026-01-19T14:12:51Z</time>
      </trkpt>
      <trkpt lat="42.5128" lon="2.04434">
        <ele>1833.8</ele>
        <time>2026-01-19T14:12:52Z</time>
      </trkpt>
      <trkpt lat="42.5128" lon="2.04433">
        <ele>1833.9</ele>
        <time>2026-01-19T14:12:53Z</time>
      </trkpt>
      <trkpt lat="42.5128" lon="2.04431">
        <ele>1834</ele>
        <time>2026-01-19T14:12:54Z</time>
      </trkpt>
      <trkpt lat="42.5128" lon="2.0443">
        <ele>1834.1</ele>
        <time>2026-01-19T14:12:55Z</time>
      </trkpt>
      <trkpt lat="42.5128" lon="2.04428">
        <ele>1834.1</ele>
        <time>2026-01-19T14:12:56Z</time>
      </trkpt>
      <trkpt lat="42.51279" lon="2.04427">
        <ele>1834.2</ele>
        <time>2026-01-19T14:12:57Z</time>
      </trkpt>
      <trkpt lat="42.51279" lon="2.04426">
        <ele>1834.3</ele>
        <time>2026-01-19T14:12:58Z</time>
      </trkpt>
      <trkpt lat="42.51279" lon="2.04424">
        <ele>1834.3</ele>
        <time>2026-01-19T14:12:59Z</time>
      </trkpt>
      <trkpt lat="42.51278" lon="2.04423">
        <ele>1834.4</ele>
        <time>2026-01-19T14:13:00Z</time>
      </trkpt>
      <trkpt lat="42.51278" lon="2.04421">
        <ele>1834.5</ele>
        <time>2026-01-19T14:13:01Z</time>
      </trkpt>
      <trkpt lat="42.51278" lon="2.0442">
        <ele>1834.5</ele>
        <time>2026-01-19T14:13:02Z</time>
      </trkpt>
      <trkpt lat="42.51277" lon="2.04419">
        <ele>1834.6</ele>
        <time>2026-01-19T14:13:03Z</time>
      </trkpt>
      <trkpt lat="42.51277" lon="2.04418">
        <ele>1834.7</ele>
        <time>2026-01-19T14:13:04Z</time>
      </trkpt>
      <trkpt lat="42.51276" lon="2.04416">
        <ele>1834.7</ele>
        <time>2026-01-19T14:13:05Z</time>
      </trkpt>
      <trkpt lat="42.51276" lon="2.04415">
        <ele>1834.8</ele>
        <time>2026-01-19T14:13:06Z</time>
      </trkpt>
      <trkpt lat="42.51276" lon="2.04413">
        <ele>1834.9</ele>
        <time>2026-01-19T14:13:07Z</time>
      </trkpt>
      <trkpt lat="42.51275" lon="2.04412">
        <ele>1834.9</ele>
        <time>2026-01-19T14:13:08Z</time>
      </trkpt>
      <trkpt lat="42.51275" lon="2.04411">
        <ele>1835</ele>
        <time>2026-01-19T14:13:09Z</time>
      </trkpt>
      <trkpt lat="42.51276" lon="2.0441">
        <ele>1835</ele>
        <time>2026-01-19T14:13:10Z</time>
      </trkpt>
      <trkpt lat="42.51276" lon="2.04409">
        <ele>1835.1</ele>
        <time>2026-01-19T14:13:11Z</time>
      </trkpt>
      <trkpt lat="42.51276" lon="2.04408">
        <ele>1835.2</ele>
        <time>2026-01-19T14:13:12Z</time>
      </trkpt>
      <trkpt lat="42.51276" lon="2.04405">
        <ele>1835.3</ele>
        <time>2026-01-19T14:13:13Z</time>
      </trkpt>
      <trkpt lat="42.51276" lon="2.04404">
        <ele>1835.3</ele>
        <time>2026-01-19T14:13:14Z</time>
      </trkpt>
      <trkpt lat="42.51276" lon="2.04403">
        <ele>1835.4</ele>
        <time>2026-01-19T14:13:15Z</time>
      </trkpt>
      <trkpt lat="42.51275" lon="2.04402">
        <ele>1835.4</ele>
        <time>2026-01-19T14:13:16Z</time>
      </trkpt>
      <trkpt lat="42.51275" lon="2.044">
        <ele>1835.5</ele>
        <time>2026-01-19T14:13:17Z</time>
      </trkpt>
      <trkpt lat="42.51274" lon="2.04399">
        <ele>1835.6</ele>
        <time>2026-01-19T14:13:18Z</time>
      </trkpt>
      <trkpt lat="42.51274" lon="2.04397">
        <ele>1835.7</ele>
        <time>2026-01-19T14:13:19Z</time>
      </trkpt>
      <trkpt lat="42.51274" lon="2.04396">
        <ele>1835.7</ele>
        <time>2026-01-19T14:13:20Z</time>
      </trkpt>
      <trkpt lat="42.51273" lon="2.04395">
        <ele>1835.8</ele>
        <time>2026-01-19T14:13:21Z</time>
      </trkpt>
      <trkpt lat="42.51272" lon="2.04394">
        <ele>1835.9</ele>
        <time>2026-01-19T14:13:22Z</time>
      </trkpt>
      <trkpt lat="42.51271" lon="2.04393">
        <ele>1835.9</ele>
        <time>2026-01-19T14:13:23Z</time>
      </trkpt>
      <trkpt lat="42.5127" lon="2.04392">
        <ele>1836</ele>
        <time>2026-01-19T14:13:24Z</time>
      </trkpt>
      <trkpt lat="42.51269" lon="2.04391">
        <ele>1836.1</ele>
        <time>2026-01-19T14:13:25Z</time>
      </trkpt>
      <trkpt lat="42.51268" lon="2.04391">
        <ele>1836.2</ele>
        <time>2026-01-19T14:13:26Z</time>
      </trkpt>
      <trkpt lat="42.51267" lon="2.0439">
        <ele>1836.2</ele>
        <time>2026-01-19T14:13:27Z</time>
      </trkpt>
      <trkpt lat="42.51267" lon="2.04389">
        <ele>1836.3</ele>
        <time>2026-01-19T14:13:28Z</time>
      </trkpt>
      <trkpt lat="42.51266" lon="2.04389">
        <ele>1836.4</ele>
        <time>2026-01-19T14:13:29Z</time>
      </trkpt>
      <trkpt lat="42.51265" lon="2.04388">
        <ele>1836.4</ele>
        <time>2026-01-19T14:13:30Z</time>
      </trkpt>
      <trkpt lat="42.51264" lon="2.04388">
        <ele>1836.5</ele>
        <time>2026-01-19T14:13:31Z</time>
      </trkpt>
      <trkpt lat="42.51263" lon="2.04388">
        <ele>1836.6</ele>
        <time>2026-01-19T14:13:32Z</time>
      </trkpt>
      <trkpt lat="42.51262" lon="2.04387">
        <ele>1836.7</ele>
        <time>2026-01-19T14:13:33Z</time>
      </trkpt>
      <trkpt lat="42.5126" lon="2.04387">
        <ele>1836.7</ele>
        <time>2026-01-19T14:13:34Z</time>
      </trkpt>
      <trkpt lat="42.5126" lon="2.04387">
        <ele>1836.8</ele>
        <time>2026-01-19T14:13:35Z</time>
      </trkpt>
      <trkpt lat="42.51259" lon="2.04386">
        <ele>1836.9</ele>
        <time>2026-01-19T14:13:36Z</time>
      </trkpt>
      <trkpt lat="42.51258" lon="2.04386">
        <ele>1836.9</ele>
        <time>2026-01-19T14:13:37Z</time>
      </trkpt>
      <trkpt lat="42.51257" lon="2.04386">
        <ele>1837</ele>
        <time>2026-01-19T14:13:38Z</time>
      </trkpt>
      <trkpt lat="42.51256" lon="2.04386">
        <ele>1837.1</ele>
        <time>2026-01-19T14:13:39Z</time>
      </trkpt>
      <trkpt lat="42.51255" lon="2.04386">
        <ele>1837.1</ele>
        <time>2026-01-19T14:13:40Z</time>
      </trkpt>
      <trkpt lat="42.51254" lon="2.04386">
        <ele>1837.2</ele>
        <time>2026-01-19T14:13:41Z</time>
      </trkpt>
      <trkpt lat="42.51253" lon="2.04386">
        <ele>1837.3</ele>
        <time>2026-01-19T14:13:42Z</time>
      </trkpt>
      <trkpt lat="42.51252" lon="2.04386">
        <ele>1837.3</ele>
        <time>2026-01-19T14:13:43Z</time>
      </trkpt>
      <trkpt lat="42.51251" lon="2.04385">
        <ele>1837.4</ele>
        <time>2026-01-19T14:13:44Z</time>
      </trkpt>
      <trkpt lat="42.5125" lon="2.04385">
        <ele>1837.5</ele>
        <time>2026-01-19T14:13:45Z</time>
      </trkpt>
      <trkpt lat="42.5125" lon="2.04385">
        <ele>1837.5</ele>
        <time>2026-01-19T14:13:46Z</time>
      </trkpt>
      <trkpt lat="42.51249" lon="2.04385">
        <ele>1837.6</ele>
        <time>2026-01-19T14:13:47Z</time>
      </trkpt>
      <trkpt lat="42.51248" lon="2.04385">
        <ele>1837.7</ele>
        <time>2026-01-19T14:13:48Z</time>
      </trkpt>
      <trkpt lat="42.51247" lon="2.04385">
        <ele>1837.7</ele>
        <time>2026-01-19T14:13:49Z</time>
      </trkpt>
      <trkpt lat="42.51246" lon="2.04384">
        <ele>1837.8</ele>
        <time>2026-01-19T14:13:50Z</time>
      </trkpt>
      <trkpt lat="42.51245" lon="2.04384">
        <ele>1837.9</ele>
        <time>2026-01-19T14:13:51Z</time>
      </trkpt>
      <trkpt lat="42.51244" lon="2.04384">
        <ele>1838</ele>
        <time>2026-01-19T14:13:52Z</time>
      </trkpt>
      <trkpt lat="42.51243" lon="2.04384">
        <ele>1838</ele>
        <time>2026-01-19T14:13:53Z</time>
      </trkpt>
      <trkpt lat="42.51242" lon="2.04383">
        <ele>1838.1</ele>
        <time>2026-01-19T14:13:54Z</time>
      </trkpt>
      <trkpt lat="42.51241" lon="2.04383">
        <ele>1838.2</ele>
        <time>2026-01-19T14:13:55Z</time>
      </trkpt>
      <trkpt lat="42.5124" lon="2.04383">
        <ele>1838.3</ele>
        <time>2026-01-19T14:13:56Z</time>
      </trkpt>
      <trkpt lat="42.51239" lon="2.04383">
        <ele>1838.4</ele>
        <time>2026-01-19T14:13:57Z</time>
      </trkpt>
      <trkpt lat="42.51238" lon="2.04383">
        <ele>1838.4</ele>
        <time>2026-01-19T14:13:58Z</time>
      </trkpt>
      <trkpt lat="42.51237" lon="2.04384">
        <ele>1838.5</ele>
        <time>2026-01-19T14:13:59Z</time>
      </trkpt>
      <trkpt lat="42.51236" lon="2.04384">
        <ele>1838.6</ele>
        <time>2026-01-19T14:14:00Z</time>
      </trkpt>
      <trkpt lat="42.51235" lon="2.04384">
        <ele>1838.6</ele>
        <time>2026-01-19T14:14:01Z</time>
      </trkpt>
      <trkpt lat="42.51234" lon="2.04384">
        <ele>1838.7</ele>
        <time>2026-01-19T14:14:02Z</time>
      </trkpt>
      <trkpt lat="42.51233" lon="2.04384">
        <ele>1838.8</ele>
        <time>2026-01-19T14:14:03Z</time>
      </trkpt>
      <trkpt lat="42.51232" lon="2.04384">
        <ele>1838.9</ele>
        <time>2026-01-19T14:14:04Z</time>
      </trkpt>
      <trkpt lat="42.51231" lon="2.04384">
        <ele>1839</ele>
        <time>2026-01-19T14:14:05Z</time>
      </trkpt>
      <trkpt lat="42.51229" lon="2.04384">
        <ele>1839.1</ele>
        <time>2026-01-19T14:14:06Z</time>
      </trkpt>
      <trkpt lat="42.51228" lon="2.04384">
        <ele>1839.2</ele>
        <time>2026-01-19T14:14:07Z</time>
      </trkpt>
      <trkpt lat="42.51227" lon="2.04384">
        <ele>1839.2</ele>
        <time>2026-01-19T14:14:08Z</time>
      </trkpt>
      <trkpt lat="42.51226" lon="2.04384">
        <ele>1839.3</ele>
        <time>2026-01-19T14:14:09Z</time>
      </trkpt>
      <trkpt lat="42.51225" lon="2.04384">
        <ele>1839.4</ele>
        <time>2026-01-19T14:14:10Z</time>
      </trkpt>
      <trkpt lat="42.51224" lon="2.04383">
        <ele>1839.5</ele>
        <time>2026-01-19T14:14:11Z</time>
      </trkpt>
      <trkpt lat="42.51223" lon="2.04383">
        <ele>1839.6</ele>
        <time>2026-01-19T14:14:12Z</time>
      </trkpt>
      <trkpt lat="42.51222" lon="2.04383">
        <ele>1839.6</ele>
        <time>2026-01-19T14:14:13Z</time>
      </trkpt>
      <trkpt lat="42.51221" lon="2.04383">
        <ele>1839.7</ele>
        <time>2026-01-19T14:14:14Z</time>
      </trkpt>
      <trkpt lat="42.5122" lon="2.04382">
        <ele>1839.8</ele>
        <time>2026-01-19T14:14:15Z</time>
      </trkpt>
      <trkpt lat="42.5122" lon="2.04382">
        <ele>1839.8</ele>
        <time>2026-01-19T14:14:16Z</time>
      </trkpt>
      <trkpt lat="42.51219" lon="2.04382">
        <ele>1839.9</ele>
        <time>2026-01-19T14:14:17Z</time>
      </trkpt>
      <trkpt lat="42.51218" lon="2.04382">
        <ele>1839.9</ele>
        <time>2026-01-19T14:14:18Z</time>
      </trkpt>
      <trkpt lat="42.51217" lon="2.04382">
        <ele>1840</ele>
        <time>2026-01-19T14:14:19Z</time>
      </trkpt>
      <trkpt lat="42.51217" lon="2.04382">
        <ele>1840.1</ele>
        <time>2026-01-19T14:14:20Z</time>
      </trkpt>
      <trkpt lat="42.51216" lon="2.04381">
        <ele>1840.1</ele>
        <time>2026-01-19T14:14:21Z</time>
      </trkpt>
      <trkpt lat="42.51215" lon="2.04381">
        <ele>1840.2</ele>
        <time>2026-01-19T14:14:22Z</time>
      </trkpt>
      <trkpt lat="42.51214" lon="2.0438">
        <ele>1840.3</ele>
        <time>2026-01-19T14:14:23Z</time>
      </trkpt>
      <trkpt lat="42.51213" lon="2.0438">
        <ele>1840.4</ele>
        <time>2026-01-19T14:14:24Z</time>
      </trkpt>
      <trkpt lat="42.51212" lon="2.04379">
        <ele>1840.4</ele>
        <time>2026-01-19T14:14:25Z</time>
      </trkpt>
      <trkpt lat="42.51211" lon="2.04378">
        <ele>1840.5</ele>
        <time>2026-01-19T14:14:26Z</time>
      </trkpt>
      <trkpt lat="42.5121" lon="2.04378">
        <ele>1840.6</ele>
        <time>2026-01-19T14:14:27Z</time>
      </trkpt>
      <trkpt lat="42.5121" lon="2.04377">
        <ele>1840.6</ele>
        <time>2026-01-19T14:14:28Z</time>
      </trkpt>
      <trkpt lat="42.51209" lon="2.04376">
        <ele>1840.7</ele>
        <time>2026-01-19T14:14:29Z</time>
      </trkpt>
      <trkpt lat="42.51208" lon="2.04376">
        <ele>1840.8</ele>
        <time>2026-01-19T14:14:30Z</time>
      </trkpt>
      <trkpt lat="42.51207" lon="2.04375">
        <ele>1840.8</ele>
        <time>2026-01-19T14:14:31Z</time>
      </trkpt>
      <trkpt lat="42.51207" lon="2.04373">
        <ele>1840.9</ele>
        <time>2026-01-19T14:14:32Z</time>
      </trkpt>
      <trkpt lat="42.51206" lon="2.04372">
        <ele>1841</ele>
        <time>2026-01-19T14:14:33Z</time>
      </trkpt>
      <trkpt lat="42.51205" lon="2.04371">
        <ele>1841</ele>
        <time>2026-01-19T14:14:34Z</time>
      </trkpt>
      <trkpt lat="42.51205" lon="2.0437">
        <ele>1841</ele>
        <time>2026-01-19T14:14:35Z</time>
      </trkpt>
      <trkpt lat="42.51204" lon="2.0437">
        <ele>1841</ele>
        <time>2026-01-19T14:14:36Z</time>
      </trkpt>
      <trkpt lat="42.51203" lon="2.04369">
        <ele>1841</ele>
        <time>2026-01-19T14:14:37Z</time>
      </trkpt>
      <trkpt lat="42.51202" lon="2.04368">
        <ele>1841</ele>
        <time>2026-01-19T14:14:38Z</time>
      </trkpt>
      <trkpt lat="42.51201" lon="2.04367">
        <ele>1841</ele>
        <time>2026-01-19T14:14:39Z</time>
      </trkpt>
      <trkpt lat="42.512" lon="2.04366">
        <ele>1841</ele>
        <time>2026-01-19T14:14:40Z</time>
      </trkpt>
      <trkpt lat="42.512" lon="2.04365">
        <ele>1841</ele>
        <time>2026-01-19T14:14:41Z</time>
      </trkpt>
      <trkpt lat="42.51199" lon="2.04364">
        <ele>1841</ele>
        <time>2026-01-19T14:14:42Z</time>
      </trkpt>
      <trkpt lat="42.51199" lon="2.04363">
        <ele>1841</ele>
        <time>2026-01-19T14:14:43Z</time>
      </trkpt>
      <trkpt lat="42.51199" lon="2.04361">
        <ele>1841</ele>
        <time>2026-01-19T14:14:44Z</time>
      </trkpt>
      <trkpt lat="42.51198" lon="2.04361">
        <ele>1841</ele>
        <time>2026-01-19T14:14:45Z</time>
      </trkpt>
      <trkpt lat="42.51197" lon="2.0436">
        <ele>1841</ele>
        <time>2026-01-19T14:14:46Z</time>
      </trkpt>
      <trkpt lat="42.51197" lon="2.04359">
        <ele>1841</ele>
        <time>2026-01-19T14:14:47Z</time>
      </trkpt>
      <trkpt lat="42.51196" lon="2.04358">
        <ele>1841</ele>
        <time>2026-01-19T14:14:48Z</time>
      </trkpt>
      <trkpt lat="42.51196" lon="2.04357">
        <ele>1841</ele>
        <time>2026-01-19T14:14:49Z</time>
      </trkpt>
      <trkpt lat="42.51196" lon="2.04356">
        <ele>1841</ele>
        <time>2026-01-19T14:14:50Z</time>
      </trkpt>
      <trkpt lat="42.51196" lon="2.04355">
        <ele>1841</ele>
        <time>2026-01-19T14:14:51Z</time>
      </trkpt>
      <trkpt lat="42.51195" lon="2.04354">
        <ele>1841.1</ele>
        <time>2026-01-19T14:14:52Z</time>
      </trkpt>
      <trkpt lat="42.51195" lon="2.04353">
        <ele>1841.1</ele>
        <time>2026-01-19T14:14:53Z</time>
      </trkpt>
      <trkpt lat="42.51195" lon="2.04351">
        <ele>1841.1</ele>
        <time>2026-01-19T14:14:54Z</time>
      </trkpt>
      <trkpt lat="42.51194" lon="2.0435">
        <ele>1841.1</ele>
        <time>2026-01-19T14:14:55Z</time>
      </trkpt>
      <trkpt lat="42.51194" lon="2.04349">
        <ele>1841.1</ele>
        <time>2026-01-19T14:14:56Z</time>
      </trkpt>
      <trkpt lat="42.51194" lon="2.04347">
        <ele>1841.1</ele>
        <time>2026-01-19T14:14:57Z</time>
      </trkpt>
      <trkpt lat="42.51194" lon="2.04346">
        <ele>1841.2</ele>
        <time>2026-01-19T14:14:58Z</time>
      </trkpt>
      <trkpt lat="42.51194" lon="2.04345">
        <ele>1841.2</ele>
        <time>2026-01-19T14:14:59Z</time>
      </trkpt>
      <trkpt lat="42.51194" lon="2.04343">
        <ele>1841.2</ele>
        <time>2026-01-19T14:15:00Z</time>
      </trkpt>
      <trkpt lat="42.51194" lon="2.04342">
        <ele>1841.2</ele>
        <time>2026-01-19T14:15:01Z</time>
      </trkpt>
      <trkpt lat="42.51194" lon="2.0434">
        <ele>1841.2</ele>
        <time>2026-01-19T14:15:02Z</time>
      </trkpt>
      <trkpt lat="42.51194" lon="2.04339">
        <ele>1841.3</ele>
        <time>2026-01-19T14:15:03Z</time>
      </trkpt>
      <trkpt lat="42.51194" lon="2.04338">
        <ele>1841.3</ele>
        <time>2026-01-19T14:15:04Z</time>
      </trkpt>
      <trkpt lat="42.51194" lon="2.04337">
        <ele>1841.3</ele>
        <time>2026-01-19T14:15:05Z</time>
      </trkpt>
      <trkpt lat="42.51194" lon="2.04335">
        <ele>1841.3</ele>
        <time>2026-01-19T14:15:06Z</time>
      </trkpt>
      <trkpt lat="42.51194" lon="2.04334">
        <ele>1841.3</ele>
        <time>2026-01-19T14:15:07Z</time>
      </trkpt>
      <trkpt lat="42.51194" lon="2.04332">
        <ele>1841.4</ele>
        <time>2026-01-19T14:15:08Z</time>
      </trkpt>
      <trkpt lat="42.51194" lon="2.04331">
        <ele>1841.4</ele>
        <time>2026-01-19T14:15:09Z</time>
      </trkpt>
      <trkpt lat="42.51194" lon="2.04328">
        <ele>1841.4</ele>
        <time>2026-01-19T14:15:10Z</time>
      </trkpt>
      <trkpt lat="42.51194" lon="2.04326">
        <ele>1841.4</ele>
        <time>2026-01-19T14:15:11Z</time>
      </trkpt>
      <trkpt lat="42.51194" lon="2.04325">
        <ele>1841.4</ele>
        <time>2026-01-19T14:15:12Z</time>
      </trkpt>
      <trkpt lat="42.51194" lon="2.04322">
        <ele>1841.5</ele>
        <time>2026-01-19T14:15:13Z</time>
      </trkpt>
      <trkpt lat="42.51194" lon="2.04321">
        <ele>1841.5</ele>
        <time>2026-01-19T14:15:14Z</time>
      </trkpt>
      <trkpt lat="42.51194" lon="2.0432">
        <ele>1841.5</ele>
        <time>2026-01-19T14:15:15Z</time>
      </trkpt>
      <trkpt lat="42.51194" lon="2.04318">
        <ele>1841.5</ele>
        <time>2026-01-19T14:15:16Z</time>
      </trkpt>
      <trkpt lat="42.51194" lon="2.04316">
        <ele>1841.5</ele>
        <time>2026-01-19T14:15:17Z</time>
      </trkpt>
      <trkpt lat="42.51194" lon="2.04314">
        <ele>1841.6</ele>
        <time>2026-01-19T14:15:18Z</time>
      </trkpt>
      <trkpt lat="42.51194" lon="2.04312">
        <ele>1841.6</ele>
        <time>2026-01-19T14:15:19Z</time>
      </trkpt>
      <trkpt lat="42.51194" lon="2.0431">
        <ele>1841.6</ele>
        <time>2026-01-19T14:15:20Z</time>
      </trkpt>
      <trkpt lat="42.51194" lon="2.04308">
        <ele>1841.6</ele>
        <time>2026-01-19T14:15:21Z</time>
      </trkpt>
      <trkpt lat="42.51194" lon="2.04306">
        <ele>1841.6</ele>
        <time>2026-01-19T14:15:22Z</time>
      </trkpt>
      <trkpt lat="42.51194" lon="2.04305">
        <ele>1841.6</ele>
        <time>2026-01-19T14:15:23Z</time>
      </trkpt>
      <trkpt lat="42.51194" lon="2.04303">
        <ele>1841.6</ele>
        <time>2026-01-19T14:15:24Z</time>
      </trkpt>
      <trkpt lat="42.51194" lon="2.04302">
        <ele>1841.6</ele>
        <time>2026-01-19T14:15:25Z</time>
      </trkpt>
      <trkpt lat="42.51194" lon="2.043">
        <ele>1841.6</ele>
        <time>2026-01-19T14:15:26Z</time>
      </trkpt>
      <trkpt lat="42.51195" lon="2.04299">
        <ele>1841.6</ele>
        <time>2026-01-19T14:15:27Z</time>
      </trkpt>
      <trkpt lat="42.51195" lon="2.04297">
        <ele>1841.6</ele>
        <time>2026-01-19T14:15:28Z</time>
      </trkpt>
      <trkpt lat="42.51195" lon="2.04295">
        <ele>1841.6</ele>
        <time>2026-01-19T14:15:29Z</time>
      </trkpt>
      <trkpt lat="42.51195" lon="2.04294">
        <ele>1841.7</ele>
        <time>2026-01-19T14:15:30Z</time>
      </trkpt>
      <trkpt lat="42.51196" lon="2.04292">
        <ele>1841.7</ele>
        <time>2026-01-19T14:15:31Z</time>
      </trkpt>
      <trkpt lat="42.51196" lon="2.04291">
        <ele>1841.7</ele>
        <time>2026-01-19T14:15:32Z</time>
      </trkpt>
      <trkpt lat="42.51196" lon="2.04289">
        <ele>1841.7</ele>
        <time>2026-01-19T14:15:33Z</time>
      </trkpt>
      <trkpt lat="42.51196" lon="2.04288">
        <ele>1841.7</ele>
        <time>2026-01-19T14:15:34Z</time>
      </trkpt>
      <trkpt lat="42.51196" lon="2.04286">
        <ele>1841.7</ele>
        <time>2026-01-19T14:15:35Z</time>
      </trkpt>
      <trkpt lat="42.51196" lon="2.04285">
        <ele>1841.7</ele>
        <time>2026-01-19T14:15:36Z</time>
      </trkpt>
      <trkpt lat="42.51197" lon="2.04283">
        <ele>1841.7</ele>
        <time>2026-01-19T14:15:37Z</time>
      </trkpt>
      <trkpt lat="42.51196" lon="2.04282">
        <ele>1841.7</ele>
        <time>2026-01-19T14:15:38Z</time>
      </trkpt>
      <trkpt lat="42.51196" lon="2.04281">
        <ele>1841.7</ele>
        <time>2026-01-19T14:15:39Z</time>
      </trkpt>
      <trkpt lat="42.51195" lon="2.0428">
        <ele>1841.7</ele>
        <time>2026-01-19T14:15:40Z</time>
      </trkpt>
      <trkpt lat="42.51194" lon="2.04279">
        <ele>1841.7</ele>
        <time>2026-01-19T14:15:41Z</time>
      </trkpt>
      <trkpt lat="42.51193" lon="2.04279">
        <ele>1841.7</ele>
        <time>2026-01-19T14:15:42Z</time>
      </trkpt>
      <trkpt lat="42.51193" lon="2.0428">
        <ele>1841.7</ele>
        <time>2026-01-19T14:15:43Z</time>
      </trkpt>
      <trkpt lat="42.51193" lon="2.0428">
        <ele>1841.7</ele>
        <time>2026-01-19T14:15:44Z</time>
      </trkpt>
      <trkpt lat="42.51193" lon="2.0428">
        <ele>1841.7</ele>
        <time>2026-01-19T14:15:45Z</time>
      </trkpt>
      <trkpt lat="42.51193" lon="2.0428">
        <ele>1841.7</ele>
        <time>2026-01-19T14:15:46Z</time>
      </trkpt>
      <trkpt lat="42.51193" lon="2.0428">
        <ele>1841.7</ele>
        <time>2026-01-19T14:15:47Z</time>
      </trkpt>
      <trkpt lat="42.51193" lon="2.0428">
        <ele>1841.7</ele>
        <time>2026-01-19T14:15:48Z</time>
      </trkpt>
      <trkpt lat="42.51193" lon="2.0428">
        <ele>1841.7</ele>
        <time>2026-01-19T14:15:49Z</time>
      </trkpt>
      <trkpt lat="42.51193" lon="2.04279">
        <ele>1841.7</ele>
        <time>2026-01-19T14:15:50Z</time>
      </trkpt>
      <trkpt lat="42.51193" lon="2.04278">
        <ele>1841.7</ele>
        <time>2026-01-19T14:15:51Z</time>
      </trkpt>
      <trkpt lat="42.51194" lon="2.04276">
        <ele>1841.7</ele>
        <time>2026-01-19T14:15:52Z</time>
      </trkpt>
      <trkpt lat="42.51194" lon="2.04274">
        <ele>1841.7</ele>
        <time>2026-01-19T14:15:53Z</time>
      </trkpt>
      <trkpt lat="42.51193" lon="2.04273">
        <ele>1841.7</ele>
        <time>2026-01-19T14:15:54Z</time>
      </trkpt>
      <trkpt lat="42.51192" lon="2.04272">
        <ele>1841.8</ele>
        <time>2026-01-19T14:15:55Z</time>
      </trkpt>
      <trkpt lat="42.51192" lon="2.04271">
        <ele>1841.8</ele>
        <time>2026-01-19T14:15:56Z</time>
      </trkpt>
      <trkpt lat="42.51192" lon="2.04271">
        <ele>1841.8</ele>
        <time>2026-01-19T14:15:57Z</time>
      </trkpt>
      <trkpt lat="42.51193" lon="2.0427">
        <ele>1841.8</ele>
        <time>2026-01-19T14:15:58Z</time>
      </trkpt>
      <trkpt lat="42.51193" lon="2.0427">
        <ele>1841.8</ele>
        <time>2026-01-19T14:15:59Z</time>
      </trkpt>
      <trkpt lat="42.51194" lon="2.0427">
        <ele>1841.8</ele>
        <time>2026-01-19T14:16:00Z</time>
      </trkpt>
      <trkpt lat="42.51194" lon="2.0427">
        <ele>1841.8</ele>
        <time>2026-01-19T14:16:01Z</time>
      </trkpt>
      <trkpt lat="42.51195" lon="2.0427">
        <ele>1841.8</ele>
        <time>2026-01-19T14:16:02Z</time>
      </trkpt>
      <trkpt lat="42.51195" lon="2.0427">
        <ele>1841.8</ele>
        <time>2026-01-19T14:16:03Z</time>
      </trkpt>
      <trkpt lat="42.51196" lon="2.04269">
        <ele>1841.8</ele>
        <time>2026-01-19T14:16:04Z</time>
      </trkpt>
      <trkpt lat="42.51197" lon="2.04269">
        <ele>1841.8</ele>
        <time>2026-01-19T14:16:05Z</time>
      </trkpt>
      <trkpt lat="42.51197" lon="2.04267">
        <ele>1841.8</ele>
        <time>2026-01-19T14:16:06Z</time>
      </trkpt>
      <trkpt lat="42.51197" lon="2.04266">
        <ele>1841.8</ele>
        <time>2026-01-19T14:16:07Z</time>
      </trkpt>
      <trkpt lat="42.51198" lon="2.04264">
        <ele>1841.8</ele>
        <time>2026-01-19T14:16:08Z</time>
      </trkpt>
      <trkpt lat="42.51198" lon="2.04263">
        <ele>1841.8</ele>
        <time>2026-01-19T14:16:09Z</time>
      </trkpt>
      <trkpt lat="42.51198" lon="2.04261">
        <ele>1841.9</ele>
        <time>2026-01-19T14:16:10Z</time>
      </trkpt>
      <trkpt lat="42.51198" lon="2.04259">
        <ele>1841.9</ele>
        <time>2026-01-19T14:16:11Z</time>
      </trkpt>
      <trkpt lat="42.51199" lon="2.04258">
        <ele>1841.9</ele>
        <time>2026-01-19T14:16:12Z</time>
      </trkpt>
      <trkpt lat="42.51199" lon="2.04256">
        <ele>1841.9</ele>
        <time>2026-01-19T14:16:13Z</time>
      </trkpt>
      <trkpt lat="42.51199" lon="2.04255">
        <ele>1841.9</ele>
        <time>2026-01-19T14:16:14Z</time>
      </trkpt>
      <trkpt lat="42.51199" lon="2.04253">
        <ele>1841.9</ele>
        <time>2026-01-19T14:16:15Z</time>
      </trkpt>
      <trkpt lat="42.51199" lon="2.04252">
        <ele>1841.9</ele>
        <time>2026-01-19T14:16:16Z</time>
      </trkpt>
      <trkpt lat="42.51199" lon="2.04251">
        <ele>1841.9</ele>
        <time>2026-01-19T14:16:17Z</time>
      </trkpt>
      <trkpt lat="42.512" lon="2.04249">
        <ele>1842</ele>
        <time>2026-01-19T14:16:18Z</time>
      </trkpt>
      <trkpt lat="42.512" lon="2.04247">
        <ele>1842</ele>
        <time>2026-01-19T14:16:19Z</time>
      </trkpt>
      <trkpt lat="42.51199" lon="2.04246">
        <ele>1842</ele>
        <time>2026-01-19T14:16:20Z</time>
      </trkpt>
      <trkpt lat="42.51199" lon="2.04244">
        <ele>1842</ele>
        <time>2026-01-19T14:16:21Z</time>
      </trkpt>
      <trkpt lat="42.51199" lon="2.04243">
        <ele>1842.1</ele>
        <time>2026-01-19T14:16:22Z</time>
      </trkpt>
      <trkpt lat="42.51199" lon="2.04241">
        <ele>1842.1</ele>
        <time>2026-01-19T14:16:23Z</time>
      </trkpt>
      <trkpt lat="42.51198" lon="2.0424">
        <ele>1842.1</ele>
        <time>2026-01-19T14:16:24Z</time>
      </trkpt>
      <trkpt lat="42.51198" lon="2.04238">
        <ele>1842.2</ele>
        <time>2026-01-19T14:16:25Z</time>
      </trkpt>
      <trkpt lat="42.51198" lon="2.04237">
        <ele>1842.2</ele>
        <time>2026-01-19T14:16:26Z</time>
      </trkpt>
      <trkpt lat="42.51198" lon="2.04235">
        <ele>1842.2</ele>
        <time>2026-01-19T14:16:27Z</time>
      </trkpt>
      <trkpt lat="42.51198" lon="2.04234">
        <ele>1842.3</ele>
        <time>2026-01-19T14:16:28Z</time>
      </trkpt>
      <trkpt lat="42.51198" lon="2.04232">
        <ele>1842.3</ele>
        <time>2026-01-19T14:16:29Z</time>
      </trkpt>
      <trkpt lat="42.51198" lon="2.04231">
        <ele>1842.4</ele>
        <time>2026-01-19T14:16:30Z</time>
      </trkpt>
      <trkpt lat="42.51197" lon="2.04229">
        <ele>1842.4</ele>
        <time>2026-01-19T14:16:31Z</time>
      </trkpt>
      <trkpt lat="42.51197" lon="2.04227">
        <ele>1842.5</ele>
        <time>2026-01-19T14:16:32Z</time>
      </trkpt>
      <trkpt lat="42.51196" lon="2.04226">
        <ele>1842.5</ele>
        <time>2026-01-19T14:16:33Z</time>
      </trkpt>
      <trkpt lat="42.51196" lon="2.04224">
        <ele>1842.6</ele>
        <time>2026-01-19T14:16:34Z</time>
      </trkpt>
      <trkpt lat="42.51195" lon="2.04223">
        <ele>1842.7</ele>
        <time>2026-01-19T14:16:35Z</time>
      </trkpt>
      <trkpt lat="42.51195" lon="2.04222">
        <ele>1842.7</ele>
        <time>2026-01-19T14:16:36Z</time>
      </trkpt>
      <trkpt lat="42.51194" lon="2.0422">
        <ele>1842.8</ele>
        <time>2026-01-19T14:16:37Z</time>
      </trkpt>
      <trkpt lat="42.51193" lon="2.04219">
        <ele>1842.9</ele>
        <time>2026-01-19T14:16:38Z</time>
      </trkpt>
      <trkpt lat="42.51193" lon="2.04218">
        <ele>1842.9</ele>
        <time>2026-01-19T14:16:39Z</time>
      </trkpt>
      <trkpt lat="42.51192" lon="2.04217">
        <ele>1843</ele>
        <time>2026-01-19T14:16:40Z</time>
      </trkpt>
      <trkpt lat="42.51191" lon="2.04215">
        <ele>1843.1</ele>
        <time>2026-01-19T14:16:41Z</time>
      </trkpt>
      <trkpt lat="42.51191" lon="2.04214">
        <ele>1843.1</ele>
        <time>2026-01-19T14:16:42Z</time>
      </trkpt>
      <trkpt lat="42.5119" lon="2.04213">
        <ele>1843.2</ele>
        <time>2026-01-19T14:16:43Z</time>
      </trkpt>
      <trkpt lat="42.51189" lon="2.04212">
        <ele>1843.3</ele>
        <time>2026-01-19T14:16:44Z</time>
      </trkpt>
      <trkpt lat="42.51189" lon="2.04211">
        <ele>1843.3</ele>
        <time>2026-01-19T14:16:45Z</time>
      </trkpt>
      <trkpt lat="42.51188" lon="2.04209">
        <ele>1843.4</ele>
        <time>2026-01-19T14:16:46Z</time>
      </trkpt>
      <trkpt lat="42.51188" lon="2.04208">
        <ele>1843.5</ele>
        <time>2026-01-19T14:16:47Z</time>
      </trkpt>
      <trkpt lat="42.51188" lon="2.04207">
        <ele>1843.6</ele>
        <time>2026-01-19T14:16:48Z</time>
      </trkpt>
      <trkpt lat="42.51187" lon="2.04206">
        <ele>1843.6</ele>
        <time>2026-01-19T14:16:49Z</time>
      </trkpt>
      <trkpt lat="42.51187" lon="2.04204">
        <ele>1843.7</ele>
        <time>2026-01-19T14:16:50Z</time>
      </trkpt>
      <trkpt lat="42.51186" lon="2.04203">
        <ele>1843.8</ele>
        <time>2026-01-19T14:16:51Z</time>
      </trkpt>
      <trkpt lat="42.51186" lon="2.04202">
        <ele>1843.9</ele>
        <time>2026-01-19T14:16:52Z</time>
      </trkpt>
      <trkpt lat="42.51185" lon="2.04201">
        <ele>1843.9</ele>
        <time>2026-01-19T14:16:53Z</time>
      </trkpt>
      <trkpt lat="42.51185" lon="2.04199">
        <ele>1844</ele>
        <time>2026-01-19T14:16:54Z</time>
      </trkpt>
      <trkpt lat="42.51185" lon="2.04198">
        <ele>1844.1</ele>
        <time>2026-01-19T14:16:55Z</time>
      </trkpt>
      <trkpt lat="42.51184" lon="2.04198">
        <ele>1844.1</ele>
        <time>2026-01-19T14:16:56Z</time>
      </trkpt>
      <trkpt lat="42.51183" lon="2.04197">
        <ele>1844.2</ele>
        <time>2026-01-19T14:16:57Z</time>
      </trkpt>
      <trkpt lat="42.51182" lon="2.04197">
        <ele>1844.3</ele>
        <time>2026-01-19T14:16:58Z</time>
      </trkpt>
      <trkpt lat="42.51182" lon="2.04196">
        <ele>1844.3</ele>
        <time>2026-01-19T14:16:59Z</time>
      </trkpt>
      <trkpt lat="42.51181" lon="2.04195">
        <ele>1844.4</ele>
        <time>2026-01-19T14:17:00Z</time>
      </trkpt>
      <trkpt lat="42.51181" lon="2.04194">
        <ele>1844.4</ele>
        <time>2026-01-19T14:17:01Z</time>
      </trkpt>
      <trkpt lat="42.5118" lon="2.04193">
        <ele>1844.5</ele>
        <time>2026-01-19T14:17:02Z</time>
      </trkpt>
      <trkpt lat="42.5118" lon="2.04192">
        <ele>1844.5</ele>
        <time>2026-01-19T14:17:03Z</time>
      </trkpt>
      <trkpt lat="42.51179" lon="2.04191">
        <ele>1844.6</ele>
        <time>2026-01-19T14:17:04Z</time>
      </trkpt>
      <trkpt lat="42.51179" lon="2.0419">
        <ele>1844.6</ele>
        <time>2026-01-19T14:17:05Z</time>
      </trkpt>
      <trkpt lat="42.51178" lon="2.04189">
        <ele>1844.7</ele>
        <time>2026-01-19T14:17:06Z</time>
      </trkpt>
      <trkpt lat="42.51178" lon="2.04188">
        <ele>1844.8</ele>
        <time>2026-01-19T14:17:07Z</time>
      </trkpt>
      <trkpt lat="42.51178" lon="2.04187">
        <ele>1844.8</ele>
        <time>2026-01-19T14:17:08Z</time>
      </trkpt>
      <trkpt lat="42.51177" lon="2.04185">
        <ele>1844.9</ele>
        <time>2026-01-19T14:17:09Z</time>
      </trkpt>
      <trkpt lat="42.51177" lon="2.04184">
        <ele>1844.9</ele>
        <time>2026-01-19T14:17:10Z</time>
      </trkpt>
      <trkpt lat="42.51177" lon="2.04183">
        <ele>1845</ele>
        <time>2026-01-19T14:17:11Z</time>
      </trkpt>
      <trkpt lat="42.51177" lon="2.04181">
        <ele>1845</ele>
        <time>2026-01-19T14:17:12Z</time>
      </trkpt>
      <trkpt lat="42.51176" lon="2.0418">
        <ele>1845.1</ele>
        <time>2026-01-19T14:17:13Z</time>
      </trkpt>
      <trkpt lat="42.51176" lon="2.04178">
        <ele>1845.1</ele>
        <time>2026-01-19T14:17:14Z</time>
      </trkpt>
      <trkpt lat="42.51176" lon="2.04177">
        <ele>1845.2</ele>
        <time>2026-01-19T14:17:15Z</time>
      </trkpt>
      <trkpt lat="42.51175" lon="2.04175">
        <ele>1845.2</ele>
        <time>2026-01-19T14:17:16Z</time>
      </trkpt>
      <trkpt lat="42.51175" lon="2.04174">
        <ele>1845.3</ele>
        <time>2026-01-19T14:17:17Z</time>
      </trkpt>
      <trkpt lat="42.51174" lon="2.04172">
        <ele>1845.3</ele>
        <time>2026-01-19T14:17:18Z</time>
      </trkpt>
      <trkpt lat="42.51173" lon="2.0417">
        <ele>1845.4</ele>
        <time>2026-01-19T14:17:19Z</time>
      </trkpt>
      <trkpt lat="42.51173" lon="2.04169">
        <ele>1845.4</ele>
        <time>2026-01-19T14:17:20Z</time>
      </trkpt>
      <trkpt lat="42.51173" lon="2.04168">
        <ele>1845.4</ele>
        <time>2026-01-19T14:17:21Z</time>
      </trkpt>
      <trkpt lat="42.51172" lon="2.04166">
        <ele>1845.5</ele>
        <time>2026-01-19T14:17:22Z</time>
      </trkpt>
      <trkpt lat="42.51172" lon="2.04165">
        <ele>1845.5</ele>
        <time>2026-01-19T14:17:23Z</time>
      </trkpt>
      <trkpt lat="42.51172" lon="2.04163">
        <ele>1845.5</ele>
        <time>2026-01-19T14:17:24Z</time>
      </trkpt>
      <trkpt lat="42.51172" lon="2.04162">
        <ele>1845.5</ele>
        <time>2026-01-19T14:17:25Z</time>
      </trkpt>
      <trkpt lat="42.51172" lon="2.0416">
        <ele>1845.5</ele>
        <time>2026-01-19T14:17:26Z</time>
      </trkpt>
      <trkpt lat="42.51172" lon="2.04159">
        <ele>1845.5</ele>
        <time>2026-01-19T14:17:27Z</time>
      </trkpt>
      <trkpt lat="42.51172" lon="2.04158">
        <ele>1845.5</ele>
        <time>2026-01-19T14:17:28Z</time>
      </trkpt>
      <trkpt lat="42.51171" lon="2.04157">
        <ele>1845.5</ele>
        <time>2026-01-19T14:17:29Z</time>
      </trkpt>
      <trkpt lat="42.51171" lon="2.04155">
        <ele>1845.5</ele>
        <time>2026-01-19T14:17:30Z</time>
      </trkpt>
      <trkpt lat="42.51171" lon="2.04152">
        <ele>1845.5</ele>
        <time>2026-01-19T14:17:31Z</time>
      </trkpt>
      <trkpt lat="42.51171" lon="2.04151">
        <ele>1845.5</ele>
        <time>2026-01-19T14:17:32Z</time>
      </trkpt>
      <trkpt lat="42.5117" lon="2.0415">
        <ele>1845.5</ele>
        <time>2026-01-19T14:17:33Z</time>
      </trkpt>
      <trkpt lat="42.5117" lon="2.04147">
        <ele>1845.4</ele>
        <time>2026-01-19T14:17:34Z</time>
      </trkpt>
      <trkpt lat="42.5117" lon="2.04146">
        <ele>1845.4</ele>
        <time>2026-01-19T14:17:35Z</time>
      </trkpt>
      <trkpt lat="42.5117" lon="2.04145">
        <ele>1845.4</ele>
        <time>2026-01-19T14:17:36Z</time>
      </trkpt>
      <trkpt lat="42.5117" lon="2.04142">
        <ele>1845.4</ele>
        <time>2026-01-19T14:17:37Z</time>
      </trkpt>
      <trkpt lat="42.51169" lon="2.04141">
        <ele>1845.3</ele>
        <time>2026-01-19T14:17:38Z</time>
      </trkpt>
      <trkpt lat="42.51169" lon="2.0414">
        <ele>1845.3</ele>
        <time>2026-01-19T14:17:39Z</time>
      </trkpt>
      <trkpt lat="42.5117" lon="2.04138">
        <ele>1845.3</ele>
        <time>2026-01-19T14:17:40Z</time>
      </trkpt>
      <trkpt lat="42.51169" lon="2.04137">
        <ele>1845.2</ele>
        <time>2026-01-19T14:17:41Z</time>
      </trkpt>
      <trkpt lat="42.51169" lon="2.04137">
        <ele>1845.2</ele>
        <time>2026-01-19T14:17:42Z</time>
      </trkpt>
      <trkpt lat="42.51169" lon="2.04137">
        <ele>1845.2</ele>
        <time>2026-01-19T14:17:43Z</time>
      </trkpt>
      <trkpt lat="42.51169" lon="2.04137">
        <ele>1845.2</ele>
        <time>2026-01-19T14:17:44Z</time>
      </trkpt>
      <trkpt lat="42.51171" lon="2.04135">
        <ele>1845.1</ele>
        <time>2026-01-19T14:17:45Z</time>
      </trkpt>
      <trkpt lat="42.51171" lon="2.04134">
        <ele>1845.1</ele>
        <time>2026-01-19T14:17:46Z</time>
      </trkpt>
      <trkpt lat="42.51172" lon="2.04132">
        <ele>1845</ele>
        <time>2026-01-19T14:17:47Z</time>
      </trkpt>
      <trkpt lat="42.51172" lon="2.04131">
        <ele>1845</ele>
        <time>2026-01-19T14:17:48Z</time>
      </trkpt>
      <trkpt lat="42.51173" lon="2.0413">
        <ele>1844.9</ele>
        <time>2026-01-19T14:17:49Z</time>
      </trkpt>
      <trkpt lat="42.51173" lon="2.04129">
        <ele>1844.9</ele>
        <time>2026-01-19T14:17:50Z</time>
      </trkpt>
      <trkpt lat="42.51173" lon="2.04127">
        <ele>1844.9</ele>
        <time>2026-01-19T14:17:51Z</time>
      </trkpt>
      <trkpt lat="42.51174" lon="2.04126">
        <ele>1844.8</ele>
        <time>2026-01-19T14:17:52Z</time>
      </trkpt>
      <trkpt lat="42.51174" lon="2.04125">
        <ele>1844.8</ele>
        <time>2026-01-19T14:17:53Z</time>
      </trkpt>
      <trkpt lat="42.51174" lon="2.04125">
        <ele>1844.7</ele>
        <time>2026-01-19T14:17:54Z</time>
      </trkpt>
      <trkpt lat="42.51174" lon="2.04125">
        <ele>1844.7</ele>
        <time>2026-01-19T14:17:55Z</time>
      </trkpt>
      <trkpt lat="42.51173" lon="2.04126">
        <ele>1844.7</ele>
        <time>2026-01-19T14:17:56Z</time>
      </trkpt>
      <trkpt lat="42.51172" lon="2.04127">
        <ele>1844.6</ele>
        <time>2026-01-19T14:17:57Z</time>
      </trkpt>
      <trkpt lat="42.51172" lon="2.04127">
        <ele>1844.6</ele>
        <time>2026-01-19T14:17:58Z</time>
      </trkpt>
      <trkpt lat="42.51172" lon="2.04127">
        <ele>1844.6</ele>
        <time>2026-01-19T14:17:59Z</time>
      </trkpt>
      <trkpt lat="42.51172" lon="2.04128">
        <ele>1844.6</ele>
        <time>2026-01-19T14:18:00Z</time>
      </trkpt>
      <trkpt lat="42.51172" lon="2.04128">
        <ele>1844.6</ele>
        <time>2026-01-19T14:18:01Z</time>
      </trkpt>
      <trkpt lat="42.51173" lon="2.04127">
        <ele>1844.6</ele>
        <time>2026-01-19T14:18:02Z</time>
      </trkpt>
      <trkpt lat="42.51173" lon="2.04125">
        <ele>1844.5</ele>
        <time>2026-01-19T14:18:03Z</time>
      </trkpt>
      <trkpt lat="42.51174" lon="2.04123">
        <ele>1844.4</ele>
        <time>2026-01-19T14:18:04Z</time>
      </trkpt>
      <trkpt lat="42.51174" lon="2.04121">
        <ele>1844.4</ele>
        <time>2026-01-19T14:18:05Z</time>
      </trkpt>
      <trkpt lat="42.51174" lon="2.04119">
        <ele>1844.3</ele>
        <time>2026-01-19T14:18:06Z</time>
      </trkpt>
      <trkpt lat="42.51175" lon="2.04116">
        <ele>1844.2</ele>
        <time>2026-01-19T14:18:07Z</time>
      </trkpt>
      <trkpt lat="42.51175" lon="2.04115">
        <ele>1844.1</ele>
        <time>2026-01-19T14:18:08Z</time>
      </trkpt>
      <trkpt lat="42.51175" lon="2.04114">
        <ele>1844.1</ele>
        <time>2026-01-19T14:18:09Z</time>
      </trkpt>
      <trkpt lat="42.51176" lon="2.04112">
        <ele>1844</ele>
        <time>2026-01-19T14:18:10Z</time>
      </trkpt>
      <trkpt lat="42.51176" lon="2.0411">
        <ele>1844</ele>
        <time>2026-01-19T14:18:11Z</time>
      </trkpt>
      <trkpt lat="42.51176" lon="2.04108">
        <ele>1843.9</ele>
        <time>2026-01-19T14:18:12Z</time>
      </trkpt>
      <trkpt lat="42.51177" lon="2.04106">
        <ele>1843.9</ele>
        <time>2026-01-19T14:18:13Z</time>
      </trkpt>
      <trkpt lat="42.51177" lon="2.04104">
        <ele>1843.8</ele>
        <time>2026-01-19T14:18:14Z</time>
      </trkpt>
      <trkpt lat="42.51178" lon="2.04103">
        <ele>1843.8</ele>
        <time>2026-01-19T14:18:15Z</time>
      </trkpt>
      <trkpt lat="42.51178" lon="2.04102">
        <ele>1843.7</ele>
        <time>2026-01-19T14:18:16Z</time>
      </trkpt>
      <trkpt lat="42.51178" lon="2.04099">
        <ele>1843.7</ele>
        <time>2026-01-19T14:18:17Z</time>
      </trkpt>
      <trkpt lat="42.51179" lon="2.04098">
        <ele>1843.7</ele>
        <time>2026-01-19T14:18:18Z</time>
      </trkpt>
      <trkpt lat="42.51179" lon="2.04097">
        <ele>1843.6</ele>
        <time>2026-01-19T14:18:19Z</time>
      </trkpt>
      <trkpt lat="42.51179" lon="2.04095">
        <ele>1843.6</ele>
        <time>2026-01-19T14:18:20Z</time>
      </trkpt>
      <trkpt lat="42.51178" lon="2.04093">
        <ele>1843.6</ele>
        <time>2026-01-19T14:18:21Z</time>
      </trkpt>
      <trkpt lat="42.51178" lon="2.04092">
        <ele>1843.5</ele>
        <time>2026-01-19T14:18:22Z</time>
      </trkpt>
      <trkpt lat="42.51178" lon="2.0409">
        <ele>1843.5</ele>
        <time>2026-01-19T14:18:23Z</time>
      </trkpt>
      <trkpt lat="42.51178" lon="2.04089">
        <ele>1843.5</ele>
        <time>2026-01-19T14:18:24Z</time>
      </trkpt>
      <trkpt lat="42.51179" lon="2.04087">
        <ele>1843.4</ele>
        <time>2026-01-19T14:18:25Z</time>
      </trkpt>
      <trkpt lat="42.51179" lon="2.04085">
        <ele>1843.4</ele>
        <time>2026-01-19T14:18:26Z</time>
      </trkpt>
      <trkpt lat="42.51179" lon="2.04084">
        <ele>1843.4</ele>
        <time>2026-01-19T14:18:27Z</time>
      </trkpt>
      <trkpt lat="42.5118" lon="2.04083">
        <ele>1843.3</ele>
        <time>2026-01-19T14:18:28Z</time>
      </trkpt>
      <trkpt lat="42.5118" lon="2.04081">
        <ele>1843.3</ele>
        <time>2026-01-19T14:18:29Z</time>
      </trkpt>
      <trkpt lat="42.5118" lon="2.0408">
        <ele>1843.3</ele>
        <time>2026-01-19T14:18:30Z</time>
      </trkpt>
      <trkpt lat="42.5118" lon="2.04078">
        <ele>1843.3</ele>
        <time>2026-01-19T14:18:31Z</time>
      </trkpt>
      <trkpt lat="42.5118" lon="2.04077">
        <ele>1843.2</ele>
        <time>2026-01-19T14:18:32Z</time>
      </trkpt>
      <trkpt lat="42.51181" lon="2.04075">
        <ele>1843.2</ele>
        <time>2026-01-19T14:18:33Z</time>
      </trkpt>
      <trkpt lat="42.51181" lon="2.04074">
        <ele>1843.2</ele>
        <time>2026-01-19T14:18:34Z</time>
      </trkpt>
      <trkpt lat="42.51181" lon="2.04071">
        <ele>1843.2</ele>
        <time>2026-01-19T14:18:35Z</time>
      </trkpt>
      <trkpt lat="42.51181" lon="2.0407">
        <ele>1843.1</ele>
        <time>2026-01-19T14:18:36Z</time>
      </trkpt>
      <trkpt lat="42.51182" lon="2.04069">
        <ele>1843.1</ele>
        <time>2026-01-19T14:18:37Z</time>
      </trkpt>
      <trkpt lat="42.51182" lon="2.04066">
        <ele>1843.1</ele>
        <time>2026-01-19T14:18:38Z</time>
      </trkpt>
      <trkpt lat="42.51182" lon="2.04065">
        <ele>1843.1</ele>
        <time>2026-01-19T14:18:39Z</time>
      </trkpt>
      <trkpt lat="42.51183" lon="2.04064">
        <ele>1843.1</ele>
        <time>2026-01-19T14:18:40Z</time>
      </trkpt>
      <trkpt lat="42.51183" lon="2.04062">
        <ele>1843</ele>
        <time>2026-01-19T14:18:41Z</time>
      </trkpt>
      <trkpt lat="42.51183" lon="2.0406">
        <ele>1843</ele>
        <time>2026-01-19T14:18:42Z</time>
      </trkpt>
      <trkpt lat="42.51184" lon="2.04058">
        <ele>1843</ele>
        <time>2026-01-19T14:18:43Z</time>
      </trkpt>
      <trkpt lat="42.51184" lon="2.04057">
        <ele>1843</ele>
        <time>2026-01-19T14:18:44Z</time>
      </trkpt>
      <trkpt lat="42.51185" lon="2.04056">
        <ele>1843</ele>
        <time>2026-01-19T14:18:45Z</time>
      </trkpt>
      <trkpt lat="42.51185" lon="2.04054">
        <ele>1843</ele>
        <time>2026-01-19T14:18:46Z</time>
      </trkpt>
      <trkpt lat="42.51186" lon="2.04053">
        <ele>1843</ele>
        <time>2026-01-19T14:18:47Z</time>
      </trkpt>
      <trkpt lat="42.51187" lon="2.04052">
        <ele>1843</ele>
        <time>2026-01-19T14:18:48Z</time>
      </trkpt>
      <trkpt lat="42.51188" lon="2.04051">
        <ele>1843</ele>
        <time>2026-01-19T14:18:49Z</time>
      </trkpt>
      <trkpt lat="42.51189" lon="2.0405">
        <ele>1843</ele>
        <time>2026-01-19T14:18:50Z</time>
      </trkpt>
      <trkpt lat="42.51189" lon="2.04049">
        <ele>1843</ele>
        <time>2026-01-19T14:18:51Z</time>
      </trkpt>
      <trkpt lat="42.5119" lon="2.04049">
        <ele>1843</ele>
        <time>2026-01-19T14:18:52Z</time>
      </trkpt>
      <trkpt lat="42.51191" lon="2.04049">
        <ele>1843</ele>
        <time>2026-01-19T14:18:53Z</time>
      </trkpt>
      <trkpt lat="42.51192" lon="2.04048">
        <ele>1843</ele>
        <time>2026-01-19T14:18:54Z</time>
      </trkpt>
      <trkpt lat="42.51193" lon="2.04047">
        <ele>1843</ele>
        <time>2026-01-19T14:18:55Z</time>
      </trkpt>
      <trkpt lat="42.51194" lon="2.04047">
        <ele>1843</ele>
        <time>2026-01-19T14:18:56Z</time>
      </trkpt>
      <trkpt lat="42.51195" lon="2.04046">
        <ele>1843</ele>
        <time>2026-01-19T14:18:57Z</time>
      </trkpt>
      <trkpt lat="42.51196" lon="2.04045">
        <ele>1843</ele>
        <time>2026-01-19T14:18:58Z</time>
      </trkpt>
      <trkpt lat="42.51197" lon="2.04045">
        <ele>1843</ele>
        <time>2026-01-19T14:18:59Z</time>
      </trkpt>
      <trkpt lat="42.51197" lon="2.04044">
        <ele>1843</ele>
        <time>2026-01-19T14:19:00Z</time>
      </trkpt>
      <trkpt lat="42.51198" lon="2.04043">
        <ele>1843</ele>
        <time>2026-01-19T14:19:01Z</time>
      </trkpt>
      <trkpt lat="42.51198" lon="2.04043">
        <ele>1843</ele>
        <time>2026-01-19T14:19:02Z</time>
      </trkpt>
      <trkpt lat="42.51198" lon="2.04043">
        <ele>1843</ele>
        <time>2026-01-19T14:19:03Z</time>
      </trkpt>
      <trkpt lat="42.51198" lon="2.04043">
        <ele>1843</ele>
        <time>2026-01-19T14:19:04Z</time>
      </trkpt>
      <trkpt lat="42.51198" lon="2.04044">
        <ele>1843</ele>
        <time>2026-01-19T14:19:05Z</time>
      </trkpt>
      <trkpt lat="42.51197" lon="2.04044">
        <ele>1843</ele>
        <time>2026-01-19T14:19:06Z</time>
      </trkpt>
      <trkpt lat="42.51197" lon="2.04044">
        <ele>1843</ele>
        <time>2026-01-19T14:19:07Z</time>
      </trkpt>
      <trkpt lat="42.51197" lon="2.04045">
        <ele>1843</ele>
        <time>2026-01-19T14:19:08Z</time>
      </trkpt>
      <trkpt lat="42.51197" lon="2.04045">
        <ele>1843</ele>
        <time>2026-01-19T14:19:09Z</time>
      </trkpt>
      <trkpt lat="42.51197" lon="2.04045">
        <ele>1843</ele>
        <time>2026-01-19T14:19:10Z</time>
      </trkpt>
      <trkpt lat="42.51196" lon="2.04045">
        <ele>1843</ele>
        <time>2026-01-19T14:19:11Z</time>
      </trkpt>
      <trkpt lat="42.51196" lon="2.04045">
        <ele>1843</ele>
        <time>2026-01-19T14:19:12Z</time>
      </trkpt>
      <trkpt lat="42.51196" lon="2.04046">
        <ele>1843</ele>
        <time>2026-01-19T14:19:13Z</time>
      </trkpt>
      <trkpt lat="42.51196" lon="2.04046">
        <ele>1843</ele>
        <time>2026-01-19T14:19:14Z</time>
      </trkpt>
      <trkpt lat="42.51196" lon="2.04045">
        <ele>1843</ele>
        <time>2026-01-19T14:19:15Z</time>
      </trkpt>
      <trkpt lat="42.51196" lon="2.04045">
        <ele>1843</ele>
        <time>2026-01-19T14:19:16Z</time>
      </trkpt>
      <trkpt lat="42.51196" lon="2.04045">
        <ele>1843</ele>
        <time>2026-01-19T14:19:17Z</time>
      </trkpt>
      <trkpt lat="42.51196" lon="2.04045">
        <ele>1843</ele>
        <time>2026-01-19T14:19:18Z</time>
      </trkpt>
      <trkpt lat="42.51196" lon="2.04045">
        <ele>1843</ele>
        <time>2026-01-19T14:19:19Z</time>
      </trkpt>
      <trkpt lat="42.51196" lon="2.04045">
        <ele>1843</ele>
        <time>2026-01-19T14:19:20Z</time>
      </trkpt>
      <trkpt lat="42.51196" lon="2.04045">
        <ele>1843</ele>
        <time>2026-01-19T14:19:21Z</time>
      </trkpt>
      <trkpt lat="42.51196" lon="2.04045">
        <ele>1843</ele>
        <time>2026-01-19T14:19:22Z</time>
      </trkpt>
      <trkpt lat="42.51196" lon="2.04045">
        <ele>1843</ele>
        <time>2026-01-19T14:19:23Z</time>
      </trkpt>
      <trkpt lat="42.51196" lon="2.04045">
        <ele>1843</ele>
        <time>2026-01-19T14:19:24Z</time>
      </trkpt>
      <trkpt lat="42.51196" lon="2.04045">
        <ele>1843</ele>
        <time>2026-01-19T14:19:25Z</time>
      </trkpt>
      <trkpt lat="42.51196" lon="2.04045">
        <ele>1843</ele>
        <time>2026-01-19T14:19:26Z</time>
      </trkpt>
      <trkpt lat="42.51196" lon="2.04045">
        <ele>1843</ele>
        <time>2026-01-19T14:19:27Z</time>
      </trkpt>
      <trkpt lat="42.51197" lon="2.04044">
        <ele>1843</ele>
        <time>2026-01-19T14:19:28Z</time>
      </trkpt>
      <trkpt lat="42.51197" lon="2.04044">
        <ele>1843</ele>
        <time>2026-01-19T14:19:29Z</time>
      </trkpt>
      <trkpt lat="42.51197" lon="2.04044">
        <ele>1843</ele>
        <time>2026-01-19T14:19:30Z</time>
      </trkpt>
      <trkpt lat="42.51197" lon="2.04044">
        <ele>1843</ele>
        <time>2026-01-19T14:19:31Z</time>
      </trkpt>
      <trkpt lat="42.51197" lon="2.04044">
        <ele>1843</ele>
        <time>2026-01-19T14:19:32Z</time>
      </trkpt>
      <trkpt lat="42.51198" lon="2.04044">
        <ele>1843</ele>
        <time>2026-01-19T14:19:33Z</time>
      </trkpt>
      <trkpt lat="42.51198" lon="2.04044">
        <ele>1843</ele>
        <time>2026-01-19T14:19:34Z</time>
      </trkpt>
      <trkpt lat="42.51198" lon="2.04044">
        <ele>1843</ele>
        <time>2026-01-19T14:19:35Z</time>
      </trkpt>
      <trkpt lat="42.51198" lon="2.04044">
        <ele>1843</ele>
        <time>2026-01-19T14:19:36Z</time>
      </trkpt>
      <trkpt lat="42.51198" lon="2.04044">
        <ele>1843</ele>
        <time>2026-01-19T14:19:37Z</time>
      </trkpt>
      <trkpt lat="42.51198" lon="2.04044">
        <ele>1843</ele>
        <time>2026-01-19T14:19:38Z</time>
      </trkpt>
      <trkpt lat="42.51198" lon="2.04044">
        <ele>1843</ele>
        <time>2026-01-19T14:19:39Z</time>
      </trkpt>
      <trkpt lat="42.51199" lon="2.04044">
        <ele>1843</ele>
        <time>2026-01-19T14:19:40Z</time>
      </trkpt>
      <trkpt lat="42.512" lon="2.04043">
        <ele>1843</ele>
        <time>2026-01-19T14:19:41Z</time>
      </trkpt>
      <trkpt lat="42.51201" lon="2.04043">
        <ele>1843.1</ele>
        <time>2026-01-19T14:19:42Z</time>
      </trkpt>
      <trkpt lat="42.51201" lon="2.04042">
        <ele>1843.1</ele>
        <time>2026-01-19T14:19:43Z</time>
      </trkpt>
      <trkpt lat="42.51202" lon="2.04043">
        <ele>1843.1</ele>
        <time>2026-01-19T14:19:44Z</time>
      </trkpt>
      <trkpt lat="42.51203" lon="2.04043">
        <ele>1843.1</ele>
        <time>2026-01-19T14:19:45Z</time>
      </trkpt>
      <trkpt lat="42.51203" lon="2.04043">
        <ele>1843.1</ele>
        <time>2026-01-19T14:19:46Z</time>
      </trkpt>
      <trkpt lat="42.51204" lon="2.04044">
        <ele>1843.1</ele>
        <time>2026-01-19T14:19:47Z</time>
      </trkpt>
      <trkpt lat="42.51206" lon="2.04044">
        <ele>1843.1</ele>
        <time>2026-01-19T14:19:48Z</time>
      </trkpt>
      <trkpt lat="42.51207" lon="2.04043">
        <ele>1843.1</ele>
        <time>2026-01-19T14:19:49Z</time>
      </trkpt>
      <trkpt lat="42.51207" lon="2.04043">
        <ele>1843.1</ele>
        <time>2026-01-19T14:19:50Z</time>
      </trkpt>
      <trkpt lat="42.51209" lon="2.04043">
        <ele>1843.1</ele>
        <time>2026-01-19T14:19:51Z</time>
      </trkpt>
      <trkpt lat="42.5121" lon="2.04042">
        <ele>1843.1</ele>
        <time>2026-01-19T14:19:52Z</time>
      </trkpt>
      <trkpt lat="42.51211" lon="2.04041">
        <ele>1843.1</ele>
        <time>2026-01-19T14:19:53Z</time>
      </trkpt>
      <trkpt lat="42.51212" lon="2.04041">
        <ele>1843.1</ele>
        <time>2026-01-19T14:19:54Z</time>
      </trkpt>
      <trkpt lat="42.51213" lon="2.0404">
        <ele>1843.1</ele>
        <time>2026-01-19T14:19:55Z</time>
      </trkpt>
      <trkpt lat="42.51214" lon="2.0404">
        <ele>1843.1</ele>
        <time>2026-01-19T14:19:56Z</time>
      </trkpt>
      <trkpt lat="42.51215" lon="2.0404">
        <ele>1843.1</ele>
        <time>2026-01-19T14:19:57Z</time>
      </trkpt>
      <trkpt lat="42.51216" lon="2.0404">
        <ele>1843.1</ele>
        <time>2026-01-19T14:19:58Z</time>
      </trkpt>
      <trkpt lat="42.51217" lon="2.0404">
        <ele>1843.1</ele>
        <time>2026-01-19T14:19:59Z</time>
      </trkpt>
      <trkpt lat="42.51218" lon="2.0404">
        <ele>1843.2</ele>
        <time>2026-01-19T14:20:00Z</time>
      </trkpt>
      <trkpt lat="42.51219" lon="2.0404">
        <ele>1843.2</ele>
        <time>2026-01-19T14:20:01Z</time>
      </trkpt>
      <trkpt lat="42.5122" lon="2.0404">
        <ele>1843.2</ele>
        <time>2026-01-19T14:20:02Z</time>
      </trkpt>
      <trkpt lat="42.51221" lon="2.0404">
        <ele>1843.2</ele>
        <time>2026-01-19T14:20:03Z</time>
      </trkpt>
      <trkpt lat="42.51222" lon="2.0404">
        <ele>1843.2</ele>
        <time>2026-01-19T14:20:04Z</time>
      </trkpt>
      <trkpt lat="42.51224" lon="2.0404">
        <ele>1843.2</ele>
        <time>2026-01-19T14:20:05Z</time>
      </trkpt>
      <trkpt lat="42.51225" lon="2.04039">
        <ele>1843.2</ele>
        <time>2026-01-19T14:20:06Z</time>
      </trkpt>
      <trkpt lat="42.51226" lon="2.04039">
        <ele>1843.2</ele>
        <time>2026-01-19T14:20:07Z</time>
      </trkpt>
      <trkpt lat="42.51227" lon="2.04039">
        <ele>1843.2</ele>
        <time>2026-01-19T14:20:08Z</time>
      </trkpt>
      <trkpt lat="42.51228" lon="2.04039">
        <ele>1843.3</ele>
        <time>2026-01-19T14:20:09Z</time>
      </trkpt>
      <trkpt lat="42.51229" lon="2.04039">
        <ele>1843.3</ele>
        <time>2026-01-19T14:20:10Z</time>
      </trkpt>
      <trkpt lat="42.5123" lon="2.04039">
        <ele>1843.3</ele>
        <time>2026-01-19T14:20:11Z</time>
      </trkpt>
      <trkpt lat="42.51231" lon="2.04038">
        <ele>1843.3</ele>
        <time>2026-01-19T14:20:12Z</time>
      </trkpt>
      <trkpt lat="42.51232" lon="2.04038">
        <ele>1843.3</ele>
        <time>2026-01-19T14:20:13Z</time>
      </trkpt>
      <trkpt lat="42.51233" lon="2.04038">
        <ele>1843.3</ele>
        <time>2026-01-19T14:20:14Z</time>
      </trkpt>
      <trkpt lat="42.51234" lon="2.04038">
        <ele>1843.3</ele>
        <time>2026-01-19T14:20:15Z</time>
      </trkpt>
      <trkpt lat="42.51235" lon="2.04038">
        <ele>1843.3</ele>
        <time>2026-01-19T14:20:16Z</time>
      </trkpt>
      <trkpt lat="42.51236" lon="2.04037">
        <ele>1843.3</ele>
        <time>2026-01-19T14:20:17Z</time>
      </trkpt>
      <trkpt lat="42.51237" lon="2.04037">
        <ele>1843.3</ele>
        <time>2026-01-19T14:20:18Z</time>
      </trkpt>
      <trkpt lat="42.51238" lon="2.04037">
        <ele>1843.4</ele>
        <time>2026-01-19T14:20:19Z</time>
      </trkpt>
      <trkpt lat="42.51239" lon="2.04036">
        <ele>1843.4</ele>
        <time>2026-01-19T14:20:20Z</time>
      </trkpt>
      <trkpt lat="42.5124" lon="2.04036">
        <ele>1843.4</ele>
        <time>2026-01-19T14:20:21Z</time>
      </trkpt>
      <trkpt lat="42.51241" lon="2.04036">
        <ele>1843.4</ele>
        <time>2026-01-19T14:20:22Z</time>
      </trkpt>
      <trkpt lat="42.51242" lon="2.04036">
        <ele>1843.4</ele>
        <time>2026-01-19T14:20:23Z</time>
      </trkpt>
      <trkpt lat="42.51243" lon="2.04036">
        <ele>1843.4</ele>
        <time>2026-01-19T14:20:24Z</time>
      </trkpt>
      <trkpt lat="42.51244" lon="2.04036">
        <ele>1843.4</ele>
        <time>2026-01-19T14:20:25Z</time>
      </trkpt>
      <trkpt lat="42.51245" lon="2.04036">
        <ele>1843.5</ele>
        <time>2026-01-19T14:20:26Z</time>
      </trkpt>
      <trkpt lat="42.51247" lon="2.04035">
        <ele>1843.5</ele>
        <time>2026-01-19T14:20:27Z</time>
      </trkpt>
      <trkpt lat="42.51248" lon="2.04035">
        <ele>1843.5</ele>
        <time>2026-01-19T14:20:28Z</time>
      </trkpt>
      <trkpt lat="42.51249" lon="2.04035">
        <ele>1843.5</ele>
        <time>2026-01-19T14:20:29Z</time>
      </trkpt>
      <trkpt lat="42.5125" lon="2.04035">
        <ele>1843.5</ele>
        <time>2026-01-19T14:20:30Z</time>
      </trkpt>
      <trkpt lat="42.51251" lon="2.04035">
        <ele>1843.5</ele>
        <time>2026-01-19T14:20:31Z</time>
      </trkpt>
      <trkpt lat="42.51252" lon="2.04034">
        <ele>1843.6</ele>
        <time>2026-01-19T14:20:32Z</time>
      </trkpt>
      <trkpt lat="42.51254" lon="2.04033">
        <ele>1843.6</ele>
        <time>2026-01-19T14:20:33Z</time>
      </trkpt>
      <trkpt lat="42.51255" lon="2.04033">
        <ele>1843.6</ele>
        <time>2026-01-19T14:20:34Z</time>
      </trkpt>
      <trkpt lat="42.51256" lon="2.04033">
        <ele>1843.6</ele>
        <time>2026-01-19T14:20:35Z</time>
      </trkpt>
      <trkpt lat="42.51257" lon="2.04032">
        <ele>1843.6</ele>
        <time>2026-01-19T14:20:36Z</time>
      </trkpt>
      <trkpt lat="42.51258" lon="2.04033">
        <ele>1843.7</ele>
        <time>2026-01-19T14:20:37Z</time>
      </trkpt>
      <trkpt lat="42.51259" lon="2.04033">
        <ele>1843.7</ele>
        <time>2026-01-19T14:20:38Z</time>
      </trkpt>
      <trkpt lat="42.51261" lon="2.04032">
        <ele>1843.7</ele>
        <time>2026-01-19T14:20:39Z</time>
      </trkpt>
      <trkpt lat="42.51261" lon="2.04031">
        <ele>1843.7</ele>
        <time>2026-01-19T14:20:40Z</time>
      </trkpt>
      <trkpt lat="42.51262" lon="2.0403">
        <ele>1843.8</ele>
        <time>2026-01-19T14:20:41Z</time>
      </trkpt>
      <trkpt lat="42.51263" lon="2.0403">
        <ele>1843.8</ele>
        <time>2026-01-19T14:20:42Z</time>
      </trkpt>
      <trkpt lat="42.51264" lon="2.04029">
        <ele>1843.8</ele>
        <time>2026-01-19T14:20:43Z</time>
      </trkpt>
      <trkpt lat="42.51265" lon="2.04028">
        <ele>1843.8</ele>
        <time>2026-01-19T14:20:44Z</time>
      </trkpt>
      <trkpt lat="42.51266" lon="2.04027">
        <ele>1843.9</ele>
        <time>2026-01-19T14:20:45Z</time>
      </trkpt>
      <trkpt lat="42.51267" lon="2.04026">
        <ele>1843.9</ele>
        <time>2026-01-19T14:20:46Z</time>
      </trkpt>
      <trkpt lat="42.51267" lon="2.04025">
        <ele>1843.9</ele>
        <time>2026-01-19T14:20:47Z</time>
      </trkpt>
      <trkpt lat="42.51268" lon="2.04024">
        <ele>1843.9</ele>
        <time>2026-01-19T14:20:48Z</time>
      </trkpt>
      <trkpt lat="42.51269" lon="2.04023">
        <ele>1844</ele>
        <time>2026-01-19T14:20:49Z</time>
      </trkpt>
      <trkpt lat="42.51269" lon="2.04021">
        <ele>1844</ele>
        <time>2026-01-19T14:20:50Z</time>
      </trkpt>
      <trkpt lat="42.5127" lon="2.04019">
        <ele>1844</ele>
        <time>2026-01-19T14:20:51Z</time>
      </trkpt>
      <trkpt lat="42.51271" lon="2.04018">
        <ele>1844</ele>
        <time>2026-01-19T14:20:52Z</time>
      </trkpt>
      <trkpt lat="42.51271" lon="2.04017">
        <ele>1844</ele>
        <time>2026-01-19T14:20:53Z</time>
      </trkpt>
      <trkpt lat="42.51271" lon="2.04015">
        <ele>1844.1</ele>
        <time>2026-01-19T14:20:54Z</time>
      </trkpt>
      <trkpt lat="42.51271" lon="2.04014">
        <ele>1844.1</ele>
        <time>2026-01-19T14:20:55Z</time>
      </trkpt>
      <trkpt lat="42.51272" lon="2.04012">
        <ele>1844.1</ele>
        <time>2026-01-19T14:20:56Z</time>
      </trkpt>
      <trkpt lat="42.51272" lon="2.04011">
        <ele>1844.1</ele>
        <time>2026-01-19T14:20:57Z</time>
      </trkpt>
      <trkpt lat="42.51272" lon="2.0401">
        <ele>1844.1</ele>
        <time>2026-01-19T14:20:58Z</time>
      </trkpt>
      <trkpt lat="42.51272" lon="2.04008">
        <ele>1844.1</ele>
        <time>2026-01-19T14:20:59Z</time>
      </trkpt>
      <trkpt lat="42.51272" lon="2.04007">
        <ele>1844.1</ele>
        <time>2026-01-19T14:21:00Z</time>
      </trkpt>
      <trkpt lat="42.51272" lon="2.04006">
        <ele>1844.1</ele>
        <time>2026-01-19T14:21:01Z</time>
      </trkpt>
      <trkpt lat="42.51272" lon="2.04004">
        <ele>1844.1</ele>
        <time>2026-01-19T14:21:02Z</time>
      </trkpt>
      <trkpt lat="42.51272" lon="2.04003">
        <ele>1844.1</ele>
        <time>2026-01-19T14:21:03Z</time>
      </trkpt>
      <trkpt lat="42.51272" lon="2.04002">
        <ele>1844.2</ele>
        <time>2026-01-19T14:21:04Z</time>
      </trkpt>
      <trkpt lat="42.51272" lon="2.04">
        <ele>1844.2</ele>
        <time>2026-01-19T14:21:05Z</time>
      </trkpt>
      <trkpt lat="42.51273" lon="2.03999">
        <ele>1844.2</ele>
        <time>2026-01-19T14:21:06Z</time>
      </trkpt>
      <trkpt lat="42.51273" lon="2.03998">
        <ele>1844.2</ele>
        <time>2026-01-19T14:21:07Z</time>
      </trkpt>
      <trkpt lat="42.51273" lon="2.03996">
        <ele>1844.2</ele>
        <time>2026-01-19T14:21:08Z</time>
      </trkpt>
      <trkpt lat="42.51273" lon="2.03995">
        <ele>1844.2</ele>
        <time>2026-01-19T14:21:09Z</time>
      </trkpt>
      <trkpt lat="42.51273" lon="2.03993">
        <ele>1844.2</ele>
        <time>2026-01-19T14:21:10Z</time>
      </trkpt>
      <trkpt lat="42.51273" lon="2.03992">
        <ele>1844.2</ele>
        <time>2026-01-19T14:21:11Z</time>
      </trkpt>
      <trkpt lat="42.51274" lon="2.03989">
        <ele>1844.2</ele>
        <time>2026-01-19T14:21:12Z</time>
      </trkpt>
      <trkpt lat="42.51274" lon="2.03988">
        <ele>1844.2</ele>
        <time>2026-01-19T14:21:13Z</time>
      </trkpt>
      <trkpt lat="42.51274" lon="2.03987">
        <ele>1844.3</ele>
        <time>2026-01-19T14:21:14Z</time>
      </trkpt>
      <trkpt lat="42.51275" lon="2.03986">
        <ele>1844.3</ele>
        <time>2026-01-19T14:21:15Z</time>
      </trkpt>
      <trkpt lat="42.51275" lon="2.03986">
        <ele>1844.3</ele>
        <time>2026-01-19T14:21:16Z</time>
      </trkpt>
      <trkpt lat="42.51276" lon="2.03985">
        <ele>1844.3</ele>
        <time>2026-01-19T14:21:17Z</time>
      </trkpt>
      <trkpt lat="42.51277" lon="2.03985">
        <ele>1844.3</ele>
        <time>2026-01-19T14:21:18Z</time>
      </trkpt>
      <trkpt lat="42.51277" lon="2.03985">
        <ele>1844.3</ele>
        <time>2026-01-19T14:21:19Z</time>
      </trkpt>
      <trkpt lat="42.51277" lon="2.03984">
        <ele>1844.3</ele>
        <time>2026-01-19T14:21:20Z</time>
      </trkpt>
      <trkpt lat="42.51277" lon="2.03984">
        <ele>1844.3</ele>
        <time>2026-01-19T14:21:21Z</time>
      </trkpt>
      <trkpt lat="42.51277" lon="2.03984">
        <ele>1844.3</ele>
        <time>2026-01-19T14:21:22Z</time>
      </trkpt>
      <trkpt lat="42.51278" lon="2.03983">
        <ele>1844.3</ele>
        <time>2026-01-19T14:21:23Z</time>
      </trkpt>
      <trkpt lat="42.51278" lon="2.03981">
        <ele>1844.4</ele>
        <time>2026-01-19T14:21:24Z</time>
      </trkpt>
      <trkpt lat="42.51278" lon="2.03978">
        <ele>1844.4</ele>
        <time>2026-01-19T14:21:25Z</time>
      </trkpt>
      <trkpt lat="42.51278" lon="2.03977">
        <ele>1844.4</ele>
        <time>2026-01-19T14:21:26Z</time>
      </trkpt>
      <trkpt lat="42.51278" lon="2.03975">
        <ele>1844.4</ele>
        <time>2026-01-19T14:21:27Z</time>
      </trkpt>
      <trkpt lat="42.51277" lon="2.03974">
        <ele>1844.4</ele>
        <time>2026-01-19T14:21:28Z</time>
      </trkpt>
      <trkpt lat="42.51278" lon="2.03972">
        <ele>1844.5</ele>
        <time>2026-01-19T14:21:29Z</time>
      </trkpt>
      <trkpt lat="42.51278" lon="2.03971">
        <ele>1844.5</ele>
        <time>2026-01-19T14:21:30Z</time>
      </trkpt>
      <trkpt lat="42.51278" lon="2.03969">
        <ele>1844.5</ele>
        <time>2026-01-19T14:21:31Z</time>
      </trkpt>
      <trkpt lat="42.51279" lon="2.03968">
        <ele>1844.5</ele>
        <time>2026-01-19T14:21:32Z</time>
      </trkpt>
      <trkpt lat="42.51279" lon="2.03966">
        <ele>1844.5</ele>
        <time>2026-01-19T14:21:33Z</time>
      </trkpt>
      <trkpt lat="42.5128" lon="2.03965">
        <ele>1844.5</ele>
        <time>2026-01-19T14:21:34Z</time>
      </trkpt>
      <trkpt lat="42.5128" lon="2.03964">
        <ele>1844.6</ele>
        <time>2026-01-19T14:21:35Z</time>
      </trkpt>
      <trkpt lat="42.51281" lon="2.03963">
        <ele>1844.6</ele>
        <time>2026-01-19T14:21:36Z</time>
      </trkpt>
      <trkpt lat="42.51282" lon="2.03962">
        <ele>1844.6</ele>
        <time>2026-01-19T14:21:37Z</time>
      </trkpt>
      <trkpt lat="42.51282" lon="2.03961">
        <ele>1844.6</ele>
        <time>2026-01-19T14:21:38Z</time>
      </trkpt>
      <trkpt lat="42.51283" lon="2.0396">
        <ele>1844.6</ele>
        <time>2026-01-19T14:21:39Z</time>
      </trkpt>
      <trkpt lat="42.51283" lon="2.03958">
        <ele>1844.7</ele>
        <time>2026-01-19T14:21:40Z</time>
      </trkpt>
      <trkpt lat="42.51284" lon="2.03957">
        <ele>1844.7</ele>
        <time>2026-01-19T14:21:41Z</time>
      </trkpt>
      <trkpt lat="42.51284" lon="2.03956">
        <ele>1844.7</ele>
        <time>2026-01-19T14:21:42Z</time>
      </trkpt>
      <trkpt lat="42.51286" lon="2.03954">
        <ele>1844.7</ele>
        <time>2026-01-19T14:21:43Z</time>
      </trkpt>
      <trkpt lat="42.51286" lon="2.03953">
        <ele>1844.8</ele>
        <time>2026-01-19T14:21:44Z</time>
      </trkpt>
      <trkpt lat="42.51286" lon="2.03952">
        <ele>1844.8</ele>
        <time>2026-01-19T14:21:45Z</time>
      </trkpt>
      <trkpt lat="42.51287" lon="2.0395">
        <ele>1844.8</ele>
        <time>2026-01-19T14:21:46Z</time>
      </trkpt>
      <trkpt lat="42.51287" lon="2.03949">
        <ele>1844.8</ele>
        <time>2026-01-19T14:21:47Z</time>
      </trkpt>
      <trkpt lat="42.51287" lon="2.03947">
        <ele>1844.9</ele>
        <time>2026-01-19T14:21:48Z</time>
      </trkpt>
      <trkpt lat="42.51287" lon="2.03946">
        <ele>1844.9</ele>
        <time>2026-01-19T14:21:49Z</time>
      </trkpt>
      <trkpt lat="42.51288" lon="2.03945">
        <ele>1844.9</ele>
        <time>2026-01-19T14:21:50Z</time>
      </trkpt>
      <trkpt lat="42.51289" lon="2.03943">
        <ele>1844.9</ele>
        <time>2026-01-19T14:21:51Z</time>
      </trkpt>
      <trkpt lat="42.51289" lon="2.03942">
        <ele>1845</ele>
        <time>2026-01-19T14:21:52Z</time>
      </trkpt>
      <trkpt lat="42.5129" lon="2.03941">
        <ele>1845</ele>
        <time>2026-01-19T14:21:53Z</time>
      </trkpt>
      <trkpt lat="42.5129" lon="2.0394">
        <ele>1845</ele>
        <time>2026-01-19T14:21:54Z</time>
      </trkpt>
      <trkpt lat="42.51291" lon="2.03938">
        <ele>1845.1</ele>
        <time>2026-01-19T14:21:55Z</time>
      </trkpt>
      <trkpt lat="42.51291" lon="2.03937">
        <ele>1845.1</ele>
        <time>2026-01-19T14:21:56Z</time>
      </trkpt>
      <trkpt lat="42.51292" lon="2.03936">
        <ele>1845.1</ele>
        <time>2026-01-19T14:21:57Z</time>
      </trkpt>
      <trkpt lat="42.51293" lon="2.03934">
        <ele>1845.2</ele>
        <time>2026-01-19T14:21:58Z</time>
      </trkpt>
      <trkpt lat="42.51293" lon="2.03933">
        <ele>1845.2</ele>
        <time>2026-01-19T14:21:59Z</time>
      </trkpt>
      <trkpt lat="42.51294" lon="2.03932">
        <ele>1845.2</ele>
        <time>2026-01-19T14:22:00Z</time>
      </trkpt>
      <trkpt lat="42.51294" lon="2.03931">
        <ele>1845.3</ele>
        <time>2026-01-19T14:22:01Z</time>
      </trkpt>
      <trkpt lat="42.51295" lon="2.0393">
        <ele>1845.3</ele>
        <time>2026-01-19T14:22:02Z</time>
      </trkpt>
      <trkpt lat="42.51295" lon="2.03928">
        <ele>1845.3</ele>
        <time>2026-01-19T14:22:03Z</time>
      </trkpt>
      <trkpt lat="42.51296" lon="2.03927">
        <ele>1845.4</ele>
        <time>2026-01-19T14:22:04Z</time>
      </trkpt>
      <trkpt lat="42.51297" lon="2.03926">
        <ele>1845.4</ele>
        <time>2026-01-19T14:22:05Z</time>
      </trkpt>
      <trkpt lat="42.51297" lon="2.03925">
        <ele>1845.4</ele>
        <time>2026-01-19T14:22:06Z</time>
      </trkpt>
      <trkpt lat="42.51298" lon="2.03924">
        <ele>1845.5</ele>
        <time>2026-01-19T14:22:07Z</time>
      </trkpt>
      <trkpt lat="42.51299" lon="2.03923">
        <ele>1845.5</ele>
        <time>2026-01-19T14:22:08Z</time>
      </trkpt>
      <trkpt lat="42.513" lon="2.03922">
        <ele>1845.6</ele>
        <time>2026-01-19T14:22:09Z</time>
      </trkpt>
      <trkpt lat="42.513" lon="2.03922">
        <ele>1845.6</ele>
        <time>2026-01-19T14:22:10Z</time>
      </trkpt>
      <trkpt lat="42.51301" lon="2.03921">
        <ele>1845.6</ele>
        <time>2026-01-19T14:22:11Z</time>
      </trkpt>
      <trkpt lat="42.51302" lon="2.03921">
        <ele>1845.7</ele>
        <time>2026-01-19T14:22:12Z</time>
      </trkpt>
      <trkpt lat="42.51303" lon="2.0392">
        <ele>1845.7</ele>
        <time>2026-01-19T14:22:13Z</time>
      </trkpt>
      <trkpt lat="42.51304" lon="2.0392">
        <ele>1845.7</ele>
        <time>2026-01-19T14:22:14Z</time>
      </trkpt>
      <trkpt lat="42.51305" lon="2.03919">
        <ele>1845.8</ele>
        <time>2026-01-19T14:22:15Z</time>
      </trkpt>
      <trkpt lat="42.51306" lon="2.03919">
        <ele>1845.8</ele>
        <time>2026-01-19T14:22:16Z</time>
      </trkpt>
      <trkpt lat="42.51307" lon="2.03918">
        <ele>1845.9</ele>
        <time>2026-01-19T14:22:17Z</time>
      </trkpt>
      <trkpt lat="42.51308" lon="2.03917">
        <ele>1845.9</ele>
        <time>2026-01-19T14:22:18Z</time>
      </trkpt>
      <trkpt lat="42.51308" lon="2.03916">
        <ele>1846</ele>
        <time>2026-01-19T14:22:19Z</time>
      </trkpt>
      <trkpt lat="42.51309" lon="2.03915">
        <ele>1846</ele>
        <time>2026-01-19T14:22:20Z</time>
      </trkpt>
      <trkpt lat="42.5131" lon="2.03914">
        <ele>1846.1</ele>
        <time>2026-01-19T14:22:21Z</time>
      </trkpt>
      <trkpt lat="42.51311" lon="2.03914">
        <ele>1846.1</ele>
        <time>2026-01-19T14:22:22Z</time>
      </trkpt>
      <trkpt lat="42.51312" lon="2.03913">
        <ele>1846.2</ele>
        <time>2026-01-19T14:22:23Z</time>
      </trkpt>
      <trkpt lat="42.51313" lon="2.03912">
        <ele>1846.3</ele>
        <time>2026-01-19T14:22:24Z</time>
      </trkpt>
      <trkpt lat="42.51313" lon="2.03911">
        <ele>1846.3</ele>
        <time>2026-01-19T14:22:25Z</time>
      </trkpt>
      <trkpt lat="42.51314" lon="2.0391">
        <ele>1846.4</ele>
        <time>2026-01-19T14:22:26Z</time>
      </trkpt>
      <trkpt lat="42.51315" lon="2.03909">
        <ele>1846.4</ele>
        <time>2026-01-19T14:22:27Z</time>
      </trkpt>
      <trkpt lat="42.51316" lon="2.03909">
        <ele>1846.5</ele>
        <time>2026-01-19T14:22:28Z</time>
      </trkpt>
      <trkpt lat="42.51317" lon="2.03908">
        <ele>1846.6</ele>
        <time>2026-01-19T14:22:29Z</time>
      </trkpt>
      <trkpt lat="42.51318" lon="2.03907">
        <ele>1846.6</ele>
        <time>2026-01-19T14:22:30Z</time>
      </trkpt>
      <trkpt lat="42.51319" lon="2.03907">
        <ele>1846.7</ele>
        <time>2026-01-19T14:22:31Z</time>
      </trkpt>
      <trkpt lat="42.51319" lon="2.03906">
        <ele>1846.8</ele>
        <time>2026-01-19T14:22:32Z</time>
      </trkpt>
      <trkpt lat="42.5132" lon="2.03905">
        <ele>1846.8</ele>
        <time>2026-01-19T14:22:33Z</time>
      </trkpt>
      <trkpt lat="42.51321" lon="2.03905">
        <ele>1846.9</ele>
        <time>2026-01-19T14:22:34Z</time>
      </trkpt>
      <trkpt lat="42.51322" lon="2.03904">
        <ele>1847</ele>
        <time>2026-01-19T14:22:35Z</time>
      </trkpt>
      <trkpt lat="42.51323" lon="2.03903">
        <ele>1847.1</ele>
        <time>2026-01-19T14:22:36Z</time>
      </trkpt>
      <trkpt lat="42.51324" lon="2.03903">
        <ele>1847.2</ele>
        <time>2026-01-19T14:22:37Z</time>
      </trkpt>
      <trkpt lat="42.51325" lon="2.03902">
        <ele>1847.2</ele>
        <time>2026-01-19T14:22:38Z</time>
      </trkpt>
      <trkpt lat="42.51326" lon="2.03901">
        <ele>1847.3</ele>
        <time>2026-01-19T14:22:39Z</time>
      </trkpt>
      <trkpt lat="42.51327" lon="2.039">
        <ele>1847.4</ele>
        <time>2026-01-19T14:22:40Z</time>
      </trkpt>
      <trkpt lat="42.51328" lon="2.03899">
        <ele>1847.5</ele>
        <time>2026-01-19T14:22:41Z</time>
      </trkpt>
      <trkpt lat="42.51328" lon="2.03899">
        <ele>1847.6</ele>
        <time>2026-01-19T14:22:42Z</time>
      </trkpt>
      <trkpt lat="42.51329" lon="2.03898">
        <ele>1847.6</ele>
        <time>2026-01-19T14:22:43Z</time>
      </trkpt>
      <trkpt lat="42.5133" lon="2.03898">
        <ele>1847.7</ele>
        <time>2026-01-19T14:22:44Z</time>
      </trkpt>
      <trkpt lat="42.51331" lon="2.03898">
        <ele>1847.8</ele>
        <time>2026-01-19T14:22:45Z</time>
      </trkpt>
      <trkpt lat="42.51332" lon="2.03898">
        <ele>1847.8</ele>
        <time>2026-01-19T14:22:46Z</time>
      </trkpt>
      <trkpt lat="42.51332" lon="2.03897">
        <ele>1847.9</ele>
        <time>2026-01-19T14:22:47Z</time>
      </trkpt>
      <trkpt lat="42.51333" lon="2.03897">
        <ele>1848</ele>
        <time>2026-01-19T14:22:48Z</time>
      </trkpt>
      <trkpt lat="42.51334" lon="2.03896">
        <ele>1848</ele>
        <time>2026-01-19T14:22:49Z</time>
      </trkpt>
      <trkpt lat="42.51335" lon="2.03896">
        <ele>1848.1</ele>
        <time>2026-01-19T14:22:50Z</time>
      </trkpt>
      <trkpt lat="42.51336" lon="2.03895">
        <ele>1848.2</ele>
        <time>2026-01-19T14:22:51Z</time>
      </trkpt>
      <trkpt lat="42.51336" lon="2.03894">
        <ele>1848.3</ele>
        <time>2026-01-19T14:22:52Z</time>
      </trkpt>
      <trkpt lat="42.51337" lon="2.03893">
        <ele>1848.4</ele>
        <time>2026-01-19T14:22:54Z</time>
      </trkpt>
      <trkpt lat="42.51338" lon="2.03892">
        <ele>1848.5</ele>
        <time>2026-01-19T14:22:55Z</time>
      </trkpt>
      <trkpt lat="42.51339" lon="2.03892">
        <ele>1848.5</ele>
        <time>2026-01-19T14:22:56Z</time>
      </trkpt>
      <trkpt lat="42.51339" lon="2.03892">
        <ele>1848.5</ele>
        <time>2026-01-19T14:22:57Z</time>
      </trkpt>
      <trkpt lat="42.51338" lon="2.03892">
        <ele>1848.5</ele>
        <time>2026-01-19T14:22:58Z</time>
      </trkpt>
      <trkpt lat="42.51338" lon="2.03893">
        <ele>1848.6</ele>
        <time>2026-01-19T14:22:59Z</time>
      </trkpt>
      <trkpt lat="42.51338" lon="2.03893">
        <ele>1848.6</ele>
        <time>2026-01-19T14:23:00Z</time>
      </trkpt>
      <trkpt lat="42.51339" lon="2.03892">
        <ele>1848.6</ele>
        <time>2026-01-19T14:23:01Z</time>
      </trkpt>
      <trkpt lat="42.5134" lon="2.03891">
        <ele>1848.7</ele>
        <time>2026-01-19T14:23:02Z</time>
      </trkpt>
      <trkpt lat="42.5134" lon="2.0389">
        <ele>1848.8</ele>
        <time>2026-01-19T14:23:03Z</time>
      </trkpt>
      <trkpt lat="42.51341" lon="2.03889">
        <ele>1848.9</ele>
        <time>2026-01-19T14:23:04Z</time>
      </trkpt>
      <trkpt lat="42.51341" lon="2.03888">
        <ele>1848.9</ele>
        <time>2026-01-19T14:23:05Z</time>
      </trkpt>
      <trkpt lat="42.51342" lon="2.03886">
        <ele>1849</ele>
        <time>2026-01-19T14:23:06Z</time>
      </trkpt>
      <trkpt lat="42.51343" lon="2.03885">
        <ele>1849.1</ele>
        <time>2026-01-19T14:23:07Z</time>
      </trkpt>
      <trkpt lat="42.51344" lon="2.03885">
        <ele>1849.2</ele>
        <time>2026-01-19T14:23:08Z</time>
      </trkpt>
      <trkpt lat="42.51344" lon="2.03884">
        <ele>1849.3</ele>
        <time>2026-01-19T14:23:09Z</time>
      </trkpt>
      <trkpt lat="42.51345" lon="2.03883">
        <ele>1849.3</ele>
        <time>2026-01-19T14:23:10Z</time>
      </trkpt>
      <trkpt lat="42.51346" lon="2.03882">
        <ele>1849.4</ele>
        <time>2026-01-19T14:23:11Z</time>
      </trkpt>
      <trkpt lat="42.51347" lon="2.03881">
        <ele>1849.5</ele>
        <time>2026-01-19T14:23:12Z</time>
      </trkpt>
      <trkpt lat="42.51348" lon="2.03879">
        <ele>1849.6</ele>
        <time>2026-01-19T14:23:13Z</time>
      </trkpt>
      <trkpt lat="42.51349" lon="2.03878">
        <ele>1849.7</ele>
        <time>2026-01-19T14:23:14Z</time>
      </trkpt>
      <trkpt lat="42.51348" lon="2.03878">
        <ele>1849.7</ele>
        <time>2026-01-19T14:23:15Z</time>
      </trkpt>
      <trkpt lat="42.51348" lon="2.03877">
        <ele>1849.8</ele>
        <time>2026-01-19T14:23:16Z</time>
      </trkpt>
      <trkpt lat="42.51347" lon="2.03878">
        <ele>1849.8</ele>
        <time>2026-01-19T14:23:17Z</time>
      </trkpt>
      <trkpt lat="42.51347" lon="2.03878">
        <ele>1849.8</ele>
        <time>2026-01-19T14:23:18Z</time>
      </trkpt>
      <trkpt lat="42.51347" lon="2.03878">
        <ele>1849.8</ele>
        <time>2026-01-19T14:23:19Z</time>
      </trkpt>
      <trkpt lat="42.51348" lon="2.03878">
        <ele>1849.8</ele>
        <time>2026-01-19T14:23:20Z</time>
      </trkpt>
      <trkpt lat="42.51348" lon="2.03878">
        <ele>1849.9</ele>
        <time>2026-01-19T14:23:21Z</time>
      </trkpt>
      <trkpt lat="42.51348" lon="2.03878">
        <ele>1849.9</ele>
        <time>2026-01-19T14:23:22Z</time>
      </trkpt>
      <trkpt lat="42.51348" lon="2.03878">
        <ele>1849.9</ele>
        <time>2026-01-19T14:23:23Z</time>
      </trkpt>
      <trkpt lat="42.51348" lon="2.03878">
        <ele>1849.9</ele>
        <time>2026-01-19T14:23:24Z</time>
      </trkpt>
      <trkpt lat="42.51348" lon="2.03878">
        <ele>1849.9</ele>
        <time>2026-01-19T14:23:25Z</time>
      </trkpt>
      <trkpt lat="42.51349" lon="2.03878">
        <ele>1849.9</ele>
        <time>2026-01-19T14:23:26Z</time>
      </trkpt>
      <trkpt lat="42.51349" lon="2.03878">
        <ele>1849.9</ele>
        <time>2026-01-19T14:23:27Z</time>
      </trkpt>
      <trkpt lat="42.51349" lon="2.03878">
        <ele>1849.9</ele>
        <time>2026-01-19T14:23:28Z</time>
      </trkpt>
      <trkpt lat="42.51349" lon="2.03878">
        <ele>1849.9</ele>
        <time>2026-01-19T14:23:29Z</time>
      </trkpt>
      <trkpt lat="42.51349" lon="2.03878">
        <ele>1849.9</ele>
        <time>2026-01-19T14:23:30Z</time>
      </trkpt>
      <trkpt lat="42.51349" lon="2.03878">
        <ele>1849.9</ele>
        <time>2026-01-19T14:23:31Z</time>
      </trkpt>
      <trkpt lat="42.51349" lon="2.03878">
        <ele>1850</ele>
        <time>2026-01-19T14:23:32Z</time>
      </trkpt>
      <trkpt lat="42.51349" lon="2.03878">
        <ele>1850</ele>
        <time>2026-01-19T14:23:33Z</time>
      </trkpt>
      <trkpt lat="42.5135" lon="2.03877">
        <ele>1850</ele>
        <time>2026-01-19T14:23:34Z</time>
      </trkpt>
      <trkpt lat="42.51351" lon="2.03877">
        <ele>1850.1</ele>
        <time>2026-01-19T14:23:35Z</time>
      </trkpt>
      <trkpt lat="42.51352" lon="2.03875">
        <ele>1850.2</ele>
        <time>2026-01-19T14:23:36Z</time>
      </trkpt>
      <trkpt lat="42.51353" lon="2.03874">
        <ele>1850.2</ele>
        <time>2026-01-19T14:23:37Z</time>
      </trkpt>
      <trkpt lat="42.51353" lon="2.03873">
        <ele>1850.3</ele>
        <time>2026-01-19T14:23:38Z</time>
      </trkpt>
      <trkpt lat="42.51354" lon="2.03872">
        <ele>1850.3</ele>
        <time>2026-01-19T14:23:39Z</time>
      </trkpt>
      <trkpt lat="42.51355" lon="2.03871">
        <ele>1850.4</ele>
        <time>2026-01-19T14:23:40Z</time>
      </trkpt>
      <trkpt lat="42.51356" lon="2.03871">
        <ele>1850.5</ele>
        <time>2026-01-19T14:23:41Z</time>
      </trkpt>
      <trkpt lat="42.51357" lon="2.03872">
        <ele>1850.5</ele>
        <time>2026-01-19T14:23:42Z</time>
      </trkpt>
      <trkpt lat="42.51357" lon="2.03873">
        <ele>1850.6</ele>
        <time>2026-01-19T14:23:43Z</time>
      </trkpt>
      <trkpt lat="42.51357" lon="2.03873">
        <ele>1850.6</ele>
        <time>2026-01-19T14:23:44Z</time>
      </trkpt>
      <trkpt lat="42.51356" lon="2.03874">
        <ele>1850.6</ele>
        <time>2026-01-19T14:23:45Z</time>
      </trkpt>
      <trkpt lat="42.51356" lon="2.03874">
        <ele>1850.6</ele>
        <time>2026-01-19T14:23:46Z</time>
      </trkpt>
      <trkpt lat="42.51356" lon="2.03875">
        <ele>1850.7</ele>
        <time>2026-01-19T14:23:47Z</time>
      </trkpt>
      <trkpt lat="42.51355" lon="2.03875">
        <ele>1850.7</ele>
        <time>2026-01-19T14:23:48Z</time>
      </trkpt>
      <trkpt lat="42.51355" lon="2.03875">
        <ele>1850.7</ele>
        <time>2026-01-19T14:23:49Z</time>
      </trkpt>
      <trkpt lat="42.51355" lon="2.03876">
        <ele>1850.7</ele>
        <time>2026-01-19T14:23:50Z</time>
      </trkpt>
      <trkpt lat="42.51355" lon="2.03876">
        <ele>1850.7</ele>
        <time>2026-01-19T14:23:51Z</time>
      </trkpt>
      <trkpt lat="42.51354" lon="2.03876">
        <ele>1850.7</ele>
        <time>2026-01-19T14:23:52Z</time>
      </trkpt>
      <trkpt lat="42.51354" lon="2.03876">
        <ele>1850.7</ele>
        <time>2026-01-19T14:23:53Z</time>
      </trkpt>
      <trkpt lat="42.51354" lon="2.03877">
        <ele>1850.8</ele>
        <time>2026-01-19T14:23:54Z</time>
      </trkpt>
      <trkpt lat="42.51354" lon="2.03877">
        <ele>1850.8</ele>
        <time>2026-01-19T14:23:55Z</time>
      </trkpt>
      <trkpt lat="42.51354" lon="2.03877">
        <ele>1850.8</ele>
        <time>2026-01-19T14:23:56Z</time>
      </trkpt>
      <trkpt lat="42.51354" lon="2.03877">
        <ele>1850.8</ele>
        <time>2026-01-19T14:23:57Z</time>
      </trkpt>
      <trkpt lat="42.51355" lon="2.03877">
        <ele>1850.8</ele>
        <time>2026-01-19T14:23:58Z</time>
      </trkpt>
      <trkpt lat="42.51355" lon="2.03876">
        <ele>1850.8</ele>
        <time>2026-01-19T14:23:59Z</time>
      </trkpt>
      <trkpt lat="42.51356" lon="2.03875">
        <ele>1850.9</ele>
        <time>2026-01-19T14:24:00Z</time>
      </trkpt>
      <trkpt lat="42.51357" lon="2.03874">
        <ele>1850.9</ele>
        <time>2026-01-19T14:24:01Z</time>
      </trkpt>
      <trkpt lat="42.51358" lon="2.03873">
        <ele>1851</ele>
        <time>2026-01-19T14:24:02Z</time>
      </trkpt>
      <trkpt lat="42.51358" lon="2.03872">
        <ele>1851</ele>
        <time>2026-01-19T14:24:03Z</time>
      </trkpt>
      <trkpt lat="42.51359" lon="2.0387">
        <ele>1851.1</ele>
        <time>2026-01-19T14:24:04Z</time>
      </trkpt>
      <trkpt lat="42.5136" lon="2.03868">
        <ele>1851.2</ele>
        <time>2026-01-19T14:24:05Z</time>
      </trkpt>
      <trkpt lat="42.51362" lon="2.03866">
        <ele>1851.3</ele>
        <time>2026-01-19T14:24:06Z</time>
      </trkpt>
      <trkpt lat="42.51363" lon="2.03865">
        <ele>1851.4</ele>
        <time>2026-01-19T14:24:07Z</time>
      </trkpt>
      <trkpt lat="42.51363" lon="2.03864">
        <ele>1851.4</ele>
        <time>2026-01-19T14:24:08Z</time>
      </trkpt>
      <trkpt lat="42.51364" lon="2.03862">
        <ele>1851.5</ele>
        <time>2026-01-19T14:24:09Z</time>
      </trkpt>
      <trkpt lat="42.51364" lon="2.0386">
        <ele>1851.6</ele>
        <time>2026-01-19T14:24:10Z</time>
      </trkpt>
      <trkpt lat="42.51365" lon="2.03858">
        <ele>1851.6</ele>
        <time>2026-01-19T14:24:11Z</time>
      </trkpt>
      <trkpt lat="42.51365" lon="2.03857">
        <ele>1851.7</ele>
        <time>2026-01-19T14:24:12Z</time>
      </trkpt>
      <trkpt lat="42.51366" lon="2.03856">
        <ele>1851.7</ele>
        <time>2026-01-19T14:24:13Z</time>
      </trkpt>
      <trkpt lat="42.51366" lon="2.03855">
        <ele>1851.8</ele>
        <time>2026-01-19T14:24:14Z</time>
      </trkpt>
      <trkpt lat="42.51367" lon="2.03854">
        <ele>1851.8</ele>
        <time>2026-01-19T14:24:15Z</time>
      </trkpt>
      <trkpt lat="42.51367" lon="2.03853">
        <ele>1851.9</ele>
        <time>2026-01-19T14:24:16Z</time>
      </trkpt>
      <trkpt lat="42.51368" lon="2.03853">
        <ele>1851.9</ele>
        <time>2026-01-19T14:24:17Z</time>
      </trkpt>
      <trkpt lat="42.51369" lon="2.03853">
        <ele>1852</ele>
        <time>2026-01-19T14:24:18Z</time>
      </trkpt>
      <trkpt lat="42.5137" lon="2.03852">
        <ele>1852</ele>
        <time>2026-01-19T14:24:19Z</time>
      </trkpt>
      <trkpt lat="42.51371" lon="2.03851">
        <ele>1852.1</ele>
        <time>2026-01-19T14:24:20Z</time>
      </trkpt>
      <trkpt lat="42.51371" lon="2.03851">
        <ele>1852.1</ele>
        <time>2026-01-19T14:24:21Z</time>
      </trkpt>
      <trkpt lat="42.51371" lon="2.0385">
        <ele>1852.1</ele>
        <time>2026-01-19T14:24:22Z</time>
      </trkpt>
      <trkpt lat="42.51371" lon="2.03849">
        <ele>1852.2</ele>
        <time>2026-01-19T14:24:23Z</time>
      </trkpt>
      <trkpt lat="42.51372" lon="2.03849">
        <ele>1852.2</ele>
        <time>2026-01-19T14:24:24Z</time>
      </trkpt>
      <trkpt lat="42.51373" lon="2.0385">
        <ele>1852.3</ele>
        <time>2026-01-19T14:24:25Z</time>
      </trkpt>
      <trkpt lat="42.51373" lon="2.03852">
        <ele>1852.4</ele>
        <time>2026-01-19T14:24:26Z</time>
      </trkpt>
      <trkpt lat="42.51373" lon="2.03855">
        <ele>1852.5</ele>
        <time>2026-01-19T14:24:28Z</time>
      </trkpt>
      <trkpt lat="42.51373" lon="2.03855">
        <ele>1852.5</ele>
        <time>2026-01-19T14:24:29Z</time>
      </trkpt>
      <trkpt lat="42.51374" lon="2.03856">
        <ele>1852.6</ele>
        <time>2026-01-19T14:24:30Z</time>
      </trkpt>
      <trkpt lat="42.51374" lon="2.03856">
        <ele>1852.6</ele>
        <time>2026-01-19T14:24:31Z</time>
      </trkpt>
      <trkpt lat="42.51376" lon="2.03855">
        <ele>1852.7</ele>
        <time>2026-01-19T14:24:32Z</time>
      </trkpt>
      <trkpt lat="42.51377" lon="2.03855">
        <ele>1852.8</ele>
        <time>2026-01-19T14:24:33Z</time>
      </trkpt>
      <trkpt lat="42.51379" lon="2.03855">
        <ele>1852.9</ele>
        <time>2026-01-19T14:24:34Z</time>
      </trkpt>
      <trkpt lat="42.5138" lon="2.03855">
        <ele>1853</ele>
        <time>2026-01-19T14:24:35Z</time>
      </trkpt>
      <trkpt lat="42.51381" lon="2.03856">
        <ele>1853.1</ele>
        <time>2026-01-19T14:24:36Z</time>
      </trkpt>
      <trkpt lat="42.51382" lon="2.03856">
        <ele>1853.1</ele>
        <time>2026-01-19T14:24:37Z</time>
      </trkpt>
      <trkpt lat="42.51382" lon="2.03857">
        <ele>1853.2</ele>
        <time>2026-01-19T14:24:38Z</time>
      </trkpt>
      <trkpt lat="42.51383" lon="2.03859">
        <ele>1853.3</ele>
        <time>2026-01-19T14:24:39Z</time>
      </trkpt>
      <trkpt lat="42.51383" lon="2.0386">
        <ele>1853.4</ele>
        <time>2026-01-19T14:24:40Z</time>
      </trkpt>
      <trkpt lat="42.51384" lon="2.03861">
        <ele>1853.5</ele>
        <time>2026-01-19T14:24:41Z</time>
      </trkpt>
      <trkpt lat="42.51386" lon="2.03858">
        <ele>1853.8</ele>
        <time>2026-01-19T14:24:42Z</time>
      </trkpt>
      <trkpt lat="42.51387" lon="2.03853">
        <ele>1854.1</ele>
        <time>2026-01-19T14:24:43Z</time>
      </trkpt>
      <trkpt lat="42.51389" lon="2.03847">
        <ele>1854.5</ele>
        <time>2026-01-19T14:24:44Z</time>
      </trkpt>
      <trkpt lat="42.5139" lon="2.03845">
        <ele>1854.8</ele>
        <time>2026-01-19T14:24:45Z</time>
      </trkpt>
      <trkpt lat="42.51391" lon="2.03844">
        <ele>1854.9</ele>
        <time>2026-01-19T14:24:46Z</time>
      </trkpt>
      <trkpt lat="42.51393" lon="2.03844">
        <ele>1855.1</ele>
        <time>2026-01-19T14:24:47Z</time>
      </trkpt>
      <trkpt lat="42.51394" lon="2.03843">
        <ele>1855.2</ele>
        <time>2026-01-19T14:24:48Z</time>
      </trkpt>
      <trkpt lat="42.51395" lon="2.03843">
        <ele>1855.3</ele>
        <time>2026-01-19T14:24:49Z</time>
      </trkpt>
      <trkpt lat="42.51397" lon="2.03843">
        <ele>1855.4</ele>
        <time>2026-01-19T14:24:50Z</time>
      </trkpt>
      <trkpt lat="42.51397" lon="2.03843">
        <ele>1855.5</ele>
        <time>2026-01-19T14:24:51Z</time>
      </trkpt>
      <trkpt lat="42.51398" lon="2.03842">
        <ele>1855.6</ele>
        <time>2026-01-19T14:24:52Z</time>
      </trkpt>
      <trkpt lat="42.51399" lon="2.03842">
        <ele>1855.7</ele>
        <time>2026-01-19T14:24:53Z</time>
      </trkpt>
      <trkpt lat="42.514" lon="2.03841">
        <ele>1855.8</ele>
        <time>2026-01-19T14:24:54Z</time>
      </trkpt>
      <trkpt lat="42.51401" lon="2.0384">
        <ele>1855.9</ele>
        <time>2026-01-19T14:24:55Z</time>
      </trkpt>
      <trkpt lat="42.51402" lon="2.0384">
        <ele>1856</ele>
        <time>2026-01-19T14:24:56Z</time>
      </trkpt>
      <trkpt lat="42.51403" lon="2.03839">
        <ele>1856.1</ele>
        <time>2026-01-19T14:24:57Z</time>
      </trkpt>
      <trkpt lat="42.51403" lon="2.03839">
        <ele>1856.2</ele>
        <time>2026-01-19T14:24:58Z</time>
      </trkpt>
      <trkpt lat="42.51404" lon="2.03838">
        <ele>1856.3</ele>
        <time>2026-01-19T14:24:59Z</time>
      </trkpt>
      <trkpt lat="42.51404" lon="2.03837">
        <ele>1856.4</ele>
        <time>2026-01-19T14:25:00Z</time>
      </trkpt>
      <trkpt lat="42.51405" lon="2.03836">
        <ele>1856.4</ele>
        <time>2026-01-19T14:25:01Z</time>
      </trkpt>
      <trkpt lat="42.51405" lon="2.03835">
        <ele>1856.5</ele>
        <time>2026-01-19T14:25:02Z</time>
      </trkpt>
      <trkpt lat="42.51405" lon="2.03834">
        <ele>1856.6</ele>
        <time>2026-01-19T14:25:03Z</time>
      </trkpt>
      <trkpt lat="42.51405" lon="2.03833">
        <ele>1856.7</ele>
        <time>2026-01-19T14:25:04Z</time>
      </trkpt>
      <trkpt lat="42.51406" lon="2.03832">
        <ele>1856.8</ele>
        <time>2026-01-19T14:25:05Z</time>
      </trkpt>
      <trkpt lat="42.51406" lon="2.03831">
        <ele>1856.8</ele>
        <time>2026-01-19T14:25:06Z</time>
      </trkpt>
      <trkpt lat="42.51406" lon="2.0383">
        <ele>1856.9</ele>
        <time>2026-01-19T14:25:07Z</time>
      </trkpt>
      <trkpt lat="42.51407" lon="2.03829">
        <ele>1857</ele>
        <time>2026-01-19T14:25:08Z</time>
      </trkpt>
      <trkpt lat="42.51407" lon="2.03828">
        <ele>1857</ele>
        <time>2026-01-19T14:25:09Z</time>
      </trkpt>
      <trkpt lat="42.51409" lon="2.03828">
        <ele>1857.1</ele>
        <time>2026-01-19T14:25:10Z</time>
      </trkpt>
      <trkpt lat="42.5141" lon="2.03827">
        <ele>1857.2</ele>
        <time>2026-01-19T14:25:11Z</time>
      </trkpt>
      <trkpt lat="42.51411" lon="2.03827">
        <ele>1857.2</ele>
        <time>2026-01-19T14:25:12Z</time>
      </trkpt>
      <trkpt lat="42.51411" lon="2.03826">
        <ele>1857.3</ele>
        <time>2026-01-19T14:25:13Z</time>
      </trkpt>
      <trkpt lat="42.51413" lon="2.03825">
        <ele>1857.4</ele>
        <time>2026-01-19T14:25:14Z</time>
      </trkpt>
      <trkpt lat="42.51414" lon="2.03824">
        <ele>1857.4</ele>
        <time>2026-01-19T14:25:15Z</time>
      </trkpt>
      <trkpt lat="42.51415" lon="2.03824">
        <ele>1857.5</ele>
        <time>2026-01-19T14:25:16Z</time>
      </trkpt>
      <trkpt lat="42.51416" lon="2.03823">
        <ele>1857.6</ele>
        <time>2026-01-19T14:25:17Z</time>
      </trkpt>
      <trkpt lat="42.51417" lon="2.03822">
        <ele>1857.7</ele>
        <time>2026-01-19T14:25:18Z</time>
      </trkpt>
      <trkpt lat="42.51419" lon="2.03822">
        <ele>1857.8</ele>
        <time>2026-01-19T14:25:19Z</time>
      </trkpt>
      <trkpt lat="42.5142" lon="2.03822">
        <ele>1857.8</ele>
        <time>2026-01-19T14:25:20Z</time>
      </trkpt>
      <trkpt lat="42.5142" lon="2.03822">
        <ele>1857.9</ele>
        <time>2026-01-19T14:25:21Z</time>
      </trkpt>
      <trkpt lat="42.51421" lon="2.03822">
        <ele>1857.9</ele>
        <time>2026-01-19T14:25:22Z</time>
      </trkpt>
      <trkpt lat="42.51422" lon="2.03822">
        <ele>1858</ele>
        <time>2026-01-19T14:25:23Z</time>
      </trkpt>
      <trkpt lat="42.51423" lon="2.03822">
        <ele>1858</ele>
        <time>2026-01-19T14:25:24Z</time>
      </trkpt>
      <trkpt lat="42.51424" lon="2.03821">
        <ele>1858.1</ele>
        <time>2026-01-19T14:25:25Z</time>
      </trkpt>
      <trkpt lat="42.51424" lon="2.03821">
        <ele>1858.1</ele>
        <time>2026-01-19T14:25:26Z</time>
      </trkpt>
      <trkpt lat="42.51425" lon="2.03821">
        <ele>1858.2</ele>
        <time>2026-01-19T14:25:27Z</time>
      </trkpt>
      <trkpt lat="42.51426" lon="2.0382">
        <ele>1858.2</ele>
        <time>2026-01-19T14:25:28Z</time>
      </trkpt>
      <trkpt lat="42.51426" lon="2.0382">
        <ele>1858.3</ele>
        <time>2026-01-19T14:25:29Z</time>
      </trkpt>
      <trkpt lat="42.51427" lon="2.03821">
        <ele>1858.3</ele>
        <time>2026-01-19T14:25:30Z</time>
      </trkpt>
      <trkpt lat="42.51428" lon="2.03821">
        <ele>1858.4</ele>
        <time>2026-01-19T14:25:31Z</time>
      </trkpt>
      <trkpt lat="42.51429" lon="2.0382">
        <ele>1858.4</ele>
        <time>2026-01-19T14:25:32Z</time>
      </trkpt>
      <trkpt lat="42.5143" lon="2.0382">
        <ele>1858.5</ele>
        <time>2026-01-19T14:25:33Z</time>
      </trkpt>
      <trkpt lat="42.51431" lon="2.0382">
        <ele>1858.5</ele>
        <time>2026-01-19T14:25:34Z</time>
      </trkpt>
      <trkpt lat="42.51432" lon="2.0382">
        <ele>1858.6</ele>
        <time>2026-01-19T14:25:35Z</time>
      </trkpt>
      <trkpt lat="42.51432" lon="2.0382">
        <ele>1858.7</ele>
        <time>2026-01-19T14:25:36Z</time>
      </trkpt>
      <trkpt lat="42.51433" lon="2.03821">
        <ele>1858.7</ele>
        <time>2026-01-19T14:25:37Z</time>
      </trkpt>
      <trkpt lat="42.51434" lon="2.03821">
        <ele>1858.8</ele>
        <time>2026-01-19T14:25:38Z</time>
      </trkpt>
      <trkpt lat="42.51435" lon="2.03821">
        <ele>1858.9</ele>
        <time>2026-01-19T14:25:39Z</time>
      </trkpt>
      <trkpt lat="42.51435" lon="2.03821">
        <ele>1858.9</ele>
        <time>2026-01-19T14:25:40Z</time>
      </trkpt>
      <trkpt lat="42.51436" lon="2.03821">
        <ele>1858.9</ele>
        <time>2026-01-19T14:25:41Z</time>
      </trkpt>
      <trkpt lat="42.51437" lon="2.03821">
        <ele>1859</ele>
        <time>2026-01-19T14:25:42Z</time>
      </trkpt>
      <trkpt lat="42.51437" lon="2.03821">
        <ele>1859</ele>
        <time>2026-01-19T14:25:43Z</time>
      </trkpt>
      <trkpt lat="42.51438" lon="2.03821">
        <ele>1859</ele>
        <time>2026-01-19T14:25:44Z</time>
      </trkpt>
      <trkpt lat="42.51439" lon="2.03821">
        <ele>1859.1</ele>
        <time>2026-01-19T14:25:45Z</time>
      </trkpt>
      <trkpt lat="42.5144" lon="2.03821">
        <ele>1859.2</ele>
        <time>2026-01-19T14:25:46Z</time>
      </trkpt>
      <trkpt lat="42.51441" lon="2.03821">
        <ele>1859.2</ele>
        <time>2026-01-19T14:25:47Z</time>
      </trkpt>
      <trkpt lat="42.51442" lon="2.03821">
        <ele>1859.3</ele>
        <time>2026-01-19T14:25:48Z</time>
      </trkpt>
      <trkpt lat="42.51443" lon="2.03821">
        <ele>1859.4</ele>
        <time>2026-01-19T14:25:49Z</time>
      </trkpt>
      <trkpt lat="42.51444" lon="2.03821">
        <ele>1859.4</ele>
        <time>2026-01-19T14:25:50Z</time>
      </trkpt>
      <trkpt lat="42.51445" lon="2.0382">
        <ele>1859.5</ele>
        <time>2026-01-19T14:25:51Z</time>
      </trkpt>
      <trkpt lat="42.51446" lon="2.0382">
        <ele>1859.6</ele>
        <time>2026-01-19T14:25:52Z</time>
      </trkpt>
      <trkpt lat="42.51447" lon="2.0382">
        <ele>1859.6</ele>
        <time>2026-01-19T14:25:53Z</time>
      </trkpt>
      <trkpt lat="42.51448" lon="2.0382">
        <ele>1859.7</ele>
        <time>2026-01-19T14:25:54Z</time>
      </trkpt>
      <trkpt lat="42.51449" lon="2.03821">
        <ele>1859.8</ele>
        <time>2026-01-19T14:25:55Z</time>
      </trkpt>
      <trkpt lat="42.5145" lon="2.03821">
        <ele>1859.9</ele>
        <time>2026-01-19T14:25:56Z</time>
      </trkpt>
      <trkpt lat="42.51451" lon="2.03821">
        <ele>1859.9</ele>
        <time>2026-01-19T14:25:57Z</time>
      </trkpt>
      <trkpt lat="42.51452" lon="2.03821">
        <ele>1860</ele>
        <time>2026-01-19T14:25:58Z</time>
      </trkpt>
      <trkpt lat="42.51453" lon="2.03821">
        <ele>1860.1</ele>
        <time>2026-01-19T14:25:59Z</time>
      </trkpt>
      <trkpt lat="42.51454" lon="2.03821">
        <ele>1860.1</ele>
        <time>2026-01-19T14:26:00Z</time>
      </trkpt>
      <trkpt lat="42.51455" lon="2.03821">
        <ele>1860.2</ele>
        <time>2026-01-19T14:26:01Z</time>
      </trkpt>
      <trkpt lat="42.51456" lon="2.03821">
        <ele>1860.3</ele>
        <time>2026-01-19T14:26:02Z</time>
      </trkpt>
      <trkpt lat="42.51457" lon="2.03821">
        <ele>1860.3</ele>
        <time>2026-01-19T14:26:03Z</time>
      </trkpt>
      <trkpt lat="42.51458" lon="2.03821">
        <ele>1860.4</ele>
        <time>2026-01-19T14:26:04Z</time>
      </trkpt>
      <trkpt lat="42.51459" lon="2.03821">
        <ele>1860.5</ele>
        <time>2026-01-19T14:26:05Z</time>
      </trkpt>
      <trkpt lat="42.5146" lon="2.03821">
        <ele>1860.5</ele>
        <time>2026-01-19T14:26:06Z</time>
      </trkpt>
      <trkpt lat="42.51461" lon="2.03821">
        <ele>1860.6</ele>
        <time>2026-01-19T14:26:07Z</time>
      </trkpt>
      <trkpt lat="42.51462" lon="2.03821">
        <ele>1860.7</ele>
        <time>2026-01-19T14:26:08Z</time>
      </trkpt>
      <trkpt lat="42.51463" lon="2.03821">
        <ele>1860.7</ele>
        <time>2026-01-19T14:26:09Z</time>
      </trkpt>
      <trkpt lat="42.51464" lon="2.03821">
        <ele>1860.8</ele>
        <time>2026-01-19T14:26:10Z</time>
      </trkpt>
      <trkpt lat="42.51465" lon="2.03821">
        <ele>1860.9</ele>
        <time>2026-01-19T14:26:11Z</time>
      </trkpt>
      <trkpt lat="42.51466" lon="2.03821">
        <ele>1861</ele>
        <time>2026-01-19T14:26:12Z</time>
      </trkpt>
      <trkpt lat="42.51468" lon="2.03821">
        <ele>1861</ele>
        <time>2026-01-19T14:26:13Z</time>
      </trkpt>
      <trkpt lat="42.51469" lon="2.03821">
        <ele>1861.1</ele>
        <time>2026-01-19T14:26:14Z</time>
      </trkpt>
      <trkpt lat="42.5147" lon="2.03821">
        <ele>1861.2</ele>
        <time>2026-01-19T14:26:15Z</time>
      </trkpt>
      <trkpt lat="42.51471" lon="2.03821">
        <ele>1861.3</ele>
        <time>2026-01-19T14:26:16Z</time>
      </trkpt>
      <trkpt lat="42.51472" lon="2.03821">
        <ele>1861.3</ele>
        <time>2026-01-19T14:26:17Z</time>
      </trkpt>
      <trkpt lat="42.51473" lon="2.03821">
        <ele>1861.4</ele>
        <time>2026-01-19T14:26:18Z</time>
      </trkpt>
      <trkpt lat="42.51474" lon="2.03821">
        <ele>1861.5</ele>
        <time>2026-01-19T14:26:19Z</time>
      </trkpt>
      <trkpt lat="42.51475" lon="2.03821">
        <ele>1861.5</ele>
        <time>2026-01-19T14:26:20Z</time>
      </trkpt>
      <trkpt lat="42.51476" lon="2.0382">
        <ele>1861.6</ele>
        <time>2026-01-19T14:26:21Z</time>
      </trkpt>
      <trkpt lat="42.51477" lon="2.03819">
        <ele>1861.8</ele>
        <time>2026-01-19T14:26:22Z</time>
      </trkpt>
      <trkpt lat="42.51478" lon="2.03819">
        <ele>1861.8</ele>
        <time>2026-01-19T14:26:23Z</time>
      </trkpt>
      <trkpt lat="42.5148" lon="2.03818">
        <ele>1861.8</ele>
        <time>2026-01-19T14:26:24Z</time>
      </trkpt>
      <trkpt lat="42.51481" lon="2.03817">
        <ele>1861.9</ele>
        <time>2026-01-19T14:26:25Z</time>
      </trkpt>
      <trkpt lat="42.51482" lon="2.03815">
        <ele>1861.9</ele>
        <time>2026-01-19T14:26:26Z</time>
      </trkpt>
      <trkpt lat="42.51483" lon="2.03814">
        <ele>1862</ele>
        <time>2026-01-19T14:26:27Z</time>
      </trkpt>
      <trkpt lat="42.51484" lon="2.03814">
        <ele>1862</ele>
        <time>2026-01-19T14:26:28Z</time>
      </trkpt>
      <trkpt lat="42.51485" lon="2.03812">
        <ele>1862.1</ele>
        <time>2026-01-19T14:26:29Z</time>
      </trkpt>
      <trkpt lat="42.51486" lon="2.03811">
        <ele>1862.1</ele>
        <time>2026-01-19T14:26:30Z</time>
      </trkpt>
      <trkpt lat="42.51487" lon="2.03809">
        <ele>1862.2</ele>
        <time>2026-01-19T14:26:31Z</time>
      </trkpt>
      <trkpt lat="42.51488" lon="2.03808">
        <ele>1862.2</ele>
        <time>2026-01-19T14:26:32Z</time>
      </trkpt>
      <trkpt lat="42.51488" lon="2.03808">
        <ele>1862.3</ele>
        <time>2026-01-19T14:26:33Z</time>
      </trkpt>
      <trkpt lat="42.51489" lon="2.03806">
        <ele>1862.4</ele>
        <time>2026-01-19T14:26:34Z</time>
      </trkpt>
      <trkpt lat="42.5149" lon="2.03805">
        <ele>1862.5</ele>
        <time>2026-01-19T14:26:35Z</time>
      </trkpt>
      <trkpt lat="42.51491" lon="2.03803">
        <ele>1862.6</ele>
        <time>2026-01-19T14:26:36Z</time>
      </trkpt>
      <trkpt lat="42.51492" lon="2.03802">
        <ele>1862.7</ele>
        <time>2026-01-19T14:26:37Z</time>
      </trkpt>
      <trkpt lat="42.51494" lon="2.038">
        <ele>1862.8</ele>
        <time>2026-01-19T14:26:38Z</time>
      </trkpt>
      <trkpt lat="42.51494" lon="2.03799">
        <ele>1862.9</ele>
        <time>2026-01-19T14:26:39Z</time>
      </trkpt>
      <trkpt lat="42.51494" lon="2.03798">
        <ele>1863</ele>
        <time>2026-01-19T14:26:40Z</time>
      </trkpt>
      <trkpt lat="42.51495" lon="2.03796">
        <ele>1863.1</ele>
        <time>2026-01-19T14:26:41Z</time>
      </trkpt>
      <trkpt lat="42.51496" lon="2.03796">
        <ele>1863.2</ele>
        <time>2026-01-19T14:26:42Z</time>
      </trkpt>
      <trkpt lat="42.51497" lon="2.03796">
        <ele>1863.3</ele>
        <time>2026-01-19T14:26:43Z</time>
      </trkpt>
      <trkpt lat="42.51498" lon="2.03796">
        <ele>1863.4</ele>
        <time>2026-01-19T14:26:44Z</time>
      </trkpt>
      <trkpt lat="42.51498" lon="2.03796">
        <ele>1863.5</ele>
        <time>2026-01-19T14:26:45Z</time>
      </trkpt>
      <trkpt lat="42.51498" lon="2.03796">
        <ele>1863.5</ele>
        <time>2026-01-19T14:26:46Z</time>
      </trkpt>
      <trkpt lat="42.51498" lon="2.03797">
        <ele>1863.5</ele>
        <time>2026-01-19T14:26:47Z</time>
      </trkpt>
      <trkpt lat="42.51498" lon="2.03797">
        <ele>1863.5</ele>
        <time>2026-01-19T14:26:48Z</time>
      </trkpt>
      <trkpt lat="42.51498" lon="2.03797">
        <ele>1863.5</ele>
        <time>2026-01-19T14:26:49Z</time>
      </trkpt>
      <trkpt lat="42.51498" lon="2.03797">
        <ele>1863.6</ele>
        <time>2026-01-19T14:26:50Z</time>
      </trkpt>
      <trkpt lat="42.51498" lon="2.03795">
        <ele>1863.7</ele>
        <time>2026-01-19T14:26:51Z</time>
      </trkpt>
      <trkpt lat="42.51499" lon="2.03794">
        <ele>1863.8</ele>
        <time>2026-01-19T14:26:52Z</time>
      </trkpt>
      <trkpt lat="42.515" lon="2.03793">
        <ele>1863.9</ele>
        <time>2026-01-19T14:26:53Z</time>
      </trkpt>
      <trkpt lat="42.515" lon="2.03792">
        <ele>1864</ele>
        <time>2026-01-19T14:26:54Z</time>
      </trkpt>
      <trkpt lat="42.51501" lon="2.03791">
        <ele>1864.2</ele>
        <time>2026-01-19T14:26:55Z</time>
      </trkpt>
      <trkpt lat="42.51501" lon="2.03789">
        <ele>1864.4</ele>
        <time>2026-01-19T14:26:56Z</time>
      </trkpt>
      <trkpt lat="42.51502" lon="2.03788">
        <ele>1864.5</ele>
        <time>2026-01-19T14:26:57Z</time>
      </trkpt>
      <trkpt lat="42.51502" lon="2.03787">
        <ele>1864.6</ele>
        <time>2026-01-19T14:26:58Z</time>
      </trkpt>
      <trkpt lat="42.51503" lon="2.03786">
        <ele>1864.8</ele>
        <time>2026-01-19T14:26:59Z</time>
      </trkpt>
      <trkpt lat="42.51503" lon="2.03784">
        <ele>1864.9</ele>
        <time>2026-01-19T14:27:00Z</time>
      </trkpt>
      <trkpt lat="42.51503" lon="2.03783">
        <ele>1865.1</ele>
        <time>2026-01-19T14:27:01Z</time>
      </trkpt>
      <trkpt lat="42.51503" lon="2.03781">
        <ele>1865.2</ele>
        <time>2026-01-19T14:27:02Z</time>
      </trkpt>
      <trkpt lat="42.51503" lon="2.0378">
        <ele>1865.3</ele>
        <time>2026-01-19T14:27:03Z</time>
      </trkpt>
      <trkpt lat="42.51503" lon="2.03779">
        <ele>1865.4</ele>
        <time>2026-01-19T14:27:04Z</time>
      </trkpt>
      <trkpt lat="42.51504" lon="2.03778">
        <ele>1865.5</ele>
        <time>2026-01-19T14:27:05Z</time>
      </trkpt>
      <trkpt lat="42.51504" lon="2.03777">
        <ele>1865.7</ele>
        <time>2026-01-19T14:27:06Z</time>
      </trkpt>
      <trkpt lat="42.51505" lon="2.03776">
        <ele>1865.8</ele>
        <time>2026-01-19T14:27:07Z</time>
      </trkpt>
      <trkpt lat="42.51505" lon="2.03775">
        <ele>1865.9</ele>
        <time>2026-01-19T14:27:08Z</time>
      </trkpt>
      <trkpt lat="42.51505" lon="2.03774">
        <ele>1866</ele>
        <time>2026-01-19T14:27:09Z</time>
      </trkpt>
      <trkpt lat="42.51506" lon="2.03773">
        <ele>1866.1</ele>
        <time>2026-01-19T14:27:10Z</time>
      </trkpt>
      <trkpt lat="42.51506" lon="2.03771">
        <ele>1866.3</ele>
        <time>2026-01-19T14:27:11Z</time>
      </trkpt>
      <trkpt lat="42.51507" lon="2.0377">
        <ele>1866.4</ele>
        <time>2026-01-19T14:27:12Z</time>
      </trkpt>
      <trkpt lat="42.51507" lon="2.03769">
        <ele>1866.5</ele>
        <time>2026-01-19T14:27:13Z</time>
      </trkpt>
      <trkpt lat="42.51507" lon="2.03768">
        <ele>1866.6</ele>
        <time>2026-01-19T14:27:14Z</time>
      </trkpt>
      <trkpt lat="42.51507" lon="2.03767">
        <ele>1866.7</ele>
        <time>2026-01-19T14:27:15Z</time>
      </trkpt>
      <trkpt lat="42.51508" lon="2.03766">
        <ele>1866.8</ele>
        <time>2026-01-19T14:27:16Z</time>
      </trkpt>
      <trkpt lat="42.51508" lon="2.03765">
        <ele>1866.9</ele>
        <time>2026-01-19T14:27:17Z</time>
      </trkpt>
      <trkpt lat="42.51508" lon="2.03764">
        <ele>1867</ele>
        <time>2026-01-19T14:27:18Z</time>
      </trkpt>
      <trkpt lat="42.51509" lon="2.03763">
        <ele>1867.1</ele>
        <time>2026-01-19T14:27:19Z</time>
      </trkpt>
      <trkpt lat="42.51509" lon="2.03762">
        <ele>1867.2</ele>
        <time>2026-01-19T14:27:20Z</time>
      </trkpt>
      <trkpt lat="42.51509" lon="2.0376">
        <ele>1867.3</ele>
        <time>2026-01-19T14:27:21Z</time>
      </trkpt>
      <trkpt lat="42.51509" lon="2.03759">
        <ele>1867.5</ele>
        <time>2026-01-19T14:27:22Z</time>
      </trkpt>
      <trkpt lat="42.51509" lon="2.03757">
        <ele>1867.6</ele>
        <time>2026-01-19T14:27:23Z</time>
      </trkpt>
      <trkpt lat="42.5151" lon="2.03756">
        <ele>1867.7</ele>
        <time>2026-01-19T14:27:24Z</time>
      </trkpt>
      <trkpt lat="42.5151" lon="2.03755">
        <ele>1867.7</ele>
        <time>2026-01-19T14:27:25Z</time>
      </trkpt>
      <trkpt lat="42.5151" lon="2.03754">
        <ele>1867.8</ele>
        <time>2026-01-19T14:27:26Z</time>
      </trkpt>
      <trkpt lat="42.5151" lon="2.03752">
        <ele>1867.9</ele>
        <time>2026-01-19T14:27:27Z</time>
      </trkpt>
      <trkpt lat="42.51511" lon="2.0375">
        <ele>1868.1</ele>
        <time>2026-01-19T14:27:28Z</time>
      </trkpt>
      <trkpt lat="42.51511" lon="2.03749">
        <ele>1868.2</ele>
        <time>2026-01-19T14:27:29Z</time>
      </trkpt>
      <trkpt lat="42.51511" lon="2.03748">
        <ele>1868.2</ele>
        <time>2026-01-19T14:27:30Z</time>
      </trkpt>
      <trkpt lat="42.51511" lon="2.03747">
        <ele>1868.3</ele>
        <time>2026-01-19T14:27:31Z</time>
      </trkpt>
      <trkpt lat="42.51511" lon="2.03747">
        <ele>1868.3</ele>
        <time>2026-01-19T14:27:32Z</time>
      </trkpt>
      <trkpt lat="42.51511" lon="2.03746">
        <ele>1868.4</ele>
        <time>2026-01-19T14:27:33Z</time>
      </trkpt>
      <trkpt lat="42.51511" lon="2.03745">
        <ele>1868.5</ele>
        <time>2026-01-19T14:27:34Z</time>
      </trkpt>
      <trkpt lat="42.51512" lon="2.03743">
        <ele>1868.6</ele>
        <time>2026-01-19T14:27:35Z</time>
      </trkpt>
      <trkpt lat="42.51513" lon="2.03742">
        <ele>1868.7</ele>
        <time>2026-01-19T14:27:36Z</time>
      </trkpt>
      <trkpt lat="42.51513" lon="2.03741">
        <ele>1868.8</ele>
        <time>2026-01-19T14:27:37Z</time>
      </trkpt>
      <trkpt lat="42.51514" lon="2.03739">
        <ele>1868.9</ele>
        <time>2026-01-19T14:27:38Z</time>
      </trkpt>
      <trkpt lat="42.51514" lon="2.03738">
        <ele>1869</ele>
        <time>2026-01-19T14:27:39Z</time>
      </trkpt>
      <trkpt lat="42.51515" lon="2.03737">
        <ele>1869.1</ele>
        <time>2026-01-19T14:27:40Z</time>
      </trkpt>
      <trkpt lat="42.51515" lon="2.03736">
        <ele>1869.2</ele>
        <time>2026-01-19T14:27:41Z</time>
      </trkpt>
      <trkpt lat="42.51516" lon="2.03734">
        <ele>1869.3</ele>
        <time>2026-01-19T14:27:42Z</time>
      </trkpt>
      <trkpt lat="42.51516" lon="2.03733">
        <ele>1869.4</ele>
        <time>2026-01-19T14:27:43Z</time>
      </trkpt>
      <trkpt lat="42.51517" lon="2.03732">
        <ele>1869.5</ele>
        <time>2026-01-19T14:27:44Z</time>
      </trkpt>
      <trkpt lat="42.51517" lon="2.03731">
        <ele>1869.6</ele>
        <time>2026-01-19T14:27:45Z</time>
      </trkpt>
      <trkpt lat="42.51518" lon="2.0373">
        <ele>1869.7</ele>
        <time>2026-01-19T14:27:46Z</time>
      </trkpt>
      <trkpt lat="42.51519" lon="2.03729">
        <ele>1869.8</ele>
        <time>2026-01-19T14:27:47Z</time>
      </trkpt>
      <trkpt lat="42.5152" lon="2.03727">
        <ele>1869.9</ele>
        <time>2026-01-19T14:27:48Z</time>
      </trkpt>
      <trkpt lat="42.5152" lon="2.03726">
        <ele>1870</ele>
        <time>2026-01-19T14:27:49Z</time>
      </trkpt>
      <trkpt lat="42.5152" lon="2.03725">
        <ele>1870.1</ele>
        <time>2026-01-19T14:27:50Z</time>
      </trkpt>
      <trkpt lat="42.5152" lon="2.03723">
        <ele>1870.2</ele>
        <time>2026-01-19T14:27:51Z</time>
      </trkpt>
      <trkpt lat="42.5152" lon="2.03722">
        <ele>1870.3</ele>
        <time>2026-01-19T14:27:52Z</time>
      </trkpt>
      <trkpt lat="42.51521" lon="2.0372">
        <ele>1870.4</ele>
        <time>2026-01-19T14:27:53Z</time>
      </trkpt>
      <trkpt lat="42.51521" lon="2.03718">
        <ele>1870.5</ele>
        <time>2026-01-19T14:27:54Z</time>
      </trkpt>
      <trkpt lat="42.51521" lon="2.03717">
        <ele>1870.5</ele>
        <time>2026-01-19T14:27:55Z</time>
      </trkpt>
      <trkpt lat="42.51521" lon="2.03716">
        <ele>1870.6</ele>
        <time>2026-01-19T14:27:56Z</time>
      </trkpt>
      <trkpt lat="42.51521" lon="2.03714">
        <ele>1870.7</ele>
        <time>2026-01-19T14:27:57Z</time>
      </trkpt>
      <trkpt lat="42.51522" lon="2.03713">
        <ele>1870.8</ele>
        <time>2026-01-19T14:27:58Z</time>
      </trkpt>
      <trkpt lat="42.51522" lon="2.03711">
        <ele>1870.9</ele>
        <time>2026-01-19T14:27:59Z</time>
      </trkpt>
      <trkpt lat="42.51522" lon="2.03709">
        <ele>1871</ele>
        <time>2026-01-19T14:28:00Z</time>
      </trkpt>
      <trkpt lat="42.51522" lon="2.03708">
        <ele>1871.1</ele>
        <time>2026-01-19T14:28:01Z</time>
      </trkpt>
      <trkpt lat="42.51522" lon="2.03706">
        <ele>1871.2</ele>
        <time>2026-01-19T14:28:02Z</time>
      </trkpt>
      <trkpt lat="42.51523" lon="2.03705">
        <ele>1871.3</ele>
        <time>2026-01-19T14:28:03Z</time>
      </trkpt>
      <trkpt lat="42.51523" lon="2.03703">
        <ele>1871.4</ele>
        <time>2026-01-19T14:28:04Z</time>
      </trkpt>
      <trkpt lat="42.51523" lon="2.03702">
        <ele>1871.5</ele>
        <time>2026-01-19T14:28:05Z</time>
      </trkpt>
      <trkpt lat="42.51523" lon="2.037">
        <ele>1871.6</ele>
        <time>2026-01-19T14:28:06Z</time>
      </trkpt>
      <trkpt lat="42.51523" lon="2.03699">
        <ele>1871.7</ele>
        <time>2026-01-19T14:28:07Z</time>
      </trkpt>
      <trkpt lat="42.51524" lon="2.03698">
        <ele>1871.7</ele>
        <time>2026-01-19T14:28:08Z</time>
      </trkpt>
      <trkpt lat="42.51524" lon="2.03696">
        <ele>1871.8</ele>
        <time>2026-01-19T14:28:09Z</time>
      </trkpt>
      <trkpt lat="42.51524" lon="2.03695">
        <ele>1871.9</ele>
        <time>2026-01-19T14:28:10Z</time>
      </trkpt>
      <trkpt lat="42.51525" lon="2.03693">
        <ele>1872</ele>
        <time>2026-01-19T14:28:11Z</time>
      </trkpt>
      <trkpt lat="42.51525" lon="2.03692">
        <ele>1872</ele>
        <time>2026-01-19T14:28:12Z</time>
      </trkpt>
      <trkpt lat="42.51525" lon="2.03691">
        <ele>1872.1</ele>
        <time>2026-01-19T14:28:13Z</time>
      </trkpt>
      <trkpt lat="42.51525" lon="2.0369">
        <ele>1872.2</ele>
        <time>2026-01-19T14:28:14Z</time>
      </trkpt>
      <trkpt lat="42.51525" lon="2.03688">
        <ele>1872.3</ele>
        <time>2026-01-19T14:28:15Z</time>
      </trkpt>
      <trkpt lat="42.51525" lon="2.03687">
        <ele>1872.3</ele>
        <time>2026-01-19T14:28:16Z</time>
      </trkpt>
      <trkpt lat="42.51525" lon="2.03685">
        <ele>1872.4</ele>
        <time>2026-01-19T14:28:17Z</time>
      </trkpt>
      <trkpt lat="42.51526" lon="2.03683">
        <ele>1872.5</ele>
        <time>2026-01-19T14:28:18Z</time>
      </trkpt>
      <trkpt lat="42.51526" lon="2.03682">
        <ele>1872.6</ele>
        <time>2026-01-19T14:28:19Z</time>
      </trkpt>
      <trkpt lat="42.51526" lon="2.0368">
        <ele>1872.7</ele>
        <time>2026-01-19T14:28:20Z</time>
      </trkpt>
      <trkpt lat="42.51527" lon="2.03679">
        <ele>1872.8</ele>
        <time>2026-01-19T14:28:21Z</time>
      </trkpt>
      <trkpt lat="42.51528" lon="2.03678">
        <ele>1872.8</ele>
        <time>2026-01-19T14:28:22Z</time>
      </trkpt>
      <trkpt lat="42.51528" lon="2.03677">
        <ele>1872.9</ele>
        <time>2026-01-19T14:28:23Z</time>
      </trkpt>
      <trkpt lat="42.51529" lon="2.03676">
        <ele>1873</ele>
        <time>2026-01-19T14:28:24Z</time>
      </trkpt>
      <trkpt lat="42.51529" lon="2.03675">
        <ele>1873.1</ele>
        <time>2026-01-19T14:28:25Z</time>
      </trkpt>
      <trkpt lat="42.5153" lon="2.03674">
        <ele>1873.1</ele>
        <time>2026-01-19T14:28:26Z</time>
      </trkpt>
      <trkpt lat="42.51531" lon="2.03673">
        <ele>1873.2</ele>
        <time>2026-01-19T14:28:27Z</time>
      </trkpt>
      <trkpt lat="42.51531" lon="2.03672">
        <ele>1873.3</ele>
        <time>2026-01-19T14:28:28Z</time>
      </trkpt>
      <trkpt lat="42.51531" lon="2.03671">
        <ele>1873.4</ele>
        <time>2026-01-19T14:28:29Z</time>
      </trkpt>
      <trkpt lat="42.51532" lon="2.0367">
        <ele>1873.5</ele>
        <time>2026-01-19T14:28:30Z</time>
      </trkpt>
      <trkpt lat="42.51532" lon="2.03668">
        <ele>1873.6</ele>
        <time>2026-01-19T14:28:31Z</time>
      </trkpt>
      <trkpt lat="42.51532" lon="2.03667">
        <ele>1873.7</ele>
        <time>2026-01-19T14:28:32Z</time>
      </trkpt>
      <trkpt lat="42.51532" lon="2.03666">
        <ele>1873.8</ele>
        <time>2026-01-19T14:28:33Z</time>
      </trkpt>
      <trkpt lat="42.51533" lon="2.03665">
        <ele>1873.9</ele>
        <time>2026-01-19T14:28:34Z</time>
      </trkpt>
      <trkpt lat="42.51533" lon="2.03663">
        <ele>1874</ele>
        <time>2026-01-19T14:28:35Z</time>
      </trkpt>
      <trkpt lat="42.51533" lon="2.03662">
        <ele>1874.1</ele>
        <time>2026-01-19T14:28:36Z</time>
      </trkpt>
      <trkpt lat="42.51533" lon="2.0366">
        <ele>1874.3</ele>
        <time>2026-01-19T14:28:37Z</time>
      </trkpt>
      <trkpt lat="42.51533" lon="2.03659">
        <ele>1874.4</ele>
        <time>2026-01-19T14:28:38Z</time>
      </trkpt>
      <trkpt lat="42.51534" lon="2.03658">
        <ele>1874.5</ele>
        <time>2026-01-19T14:28:39Z</time>
      </trkpt>
      <trkpt lat="42.51534" lon="2.03657">
        <ele>1874.6</ele>
        <time>2026-01-19T14:28:40Z</time>
      </trkpt>
      <trkpt lat="42.51534" lon="2.03657">
        <ele>1874.7</ele>
        <time>2026-01-19T14:28:41Z</time>
      </trkpt>
      <trkpt lat="42.51535" lon="2.03656">
        <ele>1874.8</ele>
        <time>2026-01-19T14:28:42Z</time>
      </trkpt>
      <trkpt lat="42.51535" lon="2.03655">
        <ele>1874.9</ele>
        <time>2026-01-19T14:28:43Z</time>
      </trkpt>
      <trkpt lat="42.51535" lon="2.03654">
        <ele>1875</ele>
        <time>2026-01-19T14:28:44Z</time>
      </trkpt>
      <trkpt lat="42.51536" lon="2.03653">
        <ele>1875.1</ele>
        <time>2026-01-19T14:28:45Z</time>
      </trkpt>
      <trkpt lat="42.51536" lon="2.03652">
        <ele>1875.2</ele>
        <time>2026-01-19T14:28:46Z</time>
      </trkpt>
      <trkpt lat="42.51536" lon="2.03651">
        <ele>1875.4</ele>
        <time>2026-01-19T14:28:47Z</time>
      </trkpt>
      <trkpt lat="42.51537" lon="2.0365">
        <ele>1875.5</ele>
        <time>2026-01-19T14:28:48Z</time>
      </trkpt>
      <trkpt lat="42.51538" lon="2.03649">
        <ele>1875.6</ele>
        <time>2026-01-19T14:28:49Z</time>
      </trkpt>
      <trkpt lat="42.51538" lon="2.03648">
        <ele>1875.8</ele>
        <time>2026-01-19T14:28:50Z</time>
      </trkpt>
      <trkpt lat="42.51539" lon="2.03646">
        <ele>1875.9</ele>
        <time>2026-01-19T14:28:51Z</time>
      </trkpt>
      <trkpt lat="42.51539" lon="2.03645">
        <ele>1876</ele>
        <time>2026-01-19T14:28:52Z</time>
      </trkpt>
      <trkpt lat="42.51539" lon="2.03644">
        <ele>1876.2</ele>
        <time>2026-01-19T14:28:53Z</time>
      </trkpt>
      <trkpt lat="42.5154" lon="2.03643">
        <ele>1876.3</ele>
        <time>2026-01-19T14:28:54Z</time>
      </trkpt>
      <trkpt lat="42.51541" lon="2.03642">
        <ele>1876.4</ele>
        <time>2026-01-19T14:28:55Z</time>
      </trkpt>
      <trkpt lat="42.51542" lon="2.03641">
        <ele>1876.6</ele>
        <time>2026-01-19T14:28:56Z</time>
      </trkpt>
      <trkpt lat="42.51542" lon="2.0364">
        <ele>1876.7</ele>
        <time>2026-01-19T14:28:57Z</time>
      </trkpt>
      <trkpt lat="42.51542" lon="2.03639">
        <ele>1876.8</ele>
        <time>2026-01-19T14:28:58Z</time>
      </trkpt>
      <trkpt lat="42.51542" lon="2.03639">
        <ele>1876.8</ele>
        <time>2026-01-19T14:28:59Z</time>
      </trkpt>
      <trkpt lat="42.51542" lon="2.03639">
        <ele>1876.8</ele>
        <time>2026-01-19T14:29:00Z</time>
      </trkpt>
      <trkpt lat="42.51541" lon="2.03639">
        <ele>1876.9</ele>
        <time>2026-01-19T14:29:01Z</time>
      </trkpt>
      <trkpt lat="42.51541" lon="2.03639">
        <ele>1876.9</ele>
        <time>2026-01-19T14:29:02Z</time>
      </trkpt>
      <trkpt lat="42.51541" lon="2.03639">
        <ele>1877</ele>
        <time>2026-01-19T14:29:03Z</time>
      </trkpt>
      <trkpt lat="42.51541" lon="2.03638">
        <ele>1877</ele>
        <time>2026-01-19T14:29:04Z</time>
      </trkpt>
      <trkpt lat="42.51542" lon="2.03637">
        <ele>1877.1</ele>
        <time>2026-01-19T14:29:05Z</time>
      </trkpt>
      <trkpt lat="42.51542" lon="2.03636">
        <ele>1877.3</ele>
        <time>2026-01-19T14:29:06Z</time>
      </trkpt>
      <trkpt lat="42.51543" lon="2.03635">
        <ele>1877.4</ele>
        <time>2026-01-19T14:29:07Z</time>
      </trkpt>
      <trkpt lat="42.51544" lon="2.03634">
        <ele>1877.5</ele>
        <time>2026-01-19T14:29:08Z</time>
      </trkpt>
      <trkpt lat="42.51544" lon="2.03633">
        <ele>1877.6</ele>
        <time>2026-01-19T14:29:09Z</time>
      </trkpt>
      <trkpt lat="42.51545" lon="2.03632">
        <ele>1877.7</ele>
        <time>2026-01-19T14:29:10Z</time>
      </trkpt>
      <trkpt lat="42.51546" lon="2.03631">
        <ele>1877.8</ele>
        <time>2026-01-19T14:29:11Z</time>
      </trkpt>
      <trkpt lat="42.51546" lon="2.0363">
        <ele>1877.9</ele>
        <time>2026-01-19T14:29:12Z</time>
      </trkpt>
      <trkpt lat="42.51547" lon="2.03629">
        <ele>1878</ele>
        <time>2026-01-19T14:29:13Z</time>
      </trkpt>
      <trkpt lat="42.51548" lon="2.03628">
        <ele>1878.1</ele>
        <time>2026-01-19T14:29:14Z</time>
      </trkpt>
      <trkpt lat="42.51548" lon="2.03626">
        <ele>1878.1</ele>
        <time>2026-01-19T14:29:15Z</time>
      </trkpt>
      <trkpt lat="42.51549" lon="2.03625">
        <ele>1878.2</ele>
        <time>2026-01-19T14:29:16Z</time>
      </trkpt>
      <trkpt lat="42.51549" lon="2.03624">
        <ele>1878.3</ele>
        <time>2026-01-19T14:29:17Z</time>
      </trkpt>
      <trkpt lat="42.51549" lon="2.03623">
        <ele>1878.4</ele>
        <time>2026-01-19T14:29:18Z</time>
      </trkpt>
      <trkpt lat="42.51549" lon="2.03622">
        <ele>1878.4</ele>
        <time>2026-01-19T14:29:19Z</time>
      </trkpt>
      <trkpt lat="42.51549" lon="2.03621">
        <ele>1878.5</ele>
        <time>2026-01-19T14:29:20Z</time>
      </trkpt>
      <trkpt lat="42.5155" lon="2.0362">
        <ele>1878.6</ele>
        <time>2026-01-19T14:29:21Z</time>
      </trkpt>
      <trkpt lat="42.5155" lon="2.03619">
        <ele>1878.6</ele>
        <time>2026-01-19T14:29:22Z</time>
      </trkpt>
      <trkpt lat="42.51551" lon="2.0362">
        <ele>1878.7</ele>
        <time>2026-01-19T14:29:23Z</time>
      </trkpt>
      <trkpt lat="42.51552" lon="2.0362">
        <ele>1878.8</ele>
        <time>2026-01-19T14:29:24Z</time>
      </trkpt>
      <trkpt lat="42.51553" lon="2.0362">
        <ele>1878.8</ele>
        <time>2026-01-19T14:29:25Z</time>
      </trkpt>
      <trkpt lat="42.51553" lon="2.03619">
        <ele>1878.9</ele>
        <time>2026-01-19T14:29:26Z</time>
      </trkpt>
      <trkpt lat="42.51553" lon="2.03617">
        <ele>1879</ele>
        <time>2026-01-19T14:29:27Z</time>
      </trkpt>
      <trkpt lat="42.51553" lon="2.03616">
        <ele>1879.1</ele>
        <time>2026-01-19T14:29:28Z</time>
      </trkpt>
      <trkpt lat="42.51553" lon="2.03614">
        <ele>1879.2</ele>
        <time>2026-01-19T14:29:29Z</time>
      </trkpt>
      <trkpt lat="42.51554" lon="2.03613">
        <ele>1879.2</ele>
        <time>2026-01-19T14:29:30Z</time>
      </trkpt>
      <trkpt lat="42.51554" lon="2.03614">
        <ele>1879.3</ele>
        <time>2026-01-19T14:29:31Z</time>
      </trkpt>
      <trkpt lat="42.51554" lon="2.03614">
        <ele>1879.3</ele>
        <time>2026-01-19T14:29:32Z</time>
      </trkpt>
      <trkpt lat="42.51554" lon="2.03614">
        <ele>1879.3</ele>
        <time>2026-01-19T14:29:33Z</time>
      </trkpt>
      <trkpt lat="42.51554" lon="2.03613">
        <ele>1879.3</ele>
        <time>2026-01-19T14:29:34Z</time>
      </trkpt>
      <trkpt lat="42.51553" lon="2.03613">
        <ele>1879.4</ele>
        <time>2026-01-19T14:29:35Z</time>
      </trkpt>
      <trkpt lat="42.51553" lon="2.03613">
        <ele>1879.4</ele>
        <time>2026-01-19T14:29:36Z</time>
      </trkpt>
      <trkpt lat="42.51553" lon="2.03613">
        <ele>1879.5</ele>
        <time>2026-01-19T14:29:37Z</time>
      </trkpt>
      <trkpt lat="42.51552" lon="2.03613">
        <ele>1879.5</ele>
        <time>2026-01-19T14:29:38Z</time>
      </trkpt>
      <trkpt lat="42.51552" lon="2.03612">
        <ele>1879.5</ele>
        <time>2026-01-19T14:29:39Z</time>
      </trkpt>
      <trkpt lat="42.51552" lon="2.03612">
        <ele>1879.5</ele>
        <time>2026-01-19T14:29:40Z</time>
      </trkpt>
      <trkpt lat="42.51551" lon="2.03612">
        <ele>1879.6</ele>
        <time>2026-01-19T14:29:41Z</time>
      </trkpt>
      <trkpt lat="42.51551" lon="2.03612">
        <ele>1879.6</ele>
        <time>2026-01-19T14:29:42Z</time>
      </trkpt>
      <trkpt lat="42.51551" lon="2.03612">
        <ele>1879.6</ele>
        <time>2026-01-19T14:29:43Z</time>
      </trkpt>
      <trkpt lat="42.51551" lon="2.03612">
        <ele>1879.6</ele>
        <time>2026-01-19T14:29:44Z</time>
      </trkpt>
      <trkpt lat="42.5155" lon="2.03611">
        <ele>1879.6</ele>
        <time>2026-01-19T14:29:45Z</time>
      </trkpt>
      <trkpt lat="42.5155" lon="2.03611">
        <ele>1879.7</ele>
        <time>2026-01-19T14:29:46Z</time>
      </trkpt>
      <trkpt lat="42.5155" lon="2.03611">
        <ele>1879.7</ele>
        <time>2026-01-19T14:29:47Z</time>
      </trkpt>
      <trkpt lat="42.5155" lon="2.03611">
        <ele>1879.7</ele>
        <time>2026-01-19T14:29:48Z</time>
      </trkpt>
      <trkpt lat="42.5155" lon="2.0361">
        <ele>1879.8</ele>
        <time>2026-01-19T14:29:49Z</time>
      </trkpt>
      <trkpt lat="42.5155" lon="2.03609">
        <ele>1879.8</ele>
        <time>2026-01-19T14:29:50Z</time>
      </trkpt>
      <trkpt lat="42.5155" lon="2.03608">
        <ele>1879.9</ele>
        <time>2026-01-19T14:29:51Z</time>
      </trkpt>
      <trkpt lat="42.5155" lon="2.03608">
        <ele>1879.9</ele>
        <time>2026-01-19T14:29:52Z</time>
      </trkpt>
      <trkpt lat="42.5155" lon="2.03607">
        <ele>1880</ele>
        <time>2026-01-19T14:29:53Z</time>
      </trkpt>
      <trkpt lat="42.5155" lon="2.03607">
        <ele>1880</ele>
        <time>2026-01-19T14:29:54Z</time>
      </trkpt>
      <trkpt lat="42.51551" lon="2.03606">
        <ele>1880</ele>
        <time>2026-01-19T14:29:55Z</time>
      </trkpt>
      <trkpt lat="42.51551" lon="2.03606">
        <ele>1880.1</ele>
        <time>2026-01-19T14:29:56Z</time>
      </trkpt>
      <trkpt lat="42.51551" lon="2.03605">
        <ele>1880.1</ele>
        <time>2026-01-19T14:29:57Z</time>
      </trkpt>
      <trkpt lat="42.51551" lon="2.03605">
        <ele>1880.2</ele>
        <time>2026-01-19T14:29:58Z</time>
      </trkpt>
      <trkpt lat="42.51552" lon="2.03603">
        <ele>1880.3</ele>
        <time>2026-01-19T14:29:59Z</time>
      </trkpt>
      <trkpt lat="42.51553" lon="2.03602">
        <ele>1880.5</ele>
        <time>2026-01-19T14:30:00Z</time>
      </trkpt>
      <trkpt lat="42.51553" lon="2.036">
        <ele>1880.6</ele>
        <time>2026-01-19T14:30:01Z</time>
      </trkpt>
      <trkpt lat="42.51554" lon="2.03599">
        <ele>1880.8</ele>
        <time>2026-01-19T14:30:02Z</time>
      </trkpt>
      <trkpt lat="42.51555" lon="2.03599">
        <ele>1880.9</ele>
        <time>2026-01-19T14:30:03Z</time>
      </trkpt>
      <trkpt lat="42.51556" lon="2.03598">
        <ele>1881</ele>
        <time>2026-01-19T14:30:04Z</time>
      </trkpt>
      <trkpt lat="42.51557" lon="2.03597">
        <ele>1881.2</ele>
        <time>2026-01-19T14:30:05Z</time>
      </trkpt>
      <trkpt lat="42.51558" lon="2.03597">
        <ele>1881.3</ele>
        <time>2026-01-19T14:30:06Z</time>
      </trkpt>
      <trkpt lat="42.51559" lon="2.03596">
        <ele>1881.5</ele>
        <time>2026-01-19T14:30:07Z</time>
      </trkpt>
      <trkpt lat="42.5156" lon="2.03595">
        <ele>1881.6</ele>
        <time>2026-01-19T14:30:08Z</time>
      </trkpt>
      <trkpt lat="42.5156" lon="2.03594">
        <ele>1881.8</ele>
        <time>2026-01-19T14:30:09Z</time>
      </trkpt>
      <trkpt lat="42.51561" lon="2.03593">
        <ele>1881.9</ele>
        <time>2026-01-19T14:30:10Z</time>
      </trkpt>
      <trkpt lat="42.51562" lon="2.03593">
        <ele>1882</ele>
        <time>2026-01-19T14:30:11Z</time>
      </trkpt>
      <trkpt lat="42.51563" lon="2.03592">
        <ele>1882.2</ele>
        <time>2026-01-19T14:30:12Z</time>
      </trkpt>
      <trkpt lat="42.51564" lon="2.03591">
        <ele>1882.4</ele>
        <time>2026-01-19T14:30:13Z</time>
      </trkpt>
      <trkpt lat="42.51564" lon="2.0359">
        <ele>1882.5</ele>
        <time>2026-01-19T14:30:14Z</time>
      </trkpt>
      <trkpt lat="42.51565" lon="2.03589">
        <ele>1882.7</ele>
        <time>2026-01-19T14:30:15Z</time>
      </trkpt>
      <trkpt lat="42.51566" lon="2.03588">
        <ele>1882.8</ele>
        <time>2026-01-19T14:30:16Z</time>
      </trkpt>
      <trkpt lat="42.51567" lon="2.03588">
        <ele>1883</ele>
        <time>2026-01-19T14:30:17Z</time>
      </trkpt>
      <trkpt lat="42.51568" lon="2.03587">
        <ele>1883.1</ele>
        <time>2026-01-19T14:30:18Z</time>
      </trkpt>
      <trkpt lat="42.51568" lon="2.03586">
        <ele>1883.3</ele>
        <time>2026-01-19T14:30:19Z</time>
      </trkpt>
      <trkpt lat="42.51569" lon="2.03586">
        <ele>1883.4</ele>
        <time>2026-01-19T14:30:20Z</time>
      </trkpt>
      <trkpt lat="42.5157" lon="2.03586">
        <ele>1883.5</ele>
        <time>2026-01-19T14:30:21Z</time>
      </trkpt>
      <trkpt lat="42.51571" lon="2.03587">
        <ele>1883.7</ele>
        <time>2026-01-19T14:30:22Z</time>
      </trkpt>
      <trkpt lat="42.51572" lon="2.03587">
        <ele>1883.8</ele>
        <time>2026-01-19T14:30:23Z</time>
      </trkpt>
      <trkpt lat="42.51573" lon="2.03588">
        <ele>1884</ele>
        <time>2026-01-19T14:30:24Z</time>
      </trkpt>
      <trkpt lat="42.51574" lon="2.03589">
        <ele>1884.2</ele>
        <time>2026-01-19T14:30:25Z</time>
      </trkpt>
      <trkpt lat="42.51574" lon="2.03589">
        <ele>1884.3</ele>
        <time>2026-01-19T14:30:26Z</time>
      </trkpt>
      <trkpt lat="42.51575" lon="2.03591">
        <ele>1884.5</ele>
        <time>2026-01-19T14:30:27Z</time>
      </trkpt>
      <trkpt lat="42.51576" lon="2.03592">
        <ele>1884.6</ele>
        <time>2026-01-19T14:30:28Z</time>
      </trkpt>
      <trkpt lat="42.51576" lon="2.03593">
        <ele>1884.8</ele>
        <time>2026-01-19T14:30:29Z</time>
      </trkpt>
      <trkpt lat="42.51575" lon="2.03596">
        <ele>1885</ele>
        <time>2026-01-19T14:30:30Z</time>
      </trkpt>
      <trkpt lat="42.51575" lon="2.03597">
        <ele>1885.2</ele>
        <time>2026-01-19T14:30:31Z</time>
      </trkpt>
      <trkpt lat="42.51575" lon="2.03598">
        <ele>1885.3</ele>
        <time>2026-01-19T14:30:32Z</time>
      </trkpt>
      <trkpt lat="42.51575" lon="2.036">
        <ele>1885.4</ele>
        <time>2026-01-19T14:30:33Z</time>
      </trkpt>
      <trkpt lat="42.51575" lon="2.03601">
        <ele>1885.6</ele>
        <time>2026-01-19T14:30:34Z</time>
      </trkpt>
      <trkpt lat="42.51575" lon="2.03603">
        <ele>1885.7</ele>
        <time>2026-01-19T14:30:35Z</time>
      </trkpt>
      <trkpt lat="42.51575" lon="2.03604">
        <ele>1885.9</ele>
        <time>2026-01-19T14:30:36Z</time>
      </trkpt>
      <trkpt lat="42.51575" lon="2.03605">
        <ele>1886</ele>
        <time>2026-01-19T14:30:37Z</time>
      </trkpt>
      <trkpt lat="42.51575" lon="2.03606">
        <ele>1886.1</ele>
        <time>2026-01-19T14:30:38Z</time>
      </trkpt>
      <trkpt lat="42.51575" lon="2.03608">
        <ele>1886.2</ele>
        <time>2026-01-19T14:30:39Z</time>
      </trkpt>
      <trkpt lat="42.51576" lon="2.03609">
        <ele>1886.4</ele>
        <time>2026-01-19T14:30:40Z</time>
      </trkpt>
      <trkpt lat="42.51576" lon="2.0361">
        <ele>1886.5</ele>
        <time>2026-01-19T14:30:41Z</time>
      </trkpt>
      <trkpt lat="42.51576" lon="2.03611">
        <ele>1886.6</ele>
        <time>2026-01-19T14:30:42Z</time>
      </trkpt>
      <trkpt lat="42.51577" lon="2.03612">
        <ele>1886.7</ele>
        <time>2026-01-19T14:30:43Z</time>
      </trkpt>
      <trkpt lat="42.51577" lon="2.03613">
        <ele>1886.9</ele>
        <time>2026-01-19T14:30:44Z</time>
      </trkpt>
      <trkpt lat="42.51578" lon="2.03614">
        <ele>1887</ele>
        <time>2026-01-19T14:30:45Z</time>
      </trkpt>
      <trkpt lat="42.51579" lon="2.03615">
        <ele>1887.1</ele>
        <time>2026-01-19T14:30:46Z</time>
      </trkpt>
      <trkpt lat="42.51579" lon="2.03615">
        <ele>1887.1</ele>
        <time>2026-01-19T14:30:47Z</time>
      </trkpt>
      <trkpt lat="42.5158" lon="2.03616">
        <ele>1887.3</ele>
        <time>2026-01-19T14:30:48Z</time>
      </trkpt>
      <trkpt lat="42.51581" lon="2.03617">
        <ele>1887.4</ele>
        <time>2026-01-19T14:30:49Z</time>
      </trkpt>
      <trkpt lat="42.51581" lon="2.03617">
        <ele>1887.6</ele>
        <time>2026-01-19T14:30:50Z</time>
      </trkpt>
      <trkpt lat="42.51582" lon="2.03617">
        <ele>1887.7</ele>
        <time>2026-01-19T14:30:51Z</time>
      </trkpt>
      <trkpt lat="42.51583" lon="2.03617">
        <ele>1887.8</ele>
        <time>2026-01-19T14:30:52Z</time>
      </trkpt>
      <trkpt lat="42.51582" lon="2.03616">
        <ele>1887.9</ele>
        <time>2026-01-19T14:30:53Z</time>
      </trkpt>
      <trkpt lat="42.51582" lon="2.03616">
        <ele>1888</ele>
        <time>2026-01-19T14:30:54Z</time>
      </trkpt>
      <trkpt lat="42.51582" lon="2.03616">
        <ele>1888</ele>
        <time>2026-01-19T14:30:55Z</time>
      </trkpt>
      <trkpt lat="42.51582" lon="2.03616">
        <ele>1888</ele>
        <time>2026-01-19T14:30:56Z</time>
      </trkpt>
      <trkpt lat="42.51582" lon="2.03616">
        <ele>1888</ele>
        <time>2026-01-19T14:30:57Z</time>
      </trkpt>
      <trkpt lat="42.51582" lon="2.03616">
        <ele>1888.1</ele>
        <time>2026-01-19T14:30:58Z</time>
      </trkpt>
      <trkpt lat="42.51582" lon="2.03616">
        <ele>1888.1</ele>
        <time>2026-01-19T14:30:59Z</time>
      </trkpt>
      <trkpt lat="42.51583" lon="2.03615">
        <ele>1888.3</ele>
        <time>2026-01-19T14:31:00Z</time>
      </trkpt>
      <trkpt lat="42.51585" lon="2.03615">
        <ele>1888.6</ele>
        <time>2026-01-19T14:31:01Z</time>
      </trkpt>
      <trkpt lat="42.51586" lon="2.03614">
        <ele>1888.8</ele>
        <time>2026-01-19T14:31:02Z</time>
      </trkpt>
      <trkpt lat="42.51587" lon="2.03613">
        <ele>1889</ele>
        <time>2026-01-19T14:31:03Z</time>
      </trkpt>
      <trkpt lat="42.51588" lon="2.03612">
        <ele>1889.1</ele>
        <time>2026-01-19T14:31:04Z</time>
      </trkpt>
      <trkpt lat="42.51588" lon="2.03612">
        <ele>1889.3</ele>
        <time>2026-01-19T14:31:05Z</time>
      </trkpt>
      <trkpt lat="42.51589" lon="2.03611">
        <ele>1889.5</ele>
        <time>2026-01-19T14:31:06Z</time>
      </trkpt>
      <trkpt lat="42.5159" lon="2.0361">
        <ele>1889.6</ele>
        <time>2026-01-19T14:31:07Z</time>
      </trkpt>
      <trkpt lat="42.5159" lon="2.03608">
        <ele>1889.7</ele>
        <time>2026-01-19T14:31:08Z</time>
      </trkpt>
      <trkpt lat="42.51591" lon="2.03607">
        <ele>1889.9</ele>
        <time>2026-01-19T14:31:09Z</time>
      </trkpt>
      <trkpt lat="42.51592" lon="2.03606">
        <ele>1890</ele>
        <time>2026-01-19T14:31:10Z</time>
      </trkpt>
      <trkpt lat="42.51592" lon="2.03604">
        <ele>1890.2</ele>
        <time>2026-01-19T14:31:11Z</time>
      </trkpt>
      <trkpt lat="42.51592" lon="2.03603">
        <ele>1890.3</ele>
        <time>2026-01-19T14:31:12Z</time>
      </trkpt>
      <trkpt lat="42.51592" lon="2.03602">
        <ele>1890.4</ele>
        <time>2026-01-19T14:31:13Z</time>
      </trkpt>
      <trkpt lat="42.51593" lon="2.03602">
        <ele>1890.4</ele>
        <time>2026-01-19T14:31:14Z</time>
      </trkpt>
      <trkpt lat="42.51592" lon="2.03601">
        <ele>1890.5</ele>
        <time>2026-01-19T14:31:15Z</time>
      </trkpt>
      <trkpt lat="42.51592" lon="2.03599">
        <ele>1890.6</ele>
        <time>2026-01-19T14:31:16Z</time>
      </trkpt>
      <trkpt lat="42.51592" lon="2.03598">
        <ele>1890.7</ele>
        <time>2026-01-19T14:31:17Z</time>
      </trkpt>
      <trkpt lat="42.51592" lon="2.03597">
        <ele>1890.8</ele>
        <time>2026-01-19T14:31:18Z</time>
      </trkpt>
      <trkpt lat="42.51593" lon="2.03597">
        <ele>1890.9</ele>
        <time>2026-01-19T14:31:19Z</time>
      </trkpt>
      <trkpt lat="42.51594" lon="2.03595">
        <ele>1891</ele>
        <time>2026-01-19T14:31:20Z</time>
      </trkpt>
      <trkpt lat="42.51594" lon="2.03594">
        <ele>1891.1</ele>
        <time>2026-01-19T14:31:21Z</time>
      </trkpt>
      <trkpt lat="42.51595" lon="2.03593">
        <ele>1891.2</ele>
        <time>2026-01-19T14:31:22Z</time>
      </trkpt>
      <trkpt lat="42.51595" lon="2.03592">
        <ele>1891.3</ele>
        <time>2026-01-19T14:31:23Z</time>
      </trkpt>
      <trkpt lat="42.51596" lon="2.03591">
        <ele>1891.4</ele>
        <time>2026-01-19T14:31:24Z</time>
      </trkpt>
      <trkpt lat="42.51596" lon="2.03589">
        <ele>1891.5</ele>
        <time>2026-01-19T14:31:25Z</time>
      </trkpt>
      <trkpt lat="42.51597" lon="2.03588">
        <ele>1891.7</ele>
        <time>2026-01-19T14:31:26Z</time>
      </trkpt>
      <trkpt lat="42.51597" lon="2.03586">
        <ele>1891.8</ele>
        <time>2026-01-19T14:31:27Z</time>
      </trkpt>
      <trkpt lat="42.51598" lon="2.03585">
        <ele>1891.9</ele>
        <time>2026-01-19T14:31:28Z</time>
      </trkpt>
      <trkpt lat="42.51599" lon="2.03583">
        <ele>1892.1</ele>
        <time>2026-01-19T14:31:29Z</time>
      </trkpt>
      <trkpt lat="42.516" lon="2.03582">
        <ele>1892.2</ele>
        <time>2026-01-19T14:31:30Z</time>
      </trkpt>
      <trkpt lat="42.51601" lon="2.03581">
        <ele>1892.3</ele>
        <time>2026-01-19T14:31:31Z</time>
      </trkpt>
      <trkpt lat="42.51603" lon="2.03579">
        <ele>1892.5</ele>
        <time>2026-01-19T14:31:32Z</time>
      </trkpt>
      <trkpt lat="42.51604" lon="2.03578">
        <ele>1892.6</ele>
        <time>2026-01-19T14:31:33Z</time>
      </trkpt>
      <trkpt lat="42.51604" lon="2.03577">
        <ele>1892.6</ele>
        <time>2026-01-19T14:31:34Z</time>
      </trkpt>
      <trkpt lat="42.51605" lon="2.03576">
        <ele>1892.8</ele>
        <time>2026-01-19T14:31:35Z</time>
      </trkpt>
      <trkpt lat="42.51606" lon="2.03575">
        <ele>1892.9</ele>
        <time>2026-01-19T14:31:36Z</time>
      </trkpt>
      <trkpt lat="42.51607" lon="2.03574">
        <ele>1893</ele>
        <time>2026-01-19T14:31:37Z</time>
      </trkpt>
      <trkpt lat="42.51608" lon="2.03573">
        <ele>1893</ele>
        <time>2026-01-19T14:31:38Z</time>
      </trkpt>
      <trkpt lat="42.51608" lon="2.03572">
        <ele>1893.1</ele>
        <time>2026-01-19T14:31:39Z</time>
      </trkpt>
      <trkpt lat="42.51608" lon="2.0357">
        <ele>1893.2</ele>
        <time>2026-01-19T14:31:40Z</time>
      </trkpt>
      <trkpt lat="42.51609" lon="2.03569">
        <ele>1893.3</ele>
        <time>2026-01-19T14:31:41Z</time>
      </trkpt>
      <trkpt lat="42.51609" lon="2.03568">
        <ele>1893.4</ele>
        <time>2026-01-19T14:31:42Z</time>
      </trkpt>
      <trkpt lat="42.51609" lon="2.03567">
        <ele>1893.4</ele>
        <time>2026-01-19T14:31:43Z</time>
      </trkpt>
      <trkpt lat="42.5161" lon="2.03566">
        <ele>1893.5</ele>
        <time>2026-01-19T14:31:44Z</time>
      </trkpt>
      <trkpt lat="42.5161" lon="2.03565">
        <ele>1893.6</ele>
        <time>2026-01-19T14:31:45Z</time>
      </trkpt>
      <trkpt lat="42.51611" lon="2.03564">
        <ele>1893.7</ele>
        <time>2026-01-19T14:31:46Z</time>
      </trkpt>
      <trkpt lat="42.51611" lon="2.03563">
        <ele>1893.7</ele>
        <time>2026-01-19T14:31:47Z</time>
      </trkpt>
      <trkpt lat="42.51612" lon="2.03563">
        <ele>1893.8</ele>
        <time>2026-01-19T14:31:48Z</time>
      </trkpt>
      <trkpt lat="42.51613" lon="2.03562">
        <ele>1893.9</ele>
        <time>2026-01-19T14:31:49Z</time>
      </trkpt>
      <trkpt lat="42.51614" lon="2.03561">
        <ele>1894</ele>
        <time>2026-01-19T14:31:50Z</time>
      </trkpt>
      <trkpt lat="42.51615" lon="2.0356">
        <ele>1894.1</ele>
        <time>2026-01-19T14:31:51Z</time>
      </trkpt>
      <trkpt lat="42.51616" lon="2.03559">
        <ele>1894.2</ele>
        <time>2026-01-19T14:31:52Z</time>
      </trkpt>
      <trkpt lat="42.51616" lon="2.03558">
        <ele>1894.3</ele>
        <time>2026-01-19T14:31:53Z</time>
      </trkpt>
      <trkpt lat="42.51616" lon="2.03557">
        <ele>1894.4</ele>
        <time>2026-01-19T14:31:54Z</time>
      </trkpt>
      <trkpt lat="42.51617" lon="2.03555">
        <ele>1894.5</ele>
        <time>2026-01-19T14:31:55Z</time>
      </trkpt>
      <trkpt lat="42.51617" lon="2.03554">
        <ele>1894.5</ele>
        <time>2026-01-19T14:31:56Z</time>
      </trkpt>
      <trkpt lat="42.51617" lon="2.03553">
        <ele>1894.6</ele>
        <time>2026-01-19T14:31:57Z</time>
      </trkpt>
      <trkpt lat="42.51618" lon="2.03551">
        <ele>1894.7</ele>
        <time>2026-01-19T14:31:58Z</time>
      </trkpt>
      <trkpt lat="42.51617" lon="2.0355">
        <ele>1894.8</ele>
        <time>2026-01-19T14:31:59Z</time>
      </trkpt>
      <trkpt lat="42.51617" lon="2.03548">
        <ele>1895</ele>
        <time>2026-01-19T14:32:00Z</time>
      </trkpt>
      <trkpt lat="42.51617" lon="2.03547">
        <ele>1895</ele>
        <time>2026-01-19T14:32:01Z</time>
      </trkpt>
      <trkpt lat="42.51618" lon="2.03546">
        <ele>1895.2</ele>
        <time>2026-01-19T14:32:02Z</time>
      </trkpt>
      <trkpt lat="42.51619" lon="2.03544">
        <ele>1895.3</ele>
        <time>2026-01-19T14:32:03Z</time>
      </trkpt>
      <trkpt lat="42.5162" lon="2.03544">
        <ele>1895.4</ele>
        <time>2026-01-19T14:32:04Z</time>
      </trkpt>
      <trkpt lat="42.51621" lon="2.03543">
        <ele>1895.5</ele>
        <time>2026-01-19T14:32:05Z</time>
      </trkpt>
      <trkpt lat="42.51623" lon="2.03542">
        <ele>1895.7</ele>
        <time>2026-01-19T14:32:06Z</time>
      </trkpt>
      <trkpt lat="42.51623" lon="2.03541">
        <ele>1895.8</ele>
        <time>2026-01-19T14:32:07Z</time>
      </trkpt>
      <trkpt lat="42.51624" lon="2.03541">
        <ele>1895.9</ele>
        <time>2026-01-19T14:32:08Z</time>
      </trkpt>
      <trkpt lat="42.51625" lon="2.0354">
        <ele>1896</ele>
        <time>2026-01-19T14:32:09Z</time>
      </trkpt>
      <trkpt lat="42.51626" lon="2.03539">
        <ele>1896.1</ele>
        <time>2026-01-19T14:32:10Z</time>
      </trkpt>
      <trkpt lat="42.51626" lon="2.03538">
        <ele>1896.2</ele>
        <time>2026-01-19T14:32:11Z</time>
      </trkpt>
      <trkpt lat="42.51627" lon="2.03537">
        <ele>1896.3</ele>
        <time>2026-01-19T14:32:12Z</time>
      </trkpt>
      <trkpt lat="42.51628" lon="2.03536">
        <ele>1896.4</ele>
        <time>2026-01-19T14:32:13Z</time>
      </trkpt>
      <trkpt lat="42.51628" lon="2.03536">
        <ele>1896.5</ele>
        <time>2026-01-19T14:32:14Z</time>
      </trkpt>
      <trkpt lat="42.51629" lon="2.03535">
        <ele>1896.6</ele>
        <time>2026-01-19T14:32:15Z</time>
      </trkpt>
      <trkpt lat="42.5163" lon="2.03534">
        <ele>1896.7</ele>
        <time>2026-01-19T14:32:16Z</time>
      </trkpt>
      <trkpt lat="42.5163" lon="2.03533">
        <ele>1896.8</ele>
        <time>2026-01-19T14:32:17Z</time>
      </trkpt>
      <trkpt lat="42.51631" lon="2.03532">
        <ele>1896.9</ele>
        <time>2026-01-19T14:32:18Z</time>
      </trkpt>
      <trkpt lat="42.51631" lon="2.03531">
        <ele>1897</ele>
        <time>2026-01-19T14:32:19Z</time>
      </trkpt>
      <trkpt lat="42.51631" lon="2.0353">
        <ele>1897.2</ele>
        <time>2026-01-19T14:32:20Z</time>
      </trkpt>
      <trkpt lat="42.51632" lon="2.03529">
        <ele>1897.2</ele>
        <time>2026-01-19T14:32:21Z</time>
      </trkpt>
      <trkpt lat="42.51632" lon="2.03528">
        <ele>1897.3</ele>
        <time>2026-01-19T14:32:22Z</time>
      </trkpt>
      <trkpt lat="42.51633" lon="2.03527">
        <ele>1897.5</ele>
        <time>2026-01-19T14:32:23Z</time>
      </trkpt>
      <trkpt lat="42.51634" lon="2.03526">
        <ele>1897.6</ele>
        <time>2026-01-19T14:32:24Z</time>
      </trkpt>
      <trkpt lat="42.51634" lon="2.03526">
        <ele>1897.7</ele>
        <time>2026-01-19T14:32:25Z</time>
      </trkpt>
      <trkpt lat="42.51635" lon="2.03525">
        <ele>1897.8</ele>
        <time>2026-01-19T14:32:26Z</time>
      </trkpt>
      <trkpt lat="42.51636" lon="2.03524">
        <ele>1897.9</ele>
        <time>2026-01-19T14:32:27Z</time>
      </trkpt>
      <trkpt lat="42.51637" lon="2.03523">
        <ele>1898</ele>
        <time>2026-01-19T14:32:28Z</time>
      </trkpt>
      <trkpt lat="42.51637" lon="2.03523">
        <ele>1898.1</ele>
        <time>2026-01-19T14:32:29Z</time>
      </trkpt>
      <trkpt lat="42.51638" lon="2.03522">
        <ele>1898.3</ele>
        <time>2026-01-19T14:32:30Z</time>
      </trkpt>
      <trkpt lat="42.51639" lon="2.03521">
        <ele>1898.4</ele>
        <time>2026-01-19T14:32:31Z</time>
      </trkpt>
      <trkpt lat="42.5164" lon="2.03521">
        <ele>1898.5</ele>
        <time>2026-01-19T14:32:32Z</time>
      </trkpt>
      <trkpt lat="42.5164" lon="2.0352">
        <ele>1898.6</ele>
        <time>2026-01-19T14:32:33Z</time>
      </trkpt>
      <trkpt lat="42.51641" lon="2.03519">
        <ele>1898.7</ele>
        <time>2026-01-19T14:32:34Z</time>
      </trkpt>
      <trkpt lat="42.51641" lon="2.03518">
        <ele>1898.8</ele>
        <time>2026-01-19T14:32:35Z</time>
      </trkpt>
      <trkpt lat="42.51642" lon="2.03517">
        <ele>1898.9</ele>
        <time>2026-01-19T14:32:36Z</time>
      </trkpt>
      <trkpt lat="42.51642" lon="2.03516">
        <ele>1899</ele>
        <time>2026-01-19T14:32:37Z</time>
      </trkpt>
      <trkpt lat="42.51642" lon="2.03515">
        <ele>1899.1</ele>
        <time>2026-01-19T14:32:38Z</time>
      </trkpt>
      <trkpt lat="42.51643" lon="2.03514">
        <ele>1899.2</ele>
        <time>2026-01-19T14:32:39Z</time>
      </trkpt>
      <trkpt lat="42.51643" lon="2.03513">
        <ele>1899.3</ele>
        <time>2026-01-19T14:32:40Z</time>
      </trkpt>
      <trkpt lat="42.51643" lon="2.03512">
        <ele>1899.4</ele>
        <time>2026-01-19T14:32:41Z</time>
      </trkpt>
      <trkpt lat="42.51643" lon="2.03511">
        <ele>1899.5</ele>
        <time>2026-01-19T14:32:42Z</time>
      </trkpt>
      <trkpt lat="42.51644" lon="2.0351">
        <ele>1899.6</ele>
        <time>2026-01-19T14:32:43Z</time>
      </trkpt>
      <trkpt lat="42.51644" lon="2.03509">
        <ele>1899.7</ele>
        <time>2026-01-19T14:32:44Z</time>
      </trkpt>
      <trkpt lat="42.51644" lon="2.03509">
        <ele>1899.8</ele>
        <time>2026-01-19T14:32:45Z</time>
      </trkpt>
      <trkpt lat="42.51644" lon="2.03508">
        <ele>1899.9</ele>
        <time>2026-01-19T14:32:46Z</time>
      </trkpt>
      <trkpt lat="42.51644" lon="2.03508">
        <ele>1900</ele>
        <time>2026-01-19T14:32:47Z</time>
      </trkpt>
      <trkpt lat="42.51644" lon="2.03507">
        <ele>1900</ele>
        <time>2026-01-19T14:32:48Z</time>
      </trkpt>
      <trkpt lat="42.51644" lon="2.03506">
        <ele>1900.1</ele>
        <time>2026-01-19T14:32:49Z</time>
      </trkpt>
      <trkpt lat="42.51644" lon="2.03505">
        <ele>1900.3</ele>
        <time>2026-01-19T14:32:50Z</time>
      </trkpt>
      <trkpt lat="42.51645" lon="2.03504">
        <ele>1900.4</ele>
        <time>2026-01-19T14:32:51Z</time>
      </trkpt>
      <trkpt lat="42.51645" lon="2.03503">
        <ele>1900.5</ele>
        <time>2026-01-19T14:32:52Z</time>
      </trkpt>
      <trkpt lat="42.51646" lon="2.03502">
        <ele>1900.6</ele>
        <time>2026-01-19T14:32:53Z</time>
      </trkpt>
      <trkpt lat="42.51646" lon="2.03501">
        <ele>1900.7</ele>
        <time>2026-01-19T14:32:54Z</time>
      </trkpt>
      <trkpt lat="42.51647" lon="2.035">
        <ele>1900.8</ele>
        <time>2026-01-19T14:32:55Z</time>
      </trkpt>
      <trkpt lat="42.51648" lon="2.03499">
        <ele>1900.9</ele>
        <time>2026-01-19T14:32:56Z</time>
      </trkpt>
      <trkpt lat="42.51648" lon="2.03497">
        <ele>1901.1</ele>
        <time>2026-01-19T14:32:57Z</time>
      </trkpt>
      <trkpt lat="42.51649" lon="2.03496">
        <ele>1901.2</ele>
        <time>2026-01-19T14:32:58Z</time>
      </trkpt>
      <trkpt lat="42.51649" lon="2.03494">
        <ele>1901.3</ele>
        <time>2026-01-19T14:32:59Z</time>
      </trkpt>
      <trkpt lat="42.51649" lon="2.03493">
        <ele>1901.4</ele>
        <time>2026-01-19T14:33:00Z</time>
      </trkpt>
      <trkpt lat="42.5165" lon="2.03492">
        <ele>1901.6</ele>
        <time>2026-01-19T14:33:01Z</time>
      </trkpt>
      <trkpt lat="42.5165" lon="2.03491">
        <ele>1901.7</ele>
        <time>2026-01-19T14:33:02Z</time>
      </trkpt>
      <trkpt lat="42.51651" lon="2.0349">
        <ele>1901.8</ele>
        <time>2026-01-19T14:33:03Z</time>
      </trkpt>
      <trkpt lat="42.51652" lon="2.03489">
        <ele>1901.9</ele>
        <time>2026-01-19T14:33:04Z</time>
      </trkpt>
      <trkpt lat="42.51652" lon="2.03488">
        <ele>1902</ele>
        <time>2026-01-19T14:33:05Z</time>
      </trkpt>
      <trkpt lat="42.51653" lon="2.03487">
        <ele>1902.2</ele>
        <time>2026-01-19T14:33:06Z</time>
      </trkpt>
      <trkpt lat="42.51654" lon="2.03486">
        <ele>1902.3</ele>
        <time>2026-01-19T14:33:07Z</time>
      </trkpt>
      <trkpt lat="42.51655" lon="2.03486">
        <ele>1902.3</ele>
        <time>2026-01-19T14:33:08Z</time>
      </trkpt>
      <trkpt lat="42.51655" lon="2.03485">
        <ele>1902.5</ele>
        <time>2026-01-19T14:33:09Z</time>
      </trkpt>
      <trkpt lat="42.51656" lon="2.03484">
        <ele>1902.5</ele>
        <time>2026-01-19T14:33:10Z</time>
      </trkpt>
      <trkpt lat="42.51657" lon="2.03484">
        <ele>1902.6</ele>
        <time>2026-01-19T14:33:11Z</time>
      </trkpt>
      <trkpt lat="42.51657" lon="2.03484">
        <ele>1902.7</ele>
        <time>2026-01-19T14:33:12Z</time>
      </trkpt>
      <trkpt lat="42.51658" lon="2.03483">
        <ele>1902.8</ele>
        <time>2026-01-19T14:33:13Z</time>
      </trkpt>
      <trkpt lat="42.51659" lon="2.03483">
        <ele>1902.8</ele>
        <time>2026-01-19T14:33:14Z</time>
      </trkpt>
      <trkpt lat="42.51659" lon="2.03482">
        <ele>1902.9</ele>
        <time>2026-01-19T14:33:15Z</time>
      </trkpt>
      <trkpt lat="42.5166" lon="2.03482">
        <ele>1903</ele>
        <time>2026-01-19T14:33:16Z</time>
      </trkpt>
      <trkpt lat="42.51661" lon="2.03481">
        <ele>1903.1</ele>
        <time>2026-01-19T14:33:17Z</time>
      </trkpt>
      <trkpt lat="42.51661" lon="2.0348">
        <ele>1903.1</ele>
        <time>2026-01-19T14:33:18Z</time>
      </trkpt>
      <trkpt lat="42.51662" lon="2.03479">
        <ele>1903.2</ele>
        <time>2026-01-19T14:33:19Z</time>
      </trkpt>
      <trkpt lat="42.51662" lon="2.03478">
        <ele>1903.3</ele>
        <time>2026-01-19T14:33:20Z</time>
      </trkpt>
      <trkpt lat="42.51663" lon="2.03477">
        <ele>1903.4</ele>
        <time>2026-01-19T14:33:21Z</time>
      </trkpt>
      <trkpt lat="42.51663" lon="2.03476">
        <ele>1903.4</ele>
        <time>2026-01-19T14:33:22Z</time>
      </trkpt>
      <trkpt lat="42.51664" lon="2.03475">
        <ele>1903.5</ele>
        <time>2026-01-19T14:33:23Z</time>
      </trkpt>
      <trkpt lat="42.51665" lon="2.03475">
        <ele>1903.6</ele>
        <time>2026-01-19T14:33:24Z</time>
      </trkpt>
      <trkpt lat="42.51665" lon="2.03474">
        <ele>1903.6</ele>
        <time>2026-01-19T14:33:25Z</time>
      </trkpt>
      <trkpt lat="42.51667" lon="2.03474">
        <ele>1903.7</ele>
        <time>2026-01-19T14:33:26Z</time>
      </trkpt>
      <trkpt lat="42.51668" lon="2.03473">
        <ele>1903.8</ele>
        <time>2026-01-19T14:33:27Z</time>
      </trkpt>
      <trkpt lat="42.51669" lon="2.03473">
        <ele>1903.9</ele>
        <time>2026-01-19T14:33:28Z</time>
      </trkpt>
      <trkpt lat="42.5167" lon="2.03472">
        <ele>1903.9</ele>
        <time>2026-01-19T14:33:29Z</time>
      </trkpt>
      <trkpt lat="42.51671" lon="2.03471">
        <ele>1904</ele>
        <time>2026-01-19T14:33:30Z</time>
      </trkpt>
      <trkpt lat="42.51672" lon="2.03471">
        <ele>1904.1</ele>
        <time>2026-01-19T14:33:31Z</time>
      </trkpt>
      <trkpt lat="42.51673" lon="2.0347">
        <ele>1904.1</ele>
        <time>2026-01-19T14:33:32Z</time>
      </trkpt>
      <trkpt lat="42.51674" lon="2.0347">
        <ele>1904.2</ele>
        <time>2026-01-19T14:33:33Z</time>
      </trkpt>
      <trkpt lat="42.51675" lon="2.03469">
        <ele>1904.2</ele>
        <time>2026-01-19T14:33:34Z</time>
      </trkpt>
      <trkpt lat="42.51675" lon="2.03468">
        <ele>1904.3</ele>
        <time>2026-01-19T14:33:35Z</time>
      </trkpt>
      <trkpt lat="42.51676" lon="2.03467">
        <ele>1904.3</ele>
        <time>2026-01-19T14:33:36Z</time>
      </trkpt>
      <trkpt lat="42.51676" lon="2.03465">
        <ele>1904.4</ele>
        <time>2026-01-19T14:33:37Z</time>
      </trkpt>
      <trkpt lat="42.51677" lon="2.03464">
        <ele>1904.4</ele>
        <time>2026-01-19T14:33:38Z</time>
      </trkpt>
      <trkpt lat="42.51678" lon="2.03462">
        <ele>1904.5</ele>
        <time>2026-01-19T14:33:39Z</time>
      </trkpt>
      <trkpt lat="42.51679" lon="2.03461">
        <ele>1904.5</ele>
        <time>2026-01-19T14:33:40Z</time>
      </trkpt>
      <trkpt lat="42.5168" lon="2.0346">
        <ele>1904.6</ele>
        <time>2026-01-19T14:33:41Z</time>
      </trkpt>
      <trkpt lat="42.5168" lon="2.03459">
        <ele>1904.6</ele>
        <time>2026-01-19T14:33:42Z</time>
      </trkpt>
      <trkpt lat="42.51681" lon="2.03458">
        <ele>1904.6</ele>
        <time>2026-01-19T14:33:43Z</time>
      </trkpt>
      <trkpt lat="42.51681" lon="2.03457">
        <ele>1904.7</ele>
        <time>2026-01-19T14:33:44Z</time>
      </trkpt>
      <trkpt lat="42.51682" lon="2.03456">
        <ele>1904.7</ele>
        <time>2026-01-19T14:33:45Z</time>
      </trkpt>
      <trkpt lat="42.51682" lon="2.03455">
        <ele>1904.7</ele>
        <time>2026-01-19T14:33:46Z</time>
      </trkpt>
      <trkpt lat="42.51682" lon="2.03453">
        <ele>1904.7</ele>
        <time>2026-01-19T14:33:47Z</time>
      </trkpt>
      <trkpt lat="42.51682" lon="2.03452">
        <ele>1904.8</ele>
        <time>2026-01-19T14:33:48Z</time>
      </trkpt>
      <trkpt lat="42.51683" lon="2.03451">
        <ele>1904.8</ele>
        <time>2026-01-19T14:33:49Z</time>
      </trkpt>
      <trkpt lat="42.51684" lon="2.03451">
        <ele>1904.8</ele>
        <time>2026-01-19T14:33:50Z</time>
      </trkpt>
      <trkpt lat="42.51685" lon="2.03451">
        <ele>1904.8</ele>
        <time>2026-01-19T14:33:51Z</time>
      </trkpt>
      <trkpt lat="42.51685" lon="2.03449">
        <ele>1904.8</ele>
        <time>2026-01-19T14:33:52Z</time>
      </trkpt>
      <trkpt lat="42.51685" lon="2.03448">
        <ele>1904.9</ele>
        <time>2026-01-19T14:33:53Z</time>
      </trkpt>
      <trkpt lat="42.51685" lon="2.03447">
        <ele>1904.9</ele>
        <time>2026-01-19T14:33:54Z</time>
      </trkpt>
      <trkpt lat="42.51686" lon="2.03445">
        <ele>1904.9</ele>
        <time>2026-01-19T14:33:55Z</time>
      </trkpt>
      <trkpt lat="42.51686" lon="2.03444">
        <ele>1904.9</ele>
        <time>2026-01-19T14:33:56Z</time>
      </trkpt>
      <trkpt lat="42.51686" lon="2.03443">
        <ele>1904.9</ele>
        <time>2026-01-19T14:33:57Z</time>
      </trkpt>
      <trkpt lat="42.51687" lon="2.03441">
        <ele>1904.9</ele>
        <time>2026-01-19T14:33:58Z</time>
      </trkpt>
      <trkpt lat="42.51687" lon="2.0344">
        <ele>1904.9</ele>
        <time>2026-01-19T14:33:59Z</time>
      </trkpt>
      <trkpt lat="42.51687" lon="2.03439">
        <ele>1904.9</ele>
        <time>2026-01-19T14:34:00Z</time>
      </trkpt>
      <trkpt lat="42.51687" lon="2.03437">
        <ele>1904.9</ele>
        <time>2026-01-19T14:34:01Z</time>
      </trkpt>
      <trkpt lat="42.51687" lon="2.03436">
        <ele>1904.9</ele>
        <time>2026-01-19T14:34:02Z</time>
      </trkpt>
      <trkpt lat="42.51687" lon="2.03434">
        <ele>1904.9</ele>
        <time>2026-01-19T14:34:03Z</time>
      </trkpt>
      <trkpt lat="42.51687" lon="2.03433">
        <ele>1904.9</ele>
        <time>2026-01-19T14:34:04Z</time>
      </trkpt>
      <trkpt lat="42.51687" lon="2.03431">
        <ele>1904.9</ele>
        <time>2026-01-19T14:34:05Z</time>
      </trkpt>
      <trkpt lat="42.51687" lon="2.0343">
        <ele>1904.9</ele>
        <time>2026-01-19T14:34:06Z</time>
      </trkpt>
      <trkpt lat="42.51687" lon="2.03428">
        <ele>1904.9</ele>
        <time>2026-01-19T14:34:07Z</time>
      </trkpt>
      <trkpt lat="42.51687" lon="2.03427">
        <ele>1904.9</ele>
        <time>2026-01-19T14:34:08Z</time>
      </trkpt>
      <trkpt lat="42.51687" lon="2.03426">
        <ele>1904.9</ele>
        <time>2026-01-19T14:34:09Z</time>
      </trkpt>
      <trkpt lat="42.51687" lon="2.03424">
        <ele>1904.9</ele>
        <time>2026-01-19T14:34:10Z</time>
      </trkpt>
      <trkpt lat="42.51687" lon="2.03423">
        <ele>1904.9</ele>
        <time>2026-01-19T14:34:11Z</time>
      </trkpt>
      <trkpt lat="42.51687" lon="2.03421">
        <ele>1904.9</ele>
        <time>2026-01-19T14:34:12Z</time>
      </trkpt>
      <trkpt lat="42.51688" lon="2.0342">
        <ele>1904.9</ele>
        <time>2026-01-19T14:34:13Z</time>
      </trkpt>
      <trkpt lat="42.51687" lon="2.03418">
        <ele>1904.9</ele>
        <time>2026-01-19T14:34:14Z</time>
      </trkpt>
      <trkpt lat="42.51687" lon="2.03417">
        <ele>1904.9</ele>
        <time>2026-01-19T14:34:15Z</time>
      </trkpt>
      <trkpt lat="42.51687" lon="2.03414">
        <ele>1904.9</ele>
        <time>2026-01-19T14:34:16Z</time>
      </trkpt>
      <trkpt lat="42.51687" lon="2.03413">
        <ele>1904.9</ele>
        <time>2026-01-19T14:34:17Z</time>
      </trkpt>
      <trkpt lat="42.51687" lon="2.03412">
        <ele>1905</ele>
        <time>2026-01-19T14:34:18Z</time>
      </trkpt>
      <trkpt lat="42.51686" lon="2.0341">
        <ele>1905</ele>
        <time>2026-01-19T14:34:19Z</time>
      </trkpt>
      <trkpt lat="42.51686" lon="2.03409">
        <ele>1905</ele>
        <time>2026-01-19T14:34:20Z</time>
      </trkpt>
      <trkpt lat="42.51686" lon="2.03408">
        <ele>1905</ele>
        <time>2026-01-19T14:34:21Z</time>
      </trkpt>
      <trkpt lat="42.51685" lon="2.03408">
        <ele>1905</ele>
        <time>2026-01-19T14:34:22Z</time>
      </trkpt>
      <trkpt lat="42.51686" lon="2.03408">
        <ele>1905</ele>
        <time>2026-01-19T14:34:23Z</time>
      </trkpt>
      <trkpt lat="42.51686" lon="2.03407">
        <ele>1905</ele>
        <time>2026-01-19T14:34:24Z</time>
      </trkpt>
      <trkpt lat="42.51686" lon="2.03407">
        <ele>1905</ele>
        <time>2026-01-19T14:34:25Z</time>
      </trkpt>
      <trkpt lat="42.51686" lon="2.03407">
        <ele>1905</ele>
        <time>2026-01-19T14:34:26Z</time>
      </trkpt>
      <trkpt lat="42.51686" lon="2.03407">
        <ele>1905</ele>
        <time>2026-01-19T14:34:27Z</time>
      </trkpt>
      <trkpt lat="42.51686" lon="2.03406">
        <ele>1905</ele>
        <time>2026-01-19T14:34:28Z</time>
      </trkpt>
      <trkpt lat="42.51686" lon="2.03406">
        <ele>1905</ele>
        <time>2026-01-19T14:34:29Z</time>
      </trkpt>
      <trkpt lat="42.51687" lon="2.03406">
        <ele>1905</ele>
        <time>2026-01-19T14:34:30Z</time>
      </trkpt>
      <trkpt lat="42.51687" lon="2.03406">
        <ele>1905</ele>
        <time>2026-01-19T14:34:31Z</time>
      </trkpt>
      <trkpt lat="42.51687" lon="2.03405">
        <ele>1905.1</ele>
        <time>2026-01-19T14:34:32Z</time>
      </trkpt>
      <trkpt lat="42.51687" lon="2.03405">
        <ele>1905.1</ele>
        <time>2026-01-19T14:34:33Z</time>
      </trkpt>
      <trkpt lat="42.51687" lon="2.03405">
        <ele>1905.1</ele>
        <time>2026-01-19T14:34:34Z</time>
      </trkpt>
      <trkpt lat="42.51687" lon="2.03404">
        <ele>1905.1</ele>
        <time>2026-01-19T14:34:35Z</time>
      </trkpt>
      <trkpt lat="42.51688" lon="2.03404">
        <ele>1905.1</ele>
        <time>2026-01-19T14:34:36Z</time>
      </trkpt>
      <trkpt lat="42.51688" lon="2.03403">
        <ele>1905.1</ele>
        <time>2026-01-19T14:34:37Z</time>
      </trkpt>
      <trkpt lat="42.51689" lon="2.03402">
        <ele>1905.1</ele>
        <time>2026-01-19T14:34:38Z</time>
      </trkpt>
      <trkpt lat="42.51689" lon="2.034">
        <ele>1905.2</ele>
        <time>2026-01-19T14:34:39Z</time>
      </trkpt>
      <trkpt lat="42.5169" lon="2.03399">
        <ele>1905.2</ele>
        <time>2026-01-19T14:34:40Z</time>
      </trkpt>
      <trkpt lat="42.51691" lon="2.03398">
        <ele>1905.2</ele>
        <time>2026-01-19T14:34:41Z</time>
      </trkpt>
      <trkpt lat="42.51692" lon="2.03397">
        <ele>1905.3</ele>
        <time>2026-01-19T14:34:42Z</time>
      </trkpt>
      <trkpt lat="42.51692" lon="2.03395">
        <ele>1905.3</ele>
        <time>2026-01-19T14:34:43Z</time>
      </trkpt>
      <trkpt lat="42.51694" lon="2.03394">
        <ele>1905.4</ele>
        <time>2026-01-19T14:34:44Z</time>
      </trkpt>
      <trkpt lat="42.51696" lon="2.03393">
        <ele>1905.5</ele>
        <time>2026-01-19T14:34:45Z</time>
      </trkpt>
      <trkpt lat="42.51696" lon="2.03392">
        <ele>1905.6</ele>
        <time>2026-01-19T14:34:46Z</time>
      </trkpt>
      <trkpt lat="42.51697" lon="2.03392">
        <ele>1905.7</ele>
        <time>2026-01-19T14:34:47Z</time>
      </trkpt>
      <trkpt lat="42.51699" lon="2.03391">
        <ele>1905.8</ele>
        <time>2026-01-19T14:34:48Z</time>
      </trkpt>
      <trkpt lat="42.517" lon="2.0339">
        <ele>1905.9</ele>
        <time>2026-01-19T14:34:49Z</time>
      </trkpt>
      <trkpt lat="42.51701" lon="2.0339">
        <ele>1906</ele>
        <time>2026-01-19T14:34:50Z</time>
      </trkpt>
      <trkpt lat="42.51702" lon="2.03389">
        <ele>1906.1</ele>
        <time>2026-01-19T14:34:51Z</time>
      </trkpt>
      <trkpt lat="42.51703" lon="2.03389">
        <ele>1906.2</ele>
        <time>2026-01-19T14:34:52Z</time>
      </trkpt>
      <trkpt lat="42.51704" lon="2.03388">
        <ele>1906.3</ele>
        <time>2026-01-19T14:34:53Z</time>
      </trkpt>
      <trkpt lat="42.51705" lon="2.03387">
        <ele>1906.4</ele>
        <time>2026-01-19T14:34:54Z</time>
      </trkpt>
      <trkpt lat="42.51706" lon="2.03387">
        <ele>1906.5</ele>
        <time>2026-01-19T14:34:55Z</time>
      </trkpt>
      <trkpt lat="42.51707" lon="2.03386">
        <ele>1906.6</ele>
        <time>2026-01-19T14:34:56Z</time>
      </trkpt>
      <trkpt lat="42.51708" lon="2.03386">
        <ele>1906.7</ele>
        <time>2026-01-19T14:34:57Z</time>
      </trkpt>
      <trkpt lat="42.51709" lon="2.03385">
        <ele>1906.9</ele>
        <time>2026-01-19T14:34:58Z</time>
      </trkpt>
      <trkpt lat="42.5171" lon="2.03385">
        <ele>1906.9</ele>
        <time>2026-01-19T14:34:59Z</time>
      </trkpt>
      <trkpt lat="42.5171" lon="2.03385">
        <ele>1907</ele>
        <time>2026-01-19T14:35:00Z</time>
      </trkpt>
      <trkpt lat="42.51711" lon="2.03384">
        <ele>1907.1</ele>
        <time>2026-01-19T14:35:01Z</time>
      </trkpt>
      <trkpt lat="42.51711" lon="2.03383">
        <ele>1907.2</ele>
        <time>2026-01-19T14:35:02Z</time>
      </trkpt>
      <trkpt lat="42.51712" lon="2.03382">
        <ele>1907.3</ele>
        <time>2026-01-19T14:35:03Z</time>
      </trkpt>
      <trkpt lat="42.51712" lon="2.03381">
        <ele>1907.5</ele>
        <time>2026-01-19T14:35:04Z</time>
      </trkpt>
      <trkpt lat="42.51713" lon="2.0338">
        <ele>1907.6</ele>
        <time>2026-01-19T14:35:05Z</time>
      </trkpt>
      <trkpt lat="42.51714" lon="2.03378">
        <ele>1907.9</ele>
        <time>2026-01-19T14:35:06Z</time>
      </trkpt>
      <trkpt lat="42.51714" lon="2.03377">
        <ele>1908</ele>
        <time>2026-01-19T14:35:07Z</time>
      </trkpt>
      <trkpt lat="42.51715" lon="2.03376">
        <ele>1908.1</ele>
        <time>2026-01-19T14:35:08Z</time>
      </trkpt>
      <trkpt lat="42.51715" lon="2.03374">
        <ele>1908.2</ele>
        <time>2026-01-19T14:35:09Z</time>
      </trkpt>
      <trkpt lat="42.51716" lon="2.03373">
        <ele>1908.4</ele>
        <time>2026-01-19T14:35:10Z</time>
      </trkpt>
      <trkpt lat="42.51716" lon="2.03371">
        <ele>1908.6</ele>
        <time>2026-01-19T14:35:11Z</time>
      </trkpt>
      <trkpt lat="42.51716" lon="2.03369">
        <ele>1908.7</ele>
        <time>2026-01-19T14:35:12Z</time>
      </trkpt>
      <trkpt lat="42.51716" lon="2.03368">
        <ele>1908.9</ele>
        <time>2026-01-19T14:35:13Z</time>
      </trkpt>
      <trkpt lat="42.51717" lon="2.03366">
        <ele>1909</ele>
        <time>2026-01-19T14:35:14Z</time>
      </trkpt>
      <trkpt lat="42.51716" lon="2.03364">
        <ele>1909.2</ele>
        <time>2026-01-19T14:35:15Z</time>
      </trkpt>
      <trkpt lat="42.51716" lon="2.03363">
        <ele>1909.4</ele>
        <time>2026-01-19T14:35:16Z</time>
      </trkpt>
      <trkpt lat="42.51716" lon="2.03361">
        <ele>1909.6</ele>
        <time>2026-01-19T14:35:17Z</time>
      </trkpt>
      <trkpt lat="42.51717" lon="2.0336">
        <ele>1909.7</ele>
        <time>2026-01-19T14:35:18Z</time>
      </trkpt>
      <trkpt lat="42.51717" lon="2.03359">
        <ele>1909.8</ele>
        <time>2026-01-19T14:35:19Z</time>
      </trkpt>
      <trkpt lat="42.51717" lon="2.03357">
        <ele>1910</ele>
        <time>2026-01-19T14:35:20Z</time>
      </trkpt>
      <trkpt lat="42.51717" lon="2.03356">
        <ele>1910.1</ele>
        <time>2026-01-19T14:35:21Z</time>
      </trkpt>
      <trkpt lat="42.51717" lon="2.03355">
        <ele>1910.3</ele>
        <time>2026-01-19T14:35:22Z</time>
      </trkpt>
      <trkpt lat="42.51718" lon="2.03353">
        <ele>1910.4</ele>
        <time>2026-01-19T14:35:23Z</time>
      </trkpt>
      <trkpt lat="42.51718" lon="2.03352">
        <ele>1910.6</ele>
        <time>2026-01-19T14:35:24Z</time>
      </trkpt>
      <trkpt lat="42.51718" lon="2.03351">
        <ele>1910.7</ele>
        <time>2026-01-19T14:35:25Z</time>
      </trkpt>
      <trkpt lat="42.51719" lon="2.0335">
        <ele>1910.8</ele>
        <time>2026-01-19T14:35:26Z</time>
      </trkpt>
      <trkpt lat="42.51719" lon="2.03349">
        <ele>1910.9</ele>
        <time>2026-01-19T14:35:27Z</time>
      </trkpt>
      <trkpt lat="42.51719" lon="2.03348">
        <ele>1911.1</ele>
        <time>2026-01-19T14:35:28Z</time>
      </trkpt>
      <trkpt lat="42.5172" lon="2.03347">
        <ele>1911.2</ele>
        <time>2026-01-19T14:35:29Z</time>
      </trkpt>
      <trkpt lat="42.5172" lon="2.03347">
        <ele>1911.3</ele>
        <time>2026-01-19T14:35:30Z</time>
      </trkpt>
      <trkpt lat="42.5172" lon="2.03346">
        <ele>1911.4</ele>
        <time>2026-01-19T14:35:31Z</time>
      </trkpt>
      <trkpt lat="42.51721" lon="2.03345">
        <ele>1911.6</ele>
        <time>2026-01-19T14:35:32Z</time>
      </trkpt>
      <trkpt lat="42.51722" lon="2.03344">
        <ele>1911.7</ele>
        <time>2026-01-19T14:35:33Z</time>
      </trkpt>
      <trkpt lat="42.51722" lon="2.03344">
        <ele>1911.8</ele>
        <time>2026-01-19T14:35:34Z</time>
      </trkpt>
      <trkpt lat="42.51723" lon="2.03343">
        <ele>1912</ele>
        <time>2026-01-19T14:35:35Z</time>
      </trkpt>
      <trkpt lat="42.51724" lon="2.03343">
        <ele>1912.1</ele>
        <time>2026-01-19T14:35:36Z</time>
      </trkpt>
      <trkpt lat="42.51725" lon="2.03343">
        <ele>1912.2</ele>
        <time>2026-01-19T14:35:37Z</time>
      </trkpt>
      <trkpt lat="42.51725" lon="2.03342">
        <ele>1912.4</ele>
        <time>2026-01-19T14:35:38Z</time>
      </trkpt>
      <trkpt lat="42.51726" lon="2.03342">
        <ele>1912.5</ele>
        <time>2026-01-19T14:35:39Z</time>
      </trkpt>
      <trkpt lat="42.51727" lon="2.03342">
        <ele>1912.6</ele>
        <time>2026-01-19T14:35:40Z</time>
      </trkpt>
      <trkpt lat="42.51728" lon="2.03341">
        <ele>1912.8</ele>
        <time>2026-01-19T14:35:41Z</time>
      </trkpt>
      <trkpt lat="42.51729" lon="2.03342">
        <ele>1912.9</ele>
        <time>2026-01-19T14:35:42Z</time>
      </trkpt>
      <trkpt lat="42.51729" lon="2.03342">
        <ele>1913</ele>
        <time>2026-01-19T14:35:43Z</time>
      </trkpt>
      <trkpt lat="42.5173" lon="2.03341">
        <ele>1913.1</ele>
        <time>2026-01-19T14:35:44Z</time>
      </trkpt>
      <trkpt lat="42.5173" lon="2.03341">
        <ele>1913.2</ele>
        <time>2026-01-19T14:35:45Z</time>
      </trkpt>
      <trkpt lat="42.51731" lon="2.03342">
        <ele>1913.3</ele>
        <time>2026-01-19T14:35:46Z</time>
      </trkpt>
      <trkpt lat="42.51732" lon="2.03342">
        <ele>1913.4</ele>
        <time>2026-01-19T14:35:47Z</time>
      </trkpt>
      <trkpt lat="42.51732" lon="2.03342">
        <ele>1913.5</ele>
        <time>2026-01-19T14:35:48Z</time>
      </trkpt>
      <trkpt lat="42.51733" lon="2.03342">
        <ele>1913.7</ele>
        <time>2026-01-19T14:35:49Z</time>
      </trkpt>
      <trkpt lat="42.51734" lon="2.03341">
        <ele>1913.8</ele>
        <time>2026-01-19T14:35:50Z</time>
      </trkpt>
      <trkpt lat="42.51734" lon="2.03341">
        <ele>1913.9</ele>
        <time>2026-01-19T14:35:51Z</time>
      </trkpt>
      <trkpt lat="42.51735" lon="2.03341">
        <ele>1914</ele>
        <time>2026-01-19T14:35:52Z</time>
      </trkpt>
      <trkpt lat="42.51736" lon="2.03341">
        <ele>1914.1</ele>
        <time>2026-01-19T14:35:53Z</time>
      </trkpt>
      <trkpt lat="42.51737" lon="2.03342">
        <ele>1914.3</ele>
        <time>2026-01-19T14:35:54Z</time>
      </trkpt>
      <trkpt lat="42.51737" lon="2.03341">
        <ele>1914.4</ele>
        <time>2026-01-19T14:35:55Z</time>
      </trkpt>
      <trkpt lat="42.51738" lon="2.03341">
        <ele>1914.5</ele>
        <time>2026-01-19T14:35:56Z</time>
      </trkpt>
      <trkpt lat="42.51738" lon="2.0334">
        <ele>1914.6</ele>
        <time>2026-01-19T14:35:57Z</time>
      </trkpt>
      <trkpt lat="42.51739" lon="2.0334">
        <ele>1914.7</ele>
        <time>2026-01-19T14:35:58Z</time>
      </trkpt>
      <trkpt lat="42.5174" lon="2.0334">
        <ele>1914.8</ele>
        <time>2026-01-19T14:35:59Z</time>
      </trkpt>
      <trkpt lat="42.5174" lon="2.03339">
        <ele>1914.9</ele>
        <time>2026-01-19T14:36:00Z</time>
      </trkpt>
      <trkpt lat="42.51741" lon="2.03339">
        <ele>1915</ele>
        <time>2026-01-19T14:36:01Z</time>
      </trkpt>
      <trkpt lat="42.51742" lon="2.03339">
        <ele>1915.1</ele>
        <time>2026-01-19T14:36:02Z</time>
      </trkpt>
      <trkpt lat="42.51742" lon="2.03339">
        <ele>1915.2</ele>
        <time>2026-01-19T14:36:03Z</time>
      </trkpt>
      <trkpt lat="42.51743" lon="2.03339">
        <ele>1915.2</ele>
        <time>2026-01-19T14:36:04Z</time>
      </trkpt>
      <trkpt lat="42.51743" lon="2.03338">
        <ele>1915.3</ele>
        <time>2026-01-19T14:36:05Z</time>
      </trkpt>
      <trkpt lat="42.51744" lon="2.03338">
        <ele>1915.4</ele>
        <time>2026-01-19T14:36:06Z</time>
      </trkpt>
      <trkpt lat="42.51745" lon="2.03338">
        <ele>1915.5</ele>
        <time>2026-01-19T14:36:07Z</time>
      </trkpt>
      <trkpt lat="42.51745" lon="2.03338">
        <ele>1915.6</ele>
        <time>2026-01-19T14:36:08Z</time>
      </trkpt>
      <trkpt lat="42.51746" lon="2.03337">
        <ele>1915.7</ele>
        <time>2026-01-19T14:36:09Z</time>
      </trkpt>
      <trkpt lat="42.51746" lon="2.03337">
        <ele>1915.8</ele>
        <time>2026-01-19T14:36:10Z</time>
      </trkpt>
      <trkpt lat="42.51747" lon="2.03336">
        <ele>1915.9</ele>
        <time>2026-01-19T14:36:11Z</time>
      </trkpt>
      <trkpt lat="42.51748" lon="2.03335">
        <ele>1916</ele>
        <time>2026-01-19T14:36:12Z</time>
      </trkpt>
      <trkpt lat="42.51748" lon="2.03334">
        <ele>1916.2</ele>
        <time>2026-01-19T14:36:13Z</time>
      </trkpt>
      <trkpt lat="42.51748" lon="2.03334">
        <ele>1916.3</ele>
        <time>2026-01-19T14:36:14Z</time>
      </trkpt>
      <trkpt lat="42.51749" lon="2.03333">
        <ele>1916.3</ele>
        <time>2026-01-19T14:36:15Z</time>
      </trkpt>
      <trkpt lat="42.5175" lon="2.03333">
        <ele>1916.4</ele>
        <time>2026-01-19T14:36:16Z</time>
      </trkpt>
      <trkpt lat="42.5175" lon="2.03332">
        <ele>1916.5</ele>
        <time>2026-01-19T14:36:17Z</time>
      </trkpt>
      <trkpt lat="42.51751" lon="2.03332">
        <ele>1916.6</ele>
        <time>2026-01-19T14:36:18Z</time>
      </trkpt>
      <trkpt lat="42.51752" lon="2.03332">
        <ele>1916.7</ele>
        <time>2026-01-19T14:36:19Z</time>
      </trkpt>
      <trkpt lat="42.51752" lon="2.03331">
        <ele>1916.9</ele>
        <time>2026-01-19T14:36:20Z</time>
      </trkpt>
      <trkpt lat="42.51753" lon="2.03331">
        <ele>1916.9</ele>
        <time>2026-01-19T14:36:21Z</time>
      </trkpt>
      <trkpt lat="42.51754" lon="2.03331">
        <ele>1917</ele>
        <time>2026-01-19T14:36:22Z</time>
      </trkpt>
      <trkpt lat="42.51755" lon="2.0333">
        <ele>1917.1</ele>
        <time>2026-01-19T14:36:23Z</time>
      </trkpt>
      <trkpt lat="42.51755" lon="2.0333">
        <ele>1917.2</ele>
        <time>2026-01-19T14:36:24Z</time>
      </trkpt>
      <trkpt lat="42.51756" lon="2.03329">
        <ele>1917.3</ele>
        <time>2026-01-19T14:36:25Z</time>
      </trkpt>
      <trkpt lat="42.51756" lon="2.03329">
        <ele>1917.4</ele>
        <time>2026-01-19T14:36:26Z</time>
      </trkpt>
      <trkpt lat="42.51756" lon="2.03328">
        <ele>1917.5</ele>
        <time>2026-01-19T14:36:27Z</time>
      </trkpt>
      <trkpt lat="42.51757" lon="2.03327">
        <ele>1917.6</ele>
        <time>2026-01-19T14:36:28Z</time>
      </trkpt>
      <trkpt lat="42.51756" lon="2.03326">
        <ele>1917.7</ele>
        <time>2026-01-19T14:36:29Z</time>
      </trkpt>
      <trkpt lat="42.51757" lon="2.03325">
        <ele>1917.8</ele>
        <time>2026-01-19T14:36:30Z</time>
      </trkpt>
      <trkpt lat="42.51757" lon="2.03323">
        <ele>1917.9</ele>
        <time>2026-01-19T14:36:31Z</time>
      </trkpt>
      <trkpt lat="42.51757" lon="2.03322">
        <ele>1918</ele>
        <time>2026-01-19T14:36:32Z</time>
      </trkpt>
      <trkpt lat="42.51757" lon="2.03321">
        <ele>1918.1</ele>
        <time>2026-01-19T14:36:33Z</time>
      </trkpt>
      <trkpt lat="42.51757" lon="2.0332">
        <ele>1918.1</ele>
        <time>2026-01-19T14:36:34Z</time>
      </trkpt>
      <trkpt lat="42.51758" lon="2.03319">
        <ele>1918.2</ele>
        <time>2026-01-19T14:36:35Z</time>
      </trkpt>
      <trkpt lat="42.51758" lon="2.03318">
        <ele>1918.3</ele>
        <time>2026-01-19T14:36:36Z</time>
      </trkpt>
      <trkpt lat="42.51759" lon="2.03317">
        <ele>1918.4</ele>
        <time>2026-01-19T14:36:37Z</time>
      </trkpt>
      <trkpt lat="42.51759" lon="2.03317">
        <ele>1918.4</ele>
        <time>2026-01-19T14:36:38Z</time>
      </trkpt>
      <trkpt lat="42.5176" lon="2.03316">
        <ele>1918.5</ele>
        <time>2026-01-19T14:36:39Z</time>
      </trkpt>
      <trkpt lat="42.5176" lon="2.03316">
        <ele>1918.5</ele>
        <time>2026-01-19T14:36:40Z</time>
      </trkpt>
      <trkpt lat="42.51761" lon="2.03315">
        <ele>1918.6</ele>
        <time>2026-01-19T14:36:41Z</time>
      </trkpt>
      <trkpt lat="42.51762" lon="2.03315">
        <ele>1918.7</ele>
        <time>2026-01-19T14:36:42Z</time>
      </trkpt>
      <trkpt lat="42.51762" lon="2.03314">
        <ele>1918.7</ele>
        <time>2026-01-19T14:36:43Z</time>
      </trkpt>
      <trkpt lat="42.51763" lon="2.03313">
        <ele>1918.8</ele>
        <time>2026-01-19T14:36:44Z</time>
      </trkpt>
      <trkpt lat="42.51763" lon="2.03312">
        <ele>1918.9</ele>
        <time>2026-01-19T14:36:45Z</time>
      </trkpt>
      <trkpt lat="42.51764" lon="2.03311">
        <ele>1918.9</ele>
        <time>2026-01-19T14:36:46Z</time>
      </trkpt>
      <trkpt lat="42.51764" lon="2.0331">
        <ele>1919</ele>
        <time>2026-01-19T14:36:47Z</time>
      </trkpt>
      <trkpt lat="42.51764" lon="2.03309">
        <ele>1919</ele>
        <time>2026-01-19T14:36:48Z</time>
      </trkpt>
      <trkpt lat="42.51765" lon="2.03308">
        <ele>1919.1</ele>
        <time>2026-01-19T14:36:49Z</time>
      </trkpt>
      <trkpt lat="42.51765" lon="2.03307">
        <ele>1919.2</ele>
        <time>2026-01-19T14:36:50Z</time>
      </trkpt>
      <trkpt lat="42.51766" lon="2.03306">
        <ele>1919.2</ele>
        <time>2026-01-19T14:36:51Z</time>
      </trkpt>
      <trkpt lat="42.51766" lon="2.03305">
        <ele>1919.3</ele>
        <time>2026-01-19T14:36:52Z</time>
      </trkpt>
      <trkpt lat="42.51767" lon="2.03303">
        <ele>1919.3</ele>
        <time>2026-01-19T14:36:53Z</time>
      </trkpt>
      <trkpt lat="42.51767" lon="2.03303">
        <ele>1919.4</ele>
        <time>2026-01-19T14:36:54Z</time>
      </trkpt>
      <trkpt lat="42.51767" lon="2.03302">
        <ele>1919.4</ele>
        <time>2026-01-19T14:36:55Z</time>
      </trkpt>
      <trkpt lat="42.51767" lon="2.03302">
        <ele>1919.4</ele>
        <time>2026-01-19T14:36:56Z</time>
      </trkpt>
      <trkpt lat="42.51767" lon="2.03301">
        <ele>1919.5</ele>
        <time>2026-01-19T14:36:57Z</time>
      </trkpt>
      <trkpt lat="42.51767" lon="2.03301">
        <ele>1919.5</ele>
        <time>2026-01-19T14:36:58Z</time>
      </trkpt>
      <trkpt lat="42.51766" lon="2.033">
        <ele>1919.5</ele>
        <time>2026-01-19T14:36:59Z</time>
      </trkpt>
      <trkpt lat="42.51766" lon="2.03299">
        <ele>1919.5</ele>
        <time>2026-01-19T14:37:00Z</time>
      </trkpt>
      <trkpt lat="42.51766" lon="2.03298">
        <ele>1919.5</ele>
        <time>2026-01-19T14:37:01Z</time>
      </trkpt>
      <trkpt lat="42.51765" lon="2.03295">
        <ele>1919.4</ele>
        <time>2026-01-19T14:37:02Z</time>
      </trkpt>
      <trkpt lat="42.51764" lon="2.03293">
        <ele>1919.4</ele>
        <time>2026-01-19T14:37:03Z</time>
      </trkpt>
      <trkpt lat="42.51764" lon="2.03292">
        <ele>1919.4</ele>
        <time>2026-01-19T14:37:04Z</time>
      </trkpt>
      <trkpt lat="42.51763" lon="2.03291">
        <ele>1919.4</ele>
        <time>2026-01-19T14:37:05Z</time>
      </trkpt>
      <trkpt lat="42.51762" lon="2.03289">
        <ele>1919.3</ele>
        <time>2026-01-19T14:37:06Z</time>
      </trkpt>
      <trkpt lat="42.51762" lon="2.03288">
        <ele>1919.3</ele>
        <time>2026-01-19T14:37:07Z</time>
      </trkpt>
      <trkpt lat="42.51762" lon="2.03288">
        <ele>1919.3</ele>
        <time>2026-01-19T14:37:08Z</time>
      </trkpt>
      <trkpt lat="42.51762" lon="2.03289">
        <ele>1919.3</ele>
        <time>2026-01-19T14:37:10Z</time>
      </trkpt>
      <trkpt lat="42.51762" lon="2.03289">
        <ele>1919.3</ele>
        <time>2026-01-19T14:37:11Z</time>
      </trkpt>
      <trkpt lat="42.51762" lon="2.0329">
        <ele>1919.3</ele>
        <time>2026-01-19T14:37:12Z</time>
      </trkpt>
      <trkpt lat="42.51762" lon="2.0329">
        <ele>1919.3</ele>
        <time>2026-01-19T14:37:13Z</time>
      </trkpt>
      <trkpt lat="42.51762" lon="2.0329">
        <ele>1919.3</ele>
        <time>2026-01-19T14:37:14Z</time>
      </trkpt>
      <trkpt lat="42.51762" lon="2.0329">
        <ele>1919.3</ele>
        <time>2026-01-19T14:37:15Z</time>
      </trkpt>
      <trkpt lat="42.51762" lon="2.03291">
        <ele>1919.3</ele>
        <time>2026-01-19T14:37:16Z</time>
      </trkpt>
      <trkpt lat="42.51762" lon="2.03291">
        <ele>1919.3</ele>
        <time>2026-01-19T14:37:17Z</time>
      </trkpt>
      <trkpt lat="42.51762" lon="2.03291">
        <ele>1919.3</ele>
        <time>2026-01-19T14:37:18Z</time>
      </trkpt>
      <trkpt lat="42.51762" lon="2.03291">
        <ele>1919.3</ele>
        <time>2026-01-19T14:37:19Z</time>
      </trkpt>
      <trkpt lat="42.51762" lon="2.03291">
        <ele>1919.3</ele>
        <time>2026-01-19T14:37:20Z</time>
      </trkpt>
      <trkpt lat="42.51762" lon="2.03291">
        <ele>1919.3</ele>
        <time>2026-01-19T14:37:21Z</time>
      </trkpt>
      <trkpt lat="42.51762" lon="2.03292">
        <ele>1919.3</ele>
        <time>2026-01-19T14:37:22Z</time>
      </trkpt>
      <trkpt lat="42.51762" lon="2.03292">
        <ele>1919.3</ele>
        <time>2026-01-19T14:37:23Z</time>
      </trkpt>
      <trkpt lat="42.51762" lon="2.03292">
        <ele>1919.3</ele>
        <time>2026-01-19T14:37:24Z</time>
      </trkpt>
      <trkpt lat="42.51762" lon="2.03292">
        <ele>1919.3</ele>
        <time>2026-01-19T14:37:25Z</time>
      </trkpt>
      <trkpt lat="42.51762" lon="2.03292">
        <ele>1919.3</ele>
        <time>2026-01-19T14:37:26Z</time>
      </trkpt>
      <trkpt lat="42.51762" lon="2.03292">
        <ele>1919.3</ele>
        <time>2026-01-19T14:37:27Z</time>
      </trkpt>
      <trkpt lat="42.51762" lon="2.03292">
        <ele>1919.3</ele>
        <time>2026-01-19T14:37:28Z</time>
      </trkpt>
      <trkpt lat="42.51762" lon="2.03291">
        <ele>1919.3</ele>
        <time>2026-01-19T14:37:29Z</time>
      </trkpt>
      <trkpt lat="42.51762" lon="2.03291">
        <ele>1919.3</ele>
        <time>2026-01-19T14:37:30Z</time>
      </trkpt>
      <trkpt lat="42.51762" lon="2.03291">
        <ele>1919.3</ele>
        <time>2026-01-19T14:37:31Z</time>
      </trkpt>
      <trkpt lat="42.51762" lon="2.03291">
        <ele>1919.3</ele>
        <time>2026-01-19T14:37:32Z</time>
      </trkpt>
      <trkpt lat="42.51762" lon="2.03291">
        <ele>1919.3</ele>
        <time>2026-01-19T14:37:33Z</time>
      </trkpt>
      <trkpt lat="42.51762" lon="2.03291">
        <ele>1919.3</ele>
        <time>2026-01-19T14:37:34Z</time>
      </trkpt>
      <trkpt lat="42.51762" lon="2.03291">
        <ele>1919.3</ele>
        <time>2026-01-19T14:37:35Z</time>
      </trkpt>
      <trkpt lat="42.51762" lon="2.03291">
        <ele>1919.3</ele>
        <time>2026-01-19T14:37:36Z</time>
      </trkpt>
      <trkpt lat="42.51762" lon="2.03291">
        <ele>1919.3</ele>
        <time>2026-01-19T14:37:37Z</time>
      </trkpt>
      <trkpt lat="42.51762" lon="2.03291">
        <ele>1919.3</ele>
        <time>2026-01-19T14:37:38Z</time>
      </trkpt>
      <trkpt lat="42.51762" lon="2.0329">
        <ele>1919.3</ele>
        <time>2026-01-19T14:37:39Z</time>
      </trkpt>
      <trkpt lat="42.51762" lon="2.0329">
        <ele>1919.3</ele>
        <time>2026-01-19T14:37:40Z</time>
      </trkpt>
      <trkpt lat="42.51762" lon="2.0329">
        <ele>1919.3</ele>
        <time>2026-01-19T14:37:41Z</time>
      </trkpt>
      <trkpt lat="42.51762" lon="2.0329">
        <ele>1919.3</ele>
        <time>2026-01-19T14:37:42Z</time>
      </trkpt>
      <trkpt lat="42.51762" lon="2.0329">
        <ele>1919.3</ele>
        <time>2026-01-19T14:37:43Z</time>
      </trkpt>
      <trkpt lat="42.51762" lon="2.0329">
        <ele>1919.3</ele>
        <time>2026-01-19T14:37:44Z</time>
      </trkpt>
      <trkpt lat="42.51762" lon="2.0329">
        <ele>1919.3</ele>
        <time>2026-01-19T14:37:45Z</time>
      </trkpt>
      <trkpt lat="42.51762" lon="2.0329">
        <ele>1919.3</ele>
        <time>2026-01-19T14:37:46Z</time>
      </trkpt>
      <trkpt lat="42.51762" lon="2.0329">
        <ele>1919.3</ele>
        <time>2026-01-19T14:37:47Z</time>
      </trkpt>
      <trkpt lat="42.51762" lon="2.0329">
        <ele>1919.3</ele>
        <time>2026-01-19T14:37:48Z</time>
      </trkpt>
      <trkpt lat="42.51762" lon="2.0329">
        <ele>1919.3</ele>
        <time>2026-01-19T14:37:49Z</time>
      </trkpt>
      <trkpt lat="42.51762" lon="2.0329">
        <ele>1919.3</ele>
        <time>2026-01-19T14:37:50Z</time>
      </trkpt>
      <trkpt lat="42.51762" lon="2.0329">
        <ele>1919.3</ele>
        <time>2026-01-19T14:37:51Z</time>
      </trkpt>
      <trkpt lat="42.51762" lon="2.0329">
        <ele>1919.3</ele>
        <time>2026-01-19T14:37:52Z</time>
      </trkpt>
      <trkpt lat="42.51762" lon="2.0329">
        <ele>1919.3</ele>
        <time>2026-01-19T14:37:53Z</time>
      </trkpt>
      <trkpt lat="42.51762" lon="2.0329">
        <ele>1919.3</ele>
        <time>2026-01-19T14:37:54Z</time>
      </trkpt>
      <trkpt lat="42.51762" lon="2.0329">
        <ele>1919.3</ele>
        <time>2026-01-19T14:37:55Z</time>
      </trkpt>
      <trkpt lat="42.51762" lon="2.03289">
        <ele>1919.3</ele>
        <time>2026-01-19T14:37:56Z</time>
      </trkpt>
      <trkpt lat="42.51762" lon="2.03288">
        <ele>1919.3</ele>
        <time>2026-01-19T14:37:57Z</time>
      </trkpt>
      <trkpt lat="42.51762" lon="2.03288">
        <ele>1919.3</ele>
        <time>2026-01-19T14:37:58Z</time>
      </trkpt>
      <trkpt lat="42.51762" lon="2.03287">
        <ele>1919.3</ele>
        <time>2026-01-19T14:37:59Z</time>
      </trkpt>
      <trkpt lat="42.51762" lon="2.03287">
        <ele>1919.3</ele>
        <time>2026-01-19T14:38:00Z</time>
      </trkpt>
      <trkpt lat="42.51762" lon="2.03287">
        <ele>1919.3</ele>
        <time>2026-01-19T14:38:01Z</time>
      </trkpt>
      <trkpt lat="42.51762" lon="2.03287">
        <ele>1919.3</ele>
        <time>2026-01-19T14:38:02Z</time>
      </trkpt>
      <trkpt lat="42.51762" lon="2.03287">
        <ele>1919.3</ele>
        <time>2026-01-19T14:38:03Z</time>
      </trkpt>
      <trkpt lat="42.51762" lon="2.03287">
        <ele>1919.3</ele>
        <time>2026-01-19T14:38:04Z</time>
      </trkpt>
      <trkpt lat="42.51762" lon="2.03287">
        <ele>1919.3</ele>
        <time>2026-01-19T14:38:05Z</time>
      </trkpt>
      <trkpt lat="42.51762" lon="2.03287">
        <ele>1919.3</ele>
        <time>2026-01-19T14:38:06Z</time>
      </trkpt>
      <trkpt lat="42.51762" lon="2.03287">
        <ele>1919.3</ele>
        <time>2026-01-19T14:38:07Z</time>
      </trkpt>
      <trkpt lat="42.51762" lon="2.03287">
        <ele>1919.3</ele>
        <time>2026-01-19T14:38:08Z</time>
      </trkpt>
      <trkpt lat="42.51762" lon="2.03287">
        <ele>1919.3</ele>
        <time>2026-01-19T14:38:09Z</time>
      </trkpt>
      <trkpt lat="42.51762" lon="2.03287">
        <ele>1919.3</ele>
        <time>2026-01-19T14:38:10Z</time>
      </trkpt>
      <trkpt lat="42.51762" lon="2.03287">
        <ele>1919.3</ele>
        <time>2026-01-19T14:38:11Z</time>
      </trkpt>
      <trkpt lat="42.51762" lon="2.03287">
        <ele>1919.3</ele>
        <time>2026-01-19T14:38:12Z</time>
      </trkpt>
      <trkpt lat="42.51762" lon="2.03287">
        <ele>1919.3</ele>
        <time>2026-01-19T14:38:13Z</time>
      </trkpt>
      <trkpt lat="42.51762" lon="2.03287">
        <ele>1919.3</ele>
        <time>2026-01-19T14:38:14Z</time>
      </trkpt>
      <trkpt lat="42.51762" lon="2.03287">
        <ele>1919.3</ele>
        <time>2026-01-19T14:38:15Z</time>
      </trkpt>
      <trkpt lat="42.51762" lon="2.03287">
        <ele>1919.3</ele>
        <time>2026-01-19T14:38:16Z</time>
      </trkpt>
      <trkpt lat="42.51762" lon="2.03288">
        <ele>1919.3</ele>
        <time>2026-01-19T14:38:17Z</time>
      </trkpt>
      <trkpt lat="42.51762" lon="2.03288">
        <ele>1919.3</ele>
        <time>2026-01-19T14:38:18Z</time>
      </trkpt>
      <trkpt lat="42.51762" lon="2.03288">
        <ele>1919.3</ele>
        <time>2026-01-19T14:38:19Z</time>
      </trkpt>
      <trkpt lat="42.51762" lon="2.03288">
        <ele>1919.3</ele>
        <time>2026-01-19T14:38:20Z</time>
      </trkpt>
      <trkpt lat="42.51762" lon="2.03288">
        <ele>1919.3</ele>
        <time>2026-01-19T14:38:21Z</time>
      </trkpt>
      <trkpt lat="42.51762" lon="2.03288">
        <ele>1919.3</ele>
        <time>2026-01-19T14:38:22Z</time>
      </trkpt>
      <trkpt lat="42.51762" lon="2.03287">
        <ele>1919.2</ele>
        <time>2026-01-19T14:38:23Z</time>
      </trkpt>
      <trkpt lat="42.51762" lon="2.03287">
        <ele>1919.2</ele>
        <time>2026-01-19T14:38:24Z</time>
      </trkpt>
      <trkpt lat="42.51762" lon="2.03287">
        <ele>1919.2</ele>
        <time>2026-01-19T14:38:25Z</time>
      </trkpt>
      <trkpt lat="42.51762" lon="2.03286">
        <ele>1919.2</ele>
        <time>2026-01-19T14:38:26Z</time>
      </trkpt>
      <trkpt lat="42.51762" lon="2.03286">
        <ele>1919.2</ele>
        <time>2026-01-19T14:38:27Z</time>
      </trkpt>
      <trkpt lat="42.51762" lon="2.03286">
        <ele>1919.2</ele>
        <time>2026-01-19T14:38:28Z</time>
      </trkpt>
      <trkpt lat="42.51762" lon="2.03286">
        <ele>1919.2</ele>
        <time>2026-01-19T14:38:29Z</time>
      </trkpt>
      <trkpt lat="42.51762" lon="2.03286">
        <ele>1919.2</ele>
        <time>2026-01-19T14:38:30Z</time>
      </trkpt>
      <trkpt lat="42.51762" lon="2.03287">
        <ele>1919.2</ele>
        <time>2026-01-19T14:38:31Z</time>
      </trkpt>
      <trkpt lat="42.51762" lon="2.03286">
        <ele>1919.2</ele>
        <time>2026-01-19T14:38:32Z</time>
      </trkpt>
      <trkpt lat="42.51762" lon="2.03286">
        <ele>1919.2</ele>
        <time>2026-01-19T14:38:33Z</time>
      </trkpt>
      <trkpt lat="42.51762" lon="2.03286">
        <ele>1919.2</ele>
        <time>2026-01-19T14:38:34Z</time>
      </trkpt>
      <trkpt lat="42.51762" lon="2.03286">
        <ele>1919.2</ele>
        <time>2026-01-19T14:38:35Z</time>
      </trkpt>
      <trkpt lat="42.51762" lon="2.03286">
        <ele>1919.2</ele>
        <time>2026-01-19T14:38:36Z</time>
      </trkpt>
      <trkpt lat="42.51762" lon="2.03286">
        <ele>1919.2</ele>
        <time>2026-01-19T14:38:37Z</time>
      </trkpt>
      <trkpt lat="42.51762" lon="2.03286">
        <ele>1919.2</ele>
        <time>2026-01-19T14:38:38Z</time>
      </trkpt>
      <trkpt lat="42.51762" lon="2.03286">
        <ele>1919.2</ele>
        <time>2026-01-19T14:38:39Z</time>
      </trkpt>
      <trkpt lat="42.51762" lon="2.03286">
        <ele>1919.2</ele>
        <time>2026-01-19T14:38:40Z</time>
      </trkpt>
      <trkpt lat="42.51761" lon="2.03286">
        <ele>1919.2</ele>
        <time>2026-01-19T14:38:41Z</time>
      </trkpt>
      <trkpt lat="42.51761" lon="2.03285">
        <ele>1919.2</ele>
        <time>2026-01-19T14:38:42Z</time>
      </trkpt>
      <trkpt lat="42.51761" lon="2.03284">
        <ele>1919.2</ele>
        <time>2026-01-19T14:38:43Z</time>
      </trkpt>
      <trkpt lat="42.51761" lon="2.03284">
        <ele>1919.2</ele>
        <time>2026-01-19T14:38:44Z</time>
      </trkpt>
      <trkpt lat="42.51761" lon="2.03284">
        <ele>1919.2</ele>
        <time>2026-01-19T14:38:45Z</time>
      </trkpt>
      <trkpt lat="42.51761" lon="2.03284">
        <ele>1919.2</ele>
        <time>2026-01-19T14:38:46Z</time>
      </trkpt>
      <trkpt lat="42.51761" lon="2.03284">
        <ele>1919.2</ele>
        <time>2026-01-19T14:38:47Z</time>
      </trkpt>
      <trkpt lat="42.51761" lon="2.03284">
        <ele>1919.2</ele>
        <time>2026-01-19T14:38:48Z</time>
      </trkpt>
      <trkpt lat="42.51761" lon="2.03284">
        <ele>1919.2</ele>
        <time>2026-01-19T14:38:49Z</time>
      </trkpt>
      <trkpt lat="42.51761" lon="2.03284">
        <ele>1919.2</ele>
        <time>2026-01-19T14:38:50Z</time>
      </trkpt>
      <trkpt lat="42.51761" lon="2.03284">
        <ele>1919.2</ele>
        <time>2026-01-19T14:38:51Z</time>
      </trkpt>
      <trkpt lat="42.51761" lon="2.03284">
        <ele>1919.2</ele>
        <time>2026-01-19T14:38:52Z</time>
      </trkpt>
      <trkpt lat="42.51761" lon="2.03284">
        <ele>1919.2</ele>
        <time>2026-01-19T14:38:53Z</time>
      </trkpt>
      <trkpt lat="42.51761" lon="2.03284">
        <ele>1919.2</ele>
        <time>2026-01-19T14:38:54Z</time>
      </trkpt>
      <trkpt lat="42.51761" lon="2.03284">
        <ele>1919.2</ele>
        <time>2026-01-19T14:38:55Z</time>
      </trkpt>
      <trkpt lat="42.51761" lon="2.03285">
        <ele>1919.2</ele>
        <time>2026-01-19T14:38:56Z</time>
      </trkpt>
      <trkpt lat="42.51761" lon="2.03285">
        <ele>1919.2</ele>
        <time>2026-01-19T14:38:57Z</time>
      </trkpt>
      <trkpt lat="42.51761" lon="2.03285">
        <ele>1919.2</ele>
        <time>2026-01-19T14:38:58Z</time>
      </trkpt>
      <trkpt lat="42.51761" lon="2.03285">
        <ele>1919.2</ele>
        <time>2026-01-19T14:38:59Z</time>
      </trkpt>
      <trkpt lat="42.51761" lon="2.03285">
        <ele>1919.2</ele>
        <time>2026-01-19T14:39:00Z</time>
      </trkpt>
      <trkpt lat="42.51761" lon="2.03285">
        <ele>1919.2</ele>
        <time>2026-01-19T14:39:01Z</time>
      </trkpt>
      <trkpt lat="42.51761" lon="2.03285">
        <ele>1919.2</ele>
        <time>2026-01-19T14:39:02Z</time>
      </trkpt>
      <trkpt lat="42.51761" lon="2.03285">
        <ele>1919.2</ele>
        <time>2026-01-19T14:39:03Z</time>
      </trkpt>
      <trkpt lat="42.51761" lon="2.03285">
        <ele>1919.2</ele>
        <time>2026-01-19T14:39:04Z</time>
      </trkpt>
      <trkpt lat="42.51761" lon="2.03285">
        <ele>1919.2</ele>
        <time>2026-01-19T14:39:05Z</time>
      </trkpt>
      <trkpt lat="42.51761" lon="2.03285">
        <ele>1919.2</ele>
        <time>2026-01-19T14:39:06Z</time>
      </trkpt>
      <trkpt lat="42.51761" lon="2.03285">
        <ele>1919.2</ele>
        <time>2026-01-19T14:39:07Z</time>
      </trkpt>
      <trkpt lat="42.51761" lon="2.03285">
        <ele>1919.2</ele>
        <time>2026-01-19T14:39:08Z</time>
      </trkpt>
      <trkpt lat="42.51761" lon="2.03285">
        <ele>1919.2</ele>
        <time>2026-01-19T14:39:09Z</time>
      </trkpt>
      <trkpt lat="42.51761" lon="2.03285">
        <ele>1919.2</ele>
        <time>2026-01-19T14:39:10Z</time>
      </trkpt>
      <trkpt lat="42.51761" lon="2.03285">
        <ele>1919.2</ele>
        <time>2026-01-19T14:39:11Z</time>
      </trkpt>
      <trkpt lat="42.51761" lon="2.03285">
        <ele>1919.2</ele>
        <time>2026-01-19T14:39:12Z</time>
      </trkpt>
      <trkpt lat="42.51761" lon="2.03285">
        <ele>1919.2</ele>
        <time>2026-01-19T14:39:13Z</time>
      </trkpt>
      <trkpt lat="42.51761" lon="2.03284">
        <ele>1919.2</ele>
        <time>2026-01-19T14:39:14Z</time>
      </trkpt>
      <trkpt lat="42.51761" lon="2.03284">
        <ele>1919.2</ele>
        <time>2026-01-19T14:39:15Z</time>
      </trkpt>
      <trkpt lat="42.5176" lon="2.03284">
        <ele>1919.2</ele>
        <time>2026-01-19T14:39:16Z</time>
      </trkpt>
      <trkpt lat="42.5176" lon="2.03285">
        <ele>1919.2</ele>
        <time>2026-01-19T14:39:17Z</time>
      </trkpt>
      <trkpt lat="42.51761" lon="2.03284">
        <ele>1919.2</ele>
        <time>2026-01-19T14:39:18Z</time>
      </trkpt>
      <trkpt lat="42.51761" lon="2.03284">
        <ele>1919.2</ele>
        <time>2026-01-19T14:39:19Z</time>
      </trkpt>
      <trkpt lat="42.5176" lon="2.03284">
        <ele>1919.2</ele>
        <time>2026-01-19T14:39:20Z</time>
      </trkpt>
      <trkpt lat="42.5176" lon="2.03283">
        <ele>1919.2</ele>
        <time>2026-01-19T14:39:21Z</time>
      </trkpt>
      <trkpt lat="42.5176" lon="2.03282">
        <ele>1919.2</ele>
        <time>2026-01-19T14:39:22Z</time>
      </trkpt>
      <trkpt lat="42.51761" lon="2.03281">
        <ele>1919.2</ele>
        <time>2026-01-19T14:39:23Z</time>
      </trkpt>
      <trkpt lat="42.51761" lon="2.03279">
        <ele>1919.2</ele>
        <time>2026-01-19T14:39:24Z</time>
      </trkpt>
      <trkpt lat="42.51761" lon="2.03278">
        <ele>1919.2</ele>
        <time>2026-01-19T14:39:25Z</time>
      </trkpt>
      <trkpt lat="42.51761" lon="2.03278">
        <ele>1919.2</ele>
        <time>2026-01-19T14:39:26Z</time>
      </trkpt>
      <trkpt lat="42.5176" lon="2.03277">
        <ele>1919.1</ele>
        <time>2026-01-19T14:39:27Z</time>
      </trkpt>
      <trkpt lat="42.51759" lon="2.03277">
        <ele>1919</ele>
        <time>2026-01-19T14:39:28Z</time>
      </trkpt>
      <trkpt lat="42.51758" lon="2.03277">
        <ele>1918.9</ele>
        <time>2026-01-19T14:39:29Z</time>
      </trkpt>
      <trkpt lat="42.51757" lon="2.03277">
        <ele>1918.8</ele>
        <time>2026-01-19T14:39:30Z</time>
      </trkpt>
      <trkpt lat="42.51756" lon="2.03276">
        <ele>1918.7</ele>
        <time>2026-01-19T14:39:31Z</time>
      </trkpt>
      <trkpt lat="42.51755" lon="2.03275">
        <ele>1918.6</ele>
        <time>2026-01-19T14:39:32Z</time>
      </trkpt>
      <trkpt lat="42.51754" lon="2.03274">
        <ele>1918.5</ele>
        <time>2026-01-19T14:39:33Z</time>
      </trkpt>
      <trkpt lat="42.51753" lon="2.03273">
        <ele>1918.4</ele>
        <time>2026-01-19T14:39:34Z</time>
      </trkpt>
      <trkpt lat="42.51752" lon="2.03273">
        <ele>1918.3</ele>
        <time>2026-01-19T14:39:35Z</time>
      </trkpt>
      <trkpt lat="42.51751" lon="2.03272">
        <ele>1918.2</ele>
        <time>2026-01-19T14:39:36Z</time>
      </trkpt>
      <trkpt lat="42.5175" lon="2.03271">
        <ele>1918.1</ele>
        <time>2026-01-19T14:39:37Z</time>
      </trkpt>
      <trkpt lat="42.5175" lon="2.0327">
        <ele>1918</ele>
        <time>2026-01-19T14:39:38Z</time>
      </trkpt>
      <trkpt lat="42.51749" lon="2.03269">
        <ele>1918</ele>
        <time>2026-01-19T14:39:39Z</time>
      </trkpt>
      <trkpt lat="42.51749" lon="2.03269">
        <ele>1917.9</ele>
        <time>2026-01-19T14:39:40Z</time>
      </trkpt>
      <trkpt lat="42.51748" lon="2.03268">
        <ele>1917.8</ele>
        <time>2026-01-19T14:39:41Z</time>
      </trkpt>
      <trkpt lat="42.51748" lon="2.03267">
        <ele>1917.7</ele>
        <time>2026-01-19T14:39:42Z</time>
      </trkpt>
      <trkpt lat="42.51748" lon="2.03266">
        <ele>1917.6</ele>
        <time>2026-01-19T14:39:43Z</time>
      </trkpt>
      <trkpt lat="42.51747" lon="2.03265">
        <ele>1917.5</ele>
        <time>2026-01-19T14:39:44Z</time>
      </trkpt>
      <trkpt lat="42.51747" lon="2.03264">
        <ele>1917.5</ele>
        <time>2026-01-19T14:39:45Z</time>
      </trkpt>
      <trkpt lat="42.51747" lon="2.03263">
        <ele>1917.4</ele>
        <time>2026-01-19T14:39:46Z</time>
      </trkpt>
      <trkpt lat="42.51747" lon="2.03262">
        <ele>1917.3</ele>
        <time>2026-01-19T14:39:47Z</time>
      </trkpt>
      <trkpt lat="42.51747" lon="2.03261">
        <ele>1917.2</ele>
        <time>2026-01-19T14:39:48Z</time>
      </trkpt>
      <trkpt lat="42.51746" lon="2.0326">
        <ele>1917.1</ele>
        <time>2026-01-19T14:39:49Z</time>
      </trkpt>
      <trkpt lat="42.51746" lon="2.0326">
        <ele>1917.1</ele>
        <time>2026-01-19T14:39:50Z</time>
      </trkpt>
      <trkpt lat="42.51746" lon="2.03259">
        <ele>1917</ele>
        <time>2026-01-19T14:39:51Z</time>
      </trkpt>
      <trkpt lat="42.51746" lon="2.03258">
        <ele>1916.9</ele>
        <time>2026-01-19T14:39:52Z</time>
      </trkpt>
      <trkpt lat="42.51745" lon="2.03258">
        <ele>1916.8</ele>
        <time>2026-01-19T14:39:53Z</time>
      </trkpt>
      <trkpt lat="42.51745" lon="2.03257">
        <ele>1916.8</ele>
        <time>2026-01-19T14:39:54Z</time>
      </trkpt>
      <trkpt lat="42.51744" lon="2.03257">
        <ele>1916.7</ele>
        <time>2026-01-19T14:39:55Z</time>
      </trkpt>
      <trkpt lat="42.51743" lon="2.03256">
        <ele>1916.6</ele>
        <time>2026-01-19T14:39:56Z</time>
      </trkpt>
      <trkpt lat="42.51742" lon="2.03256">
        <ele>1916.4</ele>
        <time>2026-01-19T14:39:57Z</time>
      </trkpt>
      <trkpt lat="42.51742" lon="2.03255">
        <ele>1916.3</ele>
        <time>2026-01-19T14:39:58Z</time>
      </trkpt>
      <trkpt lat="42.51741" lon="2.03254">
        <ele>1916.2</ele>
        <time>2026-01-19T14:39:59Z</time>
      </trkpt>
      <trkpt lat="42.51741" lon="2.03254">
        <ele>1916.1</ele>
        <time>2026-01-19T14:40:00Z</time>
      </trkpt>
      <trkpt lat="42.5174" lon="2.03254">
        <ele>1916</ele>
        <time>2026-01-19T14:40:01Z</time>
      </trkpt>
      <trkpt lat="42.51739" lon="2.03254">
        <ele>1915.9</ele>
        <time>2026-01-19T14:40:02Z</time>
      </trkpt>
      <trkpt lat="42.51737" lon="2.03254">
        <ele>1915.7</ele>
        <time>2026-01-19T14:40:03Z</time>
      </trkpt>
      <trkpt lat="42.51736" lon="2.03253">
        <ele>1915.6</ele>
        <time>2026-01-19T14:40:04Z</time>
      </trkpt>
      <trkpt lat="42.51736" lon="2.03253">
        <ele>1915.4</ele>
        <time>2026-01-19T14:40:05Z</time>
      </trkpt>
      <trkpt lat="42.51735" lon="2.03252">
        <ele>1915.3</ele>
        <time>2026-01-19T14:40:06Z</time>
      </trkpt>
      <trkpt lat="42.51734" lon="2.03252">
        <ele>1915.1</ele>
        <time>2026-01-19T14:40:07Z</time>
      </trkpt>
      <trkpt lat="42.51733" lon="2.03252">
        <ele>1915</ele>
        <time>2026-01-19T14:40:08Z</time>
      </trkpt>
      <trkpt lat="42.51732" lon="2.03252">
        <ele>1914.9</ele>
        <time>2026-01-19T14:40:09Z</time>
      </trkpt>
      <trkpt lat="42.51733" lon="2.03252">
        <ele>1914.8</ele>
        <time>2026-01-19T14:40:11Z</time>
      </trkpt>
      <trkpt lat="42.51733" lon="2.03252">
        <ele>1914.8</ele>
        <time>2026-01-19T14:40:12Z</time>
      </trkpt>
      <trkpt lat="42.51733" lon="2.03252">
        <ele>1914.8</ele>
        <time>2026-01-19T14:40:13Z</time>
      </trkpt>
      <trkpt lat="42.51733" lon="2.03252">
        <ele>1914.7</ele>
        <time>2026-01-19T14:40:14Z</time>
      </trkpt>
      <trkpt lat="42.51733" lon="2.03252">
        <ele>1914.7</ele>
        <time>2026-01-19T14:40:15Z</time>
      </trkpt>
      <trkpt lat="42.51733" lon="2.03252">
        <ele>1914.7</ele>
        <time>2026-01-19T14:40:16Z</time>
      </trkpt>
      <trkpt lat="42.51734" lon="2.03252">
        <ele>1914.7</ele>
        <time>2026-01-19T14:40:17Z</time>
      </trkpt>
      <trkpt lat="42.51734" lon="2.03252">
        <ele>1914.7</ele>
        <time>2026-01-19T14:40:18Z</time>
      </trkpt>
      <trkpt lat="42.51734" lon="2.03252">
        <ele>1914.7</ele>
        <time>2026-01-19T14:40:19Z</time>
      </trkpt>
      <trkpt lat="42.51734" lon="2.03252">
        <ele>1914.7</ele>
        <time>2026-01-19T14:40:20Z</time>
      </trkpt>
      <trkpt lat="42.51734" lon="2.03252">
        <ele>1914.6</ele>
        <time>2026-01-19T14:40:21Z</time>
      </trkpt>
      <trkpt lat="42.51734" lon="2.03252">
        <ele>1914.6</ele>
        <time>2026-01-19T14:40:22Z</time>
      </trkpt>
      <trkpt lat="42.51734" lon="2.03252">
        <ele>1914.6</ele>
        <time>2026-01-19T14:40:23Z</time>
      </trkpt>
      <trkpt lat="42.51734" lon="2.03252">
        <ele>1914.6</ele>
        <time>2026-01-19T14:40:24Z</time>
      </trkpt>
      <trkpt lat="42.51734" lon="2.03252">
        <ele>1914.6</ele>
        <time>2026-01-19T14:40:25Z</time>
      </trkpt>
      <trkpt lat="42.51734" lon="2.03252">
        <ele>1914.6</ele>
        <time>2026-01-19T14:40:26Z</time>
      </trkpt>
      <trkpt lat="42.51734" lon="2.03252">
        <ele>1914.6</ele>
        <time>2026-01-19T14:40:27Z</time>
      </trkpt>
      <trkpt lat="42.51733" lon="2.03252">
        <ele>1914.6</ele>
        <time>2026-01-19T14:40:28Z</time>
      </trkpt>
      <trkpt lat="42.51732" lon="2.03251">
        <ele>1914.3</ele>
        <time>2026-01-19T14:40:29Z</time>
      </trkpt>
      <trkpt lat="42.51731" lon="2.03251">
        <ele>1914.2</ele>
        <time>2026-01-19T14:40:30Z</time>
      </trkpt>
      <trkpt lat="42.51729" lon="2.03251">
        <ele>1914</ele>
        <time>2026-01-19T14:40:31Z</time>
      </trkpt>
      <trkpt lat="42.51729" lon="2.03251">
        <ele>1913.9</ele>
        <time>2026-01-19T14:40:32Z</time>
      </trkpt>
      <trkpt lat="42.51727" lon="2.03251">
        <ele>1913.7</ele>
        <time>2026-01-19T14:40:33Z</time>
      </trkpt>
      <trkpt lat="42.51726" lon="2.0325">
        <ele>1913.5</ele>
        <time>2026-01-19T14:40:34Z</time>
      </trkpt>
      <trkpt lat="42.51725" lon="2.03249">
        <ele>1913.4</ele>
        <time>2026-01-19T14:40:35Z</time>
      </trkpt>
      <trkpt lat="42.51725" lon="2.03249">
        <ele>1913.3</ele>
        <time>2026-01-19T14:40:36Z</time>
      </trkpt>
      <trkpt lat="42.51724" lon="2.03248">
        <ele>1913.1</ele>
        <time>2026-01-19T14:40:37Z</time>
      </trkpt>
      <trkpt lat="42.51723" lon="2.03247">
        <ele>1912.9</ele>
        <time>2026-01-19T14:40:38Z</time>
      </trkpt>
      <trkpt lat="42.51721" lon="2.03247">
        <ele>1912.8</ele>
        <time>2026-01-19T14:40:39Z</time>
      </trkpt>
      <trkpt lat="42.5172" lon="2.03246">
        <ele>1912.6</ele>
        <time>2026-01-19T14:40:40Z</time>
      </trkpt>
      <trkpt lat="42.51719" lon="2.03246">
        <ele>1912.5</ele>
        <time>2026-01-19T14:40:41Z</time>
      </trkpt>
      <trkpt lat="42.51718" lon="2.03245">
        <ele>1912.3</ele>
        <time>2026-01-19T14:40:42Z</time>
      </trkpt>
      <trkpt lat="42.51718" lon="2.03244">
        <ele>1912.2</ele>
        <time>2026-01-19T14:40:43Z</time>
      </trkpt>
      <trkpt lat="42.51717" lon="2.03243">
        <ele>1912</ele>
        <time>2026-01-19T14:40:44Z</time>
      </trkpt>
      <trkpt lat="42.51716" lon="2.03243">
        <ele>1911.9</ele>
        <time>2026-01-19T14:40:45Z</time>
      </trkpt>
      <trkpt lat="42.51715" lon="2.03242">
        <ele>1911.8</ele>
        <time>2026-01-19T14:40:46Z</time>
      </trkpt>
      <trkpt lat="42.51714" lon="2.03241">
        <ele>1911.7</ele>
        <time>2026-01-19T14:40:47Z</time>
      </trkpt>
      <trkpt lat="42.51713" lon="2.03241">
        <ele>1911.6</ele>
        <time>2026-01-19T14:40:48Z</time>
      </trkpt>
      <trkpt lat="42.51712" lon="2.0324">
        <ele>1911.4</ele>
        <time>2026-01-19T14:40:49Z</time>
      </trkpt>
      <trkpt lat="42.51712" lon="2.03239">
        <ele>1911.3</ele>
        <time>2026-01-19T14:40:50Z</time>
      </trkpt>
      <trkpt lat="42.51711" lon="2.03239">
        <ele>1911.2</ele>
        <time>2026-01-19T14:40:51Z</time>
      </trkpt>
      <trkpt lat="42.51711" lon="2.03238">
        <ele>1911.2</ele>
        <time>2026-01-19T14:40:52Z</time>
      </trkpt>
      <trkpt lat="42.5171" lon="2.03237">
        <ele>1911.1</ele>
        <time>2026-01-19T14:40:53Z</time>
      </trkpt>
      <trkpt lat="42.5171" lon="2.03236">
        <ele>1911</ele>
        <time>2026-01-19T14:40:54Z</time>
      </trkpt>
      <trkpt lat="42.51709" lon="2.03236">
        <ele>1910.9</ele>
        <time>2026-01-19T14:40:55Z</time>
      </trkpt>
      <trkpt lat="42.51709" lon="2.03235">
        <ele>1910.8</ele>
        <time>2026-01-19T14:40:56Z</time>
      </trkpt>
      <trkpt lat="42.51708" lon="2.03234">
        <ele>1910.7</ele>
        <time>2026-01-19T14:40:57Z</time>
      </trkpt>
      <trkpt lat="42.51708" lon="2.03233">
        <ele>1910.6</ele>
        <time>2026-01-19T14:40:58Z</time>
      </trkpt>
      <trkpt lat="42.51707" lon="2.03232">
        <ele>1910.6</ele>
        <time>2026-01-19T14:40:59Z</time>
      </trkpt>
      <trkpt lat="42.51707" lon="2.03231">
        <ele>1910.5</ele>
        <time>2026-01-19T14:41:00Z</time>
      </trkpt>
      <trkpt lat="42.51706" lon="2.0323">
        <ele>1910.4</ele>
        <time>2026-01-19T14:41:01Z</time>
      </trkpt>
      <trkpt lat="42.51706" lon="2.03229">
        <ele>1910.3</ele>
        <time>2026-01-19T14:41:02Z</time>
      </trkpt>
      <trkpt lat="42.51706" lon="2.03229">
        <ele>1910.2</ele>
        <time>2026-01-19T14:41:03Z</time>
      </trkpt>
      <trkpt lat="42.51705" lon="2.03228">
        <ele>1910.2</ele>
        <time>2026-01-19T14:41:04Z</time>
      </trkpt>
      <trkpt lat="42.51705" lon="2.03227">
        <ele>1910.1</ele>
        <time>2026-01-19T14:41:05Z</time>
      </trkpt>
      <trkpt lat="42.51704" lon="2.03226">
        <ele>1910</ele>
        <time>2026-01-19T14:41:06Z</time>
      </trkpt>
      <trkpt lat="42.51703" lon="2.03226">
        <ele>1909.9</ele>
        <time>2026-01-19T14:41:07Z</time>
      </trkpt>
      <trkpt lat="42.51702" lon="2.03225">
        <ele>1909.9</ele>
        <time>2026-01-19T14:41:08Z</time>
      </trkpt>
      <trkpt lat="42.51701" lon="2.03224">
        <ele>1909.8</ele>
        <time>2026-01-19T14:41:09Z</time>
      </trkpt>
      <trkpt lat="42.517" lon="2.03224">
        <ele>1909.7</ele>
        <time>2026-01-19T14:41:10Z</time>
      </trkpt>
      <trkpt lat="42.517" lon="2.03223">
        <ele>1909.7</ele>
        <time>2026-01-19T14:41:11Z</time>
      </trkpt>
      <trkpt lat="42.51699" lon="2.03222">
        <ele>1909.6</ele>
        <time>2026-01-19T14:41:12Z</time>
      </trkpt>
      <trkpt lat="42.51699" lon="2.03222">
        <ele>1909.5</ele>
        <time>2026-01-19T14:41:13Z</time>
      </trkpt>
      <trkpt lat="42.51698" lon="2.03221">
        <ele>1909.5</ele>
        <time>2026-01-19T14:41:14Z</time>
      </trkpt>
      <trkpt lat="42.51697" lon="2.0322">
        <ele>1909.4</ele>
        <time>2026-01-19T14:41:15Z</time>
      </trkpt>
      <trkpt lat="42.51697" lon="2.03219">
        <ele>1909.4</ele>
        <time>2026-01-19T14:41:16Z</time>
      </trkpt>
      <trkpt lat="42.51695" lon="2.03219">
        <ele>1909.3</ele>
        <time>2026-01-19T14:41:17Z</time>
      </trkpt>
      <trkpt lat="42.51694" lon="2.03219">
        <ele>1909.2</ele>
        <time>2026-01-19T14:41:18Z</time>
      </trkpt>
      <trkpt lat="42.51693" lon="2.03218">
        <ele>1909.1</ele>
        <time>2026-01-19T14:41:19Z</time>
      </trkpt>
      <trkpt lat="42.51693" lon="2.03218">
        <ele>1909.1</ele>
        <time>2026-01-19T14:41:20Z</time>
      </trkpt>
      <trkpt lat="42.51692" lon="2.03218">
        <ele>1909</ele>
        <time>2026-01-19T14:41:21Z</time>
      </trkpt>
      <trkpt lat="42.51691" lon="2.03217">
        <ele>1909</ele>
        <time>2026-01-19T14:41:22Z</time>
      </trkpt>
      <trkpt lat="42.5169" lon="2.03216">
        <ele>1908.9</ele>
        <time>2026-01-19T14:41:23Z</time>
      </trkpt>
      <trkpt lat="42.51689" lon="2.03216">
        <ele>1908.8</ele>
        <time>2026-01-19T14:41:24Z</time>
      </trkpt>
      <trkpt lat="42.51688" lon="2.03215">
        <ele>1908.8</ele>
        <time>2026-01-19T14:41:25Z</time>
      </trkpt>
      <trkpt lat="42.51687" lon="2.03215">
        <ele>1908.7</ele>
        <time>2026-01-19T14:41:26Z</time>
      </trkpt>
      <trkpt lat="42.51686" lon="2.03214">
        <ele>1908.7</ele>
        <time>2026-01-19T14:41:27Z</time>
      </trkpt>
      <trkpt lat="42.51685" lon="2.03213">
        <ele>1908.6</ele>
        <time>2026-01-19T14:41:28Z</time>
      </trkpt>
      <trkpt lat="42.51685" lon="2.03212">
        <ele>1908.6</ele>
        <time>2026-01-19T14:41:29Z</time>
      </trkpt>
      <trkpt lat="42.51684" lon="2.03211">
        <ele>1908.5</ele>
        <time>2026-01-19T14:41:30Z</time>
      </trkpt>
      <trkpt lat="42.51683" lon="2.0321">
        <ele>1908.4</ele>
        <time>2026-01-19T14:41:31Z</time>
      </trkpt>
      <trkpt lat="42.51682" lon="2.03209">
        <ele>1908.4</ele>
        <time>2026-01-19T14:41:32Z</time>
      </trkpt>
      <trkpt lat="42.51681" lon="2.03208">
        <ele>1908.3</ele>
        <time>2026-01-19T14:41:33Z</time>
      </trkpt>
      <trkpt lat="42.5168" lon="2.03207">
        <ele>1908.2</ele>
        <time>2026-01-19T14:41:34Z</time>
      </trkpt>
      <trkpt lat="42.51679" lon="2.03207">
        <ele>1908.2</ele>
        <time>2026-01-19T14:41:35Z</time>
      </trkpt>
      <trkpt lat="42.51679" lon="2.03205">
        <ele>1908.1</ele>
        <time>2026-01-19T14:41:36Z</time>
      </trkpt>
      <trkpt lat="42.51678" lon="2.03205">
        <ele>1908</ele>
        <time>2026-01-19T14:41:37Z</time>
      </trkpt>
      <trkpt lat="42.51677" lon="2.03204">
        <ele>1908</ele>
        <time>2026-01-19T14:41:38Z</time>
      </trkpt>
      <trkpt lat="42.51676" lon="2.03204">
        <ele>1907.9</ele>
        <time>2026-01-19T14:41:39Z</time>
      </trkpt>
      <trkpt lat="42.51676" lon="2.03204">
        <ele>1907.9</ele>
        <time>2026-01-19T14:41:40Z</time>
      </trkpt>
      <trkpt lat="42.51675" lon="2.03204">
        <ele>1907.8</ele>
        <time>2026-01-19T14:41:41Z</time>
      </trkpt>
      <trkpt lat="42.51674" lon="2.03204">
        <ele>1907.8</ele>
        <time>2026-01-19T14:41:42Z</time>
      </trkpt>
      <trkpt lat="42.51673" lon="2.03204">
        <ele>1907.7</ele>
        <time>2026-01-19T14:41:43Z</time>
      </trkpt>
      <trkpt lat="42.51673" lon="2.03204">
        <ele>1907.7</ele>
        <time>2026-01-19T14:41:44Z</time>
      </trkpt>
      <trkpt lat="42.51672" lon="2.03204">
        <ele>1907.6</ele>
        <time>2026-01-19T14:41:45Z</time>
      </trkpt>
      <trkpt lat="42.51671" lon="2.03204">
        <ele>1907.6</ele>
        <time>2026-01-19T14:41:46Z</time>
      </trkpt>
      <trkpt lat="42.5167" lon="2.03203">
        <ele>1907.5</ele>
        <time>2026-01-19T14:41:47Z</time>
      </trkpt>
      <trkpt lat="42.51669" lon="2.03202">
        <ele>1907.4</ele>
        <time>2026-01-19T14:41:48Z</time>
      </trkpt>
      <trkpt lat="42.51669" lon="2.03202">
        <ele>1907.3</ele>
        <time>2026-01-19T14:41:49Z</time>
      </trkpt>
      <trkpt lat="42.51668" lon="2.03201">
        <ele>1907.2</ele>
        <time>2026-01-19T14:41:50Z</time>
      </trkpt>
      <trkpt lat="42.51667" lon="2.032">
        <ele>1907.2</ele>
        <time>2026-01-19T14:41:51Z</time>
      </trkpt>
      <trkpt lat="42.51666" lon="2.032">
        <ele>1907</ele>
        <time>2026-01-19T14:41:52Z</time>
      </trkpt>
      <trkpt lat="42.51665" lon="2.032">
        <ele>1906.9</ele>
        <time>2026-01-19T14:41:53Z</time>
      </trkpt>
      <trkpt lat="42.51664" lon="2.032">
        <ele>1906.8</ele>
        <time>2026-01-19T14:41:54Z</time>
      </trkpt>
      <trkpt lat="42.51663" lon="2.03199">
        <ele>1906.7</ele>
        <time>2026-01-19T14:41:55Z</time>
      </trkpt>
      <trkpt lat="42.51662" lon="2.03199">
        <ele>1906.6</ele>
        <time>2026-01-19T14:41:56Z</time>
      </trkpt>
      <trkpt lat="42.51661" lon="2.03199">
        <ele>1906.5</ele>
        <time>2026-01-19T14:41:57Z</time>
      </trkpt>
      <trkpt lat="42.5166" lon="2.03198">
        <ele>1906.4</ele>
        <time>2026-01-19T14:41:58Z</time>
      </trkpt>
      <trkpt lat="42.51659" lon="2.03197">
        <ele>1906.3</ele>
        <time>2026-01-19T14:41:59Z</time>
      </trkpt>
      <trkpt lat="42.51658" lon="2.03196">
        <ele>1906.1</ele>
        <time>2026-01-19T14:42:00Z</time>
      </trkpt>
      <trkpt lat="42.51657" lon="2.03195">
        <ele>1906</ele>
        <time>2026-01-19T14:42:01Z</time>
      </trkpt>
      <trkpt lat="42.51656" lon="2.03194">
        <ele>1905.9</ele>
        <time>2026-01-19T14:42:02Z</time>
      </trkpt>
      <trkpt lat="42.51656" lon="2.03193">
        <ele>1905.7</ele>
        <time>2026-01-19T14:42:03Z</time>
      </trkpt>
      <trkpt lat="42.51655" lon="2.03192">
        <ele>1905.6</ele>
        <time>2026-01-19T14:42:04Z</time>
      </trkpt>
      <trkpt lat="42.51654" lon="2.03191">
        <ele>1905.5</ele>
        <time>2026-01-19T14:42:05Z</time>
      </trkpt>
      <trkpt lat="42.51653" lon="2.03191">
        <ele>1905.4</ele>
        <time>2026-01-19T14:42:06Z</time>
      </trkpt>
      <trkpt lat="42.51652" lon="2.0319">
        <ele>1905.2</ele>
        <time>2026-01-19T14:42:07Z</time>
      </trkpt>
      <trkpt lat="42.51652" lon="2.03189">
        <ele>1905</ele>
        <time>2026-01-19T14:42:08Z</time>
      </trkpt>
      <trkpt lat="42.51651" lon="2.03188">
        <ele>1904.9</ele>
        <time>2026-01-19T14:42:09Z</time>
      </trkpt>
      <trkpt lat="42.5165" lon="2.03187">
        <ele>1904.7</ele>
        <time>2026-01-19T14:42:10Z</time>
      </trkpt>
      <trkpt lat="42.51649" lon="2.03186">
        <ele>1904.6</ele>
        <time>2026-01-19T14:42:11Z</time>
      </trkpt>
      <trkpt lat="42.51648" lon="2.03185">
        <ele>1904.4</ele>
        <time>2026-01-19T14:42:12Z</time>
      </trkpt>
      <trkpt lat="42.51647" lon="2.03184">
        <ele>1904.2</ele>
        <time>2026-01-19T14:42:13Z</time>
      </trkpt>
      <trkpt lat="42.51646" lon="2.03183">
        <ele>1904.1</ele>
        <time>2026-01-19T14:42:14Z</time>
      </trkpt>
      <trkpt lat="42.51645" lon="2.03182">
        <ele>1903.9</ele>
        <time>2026-01-19T14:42:15Z</time>
      </trkpt>
      <trkpt lat="42.51644" lon="2.03182">
        <ele>1903.7</ele>
        <time>2026-01-19T14:42:16Z</time>
      </trkpt>
      <trkpt lat="42.51643" lon="2.03181">
        <ele>1903.6</ele>
        <time>2026-01-19T14:42:17Z</time>
      </trkpt>
      <trkpt lat="42.51642" lon="2.0318">
        <ele>1903.4</ele>
        <time>2026-01-19T14:42:18Z</time>
      </trkpt>
      <trkpt lat="42.51641" lon="2.03179">
        <ele>1903.3</ele>
        <time>2026-01-19T14:42:19Z</time>
      </trkpt>
      <trkpt lat="42.5164" lon="2.03178">
        <ele>1903.1</ele>
        <time>2026-01-19T14:42:20Z</time>
      </trkpt>
      <trkpt lat="42.51639" lon="2.03177">
        <ele>1902.9</ele>
        <time>2026-01-19T14:42:21Z</time>
      </trkpt>
      <trkpt lat="42.51638" lon="2.03176">
        <ele>1902.8</ele>
        <time>2026-01-19T14:42:22Z</time>
      </trkpt>
      <trkpt lat="42.51637" lon="2.03175">
        <ele>1902.6</ele>
        <time>2026-01-19T14:42:23Z</time>
      </trkpt>
      <trkpt lat="42.51636" lon="2.03175">
        <ele>1902.4</ele>
        <time>2026-01-19T14:42:24Z</time>
      </trkpt>
      <trkpt lat="42.51635" lon="2.03174">
        <ele>1902.3</ele>
        <time>2026-01-19T14:42:25Z</time>
      </trkpt>
      <trkpt lat="42.51634" lon="2.03173">
        <ele>1902.2</ele>
        <time>2026-01-19T14:42:26Z</time>
      </trkpt>
      <trkpt lat="42.51634" lon="2.03173">
        <ele>1902.1</ele>
        <time>2026-01-19T14:42:27Z</time>
      </trkpt>
      <trkpt lat="42.51633" lon="2.03172">
        <ele>1901.9</ele>
        <time>2026-01-19T14:42:28Z</time>
      </trkpt>
      <trkpt lat="42.51632" lon="2.03171">
        <ele>1901.8</ele>
        <time>2026-01-19T14:42:29Z</time>
      </trkpt>
      <trkpt lat="42.51631" lon="2.0317">
        <ele>1901.6</ele>
        <time>2026-01-19T14:42:30Z</time>
      </trkpt>
      <trkpt lat="42.5163" lon="2.03169">
        <ele>1901.5</ele>
        <time>2026-01-19T14:42:31Z</time>
      </trkpt>
      <trkpt lat="42.51629" lon="2.03168">
        <ele>1901.3</ele>
        <time>2026-01-19T14:42:32Z</time>
      </trkpt>
      <trkpt lat="42.51629" lon="2.03167">
        <ele>1901.2</ele>
        <time>2026-01-19T14:42:33Z</time>
      </trkpt>
      <trkpt lat="42.51628" lon="2.03166">
        <ele>1901</ele>
        <time>2026-01-19T14:42:34Z</time>
      </trkpt>
      <trkpt lat="42.51627" lon="2.03165">
        <ele>1900.9</ele>
        <time>2026-01-19T14:42:35Z</time>
      </trkpt>
      <trkpt lat="42.51627" lon="2.03164">
        <ele>1900.8</ele>
        <time>2026-01-19T14:42:36Z</time>
      </trkpt>
      <trkpt lat="42.51626" lon="2.03163">
        <ele>1900.8</ele>
        <time>2026-01-19T14:42:37Z</time>
      </trkpt>
      <trkpt lat="42.51626" lon="2.03162">
        <ele>1900.6</ele>
        <time>2026-01-19T14:42:38Z</time>
      </trkpt>
      <trkpt lat="42.51625" lon="2.03161">
        <ele>1900.5</ele>
        <time>2026-01-19T14:42:39Z</time>
      </trkpt>
      <trkpt lat="42.51625" lon="2.03161">
        <ele>1900.4</ele>
        <time>2026-01-19T14:42:40Z</time>
      </trkpt>
      <trkpt lat="42.51624" lon="2.0316">
        <ele>1900.4</ele>
        <time>2026-01-19T14:42:41Z</time>
      </trkpt>
      <trkpt lat="42.51623" lon="2.0316">
        <ele>1900.3</ele>
        <time>2026-01-19T14:42:42Z</time>
      </trkpt>
      <trkpt lat="42.51622" lon="2.0316">
        <ele>1900.2</ele>
        <time>2026-01-19T14:42:43Z</time>
      </trkpt>
      <trkpt lat="42.51621" lon="2.0316">
        <ele>1900.1</ele>
        <time>2026-01-19T14:42:44Z</time>
      </trkpt>
      <trkpt lat="42.5162" lon="2.0316">
        <ele>1900</ele>
        <time>2026-01-19T14:42:45Z</time>
      </trkpt>
      <trkpt lat="42.51619" lon="2.0316">
        <ele>1899.9</ele>
        <time>2026-01-19T14:42:46Z</time>
      </trkpt>
      <trkpt lat="42.51618" lon="2.0316">
        <ele>1899.8</ele>
        <time>2026-01-19T14:42:47Z</time>
      </trkpt>
      <trkpt lat="42.51617" lon="2.0316">
        <ele>1899.7</ele>
        <time>2026-01-19T14:42:48Z</time>
      </trkpt>
      <trkpt lat="42.51616" lon="2.0316">
        <ele>1899.5</ele>
        <time>2026-01-19T14:42:49Z</time>
      </trkpt>
      <trkpt lat="42.51615" lon="2.0316">
        <ele>1899.4</ele>
        <time>2026-01-19T14:42:50Z</time>
      </trkpt>
      <trkpt lat="42.51614" lon="2.03159">
        <ele>1899.3</ele>
        <time>2026-01-19T14:42:51Z</time>
      </trkpt>
      <trkpt lat="42.51612" lon="2.03159">
        <ele>1899.2</ele>
        <time>2026-01-19T14:42:52Z</time>
      </trkpt>
      <trkpt lat="42.51611" lon="2.03159">
        <ele>1899.1</ele>
        <time>2026-01-19T14:42:53Z</time>
      </trkpt>
      <trkpt lat="42.5161" lon="2.03159">
        <ele>1899</ele>
        <time>2026-01-19T14:42:54Z</time>
      </trkpt>
      <trkpt lat="42.51609" lon="2.03159">
        <ele>1898.9</ele>
        <time>2026-01-19T14:42:55Z</time>
      </trkpt>
      <trkpt lat="42.51608" lon="2.0316">
        <ele>1898.8</ele>
        <time>2026-01-19T14:42:56Z</time>
      </trkpt>
      <trkpt lat="42.51607" lon="2.0316">
        <ele>1898.8</ele>
        <time>2026-01-19T14:42:57Z</time>
      </trkpt>
      <trkpt lat="42.51606" lon="2.0316">
        <ele>1898.7</ele>
        <time>2026-01-19T14:42:58Z</time>
      </trkpt>
      <trkpt lat="42.51605" lon="2.0316">
        <ele>1898.6</ele>
        <time>2026-01-19T14:42:59Z</time>
      </trkpt>
      <trkpt lat="42.51604" lon="2.03159">
        <ele>1898.5</ele>
        <time>2026-01-19T14:43:00Z</time>
      </trkpt>
      <trkpt lat="42.51603" lon="2.03159">
        <ele>1898.5</ele>
        <time>2026-01-19T14:43:01Z</time>
      </trkpt>
      <trkpt lat="42.51603" lon="2.03158">
        <ele>1898.4</ele>
        <time>2026-01-19T14:43:02Z</time>
      </trkpt>
      <trkpt lat="42.51602" lon="2.03158">
        <ele>1898.3</ele>
        <time>2026-01-19T14:43:03Z</time>
      </trkpt>
      <trkpt lat="42.51601" lon="2.03157">
        <ele>1898.3</ele>
        <time>2026-01-19T14:43:04Z</time>
      </trkpt>
      <trkpt lat="42.51601" lon="2.03156">
        <ele>1898.2</ele>
        <time>2026-01-19T14:43:05Z</time>
      </trkpt>
      <trkpt lat="42.51601" lon="2.03155">
        <ele>1898.2</ele>
        <time>2026-01-19T14:43:06Z</time>
      </trkpt>
      <trkpt lat="42.51601" lon="2.03154">
        <ele>1898.1</ele>
        <time>2026-01-19T14:43:07Z</time>
      </trkpt>
      <trkpt lat="42.516" lon="2.03154">
        <ele>1898.1</ele>
        <time>2026-01-19T14:43:08Z</time>
      </trkpt>
      <trkpt lat="42.516" lon="2.03153">
        <ele>1898</ele>
        <time>2026-01-19T14:43:09Z</time>
      </trkpt>
      <trkpt lat="42.51599" lon="2.03152">
        <ele>1898</ele>
        <time>2026-01-19T14:43:10Z</time>
      </trkpt>
      <trkpt lat="42.51598" lon="2.0315">
        <ele>1897.9</ele>
        <time>2026-01-19T14:43:11Z</time>
      </trkpt>
      <trkpt lat="42.51598" lon="2.03149">
        <ele>1897.8</ele>
        <time>2026-01-19T14:43:12Z</time>
      </trkpt>
      <trkpt lat="42.51597" lon="2.03148">
        <ele>1897.7</ele>
        <time>2026-01-19T14:43:13Z</time>
      </trkpt>
      <trkpt lat="42.51597" lon="2.03146">
        <ele>1897.6</ele>
        <time>2026-01-19T14:43:14Z</time>
      </trkpt>
      <trkpt lat="42.51597" lon="2.03144">
        <ele>1897.6</ele>
        <time>2026-01-19T14:43:15Z</time>
      </trkpt>
      <trkpt lat="42.51597" lon="2.03143">
        <ele>1897.5</ele>
        <time>2026-01-19T14:43:16Z</time>
      </trkpt>
      <trkpt lat="42.51597" lon="2.03141">
        <ele>1897.4</ele>
        <time>2026-01-19T14:43:17Z</time>
      </trkpt>
      <trkpt lat="42.51598" lon="2.0314">
        <ele>1897.4</ele>
        <time>2026-01-19T14:43:18Z</time>
      </trkpt>
      <trkpt lat="42.51598" lon="2.03138">
        <ele>1897.3</ele>
        <time>2026-01-19T14:43:19Z</time>
      </trkpt>
      <trkpt lat="42.51598" lon="2.03137">
        <ele>1897.3</ele>
        <time>2026-01-19T14:43:20Z</time>
      </trkpt>
      <trkpt lat="42.51598" lon="2.03135">
        <ele>1897.2</ele>
        <time>2026-01-19T14:43:21Z</time>
      </trkpt>
      <trkpt lat="42.51597" lon="2.03134">
        <ele>1897.2</ele>
        <time>2026-01-19T14:43:22Z</time>
      </trkpt>
      <trkpt lat="42.51597" lon="2.03134">
        <ele>1897.1</ele>
        <time>2026-01-19T14:43:23Z</time>
      </trkpt>
      <trkpt lat="42.51597" lon="2.03134">
        <ele>1897.1</ele>
        <time>2026-01-19T14:43:24Z</time>
      </trkpt>
      <trkpt lat="42.51597" lon="2.03134">
        <ele>1897.1</ele>
        <time>2026-01-19T14:43:25Z</time>
      </trkpt>
      <trkpt lat="42.51597" lon="2.03134">
        <ele>1897.1</ele>
        <time>2026-01-19T14:43:26Z</time>
      </trkpt>
      <trkpt lat="42.51597" lon="2.03134">
        <ele>1897.1</ele>
        <time>2026-01-19T14:43:27Z</time>
      </trkpt>
      <trkpt lat="42.51597" lon="2.03134">
        <ele>1897.1</ele>
        <time>2026-01-19T14:43:28Z</time>
      </trkpt>
      <trkpt lat="42.51597" lon="2.03134">
        <ele>1897.1</ele>
        <time>2026-01-19T14:43:29Z</time>
      </trkpt>
      <trkpt lat="42.51597" lon="2.03134">
        <ele>1897.1</ele>
        <time>2026-01-19T14:43:30Z</time>
      </trkpt>
      <trkpt lat="42.51597" lon="2.03134">
        <ele>1897.1</ele>
        <time>2026-01-19T14:43:31Z</time>
      </trkpt>
      <trkpt lat="42.51597" lon="2.03134">
        <ele>1897.1</ele>
        <time>2026-01-19T14:43:32Z</time>
      </trkpt>
      <trkpt lat="42.51597" lon="2.03133">
        <ele>1897.1</ele>
        <time>2026-01-19T14:43:33Z</time>
      </trkpt>
      <trkpt lat="42.51597" lon="2.03133">
        <ele>1897.1</ele>
        <time>2026-01-19T14:43:34Z</time>
      </trkpt>
      <trkpt lat="42.51597" lon="2.03133">
        <ele>1897.1</ele>
        <time>2026-01-19T14:43:35Z</time>
      </trkpt>
      <trkpt lat="42.51597" lon="2.03133">
        <ele>1897.1</ele>
        <time>2026-01-19T14:43:36Z</time>
      </trkpt>
      <trkpt lat="42.51597" lon="2.03133">
        <ele>1897.1</ele>
        <time>2026-01-19T14:43:37Z</time>
      </trkpt>
      <trkpt lat="42.51597" lon="2.03133">
        <ele>1897.1</ele>
        <time>2026-01-19T14:43:38Z</time>
      </trkpt>
      <trkpt lat="42.51597" lon="2.03132">
        <ele>1897.1</ele>
        <time>2026-01-19T14:43:39Z</time>
      </trkpt>
      <trkpt lat="42.51598" lon="2.03132">
        <ele>1897.1</ele>
        <time>2026-01-19T14:43:40Z</time>
      </trkpt>
      <trkpt lat="42.51598" lon="2.03132">
        <ele>1897.1</ele>
        <time>2026-01-19T14:43:41Z</time>
      </trkpt>
      <trkpt lat="42.51598" lon="2.03132">
        <ele>1897.1</ele>
        <time>2026-01-19T14:43:42Z</time>
      </trkpt>
      <trkpt lat="42.51598" lon="2.03132">
        <ele>1897.1</ele>
        <time>2026-01-19T14:43:43Z</time>
      </trkpt>
      <trkpt lat="42.51598" lon="2.03132">
        <ele>1897.1</ele>
        <time>2026-01-19T14:43:44Z</time>
      </trkpt>
      <trkpt lat="42.51598" lon="2.03132">
        <ele>1897.1</ele>
        <time>2026-01-19T14:43:45Z</time>
      </trkpt>
      <trkpt lat="42.51598" lon="2.03132">
        <ele>1897.1</ele>
        <time>2026-01-19T14:43:46Z</time>
      </trkpt>
      <trkpt lat="42.51598" lon="2.03132">
        <ele>1897.1</ele>
        <time>2026-01-19T14:43:47Z</time>
      </trkpt>
      <trkpt lat="42.51598" lon="2.03132">
        <ele>1897.1</ele>
        <time>2026-01-19T14:43:48Z</time>
      </trkpt>
      <trkpt lat="42.51598" lon="2.03132">
        <ele>1897.1</ele>
        <time>2026-01-19T14:43:49Z</time>
      </trkpt>
      <trkpt lat="42.51598" lon="2.03132">
        <ele>1897.1</ele>
        <time>2026-01-19T14:43:50Z</time>
      </trkpt>
      <trkpt lat="42.51598" lon="2.03132">
        <ele>1897.1</ele>
        <time>2026-01-19T14:43:51Z</time>
      </trkpt>
      <trkpt lat="42.51598" lon="2.03132">
        <ele>1897.1</ele>
        <time>2026-01-19T14:43:52Z</time>
      </trkpt>
      <trkpt lat="42.51598" lon="2.03132">
        <ele>1897.1</ele>
        <time>2026-01-19T14:43:53Z</time>
      </trkpt>
      <trkpt lat="42.51598" lon="2.03132">
        <ele>1897.1</ele>
        <time>2026-01-19T14:43:54Z</time>
      </trkpt>
      <trkpt lat="42.51598" lon="2.03132">
        <ele>1897.1</ele>
        <time>2026-01-19T14:43:55Z</time>
      </trkpt>
      <trkpt lat="42.51598" lon="2.03132">
        <ele>1897.1</ele>
        <time>2026-01-19T14:43:56Z</time>
      </trkpt>
      <trkpt lat="42.51598" lon="2.03132">
        <ele>1897.1</ele>
        <time>2026-01-19T14:43:57Z</time>
      </trkpt>
      <trkpt lat="42.51598" lon="2.03132">
        <ele>1897.1</ele>
        <time>2026-01-19T14:43:58Z</time>
      </trkpt>
      <trkpt lat="42.51598" lon="2.03132">
        <ele>1897.1</ele>
        <time>2026-01-19T14:43:59Z</time>
      </trkpt>
      <trkpt lat="42.51598" lon="2.03132">
        <ele>1897.1</ele>
        <time>2026-01-19T14:44:00Z</time>
      </trkpt>
      <trkpt lat="42.51598" lon="2.03132">
        <ele>1897.1</ele>
        <time>2026-01-19T14:44:01Z</time>
      </trkpt>
      <trkpt lat="42.51598" lon="2.03132">
        <ele>1897.1</ele>
        <time>2026-01-19T14:44:02Z</time>
      </trkpt>
      <trkpt lat="42.51598" lon="2.03132">
        <ele>1897.1</ele>
        <time>2026-01-19T14:44:03Z</time>
      </trkpt>
      <trkpt lat="42.51598" lon="2.03132">
        <ele>1897.1</ele>
        <time>2026-01-19T14:44:04Z</time>
      </trkpt>
      <trkpt lat="42.51598" lon="2.03132">
        <ele>1897.1</ele>
        <time>2026-01-19T14:44:05Z</time>
      </trkpt>
      <trkpt lat="42.51598" lon="2.03132">
        <ele>1897.1</ele>
        <time>2026-01-19T14:44:06Z</time>
      </trkpt>
      <trkpt lat="42.51598" lon="2.03132">
        <ele>1897.1</ele>
        <time>2026-01-19T14:44:07Z</time>
      </trkpt>
      <trkpt lat="42.51598" lon="2.03132">
        <ele>1897.1</ele>
        <time>2026-01-19T14:44:08Z</time>
      </trkpt>
      <trkpt lat="42.51598" lon="2.03132">
        <ele>1897.1</ele>
        <time>2026-01-19T14:44:09Z</time>
      </trkpt>
      <trkpt lat="42.51598" lon="2.03132">
        <ele>1897.1</ele>
        <time>2026-01-19T14:44:10Z</time>
      </trkpt>
      <trkpt lat="42.51598" lon="2.03132">
        <ele>1897.1</ele>
        <time>2026-01-19T14:44:11Z</time>
      </trkpt>
      <trkpt lat="42.51598" lon="2.03132">
        <ele>1897</ele>
        <time>2026-01-19T14:44:12Z</time>
      </trkpt>
      <trkpt lat="42.51598" lon="2.03133">
        <ele>1897</ele>
        <time>2026-01-19T14:44:13Z</time>
      </trkpt>
      <trkpt lat="42.51598" lon="2.03133">
        <ele>1897</ele>
        <time>2026-01-19T14:44:14Z</time>
      </trkpt>
      <trkpt lat="42.51598" lon="2.03133">
        <ele>1897</ele>
        <time>2026-01-19T14:44:15Z</time>
      </trkpt>
      <trkpt lat="42.51598" lon="2.03133">
        <ele>1897</ele>
        <time>2026-01-19T14:44:16Z</time>
      </trkpt>
      <trkpt lat="42.51598" lon="2.03133">
        <ele>1897</ele>
        <time>2026-01-19T14:44:18Z</time>
      </trkpt>
      <trkpt lat="42.51598" lon="2.03133">
        <ele>1897</ele>
        <time>2026-01-19T14:44:19Z</time>
      </trkpt>
      <trkpt lat="42.51598" lon="2.03132">
        <ele>1897</ele>
        <time>2026-01-19T14:44:20Z</time>
      </trkpt>
      <trkpt lat="42.51598" lon="2.03132">
        <ele>1897</ele>
        <time>2026-01-19T14:44:21Z</time>
      </trkpt>
      <trkpt lat="42.51598" lon="2.03132">
        <ele>1897</ele>
        <time>2026-01-19T14:44:22Z</time>
      </trkpt>
      <trkpt lat="42.51598" lon="2.03132">
        <ele>1897</ele>
        <time>2026-01-19T14:44:23Z</time>
      </trkpt>
      <trkpt lat="42.51598" lon="2.03133">
        <ele>1897</ele>
        <time>2026-01-19T14:44:24Z</time>
      </trkpt>
      <trkpt lat="42.51598" lon="2.03133">
        <ele>1897</ele>
        <time>2026-01-19T14:44:25Z</time>
      </trkpt>
      <trkpt lat="42.51599" lon="2.03132">
        <ele>1897</ele>
        <time>2026-01-19T14:44:26Z</time>
      </trkpt>
      <trkpt lat="42.51599" lon="2.03132">
        <ele>1897</ele>
        <time>2026-01-19T14:44:28Z</time>
      </trkpt>
      <trkpt lat="42.51599" lon="2.03132">
        <ele>1897</ele>
        <time>2026-01-19T14:44:29Z</time>
      </trkpt>
      <trkpt lat="42.51599" lon="2.03132">
        <ele>1897</ele>
        <time>2026-01-19T14:44:30Z</time>
      </trkpt>
      <trkpt lat="42.51599" lon="2.03132">
        <ele>1897</ele>
        <time>2026-01-19T14:44:31Z</time>
      </trkpt>
      <trkpt lat="42.51599" lon="2.03132">
        <ele>1897</ele>
        <time>2026-01-19T14:44:32Z</time>
      </trkpt>
      <trkpt lat="42.51599" lon="2.03132">
        <ele>1897</ele>
        <time>2026-01-19T14:44:33Z</time>
      </trkpt>
      <trkpt lat="42.51599" lon="2.03132">
        <ele>1897</ele>
        <time>2026-01-19T14:44:34Z</time>
      </trkpt>
      <trkpt lat="42.51599" lon="2.03132">
        <ele>1897</ele>
        <time>2026-01-19T14:44:35Z</time>
      </trkpt>
      <trkpt lat="42.51599" lon="2.03132">
        <ele>1897</ele>
        <time>2026-01-19T14:44:41Z</time>
      </trkpt>
      <trkpt lat="42.51598" lon="2.03132">
        <ele>1897</ele>
        <time>2026-01-19T14:44:42Z</time>
      </trkpt>
      <trkpt lat="42.51598" lon="2.03132">
        <ele>1897</ele>
        <time>2026-01-19T14:44:43Z</time>
      </trkpt>
      <trkpt lat="42.51598" lon="2.03132">
        <ele>1897</ele>
        <time>2026-01-19T14:44:44Z</time>
      </trkpt>
      <trkpt lat="42.51598" lon="2.03132">
        <ele>1896.9</ele>
        <time>2026-01-19T14:44:45Z</time>
      </trkpt>
      <trkpt lat="42.51598" lon="2.03133">
        <ele>1896.9</ele>
        <time>2026-01-19T14:44:47Z</time>
      </trkpt>
      <trkpt lat="42.51598" lon="2.03133">
        <ele>1896.9</ele>
        <time>2026-01-19T14:44:48Z</time>
      </trkpt>
      <trkpt lat="42.51598" lon="2.03133">
        <ele>1896.9</ele>
        <time>2026-01-19T14:44:49Z</time>
      </trkpt>
      <trkpt lat="42.51598" lon="2.03133">
        <ele>1896.9</ele>
        <time>2026-01-19T14:44:50Z</time>
      </trkpt>
      <trkpt lat="42.51598" lon="2.03133">
        <ele>1896.9</ele>
        <time>2026-01-19T14:44:51Z</time>
      </trkpt>
      <trkpt lat="42.51598" lon="2.03133">
        <ele>1896.9</ele>
        <time>2026-01-19T14:44:52Z</time>
      </trkpt>
      <trkpt lat="42.51598" lon="2.03134">
        <ele>1896.9</ele>
        <time>2026-01-19T14:44:53Z</time>
      </trkpt>
      <trkpt lat="42.51598" lon="2.03134">
        <ele>1896.9</ele>
        <time>2026-01-19T14:44:54Z</time>
      </trkpt>
      <trkpt lat="42.51598" lon="2.03134">
        <ele>1896.9</ele>
        <time>2026-01-19T14:44:55Z</time>
      </trkpt>
      <trkpt lat="42.51598" lon="2.03134">
        <ele>1896.9</ele>
        <time>2026-01-19T14:44:56Z</time>
      </trkpt>
      <trkpt lat="42.51598" lon="2.03134">
        <ele>1896.9</ele>
        <time>2026-01-19T14:44:57Z</time>
      </trkpt>
      <trkpt lat="42.51598" lon="2.03134">
        <ele>1896.9</ele>
        <time>2026-01-19T14:44:58Z</time>
      </trkpt>
      <trkpt lat="42.51598" lon="2.03134">
        <ele>1896.9</ele>
        <time>2026-01-19T14:45:00Z</time>
      </trkpt>
      <trkpt lat="42.51598" lon="2.03134">
        <ele>1896.9</ele>
        <time>2026-01-19T14:45:01Z</time>
      </trkpt>
      <trkpt lat="42.51598" lon="2.03134">
        <ele>1896.9</ele>
        <time>2026-01-19T14:45:02Z</time>
      </trkpt>
      <trkpt lat="42.51598" lon="2.03134">
        <ele>1896.9</ele>
        <time>2026-01-19T14:45:03Z</time>
      </trkpt>
      <trkpt lat="42.51598" lon="2.03134">
        <ele>1896.9</ele>
        <time>2026-01-19T14:45:04Z</time>
      </trkpt>
      <trkpt lat="42.51598" lon="2.03134">
        <ele>1896.9</ele>
        <time>2026-01-19T14:45:05Z</time>
      </trkpt>
      <trkpt lat="42.51598" lon="2.03134">
        <ele>1896.9</ele>
        <time>2026-01-19T14:45:06Z</time>
      </trkpt>
      <trkpt lat="42.51599" lon="2.03134">
        <ele>1896.9</ele>
        <time>2026-01-19T14:45:07Z</time>
      </trkpt>
      <trkpt lat="42.51599" lon="2.03134">
        <ele>1896.9</ele>
        <time>2026-01-19T14:45:08Z</time>
      </trkpt>
      <trkpt lat="42.51599" lon="2.03134">
        <ele>1896.9</ele>
        <time>2026-01-19T14:45:09Z</time>
      </trkpt>
      <trkpt lat="42.51598" lon="2.03134">
        <ele>1896.9</ele>
        <time>2026-01-19T14:45:10Z</time>
      </trkpt>
      <trkpt lat="42.51598" lon="2.03134">
        <ele>1896.9</ele>
        <time>2026-01-19T14:45:11Z</time>
      </trkpt>
      <trkpt lat="42.51598" lon="2.03134">
        <ele>1896.9</ele>
        <time>2026-01-19T14:45:12Z</time>
      </trkpt>
      <trkpt lat="42.51599" lon="2.03134">
        <ele>1896.9</ele>
        <time>2026-01-19T14:45:13Z</time>
      </trkpt>
      <trkpt lat="42.51599" lon="2.03134">
        <ele>1896.9</ele>
        <time>2026-01-19T14:45:14Z</time>
      </trkpt>
      <trkpt lat="42.51599" lon="2.03134">
        <ele>1896.9</ele>
        <time>2026-01-19T14:45:15Z</time>
      </trkpt>
      <trkpt lat="42.516" lon="2.03134">
        <ele>1896.9</ele>
        <time>2026-01-19T14:45:16Z</time>
      </trkpt>
      <trkpt lat="42.516" lon="2.03134">
        <ele>1896.9</ele>
        <time>2026-01-19T14:45:17Z</time>
      </trkpt>
      <trkpt lat="42.51602" lon="2.03132">
        <ele>1896.8</ele>
        <time>2026-01-19T14:45:18Z</time>
      </trkpt>
      <trkpt lat="42.51602" lon="2.0313">
        <ele>1896.8</ele>
        <time>2026-01-19T14:45:19Z</time>
      </trkpt>
      <trkpt lat="42.51602" lon="2.03129">
        <ele>1896.8</ele>
        <time>2026-01-19T14:45:20Z</time>
      </trkpt>
      <trkpt lat="42.51602" lon="2.03126">
        <ele>1896.8</ele>
        <time>2026-01-19T14:45:21Z</time>
      </trkpt>
      <trkpt lat="42.51601" lon="2.03125">
        <ele>1896.8</ele>
        <time>2026-01-19T14:45:22Z</time>
      </trkpt>
      <trkpt lat="42.51601" lon="2.03124">
        <ele>1896.8</ele>
        <time>2026-01-19T14:45:23Z</time>
      </trkpt>
      <trkpt lat="42.516" lon="2.03122">
        <ele>1896.7</ele>
        <time>2026-01-19T14:45:24Z</time>
      </trkpt>
      <trkpt lat="42.51599" lon="2.03121">
        <ele>1896.7</ele>
        <time>2026-01-19T14:45:25Z</time>
      </trkpt>
      <trkpt lat="42.51598" lon="2.0312">
        <ele>1896.7</ele>
        <time>2026-01-19T14:45:26Z</time>
      </trkpt>
      <trkpt lat="42.51596" lon="2.03119">
        <ele>1896.7</ele>
        <time>2026-01-19T14:45:27Z</time>
      </trkpt>
      <trkpt lat="42.51595" lon="2.03118">
        <ele>1896.7</ele>
        <time>2026-01-19T14:45:28Z</time>
      </trkpt>
      <trkpt lat="42.51594" lon="2.03118">
        <ele>1896.7</ele>
        <time>2026-01-19T14:45:29Z</time>
      </trkpt>
      <trkpt lat="42.51593" lon="2.03118">
        <ele>1896.5</ele>
        <time>2026-01-19T14:45:30Z</time>
      </trkpt>
      <trkpt lat="42.51591" lon="2.03119">
        <ele>1896.2</ele>
        <time>2026-01-19T14:45:31Z</time>
      </trkpt>
      <trkpt lat="42.5159" lon="2.03121">
        <ele>1896</ele>
        <time>2026-01-19T14:45:32Z</time>
      </trkpt>
      <trkpt lat="42.51589" lon="2.03122">
        <ele>1895.8</ele>
        <time>2026-01-19T14:45:33Z</time>
      </trkpt>
      <trkpt lat="42.51587" lon="2.03124">
        <ele>1895.5</ele>
        <time>2026-01-19T14:45:34Z</time>
      </trkpt>
      <trkpt lat="42.51586" lon="2.03124">
        <ele>1895.4</ele>
        <time>2026-01-19T14:45:35Z</time>
      </trkpt>
      <trkpt lat="42.51586" lon="2.03124">
        <ele>1895.2</ele>
        <time>2026-01-19T14:45:36Z</time>
      </trkpt>
      <trkpt lat="42.51584" lon="2.03125">
        <ele>1895</ele>
        <time>2026-01-19T14:45:37Z</time>
      </trkpt>
      <trkpt lat="42.51583" lon="2.03125">
        <ele>1894.8</ele>
        <time>2026-01-19T14:45:38Z</time>
      </trkpt>
      <trkpt lat="42.51582" lon="2.03125">
        <ele>1894.6</ele>
        <time>2026-01-19T14:45:39Z</time>
      </trkpt>
      <trkpt lat="42.51581" lon="2.03125">
        <ele>1894.4</ele>
        <time>2026-01-19T14:45:40Z</time>
      </trkpt>
      <trkpt lat="42.5158" lon="2.03123">
        <ele>1894.2</ele>
        <time>2026-01-19T14:45:41Z</time>
      </trkpt>
      <trkpt lat="42.51578" lon="2.03122">
        <ele>1893.9</ele>
        <time>2026-01-19T14:45:42Z</time>
      </trkpt>
      <trkpt lat="42.51577" lon="2.03121">
        <ele>1893.7</ele>
        <time>2026-01-19T14:45:43Z</time>
      </trkpt>
      <trkpt lat="42.51576" lon="2.03121">
        <ele>1893.5</ele>
        <time>2026-01-19T14:45:44Z</time>
      </trkpt>
      <trkpt lat="42.51575" lon="2.0312">
        <ele>1893.3</ele>
        <time>2026-01-19T14:45:45Z</time>
      </trkpt>
      <trkpt lat="42.51574" lon="2.0312">
        <ele>1893.1</ele>
        <time>2026-01-19T14:45:46Z</time>
      </trkpt>
      <trkpt lat="42.51573" lon="2.0312">
        <ele>1892.9</ele>
        <time>2026-01-19T14:45:47Z</time>
      </trkpt>
      <trkpt lat="42.51572" lon="2.03119">
        <ele>1892.7</ele>
        <time>2026-01-19T14:45:48Z</time>
      </trkpt>
      <trkpt lat="42.51571" lon="2.03119">
        <ele>1892.5</ele>
        <time>2026-01-19T14:45:49Z</time>
      </trkpt>
      <trkpt lat="42.5157" lon="2.03119">
        <ele>1892.4</ele>
        <time>2026-01-19T14:45:50Z</time>
      </trkpt>
      <trkpt lat="42.51569" lon="2.03118">
        <ele>1892.2</ele>
        <time>2026-01-19T14:45:51Z</time>
      </trkpt>
      <trkpt lat="42.51568" lon="2.03118">
        <ele>1892</ele>
        <time>2026-01-19T14:45:52Z</time>
      </trkpt>
      <trkpt lat="42.51566" lon="2.03116">
        <ele>1891.6</ele>
        <time>2026-01-19T14:45:53Z</time>
      </trkpt>
      <trkpt lat="42.51565" lon="2.03115">
        <ele>1891.5</ele>
        <time>2026-01-19T14:45:54Z</time>
      </trkpt>
      <trkpt lat="42.51564" lon="2.03115">
        <ele>1891.4</ele>
        <time>2026-01-19T14:45:55Z</time>
      </trkpt>
      <trkpt lat="42.51563" lon="2.03114">
        <ele>1891.2</ele>
        <time>2026-01-19T14:45:56Z</time>
      </trkpt>
      <trkpt lat="42.51562" lon="2.03114">
        <ele>1891.1</ele>
        <time>2026-01-19T14:45:57Z</time>
      </trkpt>
      <trkpt lat="42.51561" lon="2.03113">
        <ele>1890.9</ele>
        <time>2026-01-19T14:45:58Z</time>
      </trkpt>
      <trkpt lat="42.51559" lon="2.03113">
        <ele>1890.6</ele>
        <time>2026-01-19T14:45:59Z</time>
      </trkpt>
      <trkpt lat="42.51558" lon="2.03113">
        <ele>1890.5</ele>
        <time>2026-01-19T14:46:00Z</time>
      </trkpt>
      <trkpt lat="42.51557" lon="2.03113">
        <ele>1890.4</ele>
        <time>2026-01-19T14:46:01Z</time>
      </trkpt>
      <trkpt lat="42.51556" lon="2.03113">
        <ele>1890.3</ele>
        <time>2026-01-19T14:46:02Z</time>
      </trkpt>
      <trkpt lat="42.51555" lon="2.03113">
        <ele>1890.1</ele>
        <time>2026-01-19T14:46:03Z</time>
      </trkpt>
      <trkpt lat="42.51554" lon="2.03113">
        <ele>1890</ele>
        <time>2026-01-19T14:46:04Z</time>
      </trkpt>
      <trkpt lat="42.51553" lon="2.03113">
        <ele>1889.9</ele>
        <time>2026-01-19T14:46:05Z</time>
      </trkpt>
      <trkpt lat="42.51552" lon="2.03113">
        <ele>1889.8</ele>
        <time>2026-01-19T14:46:06Z</time>
      </trkpt>
      <trkpt lat="42.51551" lon="2.03113">
        <ele>1889.7</ele>
        <time>2026-01-19T14:46:07Z</time>
      </trkpt>
      <trkpt lat="42.5155" lon="2.03113">
        <ele>1889.7</ele>
        <time>2026-01-19T14:46:08Z</time>
      </trkpt>
      <trkpt lat="42.51549" lon="2.03113">
        <ele>1889.6</ele>
        <time>2026-01-19T14:46:09Z</time>
      </trkpt>
      <trkpt lat="42.51548" lon="2.03113">
        <ele>1889.5</ele>
        <time>2026-01-19T14:46:10Z</time>
      </trkpt>
      <trkpt lat="42.51547" lon="2.03113">
        <ele>1889.5</ele>
        <time>2026-01-19T14:46:11Z</time>
      </trkpt>
      <trkpt lat="42.51546" lon="2.03113">
        <ele>1889.4</ele>
        <time>2026-01-19T14:46:12Z</time>
      </trkpt>
      <trkpt lat="42.51545" lon="2.03113">
        <ele>1889.4</ele>
        <time>2026-01-19T14:46:13Z</time>
      </trkpt>
      <trkpt lat="42.51544" lon="2.03113">
        <ele>1889.3</ele>
        <time>2026-01-19T14:46:14Z</time>
      </trkpt>
      <trkpt lat="42.51543" lon="2.03112">
        <ele>1889.3</ele>
        <time>2026-01-19T14:46:15Z</time>
      </trkpt>
      <trkpt lat="42.51542" lon="2.03111">
        <ele>1889.3</ele>
        <time>2026-01-19T14:46:16Z</time>
      </trkpt>
      <trkpt lat="42.51541" lon="2.03111">
        <ele>1889.2</ele>
        <time>2026-01-19T14:46:17Z</time>
      </trkpt>
      <trkpt lat="42.5154" lon="2.0311">
        <ele>1889.2</ele>
        <time>2026-01-19T14:46:18Z</time>
      </trkpt>
      <trkpt lat="42.51539" lon="2.0311">
        <ele>1889.2</ele>
        <time>2026-01-19T14:46:19Z</time>
      </trkpt>
      <trkpt lat="42.51538" lon="2.03109">
        <ele>1889.2</ele>
        <time>2026-01-19T14:46:20Z</time>
      </trkpt>
      <trkpt lat="42.51537" lon="2.03108">
        <ele>1889.2</ele>
        <time>2026-01-19T14:46:21Z</time>
      </trkpt>
      <trkpt lat="42.51536" lon="2.03108">
        <ele>1889.2</ele>
        <time>2026-01-19T14:46:22Z</time>
      </trkpt>
      <trkpt lat="42.51535" lon="2.03107">
        <ele>1889.2</ele>
        <time>2026-01-19T14:46:23Z</time>
      </trkpt>
      <trkpt lat="42.51534" lon="2.03107">
        <ele>1889.2</ele>
        <time>2026-01-19T14:46:24Z</time>
      </trkpt>
      <trkpt lat="42.51533" lon="2.03107">
        <ele>1889.2</ele>
        <time>2026-01-19T14:46:25Z</time>
      </trkpt>
      <trkpt lat="42.51532" lon="2.03106">
        <ele>1889.2</ele>
        <time>2026-01-19T14:46:26Z</time>
      </trkpt>
      <trkpt lat="42.51531" lon="2.03106">
        <ele>1889.2</ele>
        <time>2026-01-19T14:46:27Z</time>
      </trkpt>
      <trkpt lat="42.5153" lon="2.03105">
        <ele>1889.2</ele>
        <time>2026-01-19T14:46:28Z</time>
      </trkpt>
      <trkpt lat="42.51529" lon="2.03104">
        <ele>1889.2</ele>
        <time>2026-01-19T14:46:29Z</time>
      </trkpt>
      <trkpt lat="42.51528" lon="2.03104">
        <ele>1889.2</ele>
        <time>2026-01-19T14:46:30Z</time>
      </trkpt>
      <trkpt lat="42.51528" lon="2.03103">
        <ele>1889.2</ele>
        <time>2026-01-19T14:46:31Z</time>
      </trkpt>
      <trkpt lat="42.51527" lon="2.03103">
        <ele>1889.2</ele>
        <time>2026-01-19T14:46:32Z</time>
      </trkpt>
      <trkpt lat="42.51526" lon="2.03103">
        <ele>1889.2</ele>
        <time>2026-01-19T14:46:33Z</time>
      </trkpt>
      <trkpt lat="42.51526" lon="2.03102">
        <ele>1889.2</ele>
        <time>2026-01-19T14:46:34Z</time>
      </trkpt>
      <trkpt lat="42.51525" lon="2.03102">
        <ele>1889.2</ele>
        <time>2026-01-19T14:46:35Z</time>
      </trkpt>
      <trkpt lat="42.51524" lon="2.03102">
        <ele>1889.2</ele>
        <time>2026-01-19T14:46:36Z</time>
      </trkpt>
      <trkpt lat="42.51524" lon="2.03103">
        <ele>1889.2</ele>
        <time>2026-01-19T14:46:37Z</time>
      </trkpt>
      <trkpt lat="42.51523" lon="2.03103">
        <ele>1889.2</ele>
        <time>2026-01-19T14:46:38Z</time>
      </trkpt>
      <trkpt lat="42.51522" lon="2.03104">
        <ele>1889.1</ele>
        <time>2026-01-19T14:46:39Z</time>
      </trkpt>
      <trkpt lat="42.51521" lon="2.03105">
        <ele>1889.1</ele>
        <time>2026-01-19T14:46:40Z</time>
      </trkpt>
      <trkpt lat="42.51521" lon="2.03106">
        <ele>1889.1</ele>
        <time>2026-01-19T14:46:41Z</time>
      </trkpt>
      <trkpt lat="42.5152" lon="2.03107">
        <ele>1889.1</ele>
        <time>2026-01-19T14:46:42Z</time>
      </trkpt>
      <trkpt lat="42.51519" lon="2.03108">
        <ele>1889</ele>
        <time>2026-01-19T14:46:43Z</time>
      </trkpt>
      <trkpt lat="42.51518" lon="2.03109">
        <ele>1889</ele>
        <time>2026-01-19T14:46:44Z</time>
      </trkpt>
      <trkpt lat="42.51517" lon="2.0311">
        <ele>1888.9</ele>
        <time>2026-01-19T14:46:45Z</time>
      </trkpt>
      <trkpt lat="42.51516" lon="2.0311">
        <ele>1888.9</ele>
        <time>2026-01-19T14:46:46Z</time>
      </trkpt>
      <trkpt lat="42.51514" lon="2.03112">
        <ele>1888.7</ele>
        <time>2026-01-19T14:46:47Z</time>
      </trkpt>
      <trkpt lat="42.51514" lon="2.03113">
        <ele>1888.7</ele>
        <time>2026-01-19T14:46:48Z</time>
      </trkpt>
      <trkpt lat="42.51513" lon="2.03113">
        <ele>1888.6</ele>
        <time>2026-01-19T14:46:49Z</time>
      </trkpt>
      <trkpt lat="42.51511" lon="2.03115">
        <ele>1888.5</ele>
        <time>2026-01-19T14:46:50Z</time>
      </trkpt>
      <trkpt lat="42.5151" lon="2.03116">
        <ele>1888.4</ele>
        <time>2026-01-19T14:46:51Z</time>
      </trkpt>
      <trkpt lat="42.5151" lon="2.03116">
        <ele>1888.3</ele>
        <time>2026-01-19T14:46:52Z</time>
      </trkpt>
      <trkpt lat="42.51509" lon="2.03117">
        <ele>1888.2</ele>
        <time>2026-01-19T14:46:53Z</time>
      </trkpt>
      <trkpt lat="42.51507" lon="2.03118">
        <ele>1888.1</ele>
        <time>2026-01-19T14:46:54Z</time>
      </trkpt>
      <trkpt lat="42.51505" lon="2.03119">
        <ele>1887.9</ele>
        <time>2026-01-19T14:46:55Z</time>
      </trkpt>
      <trkpt lat="42.51505" lon="2.0312">
        <ele>1887.8</ele>
        <time>2026-01-19T14:46:56Z</time>
      </trkpt>
      <trkpt lat="42.51504" lon="2.03121">
        <ele>1887.8</ele>
        <time>2026-01-19T14:46:57Z</time>
      </trkpt>
      <trkpt lat="42.51503" lon="2.03122">
        <ele>1887.7</ele>
        <time>2026-01-19T14:46:58Z</time>
      </trkpt>
      <trkpt lat="42.51503" lon="2.03123">
        <ele>1887.6</ele>
        <time>2026-01-19T14:46:59Z</time>
      </trkpt>
      <trkpt lat="42.51502" lon="2.03124">
        <ele>1887.4</ele>
        <time>2026-01-19T14:47:00Z</time>
      </trkpt>
      <trkpt lat="42.51501" lon="2.03126">
        <ele>1887.3</ele>
        <time>2026-01-19T14:47:01Z</time>
      </trkpt>
      <trkpt lat="42.51501" lon="2.03126">
        <ele>1887.3</ele>
        <time>2026-01-19T14:47:02Z</time>
      </trkpt>
      <trkpt lat="42.515" lon="2.03127">
        <ele>1887.2</ele>
        <time>2026-01-19T14:47:03Z</time>
      </trkpt>
      <trkpt lat="42.515" lon="2.03128">
        <ele>1887.1</ele>
        <time>2026-01-19T14:47:04Z</time>
      </trkpt>
      <trkpt lat="42.51499" lon="2.03129">
        <ele>1887</ele>
        <time>2026-01-19T14:47:05Z</time>
      </trkpt>
      <trkpt lat="42.51498" lon="2.03131">
        <ele>1886.9</ele>
        <time>2026-01-19T14:47:06Z</time>
      </trkpt>
      <trkpt lat="42.51498" lon="2.03132">
        <ele>1886.7</ele>
        <time>2026-01-19T14:47:07Z</time>
      </trkpt>
      <trkpt lat="42.51498" lon="2.03134">
        <ele>1886.6</ele>
        <time>2026-01-19T14:47:08Z</time>
      </trkpt>
      <trkpt lat="42.51497" lon="2.03135">
        <ele>1886.5</ele>
        <time>2026-01-19T14:47:09Z</time>
      </trkpt>
      <trkpt lat="42.51498" lon="2.03137">
        <ele>1886.4</ele>
        <time>2026-01-19T14:47:10Z</time>
      </trkpt>
      <trkpt lat="42.51499" lon="2.03138">
        <ele>1886.3</ele>
        <time>2026-01-19T14:47:11Z</time>
      </trkpt>
      <trkpt lat="42.51499" lon="2.0314">
        <ele>1886.2</ele>
        <time>2026-01-19T14:47:12Z</time>
      </trkpt>
      <trkpt lat="42.51499" lon="2.03141">
        <ele>1886.1</ele>
        <time>2026-01-19T14:47:13Z</time>
      </trkpt>
      <trkpt lat="42.51499" lon="2.03142">
        <ele>1886</ele>
        <time>2026-01-19T14:47:14Z</time>
      </trkpt>
      <trkpt lat="42.51498" lon="2.03144">
        <ele>1885.8</ele>
        <time>2026-01-19T14:47:15Z</time>
      </trkpt>
      <trkpt lat="42.51496" lon="2.03145">
        <ele>1885.6</ele>
        <time>2026-01-19T14:47:16Z</time>
      </trkpt>
      <trkpt lat="42.51495" lon="2.03146">
        <ele>1885.5</ele>
        <time>2026-01-19T14:47:17Z</time>
      </trkpt>
      <trkpt lat="42.51493" lon="2.03147">
        <ele>1885.3</ele>
        <time>2026-01-19T14:47:18Z</time>
      </trkpt>
      <trkpt lat="42.51492" lon="2.03147">
        <ele>1885.2</ele>
        <time>2026-01-19T14:47:19Z</time>
      </trkpt>
      <trkpt lat="42.5149" lon="2.03148">
        <ele>1885</ele>
        <time>2026-01-19T14:47:20Z</time>
      </trkpt>
      <trkpt lat="42.51489" lon="2.0315">
        <ele>1884.8</ele>
        <time>2026-01-19T14:47:21Z</time>
      </trkpt>
      <trkpt lat="42.51488" lon="2.03151">
        <ele>1884.7</ele>
        <time>2026-01-19T14:47:22Z</time>
      </trkpt>
      <trkpt lat="42.51487" lon="2.03151">
        <ele>1884.6</ele>
        <time>2026-01-19T14:47:23Z</time>
      </trkpt>
      <trkpt lat="42.51486" lon="2.03152">
        <ele>1884.6</ele>
        <time>2026-01-19T14:47:24Z</time>
      </trkpt>
      <trkpt lat="42.51486" lon="2.03153">
        <ele>1884.5</ele>
        <time>2026-01-19T14:47:25Z</time>
      </trkpt>
      <trkpt lat="42.51485" lon="2.03154">
        <ele>1884.4</ele>
        <time>2026-01-19T14:47:26Z</time>
      </trkpt>
      <trkpt lat="42.51484" lon="2.03157">
        <ele>1884.2</ele>
        <time>2026-01-19T14:47:27Z</time>
      </trkpt>
      <trkpt lat="42.51484" lon="2.03158">
        <ele>1884.1</ele>
        <time>2026-01-19T14:47:28Z</time>
      </trkpt>
      <trkpt lat="42.51484" lon="2.03159">
        <ele>1884</ele>
        <time>2026-01-19T14:47:29Z</time>
      </trkpt>
      <trkpt lat="42.51483" lon="2.03162">
        <ele>1883.9</ele>
        <time>2026-01-19T14:47:30Z</time>
      </trkpt>
      <trkpt lat="42.51483" lon="2.03163">
        <ele>1883.8</ele>
        <time>2026-01-19T14:47:31Z</time>
      </trkpt>
      <trkpt lat="42.51483" lon="2.03164">
        <ele>1883.7</ele>
        <time>2026-01-19T14:47:32Z</time>
      </trkpt>
      <trkpt lat="42.51483" lon="2.03167">
        <ele>1883.5</ele>
        <time>2026-01-19T14:47:33Z</time>
      </trkpt>
      <trkpt lat="42.51482" lon="2.03168">
        <ele>1883.4</ele>
        <time>2026-01-19T14:47:34Z</time>
      </trkpt>
      <trkpt lat="42.51482" lon="2.03169">
        <ele>1883.3</ele>
        <time>2026-01-19T14:47:35Z</time>
      </trkpt>
      <trkpt lat="42.51481" lon="2.03171">
        <ele>1883.2</ele>
        <time>2026-01-19T14:47:36Z</time>
      </trkpt>
      <trkpt lat="42.51481" lon="2.03172">
        <ele>1883</ele>
        <time>2026-01-19T14:47:37Z</time>
      </trkpt>
      <trkpt lat="42.5148" lon="2.03173">
        <ele>1882.9</ele>
        <time>2026-01-19T14:47:38Z</time>
      </trkpt>
      <trkpt lat="42.5148" lon="2.03175">
        <ele>1882.8</ele>
        <time>2026-01-19T14:47:39Z</time>
      </trkpt>
      <trkpt lat="42.51479" lon="2.03176">
        <ele>1882.6</ele>
        <time>2026-01-19T14:47:40Z</time>
      </trkpt>
      <trkpt lat="42.51479" lon="2.03178">
        <ele>1882.5</ele>
        <time>2026-01-19T14:47:41Z</time>
      </trkpt>
      <trkpt lat="42.51478" lon="2.03179">
        <ele>1882.4</ele>
        <time>2026-01-19T14:47:42Z</time>
      </trkpt>
      <trkpt lat="42.51477" lon="2.03181">
        <ele>1882.3</ele>
        <time>2026-01-19T14:47:43Z</time>
      </trkpt>
      <trkpt lat="42.51477" lon="2.03182">
        <ele>1882.2</ele>
        <time>2026-01-19T14:47:44Z</time>
      </trkpt>
      <trkpt lat="42.51476" lon="2.03183">
        <ele>1882.1</ele>
        <time>2026-01-19T14:47:45Z</time>
      </trkpt>
      <trkpt lat="42.51475" lon="2.03184">
        <ele>1882</ele>
        <time>2026-01-19T14:47:46Z</time>
      </trkpt>
      <trkpt lat="42.51474" lon="2.03185">
        <ele>1881.9</ele>
        <time>2026-01-19T14:47:47Z</time>
      </trkpt>
      <trkpt lat="42.51473" lon="2.03186">
        <ele>1881.8</ele>
        <time>2026-01-19T14:47:48Z</time>
      </trkpt>
      <trkpt lat="42.51473" lon="2.03187">
        <ele>1881.7</ele>
        <time>2026-01-19T14:47:49Z</time>
      </trkpt>
      <trkpt lat="42.51472" lon="2.03188">
        <ele>1881.6</ele>
        <time>2026-01-19T14:47:50Z</time>
      </trkpt>
      <trkpt lat="42.51472" lon="2.0319">
        <ele>1881.5</ele>
        <time>2026-01-19T14:47:51Z</time>
      </trkpt>
      <trkpt lat="42.51471" lon="2.03191">
        <ele>1881.4</ele>
        <time>2026-01-19T14:47:52Z</time>
      </trkpt>
      <trkpt lat="42.51471" lon="2.03192">
        <ele>1881.4</ele>
        <time>2026-01-19T14:47:53Z</time>
      </trkpt>
      <trkpt lat="42.5147" lon="2.03193">
        <ele>1881.3</ele>
        <time>2026-01-19T14:47:54Z</time>
      </trkpt>
      <trkpt lat="42.51469" lon="2.03194">
        <ele>1881.2</ele>
        <time>2026-01-19T14:47:55Z</time>
      </trkpt>
      <trkpt lat="42.51468" lon="2.03195">
        <ele>1881.1</ele>
        <time>2026-01-19T14:47:56Z</time>
      </trkpt>
      <trkpt lat="42.51467" lon="2.03195">
        <ele>1881.1</ele>
        <time>2026-01-19T14:47:57Z</time>
      </trkpt>
      <trkpt lat="42.51466" lon="2.03196">
        <ele>1881</ele>
        <time>2026-01-19T14:47:59Z</time>
      </trkpt>
      <trkpt lat="42.51466" lon="2.03198">
        <ele>1880.9</ele>
        <time>2026-01-19T14:48:00Z</time>
      </trkpt>
      <trkpt lat="42.51465" lon="2.03199">
        <ele>1880.8</ele>
        <time>2026-01-19T14:48:01Z</time>
      </trkpt>
      <trkpt lat="42.51465" lon="2.032">
        <ele>1880.8</ele>
        <time>2026-01-19T14:48:02Z</time>
      </trkpt>
      <trkpt lat="42.51465" lon="2.03201">
        <ele>1880.7</ele>
        <time>2026-01-19T14:48:03Z</time>
      </trkpt>
      <trkpt lat="42.51464" lon="2.03203">
        <ele>1880.6</ele>
        <time>2026-01-19T14:48:04Z</time>
      </trkpt>
      <trkpt lat="42.51464" lon="2.03204">
        <ele>1880.6</ele>
        <time>2026-01-19T14:48:05Z</time>
      </trkpt>
      <trkpt lat="42.51463" lon="2.03205">
        <ele>1880.5</ele>
        <time>2026-01-19T14:48:06Z</time>
      </trkpt>
      <trkpt lat="42.51462" lon="2.03205">
        <ele>1880.4</ele>
        <time>2026-01-19T14:48:07Z</time>
      </trkpt>
      <trkpt lat="42.51461" lon="2.03206">
        <ele>1880.3</ele>
        <time>2026-01-19T14:48:08Z</time>
      </trkpt>
      <trkpt lat="42.5146" lon="2.03207">
        <ele>1880.2</ele>
        <time>2026-01-19T14:48:09Z</time>
      </trkpt>
      <trkpt lat="42.51458" lon="2.03207">
        <ele>1880.2</ele>
        <time>2026-01-19T14:48:10Z</time>
      </trkpt>
      <trkpt lat="42.51457" lon="2.03208">
        <ele>1880.1</ele>
        <time>2026-01-19T14:48:11Z</time>
      </trkpt>
      <trkpt lat="42.51456" lon="2.03209">
        <ele>1880</ele>
        <time>2026-01-19T14:48:12Z</time>
      </trkpt>
      <trkpt lat="42.51456" lon="2.03209">
        <ele>1879.9</ele>
        <time>2026-01-19T14:48:13Z</time>
      </trkpt>
      <trkpt lat="42.51455" lon="2.0321">
        <ele>1879.9</ele>
        <time>2026-01-19T14:48:14Z</time>
      </trkpt>
      <trkpt lat="42.51454" lon="2.03211">
        <ele>1879.8</ele>
        <time>2026-01-19T14:48:15Z</time>
      </trkpt>
      <trkpt lat="42.51453" lon="2.03212">
        <ele>1879.7</ele>
        <time>2026-01-19T14:48:16Z</time>
      </trkpt>
      <trkpt lat="42.51452" lon="2.03213">
        <ele>1879.6</ele>
        <time>2026-01-19T14:48:17Z</time>
      </trkpt>
      <trkpt lat="42.51451" lon="2.03214">
        <ele>1879.6</ele>
        <time>2026-01-19T14:48:18Z</time>
      </trkpt>
      <trkpt lat="42.51452" lon="2.03215">
        <ele>1879.5</ele>
        <time>2026-01-19T14:48:19Z</time>
      </trkpt>
      <trkpt lat="42.51452" lon="2.03215">
        <ele>1879.5</ele>
        <time>2026-01-19T14:48:20Z</time>
      </trkpt>
      <trkpt lat="42.51452" lon="2.03215">
        <ele>1879.4</ele>
        <time>2026-01-19T14:48:21Z</time>
      </trkpt>
      <trkpt lat="42.51453" lon="2.03214">
        <ele>1879.4</ele>
        <time>2026-01-19T14:48:22Z</time>
      </trkpt>
      <trkpt lat="42.51454" lon="2.03214">
        <ele>1879.3</ele>
        <time>2026-01-19T14:48:23Z</time>
      </trkpt>
      <trkpt lat="42.51454" lon="2.03215">
        <ele>1879.3</ele>
        <time>2026-01-19T14:48:24Z</time>
      </trkpt>
      <trkpt lat="42.51453" lon="2.03216">
        <ele>1879.2</ele>
        <time>2026-01-19T14:48:25Z</time>
      </trkpt>
      <trkpt lat="42.51452" lon="2.03217">
        <ele>1879.1</ele>
        <time>2026-01-19T14:48:26Z</time>
      </trkpt>
      <trkpt lat="42.51452" lon="2.03218">
        <ele>1879</ele>
        <time>2026-01-19T14:48:27Z</time>
      </trkpt>
      <trkpt lat="42.5145" lon="2.03218">
        <ele>1878.9</ele>
        <time>2026-01-19T14:48:28Z</time>
      </trkpt>
      <trkpt lat="42.51449" lon="2.03218">
        <ele>1878.7</ele>
        <time>2026-01-19T14:48:29Z</time>
      </trkpt>
      <trkpt lat="42.51447" lon="2.03219">
        <ele>1878.6</ele>
        <time>2026-01-19T14:48:30Z</time>
      </trkpt>
      <trkpt lat="42.51446" lon="2.0322">
        <ele>1878.5</ele>
        <time>2026-01-19T14:48:31Z</time>
      </trkpt>
      <trkpt lat="42.51445" lon="2.03221">
        <ele>1878.3</ele>
        <time>2026-01-19T14:48:32Z</time>
      </trkpt>
      <trkpt lat="42.51443" lon="2.03222">
        <ele>1878.1</ele>
        <time>2026-01-19T14:48:33Z</time>
      </trkpt>
      <trkpt lat="42.51442" lon="2.03222">
        <ele>1878</ele>
        <time>2026-01-19T14:48:34Z</time>
      </trkpt>
      <trkpt lat="42.5144" lon="2.03223">
        <ele>1877.8</ele>
        <time>2026-01-19T14:48:35Z</time>
      </trkpt>
      <trkpt lat="42.51439" lon="2.03223">
        <ele>1877.6</ele>
        <time>2026-01-19T14:48:36Z</time>
      </trkpt>
      <trkpt lat="42.51437" lon="2.03224">
        <ele>1877.4</ele>
        <time>2026-01-19T14:48:37Z</time>
      </trkpt>
      <trkpt lat="42.51435" lon="2.03224">
        <ele>1877.1</ele>
        <time>2026-01-19T14:48:38Z</time>
      </trkpt>
      <trkpt lat="42.51434" lon="2.03224">
        <ele>1877</ele>
        <time>2026-01-19T14:48:39Z</time>
      </trkpt>
      <trkpt lat="42.51433" lon="2.03224">
        <ele>1876.9</ele>
        <time>2026-01-19T14:48:40Z</time>
      </trkpt>
      <trkpt lat="42.51431" lon="2.03223">
        <ele>1876.7</ele>
        <time>2026-01-19T14:48:41Z</time>
      </trkpt>
      <trkpt lat="42.5143" lon="2.03223">
        <ele>1876.6</ele>
        <time>2026-01-19T14:48:42Z</time>
      </trkpt>
      <trkpt lat="42.51428" lon="2.03223">
        <ele>1876.4</ele>
        <time>2026-01-19T14:48:43Z</time>
      </trkpt>
      <trkpt lat="42.51427" lon="2.03223">
        <ele>1876.2</ele>
        <time>2026-01-19T14:48:44Z</time>
      </trkpt>
      <trkpt lat="42.51426" lon="2.03224">
        <ele>1876</ele>
        <time>2026-01-19T14:48:45Z</time>
      </trkpt>
      <trkpt lat="42.51424" lon="2.03224">
        <ele>1875.8</ele>
        <time>2026-01-19T14:48:46Z</time>
      </trkpt>
      <trkpt lat="42.51423" lon="2.03224">
        <ele>1875.7</ele>
        <time>2026-01-19T14:48:47Z</time>
      </trkpt>
      <trkpt lat="42.51421" lon="2.03225">
        <ele>1875.5</ele>
        <time>2026-01-19T14:48:48Z</time>
      </trkpt>
      <trkpt lat="42.5142" lon="2.03225">
        <ele>1875.4</ele>
        <time>2026-01-19T14:48:49Z</time>
      </trkpt>
      <trkpt lat="42.51419" lon="2.03226">
        <ele>1875.2</ele>
        <time>2026-01-19T14:48:50Z</time>
      </trkpt>
      <trkpt lat="42.51417" lon="2.03227">
        <ele>1875.1</ele>
        <time>2026-01-19T14:48:51Z</time>
      </trkpt>
      <trkpt lat="42.51416" lon="2.03228">
        <ele>1874.9</ele>
        <time>2026-01-19T14:48:52Z</time>
      </trkpt>
      <trkpt lat="42.51415" lon="2.03229">
        <ele>1874.7</ele>
        <time>2026-01-19T14:48:53Z</time>
      </trkpt>
      <trkpt lat="42.51414" lon="2.03231">
        <ele>1874.6</ele>
        <time>2026-01-19T14:48:54Z</time>
      </trkpt>
      <trkpt lat="42.51413" lon="2.03232">
        <ele>1874.5</ele>
        <time>2026-01-19T14:48:55Z</time>
      </trkpt>
      <trkpt lat="42.51412" lon="2.03233">
        <ele>1874.4</ele>
        <time>2026-01-19T14:48:56Z</time>
      </trkpt>
      <trkpt lat="42.51411" lon="2.03233">
        <ele>1874.3</ele>
        <time>2026-01-19T14:48:57Z</time>
      </trkpt>
      <trkpt lat="42.51409" lon="2.03233">
        <ele>1874.1</ele>
        <time>2026-01-19T14:48:58Z</time>
      </trkpt>
      <trkpt lat="42.51408" lon="2.03233">
        <ele>1874</ele>
        <time>2026-01-19T14:48:59Z</time>
      </trkpt>
      <trkpt lat="42.51407" lon="2.03233">
        <ele>1873.9</ele>
        <time>2026-01-19T14:49:00Z</time>
      </trkpt>
      <trkpt lat="42.51405" lon="2.03232">
        <ele>1873.8</ele>
        <time>2026-01-19T14:49:01Z</time>
      </trkpt>
      <trkpt lat="42.51404" lon="2.03232">
        <ele>1873.7</ele>
        <time>2026-01-19T14:49:02Z</time>
      </trkpt>
      <trkpt lat="42.51403" lon="2.03231">
        <ele>1873.5</ele>
        <time>2026-01-19T14:49:03Z</time>
      </trkpt>
      <trkpt lat="42.51401" lon="2.03231">
        <ele>1873.4</ele>
        <time>2026-01-19T14:49:04Z</time>
      </trkpt>
      <trkpt lat="42.514" lon="2.0323">
        <ele>1873.3</ele>
        <time>2026-01-19T14:49:05Z</time>
      </trkpt>
      <trkpt lat="42.51399" lon="2.0323">
        <ele>1873.2</ele>
        <time>2026-01-19T14:49:06Z</time>
      </trkpt>
      <trkpt lat="42.51397" lon="2.03229">
        <ele>1873</ele>
        <time>2026-01-19T14:49:07Z</time>
      </trkpt>
      <trkpt lat="42.51397" lon="2.03229">
        <ele>1872.9</ele>
        <time>2026-01-19T14:49:08Z</time>
      </trkpt>
      <trkpt lat="42.51396" lon="2.03228">
        <ele>1872.8</ele>
        <time>2026-01-19T14:49:09Z</time>
      </trkpt>
      <trkpt lat="42.51395" lon="2.03228">
        <ele>1872.7</ele>
        <time>2026-01-19T14:49:10Z</time>
      </trkpt>
      <trkpt lat="42.51394" lon="2.03228">
        <ele>1872.6</ele>
        <time>2026-01-19T14:49:11Z</time>
      </trkpt>
      <trkpt lat="42.51392" lon="2.03228">
        <ele>1872.5</ele>
        <time>2026-01-19T14:49:12Z</time>
      </trkpt>
      <trkpt lat="42.51391" lon="2.03228">
        <ele>1872.4</ele>
        <time>2026-01-19T14:49:13Z</time>
      </trkpt>
      <trkpt lat="42.5139" lon="2.03229">
        <ele>1872.3</ele>
        <time>2026-01-19T14:49:14Z</time>
      </trkpt>
      <trkpt lat="42.51389" lon="2.0323">
        <ele>1872.1</ele>
        <time>2026-01-19T14:49:15Z</time>
      </trkpt>
      <trkpt lat="42.51389" lon="2.0323">
        <ele>1872</ele>
        <time>2026-01-19T14:49:16Z</time>
      </trkpt>
      <trkpt lat="42.51388" lon="2.03232">
        <ele>1871.9</ele>
        <time>2026-01-19T14:49:17Z</time>
      </trkpt>
      <trkpt lat="42.51387" lon="2.03232">
        <ele>1871.8</ele>
        <time>2026-01-19T14:49:18Z</time>
      </trkpt>
      <trkpt lat="42.51386" lon="2.03233">
        <ele>1871.6</ele>
        <time>2026-01-19T14:49:19Z</time>
      </trkpt>
      <trkpt lat="42.51385" lon="2.03233">
        <ele>1871.5</ele>
        <time>2026-01-19T14:49:20Z</time>
      </trkpt>
      <trkpt lat="42.51384" lon="2.03233">
        <ele>1871.4</ele>
        <time>2026-01-19T14:49:21Z</time>
      </trkpt>
      <trkpt lat="42.51383" lon="2.03233">
        <ele>1871.3</ele>
        <time>2026-01-19T14:49:22Z</time>
      </trkpt>
      <trkpt lat="42.51382" lon="2.03234">
        <ele>1871.2</ele>
        <time>2026-01-19T14:49:23Z</time>
      </trkpt>
      <trkpt lat="42.51381" lon="2.03234">
        <ele>1871.1</ele>
        <time>2026-01-19T14:49:24Z</time>
      </trkpt>
      <trkpt lat="42.5138" lon="2.03235">
        <ele>1871</ele>
        <time>2026-01-19T14:49:25Z</time>
      </trkpt>
      <trkpt lat="42.51379" lon="2.03236">
        <ele>1870.9</ele>
        <time>2026-01-19T14:49:26Z</time>
      </trkpt>
      <trkpt lat="42.51379" lon="2.03236">
        <ele>1870.8</ele>
        <time>2026-01-19T14:49:27Z</time>
      </trkpt>
      <trkpt lat="42.51378" lon="2.03237">
        <ele>1870.7</ele>
        <time>2026-01-19T14:49:28Z</time>
      </trkpt>
      <trkpt lat="42.51377" lon="2.03238">
        <ele>1870.6</ele>
        <time>2026-01-19T14:49:29Z</time>
      </trkpt>
      <trkpt lat="42.51377" lon="2.03239">
        <ele>1870.5</ele>
        <time>2026-01-19T14:49:30Z</time>
      </trkpt>
      <trkpt lat="42.51376" lon="2.0324">
        <ele>1870.4</ele>
        <time>2026-01-19T14:49:31Z</time>
      </trkpt>
      <trkpt lat="42.51375" lon="2.0324">
        <ele>1870.3</ele>
        <time>2026-01-19T14:49:32Z</time>
      </trkpt>
      <trkpt lat="42.51374" lon="2.03241">
        <ele>1870.3</ele>
        <time>2026-01-19T14:49:33Z</time>
      </trkpt>
      <trkpt lat="42.51373" lon="2.03241">
        <ele>1870.2</ele>
        <time>2026-01-19T14:49:34Z</time>
      </trkpt>
      <trkpt lat="42.51373" lon="2.03242">
        <ele>1870.1</ele>
        <time>2026-01-19T14:49:35Z</time>
      </trkpt>
      <trkpt lat="42.51372" lon="2.03242">
        <ele>1870</ele>
        <time>2026-01-19T14:49:36Z</time>
      </trkpt>
      <trkpt lat="42.51371" lon="2.03242">
        <ele>1870</ele>
        <time>2026-01-19T14:49:37Z</time>
      </trkpt>
      <trkpt lat="42.5137" lon="2.03242">
        <ele>1869.9</ele>
        <time>2026-01-19T14:49:38Z</time>
      </trkpt>
      <trkpt lat="42.51369" lon="2.03241">
        <ele>1869.9</ele>
        <time>2026-01-19T14:49:39Z</time>
      </trkpt>
      <trkpt lat="42.51368" lon="2.03241">
        <ele>1869.8</ele>
        <time>2026-01-19T14:49:40Z</time>
      </trkpt>
      <trkpt lat="42.51367" lon="2.0324">
        <ele>1869.7</ele>
        <time>2026-01-19T14:49:41Z</time>
      </trkpt>
      <trkpt lat="42.51366" lon="2.03239">
        <ele>1869.7</ele>
        <time>2026-01-19T14:49:42Z</time>
      </trkpt>
      <trkpt lat="42.51365" lon="2.03238">
        <ele>1869.6</ele>
        <time>2026-01-19T14:49:43Z</time>
      </trkpt>
      <trkpt lat="42.51365" lon="2.03237">
        <ele>1869.6</ele>
        <time>2026-01-19T14:49:44Z</time>
      </trkpt>
      <trkpt lat="42.51364" lon="2.03235">
        <ele>1869.5</ele>
        <time>2026-01-19T14:49:45Z</time>
      </trkpt>
      <trkpt lat="42.51363" lon="2.03234">
        <ele>1869.5</ele>
        <time>2026-01-19T14:49:46Z</time>
      </trkpt>
      <trkpt lat="42.51363" lon="2.03233">
        <ele>1869.5</ele>
        <time>2026-01-19T14:49:47Z</time>
      </trkpt>
      <trkpt lat="42.51362" lon="2.0323">
        <ele>1869.4</ele>
        <time>2026-01-19T14:49:48Z</time>
      </trkpt>
      <trkpt lat="42.51362" lon="2.03229">
        <ele>1869.4</ele>
        <time>2026-01-19T14:49:49Z</time>
      </trkpt>
      <trkpt lat="42.51361" lon="2.03228">
        <ele>1869.3</ele>
        <time>2026-01-19T14:49:50Z</time>
      </trkpt>
      <trkpt lat="42.51361" lon="2.03226">
        <ele>1869.3</ele>
        <time>2026-01-19T14:49:51Z</time>
      </trkpt>
      <trkpt lat="42.5136" lon="2.03225">
        <ele>1869.2</ele>
        <time>2026-01-19T14:49:52Z</time>
      </trkpt>
      <trkpt lat="42.5136" lon="2.03223">
        <ele>1869.2</ele>
        <time>2026-01-19T14:49:53Z</time>
      </trkpt>
      <trkpt lat="42.51359" lon="2.03223">
        <ele>1869.1</ele>
        <time>2026-01-19T14:49:54Z</time>
      </trkpt>
      <trkpt lat="42.51359" lon="2.03222">
        <ele>1869.1</ele>
        <time>2026-01-19T14:49:55Z</time>
      </trkpt>
      <trkpt lat="42.51359" lon="2.03222">
        <ele>1869.1</ele>
        <time>2026-01-19T14:49:56Z</time>
      </trkpt>
      <trkpt lat="42.51358" lon="2.03221">
        <ele>1869.1</ele>
        <time>2026-01-19T14:49:57Z</time>
      </trkpt>
      <trkpt lat="42.51358" lon="2.0322">
        <ele>1869</ele>
        <time>2026-01-19T14:49:58Z</time>
      </trkpt>
      <trkpt lat="42.51357" lon="2.0322">
        <ele>1869</ele>
        <time>2026-01-19T14:49:59Z</time>
      </trkpt>
      <trkpt lat="42.51356" lon="2.03219">
        <ele>1868.9</ele>
        <time>2026-01-19T14:50:00Z</time>
      </trkpt>
      <trkpt lat="42.51356" lon="2.03217">
        <ele>1868.8</ele>
        <time>2026-01-19T14:50:01Z</time>
      </trkpt>
      <trkpt lat="42.51354" lon="2.03215">
        <ele>1868.6</ele>
        <time>2026-01-19T14:50:02Z</time>
      </trkpt>
      <trkpt lat="42.51353" lon="2.03214">
        <ele>1868.6</ele>
        <time>2026-01-19T14:50:03Z</time>
      </trkpt>
      <trkpt lat="42.51353" lon="2.03214">
        <ele>1868.5</ele>
        <time>2026-01-19T14:50:04Z</time>
      </trkpt>
      <trkpt lat="42.51351" lon="2.03214">
        <ele>1868.4</ele>
        <time>2026-01-19T14:50:05Z</time>
      </trkpt>
      <trkpt lat="42.5135" lon="2.03214">
        <ele>1868.3</ele>
        <time>2026-01-19T14:50:06Z</time>
      </trkpt>
      <trkpt lat="42.51349" lon="2.03214">
        <ele>1868.2</ele>
        <time>2026-01-19T14:50:07Z</time>
      </trkpt>
      <trkpt lat="42.51348" lon="2.03214">
        <ele>1868.1</ele>
        <time>2026-01-19T14:50:08Z</time>
      </trkpt>
      <trkpt lat="42.51347" lon="2.03215">
        <ele>1868</ele>
        <time>2026-01-19T14:50:09Z</time>
      </trkpt>
      <trkpt lat="42.51346" lon="2.03215">
        <ele>1867.9</ele>
        <time>2026-01-19T14:50:10Z</time>
      </trkpt>
      <trkpt lat="42.51345" lon="2.03217">
        <ele>1867.7</ele>
        <time>2026-01-19T14:50:11Z</time>
      </trkpt>
      <trkpt lat="42.51345" lon="2.03218">
        <ele>1867.6</ele>
        <time>2026-01-19T14:50:12Z</time>
      </trkpt>
      <trkpt lat="42.51344" lon="2.03219">
        <ele>1867.6</ele>
        <time>2026-01-19T14:50:13Z</time>
      </trkpt>
      <trkpt lat="42.51344" lon="2.0322">
        <ele>1867.6</ele>
        <time>2026-01-19T14:50:14Z</time>
      </trkpt>
      <trkpt lat="42.51344" lon="2.03223">
        <ele>1867.6</ele>
        <time>2026-01-19T14:50:15Z</time>
      </trkpt>
      <trkpt lat="42.51344" lon="2.03224">
        <ele>1867.5</ele>
        <time>2026-01-19T14:50:16Z</time>
      </trkpt>
      <trkpt lat="42.51344" lon="2.03225">
        <ele>1867.5</ele>
        <time>2026-01-19T14:50:17Z</time>
      </trkpt>
      <trkpt lat="42.51345" lon="2.03226">
        <ele>1867.5</ele>
        <time>2026-01-19T14:50:18Z</time>
      </trkpt>
      <trkpt lat="42.51345" lon="2.03226">
        <ele>1867.5</ele>
        <time>2026-01-19T14:50:19Z</time>
      </trkpt>
      <trkpt lat="42.51345" lon="2.03226">
        <ele>1867.5</ele>
        <time>2026-01-19T14:50:20Z</time>
      </trkpt>
      <trkpt lat="42.51346" lon="2.03226">
        <ele>1867.5</ele>
        <time>2026-01-19T14:50:21Z</time>
      </trkpt>
      <trkpt lat="42.51346" lon="2.03226">
        <ele>1867.5</ele>
        <time>2026-01-19T14:50:22Z</time>
      </trkpt>
      <trkpt lat="42.51346" lon="2.03226">
        <ele>1867.5</ele>
        <time>2026-01-19T14:50:23Z</time>
      </trkpt>
      <trkpt lat="42.51346" lon="2.03226">
        <ele>1867.5</ele>
        <time>2026-01-19T14:50:24Z</time>
      </trkpt>
      <trkpt lat="42.51346" lon="2.03226">
        <ele>1867.5</ele>
        <time>2026-01-19T14:50:25Z</time>
      </trkpt>
      <trkpt lat="42.51346" lon="2.03227">
        <ele>1867.4</ele>
        <time>2026-01-19T14:50:26Z</time>
      </trkpt>
      <trkpt lat="42.51347" lon="2.03229">
        <ele>1867.4</ele>
        <time>2026-01-19T14:50:27Z</time>
      </trkpt>
      <trkpt lat="42.51348" lon="2.03231">
        <ele>1867.4</ele>
        <time>2026-01-19T14:50:28Z</time>
      </trkpt>
      <trkpt lat="42.51348" lon="2.03232">
        <ele>1867.4</ele>
        <time>2026-01-19T14:50:29Z</time>
      </trkpt>
      <trkpt lat="42.51349" lon="2.03234">
        <ele>1867.3</ele>
        <time>2026-01-19T14:50:30Z</time>
      </trkpt>
      <trkpt lat="42.51351" lon="2.03235">
        <ele>1867.3</ele>
        <time>2026-01-19T14:50:31Z</time>
      </trkpt>
      <trkpt lat="42.51352" lon="2.03236">
        <ele>1867.3</ele>
        <time>2026-01-19T14:50:32Z</time>
      </trkpt>
      <trkpt lat="42.51353" lon="2.03239">
        <ele>1867.2</ele>
        <time>2026-01-19T14:50:33Z</time>
      </trkpt>
      <trkpt lat="42.51354" lon="2.03239">
        <ele>1867.2</ele>
        <time>2026-01-19T14:50:34Z</time>
      </trkpt>
      <trkpt lat="42.51355" lon="2.0324">
        <ele>1867.2</ele>
        <time>2026-01-19T14:50:35Z</time>
      </trkpt>
      <trkpt lat="42.51356" lon="2.03242">
        <ele>1867.2</ele>
        <time>2026-01-19T14:50:36Z</time>
      </trkpt>
      <trkpt lat="42.51357" lon="2.03243">
        <ele>1867.2</ele>
        <time>2026-01-19T14:50:37Z</time>
      </trkpt>
      <trkpt lat="42.51357" lon="2.03244">
        <ele>1867.2</ele>
        <time>2026-01-19T14:50:38Z</time>
      </trkpt>
      <trkpt lat="42.51358" lon="2.03245">
        <ele>1867.1</ele>
        <time>2026-01-19T14:50:39Z</time>
      </trkpt>
      <trkpt lat="42.51359" lon="2.03246">
        <ele>1867.1</ele>
        <time>2026-01-19T14:50:40Z</time>
      </trkpt>
      <trkpt lat="42.51359" lon="2.03247">
        <ele>1867.1</ele>
        <time>2026-01-19T14:50:41Z</time>
      </trkpt>
      <trkpt lat="42.5136" lon="2.03248">
        <ele>1867.1</ele>
        <time>2026-01-19T14:50:42Z</time>
      </trkpt>
      <trkpt lat="42.51361" lon="2.03249">
        <ele>1867.1</ele>
        <time>2026-01-19T14:50:43Z</time>
      </trkpt>
      <trkpt lat="42.51361" lon="2.0325">
        <ele>1867.1</ele>
        <time>2026-01-19T14:50:44Z</time>
      </trkpt>
      <trkpt lat="42.51362" lon="2.03252">
        <ele>1867.1</ele>
        <time>2026-01-19T14:50:45Z</time>
      </trkpt>
      <trkpt lat="42.51362" lon="2.03252">
        <ele>1867</ele>
        <time>2026-01-19T14:50:46Z</time>
      </trkpt>
      <trkpt lat="42.51363" lon="2.03254">
        <ele>1867</ele>
        <time>2026-01-19T14:50:47Z</time>
      </trkpt>
      <trkpt lat="42.51364" lon="2.03256">
        <ele>1867</ele>
        <time>2026-01-19T14:50:48Z</time>
      </trkpt>
      <trkpt lat="42.51365" lon="2.03257">
        <ele>1867</ele>
        <time>2026-01-19T14:50:49Z</time>
      </trkpt>
      <trkpt lat="42.51365" lon="2.03258">
        <ele>1866.9</ele>
        <time>2026-01-19T14:50:50Z</time>
      </trkpt>
      <trkpt lat="42.51366" lon="2.03259">
        <ele>1866.9</ele>
        <time>2026-01-19T14:50:51Z</time>
      </trkpt>
      <trkpt lat="42.51366" lon="2.0326">
        <ele>1866.9</ele>
        <time>2026-01-19T14:50:52Z</time>
      </trkpt>
      <trkpt lat="42.51367" lon="2.03261">
        <ele>1866.9</ele>
        <time>2026-01-19T14:50:53Z</time>
      </trkpt>
      <trkpt lat="42.51367" lon="2.03262">
        <ele>1866.8</ele>
        <time>2026-01-19T14:50:54Z</time>
      </trkpt>
      <trkpt lat="42.51367" lon="2.03263">
        <ele>1866.8</ele>
        <time>2026-01-19T14:50:55Z</time>
      </trkpt>
      <trkpt lat="42.51368" lon="2.03264">
        <ele>1866.8</ele>
        <time>2026-01-19T14:50:56Z</time>
      </trkpt>
      <trkpt lat="42.51369" lon="2.03264">
        <ele>1866.8</ele>
        <time>2026-01-19T14:50:57Z</time>
      </trkpt>
      <trkpt lat="42.5137" lon="2.03264">
        <ele>1866.7</ele>
        <time>2026-01-19T14:50:58Z</time>
      </trkpt>
      <trkpt lat="42.51371" lon="2.03264">
        <ele>1866.7</ele>
        <time>2026-01-19T14:50:59Z</time>
      </trkpt>
      <trkpt lat="42.51372" lon="2.03263">
        <ele>1866.6</ele>
        <time>2026-01-19T14:51:00Z</time>
      </trkpt>
      <trkpt lat="42.51373" lon="2.03263">
        <ele>1866.6</ele>
        <time>2026-01-19T14:51:01Z</time>
      </trkpt>
      <trkpt lat="42.51373" lon="2.03262">
        <ele>1866.6</ele>
        <time>2026-01-19T14:51:02Z</time>
      </trkpt>
      <trkpt lat="42.51373" lon="2.03262">
        <ele>1866.6</ele>
        <time>2026-01-19T14:51:03Z</time>
      </trkpt>
      <trkpt lat="42.51373" lon="2.03261">
        <ele>1866.5</ele>
        <time>2026-01-19T14:51:04Z</time>
      </trkpt>
      <trkpt lat="42.51373" lon="2.0326">
        <ele>1866.5</ele>
        <time>2026-01-19T14:51:05Z</time>
      </trkpt>
      <trkpt lat="42.51373" lon="2.0326">
        <ele>1866.5</ele>
        <time>2026-01-19T14:51:06Z</time>
      </trkpt>
      <trkpt lat="42.51372" lon="2.0326">
        <ele>1866.4</ele>
        <time>2026-01-19T14:51:07Z</time>
      </trkpt>
      <trkpt lat="42.51372" lon="2.0326">
        <ele>1866.4</ele>
        <time>2026-01-19T14:51:08Z</time>
      </trkpt>
      <trkpt lat="42.51372" lon="2.0326">
        <ele>1866.4</ele>
        <time>2026-01-19T14:51:09Z</time>
      </trkpt>
      <trkpt lat="42.51372" lon="2.0326">
        <ele>1866.4</ele>
        <time>2026-01-19T14:51:10Z</time>
      </trkpt>
      <trkpt lat="42.51372" lon="2.0326">
        <ele>1866.4</ele>
        <time>2026-01-19T14:51:11Z</time>
      </trkpt>
      <trkpt lat="42.51372" lon="2.0326">
        <ele>1866.4</ele>
        <time>2026-01-19T14:51:12Z</time>
      </trkpt>
      <trkpt lat="42.51372" lon="2.03259">
        <ele>1866.4</ele>
        <time>2026-01-19T14:51:13Z</time>
      </trkpt>
      <trkpt lat="42.51372" lon="2.03259">
        <ele>1866.4</ele>
        <time>2026-01-19T14:51:14Z</time>
      </trkpt>
      <trkpt lat="42.51372" lon="2.03259">
        <ele>1866.4</ele>
        <time>2026-01-19T14:51:15Z</time>
      </trkpt>
      <trkpt lat="42.51372" lon="2.03259">
        <ele>1866.4</ele>
        <time>2026-01-19T14:51:16Z</time>
      </trkpt>
      <trkpt lat="42.51372" lon="2.03259">
        <ele>1866.4</ele>
        <time>2026-01-19T14:51:17Z</time>
      </trkpt>
      <trkpt lat="42.51372" lon="2.03259">
        <ele>1866.4</ele>
        <time>2026-01-19T14:51:18Z</time>
      </trkpt>
      <trkpt lat="42.51372" lon="2.03259">
        <ele>1866.4</ele>
        <time>2026-01-19T14:51:19Z</time>
      </trkpt>
      <trkpt lat="42.51372" lon="2.03259">
        <ele>1866.4</ele>
        <time>2026-01-19T14:51:20Z</time>
      </trkpt>
      <trkpt lat="42.51372" lon="2.03259">
        <ele>1866.4</ele>
        <time>2026-01-19T14:51:21Z</time>
      </trkpt>
      <trkpt lat="42.51372" lon="2.03259">
        <ele>1866.4</ele>
        <time>2026-01-19T14:51:22Z</time>
      </trkpt>
      <trkpt lat="42.51372" lon="2.03259">
        <ele>1866.4</ele>
        <time>2026-01-19T14:51:23Z</time>
      </trkpt>
      <trkpt lat="42.51372" lon="2.03259">
        <ele>1866.4</ele>
        <time>2026-01-19T14:51:24Z</time>
      </trkpt>
      <trkpt lat="42.51372" lon="2.03259">
        <ele>1866.4</ele>
        <time>2026-01-19T14:51:25Z</time>
      </trkpt>
      <trkpt lat="42.51372" lon="2.03259">
        <ele>1866.4</ele>
        <time>2026-01-19T14:51:26Z</time>
      </trkpt>
      <trkpt lat="42.51372" lon="2.03259">
        <ele>1866.4</ele>
        <time>2026-01-19T14:51:28Z</time>
      </trkpt>
      <trkpt lat="42.51372" lon="2.0326">
        <ele>1866.3</ele>
        <time>2026-01-19T14:51:29Z</time>
      </trkpt>
      <trkpt lat="42.51371" lon="2.03261">
        <ele>1866.2</ele>
        <time>2026-01-19T14:51:30Z</time>
      </trkpt>
      <trkpt lat="42.51371" lon="2.03261">
        <ele>1866.2</ele>
        <time>2026-01-19T14:51:31Z</time>
      </trkpt>
      <trkpt lat="42.5137" lon="2.0326">
        <ele>1866.1</ele>
        <time>2026-01-19T14:51:32Z</time>
      </trkpt>
      <trkpt lat="42.51369" lon="2.0326">
        <ele>1866</ele>
        <time>2026-01-19T14:51:33Z</time>
      </trkpt>
      <trkpt lat="42.51368" lon="2.0326">
        <ele>1866</ele>
        <time>2026-01-19T14:51:34Z</time>
      </trkpt>
      <trkpt lat="42.51368" lon="2.0326">
        <ele>1866</ele>
        <time>2026-01-19T14:51:35Z</time>
      </trkpt>
      <trkpt lat="42.51367" lon="2.03259">
        <ele>1865.8</ele>
        <time>2026-01-19T14:51:36Z</time>
      </trkpt>
      <trkpt lat="42.51366" lon="2.03258">
        <ele>1865.7</ele>
        <time>2026-01-19T14:51:37Z</time>
      </trkpt>
      <trkpt lat="42.51365" lon="2.03258">
        <ele>1865.6</ele>
        <time>2026-01-19T14:51:38Z</time>
      </trkpt>
      <trkpt lat="42.51364" lon="2.03258">
        <ele>1865.6</ele>
        <time>2026-01-19T14:51:39Z</time>
      </trkpt>
      <trkpt lat="42.51363" lon="2.03258">
        <ele>1865.5</ele>
        <time>2026-01-19T14:51:40Z</time>
      </trkpt>
      <trkpt lat="42.51363" lon="2.03258">
        <ele>1865.4</ele>
        <time>2026-01-19T14:51:41Z</time>
      </trkpt>
      <trkpt lat="42.51361" lon="2.03258">
        <ele>1865.3</ele>
        <time>2026-01-19T14:51:42Z</time>
      </trkpt>
      <trkpt lat="42.5136" lon="2.03259">
        <ele>1865.1</ele>
        <time>2026-01-19T14:51:43Z</time>
      </trkpt>
      <trkpt lat="42.51358" lon="2.03259">
        <ele>1865</ele>
        <time>2026-01-19T14:51:44Z</time>
      </trkpt>
      <trkpt lat="42.51357" lon="2.03258">
        <ele>1864.9</ele>
        <time>2026-01-19T14:51:45Z</time>
      </trkpt>
      <trkpt lat="42.51356" lon="2.03258">
        <ele>1864.8</ele>
        <time>2026-01-19T14:51:46Z</time>
      </trkpt>
      <trkpt lat="42.51355" lon="2.03257">
        <ele>1864.7</ele>
        <time>2026-01-19T14:51:47Z</time>
      </trkpt>
      <trkpt lat="42.51354" lon="2.03256">
        <ele>1864.6</ele>
        <time>2026-01-19T14:51:48Z</time>
      </trkpt>
      <trkpt lat="42.51354" lon="2.03256">
        <ele>1864.5</ele>
        <time>2026-01-19T14:51:49Z</time>
      </trkpt>
      <trkpt lat="42.51353" lon="2.03255">
        <ele>1864.4</ele>
        <time>2026-01-19T14:51:50Z</time>
      </trkpt>
      <trkpt lat="42.51352" lon="2.03254">
        <ele>1864.3</ele>
        <time>2026-01-19T14:51:51Z</time>
      </trkpt>
      <trkpt lat="42.5135" lon="2.03254">
        <ele>1864.2</ele>
        <time>2026-01-19T14:51:52Z</time>
      </trkpt>
      <trkpt lat="42.51349" lon="2.03254">
        <ele>1864.1</ele>
        <time>2026-01-19T14:51:53Z</time>
      </trkpt>
      <trkpt lat="42.51348" lon="2.03253">
        <ele>1864</ele>
        <time>2026-01-19T14:51:54Z</time>
      </trkpt>
      <trkpt lat="42.51347" lon="2.03253">
        <ele>1863.9</ele>
        <time>2026-01-19T14:51:55Z</time>
      </trkpt>
      <trkpt lat="42.51345" lon="2.03253">
        <ele>1863.8</ele>
        <time>2026-01-19T14:51:56Z</time>
      </trkpt>
      <trkpt lat="42.51344" lon="2.03252">
        <ele>1863.7</ele>
        <time>2026-01-19T14:51:57Z</time>
      </trkpt>
      <trkpt lat="42.51343" lon="2.03252">
        <ele>1863.6</ele>
        <time>2026-01-19T14:51:58Z</time>
      </trkpt>
      <trkpt lat="42.51342" lon="2.03252">
        <ele>1863.5</ele>
        <time>2026-01-19T14:51:59Z</time>
      </trkpt>
      <trkpt lat="42.51341" lon="2.03251">
        <ele>1863.4</ele>
        <time>2026-01-19T14:52:00Z</time>
      </trkpt>
      <trkpt lat="42.5134" lon="2.03251">
        <ele>1863.3</ele>
        <time>2026-01-19T14:52:01Z</time>
      </trkpt>
      <trkpt lat="42.51339" lon="2.0325">
        <ele>1863.2</ele>
        <time>2026-01-19T14:52:02Z</time>
      </trkpt>
      <trkpt lat="42.51338" lon="2.03249">
        <ele>1863.1</ele>
        <time>2026-01-19T14:52:03Z</time>
      </trkpt>
      <trkpt lat="42.51337" lon="2.03249">
        <ele>1863</ele>
        <time>2026-01-19T14:52:04Z</time>
      </trkpt>
      <trkpt lat="42.51336" lon="2.03248">
        <ele>1862.9</ele>
        <time>2026-01-19T14:52:05Z</time>
      </trkpt>
      <trkpt lat="42.51335" lon="2.03248">
        <ele>1862.8</ele>
        <time>2026-01-19T14:52:06Z</time>
      </trkpt>
      <trkpt lat="42.51334" lon="2.03248">
        <ele>1862.7</ele>
        <time>2026-01-19T14:52:07Z</time>
      </trkpt>
      <trkpt lat="42.51333" lon="2.03247">
        <ele>1862.6</ele>
        <time>2026-01-19T14:52:08Z</time>
      </trkpt>
      <trkpt lat="42.51332" lon="2.03247">
        <ele>1862.5</ele>
        <time>2026-01-19T14:52:09Z</time>
      </trkpt>
      <trkpt lat="42.5133" lon="2.03246">
        <ele>1862.3</ele>
        <time>2026-01-19T14:52:10Z</time>
      </trkpt>
      <trkpt lat="42.51329" lon="2.03246">
        <ele>1862.2</ele>
        <time>2026-01-19T14:52:11Z</time>
      </trkpt>
      <trkpt lat="42.51328" lon="2.03245">
        <ele>1862</ele>
        <time>2026-01-19T14:52:12Z</time>
      </trkpt>
      <trkpt lat="42.51326" lon="2.03245">
        <ele>1861.9</ele>
        <time>2026-01-19T14:52:13Z</time>
      </trkpt>
      <trkpt lat="42.51325" lon="2.03244">
        <ele>1861.7</ele>
        <time>2026-01-19T14:52:14Z</time>
      </trkpt>
      <trkpt lat="42.51325" lon="2.03244">
        <ele>1861.6</ele>
        <time>2026-01-19T14:52:15Z</time>
      </trkpt>
      <trkpt lat="42.51323" lon="2.03243">
        <ele>1861.5</ele>
        <time>2026-01-19T14:52:16Z</time>
      </trkpt>
      <trkpt lat="42.51322" lon="2.03244">
        <ele>1861.3</ele>
        <time>2026-01-19T14:52:17Z</time>
      </trkpt>
      <trkpt lat="42.51321" lon="2.03245">
        <ele>1861.2</ele>
        <time>2026-01-19T14:52:18Z</time>
      </trkpt>
      <trkpt lat="42.51321" lon="2.03245">
        <ele>1861</ele>
        <time>2026-01-19T14:52:19Z</time>
      </trkpt>
      <trkpt lat="42.5132" lon="2.03246">
        <ele>1860.9</ele>
        <time>2026-01-19T14:52:20Z</time>
      </trkpt>
      <trkpt lat="42.51319" lon="2.03247">
        <ele>1860.7</ele>
        <time>2026-01-19T14:52:21Z</time>
      </trkpt>
      <trkpt lat="42.51318" lon="2.03248">
        <ele>1860.6</ele>
        <time>2026-01-19T14:52:22Z</time>
      </trkpt>
      <trkpt lat="42.51318" lon="2.0325">
        <ele>1860.4</ele>
        <time>2026-01-19T14:52:23Z</time>
      </trkpt>
      <trkpt lat="42.51317" lon="2.03251">
        <ele>1860.3</ele>
        <time>2026-01-19T14:52:24Z</time>
      </trkpt>
      <trkpt lat="42.51317" lon="2.03253">
        <ele>1860</ele>
        <time>2026-01-19T14:52:25Z</time>
      </trkpt>
      <trkpt lat="42.51316" lon="2.03254">
        <ele>1859.9</ele>
        <time>2026-01-19T14:52:26Z</time>
      </trkpt>
      <trkpt lat="42.51316" lon="2.03255">
        <ele>1859.8</ele>
        <time>2026-01-19T14:52:27Z</time>
      </trkpt>
      <trkpt lat="42.51315" lon="2.03258">
        <ele>1859.4</ele>
        <time>2026-01-19T14:52:28Z</time>
      </trkpt>
      <trkpt lat="42.51315" lon="2.03259">
        <ele>1859.3</ele>
        <time>2026-01-19T14:52:29Z</time>
      </trkpt>
      <trkpt lat="42.51314" lon="2.0326">
        <ele>1859.2</ele>
        <time>2026-01-19T14:52:30Z</time>
      </trkpt>
      <trkpt lat="42.51313" lon="2.03263">
        <ele>1858.9</ele>
        <time>2026-01-19T14:52:31Z</time>
      </trkpt>
      <trkpt lat="42.51313" lon="2.03264">
        <ele>1858.8</ele>
        <time>2026-01-19T14:52:32Z</time>
      </trkpt>
      <trkpt lat="42.51313" lon="2.03265">
        <ele>1858.6</ele>
        <time>2026-01-19T14:52:33Z</time>
      </trkpt>
      <trkpt lat="42.51312" lon="2.03267">
        <ele>1858.3</ele>
        <time>2026-01-19T14:52:34Z</time>
      </trkpt>
      <trkpt lat="42.51311" lon="2.03268">
        <ele>1858.2</ele>
        <time>2026-01-19T14:52:35Z</time>
      </trkpt>
      <trkpt lat="42.51311" lon="2.03269">
        <ele>1858.1</ele>
        <time>2026-01-19T14:52:36Z</time>
      </trkpt>
      <trkpt lat="42.5131" lon="2.03271">
        <ele>1858</ele>
        <time>2026-01-19T14:52:37Z</time>
      </trkpt>
      <trkpt lat="42.51309" lon="2.03271">
        <ele>1857.8</ele>
        <time>2026-01-19T14:52:38Z</time>
      </trkpt>
      <trkpt lat="42.51308" lon="2.03272">
        <ele>1857.6</ele>
        <time>2026-01-19T14:52:39Z</time>
      </trkpt>
      <trkpt lat="42.51307" lon="2.03272">
        <ele>1857.4</ele>
        <time>2026-01-19T14:52:40Z</time>
      </trkpt>
      <trkpt lat="42.51305" lon="2.03273">
        <ele>1857.3</ele>
        <time>2026-01-19T14:52:41Z</time>
      </trkpt>
      <trkpt lat="42.51302" lon="2.03273">
        <ele>1857</ele>
        <time>2026-01-19T14:52:42Z</time>
      </trkpt>
      <trkpt lat="42.51301" lon="2.03273">
        <ele>1856.9</ele>
        <time>2026-01-19T14:52:43Z</time>
      </trkpt>
      <trkpt lat="42.51299" lon="2.03273">
        <ele>1856.7</ele>
        <time>2026-01-19T14:52:44Z</time>
      </trkpt>
      <trkpt lat="42.51298" lon="2.03273">
        <ele>1856.5</ele>
        <time>2026-01-19T14:52:45Z</time>
      </trkpt>
      <trkpt lat="42.51296" lon="2.03272">
        <ele>1856.3</ele>
        <time>2026-01-19T14:52:46Z</time>
      </trkpt>
      <trkpt lat="42.51294" lon="2.03272">
        <ele>1856.2</ele>
        <time>2026-01-19T14:52:47Z</time>
      </trkpt>
      <trkpt lat="42.51293" lon="2.03271">
        <ele>1856.1</ele>
        <time>2026-01-19T14:52:48Z</time>
      </trkpt>
      <trkpt lat="42.51292" lon="2.0327">
        <ele>1856</ele>
        <time>2026-01-19T14:52:49Z</time>
      </trkpt>
      <trkpt lat="42.5129" lon="2.03268">
        <ele>1855.8</ele>
        <time>2026-01-19T14:52:50Z</time>
      </trkpt>
      <trkpt lat="42.5129" lon="2.03267">
        <ele>1855.7</ele>
        <time>2026-01-19T14:52:52Z</time>
      </trkpt>
      <trkpt lat="42.51289" lon="2.03266">
        <ele>1855.6</ele>
        <time>2026-01-19T14:52:53Z</time>
      </trkpt>
      <trkpt lat="42.51288" lon="2.03265">
        <ele>1855.5</ele>
        <time>2026-01-19T14:52:54Z</time>
      </trkpt>
      <trkpt lat="42.51288" lon="2.03265">
        <ele>1855.5</ele>
        <time>2026-01-19T14:52:55Z</time>
      </trkpt>
      <trkpt lat="42.51287" lon="2.03265">
        <ele>1855.5</ele>
        <time>2026-01-19T14:52:56Z</time>
      </trkpt>
      <trkpt lat="42.51288" lon="2.03267">
        <ele>1855.3</ele>
        <time>2026-01-19T14:52:57Z</time>
      </trkpt>
      <trkpt lat="42.51289" lon="2.03268">
        <ele>1855.2</ele>
        <time>2026-01-19T14:52:58Z</time>
      </trkpt>
      <trkpt lat="42.51289" lon="2.03268">
        <ele>1855.2</ele>
        <time>2026-01-19T14:52:59Z</time>
      </trkpt>
      <trkpt lat="42.5129" lon="2.03269">
        <ele>1855.1</ele>
        <time>2026-01-19T14:53:00Z</time>
      </trkpt>
      <trkpt lat="42.5129" lon="2.03269">
        <ele>1855.1</ele>
        <time>2026-01-19T14:53:01Z</time>
      </trkpt>
      <trkpt lat="42.5129" lon="2.03269">
        <ele>1855.1</ele>
        <time>2026-01-19T14:53:02Z</time>
      </trkpt>
      <trkpt lat="42.51289" lon="2.03269">
        <ele>1855</ele>
        <time>2026-01-19T14:53:03Z</time>
      </trkpt>
      <trkpt lat="42.51288" lon="2.0327">
        <ele>1855</ele>
        <time>2026-01-19T14:53:04Z</time>
      </trkpt>
      <trkpt lat="42.51288" lon="2.03271">
        <ele>1854.9</ele>
        <time>2026-01-19T14:53:05Z</time>
      </trkpt>
      <trkpt lat="42.51287" lon="2.03271">
        <ele>1854.8</ele>
        <time>2026-01-19T14:53:06Z</time>
      </trkpt>
      <trkpt lat="42.51286" lon="2.0327">
        <ele>1854.7</ele>
        <time>2026-01-19T14:53:07Z</time>
      </trkpt>
      <trkpt lat="42.51285" lon="2.03269">
        <ele>1854.5</ele>
        <time>2026-01-19T14:53:08Z</time>
      </trkpt>
      <trkpt lat="42.51284" lon="2.03269">
        <ele>1854.4</ele>
        <time>2026-01-19T14:53:09Z</time>
      </trkpt>
      <trkpt lat="42.51283" lon="2.03268">
        <ele>1854.3</ele>
        <time>2026-01-19T14:53:10Z</time>
      </trkpt>
      <trkpt lat="42.51282" lon="2.03268">
        <ele>1854.3</ele>
        <time>2026-01-19T14:53:11Z</time>
      </trkpt>
      <trkpt lat="42.51282" lon="2.03269">
        <ele>1854.2</ele>
        <time>2026-01-19T14:53:12Z</time>
      </trkpt>
      <trkpt lat="42.51281" lon="2.03269">
        <ele>1854.1</ele>
        <time>2026-01-19T14:53:13Z</time>
      </trkpt>
      <trkpt lat="42.5128" lon="2.03269">
        <ele>1854</ele>
        <time>2026-01-19T14:53:14Z</time>
      </trkpt>
      <trkpt lat="42.5128" lon="2.03269">
        <ele>1853.9</ele>
        <time>2026-01-19T14:53:15Z</time>
      </trkpt>
      <trkpt lat="42.51279" lon="2.03269">
        <ele>1853.8</ele>
        <time>2026-01-19T14:53:16Z</time>
      </trkpt>
      <trkpt lat="42.51278" lon="2.03269">
        <ele>1853.7</ele>
        <time>2026-01-19T14:53:17Z</time>
      </trkpt>
      <trkpt lat="42.51277" lon="2.0327">
        <ele>1853.5</ele>
        <time>2026-01-19T14:53:18Z</time>
      </trkpt>
      <trkpt lat="42.51276" lon="2.03271">
        <ele>1853.4</ele>
        <time>2026-01-19T14:53:19Z</time>
      </trkpt>
      <trkpt lat="42.51275" lon="2.03272">
        <ele>1853.2</ele>
        <time>2026-01-19T14:53:20Z</time>
      </trkpt>
      <trkpt lat="42.51274" lon="2.03273">
        <ele>1853.1</ele>
        <time>2026-01-19T14:53:21Z</time>
      </trkpt>
      <trkpt lat="42.51273" lon="2.03274">
        <ele>1852.9</ele>
        <time>2026-01-19T14:53:22Z</time>
      </trkpt>
      <trkpt lat="42.51272" lon="2.03275">
        <ele>1852.8</ele>
        <time>2026-01-19T14:53:23Z</time>
      </trkpt>
      <trkpt lat="42.51272" lon="2.03276">
        <ele>1852.6</ele>
        <time>2026-01-19T14:53:24Z</time>
      </trkpt>
      <trkpt lat="42.51271" lon="2.03277">
        <ele>1852.5</ele>
        <time>2026-01-19T14:53:25Z</time>
      </trkpt>
      <trkpt lat="42.5127" lon="2.03278">
        <ele>1852.4</ele>
        <time>2026-01-19T14:53:26Z</time>
      </trkpt>
      <trkpt lat="42.5127" lon="2.03279">
        <ele>1852.2</ele>
        <time>2026-01-19T14:53:27Z</time>
      </trkpt>
      <trkpt lat="42.51269" lon="2.0328">
        <ele>1852.1</ele>
        <time>2026-01-19T14:53:28Z</time>
      </trkpt>
      <trkpt lat="42.51268" lon="2.03281">
        <ele>1852</ele>
        <time>2026-01-19T14:53:29Z</time>
      </trkpt>
      <trkpt lat="42.51268" lon="2.03282">
        <ele>1851.8</ele>
        <time>2026-01-19T14:53:30Z</time>
      </trkpt>
      <trkpt lat="42.51267" lon="2.03283">
        <ele>1851.7</ele>
        <time>2026-01-19T14:53:31Z</time>
      </trkpt>
      <trkpt lat="42.51266" lon="2.03284">
        <ele>1851.5</ele>
        <time>2026-01-19T14:53:32Z</time>
      </trkpt>
      <trkpt lat="42.51266" lon="2.03285">
        <ele>1851.4</ele>
        <time>2026-01-19T14:53:33Z</time>
      </trkpt>
      <trkpt lat="42.51265" lon="2.03286">
        <ele>1851.3</ele>
        <time>2026-01-19T14:53:34Z</time>
      </trkpt>
      <trkpt lat="42.51264" lon="2.03287">
        <ele>1851.2</ele>
        <time>2026-01-19T14:53:35Z</time>
      </trkpt>
      <trkpt lat="42.51264" lon="2.03287">
        <ele>1851.2</ele>
        <time>2026-01-19T14:53:36Z</time>
      </trkpt>
      <trkpt lat="42.51264" lon="2.03287">
        <ele>1851.1</ele>
        <time>2026-01-19T14:53:37Z</time>
      </trkpt>
      <trkpt lat="42.51264" lon="2.03287">
        <ele>1851.1</ele>
        <time>2026-01-19T14:53:38Z</time>
      </trkpt>
      <trkpt lat="42.51264" lon="2.03287">
        <ele>1851.1</ele>
        <time>2026-01-19T14:53:39Z</time>
      </trkpt>
      <trkpt lat="42.51263" lon="2.03287">
        <ele>1850.9</ele>
        <time>2026-01-19T14:53:40Z</time>
      </trkpt>
      <trkpt lat="42.51262" lon="2.03288">
        <ele>1850.8</ele>
        <time>2026-01-19T14:53:41Z</time>
      </trkpt>
      <trkpt lat="42.51262" lon="2.0329">
        <ele>1850.7</ele>
        <time>2026-01-19T14:53:42Z</time>
      </trkpt>
      <trkpt lat="42.51262" lon="2.03291">
        <ele>1850.6</ele>
        <time>2026-01-19T14:53:43Z</time>
      </trkpt>
      <trkpt lat="42.51262" lon="2.03293">
        <ele>1850.4</ele>
        <time>2026-01-19T14:53:44Z</time>
      </trkpt>
      <trkpt lat="42.51262" lon="2.03294">
        <ele>1850.2</ele>
        <time>2026-01-19T14:53:45Z</time>
      </trkpt>
      <trkpt lat="42.51262" lon="2.03295">
        <ele>1850.1</ele>
        <time>2026-01-19T14:53:46Z</time>
      </trkpt>
      <trkpt lat="42.51262" lon="2.03297">
        <ele>1850</ele>
        <time>2026-01-19T14:53:47Z</time>
      </trkpt>
      <trkpt lat="42.51262" lon="2.03298">
        <ele>1849.9</ele>
        <time>2026-01-19T14:53:48Z</time>
      </trkpt>
      <trkpt lat="42.51262" lon="2.033">
        <ele>1849.7</ele>
        <time>2026-01-19T14:53:49Z</time>
      </trkpt>
      <trkpt lat="42.51263" lon="2.03301">
        <ele>1849.5</ele>
        <time>2026-01-19T14:53:50Z</time>
      </trkpt>
      <trkpt lat="42.51263" lon="2.03302">
        <ele>1849.4</ele>
        <time>2026-01-19T14:53:51Z</time>
      </trkpt>
      <trkpt lat="42.51264" lon="2.03303">
        <ele>1849.3</ele>
        <time>2026-01-19T14:53:52Z</time>
      </trkpt>
      <trkpt lat="42.51264" lon="2.03304">
        <ele>1849.2</ele>
        <time>2026-01-19T14:53:53Z</time>
      </trkpt>
      <trkpt lat="42.51265" lon="2.03305">
        <ele>1849.1</ele>
        <time>2026-01-19T14:53:54Z</time>
      </trkpt>
      <trkpt lat="42.51266" lon="2.03306">
        <ele>1848.9</ele>
        <time>2026-01-19T14:53:55Z</time>
      </trkpt>
      <trkpt lat="42.51266" lon="2.03307">
        <ele>1848.8</ele>
        <time>2026-01-19T14:53:56Z</time>
      </trkpt>
      <trkpt lat="42.51267" lon="2.03308">
        <ele>1848.7</ele>
        <time>2026-01-19T14:53:57Z</time>
      </trkpt>
      <trkpt lat="42.51267" lon="2.03309">
        <ele>1848.6</ele>
        <time>2026-01-19T14:53:58Z</time>
      </trkpt>
      <trkpt lat="42.51268" lon="2.0331">
        <ele>1848.4</ele>
        <time>2026-01-19T14:53:59Z</time>
      </trkpt>
      <trkpt lat="42.51268" lon="2.03312">
        <ele>1848.3</ele>
        <time>2026-01-19T14:54:00Z</time>
      </trkpt>
      <trkpt lat="42.51269" lon="2.03313">
        <ele>1848.2</ele>
        <time>2026-01-19T14:54:01Z</time>
      </trkpt>
      <trkpt lat="42.51269" lon="2.03314">
        <ele>1848.1</ele>
        <time>2026-01-19T14:54:02Z</time>
      </trkpt>
      <trkpt lat="42.5127" lon="2.03315">
        <ele>1848</ele>
        <time>2026-01-19T14:54:03Z</time>
      </trkpt>
      <trkpt lat="42.5127" lon="2.03316">
        <ele>1847.8</ele>
        <time>2026-01-19T14:54:04Z</time>
      </trkpt>
      <trkpt lat="42.51271" lon="2.03317">
        <ele>1847.7</ele>
        <time>2026-01-19T14:54:05Z</time>
      </trkpt>
      <trkpt lat="42.51271" lon="2.03318">
        <ele>1847.6</ele>
        <time>2026-01-19T14:54:06Z</time>
      </trkpt>
      <trkpt lat="42.51272" lon="2.03319">
        <ele>1847.5</ele>
        <time>2026-01-19T14:54:07Z</time>
      </trkpt>
      <trkpt lat="42.51273" lon="2.0332">
        <ele>1847.4</ele>
        <time>2026-01-19T14:54:08Z</time>
      </trkpt>
      <trkpt lat="42.51273" lon="2.03321">
        <ele>1847.3</ele>
        <time>2026-01-19T14:54:09Z</time>
      </trkpt>
      <trkpt lat="42.51273" lon="2.03322">
        <ele>1847.2</ele>
        <time>2026-01-19T14:54:10Z</time>
      </trkpt>
      <trkpt lat="42.51273" lon="2.03323">
        <ele>1847.2</ele>
        <time>2026-01-19T14:54:11Z</time>
      </trkpt>
      <trkpt lat="42.51273" lon="2.03322">
        <ele>1847.1</ele>
        <time>2026-01-19T14:54:12Z</time>
      </trkpt>
      <trkpt lat="42.51272" lon="2.03322">
        <ele>1847</ele>
        <time>2026-01-19T14:54:13Z</time>
      </trkpt>
      <trkpt lat="42.51272" lon="2.03322">
        <ele>1847</ele>
        <time>2026-01-19T14:54:14Z</time>
      </trkpt>
      <trkpt lat="42.51271" lon="2.03322">
        <ele>1846.9</ele>
        <time>2026-01-19T14:54:15Z</time>
      </trkpt>
      <trkpt lat="42.51271" lon="2.03322">
        <ele>1846.9</ele>
        <time>2026-01-19T14:54:16Z</time>
      </trkpt>
      <trkpt lat="42.51271" lon="2.03322">
        <ele>1846.9</ele>
        <time>2026-01-19T14:54:17Z</time>
      </trkpt>
      <trkpt lat="42.51271" lon="2.03322">
        <ele>1846.9</ele>
        <time>2026-01-19T14:54:18Z</time>
      </trkpt>
      <trkpt lat="42.51271" lon="2.03322">
        <ele>1846.9</ele>
        <time>2026-01-19T14:54:21Z</time>
      </trkpt>
      <trkpt lat="42.51271" lon="2.03322">
        <ele>1846.8</ele>
        <time>2026-01-19T14:54:22Z</time>
      </trkpt>
      <trkpt lat="42.51271" lon="2.03322">
        <ele>1846.8</ele>
        <time>2026-01-19T14:54:23Z</time>
      </trkpt>
      <trkpt lat="42.51271" lon="2.03322">
        <ele>1846.8</ele>
        <time>2026-01-19T14:54:24Z</time>
      </trkpt>
      <trkpt lat="42.51271" lon="2.03322">
        <ele>1846.8</ele>
        <time>2026-01-19T14:54:25Z</time>
      </trkpt>
      <trkpt lat="42.51271" lon="2.03322">
        <ele>1846.8</ele>
        <time>2026-01-19T14:54:26Z</time>
      </trkpt>
      <trkpt lat="42.51272" lon="2.03323">
        <ele>1846.7</ele>
        <time>2026-01-19T14:54:27Z</time>
      </trkpt>
      <trkpt lat="42.51273" lon="2.03324">
        <ele>1846.5</ele>
        <time>2026-01-19T14:54:29Z</time>
      </trkpt>
      <trkpt lat="42.51274" lon="2.03325">
        <ele>1846.4</ele>
        <time>2026-01-19T14:54:30Z</time>
      </trkpt>
      <trkpt lat="42.51275" lon="2.03326">
        <ele>1846.2</ele>
        <time>2026-01-19T14:54:31Z</time>
      </trkpt>
      <trkpt lat="42.51276" lon="2.03328">
        <ele>1846</ele>
        <time>2026-01-19T14:54:32Z</time>
      </trkpt>
      <trkpt lat="42.51277" lon="2.0333">
        <ele>1845.8</ele>
        <time>2026-01-19T14:54:33Z</time>
      </trkpt>
      <trkpt lat="42.51277" lon="2.03333">
        <ele>1845.6</ele>
        <time>2026-01-19T14:54:34Z</time>
      </trkpt>
      <trkpt lat="42.51277" lon="2.03335">
        <ele>1845.5</ele>
        <time>2026-01-19T14:54:35Z</time>
      </trkpt>
      <trkpt lat="42.51277" lon="2.03337">
        <ele>1845.2</ele>
        <time>2026-01-19T14:54:36Z</time>
      </trkpt>
      <trkpt lat="42.51277" lon="2.03339">
        <ele>1845.1</ele>
        <time>2026-01-19T14:54:37Z</time>
      </trkpt>
      <trkpt lat="42.51277" lon="2.0334">
        <ele>1845</ele>
        <time>2026-01-19T14:54:38Z</time>
      </trkpt>
      <trkpt lat="42.51277" lon="2.03341">
        <ele>1844.9</ele>
        <time>2026-01-19T14:54:39Z</time>
      </trkpt>
      <trkpt lat="42.51278" lon="2.03342">
        <ele>1844.8</ele>
        <time>2026-01-19T14:54:40Z</time>
      </trkpt>
      <trkpt lat="42.51279" lon="2.03342">
        <ele>1844.6</ele>
        <time>2026-01-19T14:54:41Z</time>
      </trkpt>
      <trkpt lat="42.51281" lon="2.03342">
        <ele>1844.4</ele>
        <time>2026-01-19T14:54:42Z</time>
      </trkpt>
      <trkpt lat="42.51282" lon="2.03342">
        <ele>1844.3</ele>
        <time>2026-01-19T14:54:43Z</time>
      </trkpt>
      <trkpt lat="42.51283" lon="2.03342">
        <ele>1844.2</ele>
        <time>2026-01-19T14:54:44Z</time>
      </trkpt>
      <trkpt lat="42.51284" lon="2.03344">
        <ele>1844.1</ele>
        <time>2026-01-19T14:54:45Z</time>
      </trkpt>
      <trkpt lat="42.51285" lon="2.03345">
        <ele>1844</ele>
        <time>2026-01-19T14:54:46Z</time>
      </trkpt>
      <trkpt lat="42.51285" lon="2.03346">
        <ele>1843.9</ele>
        <time>2026-01-19T14:54:47Z</time>
      </trkpt>
      <trkpt lat="42.51286" lon="2.03347">
        <ele>1843.8</ele>
        <time>2026-01-19T14:54:48Z</time>
      </trkpt>
      <trkpt lat="42.51287" lon="2.03348">
        <ele>1843.7</ele>
        <time>2026-01-19T14:54:49Z</time>
      </trkpt>
      <trkpt lat="42.51287" lon="2.0335">
        <ele>1843.6</ele>
        <time>2026-01-19T14:54:50Z</time>
      </trkpt>
      <trkpt lat="42.51288" lon="2.03351">
        <ele>1843.5</ele>
        <time>2026-01-19T14:54:51Z</time>
      </trkpt>
      <trkpt lat="42.51288" lon="2.03353">
        <ele>1843.4</ele>
        <time>2026-01-19T14:54:52Z</time>
      </trkpt>
      <trkpt lat="42.51288" lon="2.03354">
        <ele>1843.4</ele>
        <time>2026-01-19T14:54:53Z</time>
      </trkpt>
      <trkpt lat="42.51288" lon="2.03356">
        <ele>1843.3</ele>
        <time>2026-01-19T14:54:54Z</time>
      </trkpt>
      <trkpt lat="42.51289" lon="2.03357">
        <ele>1843.2</ele>
        <time>2026-01-19T14:54:55Z</time>
      </trkpt>
      <trkpt lat="42.51289" lon="2.03359">
        <ele>1843.2</ele>
        <time>2026-01-19T14:54:56Z</time>
      </trkpt>
      <trkpt lat="42.5129" lon="2.0336">
        <ele>1843.1</ele>
        <time>2026-01-19T14:54:57Z</time>
      </trkpt>
      <trkpt lat="42.5129" lon="2.03361">
        <ele>1843.1</ele>
        <time>2026-01-19T14:54:58Z</time>
      </trkpt>
      <trkpt lat="42.51291" lon="2.03363">
        <ele>1843</ele>
        <time>2026-01-19T14:54:59Z</time>
      </trkpt>
      <trkpt lat="42.51292" lon="2.03364">
        <ele>1843</ele>
        <time>2026-01-19T14:55:00Z</time>
      </trkpt>
      <trkpt lat="42.51293" lon="2.03366">
        <ele>1843</ele>
        <time>2026-01-19T14:55:01Z</time>
      </trkpt>
      <trkpt lat="42.51294" lon="2.03368">
        <ele>1843</ele>
        <time>2026-01-19T14:55:02Z</time>
      </trkpt>
      <trkpt lat="42.51294" lon="2.03369">
        <ele>1843</ele>
        <time>2026-01-19T14:55:03Z</time>
      </trkpt>
      <trkpt lat="42.51295" lon="2.03371">
        <ele>1843</ele>
        <time>2026-01-19T14:55:04Z</time>
      </trkpt>
      <trkpt lat="42.51296" lon="2.03373">
        <ele>1843</ele>
        <time>2026-01-19T14:55:05Z</time>
      </trkpt>
      <trkpt lat="42.51297" lon="2.03374">
        <ele>1843</ele>
        <time>2026-01-19T14:55:06Z</time>
      </trkpt>
      <trkpt lat="42.51299" lon="2.03375">
        <ele>1843</ele>
        <time>2026-01-19T14:55:07Z</time>
      </trkpt>
      <trkpt lat="42.513" lon="2.03377">
        <ele>1843.1</ele>
        <time>2026-01-19T14:55:08Z</time>
      </trkpt>
      <trkpt lat="42.51301" lon="2.03377">
        <ele>1843.1</ele>
        <time>2026-01-19T14:55:09Z</time>
      </trkpt>
      <trkpt lat="42.51302" lon="2.03378">
        <ele>1843.1</ele>
        <time>2026-01-19T14:55:10Z</time>
      </trkpt>
      <trkpt lat="42.51303" lon="2.03379">
        <ele>1843.1</ele>
        <time>2026-01-19T14:55:11Z</time>
      </trkpt>
      <trkpt lat="42.51305" lon="2.03379">
        <ele>1843.2</ele>
        <time>2026-01-19T14:55:12Z</time>
      </trkpt>
      <trkpt lat="42.51306" lon="2.0338">
        <ele>1843.2</ele>
        <time>2026-01-19T14:55:13Z</time>
      </trkpt>
      <trkpt lat="42.51308" lon="2.0338">
        <ele>1843.2</ele>
        <time>2026-01-19T14:55:14Z</time>
      </trkpt>
      <trkpt lat="42.51309" lon="2.03381">
        <ele>1843.3</ele>
        <time>2026-01-19T14:55:15Z</time>
      </trkpt>
      <trkpt lat="42.5131" lon="2.03381">
        <ele>1843.3</ele>
        <time>2026-01-19T14:55:16Z</time>
      </trkpt>
      <trkpt lat="42.51312" lon="2.03381">
        <ele>1843.3</ele>
        <time>2026-01-19T14:55:17Z</time>
      </trkpt>
      <trkpt lat="42.51313" lon="2.03381">
        <ele>1843.4</ele>
        <time>2026-01-19T14:55:18Z</time>
      </trkpt>
      <trkpt lat="42.51314" lon="2.0338">
        <ele>1843.4</ele>
        <time>2026-01-19T14:55:19Z</time>
      </trkpt>
      <trkpt lat="42.51315" lon="2.0338">
        <ele>1843.4</ele>
        <time>2026-01-19T14:55:20Z</time>
      </trkpt>
      <trkpt lat="42.51316" lon="2.0338">
        <ele>1843.4</ele>
        <time>2026-01-19T14:55:21Z</time>
      </trkpt>
      <trkpt lat="42.51317" lon="2.0338">
        <ele>1843.4</ele>
        <time>2026-01-19T14:55:22Z</time>
      </trkpt>
      <trkpt lat="42.51319" lon="2.03381">
        <ele>1843.4</ele>
        <time>2026-01-19T14:55:23Z</time>
      </trkpt>
      <trkpt lat="42.5132" lon="2.03382">
        <ele>1843.4</ele>
        <time>2026-01-19T14:55:24Z</time>
      </trkpt>
      <trkpt lat="42.51321" lon="2.03382">
        <ele>1843.4</ele>
        <time>2026-01-19T14:55:25Z</time>
      </trkpt>
      <trkpt lat="42.51322" lon="2.03383">
        <ele>1843.4</ele>
        <time>2026-01-19T14:55:26Z</time>
      </trkpt>
      <trkpt lat="42.51323" lon="2.03383">
        <ele>1843.4</ele>
        <time>2026-01-19T14:55:27Z</time>
      </trkpt>
      <trkpt lat="42.51324" lon="2.03384">
        <ele>1843.4</ele>
        <time>2026-01-19T14:55:28Z</time>
      </trkpt>
      <trkpt lat="42.51325" lon="2.03384">
        <ele>1843.4</ele>
        <time>2026-01-19T14:55:29Z</time>
      </trkpt>
      <trkpt lat="42.51327" lon="2.03384">
        <ele>1843.3</ele>
        <time>2026-01-19T14:55:30Z</time>
      </trkpt>
      <trkpt lat="42.51328" lon="2.03384">
        <ele>1843.3</ele>
        <time>2026-01-19T14:55:31Z</time>
      </trkpt>
      <trkpt lat="42.51329" lon="2.03384">
        <ele>1843.3</ele>
        <time>2026-01-19T14:55:32Z</time>
      </trkpt>
      <trkpt lat="42.5133" lon="2.03384">
        <ele>1843.2</ele>
        <time>2026-01-19T14:55:33Z</time>
      </trkpt>
      <trkpt lat="42.51331" lon="2.03384">
        <ele>1843.2</ele>
        <time>2026-01-19T14:55:34Z</time>
      </trkpt>
      <trkpt lat="42.51333" lon="2.03385">
        <ele>1843.1</ele>
        <time>2026-01-19T14:55:35Z</time>
      </trkpt>
      <trkpt lat="42.51334" lon="2.03385">
        <ele>1843</ele>
        <time>2026-01-19T14:55:36Z</time>
      </trkpt>
      <trkpt lat="42.51334" lon="2.03386">
        <ele>1843</ele>
        <time>2026-01-19T14:55:37Z</time>
      </trkpt>
      <trkpt lat="42.51335" lon="2.03386">
        <ele>1842.9</ele>
        <time>2026-01-19T14:55:38Z</time>
      </trkpt>
      <trkpt lat="42.51337" lon="2.03387">
        <ele>1842.8</ele>
        <time>2026-01-19T14:55:39Z</time>
      </trkpt>
      <trkpt lat="42.51338" lon="2.03388">
        <ele>1842.7</ele>
        <time>2026-01-19T14:55:40Z</time>
      </trkpt>
      <trkpt lat="42.51339" lon="2.03389">
        <ele>1842.6</ele>
        <time>2026-01-19T14:55:41Z</time>
      </trkpt>
      <trkpt lat="42.5134" lon="2.0339">
        <ele>1842.5</ele>
        <time>2026-01-19T14:55:42Z</time>
      </trkpt>
      <trkpt lat="42.51341" lon="2.0339">
        <ele>1842.4</ele>
        <time>2026-01-19T14:55:43Z</time>
      </trkpt>
      <trkpt lat="42.51342" lon="2.03391">
        <ele>1842.3</ele>
        <time>2026-01-19T14:55:44Z</time>
      </trkpt>
      <trkpt lat="42.51343" lon="2.03391">
        <ele>1842.2</ele>
        <time>2026-01-19T14:55:45Z</time>
      </trkpt>
      <trkpt lat="42.51344" lon="2.03393">
        <ele>1842.1</ele>
        <time>2026-01-19T14:55:46Z</time>
      </trkpt>
      <trkpt lat="42.51345" lon="2.03394">
        <ele>1842</ele>
        <time>2026-01-19T14:55:47Z</time>
      </trkpt>
      <trkpt lat="42.51345" lon="2.03397">
        <ele>1841.8</ele>
        <time>2026-01-19T14:55:48Z</time>
      </trkpt>
      <trkpt lat="42.51345" lon="2.03398">
        <ele>1841.7</ele>
        <time>2026-01-19T14:55:49Z</time>
      </trkpt>
      <trkpt lat="42.51345" lon="2.03399">
        <ele>1841.6</ele>
        <time>2026-01-19T14:55:50Z</time>
      </trkpt>
      <trkpt lat="42.51345" lon="2.03401">
        <ele>1841.5</ele>
        <time>2026-01-19T14:55:51Z</time>
      </trkpt>
      <trkpt lat="42.51344" lon="2.03403">
        <ele>1841.2</ele>
        <time>2026-01-19T14:55:52Z</time>
      </trkpt>
      <trkpt lat="42.51343" lon="2.03405">
        <ele>1840.9</ele>
        <time>2026-01-19T14:55:53Z</time>
      </trkpt>
      <trkpt lat="42.51342" lon="2.03406">
        <ele>1840.8</ele>
        <time>2026-01-19T14:55:54Z</time>
      </trkpt>
      <trkpt lat="42.51342" lon="2.03407">
        <ele>1840.7</ele>
        <time>2026-01-19T14:55:55Z</time>
      </trkpt>
      <trkpt lat="42.5134" lon="2.03409">
        <ele>1840.4</ele>
        <time>2026-01-19T14:55:56Z</time>
      </trkpt>
      <trkpt lat="42.51339" lon="2.03409">
        <ele>1840.3</ele>
        <time>2026-01-19T14:55:57Z</time>
      </trkpt>
      <trkpt lat="42.51338" lon="2.0341">
        <ele>1840.1</ele>
        <time>2026-01-19T14:55:58Z</time>
      </trkpt>
      <trkpt lat="42.51336" lon="2.03411">
        <ele>1839.9</ele>
        <time>2026-01-19T14:55:59Z</time>
      </trkpt>
      <trkpt lat="42.51336" lon="2.03412">
        <ele>1839.8</ele>
        <time>2026-01-19T14:56:00Z</time>
      </trkpt>
      <trkpt lat="42.51335" lon="2.03412">
        <ele>1839.7</ele>
        <time>2026-01-19T14:56:01Z</time>
      </trkpt>
      <trkpt lat="42.51334" lon="2.03413">
        <ele>1839.5</ele>
        <time>2026-01-19T14:56:02Z</time>
      </trkpt>
      <trkpt lat="42.51332" lon="2.03414">
        <ele>1839.3</ele>
        <time>2026-01-19T14:56:03Z</time>
      </trkpt>
      <trkpt lat="42.51331" lon="2.03415">
        <ele>1839.2</ele>
        <time>2026-01-19T14:56:04Z</time>
      </trkpt>
      <trkpt lat="42.5133" lon="2.03415">
        <ele>1839</ele>
        <time>2026-01-19T14:56:05Z</time>
      </trkpt>
      <trkpt lat="42.51329" lon="2.03416">
        <ele>1838.9</ele>
        <time>2026-01-19T14:56:06Z</time>
      </trkpt>
      <trkpt lat="42.51327" lon="2.03418">
        <ele>1838.6</ele>
        <time>2026-01-19T14:56:07Z</time>
      </trkpt>
      <trkpt lat="42.51326" lon="2.03418">
        <ele>1838.5</ele>
        <time>2026-01-19T14:56:08Z</time>
      </trkpt>
      <trkpt lat="42.51326" lon="2.03419">
        <ele>1838.3</ele>
        <time>2026-01-19T14:56:09Z</time>
      </trkpt>
      <trkpt lat="42.51324" lon="2.0342">
        <ele>1838.1</ele>
        <time>2026-01-19T14:56:10Z</time>
      </trkpt>
      <trkpt lat="42.51324" lon="2.03421">
        <ele>1838</ele>
        <time>2026-01-19T14:56:11Z</time>
      </trkpt>
      <trkpt lat="42.51323" lon="2.03422">
        <ele>1837.8</ele>
        <time>2026-01-19T14:56:12Z</time>
      </trkpt>
      <trkpt lat="42.51321" lon="2.03423">
        <ele>1837.5</ele>
        <time>2026-01-19T14:56:13Z</time>
      </trkpt>
      <trkpt lat="42.5132" lon="2.03424">
        <ele>1837.4</ele>
        <time>2026-01-19T14:56:14Z</time>
      </trkpt>
      <trkpt lat="42.51319" lon="2.03424">
        <ele>1837.3</ele>
        <time>2026-01-19T14:56:15Z</time>
      </trkpt>
      <trkpt lat="42.51318" lon="2.03424">
        <ele>1837.1</ele>
        <time>2026-01-19T14:56:16Z</time>
      </trkpt>
      <trkpt lat="42.51317" lon="2.03424">
        <ele>1836.9</ele>
        <time>2026-01-19T14:56:17Z</time>
      </trkpt>
      <trkpt lat="42.51316" lon="2.03424">
        <ele>1836.7</ele>
        <time>2026-01-19T14:56:18Z</time>
      </trkpt>
      <trkpt lat="42.51315" lon="2.03424">
        <ele>1836.5</ele>
        <time>2026-01-19T14:56:19Z</time>
      </trkpt>
      <trkpt lat="42.51313" lon="2.03425">
        <ele>1836.3</ele>
        <time>2026-01-19T14:56:20Z</time>
      </trkpt>
      <trkpt lat="42.51311" lon="2.03425">
        <ele>1835.9</ele>
        <time>2026-01-19T14:56:21Z</time>
      </trkpt>
      <trkpt lat="42.5131" lon="2.03426">
        <ele>1835.8</ele>
        <time>2026-01-19T14:56:22Z</time>
      </trkpt>
      <trkpt lat="42.5131" lon="2.03426">
        <ele>1835.7</ele>
        <time>2026-01-19T14:56:23Z</time>
      </trkpt>
      <trkpt lat="42.51308" lon="2.03427">
        <ele>1835.3</ele>
        <time>2026-01-19T14:56:24Z</time>
      </trkpt>
      <trkpt lat="42.51307" lon="2.03428">
        <ele>1835.1</ele>
        <time>2026-01-19T14:56:25Z</time>
      </trkpt>
      <trkpt lat="42.51306" lon="2.03429">
        <ele>1835</ele>
        <time>2026-01-19T14:56:26Z</time>
      </trkpt>
      <trkpt lat="42.51305" lon="2.03429">
        <ele>1834.7</ele>
        <time>2026-01-19T14:56:27Z</time>
      </trkpt>
      <trkpt lat="42.51304" lon="2.03429">
        <ele>1834.6</ele>
        <time>2026-01-19T14:56:28Z</time>
      </trkpt>
      <trkpt lat="42.51302" lon="2.0343">
        <ele>1834.4</ele>
        <time>2026-01-19T14:56:29Z</time>
      </trkpt>
      <trkpt lat="42.51301" lon="2.0343">
        <ele>1834.2</ele>
        <time>2026-01-19T14:56:30Z</time>
      </trkpt>
      <trkpt lat="42.513" lon="2.0343">
        <ele>1833.9</ele>
        <time>2026-01-19T14:56:31Z</time>
      </trkpt>
      <trkpt lat="42.51299" lon="2.03429">
        <ele>1833.7</ele>
        <time>2026-01-19T14:56:32Z</time>
      </trkpt>
      <trkpt lat="42.51298" lon="2.03428">
        <ele>1833.6</ele>
        <time>2026-01-19T14:56:33Z</time>
      </trkpt>
      <trkpt lat="42.51297" lon="2.03427">
        <ele>1833.4</ele>
        <time>2026-01-19T14:56:34Z</time>
      </trkpt>
      <trkpt lat="42.51296" lon="2.03426">
        <ele>1833.2</ele>
        <time>2026-01-19T14:56:35Z</time>
      </trkpt>
      <trkpt lat="42.51295" lon="2.03426">
        <ele>1833</ele>
        <time>2026-01-19T14:56:36Z</time>
      </trkpt>
      <trkpt lat="42.51294" lon="2.03425">
        <ele>1832.8</ele>
        <time>2026-01-19T14:56:37Z</time>
      </trkpt>
      <trkpt lat="42.51293" lon="2.03424">
        <ele>1832.6</ele>
        <time>2026-01-19T14:56:38Z</time>
      </trkpt>
      <trkpt lat="42.51292" lon="2.03423">
        <ele>1832.4</ele>
        <time>2026-01-19T14:56:39Z</time>
      </trkpt>
      <trkpt lat="42.51291" lon="2.03423">
        <ele>1832.2</ele>
        <time>2026-01-19T14:56:40Z</time>
      </trkpt>
      <trkpt lat="42.5129" lon="2.03422">
        <ele>1832</ele>
        <time>2026-01-19T14:56:41Z</time>
      </trkpt>
      <trkpt lat="42.51289" lon="2.03421">
        <ele>1831.8</ele>
        <time>2026-01-19T14:56:42Z</time>
      </trkpt>
      <trkpt lat="42.51288" lon="2.0342">
        <ele>1831.6</ele>
        <time>2026-01-19T14:56:43Z</time>
      </trkpt>
      <trkpt lat="42.51287" lon="2.0342">
        <ele>1831.4</ele>
        <time>2026-01-19T14:56:44Z</time>
      </trkpt>
      <trkpt lat="42.51286" lon="2.0342">
        <ele>1831.3</ele>
        <time>2026-01-19T14:56:45Z</time>
      </trkpt>
      <trkpt lat="42.51285" lon="2.03419">
        <ele>1831.1</ele>
        <time>2026-01-19T14:56:46Z</time>
      </trkpt>
      <trkpt lat="42.51284" lon="2.03418">
        <ele>1830.8</ele>
        <time>2026-01-19T14:56:47Z</time>
      </trkpt>
      <trkpt lat="42.51283" lon="2.03417">
        <ele>1830.6</ele>
        <time>2026-01-19T14:56:48Z</time>
      </trkpt>
      <trkpt lat="42.51282" lon="2.03417">
        <ele>1830.5</ele>
        <time>2026-01-19T14:56:49Z</time>
      </trkpt>
      <trkpt lat="42.51281" lon="2.03416">
        <ele>1830.3</ele>
        <time>2026-01-19T14:56:50Z</time>
      </trkpt>
      <trkpt lat="42.5128" lon="2.03415">
        <ele>1830.1</ele>
        <time>2026-01-19T14:56:51Z</time>
      </trkpt>
      <trkpt lat="42.51279" lon="2.03414">
        <ele>1829.9</ele>
        <time>2026-01-19T14:56:52Z</time>
      </trkpt>
      <trkpt lat="42.51278" lon="2.03414">
        <ele>1829.8</ele>
        <time>2026-01-19T14:56:53Z</time>
      </trkpt>
      <trkpt lat="42.51277" lon="2.03414">
        <ele>1829.6</ele>
        <time>2026-01-19T14:56:54Z</time>
      </trkpt>
      <trkpt lat="42.51276" lon="2.03413">
        <ele>1829.5</ele>
        <time>2026-01-19T14:56:55Z</time>
      </trkpt>
      <trkpt lat="42.51275" lon="2.03413">
        <ele>1829.3</ele>
        <time>2026-01-19T14:56:56Z</time>
      </trkpt>
      <trkpt lat="42.51275" lon="2.03413">
        <ele>1829.2</ele>
        <time>2026-01-19T14:56:57Z</time>
      </trkpt>
      <trkpt lat="42.51273" lon="2.03413">
        <ele>1829</ele>
        <time>2026-01-19T14:56:58Z</time>
      </trkpt>
      <trkpt lat="42.51272" lon="2.03413">
        <ele>1828.9</ele>
        <time>2026-01-19T14:56:59Z</time>
      </trkpt>
      <trkpt lat="42.51271" lon="2.03413">
        <ele>1828.7</ele>
        <time>2026-01-19T14:57:00Z</time>
      </trkpt>
      <trkpt lat="42.5127" lon="2.03413">
        <ele>1828.6</ele>
        <time>2026-01-19T14:57:01Z</time>
      </trkpt>
      <trkpt lat="42.51269" lon="2.03414">
        <ele>1828.4</ele>
        <time>2026-01-19T14:57:02Z</time>
      </trkpt>
      <trkpt lat="42.51267" lon="2.03416">
        <ele>1828</ele>
        <time>2026-01-19T14:57:03Z</time>
      </trkpt>
      <trkpt lat="42.51267" lon="2.03417">
        <ele>1827.9</ele>
        <time>2026-01-19T14:57:04Z</time>
      </trkpt>
      <trkpt lat="42.51266" lon="2.03418">
        <ele>1827.8</ele>
        <time>2026-01-19T14:57:05Z</time>
      </trkpt>
      <trkpt lat="42.51265" lon="2.03421">
        <ele>1827.4</ele>
        <time>2026-01-19T14:57:06Z</time>
      </trkpt>
      <trkpt lat="42.51265" lon="2.03423">
        <ele>1827.3</ele>
        <time>2026-01-19T14:57:07Z</time>
      </trkpt>
      <trkpt lat="42.51264" lon="2.03425">
        <ele>1827</ele>
        <time>2026-01-19T14:57:08Z</time>
      </trkpt>
      <trkpt lat="42.51263" lon="2.03427">
        <ele>1826.8</ele>
        <time>2026-01-19T14:57:09Z</time>
      </trkpt>
      <trkpt lat="42.51263" lon="2.03429">
        <ele>1826.7</ele>
        <time>2026-01-19T14:57:10Z</time>
      </trkpt>
      <trkpt lat="42.51262" lon="2.03429">
        <ele>1826.6</ele>
        <time>2026-01-19T14:57:11Z</time>
      </trkpt>
      <trkpt lat="42.51261" lon="2.0343">
        <ele>1826.4</ele>
        <time>2026-01-19T14:57:12Z</time>
      </trkpt>
      <trkpt lat="42.5126" lon="2.0343">
        <ele>1826.3</ele>
        <time>2026-01-19T14:57:13Z</time>
      </trkpt>
      <trkpt lat="42.51259" lon="2.0343">
        <ele>1826.3</ele>
        <time>2026-01-19T14:57:14Z</time>
      </trkpt>
      <trkpt lat="42.51257" lon="2.03431">
        <ele>1826.1</ele>
        <time>2026-01-19T14:57:15Z</time>
      </trkpt>
      <trkpt lat="42.51255" lon="2.0343">
        <ele>1825.9</ele>
        <time>2026-01-19T14:57:16Z</time>
      </trkpt>
      <trkpt lat="42.51254" lon="2.0343">
        <ele>1825.9</ele>
        <time>2026-01-19T14:57:17Z</time>
      </trkpt>
      <trkpt lat="42.51254" lon="2.0343">
        <ele>1825.8</ele>
        <time>2026-01-19T14:57:18Z</time>
      </trkpt>
      <trkpt lat="42.51251" lon="2.03429">
        <ele>1825.7</ele>
        <time>2026-01-19T14:57:19Z</time>
      </trkpt>
      <trkpt lat="42.51251" lon="2.03429">
        <ele>1825.6</ele>
        <time>2026-01-19T14:57:20Z</time>
      </trkpt>
      <trkpt lat="42.5125" lon="2.03428">
        <ele>1825.6</ele>
        <time>2026-01-19T14:57:21Z</time>
      </trkpt>
      <trkpt lat="42.51248" lon="2.03428">
        <ele>1825.5</ele>
        <time>2026-01-19T14:57:22Z</time>
      </trkpt>
      <trkpt lat="42.51247" lon="2.03427">
        <ele>1825.4</ele>
        <time>2026-01-19T14:57:23Z</time>
      </trkpt>
      <trkpt lat="42.51246" lon="2.03427">
        <ele>1825.4</ele>
        <time>2026-01-19T14:57:24Z</time>
      </trkpt>
      <trkpt lat="42.51245" lon="2.03427">
        <ele>1825.3</ele>
        <time>2026-01-19T14:57:25Z</time>
      </trkpt>
      <trkpt lat="42.51245" lon="2.03427">
        <ele>1825.3</ele>
        <time>2026-01-19T14:57:26Z</time>
      </trkpt>
      <trkpt lat="42.51245" lon="2.03427">
        <ele>1825.3</ele>
        <time>2026-01-19T14:57:27Z</time>
      </trkpt>
      <trkpt lat="42.51245" lon="2.03427">
        <ele>1825.3</ele>
        <time>2026-01-19T14:57:28Z</time>
      </trkpt>
      <trkpt lat="42.51244" lon="2.03427">
        <ele>1825.3</ele>
        <time>2026-01-19T14:57:29Z</time>
      </trkpt>
      <trkpt lat="42.51244" lon="2.03427">
        <ele>1825.3</ele>
        <time>2026-01-19T14:57:30Z</time>
      </trkpt>
      <trkpt lat="42.51244" lon="2.03427">
        <ele>1825.2</ele>
        <time>2026-01-19T14:57:31Z</time>
      </trkpt>
      <trkpt lat="42.51243" lon="2.03426">
        <ele>1825.2</ele>
        <time>2026-01-19T14:57:32Z</time>
      </trkpt>
      <trkpt lat="42.51241" lon="2.03425">
        <ele>1825.1</ele>
        <time>2026-01-19T14:57:33Z</time>
      </trkpt>
      <trkpt lat="42.5124" lon="2.03425">
        <ele>1825.1</ele>
        <time>2026-01-19T14:57:34Z</time>
      </trkpt>
      <trkpt lat="42.51239" lon="2.03424">
        <ele>1825.1</ele>
        <time>2026-01-19T14:57:35Z</time>
      </trkpt>
      <trkpt lat="42.51238" lon="2.03424">
        <ele>1825</ele>
        <time>2026-01-19T14:57:36Z</time>
      </trkpt>
      <trkpt lat="42.51237" lon="2.03423">
        <ele>1825</ele>
        <time>2026-01-19T14:57:37Z</time>
      </trkpt>
      <trkpt lat="42.51236" lon="2.03423">
        <ele>1824.9</ele>
        <time>2026-01-19T14:57:38Z</time>
      </trkpt>
      <trkpt lat="42.51235" lon="2.03423">
        <ele>1824.9</ele>
        <time>2026-01-19T14:57:39Z</time>
      </trkpt>
      <trkpt lat="42.51234" lon="2.03422">
        <ele>1824.9</ele>
        <time>2026-01-19T14:57:40Z</time>
      </trkpt>
      <trkpt lat="42.51234" lon="2.03422">
        <ele>1824.9</ele>
        <time>2026-01-19T14:57:41Z</time>
      </trkpt>
      <trkpt lat="42.51233" lon="2.03421">
        <ele>1824.8</ele>
        <time>2026-01-19T14:57:42Z</time>
      </trkpt>
      <trkpt lat="42.51232" lon="2.03421">
        <ele>1824.8</ele>
        <time>2026-01-19T14:57:43Z</time>
      </trkpt>
      <trkpt lat="42.51231" lon="2.0342">
        <ele>1824.8</ele>
        <time>2026-01-19T14:57:44Z</time>
      </trkpt>
      <trkpt lat="42.5123" lon="2.0342">
        <ele>1824.7</ele>
        <time>2026-01-19T14:57:45Z</time>
      </trkpt>
      <trkpt lat="42.51229" lon="2.0342">
        <ele>1824.7</ele>
        <time>2026-01-19T14:57:46Z</time>
      </trkpt>
      <trkpt lat="42.51228" lon="2.0342">
        <ele>1824.7</ele>
        <time>2026-01-19T14:57:47Z</time>
      </trkpt>
      <trkpt lat="42.51227" lon="2.03419">
        <ele>1824.6</ele>
        <time>2026-01-19T14:57:48Z</time>
      </trkpt>
      <trkpt lat="42.51226" lon="2.03419">
        <ele>1824.6</ele>
        <time>2026-01-19T14:57:49Z</time>
      </trkpt>
      <trkpt lat="42.51225" lon="2.03418">
        <ele>1824.6</ele>
        <time>2026-01-19T14:57:50Z</time>
      </trkpt>
      <trkpt lat="42.51224" lon="2.03416">
        <ele>1824.5</ele>
        <time>2026-01-19T14:57:51Z</time>
      </trkpt>
      <trkpt lat="42.51223" lon="2.03415">
        <ele>1824.5</ele>
        <time>2026-01-19T14:57:52Z</time>
      </trkpt>
      <trkpt lat="42.51223" lon="2.03414">
        <ele>1824.5</ele>
        <time>2026-01-19T14:57:53Z</time>
      </trkpt>
      <trkpt lat="42.51222" lon="2.03413">
        <ele>1824.5</ele>
        <time>2026-01-19T14:57:54Z</time>
      </trkpt>
      <trkpt lat="42.51221" lon="2.03412">
        <ele>1824.4</ele>
        <time>2026-01-19T14:57:55Z</time>
      </trkpt>
      <trkpt lat="42.5122" lon="2.03411">
        <ele>1824.4</ele>
        <time>2026-01-19T14:57:56Z</time>
      </trkpt>
      <trkpt lat="42.5122" lon="2.03411">
        <ele>1824.4</ele>
        <time>2026-01-19T14:57:57Z</time>
      </trkpt>
      <trkpt lat="42.51219" lon="2.03412">
        <ele>1824.4</ele>
        <time>2026-01-19T14:57:58Z</time>
      </trkpt>
      <trkpt lat="42.51219" lon="2.03412">
        <ele>1824.4</ele>
        <time>2026-01-19T14:57:59Z</time>
      </trkpt>
      <trkpt lat="42.51219" lon="2.03412">
        <ele>1824.4</ele>
        <time>2026-01-19T14:58:00Z</time>
      </trkpt>
      <trkpt lat="42.51218" lon="2.03411">
        <ele>1824.4</ele>
        <time>2026-01-19T14:58:01Z</time>
      </trkpt>
      <trkpt lat="42.51217" lon="2.0341">
        <ele>1824.3</ele>
        <time>2026-01-19T14:58:02Z</time>
      </trkpt>
      <trkpt lat="42.51216" lon="2.03409">
        <ele>1824.3</ele>
        <time>2026-01-19T14:58:03Z</time>
      </trkpt>
      <trkpt lat="42.51215" lon="2.03408">
        <ele>1824.3</ele>
        <time>2026-01-19T14:58:04Z</time>
      </trkpt>
      <trkpt lat="42.51214" lon="2.03407">
        <ele>1824.3</ele>
        <time>2026-01-19T14:58:05Z</time>
      </trkpt>
      <trkpt lat="42.51213" lon="2.03405">
        <ele>1824.3</ele>
        <time>2026-01-19T14:58:06Z</time>
      </trkpt>
      <trkpt lat="42.51212" lon="2.03404">
        <ele>1824.3</ele>
        <time>2026-01-19T14:58:07Z</time>
      </trkpt>
      <trkpt lat="42.51212" lon="2.03403">
        <ele>1824.2</ele>
        <time>2026-01-19T14:58:08Z</time>
      </trkpt>
      <trkpt lat="42.51211" lon="2.03402">
        <ele>1824.2</ele>
        <time>2026-01-19T14:58:09Z</time>
      </trkpt>
      <trkpt lat="42.5121" lon="2.03401">
        <ele>1824.2</ele>
        <time>2026-01-19T14:58:10Z</time>
      </trkpt>
      <trkpt lat="42.5121" lon="2.034">
        <ele>1824.2</ele>
        <time>2026-01-19T14:58:11Z</time>
      </trkpt>
      <trkpt lat="42.51209" lon="2.03399">
        <ele>1824.2</ele>
        <time>2026-01-19T14:58:12Z</time>
      </trkpt>
      <trkpt lat="42.51208" lon="2.03398">
        <ele>1824.2</ele>
        <time>2026-01-19T14:58:13Z</time>
      </trkpt>
      <trkpt lat="42.51207" lon="2.03397">
        <ele>1824.2</ele>
        <time>2026-01-19T14:58:14Z</time>
      </trkpt>
      <trkpt lat="42.51205" lon="2.03396">
        <ele>1824.2</ele>
        <time>2026-01-19T14:58:15Z</time>
      </trkpt>
      <trkpt lat="42.51204" lon="2.03395">
        <ele>1824.1</ele>
        <time>2026-01-19T14:58:16Z</time>
      </trkpt>
      <trkpt lat="42.51203" lon="2.03394">
        <ele>1824.1</ele>
        <time>2026-01-19T14:58:17Z</time>
      </trkpt>
      <trkpt lat="42.51201" lon="2.03393">
        <ele>1824.1</ele>
        <time>2026-01-19T14:58:18Z</time>
      </trkpt>
      <trkpt lat="42.512" lon="2.03392">
        <ele>1824.1</ele>
        <time>2026-01-19T14:58:19Z</time>
      </trkpt>
      <trkpt lat="42.51198" lon="2.03389">
        <ele>1824.1</ele>
        <time>2026-01-19T14:58:20Z</time>
      </trkpt>
      <trkpt lat="42.51197" lon="2.03388">
        <ele>1824.1</ele>
        <time>2026-01-19T14:58:21Z</time>
      </trkpt>
      <trkpt lat="42.51196" lon="2.03387">
        <ele>1824</ele>
        <time>2026-01-19T14:58:22Z</time>
      </trkpt>
      <trkpt lat="42.51195" lon="2.03385">
        <ele>1824</ele>
        <time>2026-01-19T14:58:23Z</time>
      </trkpt>
      <trkpt lat="42.51194" lon="2.03384">
        <ele>1824</ele>
        <time>2026-01-19T14:58:24Z</time>
      </trkpt>
      <trkpt lat="42.51193" lon="2.03383">
        <ele>1824</ele>
        <time>2026-01-19T14:58:25Z</time>
      </trkpt>
      <trkpt lat="42.51192" lon="2.03382">
        <ele>1823.9</ele>
        <time>2026-01-19T14:58:26Z</time>
      </trkpt>
      <trkpt lat="42.51191" lon="2.03382">
        <ele>1823.9</ele>
        <time>2026-01-19T14:58:27Z</time>
      </trkpt>
      <trkpt lat="42.5119" lon="2.03381">
        <ele>1823.7</ele>
        <time>2026-01-19T14:58:28Z</time>
      </trkpt>
      <trkpt lat="42.51189" lon="2.03381">
        <ele>1823.5</ele>
        <time>2026-01-19T14:58:29Z</time>
      </trkpt>
      <trkpt lat="42.51188" lon="2.03382">
        <ele>1823.2</ele>
        <time>2026-01-19T14:58:30Z</time>
      </trkpt>
      <trkpt lat="42.51187" lon="2.03382">
        <ele>1823.1</ele>
        <time>2026-01-19T14:58:31Z</time>
      </trkpt>
      <trkpt lat="42.51187" lon="2.03382">
        <ele>1823</ele>
        <time>2026-01-19T14:58:32Z</time>
      </trkpt>
      <trkpt lat="42.51186" lon="2.03382">
        <ele>1822.9</ele>
        <time>2026-01-19T14:58:33Z</time>
      </trkpt>
      <trkpt lat="42.51186" lon="2.03382">
        <ele>1822.9</ele>
        <time>2026-01-19T14:58:34Z</time>
      </trkpt>
      <trkpt lat="42.51186" lon="2.03383">
        <ele>1822.9</ele>
        <time>2026-01-19T14:58:35Z</time>
      </trkpt>
      <trkpt lat="42.51186" lon="2.03383">
        <ele>1822.8</ele>
        <time>2026-01-19T14:58:36Z</time>
      </trkpt>
      <trkpt lat="42.51186" lon="2.03383">
        <ele>1822.8</ele>
        <time>2026-01-19T14:58:37Z</time>
      </trkpt>
      <trkpt lat="42.51186" lon="2.03383">
        <ele>1822.8</ele>
        <time>2026-01-19T14:58:38Z</time>
      </trkpt>
      <trkpt lat="42.51186" lon="2.03383">
        <ele>1822.8</ele>
        <time>2026-01-19T14:58:39Z</time>
      </trkpt>
      <trkpt lat="42.51186" lon="2.03383">
        <ele>1822.8</ele>
        <time>2026-01-19T14:58:40Z</time>
      </trkpt>
      <trkpt lat="42.51186" lon="2.03383">
        <ele>1822.7</ele>
        <time>2026-01-19T14:58:41Z</time>
      </trkpt>
      <trkpt lat="42.51186" lon="2.03383">
        <ele>1822.7</ele>
        <time>2026-01-19T14:58:42Z</time>
      </trkpt>
      <trkpt lat="42.51186" lon="2.03383">
        <ele>1822.7</ele>
        <time>2026-01-19T14:58:43Z</time>
      </trkpt>
      <trkpt lat="42.51186" lon="2.03384">
        <ele>1822.6</ele>
        <time>2026-01-19T14:58:44Z</time>
      </trkpt>
      <trkpt lat="42.51186" lon="2.03385">
        <ele>1822.4</ele>
        <time>2026-01-19T14:58:45Z</time>
      </trkpt>
      <trkpt lat="42.51187" lon="2.03385">
        <ele>1822.3</ele>
        <time>2026-01-19T14:58:46Z</time>
      </trkpt>
      <trkpt lat="42.51186" lon="2.03386">
        <ele>1822.2</ele>
        <time>2026-01-19T14:58:47Z</time>
      </trkpt>
      <trkpt lat="42.51186" lon="2.03386">
        <ele>1822</ele>
        <time>2026-01-19T14:58:48Z</time>
      </trkpt>
      <trkpt lat="42.51185" lon="2.03387">
        <ele>1821.9</ele>
        <time>2026-01-19T14:58:49Z</time>
      </trkpt>
      <trkpt lat="42.51184" lon="2.03388">
        <ele>1821.7</ele>
        <time>2026-01-19T14:58:50Z</time>
      </trkpt>
      <trkpt lat="42.51183" lon="2.03386">
        <ele>1821.3</ele>
        <time>2026-01-19T14:58:51Z</time>
      </trkpt>
      <trkpt lat="42.51181" lon="2.03385">
        <ele>1820.8</ele>
        <time>2026-01-19T14:58:52Z</time>
      </trkpt>
      <trkpt lat="42.5118" lon="2.03384">
        <ele>1820.6</ele>
        <time>2026-01-19T14:58:53Z</time>
      </trkpt>
      <trkpt lat="42.51179" lon="2.03383">
        <ele>1820.4</ele>
        <time>2026-01-19T14:58:54Z</time>
      </trkpt>
      <trkpt lat="42.51178" lon="2.03382">
        <ele>1820.1</ele>
        <time>2026-01-19T14:58:55Z</time>
      </trkpt>
      <trkpt lat="42.51177" lon="2.03382">
        <ele>1819.9</ele>
        <time>2026-01-19T14:58:56Z</time>
      </trkpt>
      <trkpt lat="42.51176" lon="2.03381">
        <ele>1819.7</ele>
        <time>2026-01-19T14:58:57Z</time>
      </trkpt>
      <trkpt lat="42.51175" lon="2.0338">
        <ele>1819.5</ele>
        <time>2026-01-19T14:58:58Z</time>
      </trkpt>
      <trkpt lat="42.51174" lon="2.0338">
        <ele>1819.3</ele>
        <time>2026-01-19T14:58:59Z</time>
      </trkpt>
      <trkpt lat="42.51173" lon="2.0338">
        <ele>1819.2</ele>
        <time>2026-01-19T14:59:00Z</time>
      </trkpt>
      <trkpt lat="42.51173" lon="2.0338">
        <ele>1819.1</ele>
        <time>2026-01-19T14:59:01Z</time>
      </trkpt>
      <trkpt lat="42.51172" lon="2.0338">
        <ele>1819</ele>
        <time>2026-01-19T14:59:02Z</time>
      </trkpt>
      <trkpt lat="42.51171" lon="2.03379">
        <ele>1818.8</ele>
        <time>2026-01-19T14:59:03Z</time>
      </trkpt>
      <trkpt lat="42.5117" lon="2.03379">
        <ele>1818.7</ele>
        <time>2026-01-19T14:59:04Z</time>
      </trkpt>
      <trkpt lat="42.51169" lon="2.03379">
        <ele>1818.6</ele>
        <time>2026-01-19T14:59:05Z</time>
      </trkpt>
      <trkpt lat="42.51168" lon="2.03379">
        <ele>1818.4</ele>
        <time>2026-01-19T14:59:06Z</time>
      </trkpt>
      <trkpt lat="42.51167" lon="2.03378">
        <ele>1818.3</ele>
        <time>2026-01-19T14:59:07Z</time>
      </trkpt>
      <trkpt lat="42.51166" lon="2.03378">
        <ele>1818.2</ele>
        <time>2026-01-19T14:59:08Z</time>
      </trkpt>
      <trkpt lat="42.51165" lon="2.03377">
        <ele>1818.1</ele>
        <time>2026-01-19T14:59:09Z</time>
      </trkpt>
      <trkpt lat="42.51164" lon="2.03376">
        <ele>1818</ele>
        <time>2026-01-19T14:59:10Z</time>
      </trkpt>
      <trkpt lat="42.51164" lon="2.03375">
        <ele>1818</ele>
        <time>2026-01-19T14:59:11Z</time>
      </trkpt>
      <trkpt lat="42.51163" lon="2.03374">
        <ele>1817.9</ele>
        <time>2026-01-19T14:59:12Z</time>
      </trkpt>
      <trkpt lat="42.51163" lon="2.03374">
        <ele>1817.9</ele>
        <time>2026-01-19T14:59:13Z</time>
      </trkpt>
      <trkpt lat="42.51162" lon="2.03374">
        <ele>1817.8</ele>
        <time>2026-01-19T14:59:14Z</time>
      </trkpt>
      <trkpt lat="42.51162" lon="2.03374">
        <ele>1817.8</ele>
        <time>2026-01-19T14:59:15Z</time>
      </trkpt>
      <trkpt lat="42.51161" lon="2.03374">
        <ele>1817.7</ele>
        <time>2026-01-19T14:59:16Z</time>
      </trkpt>
      <trkpt lat="42.5116" lon="2.03373">
        <ele>1817.7</ele>
        <time>2026-01-19T14:59:17Z</time>
      </trkpt>
      <trkpt lat="42.5116" lon="2.03373">
        <ele>1817.6</ele>
        <time>2026-01-19T14:59:18Z</time>
      </trkpt>
      <trkpt lat="42.5116" lon="2.03372">
        <ele>1817.6</ele>
        <time>2026-01-19T14:59:19Z</time>
      </trkpt>
      <trkpt lat="42.51159" lon="2.03371">
        <ele>1817.6</ele>
        <time>2026-01-19T14:59:20Z</time>
      </trkpt>
      <trkpt lat="42.51159" lon="2.0337">
        <ele>1817.5</ele>
        <time>2026-01-19T14:59:21Z</time>
      </trkpt>
      <trkpt lat="42.51158" lon="2.03369">
        <ele>1817.5</ele>
        <time>2026-01-19T14:59:22Z</time>
      </trkpt>
      <trkpt lat="42.51157" lon="2.03368">
        <ele>1817.4</ele>
        <time>2026-01-19T14:59:23Z</time>
      </trkpt>
      <trkpt lat="42.51157" lon="2.03366">
        <ele>1817.4</ele>
        <time>2026-01-19T14:59:24Z</time>
      </trkpt>
      <trkpt lat="42.51156" lon="2.03365">
        <ele>1817.3</ele>
        <time>2026-01-19T14:59:25Z</time>
      </trkpt>
      <trkpt lat="42.51155" lon="2.03364">
        <ele>1817.3</ele>
        <time>2026-01-19T14:59:26Z</time>
      </trkpt>
      <trkpt lat="42.51154" lon="2.03363">
        <ele>1817.2</ele>
        <time>2026-01-19T14:59:27Z</time>
      </trkpt>
      <trkpt lat="42.51154" lon="2.03362">
        <ele>1817.2</ele>
        <time>2026-01-19T14:59:28Z</time>
      </trkpt>
      <trkpt lat="42.51153" lon="2.03361">
        <ele>1817.2</ele>
        <time>2026-01-19T14:59:29Z</time>
      </trkpt>
      <trkpt lat="42.51152" lon="2.0336">
        <ele>1817.1</ele>
        <time>2026-01-19T14:59:30Z</time>
      </trkpt>
      <trkpt lat="42.51152" lon="2.03359">
        <ele>1817.1</ele>
        <time>2026-01-19T14:59:31Z</time>
      </trkpt>
      <trkpt lat="42.51152" lon="2.03359">
        <ele>1817.1</ele>
        <time>2026-01-19T14:59:32Z</time>
      </trkpt>
      <trkpt lat="42.51152" lon="2.03358">
        <ele>1817.1</ele>
        <time>2026-01-19T14:59:33Z</time>
      </trkpt>
      <trkpt lat="42.51151" lon="2.03357">
        <ele>1817</ele>
        <time>2026-01-19T14:59:34Z</time>
      </trkpt>
      <trkpt lat="42.51151" lon="2.03356">
        <ele>1817</ele>
        <time>2026-01-19T14:59:35Z</time>
      </trkpt>
      <trkpt lat="42.51151" lon="2.03355">
        <ele>1817</ele>
        <time>2026-01-19T14:59:36Z</time>
      </trkpt>
      <trkpt lat="42.51151" lon="2.03354">
        <ele>1816.9</ele>
        <time>2026-01-19T14:59:37Z</time>
      </trkpt>
      <trkpt lat="42.51151" lon="2.03353">
        <ele>1816.9</ele>
        <time>2026-01-19T14:59:38Z</time>
      </trkpt>
      <trkpt lat="42.51151" lon="2.03353">
        <ele>1816.9</ele>
        <time>2026-01-19T14:59:39Z</time>
      </trkpt>
      <trkpt lat="42.5115" lon="2.03352">
        <ele>1816.8</ele>
        <time>2026-01-19T14:59:40Z</time>
      </trkpt>
      <trkpt lat="42.5115" lon="2.03351">
        <ele>1816.8</ele>
        <time>2026-01-19T14:59:41Z</time>
      </trkpt>
      <trkpt lat="42.51151" lon="2.0335">
        <ele>1816.7</ele>
        <time>2026-01-19T14:59:42Z</time>
      </trkpt>
      <trkpt lat="42.5115" lon="2.03349">
        <ele>1816.7</ele>
        <time>2026-01-19T14:59:43Z</time>
      </trkpt>
      <trkpt lat="42.5115" lon="2.03348">
        <ele>1816.6</ele>
        <time>2026-01-19T14:59:44Z</time>
      </trkpt>
      <trkpt lat="42.5115" lon="2.03346">
        <ele>1816.5</ele>
        <time>2026-01-19T14:59:45Z</time>
      </trkpt>
      <trkpt lat="42.5115" lon="2.03345">
        <ele>1816.5</ele>
        <time>2026-01-19T14:59:46Z</time>
      </trkpt>
      <trkpt lat="42.5115" lon="2.03344">
        <ele>1816.4</ele>
        <time>2026-01-19T14:59:47Z</time>
      </trkpt>
      <trkpt lat="42.5115" lon="2.03344">
        <ele>1816.4</ele>
        <time>2026-01-19T14:59:48Z</time>
      </trkpt>
      <trkpt lat="42.51151" lon="2.03343">
        <ele>1816.4</ele>
        <time>2026-01-19T14:59:49Z</time>
      </trkpt>
      <trkpt lat="42.51151" lon="2.03343">
        <ele>1816.4</ele>
        <time>2026-01-19T14:59:50Z</time>
      </trkpt>
      <trkpt lat="42.51151" lon="2.03342">
        <ele>1816.3</ele>
        <time>2026-01-19T14:59:51Z</time>
      </trkpt>
      <trkpt lat="42.51151" lon="2.03341">
        <ele>1816.2</ele>
        <time>2026-01-19T14:59:52Z</time>
      </trkpt>
      <trkpt lat="42.5115" lon="2.03339">
        <ele>1816.1</ele>
        <time>2026-01-19T14:59:53Z</time>
      </trkpt>
      <trkpt lat="42.5115" lon="2.03338">
        <ele>1816.1</ele>
        <time>2026-01-19T14:59:54Z</time>
      </trkpt>
      <trkpt lat="42.5115" lon="2.03337">
        <ele>1816</ele>
        <time>2026-01-19T14:59:55Z</time>
      </trkpt>
      <trkpt lat="42.5115" lon="2.03336">
        <ele>1815.9</ele>
        <time>2026-01-19T14:59:56Z</time>
      </trkpt>
      <trkpt lat="42.5115" lon="2.03335">
        <ele>1815.9</ele>
        <time>2026-01-19T14:59:57Z</time>
      </trkpt>
      <trkpt lat="42.51149" lon="2.03333">
        <ele>1815.8</ele>
        <time>2026-01-19T14:59:58Z</time>
      </trkpt>
      <trkpt lat="42.51149" lon="2.03333">
        <ele>1815.8</ele>
        <time>2026-01-19T14:59:59Z</time>
      </trkpt>
      <trkpt lat="42.51148" lon="2.03332">
        <ele>1815.7</ele>
        <time>2026-01-19T15:00:00Z</time>
      </trkpt>
      <trkpt lat="42.51147" lon="2.03332">
        <ele>1815.6</ele>
        <time>2026-01-19T15:00:01Z</time>
      </trkpt>
      <trkpt lat="42.51146" lon="2.03331">
        <ele>1815.5</ele>
        <time>2026-01-19T15:00:02Z</time>
      </trkpt>
      <trkpt lat="42.51145" lon="2.03329">
        <ele>1815.5</ele>
        <time>2026-01-19T15:00:03Z</time>
      </trkpt>
      <trkpt lat="42.51145" lon="2.03328">
        <ele>1815.4</ele>
        <time>2026-01-19T15:00:04Z</time>
      </trkpt>
      <trkpt lat="42.51144" lon="2.03327">
        <ele>1815.3</ele>
        <time>2026-01-19T15:00:05Z</time>
      </trkpt>
      <trkpt lat="42.51144" lon="2.03325">
        <ele>1815.2</ele>
        <time>2026-01-19T15:00:06Z</time>
      </trkpt>
      <trkpt lat="42.51144" lon="2.03323">
        <ele>1815.1</ele>
        <time>2026-01-19T15:00:07Z</time>
      </trkpt>
      <trkpt lat="42.51144" lon="2.03321">
        <ele>1815</ele>
        <time>2026-01-19T15:00:08Z</time>
      </trkpt>
      <trkpt lat="42.51143" lon="2.0332">
        <ele>1814.9</ele>
        <time>2026-01-19T15:00:09Z</time>
      </trkpt>
      <trkpt lat="42.51142" lon="2.03317">
        <ele>1814.7</ele>
        <time>2026-01-19T15:00:10Z</time>
      </trkpt>
      <trkpt lat="42.51141" lon="2.03317">
        <ele>1814.7</ele>
        <time>2026-01-19T15:00:11Z</time>
      </trkpt>
      <trkpt lat="42.51141" lon="2.03316">
        <ele>1814.6</ele>
        <time>2026-01-19T15:00:12Z</time>
      </trkpt>
      <trkpt lat="42.5114" lon="2.03314">
        <ele>1814.5</ele>
        <time>2026-01-19T15:00:13Z</time>
      </trkpt>
      <trkpt lat="42.5114" lon="2.03312">
        <ele>1814.3</ele>
        <time>2026-01-19T15:00:14Z</time>
      </trkpt>
      <trkpt lat="42.5114" lon="2.0331">
        <ele>1814.2</ele>
        <time>2026-01-19T15:00:15Z</time>
      </trkpt>
      <trkpt lat="42.51139" lon="2.03309">
        <ele>1814.1</ele>
        <time>2026-01-19T15:00:16Z</time>
      </trkpt>
      <trkpt lat="42.51139" lon="2.03308">
        <ele>1814</ele>
        <time>2026-01-19T15:00:17Z</time>
      </trkpt>
      <trkpt lat="42.51138" lon="2.03307">
        <ele>1813.9</ele>
        <time>2026-01-19T15:00:18Z</time>
      </trkpt>
      <trkpt lat="42.51138" lon="2.03307">
        <ele>1813.8</ele>
        <time>2026-01-19T15:00:19Z</time>
      </trkpt>
      <trkpt lat="42.51137" lon="2.03306">
        <ele>1813.7</ele>
        <time>2026-01-19T15:00:20Z</time>
      </trkpt>
      <trkpt lat="42.51136" lon="2.03305">
        <ele>1813.6</ele>
        <time>2026-01-19T15:00:21Z</time>
      </trkpt>
      <trkpt lat="42.51136" lon="2.03304">
        <ele>1813.5</ele>
        <time>2026-01-19T15:00:22Z</time>
      </trkpt>
      <trkpt lat="42.51135" lon="2.03303">
        <ele>1813.3</ele>
        <time>2026-01-19T15:00:23Z</time>
      </trkpt>
      <trkpt lat="42.51134" lon="2.03302">
        <ele>1813.2</ele>
        <time>2026-01-19T15:00:24Z</time>
      </trkpt>
      <trkpt lat="42.51133" lon="2.033">
        <ele>1812.9</ele>
        <time>2026-01-19T15:00:25Z</time>
      </trkpt>
      <trkpt lat="42.51133" lon="2.03299">
        <ele>1812.8</ele>
        <time>2026-01-19T15:00:26Z</time>
      </trkpt>
      <trkpt lat="42.51132" lon="2.03298">
        <ele>1812.6</ele>
        <time>2026-01-19T15:00:27Z</time>
      </trkpt>
      <trkpt lat="42.5113" lon="2.03296">
        <ele>1812.3</ele>
        <time>2026-01-19T15:00:28Z</time>
      </trkpt>
      <trkpt lat="42.5113" lon="2.03295">
        <ele>1812.2</ele>
        <time>2026-01-19T15:00:29Z</time>
      </trkpt>
      <trkpt lat="42.51129" lon="2.03295">
        <ele>1812.1</ele>
        <time>2026-01-19T15:00:30Z</time>
      </trkpt>
      <trkpt lat="42.51128" lon="2.03294">
        <ele>1811.8</ele>
        <time>2026-01-19T15:00:31Z</time>
      </trkpt>
      <trkpt lat="42.51127" lon="2.03292">
        <ele>1811.6</ele>
        <time>2026-01-19T15:00:32Z</time>
      </trkpt>
      <trkpt lat="42.51126" lon="2.03291">
        <ele>1811.4</ele>
        <time>2026-01-19T15:00:33Z</time>
      </trkpt>
      <trkpt lat="42.51125" lon="2.03289">
        <ele>1811.1</ele>
        <time>2026-01-19T15:00:34Z</time>
      </trkpt>
      <trkpt lat="42.51124" lon="2.03288">
        <ele>1810.9</ele>
        <time>2026-01-19T15:00:35Z</time>
      </trkpt>
      <trkpt lat="42.51123" lon="2.03288">
        <ele>1810.7</ele>
        <time>2026-01-19T15:00:36Z</time>
      </trkpt>
      <trkpt lat="42.51122" lon="2.03287">
        <ele>1810.5</ele>
        <time>2026-01-19T15:00:37Z</time>
      </trkpt>
      <trkpt lat="42.51121" lon="2.03287">
        <ele>1810.3</ele>
        <time>2026-01-19T15:00:38Z</time>
      </trkpt>
      <trkpt lat="42.5112" lon="2.03287">
        <ele>1810.1</ele>
        <time>2026-01-19T15:00:39Z</time>
      </trkpt>
      <trkpt lat="42.51119" lon="2.03287">
        <ele>1810</ele>
        <time>2026-01-19T15:00:40Z</time>
      </trkpt>
      <trkpt lat="42.51118" lon="2.03286">
        <ele>1809.8</ele>
        <time>2026-01-19T15:00:41Z</time>
      </trkpt>
      <trkpt lat="42.51117" lon="2.03286">
        <ele>1809.6</ele>
        <time>2026-01-19T15:00:42Z</time>
      </trkpt>
      <trkpt lat="42.51116" lon="2.03287">
        <ele>1809.5</ele>
        <time>2026-01-19T15:00:43Z</time>
      </trkpt>
      <trkpt lat="42.51115" lon="2.03286">
        <ele>1809.3</ele>
        <time>2026-01-19T15:00:44Z</time>
      </trkpt>
      <trkpt lat="42.51114" lon="2.03286">
        <ele>1809.1</ele>
        <time>2026-01-19T15:00:45Z</time>
      </trkpt>
      <trkpt lat="42.51113" lon="2.03286">
        <ele>1808.9</ele>
        <time>2026-01-19T15:00:46Z</time>
      </trkpt>
      <trkpt lat="42.51112" lon="2.03286">
        <ele>1808.7</ele>
        <time>2026-01-19T15:00:47Z</time>
      </trkpt>
      <trkpt lat="42.51111" lon="2.03286">
        <ele>1808.6</ele>
        <time>2026-01-19T15:00:48Z</time>
      </trkpt>
      <trkpt lat="42.5111" lon="2.03286">
        <ele>1808.3</ele>
        <time>2026-01-19T15:00:49Z</time>
      </trkpt>
      <trkpt lat="42.5111" lon="2.03285">
        <ele>1808.2</ele>
        <time>2026-01-19T15:00:50Z</time>
      </trkpt>
      <trkpt lat="42.51109" lon="2.03284">
        <ele>1808</ele>
        <time>2026-01-19T15:00:51Z</time>
      </trkpt>
      <trkpt lat="42.51108" lon="2.03284">
        <ele>1807.8</ele>
        <time>2026-01-19T15:00:52Z</time>
      </trkpt>
      <trkpt lat="42.51107" lon="2.03283">
        <ele>1807.6</ele>
        <time>2026-01-19T15:00:53Z</time>
      </trkpt>
      <trkpt lat="42.51106" lon="2.03283">
        <ele>1807.3</ele>
        <time>2026-01-19T15:00:54Z</time>
      </trkpt>
      <trkpt lat="42.51105" lon="2.03283">
        <ele>1807.1</ele>
        <time>2026-01-19T15:00:55Z</time>
      </trkpt>
      <trkpt lat="42.51104" lon="2.03283">
        <ele>1806.9</ele>
        <time>2026-01-19T15:00:56Z</time>
      </trkpt>
      <trkpt lat="42.51104" lon="2.03284">
        <ele>1806.7</ele>
        <time>2026-01-19T15:00:57Z</time>
      </trkpt>
      <trkpt lat="42.51103" lon="2.03284">
        <ele>1806.5</ele>
        <time>2026-01-19T15:00:58Z</time>
      </trkpt>
      <trkpt lat="42.51102" lon="2.03285">
        <ele>1806.3</ele>
        <time>2026-01-19T15:00:59Z</time>
      </trkpt>
      <trkpt lat="42.51101" lon="2.03285">
        <ele>1806.1</ele>
        <time>2026-01-19T15:01:00Z</time>
      </trkpt>
      <trkpt lat="42.511" lon="2.03286">
        <ele>1805.9</ele>
        <time>2026-01-19T15:01:01Z</time>
      </trkpt>
      <trkpt lat="42.51099" lon="2.03286">
        <ele>1805.7</ele>
        <time>2026-01-19T15:01:02Z</time>
      </trkpt>
      <trkpt lat="42.51098" lon="2.03287">
        <ele>1805.4</ele>
        <time>2026-01-19T15:01:03Z</time>
      </trkpt>
      <trkpt lat="42.51097" lon="2.03287">
        <ele>1805.2</ele>
        <time>2026-01-19T15:01:04Z</time>
      </trkpt>
      <trkpt lat="42.51096" lon="2.03288">
        <ele>1805</ele>
        <time>2026-01-19T15:01:05Z</time>
      </trkpt>
      <trkpt lat="42.51096" lon="2.03289">
        <ele>1804.7</ele>
        <time>2026-01-19T15:01:06Z</time>
      </trkpt>
      <trkpt lat="42.51095" lon="2.03289">
        <ele>1804.6</ele>
        <time>2026-01-19T15:01:07Z</time>
      </trkpt>
      <trkpt lat="42.51094" lon="2.0329">
        <ele>1804.4</ele>
        <time>2026-01-19T15:01:08Z</time>
      </trkpt>
      <trkpt lat="42.51094" lon="2.03291">
        <ele>1804.2</ele>
        <time>2026-01-19T15:01:09Z</time>
      </trkpt>
      <trkpt lat="42.51094" lon="2.03292">
        <ele>1804</ele>
        <time>2026-01-19T15:01:10Z</time>
      </trkpt>
      <trkpt lat="42.51095" lon="2.03294">
        <ele>1803.7</ele>
        <time>2026-01-19T15:01:11Z</time>
      </trkpt>
      <trkpt lat="42.51095" lon="2.03295">
        <ele>1803.5</ele>
        <time>2026-01-19T15:01:12Z</time>
      </trkpt>
      <trkpt lat="42.51095" lon="2.03296">
        <ele>1803.4</ele>
        <time>2026-01-19T15:01:13Z</time>
      </trkpt>
      <trkpt lat="42.51095" lon="2.03297">
        <ele>1803.3</ele>
        <time>2026-01-19T15:01:14Z</time>
      </trkpt>
      <trkpt lat="42.51095" lon="2.03298">
        <ele>1803.1</ele>
        <time>2026-01-19T15:01:15Z</time>
      </trkpt>
      <trkpt lat="42.51096" lon="2.03299">
        <ele>1802.9</ele>
        <time>2026-01-19T15:01:16Z</time>
      </trkpt>
      <trkpt lat="42.51096" lon="2.033">
        <ele>1802.8</ele>
        <time>2026-01-19T15:01:17Z</time>
      </trkpt>
      <trkpt lat="42.51096" lon="2.03301">
        <ele>1802.7</ele>
        <time>2026-01-19T15:01:18Z</time>
      </trkpt>
      <trkpt lat="42.51096" lon="2.03302">
        <ele>1802.6</ele>
        <time>2026-01-19T15:01:19Z</time>
      </trkpt>
      <trkpt lat="42.51096" lon="2.03303">
        <ele>1802.4</ele>
        <time>2026-01-19T15:01:20Z</time>
      </trkpt>
      <trkpt lat="42.51096" lon="2.03304">
        <ele>1802.3</ele>
        <time>2026-01-19T15:01:21Z</time>
      </trkpt>
      <trkpt lat="42.51094" lon="2.03304">
        <ele>1802</ele>
        <time>2026-01-19T15:01:22Z</time>
      </trkpt>
      <trkpt lat="42.51093" lon="2.03304">
        <ele>1801.9</ele>
        <time>2026-01-19T15:01:23Z</time>
      </trkpt>
      <trkpt lat="42.51092" lon="2.03303">
        <ele>1801.8</ele>
        <time>2026-01-19T15:01:24Z</time>
      </trkpt>
      <trkpt lat="42.51091" lon="2.03302">
        <ele>1801.6</ele>
        <time>2026-01-19T15:01:25Z</time>
      </trkpt>
      <trkpt lat="42.5109" lon="2.03301">
        <ele>1801.4</ele>
        <time>2026-01-19T15:01:26Z</time>
      </trkpt>
      <trkpt lat="42.51089" lon="2.03299">
        <ele>1801.3</ele>
        <time>2026-01-19T15:01:27Z</time>
      </trkpt>
      <trkpt lat="42.51087" lon="2.03298">
        <ele>1801.1</ele>
        <time>2026-01-19T15:01:28Z</time>
      </trkpt>
      <trkpt lat="42.51087" lon="2.03298">
        <ele>1801</ele>
        <time>2026-01-19T15:01:29Z</time>
      </trkpt>
      <trkpt lat="42.51086" lon="2.03297">
        <ele>1800.9</ele>
        <time>2026-01-19T15:01:30Z</time>
      </trkpt>
      <trkpt lat="42.51085" lon="2.03295">
        <ele>1800.8</ele>
        <time>2026-01-19T15:01:31Z</time>
      </trkpt>
      <trkpt lat="42.51084" lon="2.03294">
        <ele>1800.7</ele>
        <time>2026-01-19T15:01:32Z</time>
      </trkpt>
      <trkpt lat="42.51084" lon="2.03293">
        <ele>1800.6</ele>
        <time>2026-01-19T15:01:33Z</time>
      </trkpt>
      <trkpt lat="42.51083" lon="2.03292">
        <ele>1800.5</ele>
        <time>2026-01-19T15:01:34Z</time>
      </trkpt>
      <trkpt lat="42.51082" lon="2.03292">
        <ele>1800.4</ele>
        <time>2026-01-19T15:01:35Z</time>
      </trkpt>
      <trkpt lat="42.51082" lon="2.03291">
        <ele>1800.3</ele>
        <time>2026-01-19T15:01:36Z</time>
      </trkpt>
      <trkpt lat="42.51081" lon="2.0329">
        <ele>1800.2</ele>
        <time>2026-01-19T15:01:37Z</time>
      </trkpt>
      <trkpt lat="42.51079" lon="2.03289">
        <ele>1800</ele>
        <time>2026-01-19T15:01:38Z</time>
      </trkpt>
      <trkpt lat="42.51078" lon="2.03288">
        <ele>1799.9</ele>
        <time>2026-01-19T15:01:39Z</time>
      </trkpt>
      <trkpt lat="42.51077" lon="2.03288">
        <ele>1799.8</ele>
        <time>2026-01-19T15:01:40Z</time>
      </trkpt>
      <trkpt lat="42.51076" lon="2.03286">
        <ele>1799.6</ele>
        <time>2026-01-19T15:01:41Z</time>
      </trkpt>
      <trkpt lat="42.51075" lon="2.03285">
        <ele>1799.5</ele>
        <time>2026-01-19T15:01:42Z</time>
      </trkpt>
      <trkpt lat="42.51074" lon="2.03284">
        <ele>1799.4</ele>
        <time>2026-01-19T15:01:43Z</time>
      </trkpt>
      <trkpt lat="42.51073" lon="2.03283">
        <ele>1799.3</ele>
        <time>2026-01-19T15:01:44Z</time>
      </trkpt>
      <trkpt lat="42.51072" lon="2.03281">
        <ele>1799.1</ele>
        <time>2026-01-19T15:01:45Z</time>
      </trkpt>
      <trkpt lat="42.51071" lon="2.03279">
        <ele>1798.8</ele>
        <time>2026-01-19T15:01:46Z</time>
      </trkpt>
      <trkpt lat="42.5107" lon="2.03278">
        <ele>1798.7</ele>
        <time>2026-01-19T15:01:47Z</time>
      </trkpt>
      <trkpt lat="42.5107" lon="2.03277">
        <ele>1798.6</ele>
        <time>2026-01-19T15:01:48Z</time>
      </trkpt>
      <trkpt lat="42.51069" lon="2.03276">
        <ele>1798.4</ele>
        <time>2026-01-19T15:01:49Z</time>
      </trkpt>
      <trkpt lat="42.51069" lon="2.03274">
        <ele>1798.2</ele>
        <time>2026-01-19T15:01:50Z</time>
      </trkpt>
      <trkpt lat="42.51068" lon="2.03273">
        <ele>1798</ele>
        <time>2026-01-19T15:01:51Z</time>
      </trkpt>
      <trkpt lat="42.51068" lon="2.03272">
        <ele>1797.9</ele>
        <time>2026-01-19T15:01:52Z</time>
      </trkpt>
      <trkpt lat="42.51067" lon="2.03271">
        <ele>1797.7</ele>
        <time>2026-01-19T15:01:53Z</time>
      </trkpt>
      <trkpt lat="42.51066" lon="2.03271">
        <ele>1797.6</ele>
        <time>2026-01-19T15:01:54Z</time>
      </trkpt>
      <trkpt lat="42.51065" lon="2.03271">
        <ele>1797.4</ele>
        <time>2026-01-19T15:01:55Z</time>
      </trkpt>
      <trkpt lat="42.51064" lon="2.03271">
        <ele>1797.1</ele>
        <time>2026-01-19T15:01:56Z</time>
      </trkpt>
      <trkpt lat="42.51063" lon="2.03271">
        <ele>1797</ele>
        <time>2026-01-19T15:01:57Z</time>
      </trkpt>
      <trkpt lat="42.51062" lon="2.0327">
        <ele>1796.8</ele>
        <time>2026-01-19T15:01:58Z</time>
      </trkpt>
      <trkpt lat="42.51061" lon="2.0327">
        <ele>1796.6</ele>
        <time>2026-01-19T15:01:59Z</time>
      </trkpt>
      <trkpt lat="42.5106" lon="2.0327">
        <ele>1796.4</ele>
        <time>2026-01-19T15:02:00Z</time>
      </trkpt>
      <trkpt lat="42.51059" lon="2.03269">
        <ele>1796.1</ele>
        <time>2026-01-19T15:02:01Z</time>
      </trkpt>
      <trkpt lat="42.51058" lon="2.0327">
        <ele>1795.9</ele>
        <time>2026-01-19T15:02:02Z</time>
      </trkpt>
      <trkpt lat="42.51057" lon="2.03271">
        <ele>1795.6</ele>
        <time>2026-01-19T15:02:03Z</time>
      </trkpt>
      <trkpt lat="42.51056" lon="2.03272">
        <ele>1795.4</ele>
        <time>2026-01-19T15:02:04Z</time>
      </trkpt>
      <trkpt lat="42.51055" lon="2.03273">
        <ele>1795.1</ele>
        <time>2026-01-19T15:02:05Z</time>
      </trkpt>
      <trkpt lat="42.51054" lon="2.03273">
        <ele>1794.9</ele>
        <time>2026-01-19T15:02:06Z</time>
      </trkpt>
      <trkpt lat="42.51053" lon="2.03273">
        <ele>1794.6</ele>
        <time>2026-01-19T15:02:07Z</time>
      </trkpt>
      <trkpt lat="42.51052" lon="2.03272">
        <ele>1794.4</ele>
        <time>2026-01-19T15:02:08Z</time>
      </trkpt>
      <trkpt lat="42.51051" lon="2.03272">
        <ele>1794.2</ele>
        <time>2026-01-19T15:02:09Z</time>
      </trkpt>
      <trkpt lat="42.51051" lon="2.0327">
        <ele>1794.3</ele>
        <time>2026-01-19T15:02:10Z</time>
      </trkpt>
      <trkpt lat="42.5105" lon="2.03269">
        <ele>1794.4</ele>
        <time>2026-01-19T15:02:11Z</time>
      </trkpt>
      <trkpt lat="42.51049" lon="2.03268">
        <ele>1794.4</ele>
        <time>2026-01-19T15:02:12Z</time>
      </trkpt>
      <trkpt lat="42.51048" lon="2.03266">
        <ele>1794.5</ele>
        <time>2026-01-19T15:02:13Z</time>
      </trkpt>
      <trkpt lat="42.51048" lon="2.03266">
        <ele>1794</ele>
        <time>2026-01-19T15:02:14Z</time>
      </trkpt>
      <trkpt lat="42.51047" lon="2.03264">
        <ele>1794.1</ele>
        <time>2026-01-19T15:02:15Z</time>
      </trkpt>
      <trkpt lat="42.51047" lon="2.03264">
        <ele>1794.1</ele>
        <time>2026-01-19T15:02:16Z</time>
      </trkpt>
      <trkpt lat="42.51046" lon="2.03263">
        <ele>1794.2</ele>
        <time>2026-01-19T15:02:17Z</time>
      </trkpt>
      <trkpt lat="42.51047" lon="2.03263">
        <ele>1794.3</ele>
        <time>2026-01-19T15:02:18Z</time>
      </trkpt>
      <trkpt lat="42.51047" lon="2.03263">
        <ele>1794.4</ele>
        <time>2026-01-19T15:02:19Z</time>
      </trkpt>
      <trkpt lat="42.51047" lon="2.03263">
        <ele>1794.5</ele>
        <time>2026-01-19T15:02:20Z</time>
      </trkpt>
      <trkpt lat="42.51047" lon="2.03263">
        <ele>1794.6</ele>
        <time>2026-01-19T15:02:21Z</time>
      </trkpt>
      <trkpt lat="42.51047" lon="2.03263">
        <ele>1794.6</ele>
        <time>2026-01-19T15:02:22Z</time>
      </trkpt>
      <trkpt lat="42.51047" lon="2.03263">
        <ele>1794.7</ele>
        <time>2026-01-19T15:02:23Z</time>
      </trkpt>
      <trkpt lat="42.51047" lon="2.03263">
        <ele>1794.8</ele>
        <time>2026-01-19T15:02:24Z</time>
      </trkpt>
      <trkpt lat="42.51046" lon="2.03262">
        <ele>1794.9</ele>
        <time>2026-01-19T15:02:25Z</time>
      </trkpt>
      <trkpt lat="42.51045" lon="2.03261">
        <ele>1795</ele>
        <time>2026-01-19T15:02:26Z</time>
      </trkpt>
      <trkpt lat="42.51045" lon="2.03259">
        <ele>1794.4</ele>
        <time>2026-01-19T15:02:27Z</time>
      </trkpt>
      <trkpt lat="42.51044" lon="2.03258">
        <ele>1794.5</ele>
        <time>2026-01-19T15:02:28Z</time>
      </trkpt>
      <trkpt lat="42.51044" lon="2.03255">
        <ele>1794.6</ele>
        <time>2026-01-19T15:02:29Z</time>
      </trkpt>
      <trkpt lat="42.51044" lon="2.03254">
        <ele>1794.6</ele>
        <time>2026-01-19T15:02:30Z</time>
      </trkpt>
      <trkpt lat="42.51044" lon="2.03253">
        <ele>1794.7</ele>
        <time>2026-01-19T15:02:31Z</time>
      </trkpt>
      <trkpt lat="42.51044" lon="2.03251">
        <ele>1794.8</ele>
        <time>2026-01-19T15:02:32Z</time>
      </trkpt>
      <trkpt lat="42.51044" lon="2.0325">
        <ele>1794.9</ele>
        <time>2026-01-19T15:02:33Z</time>
      </trkpt>
      <trkpt lat="42.51045" lon="2.03248">
        <ele>1794.9</ele>
        <time>2026-01-19T15:02:34Z</time>
      </trkpt>
      <trkpt lat="42.51045" lon="2.03247">
        <ele>1795.5</ele>
        <time>2026-01-19T15:02:35Z</time>
      </trkpt>
      <trkpt lat="42.51046" lon="2.03246">
        <ele>1795.6</ele>
        <time>2026-01-19T15:02:36Z</time>
      </trkpt>
      <trkpt lat="42.51046" lon="2.03245">
        <ele>1795.7</ele>
        <time>2026-01-19T15:02:37Z</time>
      </trkpt>
      <trkpt lat="42.51046" lon="2.03243">
        <ele>1795.7</ele>
        <time>2026-01-19T15:02:38Z</time>
      </trkpt>
      <trkpt lat="42.51046" lon="2.03242">
        <ele>1795.8</ele>
        <time>2026-01-19T15:02:39Z</time>
      </trkpt>
      <trkpt lat="42.51046" lon="2.03241">
        <ele>1795.8</ele>
        <time>2026-01-19T15:02:40Z</time>
      </trkpt>
      <trkpt lat="42.51045" lon="2.0324">
        <ele>1795.9</ele>
        <time>2026-01-19T15:02:41Z</time>
      </trkpt>
      <trkpt lat="42.51044" lon="2.03239">
        <ele>1795.5</ele>
        <time>2026-01-19T15:02:42Z</time>
      </trkpt>
      <trkpt lat="42.51043" lon="2.03239">
        <ele>1795.6</ele>
        <time>2026-01-19T15:02:43Z</time>
      </trkpt>
      <trkpt lat="42.51042" lon="2.03238">
        <ele>1795.6</ele>
        <time>2026-01-19T15:02:44Z</time>
      </trkpt>
      <trkpt lat="42.51041" lon="2.03237">
        <ele>1795.2</ele>
        <time>2026-01-19T15:02:45Z</time>
      </trkpt>
      <trkpt lat="42.51041" lon="2.03236">
        <ele>1795.3</ele>
        <time>2026-01-19T15:02:46Z</time>
      </trkpt>
      <trkpt lat="42.5104" lon="2.03235">
        <ele>1795.3</ele>
        <time>2026-01-19T15:02:47Z</time>
      </trkpt>
      <trkpt lat="42.5104" lon="2.03234">
        <ele>1795.4</ele>
        <time>2026-01-19T15:02:48Z</time>
      </trkpt>
      <trkpt lat="42.51039" lon="2.03233">
        <ele>1795.5</ele>
        <time>2026-01-19T15:02:49Z</time>
      </trkpt>
      <trkpt lat="42.51039" lon="2.03232">
        <ele>1795.5</ele>
        <time>2026-01-19T15:02:50Z</time>
      </trkpt>
      <trkpt lat="42.51039" lon="2.03231">
        <ele>1795.1</ele>
        <time>2026-01-19T15:02:51Z</time>
      </trkpt>
      <trkpt lat="42.51039" lon="2.0323">
        <ele>1795.6</ele>
        <time>2026-01-19T15:02:52Z</time>
      </trkpt>
      <trkpt lat="42.5104" lon="2.03229">
        <ele>1795.7</ele>
        <time>2026-01-19T15:02:53Z</time>
      </trkpt>
      <trkpt lat="42.5104" lon="2.03229">
        <ele>1795.8</ele>
        <time>2026-01-19T15:02:54Z</time>
      </trkpt>
      <trkpt lat="42.5104" lon="2.03229">
        <ele>1795.9</ele>
        <time>2026-01-19T15:02:55Z</time>
      </trkpt>
      <trkpt lat="42.5104" lon="2.03228">
        <ele>1796</ele>
        <time>2026-01-19T15:02:56Z</time>
      </trkpt>
      <trkpt lat="42.5104" lon="2.03227">
        <ele>1796</ele>
        <time>2026-01-19T15:02:57Z</time>
      </trkpt>
      <trkpt lat="42.5104" lon="2.03226">
        <ele>1796.1</ele>
        <time>2026-01-19T15:02:58Z</time>
      </trkpt>
      <trkpt lat="42.5104" lon="2.03226">
        <ele>1796.1</ele>
        <time>2026-01-19T15:02:59Z</time>
      </trkpt>
      <trkpt lat="42.5104" lon="2.03226">
        <ele>1796.3</ele>
        <time>2026-01-19T15:03:00Z</time>
      </trkpt>
      <trkpt lat="42.5104" lon="2.03226">
        <ele>1796.4</ele>
        <time>2026-01-19T15:03:01Z</time>
      </trkpt>
      <trkpt lat="42.5104" lon="2.03226">
        <ele>1796.4</ele>
        <time>2026-01-19T15:03:02Z</time>
      </trkpt>
      <trkpt lat="42.5104" lon="2.03226">
        <ele>1796.5</ele>
        <time>2026-01-19T15:03:03Z</time>
      </trkpt>
      <trkpt lat="42.5104" lon="2.03226">
        <ele>1796.6</ele>
        <time>2026-01-19T15:03:04Z</time>
      </trkpt>
      <trkpt lat="42.5104" lon="2.03226">
        <ele>1796.7</ele>
        <time>2026-01-19T15:03:05Z</time>
      </trkpt>
      <trkpt lat="42.5104" lon="2.03225">
        <ele>1796.7</ele>
        <time>2026-01-19T15:03:06Z</time>
      </trkpt>
      <trkpt lat="42.5104" lon="2.03222">
        <ele>1796.8</ele>
        <time>2026-01-19T15:03:07Z</time>
      </trkpt>
      <trkpt lat="42.5104" lon="2.0322">
        <ele>1796.8</ele>
        <time>2026-01-19T15:03:08Z</time>
      </trkpt>
      <trkpt lat="42.5104" lon="2.03219">
        <ele>1796.8</ele>
        <time>2026-01-19T15:03:09Z</time>
      </trkpt>
      <trkpt lat="42.5104" lon="2.03217">
        <ele>1796.9</ele>
        <time>2026-01-19T15:03:10Z</time>
      </trkpt>
      <trkpt lat="42.51039" lon="2.03216">
        <ele>1796.9</ele>
        <time>2026-01-19T15:03:11Z</time>
      </trkpt>
      <trkpt lat="42.51039" lon="2.03213">
        <ele>1796.9</ele>
        <time>2026-01-19T15:03:12Z</time>
      </trkpt>
      <trkpt lat="42.51039" lon="2.03211">
        <ele>1796.5</ele>
        <time>2026-01-19T15:03:13Z</time>
      </trkpt>
      <trkpt lat="42.51039" lon="2.0321">
        <ele>1796.6</ele>
        <time>2026-01-19T15:03:14Z</time>
      </trkpt>
      <trkpt lat="42.51038" lon="2.03208">
        <ele>1796.6</ele>
        <time>2026-01-19T15:03:15Z</time>
      </trkpt>
      <trkpt lat="42.51037" lon="2.03207">
        <ele>1796.7</ele>
        <time>2026-01-19T15:03:16Z</time>
      </trkpt>
      <trkpt lat="42.51037" lon="2.03204">
        <ele>1796.6</ele>
        <time>2026-01-19T15:03:17Z</time>
      </trkpt>
      <trkpt lat="42.51037" lon="2.03203">
        <ele>1796.7</ele>
        <time>2026-01-19T15:03:18Z</time>
      </trkpt>
      <trkpt lat="42.51037" lon="2.03202">
        <ele>1796.8</ele>
        <time>2026-01-19T15:03:19Z</time>
      </trkpt>
      <trkpt lat="42.51037" lon="2.032">
        <ele>1796.8</ele>
        <time>2026-01-19T15:03:20Z</time>
      </trkpt>
      <trkpt lat="42.51037" lon="2.03199">
        <ele>1796.8</ele>
        <time>2026-01-19T15:03:21Z</time>
      </trkpt>
      <trkpt lat="42.51037" lon="2.03197">
        <ele>1796.9</ele>
        <time>2026-01-19T15:03:22Z</time>
      </trkpt>
      <trkpt lat="42.51036" lon="2.03196">
        <ele>1797</ele>
        <time>2026-01-19T15:03:23Z</time>
      </trkpt>
      <trkpt lat="42.51036" lon="2.03194">
        <ele>1796.9</ele>
        <time>2026-01-19T15:03:24Z</time>
      </trkpt>
      <trkpt lat="42.51036" lon="2.03193">
        <ele>1797</ele>
        <time>2026-01-19T15:03:25Z</time>
      </trkpt>
      <trkpt lat="42.51036" lon="2.03191">
        <ele>1797.1</ele>
        <time>2026-01-19T15:03:26Z</time>
      </trkpt>
      <trkpt lat="42.51035" lon="2.0319">
        <ele>1796.6</ele>
        <time>2026-01-19T15:03:27Z</time>
      </trkpt>
      <trkpt lat="42.51035" lon="2.03189">
        <ele>1796.7</ele>
        <time>2026-01-19T15:03:28Z</time>
      </trkpt>
      <trkpt lat="42.51034" lon="2.03188">
        <ele>1796.8</ele>
        <time>2026-01-19T15:03:29Z</time>
      </trkpt>
      <trkpt lat="42.51033" lon="2.03186">
        <ele>1796.7</ele>
        <time>2026-01-19T15:03:30Z</time>
      </trkpt>
      <trkpt lat="42.51032" lon="2.03185">
        <ele>1796.5</ele>
        <time>2026-01-19T15:03:31Z</time>
      </trkpt>
      <trkpt lat="42.51031" lon="2.03183">
        <ele>1796.5</ele>
        <time>2026-01-19T15:03:32Z</time>
      </trkpt>
      <trkpt lat="42.51031" lon="2.03182">
        <ele>1796.5</ele>
        <time>2026-01-19T15:03:33Z</time>
      </trkpt>
      <trkpt lat="42.5103" lon="2.03181">
        <ele>1796.6</ele>
        <time>2026-01-19T15:03:34Z</time>
      </trkpt>
      <trkpt lat="42.5103" lon="2.03179">
        <ele>1796.7</ele>
        <time>2026-01-19T15:03:35Z</time>
      </trkpt>
      <trkpt lat="42.51029" lon="2.03178">
        <ele>1796.3</ele>
        <time>2026-01-19T15:03:36Z</time>
      </trkpt>
      <trkpt lat="42.51028" lon="2.03177">
        <ele>1796.4</ele>
        <time>2026-01-19T15:03:37Z</time>
      </trkpt>
      <trkpt lat="42.51027" lon="2.03175">
        <ele>1796.5</ele>
        <time>2026-01-19T15:03:38Z</time>
      </trkpt>
      <trkpt lat="42.51027" lon="2.03174">
        <ele>1796.5</ele>
        <time>2026-01-19T15:03:39Z</time>
      </trkpt>
      <trkpt lat="42.51026" lon="2.03173">
        <ele>1796.5</ele>
        <time>2026-01-19T15:03:40Z</time>
      </trkpt>
      <trkpt lat="42.51026" lon="2.03172">
        <ele>1796.3</ele>
        <time>2026-01-19T15:03:41Z</time>
      </trkpt>
      <trkpt lat="42.51025" lon="2.03171">
        <ele>1796.4</ele>
        <time>2026-01-19T15:03:42Z</time>
      </trkpt>
      <trkpt lat="42.51025" lon="2.03169">
        <ele>1796.4</ele>
        <time>2026-01-19T15:03:43Z</time>
      </trkpt>
      <trkpt lat="42.51025" lon="2.03168">
        <ele>1796.5</ele>
        <time>2026-01-19T15:03:44Z</time>
      </trkpt>
      <trkpt lat="42.51025" lon="2.03167">
        <ele>1796.6</ele>
        <time>2026-01-19T15:03:45Z</time>
      </trkpt>
      <trkpt lat="42.51025" lon="2.03165">
        <ele>1796.6</ele>
        <time>2026-01-19T15:03:46Z</time>
      </trkpt>
      <trkpt lat="42.51024" lon="2.03164">
        <ele>1796.6</ele>
        <time>2026-01-19T15:03:47Z</time>
      </trkpt>
      <trkpt lat="42.51024" lon="2.03163">
        <ele>1796.7</ele>
        <time>2026-01-19T15:03:48Z</time>
      </trkpt>
      <trkpt lat="42.51023" lon="2.03162">
        <ele>1796.8</ele>
        <time>2026-01-19T15:03:49Z</time>
      </trkpt>
      <trkpt lat="42.51023" lon="2.0316">
        <ele>1796.5</ele>
        <time>2026-01-19T15:03:50Z</time>
      </trkpt>
      <trkpt lat="42.51022" lon="2.03159">
        <ele>1796.6</ele>
        <time>2026-01-19T15:03:51Z</time>
      </trkpt>
      <trkpt lat="42.51021" lon="2.03158">
        <ele>1796.4</ele>
        <time>2026-01-19T15:03:52Z</time>
      </trkpt>
      <trkpt lat="42.51021" lon="2.03157">
        <ele>1796.2</ele>
        <time>2026-01-19T15:03:53Z</time>
      </trkpt>
      <trkpt lat="42.5102" lon="2.03156">
        <ele>1795.9</ele>
        <time>2026-01-19T15:03:54Z</time>
      </trkpt>
      <trkpt lat="42.51018" lon="2.03154">
        <ele>1795.6</ele>
        <time>2026-01-19T15:03:55Z</time>
      </trkpt>
      <trkpt lat="42.51018" lon="2.03153">
        <ele>1795.4</ele>
        <time>2026-01-19T15:03:56Z</time>
      </trkpt>
      <trkpt lat="42.51017" lon="2.03152">
        <ele>1795.3</ele>
        <time>2026-01-19T15:03:57Z</time>
      </trkpt>
      <trkpt lat="42.51016" lon="2.03151">
        <ele>1795.1</ele>
        <time>2026-01-19T15:03:58Z</time>
      </trkpt>
      <trkpt lat="42.51016" lon="2.03149">
        <ele>1794.9</ele>
        <time>2026-01-19T15:03:59Z</time>
      </trkpt>
      <trkpt lat="42.51015" lon="2.03148">
        <ele>1794.7</ele>
        <time>2026-01-19T15:04:00Z</time>
      </trkpt>
      <trkpt lat="42.51014" lon="2.03147">
        <ele>1794.6</ele>
        <time>2026-01-19T15:04:01Z</time>
      </trkpt>
      <trkpt lat="42.51014" lon="2.03145">
        <ele>1794.4</ele>
        <time>2026-01-19T15:04:02Z</time>
      </trkpt>
      <trkpt lat="42.51013" lon="2.03144">
        <ele>1794.2</ele>
        <time>2026-01-19T15:04:03Z</time>
      </trkpt>
      <trkpt lat="42.51013" lon="2.03143">
        <ele>1794.1</ele>
        <time>2026-01-19T15:04:04Z</time>
      </trkpt>
      <trkpt lat="42.51012" lon="2.03142">
        <ele>1794</ele>
        <time>2026-01-19T15:04:05Z</time>
      </trkpt>
      <trkpt lat="42.51011" lon="2.03141">
        <ele>1793.8</ele>
        <time>2026-01-19T15:04:06Z</time>
      </trkpt>
      <trkpt lat="42.5101" lon="2.0314">
        <ele>1793.7</ele>
        <time>2026-01-19T15:04:07Z</time>
      </trkpt>
      <trkpt lat="42.51009" lon="2.03139">
        <ele>1793.6</ele>
        <time>2026-01-19T15:04:08Z</time>
      </trkpt>
      <trkpt lat="42.51009" lon="2.03138">
        <ele>1793.5</ele>
        <time>2026-01-19T15:04:09Z</time>
      </trkpt>
      <trkpt lat="42.51008" lon="2.03136">
        <ele>1793.3</ele>
        <time>2026-01-19T15:04:10Z</time>
      </trkpt>
      <trkpt lat="42.51007" lon="2.03135">
        <ele>1793.2</ele>
        <time>2026-01-19T15:04:11Z</time>
      </trkpt>
      <trkpt lat="42.51007" lon="2.03134">
        <ele>1793.1</ele>
        <time>2026-01-19T15:04:12Z</time>
      </trkpt>
      <trkpt lat="42.51006" lon="2.03133">
        <ele>1793</ele>
        <time>2026-01-19T15:04:13Z</time>
      </trkpt>
      <trkpt lat="42.51005" lon="2.03132">
        <ele>1792.9</ele>
        <time>2026-01-19T15:04:14Z</time>
      </trkpt>
      <trkpt lat="42.51004" lon="2.03132">
        <ele>1792.8</ele>
        <time>2026-01-19T15:04:15Z</time>
      </trkpt>
      <trkpt lat="42.51003" lon="2.03129">
        <ele>1792.5</ele>
        <time>2026-01-19T15:04:16Z</time>
      </trkpt>
      <trkpt lat="42.51003" lon="2.03128">
        <ele>1792.5</ele>
        <time>2026-01-19T15:04:17Z</time>
      </trkpt>
      <trkpt lat="42.51003" lon="2.03127">
        <ele>1792.4</ele>
        <time>2026-01-19T15:04:18Z</time>
      </trkpt>
      <trkpt lat="42.51003" lon="2.03124">
        <ele>1792.2</ele>
        <time>2026-01-19T15:04:19Z</time>
      </trkpt>
      <trkpt lat="42.51003" lon="2.03123">
        <ele>1792.1</ele>
        <time>2026-01-19T15:04:20Z</time>
      </trkpt>
      <trkpt lat="42.51003" lon="2.03122">
        <ele>1792</ele>
        <time>2026-01-19T15:04:21Z</time>
      </trkpt>
      <trkpt lat="42.51003" lon="2.0312">
        <ele>1791.9</ele>
        <time>2026-01-19T15:04:22Z</time>
      </trkpt>
      <trkpt lat="42.51003" lon="2.03118">
        <ele>1791.8</ele>
        <time>2026-01-19T15:04:23Z</time>
      </trkpt>
      <trkpt lat="42.51003" lon="2.03117">
        <ele>1791.7</ele>
        <time>2026-01-19T15:04:24Z</time>
      </trkpt>
      <trkpt lat="42.51002" lon="2.03117">
        <ele>1791.6</ele>
        <time>2026-01-19T15:04:25Z</time>
      </trkpt>
      <trkpt lat="42.51001" lon="2.03117">
        <ele>1791.5</ele>
        <time>2026-01-19T15:04:26Z</time>
      </trkpt>
      <trkpt lat="42.51001" lon="2.03118">
        <ele>1791.5</ele>
        <time>2026-01-19T15:04:27Z</time>
      </trkpt>
      <trkpt lat="42.51001" lon="2.03118">
        <ele>1791.4</ele>
        <time>2026-01-19T15:04:28Z</time>
      </trkpt>
      <trkpt lat="42.51001" lon="2.03118">
        <ele>1791.4</ele>
        <time>2026-01-19T15:04:29Z</time>
      </trkpt>
      <trkpt lat="42.51001" lon="2.03116">
        <ele>1791.3</ele>
        <time>2026-01-19T15:04:30Z</time>
      </trkpt>
      <trkpt lat="42.51002" lon="2.03115">
        <ele>1791.2</ele>
        <time>2026-01-19T15:04:31Z</time>
      </trkpt>
      <trkpt lat="42.51001" lon="2.03113">
        <ele>1791</ele>
        <time>2026-01-19T15:04:32Z</time>
      </trkpt>
      <trkpt lat="42.51001" lon="2.03111">
        <ele>1790.9</ele>
        <time>2026-01-19T15:04:33Z</time>
      </trkpt>
      <trkpt lat="42.51002" lon="2.0311">
        <ele>1790.8</ele>
        <time>2026-01-19T15:04:34Z</time>
      </trkpt>
      <trkpt lat="42.51002" lon="2.03109">
        <ele>1790.7</ele>
        <time>2026-01-19T15:04:35Z</time>
      </trkpt>
      <trkpt lat="42.51002" lon="2.03109">
        <ele>1790.7</ele>
        <time>2026-01-19T15:04:36Z</time>
      </trkpt>
      <trkpt lat="42.51002" lon="2.0311">
        <ele>1790.7</ele>
        <time>2026-01-19T15:04:37Z</time>
      </trkpt>
      <trkpt lat="42.51002" lon="2.0311">
        <ele>1790.6</ele>
        <time>2026-01-19T15:04:38Z</time>
      </trkpt>
      <trkpt lat="42.51002" lon="2.0311">
        <ele>1790.6</ele>
        <time>2026-01-19T15:04:39Z</time>
      </trkpt>
      <trkpt lat="42.51002" lon="2.0311">
        <ele>1790.6</ele>
        <time>2026-01-19T15:04:40Z</time>
      </trkpt>
      <trkpt lat="42.51002" lon="2.03109">
        <ele>1790.6</ele>
        <time>2026-01-19T15:04:41Z</time>
      </trkpt>
      <trkpt lat="42.51002" lon="2.03109">
        <ele>1790.6</ele>
        <time>2026-01-19T15:04:42Z</time>
      </trkpt>
      <trkpt lat="42.51001" lon="2.03109">
        <ele>1790.5</ele>
        <time>2026-01-19T15:04:43Z</time>
      </trkpt>
      <trkpt lat="42.51001" lon="2.03109">
        <ele>1790.5</ele>
        <time>2026-01-19T15:04:44Z</time>
      </trkpt>
      <trkpt lat="42.51001" lon="2.03108">
        <ele>1790.5</ele>
        <time>2026-01-19T15:04:45Z</time>
      </trkpt>
      <trkpt lat="42.51001" lon="2.03107">
        <ele>1790.4</ele>
        <time>2026-01-19T15:04:46Z</time>
      </trkpt>
      <trkpt lat="42.51001" lon="2.03107">
        <ele>1790.4</ele>
        <time>2026-01-19T15:04:47Z</time>
      </trkpt>
      <trkpt lat="42.51" lon="2.03106">
        <ele>1790.3</ele>
        <time>2026-01-19T15:04:48Z</time>
      </trkpt>
      <trkpt lat="42.51" lon="2.03106">
        <ele>1790.2</ele>
        <time>2026-01-19T15:04:49Z</time>
      </trkpt>
      <trkpt lat="42.50999" lon="2.03105">
        <ele>1790.1</ele>
        <time>2026-01-19T15:04:50Z</time>
      </trkpt>
      <trkpt lat="42.50998" lon="2.03105">
        <ele>1790</ele>
        <time>2026-01-19T15:04:51Z</time>
      </trkpt>
      <trkpt lat="42.50997" lon="2.03104">
        <ele>1789.9</ele>
        <time>2026-01-19T15:04:52Z</time>
      </trkpt>
      <trkpt lat="42.50996" lon="2.03105">
        <ele>1789.8</ele>
        <time>2026-01-19T15:04:53Z</time>
      </trkpt>
      <trkpt lat="42.50995" lon="2.03105">
        <ele>1789.6</ele>
        <time>2026-01-19T15:04:54Z</time>
      </trkpt>
      <trkpt lat="42.50993" lon="2.03105">
        <ele>1789.5</ele>
        <time>2026-01-19T15:04:55Z</time>
      </trkpt>
      <trkpt lat="42.50992" lon="2.03106">
        <ele>1789.4</ele>
        <time>2026-01-19T15:04:56Z</time>
      </trkpt>
      <trkpt lat="42.50991" lon="2.03105">
        <ele>1789.2</ele>
        <time>2026-01-19T15:04:57Z</time>
      </trkpt>
      <trkpt lat="42.5099" lon="2.03105">
        <ele>1789.1</ele>
        <time>2026-01-19T15:04:58Z</time>
      </trkpt>
      <trkpt lat="42.50989" lon="2.03105">
        <ele>1789</ele>
        <time>2026-01-19T15:04:59Z</time>
      </trkpt>
      <trkpt lat="42.50988" lon="2.03105">
        <ele>1788.9</ele>
        <time>2026-01-19T15:05:00Z</time>
      </trkpt>
      <trkpt lat="42.50987" lon="2.03104">
        <ele>1788.8</ele>
        <time>2026-01-19T15:05:01Z</time>
      </trkpt>
      <trkpt lat="42.50987" lon="2.03104">
        <ele>1788.7</ele>
        <time>2026-01-19T15:05:02Z</time>
      </trkpt>
      <trkpt lat="42.50986" lon="2.03104">
        <ele>1788.6</ele>
        <time>2026-01-19T15:05:03Z</time>
      </trkpt>
      <trkpt lat="42.50985" lon="2.03103">
        <ele>1788.5</ele>
        <time>2026-01-19T15:05:04Z</time>
      </trkpt>
      <trkpt lat="42.50984" lon="2.03103">
        <ele>1788.4</ele>
        <time>2026-01-19T15:05:05Z</time>
      </trkpt>
      <trkpt lat="42.50984" lon="2.03102">
        <ele>1788.3</ele>
        <time>2026-01-19T15:05:06Z</time>
      </trkpt>
      <trkpt lat="42.50983" lon="2.03101">
        <ele>1788.2</ele>
        <time>2026-01-19T15:05:07Z</time>
      </trkpt>
      <trkpt lat="42.50983" lon="2.031">
        <ele>1788.1</ele>
        <time>2026-01-19T15:05:08Z</time>
      </trkpt>
      <trkpt lat="42.50983" lon="2.031">
        <ele>1788.1</ele>
        <time>2026-01-19T15:05:09Z</time>
      </trkpt>
      <trkpt lat="42.50983" lon="2.03098">
        <ele>1787.9</ele>
        <time>2026-01-19T15:05:10Z</time>
      </trkpt>
      <trkpt lat="42.50982" lon="2.03097">
        <ele>1787.8</ele>
        <time>2026-01-19T15:05:11Z</time>
      </trkpt>
      <trkpt lat="42.50982" lon="2.03096">
        <ele>1787.7</ele>
        <time>2026-01-19T15:05:12Z</time>
      </trkpt>
      <trkpt lat="42.50981" lon="2.03095">
        <ele>1787.5</ele>
        <time>2026-01-19T15:05:13Z</time>
      </trkpt>
      <trkpt lat="42.5098" lon="2.03094">
        <ele>1787.4</ele>
        <time>2026-01-19T15:05:14Z</time>
      </trkpt>
      <trkpt lat="42.50979" lon="2.03094">
        <ele>1787.3</ele>
        <time>2026-01-19T15:05:15Z</time>
      </trkpt>
      <trkpt lat="42.50978" lon="2.03093">
        <ele>1787.1</ele>
        <time>2026-01-19T15:05:16Z</time>
      </trkpt>
      <trkpt lat="42.50977" lon="2.03093">
        <ele>1787</ele>
        <time>2026-01-19T15:05:17Z</time>
      </trkpt>
      <trkpt lat="42.50976" lon="2.03092">
        <ele>1786.9</ele>
        <time>2026-01-19T15:05:18Z</time>
      </trkpt>
      <trkpt lat="42.50975" lon="2.03091">
        <ele>1786.8</ele>
        <time>2026-01-19T15:05:19Z</time>
      </trkpt>
      <trkpt lat="42.50974" lon="2.03091">
        <ele>1786.7</ele>
        <time>2026-01-19T15:05:20Z</time>
      </trkpt>
      <trkpt lat="42.50973" lon="2.0309">
        <ele>1786.6</ele>
        <time>2026-01-19T15:05:21Z</time>
      </trkpt>
      <trkpt lat="42.50972" lon="2.0309">
        <ele>1786.5</ele>
        <time>2026-01-19T15:05:22Z</time>
      </trkpt>
      <trkpt lat="42.50971" lon="2.03089">
        <ele>1786.3</ele>
        <time>2026-01-19T15:05:23Z</time>
      </trkpt>
      <trkpt lat="42.5097" lon="2.03089">
        <ele>1786.2</ele>
        <time>2026-01-19T15:05:24Z</time>
      </trkpt>
      <trkpt lat="42.50969" lon="2.03089">
        <ele>1786.1</ele>
        <time>2026-01-19T15:05:25Z</time>
      </trkpt>
      <trkpt lat="42.50968" lon="2.03088">
        <ele>1786</ele>
        <time>2026-01-19T15:05:26Z</time>
      </trkpt>
      <trkpt lat="42.50967" lon="2.03088">
        <ele>1785.9</ele>
        <time>2026-01-19T15:05:27Z</time>
      </trkpt>
      <trkpt lat="42.50966" lon="2.03087">
        <ele>1785.7</ele>
        <time>2026-01-19T15:05:28Z</time>
      </trkpt>
      <trkpt lat="42.50966" lon="2.03087">
        <ele>1785.6</ele>
        <time>2026-01-19T15:05:29Z</time>
      </trkpt>
      <trkpt lat="42.50965" lon="2.03085">
        <ele>1785.5</ele>
        <time>2026-01-19T15:05:30Z</time>
      </trkpt>
      <trkpt lat="42.50964" lon="2.03084">
        <ele>1785.4</ele>
        <time>2026-01-19T15:05:31Z</time>
      </trkpt>
      <trkpt lat="42.50963" lon="2.03084">
        <ele>1785.3</ele>
        <time>2026-01-19T15:05:32Z</time>
      </trkpt>
      <trkpt lat="42.50962" lon="2.03083">
        <ele>1785.2</ele>
        <time>2026-01-19T15:05:33Z</time>
      </trkpt>
      <trkpt lat="42.50962" lon="2.03082">
        <ele>1785.1</ele>
        <time>2026-01-19T15:05:34Z</time>
      </trkpt>
      <trkpt lat="42.50961" lon="2.03081">
        <ele>1785</ele>
        <time>2026-01-19T15:05:35Z</time>
      </trkpt>
      <trkpt lat="42.5096" lon="2.0308">
        <ele>1784.9</ele>
        <time>2026-01-19T15:05:36Z</time>
      </trkpt>
      <trkpt lat="42.5096" lon="2.03079">
        <ele>1784.8</ele>
        <time>2026-01-19T15:05:37Z</time>
      </trkpt>
      <trkpt lat="42.50959" lon="2.03078">
        <ele>1784.7</ele>
        <time>2026-01-19T15:05:38Z</time>
      </trkpt>
      <trkpt lat="42.50958" lon="2.03078">
        <ele>1784.6</ele>
        <time>2026-01-19T15:05:39Z</time>
      </trkpt>
      <trkpt lat="42.50957" lon="2.03078">
        <ele>1784.5</ele>
        <time>2026-01-19T15:05:40Z</time>
      </trkpt>
      <trkpt lat="42.50956" lon="2.03079">
        <ele>1784.4</ele>
        <time>2026-01-19T15:05:41Z</time>
      </trkpt>
      <trkpt lat="42.50955" lon="2.03079">
        <ele>1784.3</ele>
        <time>2026-01-19T15:05:42Z</time>
      </trkpt>
      <trkpt lat="42.50954" lon="2.03079">
        <ele>1784.2</ele>
        <time>2026-01-19T15:05:43Z</time>
      </trkpt>
      <trkpt lat="42.50953" lon="2.03078">
        <ele>1784.2</ele>
        <time>2026-01-19T15:05:44Z</time>
      </trkpt>
      <trkpt lat="42.50952" lon="2.03078">
        <ele>1784.1</ele>
        <time>2026-01-19T15:05:45Z</time>
      </trkpt>
      <trkpt lat="42.50951" lon="2.03077">
        <ele>1784</ele>
        <time>2026-01-19T15:05:46Z</time>
      </trkpt>
      <trkpt lat="42.5095" lon="2.03076">
        <ele>1783.9</ele>
        <time>2026-01-19T15:05:47Z</time>
      </trkpt>
      <trkpt lat="42.5095" lon="2.03075">
        <ele>1783.9</ele>
        <time>2026-01-19T15:05:48Z</time>
      </trkpt>
      <trkpt lat="42.50949" lon="2.03074">
        <ele>1783.8</ele>
        <time>2026-01-19T15:05:49Z</time>
      </trkpt>
      <trkpt lat="42.50948" lon="2.03073">
        <ele>1783.7</ele>
        <time>2026-01-19T15:05:50Z</time>
      </trkpt>
      <trkpt lat="42.50948" lon="2.03072">
        <ele>1783.6</ele>
        <time>2026-01-19T15:05:51Z</time>
      </trkpt>
      <trkpt lat="42.50947" lon="2.0307">
        <ele>1783.6</ele>
        <time>2026-01-19T15:05:52Z</time>
      </trkpt>
      <trkpt lat="42.50947" lon="2.0307">
        <ele>1783.5</ele>
        <time>2026-01-19T15:05:53Z</time>
      </trkpt>
      <trkpt lat="42.50946" lon="2.03069">
        <ele>1783.5</ele>
        <time>2026-01-19T15:05:54Z</time>
      </trkpt>
      <trkpt lat="42.50944" lon="2.03069">
        <ele>1783.4</ele>
        <time>2026-01-19T15:05:55Z</time>
      </trkpt>
      <trkpt lat="42.50943" lon="2.0307">
        <ele>1783.4</ele>
        <time>2026-01-19T15:05:56Z</time>
      </trkpt>
      <trkpt lat="42.50942" lon="2.03071">
        <ele>1783.3</ele>
        <time>2026-01-19T15:05:57Z</time>
      </trkpt>
      <trkpt lat="42.50942" lon="2.03072">
        <ele>1783.2</ele>
        <time>2026-01-19T15:05:58Z</time>
      </trkpt>
      <trkpt lat="42.50941" lon="2.03074">
        <ele>1782.8</ele>
        <time>2026-01-19T15:05:59Z</time>
      </trkpt>
      <trkpt lat="42.5094" lon="2.03075">
        <ele>1782.7</ele>
        <time>2026-01-19T15:06:00Z</time>
      </trkpt>
      <trkpt lat="42.5094" lon="2.03077">
        <ele>1782.5</ele>
        <time>2026-01-19T15:06:01Z</time>
      </trkpt>
      <trkpt lat="42.50939" lon="2.03078">
        <ele>1782.2</ele>
        <time>2026-01-19T15:06:02Z</time>
      </trkpt>
      <trkpt lat="42.50939" lon="2.0308">
        <ele>1781.9</ele>
        <time>2026-01-19T15:06:03Z</time>
      </trkpt>
      <trkpt lat="42.50938" lon="2.03083">
        <ele>1781.4</ele>
        <time>2026-01-19T15:06:04Z</time>
      </trkpt>
      <trkpt lat="42.50937" lon="2.03084">
        <ele>1781.3</ele>
        <time>2026-01-19T15:06:05Z</time>
      </trkpt>
      <trkpt lat="42.50937" lon="2.03085">
        <ele>1781</ele>
        <time>2026-01-19T15:06:06Z</time>
      </trkpt>
      <trkpt lat="42.50936" lon="2.03087">
        <ele>1780.8</ele>
        <time>2026-01-19T15:06:07Z</time>
      </trkpt>
      <trkpt lat="42.50936" lon="2.03089">
        <ele>1780.5</ele>
        <time>2026-01-19T15:06:08Z</time>
      </trkpt>
      <trkpt lat="42.50935" lon="2.03092">
        <ele>1780</ele>
        <time>2026-01-19T15:06:09Z</time>
      </trkpt>
      <trkpt lat="42.50935" lon="2.03093">
        <ele>1779.9</ele>
        <time>2026-01-19T15:06:10Z</time>
      </trkpt>
      <trkpt lat="42.50935" lon="2.03094">
        <ele>1779.7</ele>
        <time>2026-01-19T15:06:11Z</time>
      </trkpt>
      <trkpt lat="42.50934" lon="2.03096">
        <ele>1779.5</ele>
        <time>2026-01-19T15:06:12Z</time>
      </trkpt>
      <trkpt lat="42.50934" lon="2.03097">
        <ele>1779.3</ele>
        <time>2026-01-19T15:06:13Z</time>
      </trkpt>
      <trkpt lat="42.50933" lon="2.03099">
        <ele>1779</ele>
        <time>2026-01-19T15:06:14Z</time>
      </trkpt>
      <trkpt lat="42.50932" lon="2.031">
        <ele>1778.8</ele>
        <time>2026-01-19T15:06:15Z</time>
      </trkpt>
      <trkpt lat="42.50932" lon="2.03101">
        <ele>1778.7</ele>
        <time>2026-01-19T15:06:16Z</time>
      </trkpt>
      <trkpt lat="42.50931" lon="2.03104">
        <ele>1778.3</ele>
        <time>2026-01-19T15:06:17Z</time>
      </trkpt>
      <trkpt lat="42.50931" lon="2.03105">
        <ele>1778.2</ele>
        <time>2026-01-19T15:06:18Z</time>
      </trkpt>
      <trkpt lat="42.5093" lon="2.03106">
        <ele>1778.1</ele>
        <time>2026-01-19T15:06:19Z</time>
      </trkpt>
      <trkpt lat="42.5093" lon="2.03107">
        <ele>1777.9</ele>
        <time>2026-01-19T15:06:20Z</time>
      </trkpt>
      <trkpt lat="42.50929" lon="2.03109">
        <ele>1777.8</ele>
        <time>2026-01-19T15:06:21Z</time>
      </trkpt>
      <trkpt lat="42.50929" lon="2.03109">
        <ele>1777.7</ele>
        <time>2026-01-19T15:06:22Z</time>
      </trkpt>
      <trkpt lat="42.50928" lon="2.03111">
        <ele>1777.6</ele>
        <time>2026-01-19T15:06:23Z</time>
      </trkpt>
      <trkpt lat="42.50928" lon="2.03111">
        <ele>1777.5</ele>
        <time>2026-01-19T15:06:24Z</time>
      </trkpt>
      <trkpt lat="42.50927" lon="2.03112">
        <ele>1777.4</ele>
        <time>2026-01-19T15:06:25Z</time>
      </trkpt>
      <trkpt lat="42.50926" lon="2.03113">
        <ele>1777.3</ele>
        <time>2026-01-19T15:06:26Z</time>
      </trkpt>
      <trkpt lat="42.50925" lon="2.03113">
        <ele>1777.1</ele>
        <time>2026-01-19T15:06:27Z</time>
      </trkpt>
      <trkpt lat="42.50924" lon="2.03114">
        <ele>1777</ele>
        <time>2026-01-19T15:06:28Z</time>
      </trkpt>
      <trkpt lat="42.50923" lon="2.03114">
        <ele>1776.9</ele>
        <time>2026-01-19T15:06:29Z</time>
      </trkpt>
      <trkpt lat="42.50922" lon="2.03114">
        <ele>1776.8</ele>
        <time>2026-01-19T15:06:30Z</time>
      </trkpt>
      <trkpt lat="42.50921" lon="2.03113">
        <ele>1776.6</ele>
        <time>2026-01-19T15:06:31Z</time>
      </trkpt>
      <trkpt lat="42.5092" lon="2.03113">
        <ele>1776.5</ele>
        <time>2026-01-19T15:06:32Z</time>
      </trkpt>
      <trkpt lat="42.50918" lon="2.03113">
        <ele>1776.3</ele>
        <time>2026-01-19T15:06:33Z</time>
      </trkpt>
      <trkpt lat="42.50917" lon="2.03113">
        <ele>1776.2</ele>
        <time>2026-01-19T15:06:34Z</time>
      </trkpt>
      <trkpt lat="42.50916" lon="2.03113">
        <ele>1776.1</ele>
        <time>2026-01-19T15:06:35Z</time>
      </trkpt>
      <trkpt lat="42.50914" lon="2.03113">
        <ele>1775.8</ele>
        <time>2026-01-19T15:06:36Z</time>
      </trkpt>
      <trkpt lat="42.50913" lon="2.03114">
        <ele>1775.7</ele>
        <time>2026-01-19T15:06:37Z</time>
      </trkpt>
      <trkpt lat="42.50913" lon="2.03114">
        <ele>1775.6</ele>
        <time>2026-01-19T15:06:38Z</time>
      </trkpt>
      <trkpt lat="42.50911" lon="2.03114">
        <ele>1775.4</ele>
        <time>2026-01-19T15:06:39Z</time>
      </trkpt>
      <trkpt lat="42.5091" lon="2.03115">
        <ele>1775.3</ele>
        <time>2026-01-19T15:06:40Z</time>
      </trkpt>
      <trkpt lat="42.50909" lon="2.03115">
        <ele>1775.2</ele>
        <time>2026-01-19T15:06:41Z</time>
      </trkpt>
      <trkpt lat="42.50908" lon="2.03115">
        <ele>1775.1</ele>
        <time>2026-01-19T15:06:42Z</time>
      </trkpt>
      <trkpt lat="42.50906" lon="2.03115">
        <ele>1774.9</ele>
        <time>2026-01-19T15:06:43Z</time>
      </trkpt>
      <trkpt lat="42.50905" lon="2.03115">
        <ele>1774.8</ele>
        <time>2026-01-19T15:06:44Z</time>
      </trkpt>
      <trkpt lat="42.50904" lon="2.03115">
        <ele>1774.7</ele>
        <time>2026-01-19T15:06:45Z</time>
      </trkpt>
      <trkpt lat="42.50903" lon="2.03116">
        <ele>1774.5</ele>
        <time>2026-01-19T15:06:46Z</time>
      </trkpt>
      <trkpt lat="42.50902" lon="2.03116">
        <ele>1774.4</ele>
        <time>2026-01-19T15:06:47Z</time>
      </trkpt>
      <trkpt lat="42.50901" lon="2.03117">
        <ele>1774.3</ele>
        <time>2026-01-19T15:06:48Z</time>
      </trkpt>
      <trkpt lat="42.509" lon="2.03118">
        <ele>1774.1</ele>
        <time>2026-01-19T15:06:49Z</time>
      </trkpt>
      <trkpt lat="42.50899" lon="2.03118">
        <ele>1774</ele>
        <time>2026-01-19T15:06:50Z</time>
      </trkpt>
      <trkpt lat="42.50898" lon="2.03119">
        <ele>1773.9</ele>
        <time>2026-01-19T15:06:51Z</time>
      </trkpt>
      <trkpt lat="42.50897" lon="2.0312">
        <ele>1773.7</ele>
        <time>2026-01-19T15:06:52Z</time>
      </trkpt>
      <trkpt lat="42.50896" lon="2.0312">
        <ele>1773.6</ele>
        <time>2026-01-19T15:06:53Z</time>
      </trkpt>
      <trkpt lat="42.50895" lon="2.0312">
        <ele>1773.4</ele>
        <time>2026-01-19T15:06:54Z</time>
      </trkpt>
      <trkpt lat="42.50894" lon="2.03121">
        <ele>1773.3</ele>
        <time>2026-01-19T15:06:55Z</time>
      </trkpt>
      <trkpt lat="42.50893" lon="2.03122">
        <ele>1773.2</ele>
        <time>2026-01-19T15:06:56Z</time>
      </trkpt>
      <trkpt lat="42.50892" lon="2.03122">
        <ele>1773.1</ele>
        <time>2026-01-19T15:06:57Z</time>
      </trkpt>
      <trkpt lat="42.50892" lon="2.03122">
        <ele>1773</ele>
        <time>2026-01-19T15:06:58Z</time>
      </trkpt>
      <trkpt lat="42.50891" lon="2.03121">
        <ele>1772.9</ele>
        <time>2026-01-19T15:06:59Z</time>
      </trkpt>
      <trkpt lat="42.5089" lon="2.03121">
        <ele>1772.8</ele>
        <time>2026-01-19T15:07:00Z</time>
      </trkpt>
      <trkpt lat="42.5089" lon="2.03121">
        <ele>1772.7</ele>
        <time>2026-01-19T15:07:01Z</time>
      </trkpt>
      <trkpt lat="42.50889" lon="2.0312">
        <ele>1772.5</ele>
        <time>2026-01-19T15:07:02Z</time>
      </trkpt>
      <trkpt lat="42.50887" lon="2.03119">
        <ele>1772.4</ele>
        <time>2026-01-19T15:07:03Z</time>
      </trkpt>
      <trkpt lat="42.50886" lon="2.03119">
        <ele>1772.2</ele>
        <time>2026-01-19T15:07:04Z</time>
      </trkpt>
      <trkpt lat="42.50885" lon="2.03119">
        <ele>1772.1</ele>
        <time>2026-01-19T15:07:05Z</time>
      </trkpt>
      <trkpt lat="42.50884" lon="2.0312">
        <ele>1771.9</ele>
        <time>2026-01-19T15:07:06Z</time>
      </trkpt>
      <trkpt lat="42.50883" lon="2.0312">
        <ele>1771.8</ele>
        <time>2026-01-19T15:07:07Z</time>
      </trkpt>
      <trkpt lat="42.50882" lon="2.03121">
        <ele>1771.6</ele>
        <time>2026-01-19T15:07:08Z</time>
      </trkpt>
      <trkpt lat="42.50881" lon="2.03122">
        <ele>1771.5</ele>
        <time>2026-01-19T15:07:09Z</time>
      </trkpt>
      <trkpt lat="42.50881" lon="2.03123">
        <ele>1771.3</ele>
        <time>2026-01-19T15:07:10Z</time>
      </trkpt>
      <trkpt lat="42.5088" lon="2.03124">
        <ele>1771.1</ele>
        <time>2026-01-19T15:07:11Z</time>
      </trkpt>
      <trkpt lat="42.50879" lon="2.03125">
        <ele>1771</ele>
        <time>2026-01-19T15:07:12Z</time>
      </trkpt>
      <trkpt lat="42.50878" lon="2.03125">
        <ele>1770.8</ele>
        <time>2026-01-19T15:07:13Z</time>
      </trkpt>
      <trkpt lat="42.50877" lon="2.03126">
        <ele>1770.7</ele>
        <time>2026-01-19T15:07:14Z</time>
      </trkpt>
      <trkpt lat="42.50876" lon="2.03127">
        <ele>1770.5</ele>
        <time>2026-01-19T15:07:15Z</time>
      </trkpt>
      <trkpt lat="42.50875" lon="2.03127">
        <ele>1770.3</ele>
        <time>2026-01-19T15:07:16Z</time>
      </trkpt>
      <trkpt lat="42.50875" lon="2.03128">
        <ele>1770.1</ele>
        <time>2026-01-19T15:07:17Z</time>
      </trkpt>
      <trkpt lat="42.50874" lon="2.0313">
        <ele>1769.9</ele>
        <time>2026-01-19T15:07:18Z</time>
      </trkpt>
      <trkpt lat="42.50873" lon="2.03131">
        <ele>1769.8</ele>
        <time>2026-01-19T15:07:19Z</time>
      </trkpt>
      <trkpt lat="42.50873" lon="2.03131">
        <ele>1769.6</ele>
        <time>2026-01-19T15:07:20Z</time>
      </trkpt>
      <trkpt lat="42.50872" lon="2.03132">
        <ele>1769.4</ele>
        <time>2026-01-19T15:07:21Z</time>
      </trkpt>
      <trkpt lat="42.50871" lon="2.03133">
        <ele>1769.2</ele>
        <time>2026-01-19T15:07:22Z</time>
      </trkpt>
      <trkpt lat="42.5087" lon="2.03134">
        <ele>1769</ele>
        <time>2026-01-19T15:07:23Z</time>
      </trkpt>
      <trkpt lat="42.5087" lon="2.03135">
        <ele>1768.8</ele>
        <time>2026-01-19T15:07:24Z</time>
      </trkpt>
      <trkpt lat="42.50869" lon="2.03135">
        <ele>1768.6</ele>
        <time>2026-01-19T15:07:25Z</time>
      </trkpt>
      <trkpt lat="42.50868" lon="2.03136">
        <ele>1768.4</ele>
        <time>2026-01-19T15:07:26Z</time>
      </trkpt>
      <trkpt lat="42.50867" lon="2.03137">
        <ele>1768.1</ele>
        <time>2026-01-19T15:07:27Z</time>
      </trkpt>
      <trkpt lat="42.50866" lon="2.03138">
        <ele>1767.9</ele>
        <time>2026-01-19T15:07:28Z</time>
      </trkpt>
      <trkpt lat="42.50866" lon="2.03139">
        <ele>1767.7</ele>
        <time>2026-01-19T15:07:29Z</time>
      </trkpt>
      <trkpt lat="42.50865" lon="2.0314">
        <ele>1767.5</ele>
        <time>2026-01-19T15:07:30Z</time>
      </trkpt>
      <trkpt lat="42.50865" lon="2.03141">
        <ele>1767.3</ele>
        <time>2026-01-19T15:07:31Z</time>
      </trkpt>
      <trkpt lat="42.50864" lon="2.03143">
        <ele>1767</ele>
        <time>2026-01-19T15:07:32Z</time>
      </trkpt>
      <trkpt lat="42.50864" lon="2.03144">
        <ele>1766.8</ele>
        <time>2026-01-19T15:07:33Z</time>
      </trkpt>
      <trkpt lat="42.50864" lon="2.03145">
        <ele>1766.6</ele>
        <time>2026-01-19T15:07:34Z</time>
      </trkpt>
      <trkpt lat="42.50864" lon="2.03146">
        <ele>1766.4</ele>
        <time>2026-01-19T15:07:35Z</time>
      </trkpt>
      <trkpt lat="42.50864" lon="2.03148">
        <ele>1766.1</ele>
        <time>2026-01-19T15:07:36Z</time>
      </trkpt>
      <trkpt lat="42.50863" lon="2.03149">
        <ele>1765.9</ele>
        <time>2026-01-19T15:07:37Z</time>
      </trkpt>
      <trkpt lat="42.50864" lon="2.0315">
        <ele>1765.7</ele>
        <time>2026-01-19T15:07:38Z</time>
      </trkpt>
      <trkpt lat="42.50863" lon="2.03152">
        <ele>1765.5</ele>
        <time>2026-01-19T15:07:39Z</time>
      </trkpt>
      <trkpt lat="42.50863" lon="2.03153">
        <ele>1765.3</ele>
        <time>2026-01-19T15:07:40Z</time>
      </trkpt>
      <trkpt lat="42.50863" lon="2.03154">
        <ele>1765.1</ele>
        <time>2026-01-19T15:07:41Z</time>
      </trkpt>
      <trkpt lat="42.50863" lon="2.03155">
        <ele>1764.8</ele>
        <time>2026-01-19T15:07:42Z</time>
      </trkpt>
      <trkpt lat="42.50862" lon="2.03157">
        <ele>1764.6</ele>
        <time>2026-01-19T15:07:43Z</time>
      </trkpt>
      <trkpt lat="42.50861" lon="2.03158">
        <ele>1764.4</ele>
        <time>2026-01-19T15:07:44Z</time>
      </trkpt>
      <trkpt lat="42.50861" lon="2.03159">
        <ele>1764.1</ele>
        <time>2026-01-19T15:07:45Z</time>
      </trkpt>
      <trkpt lat="42.5086" lon="2.03159">
        <ele>1763.9</ele>
        <time>2026-01-19T15:07:46Z</time>
      </trkpt>
      <trkpt lat="42.50859" lon="2.0316">
        <ele>1763.7</ele>
        <time>2026-01-19T15:07:47Z</time>
      </trkpt>
      <trkpt lat="42.50858" lon="2.03161">
        <ele>1763.5</ele>
        <time>2026-01-19T15:07:48Z</time>
      </trkpt>
      <trkpt lat="42.50857" lon="2.03161">
        <ele>1763.3</ele>
        <time>2026-01-19T15:07:49Z</time>
      </trkpt>
      <trkpt lat="42.50856" lon="2.03162">
        <ele>1763.1</ele>
        <time>2026-01-19T15:07:50Z</time>
      </trkpt>
      <trkpt lat="42.50855" lon="2.03162">
        <ele>1762.9</ele>
        <time>2026-01-19T15:07:51Z</time>
      </trkpt>
      <trkpt lat="42.50854" lon="2.03163">
        <ele>1762.7</ele>
        <time>2026-01-19T15:07:52Z</time>
      </trkpt>
      <trkpt lat="42.50854" lon="2.03163">
        <ele>1762.6</ele>
        <time>2026-01-19T15:07:53Z</time>
      </trkpt>
      <trkpt lat="42.50853" lon="2.03164">
        <ele>1762.4</ele>
        <time>2026-01-19T15:07:54Z</time>
      </trkpt>
      <trkpt lat="42.50852" lon="2.03164">
        <ele>1762.2</ele>
        <time>2026-01-19T15:07:55Z</time>
      </trkpt>
      <trkpt lat="42.50851" lon="2.03165">
        <ele>1762</ele>
        <time>2026-01-19T15:07:56Z</time>
      </trkpt>
      <trkpt lat="42.5085" lon="2.03165">
        <ele>1761.8</ele>
        <time>2026-01-19T15:07:57Z</time>
      </trkpt>
      <trkpt lat="42.50849" lon="2.03166">
        <ele>1761.7</ele>
        <time>2026-01-19T15:07:58Z</time>
      </trkpt>
      <trkpt lat="42.50848" lon="2.03166">
        <ele>1761.5</ele>
        <time>2026-01-19T15:07:59Z</time>
      </trkpt>
      <trkpt lat="42.50847" lon="2.03165">
        <ele>1761.3</ele>
        <time>2026-01-19T15:08:00Z</time>
      </trkpt>
      <trkpt lat="42.50846" lon="2.03165">
        <ele>1761.1</ele>
        <time>2026-01-19T15:08:01Z</time>
      </trkpt>
      <trkpt lat="42.50845" lon="2.03165">
        <ele>1761</ele>
        <time>2026-01-19T15:08:02Z</time>
      </trkpt>
      <trkpt lat="42.50844" lon="2.03165">
        <ele>1760.8</ele>
        <time>2026-01-19T15:08:03Z</time>
      </trkpt>
      <trkpt lat="42.50843" lon="2.03165">
        <ele>1760.7</ele>
        <time>2026-01-19T15:08:04Z</time>
      </trkpt>
      <trkpt lat="42.50842" lon="2.03165">
        <ele>1760.5</ele>
        <time>2026-01-19T15:08:05Z</time>
      </trkpt>
      <trkpt lat="42.50841" lon="2.03166">
        <ele>1760.4</ele>
        <time>2026-01-19T15:08:06Z</time>
      </trkpt>
      <trkpt lat="42.5084" lon="2.03166">
        <ele>1760.2</ele>
        <time>2026-01-19T15:08:07Z</time>
      </trkpt>
      <trkpt lat="42.5084" lon="2.03166">
        <ele>1760.1</ele>
        <time>2026-01-19T15:08:08Z</time>
      </trkpt>
      <trkpt lat="42.50839" lon="2.03167">
        <ele>1760</ele>
        <time>2026-01-19T15:08:09Z</time>
      </trkpt>
      <trkpt lat="42.50838" lon="2.03168">
        <ele>1759.9</ele>
        <time>2026-01-19T15:08:10Z</time>
      </trkpt>
      <trkpt lat="42.50838" lon="2.03168">
        <ele>1759.8</ele>
        <time>2026-01-19T15:08:11Z</time>
      </trkpt>
      <trkpt lat="42.50837" lon="2.03169">
        <ele>1759.6</ele>
        <time>2026-01-19T15:08:12Z</time>
      </trkpt>
      <trkpt lat="42.50836" lon="2.03168">
        <ele>1759.5</ele>
        <time>2026-01-19T15:08:13Z</time>
      </trkpt>
      <trkpt lat="42.50835" lon="2.03169">
        <ele>1759.4</ele>
        <time>2026-01-19T15:08:14Z</time>
      </trkpt>
      <trkpt lat="42.50834" lon="2.03169">
        <ele>1759.2</ele>
        <time>2026-01-19T15:08:15Z</time>
      </trkpt>
      <trkpt lat="42.50834" lon="2.03171">
        <ele>1759.3</ele>
        <time>2026-01-19T15:08:16Z</time>
      </trkpt>
      <trkpt lat="42.50834" lon="2.03171">
        <ele>1759.4</ele>
        <time>2026-01-19T15:08:17Z</time>
      </trkpt>
      <trkpt lat="42.50835" lon="2.03172">
        <ele>1759.5</ele>
        <time>2026-01-19T15:08:18Z</time>
      </trkpt>
      <trkpt lat="42.50835" lon="2.03172">
        <ele>1759.6</ele>
        <time>2026-01-19T15:08:19Z</time>
      </trkpt>
      <trkpt lat="42.50835" lon="2.03171">
        <ele>1759.6</ele>
        <time>2026-01-19T15:08:20Z</time>
      </trkpt>
      <trkpt lat="42.50835" lon="2.03171">
        <ele>1759.6</ele>
        <time>2026-01-19T15:08:21Z</time>
      </trkpt>
      <trkpt lat="42.50835" lon="2.03171">
        <ele>1759.6</ele>
        <time>2026-01-19T15:08:22Z</time>
      </trkpt>
      <trkpt lat="42.50835" lon="2.03171">
        <ele>1759.6</ele>
        <time>2026-01-19T15:08:23Z</time>
      </trkpt>
      <trkpt lat="42.50835" lon="2.03171">
        <ele>1759.7</ele>
        <time>2026-01-19T15:08:24Z</time>
      </trkpt>
      <trkpt lat="42.50835" lon="2.03171">
        <ele>1759.7</ele>
        <time>2026-01-19T15:08:25Z</time>
      </trkpt>
      <trkpt lat="42.50835" lon="2.03171">
        <ele>1759.7</ele>
        <time>2026-01-19T15:08:26Z</time>
      </trkpt>
      <trkpt lat="42.50835" lon="2.03171">
        <ele>1759.7</ele>
        <time>2026-01-19T15:08:27Z</time>
      </trkpt>
      <trkpt lat="42.50836" lon="2.03171">
        <ele>1759.7</ele>
        <time>2026-01-19T15:08:28Z</time>
      </trkpt>
      <trkpt lat="42.50836" lon="2.03171">
        <ele>1759.7</ele>
        <time>2026-01-19T15:08:29Z</time>
      </trkpt>
      <trkpt lat="42.50836" lon="2.03171">
        <ele>1759.7</ele>
        <time>2026-01-19T15:08:30Z</time>
      </trkpt>
      <trkpt lat="42.50836" lon="2.03171">
        <ele>1759.8</ele>
        <time>2026-01-19T15:08:31Z</time>
      </trkpt>
      <trkpt lat="42.50836" lon="2.03171">
        <ele>1759.9</ele>
        <time>2026-01-19T15:08:33Z</time>
      </trkpt>
      <trkpt lat="42.50837" lon="2.03172">
        <ele>1759.9</ele>
        <time>2026-01-19T15:08:34Z</time>
      </trkpt>
      <trkpt lat="42.50838" lon="2.03172">
        <ele>1760.2</ele>
        <time>2026-01-19T15:08:35Z</time>
      </trkpt>
      <trkpt lat="42.50838" lon="2.03172">
        <ele>1760.2</ele>
        <time>2026-01-19T15:08:36Z</time>
      </trkpt>
      <trkpt lat="42.50839" lon="2.03172">
        <ele>1760.2</ele>
        <time>2026-01-19T15:08:37Z</time>
      </trkpt>
      <trkpt lat="42.50839" lon="2.03172">
        <ele>1760.2</ele>
        <time>2026-01-19T15:08:38Z</time>
      </trkpt>
      <trkpt lat="42.50838" lon="2.03172">
        <ele>1760.2</ele>
        <time>2026-01-19T15:08:39Z</time>
      </trkpt>
      <trkpt lat="42.50839" lon="2.03172">
        <ele>1760.2</ele>
        <time>2026-01-19T15:08:40Z</time>
      </trkpt>
      <trkpt lat="42.50839" lon="2.03172">
        <ele>1760.3</ele>
        <time>2026-01-19T15:08:41Z</time>
      </trkpt>
      <trkpt lat="42.50839" lon="2.03173">
        <ele>1760.3</ele>
        <time>2026-01-19T15:08:42Z</time>
      </trkpt>
      <trkpt lat="42.50839" lon="2.03173">
        <ele>1760.4</ele>
        <time>2026-01-19T15:08:43Z</time>
      </trkpt>
      <trkpt lat="42.5084" lon="2.03174">
        <ele>1760.5</ele>
        <time>2026-01-19T15:08:44Z</time>
      </trkpt>
      <trkpt lat="42.50841" lon="2.03174">
        <ele>1760.6</ele>
        <time>2026-01-19T15:08:45Z</time>
      </trkpt>
      <trkpt lat="42.50841" lon="2.03174">
        <ele>1760.7</ele>
        <time>2026-01-19T15:08:46Z</time>
      </trkpt>
      <trkpt lat="42.50841" lon="2.03174">
        <ele>1760.7</ele>
        <time>2026-01-19T15:08:47Z</time>
      </trkpt>
      <trkpt lat="42.50842" lon="2.03174">
        <ele>1760.8</ele>
        <time>2026-01-19T15:08:48Z</time>
      </trkpt>
      <trkpt lat="42.50842" lon="2.03174">
        <ele>1760.8</ele>
        <time>2026-01-19T15:08:49Z</time>
      </trkpt>
      <trkpt lat="42.50842" lon="2.03174">
        <ele>1760.9</ele>
        <time>2026-01-19T15:08:50Z</time>
      </trkpt>
      <trkpt lat="42.50843" lon="2.03174">
        <ele>1761</ele>
        <time>2026-01-19T15:08:51Z</time>
      </trkpt>
      <trkpt lat="42.50844" lon="2.03175">
        <ele>1761.2</ele>
        <time>2026-01-19T15:08:52Z</time>
      </trkpt>
      <trkpt lat="42.50846" lon="2.03175">
        <ele>1761.4</ele>
        <time>2026-01-19T15:08:53Z</time>
      </trkpt>
      <trkpt lat="42.50847" lon="2.03175">
        <ele>1761.6</ele>
        <time>2026-01-19T15:08:54Z</time>
      </trkpt>
      <trkpt lat="42.50848" lon="2.03175">
        <ele>1761.8</ele>
        <time>2026-01-19T15:08:55Z</time>
      </trkpt>
      <trkpt lat="42.50849" lon="2.03175">
        <ele>1762</ele>
        <time>2026-01-19T15:08:56Z</time>
      </trkpt>
      <trkpt lat="42.5085" lon="2.03175">
        <ele>1762.2</ele>
        <time>2026-01-19T15:08:57Z</time>
      </trkpt>
      <trkpt lat="42.50851" lon="2.03175">
        <ele>1762.3</ele>
        <time>2026-01-19T15:08:58Z</time>
      </trkpt>
      <trkpt lat="42.50852" lon="2.03175">
        <ele>1762.5</ele>
        <time>2026-01-19T15:08:59Z</time>
      </trkpt>
      <trkpt lat="42.50853" lon="2.03175">
        <ele>1762.7</ele>
        <time>2026-01-19T15:09:00Z</time>
      </trkpt>
      <trkpt lat="42.50854" lon="2.03175">
        <ele>1762.8</ele>
        <time>2026-01-19T15:09:01Z</time>
      </trkpt>
      <trkpt lat="42.50855" lon="2.03176">
        <ele>1763</ele>
        <time>2026-01-19T15:09:02Z</time>
      </trkpt>
      <trkpt lat="42.50856" lon="2.03176">
        <ele>1763.1</ele>
        <time>2026-01-19T15:09:03Z</time>
      </trkpt>
      <trkpt lat="42.50857" lon="2.03176">
        <ele>1763.2</ele>
        <time>2026-01-19T15:09:04Z</time>
      </trkpt>
      <trkpt lat="42.50858" lon="2.03176">
        <ele>1763.4</ele>
        <time>2026-01-19T15:09:05Z</time>
      </trkpt>
      <trkpt lat="42.50858" lon="2.03177">
        <ele>1763.5</ele>
        <time>2026-01-19T15:09:06Z</time>
      </trkpt>
      <trkpt lat="42.50859" lon="2.03177">
        <ele>1763.7</ele>
        <time>2026-01-19T15:09:07Z</time>
      </trkpt>
      <trkpt lat="42.5086" lon="2.03178">
        <ele>1763.8</ele>
        <time>2026-01-19T15:09:08Z</time>
      </trkpt>
      <trkpt lat="42.50861" lon="2.03178">
        <ele>1763.9</ele>
        <time>2026-01-19T15:09:09Z</time>
      </trkpt>
      <trkpt lat="42.50862" lon="2.03179">
        <ele>1764</ele>
        <time>2026-01-19T15:09:10Z</time>
      </trkpt>
      <trkpt lat="42.50862" lon="2.0318">
        <ele>1764.1</ele>
        <time>2026-01-19T15:09:11Z</time>
      </trkpt>
      <trkpt lat="42.50863" lon="2.0318">
        <ele>1764.3</ele>
        <time>2026-01-19T15:09:12Z</time>
      </trkpt>
      <trkpt lat="42.50864" lon="2.03181">
        <ele>1764.4</ele>
        <time>2026-01-19T15:09:13Z</time>
      </trkpt>
      <trkpt lat="42.50865" lon="2.03181">
        <ele>1764.5</ele>
        <time>2026-01-19T15:09:14Z</time>
      </trkpt>
      <trkpt lat="42.50866" lon="2.03182">
        <ele>1764.6</ele>
        <time>2026-01-19T15:09:15Z</time>
      </trkpt>
      <trkpt lat="42.50866" lon="2.03183">
        <ele>1764.7</ele>
        <time>2026-01-19T15:09:16Z</time>
      </trkpt>
      <trkpt lat="42.50867" lon="2.03183">
        <ele>1764.8</ele>
        <time>2026-01-19T15:09:17Z</time>
      </trkpt>
      <trkpt lat="42.50868" lon="2.03183">
        <ele>1764.9</ele>
        <time>2026-01-19T15:09:18Z</time>
      </trkpt>
      <trkpt lat="42.50869" lon="2.03184">
        <ele>1765</ele>
        <time>2026-01-19T15:09:19Z</time>
      </trkpt>
      <trkpt lat="42.5087" lon="2.03185">
        <ele>1765.1</ele>
        <time>2026-01-19T15:09:20Z</time>
      </trkpt>
      <trkpt lat="42.5087" lon="2.03185">
        <ele>1765.2</ele>
        <time>2026-01-19T15:09:21Z</time>
      </trkpt>
      <trkpt lat="42.50871" lon="2.03185">
        <ele>1765.3</ele>
        <time>2026-01-19T15:09:22Z</time>
      </trkpt>
      <trkpt lat="42.50872" lon="2.03186">
        <ele>1765.3</ele>
        <time>2026-01-19T15:09:23Z</time>
      </trkpt>
      <trkpt lat="42.50873" lon="2.03186">
        <ele>1765.4</ele>
        <time>2026-01-19T15:09:24Z</time>
      </trkpt>
      <trkpt lat="42.50874" lon="2.03186">
        <ele>1765.5</ele>
        <time>2026-01-19T15:09:25Z</time>
      </trkpt>
      <trkpt lat="42.50875" lon="2.03187">
        <ele>1765.6</ele>
        <time>2026-01-19T15:09:26Z</time>
      </trkpt>
      <trkpt lat="42.50876" lon="2.03188">
        <ele>1765.7</ele>
        <time>2026-01-19T15:09:27Z</time>
      </trkpt>
      <trkpt lat="42.50877" lon="2.03188">
        <ele>1765.8</ele>
        <time>2026-01-19T15:09:28Z</time>
      </trkpt>
      <trkpt lat="42.50877" lon="2.03189">
        <ele>1765.9</ele>
        <time>2026-01-19T15:09:29Z</time>
      </trkpt>
      <trkpt lat="42.50878" lon="2.0319">
        <ele>1765.9</ele>
        <time>2026-01-19T15:09:30Z</time>
      </trkpt>
      <trkpt lat="42.50879" lon="2.0319">
        <ele>1766</ele>
        <time>2026-01-19T15:09:31Z</time>
      </trkpt>
      <trkpt lat="42.50879" lon="2.03191">
        <ele>1766</ele>
        <time>2026-01-19T15:09:32Z</time>
      </trkpt>
      <trkpt lat="42.50879" lon="2.03191">
        <ele>1766</ele>
        <time>2026-01-19T15:09:33Z</time>
      </trkpt>
      <trkpt lat="42.50879" lon="2.03192">
        <ele>1766.1</ele>
        <time>2026-01-19T15:09:34Z</time>
      </trkpt>
      <trkpt lat="42.50879" lon="2.03192">
        <ele>1766.1</ele>
        <time>2026-01-19T15:09:35Z</time>
      </trkpt>
      <trkpt lat="42.50879" lon="2.03192">
        <ele>1766.1</ele>
        <time>2026-01-19T15:09:36Z</time>
      </trkpt>
      <trkpt lat="42.50879" lon="2.03193">
        <ele>1766.1</ele>
        <time>2026-01-19T15:09:37Z</time>
      </trkpt>
      <trkpt lat="42.50878" lon="2.03193">
        <ele>1766.1</ele>
        <time>2026-01-19T15:09:38Z</time>
      </trkpt>
      <trkpt lat="42.50878" lon="2.03193">
        <ele>1766.2</ele>
        <time>2026-01-19T15:09:39Z</time>
      </trkpt>
      <trkpt lat="42.50878" lon="2.03193">
        <ele>1766.2</ele>
        <time>2026-01-19T15:09:40Z</time>
      </trkpt>
      <trkpt lat="42.50878" lon="2.03194">
        <ele>1766.2</ele>
        <time>2026-01-19T15:09:41Z</time>
      </trkpt>
      <trkpt lat="42.50878" lon="2.03194">
        <ele>1766.3</ele>
        <time>2026-01-19T15:09:42Z</time>
      </trkpt>
      <trkpt lat="42.50878" lon="2.03194">
        <ele>1766.3</ele>
        <time>2026-01-19T15:09:43Z</time>
      </trkpt>
      <trkpt lat="42.50878" lon="2.03195">
        <ele>1766.3</ele>
        <time>2026-01-19T15:09:44Z</time>
      </trkpt>
      <trkpt lat="42.50878" lon="2.03195">
        <ele>1766.3</ele>
        <time>2026-01-19T15:09:45Z</time>
      </trkpt>
      <trkpt lat="42.50878" lon="2.03195">
        <ele>1766.4</ele>
        <time>2026-01-19T15:09:46Z</time>
      </trkpt>
      <trkpt lat="42.50878" lon="2.03195">
        <ele>1766.4</ele>
        <time>2026-01-19T15:09:47Z</time>
      </trkpt>
      <trkpt lat="42.50878" lon="2.03196">
        <ele>1766.5</ele>
        <time>2026-01-19T15:09:48Z</time>
      </trkpt>
      <trkpt lat="42.50877" lon="2.03196">
        <ele>1766.5</ele>
        <time>2026-01-19T15:09:49Z</time>
      </trkpt>
      <trkpt lat="42.50876" lon="2.03199">
        <ele>1765.9</ele>
        <time>2026-01-19T15:09:50Z</time>
      </trkpt>
      <trkpt lat="42.50876" lon="2.03199">
        <ele>1765.9</ele>
        <time>2026-01-19T15:09:51Z</time>
      </trkpt>
      <trkpt lat="42.50875" lon="2.032">
        <ele>1766</ele>
        <time>2026-01-19T15:09:52Z</time>
      </trkpt>
      <trkpt lat="42.50874" lon="2.03201">
        <ele>1765.3</ele>
        <time>2026-01-19T15:09:53Z</time>
      </trkpt>
      <trkpt lat="42.50873" lon="2.03202">
        <ele>1765.4</ele>
        <time>2026-01-19T15:09:54Z</time>
      </trkpt>
      <trkpt lat="42.50872" lon="2.03202">
        <ele>1765.4</ele>
        <time>2026-01-19T15:09:55Z</time>
      </trkpt>
      <trkpt lat="42.50871" lon="2.03203">
        <ele>1764.7</ele>
        <time>2026-01-19T15:09:56Z</time>
      </trkpt>
      <trkpt lat="42.5087" lon="2.03203">
        <ele>1764.8</ele>
        <time>2026-01-19T15:09:57Z</time>
      </trkpt>
      <trkpt lat="42.50869" lon="2.03204">
        <ele>1764.8</ele>
        <time>2026-01-19T15:09:58Z</time>
      </trkpt>
      <trkpt lat="42.50868" lon="2.03205">
        <ele>1764.2</ele>
        <time>2026-01-19T15:09:59Z</time>
      </trkpt>
      <trkpt lat="42.50867" lon="2.03206">
        <ele>1764.2</ele>
        <time>2026-01-19T15:10:00Z</time>
      </trkpt>
      <trkpt lat="42.50867" lon="2.03208">
        <ele>1764.3</ele>
        <time>2026-01-19T15:10:01Z</time>
      </trkpt>
      <trkpt lat="42.50866" lon="2.03209">
        <ele>1764.4</ele>
        <time>2026-01-19T15:10:02Z</time>
      </trkpt>
      <trkpt lat="42.50866" lon="2.03211">
        <ele>1764.4</ele>
        <time>2026-01-19T15:10:03Z</time>
      </trkpt>
      <trkpt lat="42.50865" lon="2.03212">
        <ele>1764.4</ele>
        <time>2026-01-19T15:10:04Z</time>
      </trkpt>
      <trkpt lat="42.50865" lon="2.03214">
        <ele>1763.9</ele>
        <time>2026-01-19T15:10:05Z</time>
      </trkpt>
      <trkpt lat="42.50864" lon="2.03215">
        <ele>1763.9</ele>
        <time>2026-01-19T15:10:06Z</time>
      </trkpt>
      <trkpt lat="42.50864" lon="2.03217">
        <ele>1763.9</ele>
        <time>2026-01-19T15:10:07Z</time>
      </trkpt>
      <trkpt lat="42.50863" lon="2.03218">
        <ele>1764.1</ele>
        <time>2026-01-19T15:10:08Z</time>
      </trkpt>
      <trkpt lat="42.50863" lon="2.0322">
        <ele>1764.1</ele>
        <time>2026-01-19T15:10:09Z</time>
      </trkpt>
      <trkpt lat="42.50862" lon="2.03221">
        <ele>1764.1</ele>
        <time>2026-01-19T15:10:10Z</time>
      </trkpt>
      <trkpt lat="42.50862" lon="2.03223">
        <ele>1764.3</ele>
        <time>2026-01-19T15:10:11Z</time>
      </trkpt>
      <trkpt lat="42.50861" lon="2.03224">
        <ele>1763.6</ele>
        <time>2026-01-19T15:10:12Z</time>
      </trkpt>
      <trkpt lat="42.50861" lon="2.03226">
        <ele>1763.6</ele>
        <time>2026-01-19T15:10:13Z</time>
      </trkpt>
      <trkpt lat="42.5086" lon="2.03227">
        <ele>1763.7</ele>
        <time>2026-01-19T15:10:14Z</time>
      </trkpt>
      <trkpt lat="42.50859" lon="2.03228">
        <ele>1763.7</ele>
        <time>2026-01-19T15:10:15Z</time>
      </trkpt>
      <trkpt lat="42.50859" lon="2.03229">
        <ele>1763.8</ele>
        <time>2026-01-19T15:10:16Z</time>
      </trkpt>
      <trkpt lat="42.50857" lon="2.03231">
        <ele>1763.2</ele>
        <time>2026-01-19T15:10:17Z</time>
      </trkpt>
      <trkpt lat="42.50857" lon="2.03232">
        <ele>1763.2</ele>
        <time>2026-01-19T15:10:18Z</time>
      </trkpt>
      <trkpt lat="42.50856" lon="2.03233">
        <ele>1763.2</ele>
        <time>2026-01-19T15:10:19Z</time>
      </trkpt>
      <trkpt lat="42.50854" lon="2.03235">
        <ele>1762.7</ele>
        <time>2026-01-19T15:10:20Z</time>
      </trkpt>
      <trkpt lat="42.50854" lon="2.03235">
        <ele>1762.7</ele>
        <time>2026-01-19T15:10:21Z</time>
      </trkpt>
      <trkpt lat="42.50853" lon="2.03236">
        <ele>1762.7</ele>
        <time>2026-01-19T15:10:22Z</time>
      </trkpt>
      <trkpt lat="42.50851" lon="2.03237">
        <ele>1762.1</ele>
        <time>2026-01-19T15:10:23Z</time>
      </trkpt>
      <trkpt lat="42.5085" lon="2.03238">
        <ele>1762.1</ele>
        <time>2026-01-19T15:10:24Z</time>
      </trkpt>
      <trkpt lat="42.50849" lon="2.03238">
        <ele>1762.1</ele>
        <time>2026-01-19T15:10:25Z</time>
      </trkpt>
      <trkpt lat="42.50848" lon="2.03239">
        <ele>1761.6</ele>
        <time>2026-01-19T15:10:26Z</time>
      </trkpt>
      <trkpt lat="42.50847" lon="2.0324">
        <ele>1761.7</ele>
        <time>2026-01-19T15:10:27Z</time>
      </trkpt>
      <trkpt lat="42.50846" lon="2.03241">
        <ele>1761.7</ele>
        <time>2026-01-19T15:10:28Z</time>
      </trkpt>
      <trkpt lat="42.50845" lon="2.03242">
        <ele>1761.2</ele>
        <time>2026-01-19T15:10:29Z</time>
      </trkpt>
      <trkpt lat="42.50845" lon="2.03242">
        <ele>1761.2</ele>
        <time>2026-01-19T15:10:30Z</time>
      </trkpt>
      <trkpt lat="42.50844" lon="2.03243">
        <ele>1761.3</ele>
        <time>2026-01-19T15:10:31Z</time>
      </trkpt>
      <trkpt lat="42.50843" lon="2.03243">
        <ele>1760.8</ele>
        <time>2026-01-19T15:10:32Z</time>
      </trkpt>
      <trkpt lat="42.50842" lon="2.03244">
        <ele>1760.8</ele>
        <time>2026-01-19T15:10:33Z</time>
      </trkpt>
      <trkpt lat="42.50841" lon="2.03245">
        <ele>1760.9</ele>
        <time>2026-01-19T15:10:34Z</time>
      </trkpt>
      <trkpt lat="42.5084" lon="2.03245">
        <ele>1760.9</ele>
        <time>2026-01-19T15:10:35Z</time>
      </trkpt>
      <trkpt lat="42.50839" lon="2.03246">
        <ele>1760.4</ele>
        <time>2026-01-19T15:10:36Z</time>
      </trkpt>
      <trkpt lat="42.50838" lon="2.03246">
        <ele>1760.4</ele>
        <time>2026-01-19T15:10:37Z</time>
      </trkpt>
      <trkpt lat="42.50837" lon="2.03247">
        <ele>1760.5</ele>
        <time>2026-01-19T15:10:38Z</time>
      </trkpt>
      <trkpt lat="42.50836" lon="2.03248">
        <ele>1760.2</ele>
        <time>2026-01-19T15:10:39Z</time>
      </trkpt>
      <trkpt lat="42.50835" lon="2.03248">
        <ele>1760.3</ele>
        <time>2026-01-19T15:10:40Z</time>
      </trkpt>
      <trkpt lat="42.50834" lon="2.03249">
        <ele>1760.3</ele>
        <time>2026-01-19T15:10:41Z</time>
      </trkpt>
      <trkpt lat="42.50833" lon="2.0325">
        <ele>1759.8</ele>
        <time>2026-01-19T15:10:42Z</time>
      </trkpt>
      <trkpt lat="42.50832" lon="2.0325">
        <ele>1759.8</ele>
        <time>2026-01-19T15:10:43Z</time>
      </trkpt>
      <trkpt lat="42.50831" lon="2.0325">
        <ele>1759.9</ele>
        <time>2026-01-19T15:10:44Z</time>
      </trkpt>
      <trkpt lat="42.5083" lon="2.0325">
        <ele>1759.9</ele>
        <time>2026-01-19T15:10:45Z</time>
      </trkpt>
      <trkpt lat="42.50829" lon="2.03251">
        <ele>1759.4</ele>
        <time>2026-01-19T15:10:46Z</time>
      </trkpt>
      <trkpt lat="42.50828" lon="2.03251">
        <ele>1759.5</ele>
        <time>2026-01-19T15:10:47Z</time>
      </trkpt>
      <trkpt lat="42.50827" lon="2.03251">
        <ele>1759</ele>
        <time>2026-01-19T15:10:48Z</time>
      </trkpt>
      <trkpt lat="42.50826" lon="2.03251">
        <ele>1759.2</ele>
        <time>2026-01-19T15:10:49Z</time>
      </trkpt>
      <trkpt lat="42.50825" lon="2.03252">
        <ele>1759.3</ele>
        <time>2026-01-19T15:10:50Z</time>
      </trkpt>
      <trkpt lat="42.50824" lon="2.03252">
        <ele>1759.3</ele>
        <time>2026-01-19T15:10:51Z</time>
      </trkpt>
      <trkpt lat="42.50823" lon="2.03253">
        <ele>1758.9</ele>
        <time>2026-01-19T15:10:52Z</time>
      </trkpt>
      <trkpt lat="42.50822" lon="2.03254">
        <ele>1758.9</ele>
        <time>2026-01-19T15:10:53Z</time>
      </trkpt>
      <trkpt lat="42.50821" lon="2.03254">
        <ele>1759</ele>
        <time>2026-01-19T15:10:54Z</time>
      </trkpt>
      <trkpt lat="42.5082" lon="2.03255">
        <ele>1758.6</ele>
        <time>2026-01-19T15:10:55Z</time>
      </trkpt>
      <trkpt lat="42.50819" lon="2.03256">
        <ele>1758.7</ele>
        <time>2026-01-19T15:10:56Z</time>
      </trkpt>
      <trkpt lat="42.50819" lon="2.03256">
        <ele>1758.8</ele>
        <time>2026-01-19T15:10:57Z</time>
      </trkpt>
      <trkpt lat="42.50818" lon="2.03257">
        <ele>1758.9</ele>
        <time>2026-01-19T15:10:58Z</time>
      </trkpt>
      <trkpt lat="42.50817" lon="2.03258">
        <ele>1758.6</ele>
        <time>2026-01-19T15:10:59Z</time>
      </trkpt>
      <trkpt lat="42.50817" lon="2.03258">
        <ele>1758.6</ele>
        <time>2026-01-19T15:11:00Z</time>
      </trkpt>
      <trkpt lat="42.50816" lon="2.03259">
        <ele>1758.6</ele>
        <time>2026-01-19T15:11:01Z</time>
      </trkpt>
      <trkpt lat="42.50815" lon="2.0326">
        <ele>1758.6</ele>
        <time>2026-01-19T15:11:02Z</time>
      </trkpt>
      <trkpt lat="42.50814" lon="2.0326">
        <ele>1758.5</ele>
        <time>2026-01-19T15:11:03Z</time>
      </trkpt>
      <trkpt lat="42.50813" lon="2.03261">
        <ele>1758.5</ele>
        <time>2026-01-19T15:11:04Z</time>
      </trkpt>
      <trkpt lat="42.50812" lon="2.03262">
        <ele>1758.5</ele>
        <time>2026-01-19T15:11:05Z</time>
      </trkpt>
      <trkpt lat="42.50812" lon="2.03262">
        <ele>1758.6</ele>
        <time>2026-01-19T15:11:06Z</time>
      </trkpt>
      <trkpt lat="42.50811" lon="2.03263">
        <ele>1758.2</ele>
        <time>2026-01-19T15:11:07Z</time>
      </trkpt>
      <trkpt lat="42.5081" lon="2.03264">
        <ele>1758.3</ele>
        <time>2026-01-19T15:11:08Z</time>
      </trkpt>
      <trkpt lat="42.50809" lon="2.03264">
        <ele>1758.3</ele>
        <time>2026-01-19T15:11:09Z</time>
      </trkpt>
      <trkpt lat="42.50808" lon="2.03265">
        <ele>1758.5</ele>
        <time>2026-01-19T15:11:10Z</time>
      </trkpt>
      <trkpt lat="42.50807" lon="2.03265">
        <ele>1758.2</ele>
        <time>2026-01-19T15:11:11Z</time>
      </trkpt>
      <trkpt lat="42.50807" lon="2.03266">
        <ele>1758.2</ele>
        <time>2026-01-19T15:11:12Z</time>
      </trkpt>
      <trkpt lat="42.50806" lon="2.03267">
        <ele>1758.2</ele>
        <time>2026-01-19T15:11:13Z</time>
      </trkpt>
      <trkpt lat="42.50805" lon="2.03268">
        <ele>1758.2</ele>
        <time>2026-01-19T15:11:14Z</time>
      </trkpt>
      <trkpt lat="42.50804" lon="2.03269">
        <ele>1758.1</ele>
        <time>2026-01-19T15:11:15Z</time>
      </trkpt>
      <trkpt lat="42.50804" lon="2.03269">
        <ele>1758.2</ele>
        <time>2026-01-19T15:11:16Z</time>
      </trkpt>
      <trkpt lat="42.50804" lon="2.0327">
        <ele>1758.2</ele>
        <time>2026-01-19T15:11:17Z</time>
      </trkpt>
      <trkpt lat="42.50804" lon="2.0327">
        <ele>1758.2</ele>
        <time>2026-01-19T15:11:18Z</time>
      </trkpt>
      <trkpt lat="42.50804" lon="2.0327">
        <ele>1758.3</ele>
        <time>2026-01-19T15:11:19Z</time>
      </trkpt>
      <trkpt lat="42.50804" lon="2.0327">
        <ele>1758.3</ele>
        <time>2026-01-19T15:11:20Z</time>
      </trkpt>
      <trkpt lat="42.50804" lon="2.0327">
        <ele>1758.3</ele>
        <time>2026-01-19T15:11:21Z</time>
      </trkpt>
      <trkpt lat="42.50804" lon="2.0327">
        <ele>1758.3</ele>
        <time>2026-01-19T15:11:22Z</time>
      </trkpt>
      <trkpt lat="42.50804" lon="2.0327">
        <ele>1758.4</ele>
        <time>2026-01-19T15:11:23Z</time>
      </trkpt>
      <trkpt lat="42.50804" lon="2.0327">
        <ele>1758.4</ele>
        <time>2026-01-19T15:11:24Z</time>
      </trkpt>
      <trkpt lat="42.50804" lon="2.0327">
        <ele>1758.4</ele>
        <time>2026-01-19T15:11:25Z</time>
      </trkpt>
      <trkpt lat="42.50804" lon="2.0327">
        <ele>1758.5</ele>
        <time>2026-01-19T15:11:26Z</time>
      </trkpt>
      <trkpt lat="42.50804" lon="2.0327">
        <ele>1758.5</ele>
        <time>2026-01-19T15:11:27Z</time>
      </trkpt>
      <trkpt lat="42.50804" lon="2.0327">
        <ele>1758.5</ele>
        <time>2026-01-19T15:11:28Z</time>
      </trkpt>
      <trkpt lat="42.50804" lon="2.0327">
        <ele>1758.5</ele>
        <time>2026-01-19T15:11:29Z</time>
      </trkpt>
      <trkpt lat="42.50804" lon="2.0327">
        <ele>1758.6</ele>
        <time>2026-01-19T15:11:30Z</time>
      </trkpt>
      <trkpt lat="42.50804" lon="2.0327">
        <ele>1758.6</ele>
        <time>2026-01-19T15:11:31Z</time>
      </trkpt>
      <trkpt lat="42.50804" lon="2.0327">
        <ele>1758.6</ele>
        <time>2026-01-19T15:11:32Z</time>
      </trkpt>
      <trkpt lat="42.50804" lon="2.0327">
        <ele>1758.6</ele>
        <time>2026-01-19T15:11:33Z</time>
      </trkpt>
      <trkpt lat="42.50804" lon="2.03271">
        <ele>1758.7</ele>
        <time>2026-01-19T15:11:34Z</time>
      </trkpt>
      <trkpt lat="42.50804" lon="2.03271">
        <ele>1758.7</ele>
        <time>2026-01-19T15:11:35Z</time>
      </trkpt>
      <trkpt lat="42.50804" lon="2.03271">
        <ele>1758.7</ele>
        <time>2026-01-19T15:11:36Z</time>
      </trkpt>
      <trkpt lat="42.50804" lon="2.03271">
        <ele>1758.8</ele>
        <time>2026-01-19T15:11:37Z</time>
      </trkpt>
      <trkpt lat="42.50804" lon="2.03271">
        <ele>1758.8</ele>
        <time>2026-01-19T15:11:38Z</time>
      </trkpt>
      <trkpt lat="42.50804" lon="2.03271">
        <ele>1758.8</ele>
        <time>2026-01-19T15:11:39Z</time>
      </trkpt>
      <trkpt lat="42.50804" lon="2.03271">
        <ele>1758.8</ele>
        <time>2026-01-19T15:11:40Z</time>
      </trkpt>
      <trkpt lat="42.50804" lon="2.03271">
        <ele>1758.9</ele>
        <time>2026-01-19T15:11:41Z</time>
      </trkpt>
      <trkpt lat="42.50804" lon="2.03271">
        <ele>1758.9</ele>
        <time>2026-01-19T15:11:42Z</time>
      </trkpt>
      <trkpt lat="42.50804" lon="2.03271">
        <ele>1758.9</ele>
        <time>2026-01-19T15:11:43Z</time>
      </trkpt>
      <trkpt lat="42.50804" lon="2.03271">
        <ele>1759</ele>
        <time>2026-01-19T15:11:44Z</time>
      </trkpt>
      <trkpt lat="42.50804" lon="2.03271">
        <ele>1759</ele>
        <time>2026-01-19T15:11:45Z</time>
      </trkpt>
      <trkpt lat="42.50804" lon="2.03271">
        <ele>1759</ele>
        <time>2026-01-19T15:11:46Z</time>
      </trkpt>
      <trkpt lat="42.50804" lon="2.03271">
        <ele>1759</ele>
        <time>2026-01-19T15:11:47Z</time>
      </trkpt>
      <trkpt lat="42.50804" lon="2.03271">
        <ele>1759.1</ele>
        <time>2026-01-19T15:11:48Z</time>
      </trkpt>
      <trkpt lat="42.50804" lon="2.03271">
        <ele>1759.1</ele>
        <time>2026-01-19T15:11:49Z</time>
      </trkpt>
      <trkpt lat="42.50804" lon="2.03271">
        <ele>1759.1</ele>
        <time>2026-01-19T15:11:50Z</time>
      </trkpt>
      <trkpt lat="42.50804" lon="2.03271">
        <ele>1759.2</ele>
        <time>2026-01-19T15:11:51Z</time>
      </trkpt>
      <trkpt lat="42.50804" lon="2.0327">
        <ele>1759.2</ele>
        <time>2026-01-19T15:11:52Z</time>
      </trkpt>
      <trkpt lat="42.50805" lon="2.0327">
        <ele>1759.2</ele>
        <time>2026-01-19T15:11:53Z</time>
      </trkpt>
      <trkpt lat="42.50805" lon="2.0327">
        <ele>1759.6</ele>
        <time>2026-01-19T15:11:54Z</time>
      </trkpt>
      <trkpt lat="42.50805" lon="2.0327">
        <ele>1759.6</ele>
        <time>2026-01-19T15:11:55Z</time>
      </trkpt>
      <trkpt lat="42.50805" lon="2.0327">
        <ele>1759.6</ele>
        <time>2026-01-19T15:11:56Z</time>
      </trkpt>
      <trkpt lat="42.50805" lon="2.0327">
        <ele>1759.7</ele>
        <time>2026-01-19T15:11:57Z</time>
      </trkpt>
      <trkpt lat="42.50806" lon="2.0327">
        <ele>1759.7</ele>
        <time>2026-01-19T15:11:58Z</time>
      </trkpt>
      <trkpt lat="42.50806" lon="2.0327">
        <ele>1759.7</ele>
        <time>2026-01-19T15:11:59Z</time>
      </trkpt>
      <trkpt lat="42.50806" lon="2.0327">
        <ele>1759.8</ele>
        <time>2026-01-19T15:12:00Z</time>
      </trkpt>
      <trkpt lat="42.50806" lon="2.0327">
        <ele>1759.8</ele>
        <time>2026-01-19T15:12:01Z</time>
      </trkpt>
      <trkpt lat="42.50806" lon="2.0327">
        <ele>1759.8</ele>
        <time>2026-01-19T15:12:02Z</time>
      </trkpt>
      <trkpt lat="42.50806" lon="2.0327">
        <ele>1759.8</ele>
        <time>2026-01-19T15:12:03Z</time>
      </trkpt>
      <trkpt lat="42.50806" lon="2.0327">
        <ele>1759.9</ele>
        <time>2026-01-19T15:12:04Z</time>
      </trkpt>
      <trkpt lat="42.50806" lon="2.0327">
        <ele>1759.9</ele>
        <time>2026-01-19T15:12:05Z</time>
      </trkpt>
      <trkpt lat="42.50806" lon="2.0327">
        <ele>1759.9</ele>
        <time>2026-01-19T15:12:06Z</time>
      </trkpt>
      <trkpt lat="42.50806" lon="2.0327">
        <ele>1759.9</ele>
        <time>2026-01-19T15:12:07Z</time>
      </trkpt>
      <trkpt lat="42.50806" lon="2.0327">
        <ele>1760</ele>
        <time>2026-01-19T15:12:08Z</time>
      </trkpt>
      <trkpt lat="42.50806" lon="2.0327">
        <ele>1760</ele>
        <time>2026-01-19T15:12:09Z</time>
      </trkpt>
      <trkpt lat="42.50806" lon="2.0327">
        <ele>1760</ele>
        <time>2026-01-19T15:12:10Z</time>
      </trkpt>
      <trkpt lat="42.50806" lon="2.0327">
        <ele>1760.1</ele>
        <time>2026-01-19T15:12:11Z</time>
      </trkpt>
      <trkpt lat="42.50806" lon="2.0327">
        <ele>1760.1</ele>
        <time>2026-01-19T15:12:12Z</time>
      </trkpt>
      <trkpt lat="42.50806" lon="2.0327">
        <ele>1760.1</ele>
        <time>2026-01-19T15:12:13Z</time>
      </trkpt>
      <trkpt lat="42.50806" lon="2.0327">
        <ele>1760.1</ele>
        <time>2026-01-19T15:12:14Z</time>
      </trkpt>
      <trkpt lat="42.50805" lon="2.0327">
        <ele>1760.2</ele>
        <time>2026-01-19T15:12:15Z</time>
      </trkpt>
      <trkpt lat="42.50805" lon="2.0327">
        <ele>1760.2</ele>
        <time>2026-01-19T15:12:17Z</time>
      </trkpt>
      <trkpt lat="42.50805" lon="2.0327">
        <ele>1760.2</ele>
        <time>2026-01-19T15:12:18Z</time>
      </trkpt>
      <trkpt lat="42.50805" lon="2.0327">
        <ele>1760.3</ele>
        <time>2026-01-19T15:12:19Z</time>
      </trkpt>
      <trkpt lat="42.50805" lon="2.0327">
        <ele>1760.3</ele>
        <time>2026-01-19T15:12:20Z</time>
      </trkpt>
      <trkpt lat="42.50805" lon="2.0327">
        <ele>1760.3</ele>
        <time>2026-01-19T15:12:21Z</time>
      </trkpt>
      <trkpt lat="42.50805" lon="2.0327">
        <ele>1760.3</ele>
        <time>2026-01-19T15:12:22Z</time>
      </trkpt>
      <trkpt lat="42.50805" lon="2.0327">
        <ele>1760.4</ele>
        <time>2026-01-19T15:12:23Z</time>
      </trkpt>
      <trkpt lat="42.50805" lon="2.0327">
        <ele>1760.4</ele>
        <time>2026-01-19T15:12:24Z</time>
      </trkpt>
      <trkpt lat="42.50805" lon="2.0327">
        <ele>1760.4</ele>
        <time>2026-01-19T15:12:25Z</time>
      </trkpt>
      <trkpt lat="42.50805" lon="2.0327">
        <ele>1760.5</ele>
        <time>2026-01-19T15:12:26Z</time>
      </trkpt>
      <trkpt lat="42.50805" lon="2.0327">
        <ele>1760.5</ele>
        <time>2026-01-19T15:12:27Z</time>
      </trkpt>
      <trkpt lat="42.50805" lon="2.0327">
        <ele>1760.5</ele>
        <time>2026-01-19T15:12:28Z</time>
      </trkpt>
      <trkpt lat="42.50805" lon="2.0327">
        <ele>1760.5</ele>
        <time>2026-01-19T15:12:29Z</time>
      </trkpt>
      <trkpt lat="42.50805" lon="2.0327">
        <ele>1760.6</ele>
        <time>2026-01-19T15:12:30Z</time>
      </trkpt>
      <trkpt lat="42.50805" lon="2.0327">
        <ele>1760.6</ele>
        <time>2026-01-19T15:12:31Z</time>
      </trkpt>
      <trkpt lat="42.50805" lon="2.0327">
        <ele>1760.6</ele>
        <time>2026-01-19T15:12:32Z</time>
      </trkpt>
      <trkpt lat="42.50805" lon="2.0327">
        <ele>1760.7</ele>
        <time>2026-01-19T15:12:33Z</time>
      </trkpt>
      <trkpt lat="42.50805" lon="2.0327">
        <ele>1760.7</ele>
        <time>2026-01-19T15:12:34Z</time>
      </trkpt>
      <trkpt lat="42.50805" lon="2.0327">
        <ele>1760.7</ele>
        <time>2026-01-19T15:12:35Z</time>
      </trkpt>
      <trkpt lat="42.50805" lon="2.0327">
        <ele>1760.7</ele>
        <time>2026-01-19T15:12:36Z</time>
      </trkpt>
      <trkpt lat="42.50805" lon="2.0327">
        <ele>1760.8</ele>
        <time>2026-01-19T15:12:37Z</time>
      </trkpt>
      <trkpt lat="42.50805" lon="2.0327">
        <ele>1760.8</ele>
        <time>2026-01-19T15:12:38Z</time>
      </trkpt>
      <trkpt lat="42.50805" lon="2.0327">
        <ele>1760.8</ele>
        <time>2026-01-19T15:12:39Z</time>
      </trkpt>
      <trkpt lat="42.50805" lon="2.03271">
        <ele>1760.8</ele>
        <time>2026-01-19T15:12:40Z</time>
      </trkpt>
      <trkpt lat="42.50805" lon="2.03271">
        <ele>1760.5</ele>
        <time>2026-01-19T15:12:41Z</time>
      </trkpt>
      <trkpt lat="42.50804" lon="2.03272">
        <ele>1760.6</ele>
        <time>2026-01-19T15:12:42Z</time>
      </trkpt>
      <trkpt lat="42.50803" lon="2.03273">
        <ele>1760.6</ele>
        <time>2026-01-19T15:12:43Z</time>
      </trkpt>
      <trkpt lat="42.50802" lon="2.03273">
        <ele>1760.9</ele>
        <time>2026-01-19T15:12:44Z</time>
      </trkpt>
      <trkpt lat="42.50802" lon="2.03274">
        <ele>1760.9</ele>
        <time>2026-01-19T15:12:45Z</time>
      </trkpt>
      <trkpt lat="42.50802" lon="2.03276">
        <ele>1760.9</ele>
        <time>2026-01-19T15:12:46Z</time>
      </trkpt>
      <trkpt lat="42.50802" lon="2.03278">
        <ele>1761.2</ele>
        <time>2026-01-19T15:12:47Z</time>
      </trkpt>
      <trkpt lat="42.50802" lon="2.03279">
        <ele>1761.3</ele>
        <time>2026-01-19T15:12:48Z</time>
      </trkpt>
      <trkpt lat="42.50801" lon="2.03281">
        <ele>1761</ele>
        <time>2026-01-19T15:12:49Z</time>
      </trkpt>
      <trkpt lat="42.50801" lon="2.03282">
        <ele>1761.4</ele>
        <time>2026-01-19T15:12:50Z</time>
      </trkpt>
      <trkpt lat="42.508" lon="2.03284">
        <ele>1761.4</ele>
        <time>2026-01-19T15:12:51Z</time>
      </trkpt>
      <trkpt lat="42.50798" lon="2.03285">
        <ele>1761.4</ele>
        <time>2026-01-19T15:12:52Z</time>
      </trkpt>
      <trkpt lat="42.50797" lon="2.03286">
        <ele>1761.6</ele>
        <time>2026-01-19T15:12:53Z</time>
      </trkpt>
      <trkpt lat="42.50797" lon="2.03287">
        <ele>1761.6</ele>
        <time>2026-01-19T15:12:54Z</time>
      </trkpt>
      <trkpt lat="42.50796" lon="2.03287">
        <ele>1761.6</ele>
        <time>2026-01-19T15:12:55Z</time>
      </trkpt>
      <trkpt lat="42.50796" lon="2.03288">
        <ele>1761.7</ele>
        <time>2026-01-19T15:12:56Z</time>
      </trkpt>
      <trkpt lat="42.50795" lon="2.03288">
        <ele>1761.5</ele>
        <time>2026-01-19T15:12:57Z</time>
      </trkpt>
      <trkpt lat="42.50795" lon="2.03289">
        <ele>1761.6</ele>
        <time>2026-01-19T15:12:58Z</time>
      </trkpt>
      <trkpt lat="42.50795" lon="2.0329">
        <ele>1761.6</ele>
        <time>2026-01-19T15:12:59Z</time>
      </trkpt>
      <trkpt lat="42.50794" lon="2.0329">
        <ele>1761.9</ele>
        <time>2026-01-19T15:13:00Z</time>
      </trkpt>
      <trkpt lat="42.50793" lon="2.03291">
        <ele>1762</ele>
        <time>2026-01-19T15:13:01Z</time>
      </trkpt>
      <trkpt lat="42.50793" lon="2.03292">
        <ele>1762</ele>
        <time>2026-01-19T15:13:02Z</time>
      </trkpt>
      <trkpt lat="42.50792" lon="2.03292">
        <ele>1762</ele>
        <time>2026-01-19T15:13:03Z</time>
      </trkpt>
      <trkpt lat="42.50792" lon="2.03293">
        <ele>1761.9</ele>
        <time>2026-01-19T15:13:04Z</time>
      </trkpt>
      <trkpt lat="42.50791" lon="2.03293">
        <ele>1762</ele>
        <time>2026-01-19T15:13:05Z</time>
      </trkpt>
      <trkpt lat="42.5079" lon="2.03294">
        <ele>1762</ele>
        <time>2026-01-19T15:13:06Z</time>
      </trkpt>
      <trkpt lat="42.5079" lon="2.03295">
        <ele>1762.3</ele>
        <time>2026-01-19T15:13:07Z</time>
      </trkpt>
      <trkpt lat="42.50789" lon="2.03295">
        <ele>1762.2</ele>
        <time>2026-01-19T15:13:08Z</time>
      </trkpt>
      <trkpt lat="42.50788" lon="2.03296">
        <ele>1762.3</ele>
        <time>2026-01-19T15:13:09Z</time>
      </trkpt>
      <trkpt lat="42.50787" lon="2.03297">
        <ele>1762.3</ele>
        <time>2026-01-19T15:13:10Z</time>
      </trkpt>
      <trkpt lat="42.50787" lon="2.03298">
        <ele>1762.3</ele>
        <time>2026-01-19T15:13:11Z</time>
      </trkpt>
      <trkpt lat="42.50786" lon="2.03298">
        <ele>1762.3</ele>
        <time>2026-01-19T15:13:12Z</time>
      </trkpt>
      <trkpt lat="42.50785" lon="2.03299">
        <ele>1762.5</ele>
        <time>2026-01-19T15:13:13Z</time>
      </trkpt>
      <trkpt lat="42.50784" lon="2.03299">
        <ele>1762.6</ele>
        <time>2026-01-19T15:13:14Z</time>
      </trkpt>
      <trkpt lat="42.50784" lon="2.03301">
        <ele>1762.6</ele>
        <time>2026-01-19T15:13:15Z</time>
      </trkpt>
      <trkpt lat="42.50784" lon="2.03302">
        <ele>1762.6</ele>
        <time>2026-01-19T15:13:16Z</time>
      </trkpt>
      <trkpt lat="42.50783" lon="2.03303">
        <ele>1762.9</ele>
        <time>2026-01-19T15:13:17Z</time>
      </trkpt>
      <trkpt lat="42.50783" lon="2.03304">
        <ele>1763</ele>
        <time>2026-01-19T15:13:18Z</time>
      </trkpt>
      <trkpt lat="42.50783" lon="2.03305">
        <ele>1763</ele>
        <time>2026-01-19T15:13:19Z</time>
      </trkpt>
      <trkpt lat="42.50782" lon="2.03306">
        <ele>1762.9</ele>
        <time>2026-01-19T15:13:20Z</time>
      </trkpt>
      <trkpt lat="42.50781" lon="2.03307">
        <ele>1762.9</ele>
        <time>2026-01-19T15:13:21Z</time>
      </trkpt>
      <trkpt lat="42.50781" lon="2.03308">
        <ele>1763.2</ele>
        <time>2026-01-19T15:13:22Z</time>
      </trkpt>
      <trkpt lat="42.5078" lon="2.03308">
        <ele>1763.2</ele>
        <time>2026-01-19T15:13:23Z</time>
      </trkpt>
      <trkpt lat="42.50779" lon="2.03309">
        <ele>1763.1</ele>
        <time>2026-01-19T15:13:24Z</time>
      </trkpt>
      <trkpt lat="42.50778" lon="2.0331">
        <ele>1763.1</ele>
        <time>2026-01-19T15:13:25Z</time>
      </trkpt>
      <trkpt lat="42.50777" lon="2.03311">
        <ele>1763.1</ele>
        <time>2026-01-19T15:13:26Z</time>
      </trkpt>
      <trkpt lat="42.50777" lon="2.03312">
        <ele>1763.5</ele>
        <time>2026-01-19T15:13:27Z</time>
      </trkpt>
      <trkpt lat="42.50776" lon="2.03313">
        <ele>1763.3</ele>
        <time>2026-01-19T15:13:28Z</time>
      </trkpt>
      <trkpt lat="42.50775" lon="2.03315">
        <ele>1763.3</ele>
        <time>2026-01-19T15:13:29Z</time>
      </trkpt>
      <trkpt lat="42.50775" lon="2.03316">
        <ele>1763.7</ele>
        <time>2026-01-19T15:13:30Z</time>
      </trkpt>
      <trkpt lat="42.50774" lon="2.03317">
        <ele>1763.7</ele>
        <time>2026-01-19T15:13:31Z</time>
      </trkpt>
      <trkpt lat="42.50774" lon="2.03318">
        <ele>1763.7</ele>
        <time>2026-01-19T15:13:32Z</time>
      </trkpt>
      <trkpt lat="42.50774" lon="2.03319">
        <ele>1763.7</ele>
        <time>2026-01-19T15:13:33Z</time>
      </trkpt>
      <trkpt lat="42.50773" lon="2.0332">
        <ele>1763.9</ele>
        <time>2026-01-19T15:13:34Z</time>
      </trkpt>
      <trkpt lat="42.50772" lon="2.03321">
        <ele>1764</ele>
        <time>2026-01-19T15:13:35Z</time>
      </trkpt>
      <trkpt lat="42.50772" lon="2.03322">
        <ele>1764</ele>
        <time>2026-01-19T15:13:36Z</time>
      </trkpt>
      <trkpt lat="42.50771" lon="2.03323">
        <ele>1764</ele>
        <time>2026-01-19T15:13:37Z</time>
      </trkpt>
      <trkpt lat="42.50771" lon="2.03325">
        <ele>1764.4</ele>
        <time>2026-01-19T15:13:38Z</time>
      </trkpt>
      <trkpt lat="42.5077" lon="2.03326">
        <ele>1764.4</ele>
        <time>2026-01-19T15:13:39Z</time>
      </trkpt>
      <trkpt lat="42.5077" lon="2.03327">
        <ele>1764.5</ele>
        <time>2026-01-19T15:13:40Z</time>
      </trkpt>
      <trkpt lat="42.5077" lon="2.03328">
        <ele>1764.5</ele>
        <time>2026-01-19T15:13:41Z</time>
      </trkpt>
      <trkpt lat="42.5077" lon="2.0333">
        <ele>1764.7</ele>
        <time>2026-01-19T15:13:42Z</time>
      </trkpt>
      <trkpt lat="42.50769" lon="2.03331">
        <ele>1764.8</ele>
        <time>2026-01-19T15:13:43Z</time>
      </trkpt>
      <trkpt lat="42.50769" lon="2.03333">
        <ele>1764.8</ele>
        <time>2026-01-19T15:13:44Z</time>
      </trkpt>
      <trkpt lat="42.50768" lon="2.03334">
        <ele>1765.2</ele>
        <time>2026-01-19T15:13:45Z</time>
      </trkpt>
      <trkpt lat="42.50768" lon="2.03336">
        <ele>1765.2</ele>
        <time>2026-01-19T15:13:46Z</time>
      </trkpt>
      <trkpt lat="42.50767" lon="2.03337">
        <ele>1765.2</ele>
        <time>2026-01-19T15:13:47Z</time>
      </trkpt>
      <trkpt lat="42.50767" lon="2.03338">
        <ele>1765.6</ele>
        <time>2026-01-19T15:13:48Z</time>
      </trkpt>
      <trkpt lat="42.50767" lon="2.03339">
        <ele>1765.5</ele>
        <time>2026-01-19T15:13:49Z</time>
      </trkpt>
      <trkpt lat="42.50766" lon="2.03341">
        <ele>1765.5</ele>
        <time>2026-01-19T15:13:50Z</time>
      </trkpt>
      <trkpt lat="42.50765" lon="2.03342">
        <ele>1765.9</ele>
        <time>2026-01-19T15:13:51Z</time>
      </trkpt>
      <trkpt lat="42.50765" lon="2.03343">
        <ele>1765.9</ele>
        <time>2026-01-19T15:13:52Z</time>
      </trkpt>
      <trkpt lat="42.50764" lon="2.03344">
        <ele>1765.9</ele>
        <time>2026-01-19T15:13:53Z</time>
      </trkpt>
      <trkpt lat="42.50763" lon="2.03345">
        <ele>1765.8</ele>
        <time>2026-01-19T15:13:54Z</time>
      </trkpt>
      <trkpt lat="42.50763" lon="2.03347">
        <ele>1766.1</ele>
        <time>2026-01-19T15:13:55Z</time>
      </trkpt>
      <trkpt lat="42.50762" lon="2.03348">
        <ele>1766.2</ele>
        <time>2026-01-19T15:13:56Z</time>
      </trkpt>
      <trkpt lat="42.50762" lon="2.03349">
        <ele>1766.2</ele>
        <time>2026-01-19T15:13:57Z</time>
      </trkpt>
      <trkpt lat="42.50761" lon="2.0335">
        <ele>1766.5</ele>
        <time>2026-01-19T15:13:58Z</time>
      </trkpt>
      <trkpt lat="42.5076" lon="2.03351">
        <ele>1766.6</ele>
        <time>2026-01-19T15:13:59Z</time>
      </trkpt>
      <trkpt lat="42.5076" lon="2.03352">
        <ele>1766.4</ele>
        <time>2026-01-19T15:14:00Z</time>
      </trkpt>
      <trkpt lat="42.5076" lon="2.03354">
        <ele>1766.4</ele>
        <time>2026-01-19T15:14:01Z</time>
      </trkpt>
      <trkpt lat="42.50759" lon="2.03355">
        <ele>1766.8</ele>
        <time>2026-01-19T15:14:02Z</time>
      </trkpt>
      <trkpt lat="42.50758" lon="2.03356">
        <ele>1766.8</ele>
        <time>2026-01-19T15:14:03Z</time>
      </trkpt>
      <trkpt lat="42.50758" lon="2.03357">
        <ele>1766.8</ele>
        <time>2026-01-19T15:14:04Z</time>
      </trkpt>
      <trkpt lat="42.50757" lon="2.03358">
        <ele>1766.7</ele>
        <time>2026-01-19T15:14:05Z</time>
      </trkpt>
      <trkpt lat="42.50756" lon="2.0336">
        <ele>1767</ele>
        <time>2026-01-19T15:14:06Z</time>
      </trkpt>
      <trkpt lat="42.50755" lon="2.03361">
        <ele>1767</ele>
        <time>2026-01-19T15:14:07Z</time>
      </trkpt>
      <trkpt lat="42.50755" lon="2.03362">
        <ele>1767</ele>
        <time>2026-01-19T15:14:08Z</time>
      </trkpt>
      <trkpt lat="42.50754" lon="2.03364">
        <ele>1767.4</ele>
        <time>2026-01-19T15:14:09Z</time>
      </trkpt>
      <trkpt lat="42.50754" lon="2.03365">
        <ele>1767.2</ele>
        <time>2026-01-19T15:14:10Z</time>
      </trkpt>
      <trkpt lat="42.50754" lon="2.03365">
        <ele>1767.3</ele>
        <time>2026-01-19T15:14:11Z</time>
      </trkpt>
      <trkpt lat="42.50753" lon="2.03366">
        <ele>1767.3</ele>
        <time>2026-01-19T15:14:12Z</time>
      </trkpt>
      <trkpt lat="42.50753" lon="2.03369">
        <ele>1767.7</ele>
        <time>2026-01-19T15:14:13Z</time>
      </trkpt>
      <trkpt lat="42.50753" lon="2.03371">
        <ele>1767.7</ele>
        <time>2026-01-19T15:14:14Z</time>
      </trkpt>
      <trkpt lat="42.50752" lon="2.03373">
        <ele>1768.1</ele>
        <time>2026-01-19T15:14:15Z</time>
      </trkpt>
      <trkpt lat="42.50752" lon="2.03374">
        <ele>1768.1</ele>
        <time>2026-01-19T15:14:16Z</time>
      </trkpt>
      <trkpt lat="42.50752" lon="2.03374">
        <ele>1768.1</ele>
        <time>2026-01-19T15:14:17Z</time>
      </trkpt>
      <trkpt lat="42.50752" lon="2.03373">
        <ele>1768.1</ele>
        <time>2026-01-19T15:14:18Z</time>
      </trkpt>
      <trkpt lat="42.50752" lon="2.03372">
        <ele>1768.2</ele>
        <time>2026-01-19T15:14:19Z</time>
      </trkpt>
      <trkpt lat="42.50752" lon="2.03372">
        <ele>1767.8</ele>
        <time>2026-01-19T15:14:20Z</time>
      </trkpt>
      <trkpt lat="42.50752" lon="2.03371">
        <ele>1767.9</ele>
        <time>2026-01-19T15:14:21Z</time>
      </trkpt>
      <trkpt lat="42.50752" lon="2.0337">
        <ele>1767.9</ele>
        <time>2026-01-19T15:14:22Z</time>
      </trkpt>
      <trkpt lat="42.50753" lon="2.03369">
        <ele>1767.9</ele>
        <time>2026-01-19T15:14:23Z</time>
      </trkpt>
      <trkpt lat="42.50753" lon="2.03369">
        <ele>1768</ele>
        <time>2026-01-19T15:14:24Z</time>
      </trkpt>
      <trkpt lat="42.50753" lon="2.03368">
        <ele>1768</ele>
        <time>2026-01-19T15:14:25Z</time>
      </trkpt>
      <trkpt lat="42.50753" lon="2.03367">
        <ele>1768</ele>
        <time>2026-01-19T15:14:26Z</time>
      </trkpt>
      <trkpt lat="42.50754" lon="2.03367">
        <ele>1767.7</ele>
        <time>2026-01-19T15:14:27Z</time>
      </trkpt>
      <trkpt lat="42.50754" lon="2.03367">
        <ele>1767.7</ele>
        <time>2026-01-19T15:14:28Z</time>
      </trkpt>
      <trkpt lat="42.50754" lon="2.03368">
        <ele>1768.3</ele>
        <time>2026-01-19T15:14:29Z</time>
      </trkpt>
      <trkpt lat="42.50755" lon="2.03369">
        <ele>1768.3</ele>
        <time>2026-01-19T15:14:30Z</time>
      </trkpt>
      <trkpt lat="42.50756" lon="2.03371">
        <ele>1768.3</ele>
        <time>2026-01-19T15:14:31Z</time>
      </trkpt>
      <trkpt lat="42.50756" lon="2.03371">
        <ele>1768.4</ele>
        <time>2026-01-19T15:14:32Z</time>
      </trkpt>
      <trkpt lat="42.50756" lon="2.03372">
        <ele>1768.7</ele>
        <time>2026-01-19T15:14:33Z</time>
      </trkpt>
      <trkpt lat="42.50756" lon="2.03372">
        <ele>1768.8</ele>
        <time>2026-01-19T15:14:34Z</time>
      </trkpt>
      <trkpt lat="42.50756" lon="2.03372">
        <ele>1768.8</ele>
        <time>2026-01-19T15:14:35Z</time>
      </trkpt>
      <trkpt lat="42.50755" lon="2.03371">
        <ele>1768.5</ele>
        <time>2026-01-19T15:14:36Z</time>
      </trkpt>
      <trkpt lat="42.50754" lon="2.0337">
        <ele>1768.5</ele>
        <time>2026-01-19T15:14:37Z</time>
      </trkpt>
      <trkpt lat="42.50754" lon="2.03369">
        <ele>1768.5</ele>
        <time>2026-01-19T15:14:38Z</time>
      </trkpt>
      <trkpt lat="42.50754" lon="2.03369">
        <ele>1768.6</ele>
        <time>2026-01-19T15:14:39Z</time>
      </trkpt>
      <trkpt lat="42.50755" lon="2.03369">
        <ele>1768.6</ele>
        <time>2026-01-19T15:14:40Z</time>
      </trkpt>
      <trkpt lat="42.50754" lon="2.03369">
        <ele>1768.6</ele>
        <time>2026-01-19T15:14:41Z</time>
      </trkpt>
      <trkpt lat="42.50754" lon="2.03369">
        <ele>1768.6</ele>
        <time>2026-01-19T15:14:43Z</time>
      </trkpt>
      <trkpt lat="42.50755" lon="2.03367">
        <ele>1768.3</ele>
        <time>2026-01-19T15:14:44Z</time>
      </trkpt>
      <trkpt lat="42.50755" lon="2.03367">
        <ele>1768.4</ele>
        <time>2026-01-19T15:14:48Z</time>
      </trkpt>
      <trkpt lat="42.50755" lon="2.03366">
        <ele>1768.4</ele>
        <time>2026-01-19T15:14:49Z</time>
      </trkpt>
      <trkpt lat="42.50755" lon="2.03366">
        <ele>1768.4</ele>
        <time>2026-01-19T15:14:50Z</time>
      </trkpt>
      <trkpt lat="42.50755" lon="2.03366">
        <ele>1768.5</ele>
        <time>2026-01-19T15:14:51Z</time>
      </trkpt>
      <trkpt lat="42.50755" lon="2.03366">
        <ele>1768.5</ele>
        <time>2026-01-19T15:14:52Z</time>
      </trkpt>
      <trkpt lat="42.50755" lon="2.03366">
        <ele>1768.5</ele>
        <time>2026-01-19T15:14:53Z</time>
      </trkpt>
      <trkpt lat="42.50755" lon="2.03366">
        <ele>1768.5</ele>
        <time>2026-01-19T15:14:54Z</time>
      </trkpt>
      <trkpt lat="42.50755" lon="2.03366">
        <ele>1768.6</ele>
        <time>2026-01-19T15:14:55Z</time>
      </trkpt>
      <trkpt lat="42.50755" lon="2.03366">
        <ele>1768.6</ele>
        <time>2026-01-19T15:14:56Z</time>
      </trkpt>
      <trkpt lat="42.50755" lon="2.03366">
        <ele>1768.6</ele>
        <time>2026-01-19T15:14:57Z</time>
      </trkpt>
      <trkpt lat="42.50755" lon="2.03366">
        <ele>1768.7</ele>
        <time>2026-01-19T15:14:58Z</time>
      </trkpt>
      <trkpt lat="42.50755" lon="2.03366">
        <ele>1768.7</ele>
        <time>2026-01-19T15:14:59Z</time>
      </trkpt>
      <trkpt lat="42.50755" lon="2.03366">
        <ele>1768.7</ele>
        <time>2026-01-19T15:15:00Z</time>
      </trkpt>
      <trkpt lat="42.50756" lon="2.03366">
        <ele>1768.7</ele>
        <time>2026-01-19T15:15:01Z</time>
      </trkpt>
      <trkpt lat="42.50756" lon="2.03366">
        <ele>1768.8</ele>
        <time>2026-01-19T15:15:02Z</time>
      </trkpt>
      <trkpt lat="42.50756" lon="2.03366">
        <ele>1768.8</ele>
        <time>2026-01-19T15:15:03Z</time>
      </trkpt>
      <trkpt lat="42.50756" lon="2.03366">
        <ele>1768.8</ele>
        <time>2026-01-19T15:15:04Z</time>
      </trkpt>
      <trkpt lat="42.50756" lon="2.03366">
        <ele>1768.9</ele>
        <time>2026-01-19T15:15:05Z</time>
      </trkpt>
      <trkpt lat="42.50756" lon="2.03366">
        <ele>1768.9</ele>
        <time>2026-01-19T15:15:06Z</time>
      </trkpt>
      <trkpt lat="42.50756" lon="2.03365">
        <ele>1768.9</ele>
        <time>2026-01-19T15:15:07Z</time>
      </trkpt>
      <trkpt lat="42.50757" lon="2.03365">
        <ele>1768.9</ele>
        <time>2026-01-19T15:15:08Z</time>
      </trkpt>
      <trkpt lat="42.50757" lon="2.03365">
        <ele>1769</ele>
        <time>2026-01-19T15:15:09Z</time>
      </trkpt>
      <trkpt lat="42.50757" lon="2.03365">
        <ele>1769</ele>
        <time>2026-01-19T15:15:10Z</time>
      </trkpt>
      <trkpt lat="42.50757" lon="2.03365">
        <ele>1769</ele>
        <time>2026-01-19T15:15:11Z</time>
      </trkpt>
      <trkpt lat="42.50757" lon="2.03365">
        <ele>1769</ele>
        <time>2026-01-19T15:15:12Z</time>
      </trkpt>
      <trkpt lat="42.50756" lon="2.03365">
        <ele>1769.1</ele>
        <time>2026-01-19T15:15:13Z</time>
      </trkpt>
      <trkpt lat="42.50756" lon="2.03365">
        <ele>1769.1</ele>
        <time>2026-01-19T15:15:14Z</time>
      </trkpt>
      <trkpt lat="42.50756" lon="2.03365">
        <ele>1769.1</ele>
        <time>2026-01-19T15:15:15Z</time>
      </trkpt>
      <trkpt lat="42.50756" lon="2.03365">
        <ele>1769.2</ele>
        <time>2026-01-19T15:15:16Z</time>
      </trkpt>
      <trkpt lat="42.50756" lon="2.03365">
        <ele>1769.2</ele>
        <time>2026-01-19T15:15:17Z</time>
      </trkpt>
      <trkpt lat="42.50756" lon="2.03366">
        <ele>1769.2</ele>
        <time>2026-01-19T15:15:18Z</time>
      </trkpt>
      <trkpt lat="42.50755" lon="2.03366">
        <ele>1769.2</ele>
        <time>2026-01-19T15:15:19Z</time>
      </trkpt>
      <trkpt lat="42.50755" lon="2.03365">
        <ele>1769.3</ele>
        <time>2026-01-19T15:15:20Z</time>
      </trkpt>
      <trkpt lat="42.50756" lon="2.03365">
        <ele>1769.3</ele>
        <time>2026-01-19T15:15:21Z</time>
      </trkpt>
      <trkpt lat="42.50756" lon="2.03366">
        <ele>1769.3</ele>
        <time>2026-01-19T15:15:22Z</time>
      </trkpt>
      <trkpt lat="42.50756" lon="2.03366">
        <ele>1769.4</ele>
        <time>2026-01-19T15:15:23Z</time>
      </trkpt>
      <trkpt lat="42.50756" lon="2.03365">
        <ele>1769.4</ele>
        <time>2026-01-19T15:15:24Z</time>
      </trkpt>
      <trkpt lat="42.50756" lon="2.03365">
        <ele>1769.4</ele>
        <time>2026-01-19T15:15:25Z</time>
      </trkpt>
      <trkpt lat="42.50756" lon="2.03365">
        <ele>1769.4</ele>
        <time>2026-01-19T15:15:26Z</time>
      </trkpt>
      <trkpt lat="42.50756" lon="2.03365">
        <ele>1769.5</ele>
        <time>2026-01-19T15:15:27Z</time>
      </trkpt>
      <trkpt lat="42.50756" lon="2.03366">
        <ele>1769.5</ele>
        <time>2026-01-19T15:15:28Z</time>
      </trkpt>
      <trkpt lat="42.50756" lon="2.03366">
        <ele>1769.5</ele>
        <time>2026-01-19T15:15:29Z</time>
      </trkpt>
      <trkpt lat="42.50756" lon="2.03366">
        <ele>1769.6</ele>
        <time>2026-01-19T15:15:30Z</time>
      </trkpt>
      <trkpt lat="42.50756" lon="2.03366">
        <ele>1769.6</ele>
        <time>2026-01-19T15:15:31Z</time>
      </trkpt>
      <trkpt lat="42.50756" lon="2.03366">
        <ele>1769.6</ele>
        <time>2026-01-19T15:15:32Z</time>
      </trkpt>
      <trkpt lat="42.50756" lon="2.03366">
        <ele>1769.6</ele>
        <time>2026-01-19T15:15:33Z</time>
      </trkpt>
      <trkpt lat="42.50756" lon="2.03366">
        <ele>1769.7</ele>
        <time>2026-01-19T15:15:34Z</time>
      </trkpt>
      <trkpt lat="42.50756" lon="2.03366">
        <ele>1769.7</ele>
        <time>2026-01-19T15:15:35Z</time>
      </trkpt>
      <trkpt lat="42.50756" lon="2.03366">
        <ele>1769.7</ele>
        <time>2026-01-19T15:15:36Z</time>
      </trkpt>
      <trkpt lat="42.50756" lon="2.03366">
        <ele>1769.8</ele>
        <time>2026-01-19T15:15:37Z</time>
      </trkpt>
      <trkpt lat="42.50756" lon="2.03366">
        <ele>1769.8</ele>
        <time>2026-01-19T15:15:38Z</time>
      </trkpt>
      <trkpt lat="42.50756" lon="2.03366">
        <ele>1769.8</ele>
        <time>2026-01-19T15:15:39Z</time>
      </trkpt>
      <trkpt lat="42.50756" lon="2.03366">
        <ele>1769.8</ele>
        <time>2026-01-19T15:15:40Z</time>
      </trkpt>
      <trkpt lat="42.50756" lon="2.03367">
        <ele>1769.9</ele>
        <time>2026-01-19T15:15:41Z</time>
      </trkpt>
      <trkpt lat="42.50756" lon="2.03367">
        <ele>1769.9</ele>
        <time>2026-01-19T15:15:42Z</time>
      </trkpt>
      <trkpt lat="42.50756" lon="2.03367">
        <ele>1769.9</ele>
        <time>2026-01-19T15:15:43Z</time>
      </trkpt>
      <trkpt lat="42.50756" lon="2.03366">
        <ele>1769.9</ele>
        <time>2026-01-19T15:15:44Z</time>
      </trkpt>
      <trkpt lat="42.50756" lon="2.03366">
        <ele>1770</ele>
        <time>2026-01-19T15:15:45Z</time>
      </trkpt>
      <trkpt lat="42.50755" lon="2.03367">
        <ele>1770</ele>
        <time>2026-01-19T15:15:46Z</time>
      </trkpt>
      <trkpt lat="42.50754" lon="2.03368">
        <ele>1770.2</ele>
        <time>2026-01-19T15:15:47Z</time>
      </trkpt>
      <trkpt lat="42.50754" lon="2.03368">
        <ele>1770.2</ele>
        <time>2026-01-19T15:15:48Z</time>
      </trkpt>
      <trkpt lat="42.50754" lon="2.03368">
        <ele>1770.2</ele>
        <time>2026-01-19T15:15:49Z</time>
      </trkpt>
      <trkpt lat="42.50753" lon="2.03369">
        <ele>1770.3</ele>
        <time>2026-01-19T15:15:50Z</time>
      </trkpt>
      <trkpt lat="42.50752" lon="2.0337">
        <ele>1770.3</ele>
        <time>2026-01-19T15:15:51Z</time>
      </trkpt>
      <trkpt lat="42.50751" lon="2.03371">
        <ele>1770.2</ele>
        <time>2026-01-19T15:15:52Z</time>
      </trkpt>
      <trkpt lat="42.5075" lon="2.03373">
        <ele>1770.5</ele>
        <time>2026-01-19T15:15:53Z</time>
      </trkpt>
      <trkpt lat="42.50748" lon="2.03374">
        <ele>1770.6</ele>
        <time>2026-01-19T15:15:54Z</time>
      </trkpt>
      <trkpt lat="42.50747" lon="2.03375">
        <ele>1770.4</ele>
        <time>2026-01-19T15:15:55Z</time>
      </trkpt>
      <trkpt lat="42.50746" lon="2.03376">
        <ele>1770.5</ele>
        <time>2026-01-19T15:15:56Z</time>
      </trkpt>
      <trkpt lat="42.50745" lon="2.03376">
        <ele>1770.9</ele>
        <time>2026-01-19T15:15:57Z</time>
      </trkpt>
      <trkpt lat="42.50745" lon="2.03377">
        <ele>1770.8</ele>
        <time>2026-01-19T15:15:58Z</time>
      </trkpt>
      <trkpt lat="42.50744" lon="2.03377">
        <ele>1770.8</ele>
        <time>2026-01-19T15:15:59Z</time>
      </trkpt>
      <trkpt lat="42.50744" lon="2.03378">
        <ele>1770.8</ele>
        <time>2026-01-19T15:16:00Z</time>
      </trkpt>
      <trkpt lat="42.50743" lon="2.03379">
        <ele>1770.9</ele>
        <time>2026-01-19T15:16:01Z</time>
      </trkpt>
      <trkpt lat="42.50743" lon="2.03379">
        <ele>1770.9</ele>
        <time>2026-01-19T15:16:02Z</time>
      </trkpt>
      <trkpt lat="42.50742" lon="2.0338">
        <ele>1770.9</ele>
        <time>2026-01-19T15:16:03Z</time>
      </trkpt>
      <trkpt lat="42.50742" lon="2.03381">
        <ele>1771.3</ele>
        <time>2026-01-19T15:16:04Z</time>
      </trkpt>
      <trkpt lat="42.50742" lon="2.03382">
        <ele>1771.3</ele>
        <time>2026-01-19T15:16:05Z</time>
      </trkpt>
      <trkpt lat="42.50741" lon="2.03383">
        <ele>1771.2</ele>
        <time>2026-01-19T15:16:06Z</time>
      </trkpt>
      <trkpt lat="42.50741" lon="2.03383">
        <ele>1771.3</ele>
        <time>2026-01-19T15:16:07Z</time>
      </trkpt>
      <trkpt lat="42.50741" lon="2.03384">
        <ele>1771.3</ele>
        <time>2026-01-19T15:16:08Z</time>
      </trkpt>
      <trkpt lat="42.5074" lon="2.03385">
        <ele>1771.7</ele>
        <time>2026-01-19T15:16:09Z</time>
      </trkpt>
      <trkpt lat="42.5074" lon="2.03386">
        <ele>1771.7</ele>
        <time>2026-01-19T15:16:10Z</time>
      </trkpt>
      <trkpt lat="42.5074" lon="2.03387">
        <ele>1771.7</ele>
        <time>2026-01-19T15:16:11Z</time>
      </trkpt>
      <trkpt lat="42.50739" lon="2.03388">
        <ele>1771.8</ele>
        <time>2026-01-19T15:16:12Z</time>
      </trkpt>
      <trkpt lat="42.50739" lon="2.03389">
        <ele>1771.8</ele>
        <time>2026-01-19T15:16:13Z</time>
      </trkpt>
      <trkpt lat="42.50739" lon="2.03389">
        <ele>1772.2</ele>
        <time>2026-01-19T15:16:14Z</time>
      </trkpt>
      <trkpt lat="42.50738" lon="2.0339">
        <ele>1772.2</ele>
        <time>2026-01-19T15:16:15Z</time>
      </trkpt>
      <trkpt lat="42.50738" lon="2.03391">
        <ele>1772.1</ele>
        <time>2026-01-19T15:16:16Z</time>
      </trkpt>
      <trkpt lat="42.50737" lon="2.03392">
        <ele>1772.1</ele>
        <time>2026-01-19T15:16:17Z</time>
      </trkpt>
      <trkpt lat="42.50737" lon="2.03393">
        <ele>1772.5</ele>
        <time>2026-01-19T15:16:18Z</time>
      </trkpt>
      <trkpt lat="42.50737" lon="2.03394">
        <ele>1772.5</ele>
        <time>2026-01-19T15:16:19Z</time>
      </trkpt>
      <trkpt lat="42.50736" lon="2.03395">
        <ele>1772.5</ele>
        <time>2026-01-19T15:16:20Z</time>
      </trkpt>
      <trkpt lat="42.50736" lon="2.03396">
        <ele>1772.5</ele>
        <time>2026-01-19T15:16:21Z</time>
      </trkpt>
      <trkpt lat="42.50735" lon="2.03397">
        <ele>1772.6</ele>
        <time>2026-01-19T15:16:22Z</time>
      </trkpt>
      <trkpt lat="42.50735" lon="2.03398">
        <ele>1772.7</ele>
        <time>2026-01-19T15:16:23Z</time>
      </trkpt>
      <trkpt lat="42.50734" lon="2.03399">
        <ele>1772.7</ele>
        <time>2026-01-19T15:16:24Z</time>
      </trkpt>
      <trkpt lat="42.50734" lon="2.03401">
        <ele>1772.7</ele>
        <time>2026-01-19T15:16:25Z</time>
      </trkpt>
      <trkpt lat="42.50734" lon="2.03402">
        <ele>1773.1</ele>
        <time>2026-01-19T15:16:26Z</time>
      </trkpt>
      <trkpt lat="42.50733" lon="2.03403">
        <ele>1773.1</ele>
        <time>2026-01-19T15:16:27Z</time>
      </trkpt>
      <trkpt lat="42.50733" lon="2.03404">
        <ele>1773.1</ele>
        <time>2026-01-19T15:16:28Z</time>
      </trkpt>
      <trkpt lat="42.50733" lon="2.03405">
        <ele>1773.1</ele>
        <time>2026-01-19T15:16:29Z</time>
      </trkpt>
      <trkpt lat="42.50732" lon="2.03406">
        <ele>1773.2</ele>
        <time>2026-01-19T15:16:30Z</time>
      </trkpt>
      <trkpt lat="42.50732" lon="2.03405">
        <ele>1773.2</ele>
        <time>2026-01-19T15:16:31Z</time>
      </trkpt>
      <trkpt lat="42.50733" lon="2.03405">
        <ele>1773.2</ele>
        <time>2026-01-19T15:16:32Z</time>
      </trkpt>
      <trkpt lat="42.50733" lon="2.03405">
        <ele>1773.3</ele>
        <time>2026-01-19T15:16:33Z</time>
      </trkpt>
      <trkpt lat="42.50733" lon="2.03405">
        <ele>1773.3</ele>
        <time>2026-01-19T15:16:34Z</time>
      </trkpt>
      <trkpt lat="42.50733" lon="2.03405">
        <ele>1773.3</ele>
        <time>2026-01-19T15:16:35Z</time>
      </trkpt>
      <trkpt lat="42.50733" lon="2.03405">
        <ele>1773.3</ele>
        <time>2026-01-19T15:16:36Z</time>
      </trkpt>
      <trkpt lat="42.50733" lon="2.03405">
        <ele>1773.4</ele>
        <time>2026-01-19T15:16:37Z</time>
      </trkpt>
      <trkpt lat="42.50733" lon="2.03405">
        <ele>1773.4</ele>
        <time>2026-01-19T15:16:38Z</time>
      </trkpt>
      <trkpt lat="42.50733" lon="2.03406">
        <ele>1773.4</ele>
        <time>2026-01-19T15:16:39Z</time>
      </trkpt>
      <trkpt lat="42.50733" lon="2.03406">
        <ele>1773.8</ele>
        <time>2026-01-19T15:16:40Z</time>
      </trkpt>
      <trkpt lat="42.50733" lon="2.03408">
        <ele>1773.8</ele>
        <time>2026-01-19T15:16:41Z</time>
      </trkpt>
      <trkpt lat="42.50732" lon="2.03409">
        <ele>1773.5</ele>
        <time>2026-01-19T15:16:42Z</time>
      </trkpt>
      <trkpt lat="42.50731" lon="2.0341">
        <ele>1773.6</ele>
        <time>2026-01-19T15:16:43Z</time>
      </trkpt>
      <trkpt lat="42.5073" lon="2.03411">
        <ele>1773.9</ele>
        <time>2026-01-19T15:16:44Z</time>
      </trkpt>
      <trkpt lat="42.50729" lon="2.03411">
        <ele>1773.9</ele>
        <time>2026-01-19T15:16:45Z</time>
      </trkpt>
      <trkpt lat="42.50728" lon="2.03411">
        <ele>1773.6</ele>
        <time>2026-01-19T15:16:46Z</time>
      </trkpt>
      <trkpt lat="42.50728" lon="2.03411">
        <ele>1773.6</ele>
        <time>2026-01-19T15:16:47Z</time>
      </trkpt>
      <trkpt lat="42.50727" lon="2.03411">
        <ele>1773.7</ele>
        <time>2026-01-19T15:16:48Z</time>
      </trkpt>
      <trkpt lat="42.50726" lon="2.0341">
        <ele>1773.7</ele>
        <time>2026-01-19T15:16:49Z</time>
      </trkpt>
      <trkpt lat="42.50725" lon="2.0341">
        <ele>1773.1</ele>
        <time>2026-01-19T15:16:50Z</time>
      </trkpt>
      <trkpt lat="42.50724" lon="2.0341">
        <ele>1773.2</ele>
        <time>2026-01-19T15:16:51Z</time>
      </trkpt>
      <trkpt lat="42.50723" lon="2.0341">
        <ele>1773.2</ele>
        <time>2026-01-19T15:16:52Z</time>
      </trkpt>
      <trkpt lat="42.50722" lon="2.0341">
        <ele>1772.9</ele>
        <time>2026-01-19T15:16:53Z</time>
      </trkpt>
      <trkpt lat="42.50721" lon="2.03409">
        <ele>1773</ele>
        <time>2026-01-19T15:16:54Z</time>
      </trkpt>
      <trkpt lat="42.5072" lon="2.03409">
        <ele>1773</ele>
        <time>2026-01-19T15:16:55Z</time>
      </trkpt>
      <trkpt lat="42.50719" lon="2.0341">
        <ele>1772.8</ele>
        <time>2026-01-19T15:16:56Z</time>
      </trkpt>
      <trkpt lat="42.50718" lon="2.0341">
        <ele>1772.8</ele>
        <time>2026-01-19T15:16:57Z</time>
      </trkpt>
      <trkpt lat="42.50717" lon="2.0341">
        <ele>1772.8</ele>
        <time>2026-01-19T15:16:58Z</time>
      </trkpt>
      <trkpt lat="42.50716" lon="2.0341">
        <ele>1772.6</ele>
        <time>2026-01-19T15:16:59Z</time>
      </trkpt>
      <trkpt lat="42.50715" lon="2.0341">
        <ele>1772.9</ele>
        <time>2026-01-19T15:17:00Z</time>
      </trkpt>
      <trkpt lat="42.50714" lon="2.0341">
        <ele>1772.9</ele>
        <time>2026-01-19T15:17:01Z</time>
      </trkpt>
      <trkpt lat="42.50713" lon="2.03411">
        <ele>1772.8</ele>
        <time>2026-01-19T15:17:02Z</time>
      </trkpt>
      <trkpt lat="42.50712" lon="2.03411">
        <ele>1772.8</ele>
        <time>2026-01-19T15:17:03Z</time>
      </trkpt>
      <trkpt lat="42.50711" lon="2.03411">
        <ele>1772.9</ele>
        <time>2026-01-19T15:17:04Z</time>
      </trkpt>
      <trkpt lat="42.5071" lon="2.03412">
        <ele>1772.9</ele>
        <time>2026-01-19T15:17:05Z</time>
      </trkpt>
      <trkpt lat="42.50709" lon="2.03412">
        <ele>1772.8</ele>
        <time>2026-01-19T15:17:06Z</time>
      </trkpt>
      <trkpt lat="42.50708" lon="2.03413">
        <ele>1772.9</ele>
        <time>2026-01-19T15:17:07Z</time>
      </trkpt>
      <trkpt lat="42.50707" lon="2.03413">
        <ele>1772.9</ele>
        <time>2026-01-19T15:17:08Z</time>
      </trkpt>
      <trkpt lat="42.50707" lon="2.03413">
        <ele>1772.9</ele>
        <time>2026-01-19T15:17:09Z</time>
      </trkpt>
      <trkpt lat="42.50706" lon="2.03413">
        <ele>1772.9</ele>
        <time>2026-01-19T15:17:10Z</time>
      </trkpt>
      <trkpt lat="42.50705" lon="2.03413">
        <ele>1772.9</ele>
        <time>2026-01-19T15:17:11Z</time>
      </trkpt>
      <trkpt lat="42.50704" lon="2.03414">
        <ele>1773</ele>
        <time>2026-01-19T15:17:12Z</time>
      </trkpt>
      <trkpt lat="42.50703" lon="2.03414">
        <ele>1773</ele>
        <time>2026-01-19T15:17:13Z</time>
      </trkpt>
      <trkpt lat="42.50702" lon="2.03415">
        <ele>1773.3</ele>
        <time>2026-01-19T15:17:14Z</time>
      </trkpt>
      <trkpt lat="42.50701" lon="2.03416">
        <ele>1773.3</ele>
        <time>2026-01-19T15:17:15Z</time>
      </trkpt>
      <trkpt lat="42.50701" lon="2.03417">
        <ele>1773.4</ele>
        <time>2026-01-19T15:17:16Z</time>
      </trkpt>
      <trkpt lat="42.507" lon="2.03418">
        <ele>1773.4</ele>
        <time>2026-01-19T15:17:17Z</time>
      </trkpt>
      <trkpt lat="42.50699" lon="2.03419">
        <ele>1773.7</ele>
        <time>2026-01-19T15:17:18Z</time>
      </trkpt>
      <trkpt lat="42.50699" lon="2.0342">
        <ele>1773.7</ele>
        <time>2026-01-19T15:17:19Z</time>
      </trkpt>
      <trkpt lat="42.50698" lon="2.03421">
        <ele>1773.8</ele>
        <time>2026-01-19T15:17:20Z</time>
      </trkpt>
      <trkpt lat="42.50697" lon="2.03422">
        <ele>1773.8</ele>
        <time>2026-01-19T15:17:21Z</time>
      </trkpt>
      <trkpt lat="42.50696" lon="2.03423">
        <ele>1773.9</ele>
        <time>2026-01-19T15:17:22Z</time>
      </trkpt>
      <trkpt lat="42.50696" lon="2.03423">
        <ele>1774.1</ele>
        <time>2026-01-19T15:17:23Z</time>
      </trkpt>
      <trkpt lat="42.50695" lon="2.03424">
        <ele>1774.2</ele>
        <time>2026-01-19T15:17:24Z</time>
      </trkpt>
      <trkpt lat="42.50695" lon="2.03424">
        <ele>1774.2</ele>
        <time>2026-01-19T15:17:25Z</time>
      </trkpt>
      <trkpt lat="42.50695" lon="2.03424">
        <ele>1774.2</ele>
        <time>2026-01-19T15:17:26Z</time>
      </trkpt>
      <trkpt lat="42.50695" lon="2.03423">
        <ele>1774.3</ele>
        <time>2026-01-19T15:17:27Z</time>
      </trkpt>
      <trkpt lat="42.50695" lon="2.03423">
        <ele>1774.3</ele>
        <time>2026-01-19T15:17:28Z</time>
      </trkpt>
      <trkpt lat="42.50694" lon="2.03424">
        <ele>1774.3</ele>
        <time>2026-01-19T15:17:29Z</time>
      </trkpt>
      <trkpt lat="42.50694" lon="2.03424">
        <ele>1774.4</ele>
        <time>2026-01-19T15:17:30Z</time>
      </trkpt>
      <trkpt lat="42.50693" lon="2.03424">
        <ele>1774.4</ele>
        <time>2026-01-19T15:17:31Z</time>
      </trkpt>
      <trkpt lat="42.50693" lon="2.03424">
        <ele>1774.5</ele>
        <time>2026-01-19T15:17:32Z</time>
      </trkpt>
      <trkpt lat="42.50694" lon="2.03424">
        <ele>1774.5</ele>
        <time>2026-01-19T15:17:33Z</time>
      </trkpt>
      <trkpt lat="42.50694" lon="2.03424">
        <ele>1774.5</ele>
        <time>2026-01-19T15:17:34Z</time>
      </trkpt>
      <trkpt lat="42.50694" lon="2.03424">
        <ele>1774.5</ele>
        <time>2026-01-19T15:17:35Z</time>
      </trkpt>
      <trkpt lat="42.50694" lon="2.03424">
        <ele>1774.6</ele>
        <time>2026-01-19T15:17:36Z</time>
      </trkpt>
      <trkpt lat="42.50694" lon="2.03424">
        <ele>1774.6</ele>
        <time>2026-01-19T15:17:37Z</time>
      </trkpt>
      <trkpt lat="42.50693" lon="2.03424">
        <ele>1774.6</ele>
        <time>2026-01-19T15:17:38Z</time>
      </trkpt>
      <trkpt lat="42.50693" lon="2.03425">
        <ele>1774.7</ele>
        <time>2026-01-19T15:17:39Z</time>
      </trkpt>
      <trkpt lat="42.50693" lon="2.03426">
        <ele>1774.7</ele>
        <time>2026-01-19T15:17:40Z</time>
      </trkpt>
      <trkpt lat="42.50692" lon="2.03427">
        <ele>1774.7</ele>
        <time>2026-01-19T15:17:41Z</time>
      </trkpt>
      <trkpt lat="42.50691" lon="2.03429">
        <ele>1775</ele>
        <time>2026-01-19T15:17:42Z</time>
      </trkpt>
      <trkpt lat="42.5069" lon="2.03429">
        <ele>1775</ele>
        <time>2026-01-19T15:17:43Z</time>
      </trkpt>
      <trkpt lat="42.50689" lon="2.0343">
        <ele>1775</ele>
        <time>2026-01-19T15:17:44Z</time>
      </trkpt>
      <trkpt lat="42.50688" lon="2.03431">
        <ele>1775.1</ele>
        <time>2026-01-19T15:17:45Z</time>
      </trkpt>
      <trkpt lat="42.50687" lon="2.03432">
        <ele>1775.3</ele>
        <time>2026-01-19T15:17:46Z</time>
      </trkpt>
      <trkpt lat="42.50686" lon="2.03433">
        <ele>1775.3</ele>
        <time>2026-01-19T15:17:47Z</time>
      </trkpt>
      <trkpt lat="42.50686" lon="2.03434">
        <ele>1775.4</ele>
        <time>2026-01-19T15:17:48Z</time>
      </trkpt>
      <trkpt lat="42.50685" lon="2.03435">
        <ele>1775.4</ele>
        <time>2026-01-19T15:17:49Z</time>
      </trkpt>
      <trkpt lat="42.50684" lon="2.03436">
        <ele>1775.6</ele>
        <time>2026-01-19T15:17:50Z</time>
      </trkpt>
      <trkpt lat="42.50682" lon="2.03438">
        <ele>1775.6</ele>
        <time>2026-01-19T15:17:51Z</time>
      </trkpt>
      <trkpt lat="42.50682" lon="2.03439">
        <ele>1775.6</ele>
        <time>2026-01-19T15:17:52Z</time>
      </trkpt>
      <trkpt lat="42.50681" lon="2.03439">
        <ele>1775.6</ele>
        <time>2026-01-19T15:17:53Z</time>
      </trkpt>
      <trkpt lat="42.5068" lon="2.0344">
        <ele>1775.8</ele>
        <time>2026-01-19T15:17:54Z</time>
      </trkpt>
      <trkpt lat="42.50679" lon="2.03441">
        <ele>1775.8</ele>
        <time>2026-01-19T15:17:55Z</time>
      </trkpt>
      <trkpt lat="42.50679" lon="2.03442">
        <ele>1775.9</ele>
        <time>2026-01-19T15:17:56Z</time>
      </trkpt>
      <trkpt lat="42.50677" lon="2.03444">
        <ele>1775.8</ele>
        <time>2026-01-19T15:17:57Z</time>
      </trkpt>
      <trkpt lat="42.50676" lon="2.03445">
        <ele>1776</ele>
        <time>2026-01-19T15:17:58Z</time>
      </trkpt>
      <trkpt lat="42.50675" lon="2.03447">
        <ele>1776</ele>
        <time>2026-01-19T15:17:59Z</time>
      </trkpt>
      <trkpt lat="42.50675" lon="2.03448">
        <ele>1776</ele>
        <time>2026-01-19T15:18:00Z</time>
      </trkpt>
      <trkpt lat="42.50674" lon="2.03449">
        <ele>1776</ele>
        <time>2026-01-19T15:18:01Z</time>
      </trkpt>
      <trkpt lat="42.50673" lon="2.03451">
        <ele>1776.2</ele>
        <time>2026-01-19T15:18:02Z</time>
      </trkpt>
      <trkpt lat="42.50672" lon="2.03452">
        <ele>1776.2</ele>
        <time>2026-01-19T15:18:03Z</time>
      </trkpt>
      <trkpt lat="42.50671" lon="2.03452">
        <ele>1776.1</ele>
        <time>2026-01-19T15:18:04Z</time>
      </trkpt>
      <trkpt lat="42.50671" lon="2.03453">
        <ele>1776.2</ele>
        <time>2026-01-19T15:18:05Z</time>
      </trkpt>
      <trkpt lat="42.5067" lon="2.03454">
        <ele>1776.2</ele>
        <time>2026-01-19T15:18:06Z</time>
      </trkpt>
      <trkpt lat="42.5067" lon="2.03456">
        <ele>1776.1</ele>
        <time>2026-01-19T15:18:07Z</time>
      </trkpt>
      <trkpt lat="42.50669" lon="2.03458">
        <ele>1776</ele>
        <time>2026-01-19T15:18:08Z</time>
      </trkpt>
      <trkpt lat="42.50669" lon="2.03459">
        <ele>1776</ele>
        <time>2026-01-19T15:18:09Z</time>
      </trkpt>
      <trkpt lat="42.50669" lon="2.0346">
        <ele>1775.9</ele>
        <time>2026-01-19T15:18:10Z</time>
      </trkpt>
      <trkpt lat="42.50668" lon="2.03462">
        <ele>1775.9</ele>
        <time>2026-01-19T15:18:11Z</time>
      </trkpt>
      <trkpt lat="42.50668" lon="2.03463">
        <ele>1775.8</ele>
        <time>2026-01-19T15:18:12Z</time>
      </trkpt>
      <trkpt lat="42.50668" lon="2.03465">
        <ele>1775.7</ele>
        <time>2026-01-19T15:18:13Z</time>
      </trkpt>
      <trkpt lat="42.50668" lon="2.03466">
        <ele>1775.7</ele>
        <time>2026-01-19T15:18:14Z</time>
      </trkpt>
      <trkpt lat="42.50668" lon="2.03467">
        <ele>1775.6</ele>
        <time>2026-01-19T15:18:15Z</time>
      </trkpt>
      <trkpt lat="42.50668" lon="2.03469">
        <ele>1775.6</ele>
        <time>2026-01-19T15:18:16Z</time>
      </trkpt>
      <trkpt lat="42.50668" lon="2.0347">
        <ele>1775.5</ele>
        <time>2026-01-19T15:18:17Z</time>
      </trkpt>
      <trkpt lat="42.50668" lon="2.03472">
        <ele>1775.4</ele>
        <time>2026-01-19T15:18:18Z</time>
      </trkpt>
      <trkpt lat="42.50668" lon="2.03473">
        <ele>1775.4</ele>
        <time>2026-01-19T15:18:19Z</time>
      </trkpt>
      <trkpt lat="42.50668" lon="2.03475">
        <ele>1775.3</ele>
        <time>2026-01-19T15:18:20Z</time>
      </trkpt>
      <trkpt lat="42.50668" lon="2.03476">
        <ele>1775.2</ele>
        <time>2026-01-19T15:18:21Z</time>
      </trkpt>
      <trkpt lat="42.50668" lon="2.03478">
        <ele>1775.1</ele>
        <time>2026-01-19T15:18:22Z</time>
      </trkpt>
      <trkpt lat="42.50668" lon="2.03479">
        <ele>1775.1</ele>
        <time>2026-01-19T15:18:23Z</time>
      </trkpt>
      <trkpt lat="42.50668" lon="2.03481">
        <ele>1775</ele>
        <time>2026-01-19T15:18:24Z</time>
      </trkpt>
      <trkpt lat="42.50668" lon="2.03483">
        <ele>1774.9</ele>
        <time>2026-01-19T15:18:25Z</time>
      </trkpt>
      <trkpt lat="42.50667" lon="2.03486">
        <ele>1774.8</ele>
        <time>2026-01-19T15:18:26Z</time>
      </trkpt>
      <trkpt lat="42.50668" lon="2.03487">
        <ele>1774.7</ele>
        <time>2026-01-19T15:18:27Z</time>
      </trkpt>
      <trkpt lat="42.50668" lon="2.03488">
        <ele>1774.7</ele>
        <time>2026-01-19T15:18:28Z</time>
      </trkpt>
      <trkpt lat="42.50668" lon="2.0349">
        <ele>1774.6</ele>
        <time>2026-01-19T15:18:29Z</time>
      </trkpt>
      <trkpt lat="42.50668" lon="2.03492">
        <ele>1774.5</ele>
        <time>2026-01-19T15:18:30Z</time>
      </trkpt>
      <trkpt lat="42.50668" lon="2.03494">
        <ele>1774.4</ele>
        <time>2026-01-19T15:18:31Z</time>
      </trkpt>
      <trkpt lat="42.50669" lon="2.03496">
        <ele>1774.3</ele>
        <time>2026-01-19T15:18:32Z</time>
      </trkpt>
      <trkpt lat="42.50669" lon="2.03497">
        <ele>1774.2</ele>
        <time>2026-01-19T15:18:33Z</time>
      </trkpt>
      <trkpt lat="42.5067" lon="2.03499">
        <ele>1774.1</ele>
        <time>2026-01-19T15:18:34Z</time>
      </trkpt>
      <trkpt lat="42.5067" lon="2.03501">
        <ele>1774</ele>
        <time>2026-01-19T15:18:35Z</time>
      </trkpt>
      <trkpt lat="42.5067" lon="2.03502">
        <ele>1774</ele>
        <time>2026-01-19T15:18:36Z</time>
      </trkpt>
      <trkpt lat="42.50671" lon="2.03503">
        <ele>1773.9</ele>
        <time>2026-01-19T15:18:37Z</time>
      </trkpt>
      <trkpt lat="42.5067" lon="2.03504">
        <ele>1773.9</ele>
        <time>2026-01-19T15:18:38Z</time>
      </trkpt>
      <trkpt lat="42.5067" lon="2.03505">
        <ele>1773.8</ele>
        <time>2026-01-19T15:18:39Z</time>
      </trkpt>
      <trkpt lat="42.5067" lon="2.03508">
        <ele>1773.7</ele>
        <time>2026-01-19T15:18:40Z</time>
      </trkpt>
      <trkpt lat="42.5067" lon="2.03509">
        <ele>1773.7</ele>
        <time>2026-01-19T15:18:41Z</time>
      </trkpt>
      <trkpt lat="42.5067" lon="2.0351">
        <ele>1773.6</ele>
        <time>2026-01-19T15:18:42Z</time>
      </trkpt>
      <trkpt lat="42.5067" lon="2.03512">
        <ele>1773.5</ele>
        <time>2026-01-19T15:18:43Z</time>
      </trkpt>
      <trkpt lat="42.5067" lon="2.03513">
        <ele>1773.5</ele>
        <time>2026-01-19T15:18:44Z</time>
      </trkpt>
      <trkpt lat="42.5067" lon="2.03514">
        <ele>1773.4</ele>
        <time>2026-01-19T15:18:45Z</time>
      </trkpt>
      <trkpt lat="42.5067" lon="2.03515">
        <ele>1773.4</ele>
        <time>2026-01-19T15:18:46Z</time>
      </trkpt>
      <trkpt lat="42.50671" lon="2.03516">
        <ele>1773.4</ele>
        <time>2026-01-19T15:18:47Z</time>
      </trkpt>
      <trkpt lat="42.50671" lon="2.03515">
        <ele>1773.3</ele>
        <time>2026-01-19T15:18:48Z</time>
      </trkpt>
      <trkpt lat="42.50671" lon="2.03515">
        <ele>1773.3</ele>
        <time>2026-01-19T15:18:49Z</time>
      </trkpt>
      <trkpt lat="42.50672" lon="2.03515">
        <ele>1773.3</ele>
        <time>2026-01-19T15:18:51Z</time>
      </trkpt>
      <trkpt lat="42.50671" lon="2.03515">
        <ele>1773.3</ele>
        <time>2026-01-19T15:18:52Z</time>
      </trkpt>
      <trkpt lat="42.50671" lon="2.03515">
        <ele>1773.3</ele>
        <time>2026-01-19T15:18:53Z</time>
      </trkpt>
    </trkseg>
  </trk>
</gpx>